<?xml version="1.0" encoding="UTF-8" standalone="no" ?>
<gpx xmlns="http://www.topografix.com/GPX/1/1" xmlns:xsi="http://www.w3.org/2001/XMLSchema-instance" xsi:schemaLocation="http://www.topografix.com/GPX/1/1 http://www.topografix.com/GPX/1/1/gpx.xsd" version="1.1" creator="VisuGPX - https://www.visugpx.com">
  <metadata>
    <name>Circuit AC Rospez du 4 janvier 2015</name>
    <desc><![CDATA[Circuit AC Rospez du 4 janvier 2015]]></desc>
  </metadata>
  <trk>
    <name><![CDATA[Circuit AC Rospez du 4 janvier 2015_1]]></name>
    <trkseg>
      <trkpt lat="48.73022" lon="-3.3837">
        <ele>76</ele>
        <time>2015-01-04T08:04:38Z</time>
      </trkpt>
      <trkpt lat="48.73002" lon="-3.38405">
        <ele>77</ele>
        <time>2015-01-04T08:04:45Z</time>
      </trkpt>
      <trkpt lat="48.72999" lon="-3.3841">
        <ele>77</ele>
        <time>2015-01-04T08:04:46Z</time>
      </trkpt>
      <trkpt lat="48.72997" lon="-3.38415">
        <ele>77</ele>
        <time>2015-01-04T08:04:47Z</time>
      </trkpt>
      <trkpt lat="48.72994" lon="-3.3842">
        <ele>77</ele>
        <time>2015-01-04T08:04:48Z</time>
      </trkpt>
      <trkpt lat="48.72991" lon="-3.38424">
        <ele>77</ele>
        <time>2015-01-04T08:04:49Z</time>
      </trkpt>
      <trkpt lat="48.72988" lon="-3.38429">
        <ele>77</ele>
        <time>2015-01-04T08:04:50Z</time>
      </trkpt>
      <trkpt lat="48.72985" lon="-3.38433">
        <ele>77</ele>
        <time>2015-01-04T08:04:51Z</time>
      </trkpt>
      <trkpt lat="48.72982" lon="-3.38437">
        <ele>77</ele>
        <time>2015-01-04T08:04:52Z</time>
      </trkpt>
      <trkpt lat="48.72977" lon="-3.3844">
        <ele>77</ele>
        <time>2015-01-04T08:04:53Z</time>
      </trkpt>
      <trkpt lat="48.72973" lon="-3.38444">
        <ele>77</ele>
        <time>2015-01-04T08:04:54Z</time>
      </trkpt>
      <trkpt lat="48.72968" lon="-3.38447">
        <ele>77</ele>
        <time>2015-01-04T08:04:55Z</time>
      </trkpt>
      <trkpt lat="48.72963" lon="-3.38449">
        <ele>77</ele>
        <time>2015-01-04T08:04:56Z</time>
      </trkpt>
      <trkpt lat="48.72958" lon="-3.38452">
        <ele>77</ele>
        <time>2015-01-04T08:04:57Z</time>
      </trkpt>
      <trkpt lat="48.72953" lon="-3.38454">
        <ele>77</ele>
        <time>2015-01-04T08:04:58Z</time>
      </trkpt>
      <trkpt lat="48.72948" lon="-3.38457">
        <ele>77</ele>
        <time>2015-01-04T08:04:59Z</time>
      </trkpt>
      <trkpt lat="48.72943" lon="-3.38461">
        <ele>77</ele>
        <time>2015-01-04T08:05:00Z</time>
      </trkpt>
      <trkpt lat="48.7294" lon="-3.38467">
        <ele>77</ele>
        <time>2015-01-04T08:05:01Z</time>
      </trkpt>
      <trkpt lat="48.72937" lon="-3.38473">
        <ele>77</ele>
        <time>2015-01-04T08:05:02Z</time>
      </trkpt>
      <trkpt lat="48.72934" lon="-3.38479">
        <ele>77</ele>
        <time>2015-01-04T08:05:03Z</time>
      </trkpt>
      <trkpt lat="48.72932" lon="-3.38486">
        <ele>77</ele>
        <time>2015-01-04T08:05:04Z</time>
      </trkpt>
      <trkpt lat="48.7293" lon="-3.38492">
        <ele>77</ele>
        <time>2015-01-04T08:05:05Z</time>
      </trkpt>
      <trkpt lat="48.72927" lon="-3.38499">
        <ele>77</ele>
        <time>2015-01-04T08:05:06Z</time>
      </trkpt>
      <trkpt lat="48.72925" lon="-3.38505">
        <ele>77</ele>
        <time>2015-01-04T08:05:07Z</time>
      </trkpt>
      <trkpt lat="48.72923" lon="-3.38512">
        <ele>77</ele>
        <time>2015-01-04T08:05:08Z</time>
      </trkpt>
      <trkpt lat="48.7292" lon="-3.38518">
        <ele>77</ele>
        <time>2015-01-04T08:05:09Z</time>
      </trkpt>
      <trkpt lat="48.72918" lon="-3.38523">
        <ele>77</ele>
        <time>2015-01-04T08:05:10Z</time>
      </trkpt>
      <trkpt lat="48.72916" lon="-3.38529">
        <ele>77</ele>
        <time>2015-01-04T08:05:11Z</time>
      </trkpt>
      <trkpt lat="48.72914" lon="-3.38535">
        <ele>77</ele>
        <time>2015-01-04T08:05:12Z</time>
      </trkpt>
      <trkpt lat="48.72912" lon="-3.38541">
        <ele>77</ele>
        <time>2015-01-04T08:05:13Z</time>
      </trkpt>
      <trkpt lat="48.7291" lon="-3.38546">
        <ele>77</ele>
        <time>2015-01-04T08:05:14Z</time>
      </trkpt>
      <trkpt lat="48.72907" lon="-3.38551">
        <ele>77</ele>
        <time>2015-01-04T08:05:15Z</time>
      </trkpt>
      <trkpt lat="48.72904" lon="-3.38556">
        <ele>77</ele>
        <time>2015-01-04T08:05:16Z</time>
      </trkpt>
      <trkpt lat="48.72901" lon="-3.3856">
        <ele>77</ele>
        <time>2015-01-04T08:05:17Z</time>
      </trkpt>
      <trkpt lat="48.72897" lon="-3.38563">
        <ele>77</ele>
        <time>2015-01-04T08:05:18Z</time>
      </trkpt>
      <trkpt lat="48.72892" lon="-3.38566">
        <ele>77</ele>
        <time>2015-01-04T08:05:19Z</time>
      </trkpt>
      <trkpt lat="48.72888" lon="-3.38569">
        <ele>77</ele>
        <time>2015-01-04T08:05:20Z</time>
      </trkpt>
      <trkpt lat="48.72883" lon="-3.38571">
        <ele>77</ele>
        <time>2015-01-04T08:05:21Z</time>
      </trkpt>
      <trkpt lat="48.72879" lon="-3.38573">
        <ele>77</ele>
        <time>2015-01-04T08:05:22Z</time>
      </trkpt>
      <trkpt lat="48.72874" lon="-3.38574">
        <ele>77</ele>
        <time>2015-01-04T08:05:23Z</time>
      </trkpt>
      <trkpt lat="48.72869" lon="-3.38575">
        <ele>77</ele>
        <time>2015-01-04T08:05:24Z</time>
      </trkpt>
      <trkpt lat="48.72865" lon="-3.38576">
        <ele>77</ele>
        <time>2015-01-04T08:05:25Z</time>
      </trkpt>
      <trkpt lat="48.7286" lon="-3.38577">
        <ele>77</ele>
        <time>2015-01-04T08:05:26Z</time>
      </trkpt>
      <trkpt lat="48.72855" lon="-3.38578">
        <ele>77</ele>
        <time>2015-01-04T08:05:27Z</time>
      </trkpt>
      <trkpt lat="48.7285" lon="-3.38579">
        <ele>77</ele>
        <time>2015-01-04T08:05:28Z</time>
      </trkpt>
      <trkpt lat="48.72845" lon="-3.3858">
        <ele>77</ele>
        <time>2015-01-04T08:05:29Z</time>
      </trkpt>
      <trkpt lat="48.7284" lon="-3.38581">
        <ele>77</ele>
        <time>2015-01-04T08:05:30Z</time>
      </trkpt>
      <trkpt lat="48.72835" lon="-3.38582">
        <ele>77</ele>
        <time>2015-01-04T08:05:31Z</time>
      </trkpt>
      <trkpt lat="48.7283" lon="-3.38583">
        <ele>77</ele>
        <time>2015-01-04T08:05:32Z</time>
      </trkpt>
      <trkpt lat="48.72825" lon="-3.38585">
        <ele>77</ele>
        <time>2015-01-04T08:05:33Z</time>
      </trkpt>
      <trkpt lat="48.7282" lon="-3.38586">
        <ele>77</ele>
        <time>2015-01-04T08:05:34Z</time>
      </trkpt>
      <trkpt lat="48.72815" lon="-3.38588">
        <ele>77</ele>
        <time>2015-01-04T08:05:35Z</time>
      </trkpt>
      <trkpt lat="48.72811" lon="-3.38589">
        <ele>77</ele>
        <time>2015-01-04T08:05:36Z</time>
      </trkpt>
      <trkpt lat="48.72806" lon="-3.38592">
        <ele>77</ele>
        <time>2015-01-04T08:05:37Z</time>
      </trkpt>
      <trkpt lat="48.72802" lon="-3.38595">
        <ele>77</ele>
        <time>2015-01-04T08:05:38Z</time>
      </trkpt>
      <trkpt lat="48.72798" lon="-3.38599">
        <ele>77</ele>
        <time>2015-01-04T08:05:39Z</time>
      </trkpt>
      <trkpt lat="48.72794" lon="-3.38603">
        <ele>77</ele>
        <time>2015-01-04T08:05:40Z</time>
      </trkpt>
      <trkpt lat="48.72791" lon="-3.38608">
        <ele>77</ele>
        <time>2015-01-04T08:05:41Z</time>
      </trkpt>
      <trkpt lat="48.72787" lon="-3.38612">
        <ele>77</ele>
        <time>2015-01-04T08:05:42Z</time>
      </trkpt>
      <trkpt lat="48.72783" lon="-3.38617">
        <ele>77</ele>
        <time>2015-01-04T08:05:43Z</time>
      </trkpt>
      <trkpt lat="48.72779" lon="-3.38622">
        <ele>77</ele>
        <time>2015-01-04T08:05:44Z</time>
      </trkpt>
      <trkpt lat="48.72776" lon="-3.38626">
        <ele>77</ele>
        <time>2015-01-04T08:05:45Z</time>
      </trkpt>
      <trkpt lat="48.72772" lon="-3.38631">
        <ele>77</ele>
        <time>2015-01-04T08:05:46Z</time>
      </trkpt>
      <trkpt lat="48.72769" lon="-3.38637">
        <ele>77</ele>
        <time>2015-01-04T08:05:47Z</time>
      </trkpt>
      <trkpt lat="48.72765" lon="-3.38642">
        <ele>77</ele>
        <time>2015-01-04T08:05:48Z</time>
      </trkpt>
      <trkpt lat="48.72762" lon="-3.38647">
        <ele>77</ele>
        <time>2015-01-04T08:05:49Z</time>
      </trkpt>
      <trkpt lat="48.72758" lon="-3.38652">
        <ele>77</ele>
        <time>2015-01-04T08:05:50Z</time>
      </trkpt>
      <trkpt lat="48.72755" lon="-3.38657">
        <ele>77</ele>
        <time>2015-01-04T08:05:51Z</time>
      </trkpt>
      <trkpt lat="48.72751" lon="-3.38662">
        <ele>77</ele>
        <time>2015-01-04T08:05:52Z</time>
      </trkpt>
      <trkpt lat="48.72748" lon="-3.38667">
        <ele>77</ele>
        <time>2015-01-04T08:05:53Z</time>
      </trkpt>
      <trkpt lat="48.72745" lon="-3.38672">
        <ele>77</ele>
        <time>2015-01-04T08:05:54Z</time>
      </trkpt>
      <trkpt lat="48.72741" lon="-3.38678">
        <ele>77</ele>
        <time>2015-01-04T08:05:55Z</time>
      </trkpt>
      <trkpt lat="48.72738" lon="-3.38683">
        <ele>77</ele>
        <time>2015-01-04T08:05:56Z</time>
      </trkpt>
      <trkpt lat="48.72735" lon="-3.38689">
        <ele>77</ele>
        <time>2015-01-04T08:05:57Z</time>
      </trkpt>
      <trkpt lat="48.72731" lon="-3.38695">
        <ele>77</ele>
        <time>2015-01-04T08:05:58Z</time>
      </trkpt>
      <trkpt lat="48.72728" lon="-3.387">
        <ele>77</ele>
        <time>2015-01-04T08:05:59Z</time>
      </trkpt>
      <trkpt lat="48.72725" lon="-3.38706">
        <ele>77</ele>
        <time>2015-01-04T08:06:00Z</time>
      </trkpt>
      <trkpt lat="48.72722" lon="-3.38712">
        <ele>77</ele>
        <time>2015-01-04T08:06:01Z</time>
      </trkpt>
      <trkpt lat="48.72718" lon="-3.38718">
        <ele>77</ele>
        <time>2015-01-04T08:06:02Z</time>
      </trkpt>
      <trkpt lat="48.72715" lon="-3.38724">
        <ele>77</ele>
        <time>2015-01-04T08:06:03Z</time>
      </trkpt>
      <trkpt lat="48.72712" lon="-3.3873">
        <ele>77</ele>
        <time>2015-01-04T08:06:04Z</time>
      </trkpt>
      <trkpt lat="48.72709" lon="-3.38736">
        <ele>77</ele>
        <time>2015-01-04T08:06:05Z</time>
      </trkpt>
      <trkpt lat="48.72706" lon="-3.38743">
        <ele>77</ele>
        <time>2015-01-04T08:06:06Z</time>
      </trkpt>
      <trkpt lat="48.72703" lon="-3.3875">
        <ele>77</ele>
        <time>2015-01-04T08:06:07Z</time>
      </trkpt>
      <trkpt lat="48.727" lon="-3.38757">
        <ele>77</ele>
        <time>2015-01-04T08:06:08Z</time>
      </trkpt>
      <trkpt lat="48.72698" lon="-3.38764">
        <ele>77</ele>
        <time>2015-01-04T08:06:09Z</time>
      </trkpt>
      <trkpt lat="48.72695" lon="-3.38771">
        <ele>77</ele>
        <time>2015-01-04T08:06:10Z</time>
      </trkpt>
      <trkpt lat="48.72693" lon="-3.38778">
        <ele>77</ele>
        <time>2015-01-04T08:06:11Z</time>
      </trkpt>
      <trkpt lat="48.7269" lon="-3.38785">
        <ele>78</ele>
        <time>2015-01-04T08:06:12Z</time>
      </trkpt>
      <trkpt lat="48.72688" lon="-3.38792">
        <ele>78</ele>
        <time>2015-01-04T08:06:13Z</time>
      </trkpt>
      <trkpt lat="48.72686" lon="-3.388">
        <ele>78</ele>
        <time>2015-01-04T08:06:14Z</time>
      </trkpt>
      <trkpt lat="48.72684" lon="-3.38807">
        <ele>78</ele>
        <time>2015-01-04T08:06:15Z</time>
      </trkpt>
      <trkpt lat="48.72683" lon="-3.38814">
        <ele>78</ele>
        <time>2015-01-04T08:06:16Z</time>
      </trkpt>
      <trkpt lat="48.72681" lon="-3.38821">
        <ele>78</ele>
        <time>2015-01-04T08:06:17Z</time>
      </trkpt>
      <trkpt lat="48.72679" lon="-3.38827">
        <ele>78</ele>
        <time>2015-01-04T08:06:18Z</time>
      </trkpt>
      <trkpt lat="48.72677" lon="-3.38835">
        <ele>78</ele>
        <time>2015-01-04T08:06:19Z</time>
      </trkpt>
      <trkpt lat="48.72675" lon="-3.38842">
        <ele>78</ele>
        <time>2015-01-04T08:06:20Z</time>
      </trkpt>
      <trkpt lat="48.72673" lon="-3.38849">
        <ele>78</ele>
        <time>2015-01-04T08:06:21Z</time>
      </trkpt>
      <trkpt lat="48.72671" lon="-3.38855">
        <ele>78</ele>
        <time>2015-01-04T08:06:22Z</time>
      </trkpt>
      <trkpt lat="48.72668" lon="-3.38862">
        <ele>78</ele>
        <time>2015-01-04T08:06:23Z</time>
      </trkpt>
      <trkpt lat="48.72666" lon="-3.38869">
        <ele>78</ele>
        <time>2015-01-04T08:06:24Z</time>
      </trkpt>
      <trkpt lat="48.72663" lon="-3.38875">
        <ele>78</ele>
        <time>2015-01-04T08:06:25Z</time>
      </trkpt>
      <trkpt lat="48.72661" lon="-3.38882">
        <ele>78</ele>
        <time>2015-01-04T08:06:26Z</time>
      </trkpt>
      <trkpt lat="48.72658" lon="-3.38889">
        <ele>78</ele>
        <time>2015-01-04T08:06:27Z</time>
      </trkpt>
      <trkpt lat="48.72655" lon="-3.38895">
        <ele>78</ele>
        <time>2015-01-04T08:06:28Z</time>
      </trkpt>
      <trkpt lat="48.72653" lon="-3.38902">
        <ele>78</ele>
        <time>2015-01-04T08:06:29Z</time>
      </trkpt>
      <trkpt lat="48.7265" lon="-3.38908">
        <ele>78</ele>
        <time>2015-01-04T08:06:30Z</time>
      </trkpt>
      <trkpt lat="48.72647" lon="-3.38915">
        <ele>78</ele>
        <time>2015-01-04T08:06:31Z</time>
      </trkpt>
      <trkpt lat="48.72644" lon="-3.38922">
        <ele>78</ele>
        <time>2015-01-04T08:06:32Z</time>
      </trkpt>
      <trkpt lat="48.72642" lon="-3.38929">
        <ele>78</ele>
        <time>2015-01-04T08:06:33Z</time>
      </trkpt>
      <trkpt lat="48.72639" lon="-3.38936">
        <ele>78</ele>
        <time>2015-01-04T08:06:34Z</time>
      </trkpt>
      <trkpt lat="48.72636" lon="-3.38943">
        <ele>79</ele>
        <time>2015-01-04T08:06:35Z</time>
      </trkpt>
      <trkpt lat="48.72633" lon="-3.3895">
        <ele>79</ele>
        <time>2015-01-04T08:06:36Z</time>
      </trkpt>
      <trkpt lat="48.7263" lon="-3.38957">
        <ele>79</ele>
        <time>2015-01-04T08:06:37Z</time>
      </trkpt>
      <trkpt lat="48.72627" lon="-3.38964">
        <ele>79</ele>
        <time>2015-01-04T08:06:38Z</time>
      </trkpt>
      <trkpt lat="48.72624" lon="-3.38971">
        <ele>79</ele>
        <time>2015-01-04T08:06:39Z</time>
      </trkpt>
      <trkpt lat="48.72621" lon="-3.38978">
        <ele>79</ele>
        <time>2015-01-04T08:06:40Z</time>
      </trkpt>
      <trkpt lat="48.72618" lon="-3.38985">
        <ele>79</ele>
        <time>2015-01-04T08:06:41Z</time>
      </trkpt>
      <trkpt lat="48.72615" lon="-3.38992">
        <ele>79</ele>
        <time>2015-01-04T08:06:42Z</time>
      </trkpt>
      <trkpt lat="48.72612" lon="-3.38999">
        <ele>79</ele>
        <time>2015-01-04T08:06:43Z</time>
      </trkpt>
      <trkpt lat="48.72608" lon="-3.39006">
        <ele>79</ele>
        <time>2015-01-04T08:06:44Z</time>
      </trkpt>
      <trkpt lat="48.72605" lon="-3.39012">
        <ele>79</ele>
        <time>2015-01-04T08:06:45Z</time>
      </trkpt>
      <trkpt lat="48.72601" lon="-3.39019">
        <ele>79</ele>
        <time>2015-01-04T08:06:46Z</time>
      </trkpt>
      <trkpt lat="48.72598" lon="-3.39026">
        <ele>79</ele>
        <time>2015-01-04T08:06:47Z</time>
      </trkpt>
      <trkpt lat="48.72594" lon="-3.39033">
        <ele>79</ele>
        <time>2015-01-04T08:06:48Z</time>
      </trkpt>
      <trkpt lat="48.7259" lon="-3.3904">
        <ele>79</ele>
        <time>2015-01-04T08:06:49Z</time>
      </trkpt>
      <trkpt lat="48.72586" lon="-3.39047">
        <ele>79</ele>
        <time>2015-01-04T08:06:50Z</time>
      </trkpt>
      <trkpt lat="48.72583" lon="-3.39053">
        <ele>79</ele>
        <time>2015-01-04T08:06:51Z</time>
      </trkpt>
      <trkpt lat="48.72579" lon="-3.3906">
        <ele>79</ele>
        <time>2015-01-04T08:06:52Z</time>
      </trkpt>
      <trkpt lat="48.72576" lon="-3.39066">
        <ele>79</ele>
        <time>2015-01-04T08:06:53Z</time>
      </trkpt>
      <trkpt lat="48.72572" lon="-3.39073">
        <ele>80</ele>
        <time>2015-01-04T08:06:54Z</time>
      </trkpt>
      <trkpt lat="48.72569" lon="-3.39079">
        <ele>80</ele>
        <time>2015-01-04T08:06:55Z</time>
      </trkpt>
      <trkpt lat="48.72565" lon="-3.39086">
        <ele>80</ele>
        <time>2015-01-04T08:06:56Z</time>
      </trkpt>
      <trkpt lat="48.72562" lon="-3.39092">
        <ele>80</ele>
        <time>2015-01-04T08:06:57Z</time>
      </trkpt>
      <trkpt lat="48.72558" lon="-3.39099">
        <ele>80</ele>
        <time>2015-01-04T08:06:58Z</time>
      </trkpt>
      <trkpt lat="48.72555" lon="-3.39105">
        <ele>80</ele>
        <time>2015-01-04T08:06:59Z</time>
      </trkpt>
      <trkpt lat="48.72551" lon="-3.39112">
        <ele>80</ele>
        <time>2015-01-04T08:07:00Z</time>
      </trkpt>
      <trkpt lat="48.72548" lon="-3.39118">
        <ele>80</ele>
        <time>2015-01-04T08:07:01Z</time>
      </trkpt>
      <trkpt lat="48.72544" lon="-3.39125">
        <ele>80</ele>
        <time>2015-01-04T08:07:02Z</time>
      </trkpt>
      <trkpt lat="48.72541" lon="-3.39131">
        <ele>80</ele>
        <time>2015-01-04T08:07:03Z</time>
      </trkpt>
      <trkpt lat="48.72537" lon="-3.39138">
        <ele>80</ele>
        <time>2015-01-04T08:07:04Z</time>
      </trkpt>
      <trkpt lat="48.72534" lon="-3.39144">
        <ele>80</ele>
        <time>2015-01-04T08:07:05Z</time>
      </trkpt>
      <trkpt lat="48.7253" lon="-3.39151">
        <ele>80</ele>
        <time>2015-01-04T08:07:06Z</time>
      </trkpt>
      <trkpt lat="48.72527" lon="-3.39158">
        <ele>80</ele>
        <time>2015-01-04T08:07:07Z</time>
      </trkpt>
      <trkpt lat="48.72523" lon="-3.39164">
        <ele>80</ele>
        <time>2015-01-04T08:07:08Z</time>
      </trkpt>
      <trkpt lat="48.7252" lon="-3.39171">
        <ele>80</ele>
        <time>2015-01-04T08:07:09Z</time>
      </trkpt>
      <trkpt lat="48.72517" lon="-3.39178">
        <ele>80</ele>
        <time>2015-01-04T08:07:10Z</time>
      </trkpt>
      <trkpt lat="48.72513" lon="-3.39185">
        <ele>80</ele>
        <time>2015-01-04T08:07:11Z</time>
      </trkpt>
      <trkpt lat="48.7251" lon="-3.39192">
        <ele>80</ele>
        <time>2015-01-04T08:07:12Z</time>
      </trkpt>
      <trkpt lat="48.72507" lon="-3.39199">
        <ele>80</ele>
        <time>2015-01-04T08:07:13Z</time>
      </trkpt>
      <trkpt lat="48.72504" lon="-3.39206">
        <ele>80</ele>
        <time>2015-01-04T08:07:14Z</time>
      </trkpt>
      <trkpt lat="48.725" lon="-3.39214">
        <ele>80</ele>
        <time>2015-01-04T08:07:15Z</time>
      </trkpt>
      <trkpt lat="48.72497" lon="-3.39221">
        <ele>80</ele>
        <time>2015-01-04T08:07:16Z</time>
      </trkpt>
      <trkpt lat="48.72494" lon="-3.39229">
        <ele>80</ele>
        <time>2015-01-04T08:07:17Z</time>
      </trkpt>
      <trkpt lat="48.72491" lon="-3.39237">
        <ele>80</ele>
        <time>2015-01-04T08:07:18Z</time>
      </trkpt>
      <trkpt lat="48.72488" lon="-3.39245">
        <ele>80</ele>
        <time>2015-01-04T08:07:19Z</time>
      </trkpt>
      <trkpt lat="48.72485" lon="-3.39252">
        <ele>80</ele>
        <time>2015-01-04T08:07:20Z</time>
      </trkpt>
      <trkpt lat="48.72481" lon="-3.3926">
        <ele>80</ele>
        <time>2015-01-04T08:07:21Z</time>
      </trkpt>
      <trkpt lat="48.72478" lon="-3.39267">
        <ele>80</ele>
        <time>2015-01-04T08:07:22Z</time>
      </trkpt>
      <trkpt lat="48.72475" lon="-3.39275">
        <ele>80</ele>
        <time>2015-01-04T08:07:23Z</time>
      </trkpt>
      <trkpt lat="48.72472" lon="-3.39282">
        <ele>80</ele>
        <time>2015-01-04T08:07:24Z</time>
      </trkpt>
      <trkpt lat="48.72469" lon="-3.3929">
        <ele>80</ele>
        <time>2015-01-04T08:07:25Z</time>
      </trkpt>
      <trkpt lat="48.72465" lon="-3.39297">
        <ele>80</ele>
        <time>2015-01-04T08:07:26Z</time>
      </trkpt>
      <trkpt lat="48.72462" lon="-3.39304">
        <ele>80</ele>
        <time>2015-01-04T08:07:27Z</time>
      </trkpt>
      <trkpt lat="48.72458" lon="-3.39312">
        <ele>80</ele>
        <time>2015-01-04T08:07:28Z</time>
      </trkpt>
      <trkpt lat="48.72455" lon="-3.39319">
        <ele>80</ele>
        <time>2015-01-04T08:07:29Z</time>
      </trkpt>
      <trkpt lat="48.72451" lon="-3.39326">
        <ele>80</ele>
        <time>2015-01-04T08:07:30Z</time>
      </trkpt>
      <trkpt lat="48.72447" lon="-3.39333">
        <ele>80</ele>
        <time>2015-01-04T08:07:31Z</time>
      </trkpt>
      <trkpt lat="48.72443" lon="-3.39341">
        <ele>80</ele>
        <time>2015-01-04T08:07:32Z</time>
      </trkpt>
      <trkpt lat="48.7244" lon="-3.39348">
        <ele>80</ele>
        <time>2015-01-04T08:07:33Z</time>
      </trkpt>
      <trkpt lat="48.72436" lon="-3.39355">
        <ele>80</ele>
        <time>2015-01-04T08:07:34Z</time>
      </trkpt>
      <trkpt lat="48.72432" lon="-3.39362">
        <ele>80</ele>
        <time>2015-01-04T08:07:35Z</time>
      </trkpt>
      <trkpt lat="48.72428" lon="-3.39369">
        <ele>80</ele>
        <time>2015-01-04T08:07:36Z</time>
      </trkpt>
      <trkpt lat="48.72424" lon="-3.39376">
        <ele>80</ele>
        <time>2015-01-04T08:07:37Z</time>
      </trkpt>
      <trkpt lat="48.72419" lon="-3.39382">
        <ele>80</ele>
        <time>2015-01-04T08:07:38Z</time>
      </trkpt>
      <trkpt lat="48.72415" lon="-3.39389">
        <ele>80</ele>
        <time>2015-01-04T08:07:39Z</time>
      </trkpt>
      <trkpt lat="48.72411" lon="-3.39396">
        <ele>80</ele>
        <time>2015-01-04T08:07:40Z</time>
      </trkpt>
      <trkpt lat="48.72406" lon="-3.39402">
        <ele>80</ele>
        <time>2015-01-04T08:07:41Z</time>
      </trkpt>
      <trkpt lat="48.72401" lon="-3.39409">
        <ele>80</ele>
        <time>2015-01-04T08:07:42Z</time>
      </trkpt>
      <trkpt lat="48.72397" lon="-3.39416">
        <ele>80</ele>
        <time>2015-01-04T08:07:43Z</time>
      </trkpt>
      <trkpt lat="48.72392" lon="-3.39422">
        <ele>80</ele>
        <time>2015-01-04T08:07:44Z</time>
      </trkpt>
      <trkpt lat="48.72387" lon="-3.39429">
        <ele>80</ele>
        <time>2015-01-04T08:07:45Z</time>
      </trkpt>
      <trkpt lat="48.72382" lon="-3.39436">
        <ele>80</ele>
        <time>2015-01-04T08:07:46Z</time>
      </trkpt>
      <trkpt lat="48.72377" lon="-3.39443">
        <ele>80</ele>
        <time>2015-01-04T08:07:47Z</time>
      </trkpt>
      <trkpt lat="48.72372" lon="-3.3945">
        <ele>80</ele>
        <time>2015-01-04T08:07:48Z</time>
      </trkpt>
      <trkpt lat="48.72367" lon="-3.39457">
        <ele>80</ele>
        <time>2015-01-04T08:07:49Z</time>
      </trkpt>
      <trkpt lat="48.72362" lon="-3.39464">
        <ele>80</ele>
        <time>2015-01-04T08:07:50Z</time>
      </trkpt>
      <trkpt lat="48.72357" lon="-3.39471">
        <ele>80</ele>
        <time>2015-01-04T08:07:51Z</time>
      </trkpt>
      <trkpt lat="48.72352" lon="-3.39477">
        <ele>80</ele>
        <time>2015-01-04T08:07:52Z</time>
      </trkpt>
      <trkpt lat="48.72347" lon="-3.39484">
        <ele>80</ele>
        <time>2015-01-04T08:07:53Z</time>
      </trkpt>
      <trkpt lat="48.72342" lon="-3.39491">
        <ele>80</ele>
        <time>2015-01-04T08:07:54Z</time>
      </trkpt>
      <trkpt lat="48.72337" lon="-3.39498">
        <ele>80</ele>
        <time>2015-01-04T08:07:55Z</time>
      </trkpt>
      <trkpt lat="48.72332" lon="-3.39505">
        <ele>80</ele>
        <time>2015-01-04T08:07:56Z</time>
      </trkpt>
      <trkpt lat="48.72328" lon="-3.39513">
        <ele>80</ele>
        <time>2015-01-04T08:07:57Z</time>
      </trkpt>
      <trkpt lat="48.72323" lon="-3.39521">
        <ele>80</ele>
        <time>2015-01-04T08:07:58Z</time>
      </trkpt>
      <trkpt lat="48.72319" lon="-3.39528">
        <ele>80</ele>
        <time>2015-01-04T08:07:59Z</time>
      </trkpt>
      <trkpt lat="48.72314" lon="-3.39536">
        <ele>80</ele>
        <time>2015-01-04T08:08:00Z</time>
      </trkpt>
      <trkpt lat="48.7231" lon="-3.39545">
        <ele>80</ele>
        <time>2015-01-04T08:08:01Z</time>
      </trkpt>
      <trkpt lat="48.72306" lon="-3.39554">
        <ele>80</ele>
        <time>2015-01-04T08:08:02Z</time>
      </trkpt>
      <trkpt lat="48.72302" lon="-3.39563">
        <ele>80</ele>
        <time>2015-01-04T08:08:03Z</time>
      </trkpt>
      <trkpt lat="48.72298" lon="-3.39572">
        <ele>80</ele>
        <time>2015-01-04T08:08:04Z</time>
      </trkpt>
      <trkpt lat="48.72294" lon="-3.3958">
        <ele>80</ele>
        <time>2015-01-04T08:08:05Z</time>
      </trkpt>
      <trkpt lat="48.7229" lon="-3.39589">
        <ele>80</ele>
        <time>2015-01-04T08:08:06Z</time>
      </trkpt>
      <trkpt lat="48.72285" lon="-3.39596">
        <ele>80</ele>
        <time>2015-01-04T08:08:07Z</time>
      </trkpt>
      <trkpt lat="48.7228" lon="-3.39604">
        <ele>79</ele>
        <time>2015-01-04T08:08:08Z</time>
      </trkpt>
      <trkpt lat="48.72275" lon="-3.3961">
        <ele>79</ele>
        <time>2015-01-04T08:08:09Z</time>
      </trkpt>
      <trkpt lat="48.72269" lon="-3.39616">
        <ele>79</ele>
        <time>2015-01-04T08:08:10Z</time>
      </trkpt>
      <trkpt lat="48.72263" lon="-3.39622">
        <ele>79</ele>
        <time>2015-01-04T08:08:11Z</time>
      </trkpt>
      <trkpt lat="48.72258" lon="-3.39627">
        <ele>79</ele>
        <time>2015-01-04T08:08:12Z</time>
      </trkpt>
      <trkpt lat="48.72252" lon="-3.39631">
        <ele>79</ele>
        <time>2015-01-04T08:08:13Z</time>
      </trkpt>
      <trkpt lat="48.72246" lon="-3.39636">
        <ele>78</ele>
        <time>2015-01-04T08:08:14Z</time>
      </trkpt>
      <trkpt lat="48.7224" lon="-3.3964">
        <ele>78</ele>
        <time>2015-01-04T08:08:15Z</time>
      </trkpt>
      <trkpt lat="48.72234" lon="-3.39644">
        <ele>78</ele>
        <time>2015-01-04T08:08:16Z</time>
      </trkpt>
      <trkpt lat="48.72227" lon="-3.39648">
        <ele>78</ele>
        <time>2015-01-04T08:08:17Z</time>
      </trkpt>
      <trkpt lat="48.72221" lon="-3.39653">
        <ele>77</ele>
        <time>2015-01-04T08:08:18Z</time>
      </trkpt>
      <trkpt lat="48.72214" lon="-3.39658">
        <ele>77</ele>
        <time>2015-01-04T08:08:19Z</time>
      </trkpt>
      <trkpt lat="48.72207" lon="-3.39662">
        <ele>77</ele>
        <time>2015-01-04T08:08:20Z</time>
      </trkpt>
      <trkpt lat="48.72201" lon="-3.39667">
        <ele>77</ele>
        <time>2015-01-04T08:08:21Z</time>
      </trkpt>
      <trkpt lat="48.72194" lon="-3.39671">
        <ele>77</ele>
        <time>2015-01-04T08:08:22Z</time>
      </trkpt>
      <trkpt lat="48.72187" lon="-3.39676">
        <ele>77</ele>
        <time>2015-01-04T08:08:23Z</time>
      </trkpt>
      <trkpt lat="48.72181" lon="-3.3968">
        <ele>76</ele>
        <time>2015-01-04T08:08:24Z</time>
      </trkpt>
      <trkpt lat="48.72174" lon="-3.39684">
        <ele>76</ele>
        <time>2015-01-04T08:08:25Z</time>
      </trkpt>
      <trkpt lat="48.72168" lon="-3.39687">
        <ele>76</ele>
        <time>2015-01-04T08:08:26Z</time>
      </trkpt>
      <trkpt lat="48.72161" lon="-3.39691">
        <ele>76</ele>
        <time>2015-01-04T08:08:27Z</time>
      </trkpt>
      <trkpt lat="48.72155" lon="-3.39695">
        <ele>76</ele>
        <time>2015-01-04T08:08:28Z</time>
      </trkpt>
      <trkpt lat="48.7215" lon="-3.39698">
        <ele>76</ele>
        <time>2015-01-04T08:08:29Z</time>
      </trkpt>
      <trkpt lat="48.72144" lon="-3.39701">
        <ele>75</ele>
        <time>2015-01-04T08:08:30Z</time>
      </trkpt>
      <trkpt lat="48.72138" lon="-3.39705">
        <ele>75</ele>
        <time>2015-01-04T08:08:31Z</time>
      </trkpt>
      <trkpt lat="48.72132" lon="-3.39708">
        <ele>75</ele>
        <time>2015-01-04T08:08:32Z</time>
      </trkpt>
      <trkpt lat="48.72126" lon="-3.39711">
        <ele>75</ele>
        <time>2015-01-04T08:08:33Z</time>
      </trkpt>
      <trkpt lat="48.7212" lon="-3.39715">
        <ele>75</ele>
        <time>2015-01-04T08:08:34Z</time>
      </trkpt>
      <trkpt lat="48.72114" lon="-3.39718">
        <ele>75</ele>
        <time>2015-01-04T08:08:35Z</time>
      </trkpt>
      <trkpt lat="48.72108" lon="-3.39721">
        <ele>75</ele>
        <time>2015-01-04T08:08:36Z</time>
      </trkpt>
      <trkpt lat="48.72102" lon="-3.39725">
        <ele>75</ele>
        <time>2015-01-04T08:08:37Z</time>
      </trkpt>
      <trkpt lat="48.72097" lon="-3.39728">
        <ele>75</ele>
        <time>2015-01-04T08:08:38Z</time>
      </trkpt>
      <trkpt lat="48.7209" lon="-3.39732">
        <ele>75</ele>
        <time>2015-01-04T08:08:39Z</time>
      </trkpt>
      <trkpt lat="48.72084" lon="-3.39735">
        <ele>75</ele>
        <time>2015-01-04T08:08:40Z</time>
      </trkpt>
      <trkpt lat="48.72078" lon="-3.39739">
        <ele>75</ele>
        <time>2015-01-04T08:08:41Z</time>
      </trkpt>
      <trkpt lat="48.72072" lon="-3.39742">
        <ele>75</ele>
        <time>2015-01-04T08:08:42Z</time>
      </trkpt>
      <trkpt lat="48.72066" lon="-3.39746">
        <ele>75</ele>
        <time>2015-01-04T08:08:43Z</time>
      </trkpt>
      <trkpt lat="48.7206" lon="-3.3975">
        <ele>75</ele>
        <time>2015-01-04T08:08:44Z</time>
      </trkpt>
      <trkpt lat="48.72054" lon="-3.39753">
        <ele>75</ele>
        <time>2015-01-04T08:08:45Z</time>
      </trkpt>
      <trkpt lat="48.72048" lon="-3.39757">
        <ele>75</ele>
        <time>2015-01-04T08:08:46Z</time>
      </trkpt>
      <trkpt lat="48.72042" lon="-3.3976">
        <ele>75</ele>
        <time>2015-01-04T08:08:47Z</time>
      </trkpt>
      <trkpt lat="48.72036" lon="-3.39764">
        <ele>75</ele>
        <time>2015-01-04T08:08:48Z</time>
      </trkpt>
      <trkpt lat="48.72031" lon="-3.39767">
        <ele>75</ele>
        <time>2015-01-04T08:08:49Z</time>
      </trkpt>
      <trkpt lat="48.72025" lon="-3.39771">
        <ele>75</ele>
        <time>2015-01-04T08:08:50Z</time>
      </trkpt>
      <trkpt lat="48.72019" lon="-3.39774">
        <ele>75</ele>
        <time>2015-01-04T08:08:51Z</time>
      </trkpt>
      <trkpt lat="48.72013" lon="-3.39777">
        <ele>75</ele>
        <time>2015-01-04T08:08:52Z</time>
      </trkpt>
      <trkpt lat="48.72007" lon="-3.39781">
        <ele>75</ele>
        <time>2015-01-04T08:08:53Z</time>
      </trkpt>
      <trkpt lat="48.72001" lon="-3.39785">
        <ele>75</ele>
        <time>2015-01-04T08:08:54Z</time>
      </trkpt>
      <trkpt lat="48.71995" lon="-3.39788">
        <ele>75</ele>
        <time>2015-01-04T08:08:55Z</time>
      </trkpt>
      <trkpt lat="48.71989" lon="-3.39791">
        <ele>75</ele>
        <time>2015-01-04T08:08:56Z</time>
      </trkpt>
      <trkpt lat="48.71983" lon="-3.39794">
        <ele>75</ele>
        <time>2015-01-04T08:08:57Z</time>
      </trkpt>
      <trkpt lat="48.71977" lon="-3.39798">
        <ele>75</ele>
        <time>2015-01-04T08:08:58Z</time>
      </trkpt>
      <trkpt lat="48.71971" lon="-3.398">
        <ele>75</ele>
        <time>2015-01-04T08:08:59Z</time>
      </trkpt>
      <trkpt lat="48.71965" lon="-3.39803">
        <ele>75</ele>
        <time>2015-01-04T08:09:00Z</time>
      </trkpt>
      <trkpt lat="48.71959" lon="-3.39804">
        <ele>75</ele>
        <time>2015-01-04T08:09:01Z</time>
      </trkpt>
      <trkpt lat="48.71952" lon="-3.39805">
        <ele>75</ele>
        <time>2015-01-04T08:09:02Z</time>
      </trkpt>
      <trkpt lat="48.71946" lon="-3.39805">
        <ele>75</ele>
        <time>2015-01-04T08:09:03Z</time>
      </trkpt>
      <trkpt lat="48.71939" lon="-3.39805">
        <ele>75</ele>
        <time>2015-01-04T08:09:04Z</time>
      </trkpt>
      <trkpt lat="48.71933" lon="-3.39804">
        <ele>75</ele>
        <time>2015-01-04T08:09:05Z</time>
      </trkpt>
      <trkpt lat="48.71926" lon="-3.39803">
        <ele>74</ele>
        <time>2015-01-04T08:09:06Z</time>
      </trkpt>
      <trkpt lat="48.71919" lon="-3.39801">
        <ele>74</ele>
        <time>2015-01-04T08:09:07Z</time>
      </trkpt>
      <trkpt lat="48.71912" lon="-3.39799">
        <ele>74</ele>
        <time>2015-01-04T08:09:08Z</time>
      </trkpt>
      <trkpt lat="48.71904" lon="-3.39796">
        <ele>74</ele>
        <time>2015-01-04T08:09:09Z</time>
      </trkpt>
      <trkpt lat="48.71896" lon="-3.39794">
        <ele>73</ele>
        <time>2015-01-04T08:09:10Z</time>
      </trkpt>
      <trkpt lat="48.71889" lon="-3.39792">
        <ele>73</ele>
        <time>2015-01-04T08:09:11Z</time>
      </trkpt>
      <trkpt lat="48.7188" lon="-3.39791">
        <ele>72</ele>
        <time>2015-01-04T08:09:12Z</time>
      </trkpt>
      <trkpt lat="48.71872" lon="-3.39791">
        <ele>72</ele>
        <time>2015-01-04T08:09:13Z</time>
      </trkpt>
      <trkpt lat="48.71864" lon="-3.3979">
        <ele>72</ele>
        <time>2015-01-04T08:09:14Z</time>
      </trkpt>
      <trkpt lat="48.71855" lon="-3.3979">
        <ele>71</ele>
        <time>2015-01-04T08:09:15Z</time>
      </trkpt>
      <trkpt lat="48.71847" lon="-3.39789">
        <ele>71</ele>
        <time>2015-01-04T08:09:16Z</time>
      </trkpt>
      <trkpt lat="48.71838" lon="-3.39788">
        <ele>70</ele>
        <time>2015-01-04T08:09:17Z</time>
      </trkpt>
      <trkpt lat="48.7183" lon="-3.39787">
        <ele>70</ele>
        <time>2015-01-04T08:09:18Z</time>
      </trkpt>
      <trkpt lat="48.71822" lon="-3.39786">
        <ele>70</ele>
        <time>2015-01-04T08:09:19Z</time>
      </trkpt>
      <trkpt lat="48.71814" lon="-3.39783">
        <ele>69</ele>
        <time>2015-01-04T08:09:20Z</time>
      </trkpt>
      <trkpt lat="48.71806" lon="-3.3978">
        <ele>69</ele>
        <time>2015-01-04T08:09:21Z</time>
      </trkpt>
      <trkpt lat="48.71798" lon="-3.39776">
        <ele>69</ele>
        <time>2015-01-04T08:09:22Z</time>
      </trkpt>
      <trkpt lat="48.7179" lon="-3.39772">
        <ele>69</ele>
        <time>2015-01-04T08:09:23Z</time>
      </trkpt>
      <trkpt lat="48.71783" lon="-3.39768">
        <ele>68</ele>
        <time>2015-01-04T08:09:24Z</time>
      </trkpt>
      <trkpt lat="48.71776" lon="-3.39763">
        <ele>68</ele>
        <time>2015-01-04T08:09:25Z</time>
      </trkpt>
      <trkpt lat="48.71769" lon="-3.39758">
        <ele>68</ele>
        <time>2015-01-04T08:09:26Z</time>
      </trkpt>
      <trkpt lat="48.71762" lon="-3.39754">
        <ele>68</ele>
        <time>2015-01-04T08:09:27Z</time>
      </trkpt>
      <trkpt lat="48.71755" lon="-3.3975">
        <ele>68</ele>
        <time>2015-01-04T08:09:28Z</time>
      </trkpt>
      <trkpt lat="48.71748" lon="-3.39746">
        <ele>68</ele>
        <time>2015-01-04T08:09:29Z</time>
      </trkpt>
      <trkpt lat="48.71741" lon="-3.39743">
        <ele>68</ele>
        <time>2015-01-04T08:09:30Z</time>
      </trkpt>
      <trkpt lat="48.71733" lon="-3.39741">
        <ele>68</ele>
        <time>2015-01-04T08:09:31Z</time>
      </trkpt>
      <trkpt lat="48.71726" lon="-3.39741">
        <ele>68</ele>
        <time>2015-01-04T08:09:32Z</time>
      </trkpt>
      <trkpt lat="48.71718" lon="-3.39741">
        <ele>68</ele>
        <time>2015-01-04T08:09:33Z</time>
      </trkpt>
      <trkpt lat="48.71711" lon="-3.39742">
        <ele>67</ele>
        <time>2015-01-04T08:09:34Z</time>
      </trkpt>
      <trkpt lat="48.71703" lon="-3.39743">
        <ele>67</ele>
        <time>2015-01-04T08:09:35Z</time>
      </trkpt>
      <trkpt lat="48.71695" lon="-3.39746">
        <ele>67</ele>
        <time>2015-01-04T08:09:36Z</time>
      </trkpt>
      <trkpt lat="48.71688" lon="-3.39749">
        <ele>67</ele>
        <time>2015-01-04T08:09:37Z</time>
      </trkpt>
      <trkpt lat="48.71681" lon="-3.39754">
        <ele>67</ele>
        <time>2015-01-04T08:09:38Z</time>
      </trkpt>
      <trkpt lat="48.71674" lon="-3.39759">
        <ele>67</ele>
        <time>2015-01-04T08:09:39Z</time>
      </trkpt>
      <trkpt lat="48.71667" lon="-3.39765">
        <ele>67</ele>
        <time>2015-01-04T08:09:40Z</time>
      </trkpt>
      <trkpt lat="48.71661" lon="-3.3977">
        <ele>67</ele>
        <time>2015-01-04T08:09:41Z</time>
      </trkpt>
      <trkpt lat="48.71655" lon="-3.39775">
        <ele>67</ele>
        <time>2015-01-04T08:09:42Z</time>
      </trkpt>
      <trkpt lat="48.71649" lon="-3.3978">
        <ele>67</ele>
        <time>2015-01-04T08:09:43Z</time>
      </trkpt>
      <trkpt lat="48.71643" lon="-3.39784">
        <ele>67</ele>
        <time>2015-01-04T08:09:44Z</time>
      </trkpt>
      <trkpt lat="48.71637" lon="-3.39788">
        <ele>67</ele>
        <time>2015-01-04T08:09:45Z</time>
      </trkpt>
      <trkpt lat="48.71631" lon="-3.39791">
        <ele>67</ele>
        <time>2015-01-04T08:09:46Z</time>
      </trkpt>
      <trkpt lat="48.71625" lon="-3.39793">
        <ele>67</ele>
        <time>2015-01-04T08:09:47Z</time>
      </trkpt>
      <trkpt lat="48.71619" lon="-3.39796">
        <ele>67</ele>
        <time>2015-01-04T08:09:48Z</time>
      </trkpt>
      <trkpt lat="48.71613" lon="-3.39798">
        <ele>67</ele>
        <time>2015-01-04T08:09:49Z</time>
      </trkpt>
      <trkpt lat="48.71607" lon="-3.39799">
        <ele>67</ele>
        <time>2015-01-04T08:09:50Z</time>
      </trkpt>
      <trkpt lat="48.71602" lon="-3.398">
        <ele>67</ele>
        <time>2015-01-04T08:09:51Z</time>
      </trkpt>
      <trkpt lat="48.71596" lon="-3.39801">
        <ele>67</ele>
        <time>2015-01-04T08:09:52Z</time>
      </trkpt>
      <trkpt lat="48.71591" lon="-3.39802">
        <ele>67</ele>
        <time>2015-01-04T08:09:53Z</time>
      </trkpt>
      <trkpt lat="48.71585" lon="-3.39803">
        <ele>67</ele>
        <time>2015-01-04T08:09:54Z</time>
      </trkpt>
      <trkpt lat="48.7158" lon="-3.39804">
        <ele>67</ele>
        <time>2015-01-04T08:09:55Z</time>
      </trkpt>
      <trkpt lat="48.71575" lon="-3.39805">
        <ele>67</ele>
        <time>2015-01-04T08:09:56Z</time>
      </trkpt>
      <trkpt lat="48.71569" lon="-3.39805">
        <ele>67</ele>
        <time>2015-01-04T08:09:57Z</time>
      </trkpt>
      <trkpt lat="48.71564" lon="-3.39805">
        <ele>67</ele>
        <time>2015-01-04T08:09:58Z</time>
      </trkpt>
      <trkpt lat="48.71558" lon="-3.39807">
        <ele>67</ele>
        <time>2015-01-04T08:09:59Z</time>
      </trkpt>
      <trkpt lat="48.71553" lon="-3.39809">
        <ele>67</ele>
        <time>2015-01-04T08:10:00Z</time>
      </trkpt>
      <trkpt lat="48.71548" lon="-3.39813">
        <ele>67</ele>
        <time>2015-01-04T08:10:01Z</time>
      </trkpt>
      <trkpt lat="48.71543" lon="-3.39817">
        <ele>67</ele>
        <time>2015-01-04T08:10:02Z</time>
      </trkpt>
      <trkpt lat="48.71538" lon="-3.39822">
        <ele>67</ele>
        <time>2015-01-04T08:10:03Z</time>
      </trkpt>
      <trkpt lat="48.71533" lon="-3.39826">
        <ele>67</ele>
        <time>2015-01-04T08:10:04Z</time>
      </trkpt>
      <trkpt lat="48.71528" lon="-3.3983">
        <ele>67</ele>
        <time>2015-01-04T08:10:05Z</time>
      </trkpt>
      <trkpt lat="48.71523" lon="-3.39835">
        <ele>67</ele>
        <time>2015-01-04T08:10:06Z</time>
      </trkpt>
      <trkpt lat="48.71518" lon="-3.39839">
        <ele>67</ele>
        <time>2015-01-04T08:10:07Z</time>
      </trkpt>
      <trkpt lat="48.71513" lon="-3.39844">
        <ele>67</ele>
        <time>2015-01-04T08:10:08Z</time>
      </trkpt>
      <trkpt lat="48.71509" lon="-3.3985">
        <ele>67</ele>
        <time>2015-01-04T08:10:09Z</time>
      </trkpt>
      <trkpt lat="48.71505" lon="-3.39857">
        <ele>67</ele>
        <time>2015-01-04T08:10:10Z</time>
      </trkpt>
      <trkpt lat="48.715" lon="-3.39862">
        <ele>67</ele>
        <time>2015-01-04T08:10:11Z</time>
      </trkpt>
      <trkpt lat="48.71495" lon="-3.39865">
        <ele>67</ele>
        <time>2015-01-04T08:10:12Z</time>
      </trkpt>
      <trkpt lat="48.7149" lon="-3.39866">
        <ele>67</ele>
        <time>2015-01-04T08:10:13Z</time>
      </trkpt>
      <trkpt lat="48.71484" lon="-3.39866">
        <ele>67</ele>
        <time>2015-01-04T08:10:14Z</time>
      </trkpt>
      <trkpt lat="48.71478" lon="-3.39865">
        <ele>67</ele>
        <time>2015-01-04T08:10:15Z</time>
      </trkpt>
      <trkpt lat="48.71471" lon="-3.39864">
        <ele>67</ele>
        <time>2015-01-04T08:10:16Z</time>
      </trkpt>
      <trkpt lat="48.71465" lon="-3.39864">
        <ele>67</ele>
        <time>2015-01-04T08:10:17Z</time>
      </trkpt>
      <trkpt lat="48.71458" lon="-3.39865">
        <ele>67</ele>
        <time>2015-01-04T08:10:18Z</time>
      </trkpt>
      <trkpt lat="48.7145" lon="-3.39866">
        <ele>67</ele>
        <time>2015-01-04T08:10:19Z</time>
      </trkpt>
      <trkpt lat="48.71442" lon="-3.39867">
        <ele>67</ele>
        <time>2015-01-04T08:10:20Z</time>
      </trkpt>
      <trkpt lat="48.71434" lon="-3.39868">
        <ele>67</ele>
        <time>2015-01-04T08:10:21Z</time>
      </trkpt>
      <trkpt lat="48.71426" lon="-3.39869">
        <ele>67</ele>
        <time>2015-01-04T08:10:22Z</time>
      </trkpt>
      <trkpt lat="48.71418" lon="-3.3987">
        <ele>67</ele>
        <time>2015-01-04T08:10:23Z</time>
      </trkpt>
      <trkpt lat="48.71409" lon="-3.39871">
        <ele>67</ele>
        <time>2015-01-04T08:10:24Z</time>
      </trkpt>
      <trkpt lat="48.71401" lon="-3.39873">
        <ele>67</ele>
        <time>2015-01-04T08:10:25Z</time>
      </trkpt>
      <trkpt lat="48.71392" lon="-3.39875">
        <ele>67</ele>
        <time>2015-01-04T08:10:26Z</time>
      </trkpt>
      <trkpt lat="48.71385" lon="-3.39877">
        <ele>67</ele>
        <time>2015-01-04T08:10:27Z</time>
      </trkpt>
      <trkpt lat="48.71377" lon="-3.39879">
        <ele>67</ele>
        <time>2015-01-04T08:10:28Z</time>
      </trkpt>
      <trkpt lat="48.7137" lon="-3.3988">
        <ele>67</ele>
        <time>2015-01-04T08:10:29Z</time>
      </trkpt>
      <trkpt lat="48.71363" lon="-3.39881">
        <ele>67</ele>
        <time>2015-01-04T08:10:30Z</time>
      </trkpt>
      <trkpt lat="48.71356" lon="-3.39882">
        <ele>67</ele>
        <time>2015-01-04T08:10:31Z</time>
      </trkpt>
      <trkpt lat="48.7135" lon="-3.39882">
        <ele>67</ele>
        <time>2015-01-04T08:10:32Z</time>
      </trkpt>
      <trkpt lat="48.71343" lon="-3.39883">
        <ele>67</ele>
        <time>2015-01-04T08:10:33Z</time>
      </trkpt>
      <trkpt lat="48.71337" lon="-3.39883">
        <ele>67</ele>
        <time>2015-01-04T08:10:34Z</time>
      </trkpt>
      <trkpt lat="48.71331" lon="-3.39883">
        <ele>67</ele>
        <time>2015-01-04T08:10:35Z</time>
      </trkpt>
      <trkpt lat="48.71325" lon="-3.39884">
        <ele>67</ele>
        <time>2015-01-04T08:10:36Z</time>
      </trkpt>
      <trkpt lat="48.71318" lon="-3.39884">
        <ele>67</ele>
        <time>2015-01-04T08:10:37Z</time>
      </trkpt>
      <trkpt lat="48.71312" lon="-3.39885">
        <ele>67</ele>
        <time>2015-01-04T08:10:38Z</time>
      </trkpt>
      <trkpt lat="48.71306" lon="-3.39885">
        <ele>67</ele>
        <time>2015-01-04T08:10:39Z</time>
      </trkpt>
      <trkpt lat="48.71299" lon="-3.39885">
        <ele>67</ele>
        <time>2015-01-04T08:10:40Z</time>
      </trkpt>
      <trkpt lat="48.71293" lon="-3.39886">
        <ele>67</ele>
        <time>2015-01-04T08:10:41Z</time>
      </trkpt>
      <trkpt lat="48.71287" lon="-3.39886">
        <ele>67</ele>
        <time>2015-01-04T08:10:42Z</time>
      </trkpt>
      <trkpt lat="48.71281" lon="-3.39888">
        <ele>67</ele>
        <time>2015-01-04T08:10:43Z</time>
      </trkpt>
      <trkpt lat="48.71275" lon="-3.39889">
        <ele>67</ele>
        <time>2015-01-04T08:10:44Z</time>
      </trkpt>
      <trkpt lat="48.7127" lon="-3.39891">
        <ele>67</ele>
        <time>2015-01-04T08:10:45Z</time>
      </trkpt>
      <trkpt lat="48.71264" lon="-3.39893">
        <ele>67</ele>
        <time>2015-01-04T08:10:46Z</time>
      </trkpt>
      <trkpt lat="48.71258" lon="-3.39895">
        <ele>67</ele>
        <time>2015-01-04T08:10:47Z</time>
      </trkpt>
      <trkpt lat="48.71252" lon="-3.39898">
        <ele>67</ele>
        <time>2015-01-04T08:10:48Z</time>
      </trkpt>
      <trkpt lat="48.71247" lon="-3.39901">
        <ele>67</ele>
        <time>2015-01-04T08:10:49Z</time>
      </trkpt>
      <trkpt lat="48.71242" lon="-3.39904">
        <ele>67</ele>
        <time>2015-01-04T08:10:50Z</time>
      </trkpt>
      <trkpt lat="48.71236" lon="-3.39908">
        <ele>67</ele>
        <time>2015-01-04T08:10:51Z</time>
      </trkpt>
      <trkpt lat="48.71231" lon="-3.39912">
        <ele>67</ele>
        <time>2015-01-04T08:10:52Z</time>
      </trkpt>
      <trkpt lat="48.71226" lon="-3.39916">
        <ele>67</ele>
        <time>2015-01-04T08:10:53Z</time>
      </trkpt>
      <trkpt lat="48.71221" lon="-3.39921">
        <ele>67</ele>
        <time>2015-01-04T08:10:54Z</time>
      </trkpt>
      <trkpt lat="48.71216" lon="-3.39926">
        <ele>67</ele>
        <time>2015-01-04T08:10:55Z</time>
      </trkpt>
      <trkpt lat="48.71211" lon="-3.39932">
        <ele>67</ele>
        <time>2015-01-04T08:10:56Z</time>
      </trkpt>
      <trkpt lat="48.71207" lon="-3.39937">
        <ele>67</ele>
        <time>2015-01-04T08:10:57Z</time>
      </trkpt>
      <trkpt lat="48.71202" lon="-3.39943">
        <ele>67</ele>
        <time>2015-01-04T08:10:58Z</time>
      </trkpt>
      <trkpt lat="48.71197" lon="-3.39948">
        <ele>67</ele>
        <time>2015-01-04T08:10:59Z</time>
      </trkpt>
      <trkpt lat="48.71193" lon="-3.39955">
        <ele>67</ele>
        <time>2015-01-04T08:11:00Z</time>
      </trkpt>
      <trkpt lat="48.71188" lon="-3.39961">
        <ele>67</ele>
        <time>2015-01-04T08:11:01Z</time>
      </trkpt>
      <trkpt lat="48.71184" lon="-3.39968">
        <ele>67</ele>
        <time>2015-01-04T08:11:02Z</time>
      </trkpt>
      <trkpt lat="48.7118" lon="-3.39975">
        <ele>67</ele>
        <time>2015-01-04T08:11:03Z</time>
      </trkpt>
      <trkpt lat="48.71177" lon="-3.39982">
        <ele>67</ele>
        <time>2015-01-04T08:11:04Z</time>
      </trkpt>
      <trkpt lat="48.71173" lon="-3.3999">
        <ele>67</ele>
        <time>2015-01-04T08:11:05Z</time>
      </trkpt>
      <trkpt lat="48.7117" lon="-3.39998">
        <ele>67</ele>
        <time>2015-01-04T08:11:06Z</time>
      </trkpt>
      <trkpt lat="48.71166" lon="-3.40005">
        <ele>67</ele>
        <time>2015-01-04T08:11:07Z</time>
      </trkpt>
      <trkpt lat="48.71164" lon="-3.40014">
        <ele>67</ele>
        <time>2015-01-04T08:11:08Z</time>
      </trkpt>
      <trkpt lat="48.71161" lon="-3.40022">
        <ele>67</ele>
        <time>2015-01-04T08:11:09Z</time>
      </trkpt>
      <trkpt lat="48.71158" lon="-3.4003">
        <ele>67</ele>
        <time>2015-01-04T08:11:10Z</time>
      </trkpt>
      <trkpt lat="48.71156" lon="-3.40039">
        <ele>67</ele>
        <time>2015-01-04T08:11:11Z</time>
      </trkpt>
      <trkpt lat="48.71154" lon="-3.40048">
        <ele>67</ele>
        <time>2015-01-04T08:11:12Z</time>
      </trkpt>
      <trkpt lat="48.71152" lon="-3.40057">
        <ele>67</ele>
        <time>2015-01-04T08:11:13Z</time>
      </trkpt>
      <trkpt lat="48.7115" lon="-3.40066">
        <ele>67</ele>
        <time>2015-01-04T08:11:14Z</time>
      </trkpt>
      <trkpt lat="48.71149" lon="-3.40074">
        <ele>67</ele>
        <time>2015-01-04T08:11:15Z</time>
      </trkpt>
      <trkpt lat="48.71147" lon="-3.40083">
        <ele>67</ele>
        <time>2015-01-04T08:11:16Z</time>
      </trkpt>
      <trkpt lat="48.71145" lon="-3.40092">
        <ele>67</ele>
        <time>2015-01-04T08:11:17Z</time>
      </trkpt>
      <trkpt lat="48.71143" lon="-3.40101">
        <ele>67</ele>
        <time>2015-01-04T08:11:18Z</time>
      </trkpt>
      <trkpt lat="48.71141" lon="-3.40109">
        <ele>67</ele>
        <time>2015-01-04T08:11:19Z</time>
      </trkpt>
      <trkpt lat="48.71139" lon="-3.40117">
        <ele>67</ele>
        <time>2015-01-04T08:11:20Z</time>
      </trkpt>
      <trkpt lat="48.71136" lon="-3.40125">
        <ele>67</ele>
        <time>2015-01-04T08:11:21Z</time>
      </trkpt>
      <trkpt lat="48.71134" lon="-3.40134">
        <ele>67</ele>
        <time>2015-01-04T08:11:22Z</time>
      </trkpt>
      <trkpt lat="48.71131" lon="-3.40142">
        <ele>67</ele>
        <time>2015-01-04T08:11:23Z</time>
      </trkpt>
      <trkpt lat="48.71128" lon="-3.4015">
        <ele>67</ele>
        <time>2015-01-04T08:11:24Z</time>
      </trkpt>
      <trkpt lat="48.71124" lon="-3.40157">
        <ele>67</ele>
        <time>2015-01-04T08:11:25Z</time>
      </trkpt>
      <trkpt lat="48.71121" lon="-3.40165">
        <ele>67</ele>
        <time>2015-01-04T08:11:26Z</time>
      </trkpt>
      <trkpt lat="48.71117" lon="-3.40172">
        <ele>67</ele>
        <time>2015-01-04T08:11:27Z</time>
      </trkpt>
      <trkpt lat="48.71113" lon="-3.40179">
        <ele>67</ele>
        <time>2015-01-04T08:11:28Z</time>
      </trkpt>
      <trkpt lat="48.71109" lon="-3.40186">
        <ele>67</ele>
        <time>2015-01-04T08:11:29Z</time>
      </trkpt>
      <trkpt lat="48.71105" lon="-3.40192">
        <ele>67</ele>
        <time>2015-01-04T08:11:30Z</time>
      </trkpt>
      <trkpt lat="48.711" lon="-3.40199">
        <ele>67</ele>
        <time>2015-01-04T08:11:31Z</time>
      </trkpt>
      <trkpt lat="48.71095" lon="-3.40205">
        <ele>68</ele>
        <time>2015-01-04T08:11:32Z</time>
      </trkpt>
      <trkpt lat="48.7109" lon="-3.40211">
        <ele>68</ele>
        <time>2015-01-04T08:11:33Z</time>
      </trkpt>
      <trkpt lat="48.71085" lon="-3.40217">
        <ele>68</ele>
        <time>2015-01-04T08:11:34Z</time>
      </trkpt>
      <trkpt lat="48.7108" lon="-3.40222">
        <ele>68</ele>
        <time>2015-01-04T08:11:35Z</time>
      </trkpt>
      <trkpt lat="48.71075" lon="-3.40228">
        <ele>68</ele>
        <time>2015-01-04T08:11:36Z</time>
      </trkpt>
      <trkpt lat="48.7107" lon="-3.40232">
        <ele>68</ele>
        <time>2015-01-04T08:11:37Z</time>
      </trkpt>
      <trkpt lat="48.71065" lon="-3.40237">
        <ele>69</ele>
        <time>2015-01-04T08:11:38Z</time>
      </trkpt>
      <trkpt lat="48.71059" lon="-3.40241">
        <ele>69</ele>
        <time>2015-01-04T08:11:39Z</time>
      </trkpt>
      <trkpt lat="48.71054" lon="-3.40245">
        <ele>69</ele>
        <time>2015-01-04T08:11:40Z</time>
      </trkpt>
      <trkpt lat="48.71048" lon="-3.40249">
        <ele>69</ele>
        <time>2015-01-04T08:11:41Z</time>
      </trkpt>
      <trkpt lat="48.71043" lon="-3.40252">
        <ele>69</ele>
        <time>2015-01-04T08:11:42Z</time>
      </trkpt>
      <trkpt lat="48.71037" lon="-3.40255">
        <ele>70</ele>
        <time>2015-01-04T08:11:43Z</time>
      </trkpt>
      <trkpt lat="48.71031" lon="-3.40258">
        <ele>70</ele>
        <time>2015-01-04T08:11:44Z</time>
      </trkpt>
      <trkpt lat="48.71025" lon="-3.4026">
        <ele>70</ele>
        <time>2015-01-04T08:11:45Z</time>
      </trkpt>
      <trkpt lat="48.7102" lon="-3.40261">
        <ele>70</ele>
        <time>2015-01-04T08:11:46Z</time>
      </trkpt>
      <trkpt lat="48.71014" lon="-3.40263">
        <ele>70</ele>
        <time>2015-01-04T08:11:47Z</time>
      </trkpt>
      <trkpt lat="48.71009" lon="-3.40264">
        <ele>70</ele>
        <time>2015-01-04T08:11:48Z</time>
      </trkpt>
      <trkpt lat="48.71004" lon="-3.40264">
        <ele>71</ele>
        <time>2015-01-04T08:11:49Z</time>
      </trkpt>
      <trkpt lat="48.70999" lon="-3.40265">
        <ele>71</ele>
        <time>2015-01-04T08:11:50Z</time>
      </trkpt>
      <trkpt lat="48.70994" lon="-3.40266">
        <ele>71</ele>
        <time>2015-01-04T08:11:51Z</time>
      </trkpt>
      <trkpt lat="48.70989" lon="-3.40266">
        <ele>72</ele>
        <time>2015-01-04T08:11:52Z</time>
      </trkpt>
      <trkpt lat="48.70984" lon="-3.40267">
        <ele>72</ele>
        <time>2015-01-04T08:11:53Z</time>
      </trkpt>
      <trkpt lat="48.70979" lon="-3.40267">
        <ele>72</ele>
        <time>2015-01-04T08:11:54Z</time>
      </trkpt>
      <trkpt lat="48.70974" lon="-3.40267">
        <ele>73</ele>
        <time>2015-01-04T08:11:55Z</time>
      </trkpt>
      <trkpt lat="48.70964" lon="-3.40267">
        <ele>73</ele>
        <time>2015-01-04T08:11:57Z</time>
      </trkpt>
      <trkpt lat="48.70959" lon="-3.40266">
        <ele>73</ele>
        <time>2015-01-04T08:11:58Z</time>
      </trkpt>
      <trkpt lat="48.70954" lon="-3.40266">
        <ele>74</ele>
        <time>2015-01-04T08:11:59Z</time>
      </trkpt>
      <trkpt lat="48.70949" lon="-3.40265">
        <ele>74</ele>
        <time>2015-01-04T08:12:00Z</time>
      </trkpt>
      <trkpt lat="48.70944" lon="-3.40265">
        <ele>74</ele>
        <time>2015-01-04T08:12:01Z</time>
      </trkpt>
      <trkpt lat="48.70938" lon="-3.40265">
        <ele>74</ele>
        <time>2015-01-04T08:12:02Z</time>
      </trkpt>
      <trkpt lat="48.70933" lon="-3.40264">
        <ele>74</ele>
        <time>2015-01-04T08:12:03Z</time>
      </trkpt>
      <trkpt lat="48.70928" lon="-3.40264">
        <ele>75</ele>
        <time>2015-01-04T08:12:04Z</time>
      </trkpt>
      <trkpt lat="48.70923" lon="-3.40263">
        <ele>75</ele>
        <time>2015-01-04T08:12:05Z</time>
      </trkpt>
      <trkpt lat="48.70918" lon="-3.40262">
        <ele>75</ele>
        <time>2015-01-04T08:12:06Z</time>
      </trkpt>
      <trkpt lat="48.70912" lon="-3.40261">
        <ele>75</ele>
        <time>2015-01-04T08:12:07Z</time>
      </trkpt>
      <trkpt lat="48.70907" lon="-3.4026">
        <ele>75</ele>
        <time>2015-01-04T08:12:08Z</time>
      </trkpt>
      <trkpt lat="48.70901" lon="-3.4026">
        <ele>75</ele>
        <time>2015-01-04T08:12:09Z</time>
      </trkpt>
      <trkpt lat="48.70896" lon="-3.40259">
        <ele>75</ele>
        <time>2015-01-04T08:12:10Z</time>
      </trkpt>
      <trkpt lat="48.7089" lon="-3.40258">
        <ele>75</ele>
        <time>2015-01-04T08:12:11Z</time>
      </trkpt>
      <trkpt lat="48.70884" lon="-3.40257">
        <ele>75</ele>
        <time>2015-01-04T08:12:12Z</time>
      </trkpt>
      <trkpt lat="48.70879" lon="-3.40256">
        <ele>75</ele>
        <time>2015-01-04T08:12:13Z</time>
      </trkpt>
      <trkpt lat="48.70873" lon="-3.40255">
        <ele>75</ele>
        <time>2015-01-04T08:12:14Z</time>
      </trkpt>
      <trkpt lat="48.70868" lon="-3.40255">
        <ele>75</ele>
        <time>2015-01-04T08:12:15Z</time>
      </trkpt>
      <trkpt lat="48.70862" lon="-3.40254">
        <ele>75</ele>
        <time>2015-01-04T08:12:16Z</time>
      </trkpt>
      <trkpt lat="48.70857" lon="-3.40253">
        <ele>75</ele>
        <time>2015-01-04T08:12:17Z</time>
      </trkpt>
      <trkpt lat="48.70852" lon="-3.40252">
        <ele>75</ele>
        <time>2015-01-04T08:12:18Z</time>
      </trkpt>
      <trkpt lat="48.70847" lon="-3.40251">
        <ele>75</ele>
        <time>2015-01-04T08:12:19Z</time>
      </trkpt>
      <trkpt lat="48.70841" lon="-3.4025">
        <ele>76</ele>
        <time>2015-01-04T08:12:20Z</time>
      </trkpt>
      <trkpt lat="48.70836" lon="-3.40249">
        <ele>76</ele>
        <time>2015-01-04T08:12:21Z</time>
      </trkpt>
      <trkpt lat="48.70831" lon="-3.40248">
        <ele>76</ele>
        <time>2015-01-04T08:12:22Z</time>
      </trkpt>
      <trkpt lat="48.70826" lon="-3.40247">
        <ele>76</ele>
        <time>2015-01-04T08:12:23Z</time>
      </trkpt>
      <trkpt lat="48.70821" lon="-3.40246">
        <ele>76</ele>
        <time>2015-01-04T08:12:24Z</time>
      </trkpt>
      <trkpt lat="48.70816" lon="-3.40245">
        <ele>76</ele>
        <time>2015-01-04T08:12:25Z</time>
      </trkpt>
      <trkpt lat="48.7081" lon="-3.40244">
        <ele>77</ele>
        <time>2015-01-04T08:12:26Z</time>
      </trkpt>
      <trkpt lat="48.70805" lon="-3.40243">
        <ele>77</ele>
        <time>2015-01-04T08:12:27Z</time>
      </trkpt>
      <trkpt lat="48.708" lon="-3.40242">
        <ele>77</ele>
        <time>2015-01-04T08:12:28Z</time>
      </trkpt>
      <trkpt lat="48.70795" lon="-3.40241">
        <ele>77</ele>
        <time>2015-01-04T08:12:29Z</time>
      </trkpt>
      <trkpt lat="48.7079" lon="-3.4024">
        <ele>78</ele>
        <time>2015-01-04T08:12:30Z</time>
      </trkpt>
      <trkpt lat="48.70784" lon="-3.40239">
        <ele>78</ele>
        <time>2015-01-04T08:12:31Z</time>
      </trkpt>
      <trkpt lat="48.70779" lon="-3.40238">
        <ele>78</ele>
        <time>2015-01-04T08:12:32Z</time>
      </trkpt>
      <trkpt lat="48.70773" lon="-3.40238">
        <ele>78</ele>
        <time>2015-01-04T08:12:33Z</time>
      </trkpt>
      <trkpt lat="48.70768" lon="-3.40237">
        <ele>78</ele>
        <time>2015-01-04T08:12:34Z</time>
      </trkpt>
      <trkpt lat="48.70762" lon="-3.40237">
        <ele>78</ele>
        <time>2015-01-04T08:12:35Z</time>
      </trkpt>
      <trkpt lat="48.70756" lon="-3.40236">
        <ele>78</ele>
        <time>2015-01-04T08:12:36Z</time>
      </trkpt>
      <trkpt lat="48.7075" lon="-3.40235">
        <ele>78</ele>
        <time>2015-01-04T08:12:37Z</time>
      </trkpt>
      <trkpt lat="48.70745" lon="-3.40234">
        <ele>78</ele>
        <time>2015-01-04T08:12:38Z</time>
      </trkpt>
      <trkpt lat="48.70739" lon="-3.40233">
        <ele>78</ele>
        <time>2015-01-04T08:12:39Z</time>
      </trkpt>
      <trkpt lat="48.70733" lon="-3.40231">
        <ele>78</ele>
        <time>2015-01-04T08:12:40Z</time>
      </trkpt>
      <trkpt lat="48.70728" lon="-3.4023">
        <ele>78</ele>
        <time>2015-01-04T08:12:41Z</time>
      </trkpt>
      <trkpt lat="48.70722" lon="-3.40228">
        <ele>79</ele>
        <time>2015-01-04T08:12:42Z</time>
      </trkpt>
      <trkpt lat="48.70717" lon="-3.40226">
        <ele>79</ele>
        <time>2015-01-04T08:12:43Z</time>
      </trkpt>
      <trkpt lat="48.70711" lon="-3.40224">
        <ele>79</ele>
        <time>2015-01-04T08:12:44Z</time>
      </trkpt>
      <trkpt lat="48.70706" lon="-3.40222">
        <ele>79</ele>
        <time>2015-01-04T08:12:45Z</time>
      </trkpt>
      <trkpt lat="48.707" lon="-3.4022">
        <ele>79</ele>
        <time>2015-01-04T08:12:46Z</time>
      </trkpt>
      <trkpt lat="48.70695" lon="-3.40217">
        <ele>79</ele>
        <time>2015-01-04T08:12:47Z</time>
      </trkpt>
      <trkpt lat="48.70689" lon="-3.40215">
        <ele>79</ele>
        <time>2015-01-04T08:12:48Z</time>
      </trkpt>
      <trkpt lat="48.70684" lon="-3.40213">
        <ele>79</ele>
        <time>2015-01-04T08:12:49Z</time>
      </trkpt>
      <trkpt lat="48.70678" lon="-3.40212">
        <ele>79</ele>
        <time>2015-01-04T08:12:50Z</time>
      </trkpt>
      <trkpt lat="48.70673" lon="-3.40211">
        <ele>79</ele>
        <time>2015-01-04T08:12:51Z</time>
      </trkpt>
      <trkpt lat="48.70667" lon="-3.4021">
        <ele>79</ele>
        <time>2015-01-04T08:12:52Z</time>
      </trkpt>
      <trkpt lat="48.7066" lon="-3.40209">
        <ele>79</ele>
        <time>2015-01-04T08:12:53Z</time>
      </trkpt>
      <trkpt lat="48.70655" lon="-3.40209">
        <ele>79</ele>
        <time>2015-01-04T08:12:54Z</time>
      </trkpt>
      <trkpt lat="48.70642" lon="-3.40209">
        <ele>79</ele>
        <time>2015-01-04T08:12:56Z</time>
      </trkpt>
      <trkpt lat="48.70636" lon="-3.4021">
        <ele>79</ele>
        <time>2015-01-04T08:12:57Z</time>
      </trkpt>
      <trkpt lat="48.7063" lon="-3.4021">
        <ele>79</ele>
        <time>2015-01-04T08:12:58Z</time>
      </trkpt>
      <trkpt lat="48.70624" lon="-3.40211">
        <ele>79</ele>
        <time>2015-01-04T08:12:59Z</time>
      </trkpt>
      <trkpt lat="48.70618" lon="-3.40211">
        <ele>79</ele>
        <time>2015-01-04T08:13:00Z</time>
      </trkpt>
      <trkpt lat="48.70613" lon="-3.40212">
        <ele>79</ele>
        <time>2015-01-04T08:13:01Z</time>
      </trkpt>
      <trkpt lat="48.70607" lon="-3.40213">
        <ele>79</ele>
        <time>2015-01-04T08:13:02Z</time>
      </trkpt>
      <trkpt lat="48.706" lon="-3.40213">
        <ele>79</ele>
        <time>2015-01-04T08:13:03Z</time>
      </trkpt>
      <trkpt lat="48.70594" lon="-3.40215">
        <ele>79</ele>
        <time>2015-01-04T08:13:04Z</time>
      </trkpt>
      <trkpt lat="48.70587" lon="-3.40216">
        <ele>79</ele>
        <time>2015-01-04T08:13:05Z</time>
      </trkpt>
      <trkpt lat="48.7058" lon="-3.40217">
        <ele>79</ele>
        <time>2015-01-04T08:13:06Z</time>
      </trkpt>
      <trkpt lat="48.70573" lon="-3.40219">
        <ele>79</ele>
        <time>2015-01-04T08:13:07Z</time>
      </trkpt>
      <trkpt lat="48.70566" lon="-3.40221">
        <ele>79</ele>
        <time>2015-01-04T08:13:08Z</time>
      </trkpt>
      <trkpt lat="48.70559" lon="-3.40223">
        <ele>79</ele>
        <time>2015-01-04T08:13:09Z</time>
      </trkpt>
      <trkpt lat="48.70553" lon="-3.40225">
        <ele>79</ele>
        <time>2015-01-04T08:13:10Z</time>
      </trkpt>
      <trkpt lat="48.70546" lon="-3.40228">
        <ele>79</ele>
        <time>2015-01-04T08:13:11Z</time>
      </trkpt>
      <trkpt lat="48.70539" lon="-3.4023">
        <ele>79</ele>
        <time>2015-01-04T08:13:12Z</time>
      </trkpt>
      <trkpt lat="48.70533" lon="-3.40233">
        <ele>79</ele>
        <time>2015-01-04T08:13:13Z</time>
      </trkpt>
      <trkpt lat="48.70527" lon="-3.40236">
        <ele>79</ele>
        <time>2015-01-04T08:13:14Z</time>
      </trkpt>
      <trkpt lat="48.70521" lon="-3.40239">
        <ele>79</ele>
        <time>2015-01-04T08:13:15Z</time>
      </trkpt>
      <trkpt lat="48.70515" lon="-3.40242">
        <ele>79</ele>
        <time>2015-01-04T08:13:16Z</time>
      </trkpt>
      <trkpt lat="48.70508" lon="-3.40244">
        <ele>79</ele>
        <time>2015-01-04T08:13:17Z</time>
      </trkpt>
      <trkpt lat="48.70502" lon="-3.40247">
        <ele>79</ele>
        <time>2015-01-04T08:13:18Z</time>
      </trkpt>
      <trkpt lat="48.70496" lon="-3.4025">
        <ele>79</ele>
        <time>2015-01-04T08:13:19Z</time>
      </trkpt>
      <trkpt lat="48.7049" lon="-3.40253">
        <ele>79</ele>
        <time>2015-01-04T08:13:20Z</time>
      </trkpt>
      <trkpt lat="48.70484" lon="-3.40256">
        <ele>79</ele>
        <time>2015-01-04T08:13:21Z</time>
      </trkpt>
      <trkpt lat="48.70478" lon="-3.40259">
        <ele>79</ele>
        <time>2015-01-04T08:13:22Z</time>
      </trkpt>
      <trkpt lat="48.70472" lon="-3.40261">
        <ele>79</ele>
        <time>2015-01-04T08:13:23Z</time>
      </trkpt>
      <trkpt lat="48.70465" lon="-3.40264">
        <ele>79</ele>
        <time>2015-01-04T08:13:24Z</time>
      </trkpt>
      <trkpt lat="48.70459" lon="-3.40267">
        <ele>79</ele>
        <time>2015-01-04T08:13:25Z</time>
      </trkpt>
      <trkpt lat="48.70452" lon="-3.40269">
        <ele>79</ele>
        <time>2015-01-04T08:13:26Z</time>
      </trkpt>
      <trkpt lat="48.70446" lon="-3.40272">
        <ele>79</ele>
        <time>2015-01-04T08:13:27Z</time>
      </trkpt>
      <trkpt lat="48.70439" lon="-3.40274">
        <ele>79</ele>
        <time>2015-01-04T08:13:27Z</time>
      </trkpt>
      <trkpt lat="48.70433" lon="-3.40277">
        <ele>79</ele>
        <time>2015-01-04T08:13:28Z</time>
      </trkpt>
      <trkpt lat="48.70426" lon="-3.40278">
        <ele>79</ele>
        <time>2015-01-04T08:13:29Z</time>
      </trkpt>
      <trkpt lat="48.7042" lon="-3.4028">
        <ele>79</ele>
        <time>2015-01-04T08:13:31Z</time>
      </trkpt>
      <trkpt lat="48.70413" lon="-3.40281">
        <ele>79</ele>
        <time>2015-01-04T08:13:31Z</time>
      </trkpt>
      <trkpt lat="48.70407" lon="-3.40282">
        <ele>79</ele>
        <time>2015-01-04T08:13:33Z</time>
      </trkpt>
      <trkpt lat="48.704" lon="-3.40282">
        <ele>79</ele>
        <time>2015-01-04T08:13:34Z</time>
      </trkpt>
      <trkpt lat="48.70393" lon="-3.40283">
        <ele>79</ele>
        <time>2015-01-04T08:13:35Z</time>
      </trkpt>
      <trkpt lat="48.70387" lon="-3.40283">
        <ele>79</ele>
        <time>2015-01-04T08:13:35Z</time>
      </trkpt>
      <trkpt lat="48.7038" lon="-3.40283">
        <ele>79</ele>
        <time>2015-01-04T08:13:37Z</time>
      </trkpt>
      <trkpt lat="48.70374" lon="-3.40284">
        <ele>79</ele>
        <time>2015-01-04T08:13:38Z</time>
      </trkpt>
      <trkpt lat="48.70367" lon="-3.40284">
        <ele>79</ele>
        <time>2015-01-04T08:13:39Z</time>
      </trkpt>
      <trkpt lat="48.7036" lon="-3.40284">
        <ele>79</ele>
        <time>2015-01-04T08:13:40Z</time>
      </trkpt>
      <trkpt lat="48.70353" lon="-3.40283">
        <ele>79</ele>
        <time>2015-01-04T08:13:41Z</time>
      </trkpt>
      <trkpt lat="48.70346" lon="-3.40283">
        <ele>79</ele>
        <time>2015-01-04T08:13:42Z</time>
      </trkpt>
      <trkpt lat="48.70339" lon="-3.40283">
        <ele>79</ele>
        <time>2015-01-04T08:13:43Z</time>
      </trkpt>
      <trkpt lat="48.70332" lon="-3.40282">
        <ele>79</ele>
        <time>2015-01-04T08:13:44Z</time>
      </trkpt>
      <trkpt lat="48.70325" lon="-3.40282">
        <ele>79</ele>
        <time>2015-01-04T08:13:45Z</time>
      </trkpt>
      <trkpt lat="48.70318" lon="-3.40281">
        <ele>79</ele>
        <time>2015-01-04T08:13:46Z</time>
      </trkpt>
      <trkpt lat="48.70311" lon="-3.40281">
        <ele>79</ele>
        <time>2015-01-04T08:13:47Z</time>
      </trkpt>
      <trkpt lat="48.70303" lon="-3.4028">
        <ele>79</ele>
        <time>2015-01-04T08:13:48Z</time>
      </trkpt>
      <trkpt lat="48.70296" lon="-3.40279">
        <ele>79</ele>
        <time>2015-01-04T08:13:48Z</time>
      </trkpt>
      <trkpt lat="48.7029" lon="-3.40279">
        <ele>79</ele>
        <time>2015-01-04T08:13:50Z</time>
      </trkpt>
      <trkpt lat="48.70283" lon="-3.40279">
        <ele>79</ele>
        <time>2015-01-04T08:13:51Z</time>
      </trkpt>
      <trkpt lat="48.70276" lon="-3.40279">
        <ele>79</ele>
        <time>2015-01-04T08:13:51Z</time>
      </trkpt>
      <trkpt lat="48.7027" lon="-3.4028">
        <ele>79</ele>
        <time>2015-01-04T08:13:53Z</time>
      </trkpt>
      <trkpt lat="48.70264" lon="-3.40281">
        <ele>79</ele>
        <time>2015-01-04T08:13:53Z</time>
      </trkpt>
      <trkpt lat="48.70258" lon="-3.40283">
        <ele>79</ele>
        <time>2015-01-04T08:13:55Z</time>
      </trkpt>
      <trkpt lat="48.70252" lon="-3.40284">
        <ele>79</ele>
        <time>2015-01-04T08:13:56Z</time>
      </trkpt>
      <trkpt lat="48.70246" lon="-3.40287">
        <ele>79</ele>
        <time>2015-01-04T08:13:56Z</time>
      </trkpt>
      <trkpt lat="48.7024" lon="-3.40289">
        <ele>79</ele>
        <time>2015-01-04T08:13:58Z</time>
      </trkpt>
      <trkpt lat="48.70235" lon="-3.40291">
        <ele>79</ele>
        <time>2015-01-04T08:13:59Z</time>
      </trkpt>
      <trkpt lat="48.7023" lon="-3.40293">
        <ele>79</ele>
        <time>2015-01-04T08:13:59Z</time>
      </trkpt>
      <trkpt lat="48.70225" lon="-3.40295">
        <ele>79</ele>
        <time>2015-01-04T08:14:01Z</time>
      </trkpt>
      <trkpt lat="48.7022" lon="-3.40297">
        <ele>79</ele>
        <time>2015-01-04T08:14:02Z</time>
      </trkpt>
      <trkpt lat="48.70215" lon="-3.40299">
        <ele>79</ele>
        <time>2015-01-04T08:14:03Z</time>
      </trkpt>
      <trkpt lat="48.70211" lon="-3.40301">
        <ele>79</ele>
        <time>2015-01-04T08:14:04Z</time>
      </trkpt>
      <trkpt lat="48.70206" lon="-3.40303">
        <ele>79</ele>
        <time>2015-01-04T08:14:05Z</time>
      </trkpt>
      <trkpt lat="48.702" lon="-3.40305">
        <ele>79</ele>
        <time>2015-01-04T08:14:06Z</time>
      </trkpt>
      <trkpt lat="48.70195" lon="-3.40307">
        <ele>79</ele>
        <time>2015-01-04T08:14:07Z</time>
      </trkpt>
      <trkpt lat="48.7019" lon="-3.40309">
        <ele>79</ele>
        <time>2015-01-04T08:14:08Z</time>
      </trkpt>
      <trkpt lat="48.70184" lon="-3.4031">
        <ele>79</ele>
        <time>2015-01-04T08:14:09Z</time>
      </trkpt>
      <trkpt lat="48.70178" lon="-3.40312">
        <ele>79</ele>
        <time>2015-01-04T08:14:10Z</time>
      </trkpt>
      <trkpt lat="48.70172" lon="-3.40313">
        <ele>79</ele>
        <time>2015-01-04T08:14:11Z</time>
      </trkpt>
      <trkpt lat="48.70167" lon="-3.40314">
        <ele>79</ele>
        <time>2015-01-04T08:14:11Z</time>
      </trkpt>
      <trkpt lat="48.70161" lon="-3.40316">
        <ele>79</ele>
        <time>2015-01-04T08:14:13Z</time>
      </trkpt>
      <trkpt lat="48.70156" lon="-3.40316">
        <ele>79</ele>
        <time>2015-01-04T08:14:14Z</time>
      </trkpt>
      <trkpt lat="48.7015" lon="-3.40317">
        <ele>79</ele>
        <time>2015-01-04T08:14:15Z</time>
      </trkpt>
      <trkpt lat="48.70145" lon="-3.40318">
        <ele>79</ele>
        <time>2015-01-04T08:14:16Z</time>
      </trkpt>
      <trkpt lat="48.7014" lon="-3.40318">
        <ele>79</ele>
        <time>2015-01-04T08:14:17Z</time>
      </trkpt>
      <trkpt lat="48.70135" lon="-3.40319">
        <ele>79</ele>
        <time>2015-01-04T08:14:18Z</time>
      </trkpt>
      <trkpt lat="48.7013" lon="-3.40319">
        <ele>80</ele>
        <time>2015-01-04T08:14:19Z</time>
      </trkpt>
      <trkpt lat="48.70124" lon="-3.4032">
        <ele>80</ele>
        <time>2015-01-04T08:14:20Z</time>
      </trkpt>
      <trkpt lat="48.70119" lon="-3.4032">
        <ele>80</ele>
        <time>2015-01-04T08:14:20Z</time>
      </trkpt>
      <trkpt lat="48.70115" lon="-3.4032">
        <ele>80</ele>
        <time>2015-01-04T08:14:22Z</time>
      </trkpt>
      <trkpt lat="48.7011" lon="-3.4032">
        <ele>80</ele>
        <time>2015-01-04T08:14:23Z</time>
      </trkpt>
      <trkpt lat="48.70105" lon="-3.40321">
        <ele>81</ele>
        <time>2015-01-04T08:14:24Z</time>
      </trkpt>
      <trkpt lat="48.701" lon="-3.40321">
        <ele>81</ele>
        <time>2015-01-04T08:14:25Z</time>
      </trkpt>
      <trkpt lat="48.70094" lon="-3.40321">
        <ele>81</ele>
        <time>2015-01-04T08:14:26Z</time>
      </trkpt>
      <trkpt lat="48.70089" lon="-3.40322">
        <ele>81</ele>
        <time>2015-01-04T08:14:27Z</time>
      </trkpt>
      <trkpt lat="48.70083" lon="-3.40322">
        <ele>81</ele>
        <time>2015-01-04T08:14:27Z</time>
      </trkpt>
      <trkpt lat="48.70078" lon="-3.40323">
        <ele>81</ele>
        <time>2015-01-04T08:14:29Z</time>
      </trkpt>
      <trkpt lat="48.70072" lon="-3.40323">
        <ele>81</ele>
        <time>2015-01-04T08:14:30Z</time>
      </trkpt>
      <trkpt lat="48.70067" lon="-3.40324">
        <ele>82</ele>
        <time>2015-01-04T08:14:31Z</time>
      </trkpt>
      <trkpt lat="48.70062" lon="-3.40325">
        <ele>82</ele>
        <time>2015-01-04T08:14:32Z</time>
      </trkpt>
      <trkpt lat="48.70057" lon="-3.40326">
        <ele>82</ele>
        <time>2015-01-04T08:14:33Z</time>
      </trkpt>
      <trkpt lat="48.70051" lon="-3.40326">
        <ele>82</ele>
        <time>2015-01-04T08:14:34Z</time>
      </trkpt>
      <trkpt lat="48.70046" lon="-3.40327">
        <ele>82</ele>
        <time>2015-01-04T08:14:35Z</time>
      </trkpt>
      <trkpt lat="48.7004" lon="-3.40327">
        <ele>82</ele>
        <time>2015-01-04T08:14:35Z</time>
      </trkpt>
      <trkpt lat="48.70034" lon="-3.40328">
        <ele>82</ele>
        <time>2015-01-04T08:14:37Z</time>
      </trkpt>
      <trkpt lat="48.70029" lon="-3.40329">
        <ele>82</ele>
        <time>2015-01-04T08:14:38Z</time>
      </trkpt>
      <trkpt lat="48.70023" lon="-3.4033">
        <ele>83</ele>
        <time>2015-01-04T08:14:39Z</time>
      </trkpt>
      <trkpt lat="48.70017" lon="-3.4033">
        <ele>83</ele>
        <time>2015-01-04T08:14:39Z</time>
      </trkpt>
      <trkpt lat="48.70012" lon="-3.40331">
        <ele>83</ele>
        <time>2015-01-04T08:14:41Z</time>
      </trkpt>
      <trkpt lat="48.70006" lon="-3.40332">
        <ele>83</ele>
        <time>2015-01-04T08:14:42Z</time>
      </trkpt>
      <trkpt lat="48.7" lon="-3.40332">
        <ele>83</ele>
        <time>2015-01-04T08:14:43Z</time>
      </trkpt>
      <trkpt lat="48.69994" lon="-3.40333">
        <ele>83</ele>
        <time>2015-01-04T08:14:43Z</time>
      </trkpt>
      <trkpt lat="48.69989" lon="-3.40333">
        <ele>83</ele>
        <time>2015-01-04T08:14:45Z</time>
      </trkpt>
      <trkpt lat="48.69983" lon="-3.40333">
        <ele>83</ele>
        <time>2015-01-04T08:14:46Z</time>
      </trkpt>
      <trkpt lat="48.69978" lon="-3.40334">
        <ele>83</ele>
        <time>2015-01-04T08:14:47Z</time>
      </trkpt>
      <trkpt lat="48.69972" lon="-3.40335">
        <ele>83</ele>
        <time>2015-01-04T08:14:47Z</time>
      </trkpt>
      <trkpt lat="48.69967" lon="-3.40335">
        <ele>83</ele>
        <time>2015-01-04T08:14:49Z</time>
      </trkpt>
      <trkpt lat="48.69961" lon="-3.40335">
        <ele>83</ele>
        <time>2015-01-04T08:14:49Z</time>
      </trkpt>
      <trkpt lat="48.69955" lon="-3.40335">
        <ele>83</ele>
        <time>2015-01-04T08:14:50Z</time>
      </trkpt>
      <trkpt lat="48.69949" lon="-3.40336">
        <ele>83</ele>
        <time>2015-01-04T08:14:52Z</time>
      </trkpt>
      <trkpt lat="48.69944" lon="-3.40337">
        <ele>83</ele>
        <time>2015-01-04T08:14:52Z</time>
      </trkpt>
      <trkpt lat="48.69938" lon="-3.40337">
        <ele>83</ele>
        <time>2015-01-04T08:14:53Z</time>
      </trkpt>
      <trkpt lat="48.69932" lon="-3.40338">
        <ele>83</ele>
        <time>2015-01-04T08:14:55Z</time>
      </trkpt>
      <trkpt lat="48.69926" lon="-3.40338">
        <ele>84</ele>
        <time>2015-01-04T08:14:56Z</time>
      </trkpt>
      <trkpt lat="48.69921" lon="-3.40338">
        <ele>84</ele>
        <time>2015-01-04T08:14:57Z</time>
      </trkpt>
      <trkpt lat="48.69915" lon="-3.40338">
        <ele>84</ele>
        <time>2015-01-04T08:14:57Z</time>
      </trkpt>
      <trkpt lat="48.69909" lon="-3.40339">
        <ele>84</ele>
        <time>2015-01-04T08:14:59Z</time>
      </trkpt>
      <trkpt lat="48.69903" lon="-3.40339">
        <ele>84</ele>
        <time>2015-01-04T08:14:59Z</time>
      </trkpt>
      <trkpt lat="48.69897" lon="-3.40339">
        <ele>84</ele>
        <time>2015-01-04T08:15:00Z</time>
      </trkpt>
      <trkpt lat="48.69891" lon="-3.4034">
        <ele>84</ele>
        <time>2015-01-04T08:15:02Z</time>
      </trkpt>
      <trkpt lat="48.69884" lon="-3.40341">
        <ele>84</ele>
        <time>2015-01-04T08:15:03Z</time>
      </trkpt>
      <trkpt lat="48.69878" lon="-3.40342">
        <ele>84</ele>
        <time>2015-01-04T08:15:03Z</time>
      </trkpt>
      <trkpt lat="48.69872" lon="-3.40343">
        <ele>84</ele>
        <time>2015-01-04T08:15:05Z</time>
      </trkpt>
      <trkpt lat="48.69865" lon="-3.40345">
        <ele>84</ele>
        <time>2015-01-04T08:15:06Z</time>
      </trkpt>
      <trkpt lat="48.69859" lon="-3.40347">
        <ele>84</ele>
        <time>2015-01-04T08:15:07Z</time>
      </trkpt>
      <trkpt lat="48.69853" lon="-3.4035">
        <ele>84</ele>
        <time>2015-01-04T08:15:07Z</time>
      </trkpt>
      <trkpt lat="48.69846" lon="-3.40353">
        <ele>84</ele>
        <time>2015-01-04T08:15:09Z</time>
      </trkpt>
      <trkpt lat="48.6984" lon="-3.40356">
        <ele>84</ele>
        <time>2015-01-04T08:15:10Z</time>
      </trkpt>
      <trkpt lat="48.69835" lon="-3.40359">
        <ele>84</ele>
        <time>2015-01-04T08:15:11Z</time>
      </trkpt>
      <trkpt lat="48.69828" lon="-3.40363">
        <ele>84</ele>
        <time>2015-01-04T08:15:12Z</time>
      </trkpt>
      <trkpt lat="48.69822" lon="-3.40367">
        <ele>84</ele>
        <time>2015-01-04T08:15:13Z</time>
      </trkpt>
      <trkpt lat="48.69817" lon="-3.40371">
        <ele>84</ele>
        <time>2015-01-04T08:15:13Z</time>
      </trkpt>
      <trkpt lat="48.69811" lon="-3.40375">
        <ele>84</ele>
        <time>2015-01-04T08:15:15Z</time>
      </trkpt>
      <trkpt lat="48.69805" lon="-3.40379">
        <ele>84</ele>
        <time>2015-01-04T08:15:15Z</time>
      </trkpt>
      <trkpt lat="48.69799" lon="-3.40382">
        <ele>84</ele>
        <time>2015-01-04T08:15:16Z</time>
      </trkpt>
      <trkpt lat="48.69793" lon="-3.40385">
        <ele>84</ele>
        <time>2015-01-04T08:15:18Z</time>
      </trkpt>
      <trkpt lat="48.69787" lon="-3.40388">
        <ele>84</ele>
        <time>2015-01-04T08:15:19Z</time>
      </trkpt>
      <trkpt lat="48.6978" lon="-3.4039">
        <ele>84</ele>
        <time>2015-01-04T08:15:20Z</time>
      </trkpt>
      <trkpt lat="48.69774" lon="-3.40393">
        <ele>84</ele>
        <time>2015-01-04T08:15:20Z</time>
      </trkpt>
      <trkpt lat="48.69767" lon="-3.40395">
        <ele>84</ele>
        <time>2015-01-04T08:15:22Z</time>
      </trkpt>
      <trkpt lat="48.69759" lon="-3.40397">
        <ele>84</ele>
        <time>2015-01-04T08:15:23Z</time>
      </trkpt>
      <trkpt lat="48.69752" lon="-3.40398">
        <ele>84</ele>
        <time>2015-01-04T08:15:23Z</time>
      </trkpt>
      <trkpt lat="48.69744" lon="-3.404">
        <ele>84</ele>
        <time>2015-01-04T08:15:25Z</time>
      </trkpt>
      <trkpt lat="48.69737" lon="-3.40401">
        <ele>84</ele>
        <time>2015-01-04T08:15:25Z</time>
      </trkpt>
      <trkpt lat="48.69729" lon="-3.40402">
        <ele>84</ele>
        <time>2015-01-04T08:15:26Z</time>
      </trkpt>
      <trkpt lat="48.69721" lon="-3.40403">
        <ele>84</ele>
        <time>2015-01-04T08:15:27Z</time>
      </trkpt>
      <trkpt lat="48.69713" lon="-3.40403">
        <ele>84</ele>
        <time>2015-01-04T08:15:29Z</time>
      </trkpt>
      <trkpt lat="48.69704" lon="-3.40403">
        <ele>84</ele>
        <time>2015-01-04T08:15:30Z</time>
      </trkpt>
      <trkpt lat="48.69697" lon="-3.40403">
        <ele>84</ele>
        <time>2015-01-04T08:15:31Z</time>
      </trkpt>
      <trkpt lat="48.69689" lon="-3.40402">
        <ele>84</ele>
        <time>2015-01-04T08:15:31Z</time>
      </trkpt>
      <trkpt lat="48.69681" lon="-3.40402">
        <ele>84</ele>
        <time>2015-01-04T08:15:33Z</time>
      </trkpt>
      <trkpt lat="48.69674" lon="-3.40402">
        <ele>84</ele>
        <time>2015-01-04T08:15:34Z</time>
      </trkpt>
      <trkpt lat="48.69666" lon="-3.40403">
        <ele>84</ele>
        <time>2015-01-04T08:15:35Z</time>
      </trkpt>
      <trkpt lat="48.69659" lon="-3.40404">
        <ele>84</ele>
        <time>2015-01-04T08:15:35Z</time>
      </trkpt>
      <trkpt lat="48.69651" lon="-3.40405">
        <ele>84</ele>
        <time>2015-01-04T08:15:36Z</time>
      </trkpt>
      <trkpt lat="48.69643" lon="-3.40406">
        <ele>84</ele>
        <time>2015-01-04T08:15:37Z</time>
      </trkpt>
      <trkpt lat="48.69636" lon="-3.40407">
        <ele>84</ele>
        <time>2015-01-04T08:15:38Z</time>
      </trkpt>
      <trkpt lat="48.69629" lon="-3.40408">
        <ele>84</ele>
        <time>2015-01-04T08:15:39Z</time>
      </trkpt>
      <trkpt lat="48.69621" lon="-3.40409">
        <ele>84</ele>
        <time>2015-01-04T08:15:41Z</time>
      </trkpt>
      <trkpt lat="48.69614" lon="-3.4041">
        <ele>84</ele>
        <time>2015-01-04T08:15:41Z</time>
      </trkpt>
      <trkpt lat="48.69607" lon="-3.4041">
        <ele>84</ele>
        <time>2015-01-04T08:15:43Z</time>
      </trkpt>
      <trkpt lat="48.696" lon="-3.4041">
        <ele>84</ele>
        <time>2015-01-04T08:15:43Z</time>
      </trkpt>
      <trkpt lat="48.69593" lon="-3.40408">
        <ele>84</ele>
        <time>2015-01-04T08:15:44Z</time>
      </trkpt>
      <trkpt lat="48.69586" lon="-3.40407">
        <ele>84</ele>
        <time>2015-01-04T08:15:46Z</time>
      </trkpt>
      <trkpt lat="48.69579" lon="-3.40405">
        <ele>84</ele>
        <time>2015-01-04T08:15:46Z</time>
      </trkpt>
      <trkpt lat="48.69572" lon="-3.40403">
        <ele>84</ele>
        <time>2015-01-04T08:15:47Z</time>
      </trkpt>
      <trkpt lat="48.69566" lon="-3.40401">
        <ele>84</ele>
        <time>2015-01-04T08:15:48Z</time>
      </trkpt>
      <trkpt lat="48.69559" lon="-3.40398">
        <ele>83</ele>
        <time>2015-01-04T08:15:49Z</time>
      </trkpt>
      <trkpt lat="48.69552" lon="-3.40396">
        <ele>83</ele>
        <time>2015-01-04T08:15:51Z</time>
      </trkpt>
      <trkpt lat="48.69545" lon="-3.40394">
        <ele>83</ele>
        <time>2015-01-04T08:15:52Z</time>
      </trkpt>
      <trkpt lat="48.69539" lon="-3.40392">
        <ele>83</ele>
        <time>2015-01-04T08:15:52Z</time>
      </trkpt>
      <trkpt lat="48.69532" lon="-3.4039">
        <ele>83</ele>
        <time>2015-01-04T08:15:53Z</time>
      </trkpt>
      <trkpt lat="48.69525" lon="-3.40387">
        <ele>83</ele>
        <time>2015-01-04T08:15:54Z</time>
      </trkpt>
      <trkpt lat="48.69519" lon="-3.40385">
        <ele>83</ele>
        <time>2015-01-04T08:15:56Z</time>
      </trkpt>
      <trkpt lat="48.69512" lon="-3.40383">
        <ele>83</ele>
        <time>2015-01-04T08:15:56Z</time>
      </trkpt>
      <trkpt lat="48.69505" lon="-3.40382">
        <ele>83</ele>
        <time>2015-01-04T08:15:57Z</time>
      </trkpt>
      <trkpt lat="48.69498" lon="-3.4038">
        <ele>83</ele>
        <time>2015-01-04T08:15:58Z</time>
      </trkpt>
      <trkpt lat="48.69491" lon="-3.40379">
        <ele>83</ele>
        <time>2015-01-04T08:15:59Z</time>
      </trkpt>
      <trkpt lat="48.69484" lon="-3.40378">
        <ele>83</ele>
        <time>2015-01-04T08:16:01Z</time>
      </trkpt>
      <trkpt lat="48.69477" lon="-3.40377">
        <ele>83</ele>
        <time>2015-01-04T08:16:01Z</time>
      </trkpt>
      <trkpt lat="48.6947" lon="-3.40376">
        <ele>83</ele>
        <time>2015-01-04T08:16:02Z</time>
      </trkpt>
      <trkpt lat="48.69463" lon="-3.40376">
        <ele>83</ele>
        <time>2015-01-04T08:16:03Z</time>
      </trkpt>
      <trkpt lat="48.69457" lon="-3.40375">
        <ele>83</ele>
        <time>2015-01-04T08:16:04Z</time>
      </trkpt>
      <trkpt lat="48.6945" lon="-3.40375">
        <ele>83</ele>
        <time>2015-01-04T08:16:06Z</time>
      </trkpt>
      <trkpt lat="48.69431" lon="-3.40375">
        <ele>83</ele>
        <time>2015-01-04T08:16:08Z</time>
      </trkpt>
      <trkpt lat="48.69424" lon="-3.40375">
        <ele>83</ele>
        <time>2015-01-04T08:16:09Z</time>
      </trkpt>
      <trkpt lat="48.69418" lon="-3.40374">
        <ele>83</ele>
        <time>2015-01-04T08:16:11Z</time>
      </trkpt>
      <trkpt lat="48.69411" lon="-3.40373">
        <ele>83</ele>
        <time>2015-01-04T08:16:11Z</time>
      </trkpt>
      <trkpt lat="48.69405" lon="-3.40372">
        <ele>83</ele>
        <time>2015-01-04T08:16:12Z</time>
      </trkpt>
      <trkpt lat="48.69399" lon="-3.40371">
        <ele>83</ele>
        <time>2015-01-04T08:16:13Z</time>
      </trkpt>
      <trkpt lat="48.69392" lon="-3.4037">
        <ele>83</ele>
        <time>2015-01-04T08:16:14Z</time>
      </trkpt>
      <trkpt lat="48.69386" lon="-3.40369">
        <ele>83</ele>
        <time>2015-01-04T08:16:16Z</time>
      </trkpt>
      <trkpt lat="48.69379" lon="-3.40367">
        <ele>83</ele>
        <time>2015-01-04T08:16:16Z</time>
      </trkpt>
      <trkpt lat="48.69372" lon="-3.40365">
        <ele>82</ele>
        <time>2015-01-04T08:16:17Z</time>
      </trkpt>
      <trkpt lat="48.69365" lon="-3.40362">
        <ele>82</ele>
        <time>2015-01-04T08:16:18Z</time>
      </trkpt>
      <trkpt lat="48.69358" lon="-3.40358">
        <ele>82</ele>
        <time>2015-01-04T08:16:19Z</time>
      </trkpt>
      <trkpt lat="48.69352" lon="-3.40354">
        <ele>82</ele>
        <time>2015-01-04T08:16:21Z</time>
      </trkpt>
      <trkpt lat="48.69345" lon="-3.40351">
        <ele>82</ele>
        <time>2015-01-04T08:16:21Z</time>
      </trkpt>
      <trkpt lat="48.69338" lon="-3.40347">
        <ele>82</ele>
        <time>2015-01-04T08:16:22Z</time>
      </trkpt>
      <trkpt lat="48.69331" lon="-3.40343">
        <ele>81</ele>
        <time>2015-01-04T08:16:23Z</time>
      </trkpt>
      <trkpt lat="48.69325" lon="-3.40338">
        <ele>81</ele>
        <time>2015-01-04T08:16:24Z</time>
      </trkpt>
      <trkpt lat="48.69318" lon="-3.40335">
        <ele>81</ele>
        <time>2015-01-04T08:16:26Z</time>
      </trkpt>
      <trkpt lat="48.69311" lon="-3.40331">
        <ele>81</ele>
        <time>2015-01-04T08:16:26Z</time>
      </trkpt>
      <trkpt lat="48.69304" lon="-3.40326">
        <ele>81</ele>
        <time>2015-01-04T08:16:27Z</time>
      </trkpt>
      <trkpt lat="48.69297" lon="-3.40321">
        <ele>81</ele>
        <time>2015-01-04T08:16:28Z</time>
      </trkpt>
      <trkpt lat="48.6929" lon="-3.40316">
        <ele>80</ele>
        <time>2015-01-04T08:16:29Z</time>
      </trkpt>
      <trkpt lat="48.69283" lon="-3.4031">
        <ele>80</ele>
        <time>2015-01-04T08:16:31Z</time>
      </trkpt>
      <trkpt lat="48.69277" lon="-3.40303">
        <ele>80</ele>
        <time>2015-01-04T08:16:31Z</time>
      </trkpt>
      <trkpt lat="48.6927" lon="-3.40296">
        <ele>80</ele>
        <time>2015-01-04T08:16:32Z</time>
      </trkpt>
      <trkpt lat="48.69264" lon="-3.4029">
        <ele>80</ele>
        <time>2015-01-04T08:16:33Z</time>
      </trkpt>
      <trkpt lat="48.69257" lon="-3.40283">
        <ele>80</ele>
        <time>2015-01-04T08:16:34Z</time>
      </trkpt>
      <trkpt lat="48.69251" lon="-3.40276">
        <ele>80</ele>
        <time>2015-01-04T08:16:36Z</time>
      </trkpt>
      <trkpt lat="48.69245" lon="-3.40269">
        <ele>79</ele>
        <time>2015-01-04T08:16:36Z</time>
      </trkpt>
      <trkpt lat="48.69239" lon="-3.40262">
        <ele>79</ele>
        <time>2015-01-04T08:16:37Z</time>
      </trkpt>
      <trkpt lat="48.69233" lon="-3.40256">
        <ele>79</ele>
        <time>2015-01-04T08:16:38Z</time>
      </trkpt>
      <trkpt lat="48.69227" lon="-3.40249">
        <ele>79</ele>
        <time>2015-01-04T08:16:39Z</time>
      </trkpt>
      <trkpt lat="48.69221" lon="-3.40243">
        <ele>79</ele>
        <time>2015-01-04T08:16:41Z</time>
      </trkpt>
      <trkpt lat="48.69215" lon="-3.40237">
        <ele>79</ele>
        <time>2015-01-04T08:16:42Z</time>
      </trkpt>
      <trkpt lat="48.69208" lon="-3.4023">
        <ele>78</ele>
        <time>2015-01-04T08:16:42Z</time>
      </trkpt>
      <trkpt lat="48.69202" lon="-3.40224">
        <ele>78</ele>
        <time>2015-01-04T08:16:43Z</time>
      </trkpt>
      <trkpt lat="48.69196" lon="-3.40218">
        <ele>78</ele>
        <time>2015-01-04T08:16:44Z</time>
      </trkpt>
      <trkpt lat="48.69189" lon="-3.40212">
        <ele>78</ele>
        <time>2015-01-04T08:16:46Z</time>
      </trkpt>
      <trkpt lat="48.69182" lon="-3.40206">
        <ele>77</ele>
        <time>2015-01-04T08:16:46Z</time>
      </trkpt>
      <trkpt lat="48.69175" lon="-3.402">
        <ele>77</ele>
        <time>2015-01-04T08:16:47Z</time>
      </trkpt>
      <trkpt lat="48.69167" lon="-3.40195">
        <ele>77</ele>
        <time>2015-01-04T08:16:48Z</time>
      </trkpt>
      <trkpt lat="48.6916" lon="-3.4019">
        <ele>77</ele>
        <time>2015-01-04T08:16:49Z</time>
      </trkpt>
      <trkpt lat="48.69152" lon="-3.40185">
        <ele>76</ele>
        <time>2015-01-04T08:16:51Z</time>
      </trkpt>
      <trkpt lat="48.69145" lon="-3.40179">
        <ele>76</ele>
        <time>2015-01-04T08:16:51Z</time>
      </trkpt>
      <trkpt lat="48.69138" lon="-3.40174">
        <ele>76</ele>
        <time>2015-01-04T08:16:52Z</time>
      </trkpt>
      <trkpt lat="48.69131" lon="-3.40169">
        <ele>76</ele>
        <time>2015-01-04T08:16:53Z</time>
      </trkpt>
      <trkpt lat="48.69124" lon="-3.40164">
        <ele>76</ele>
        <time>2015-01-04T08:16:54Z</time>
      </trkpt>
      <trkpt lat="48.69117" lon="-3.40158">
        <ele>75</ele>
        <time>2015-01-04T08:16:56Z</time>
      </trkpt>
      <trkpt lat="48.6911" lon="-3.40153">
        <ele>75</ele>
        <time>2015-01-04T08:16:56Z</time>
      </trkpt>
      <trkpt lat="48.69103" lon="-3.40147">
        <ele>75</ele>
        <time>2015-01-04T08:16:57Z</time>
      </trkpt>
      <trkpt lat="48.69097" lon="-3.40141">
        <ele>75</ele>
        <time>2015-01-04T08:16:58Z</time>
      </trkpt>
      <trkpt lat="48.6909" lon="-3.40135">
        <ele>75</ele>
        <time>2015-01-04T08:16:59Z</time>
      </trkpt>
      <trkpt lat="48.69083" lon="-3.40129">
        <ele>75</ele>
        <time>2015-01-04T08:17:01Z</time>
      </trkpt>
      <trkpt lat="48.69077" lon="-3.40123">
        <ele>75</ele>
        <time>2015-01-04T08:17:01Z</time>
      </trkpt>
      <trkpt lat="48.69071" lon="-3.40116">
        <ele>74</ele>
        <time>2015-01-04T08:17:02Z</time>
      </trkpt>
      <trkpt lat="48.69064" lon="-3.4011">
        <ele>74</ele>
        <time>2015-01-04T08:17:03Z</time>
      </trkpt>
      <trkpt lat="48.69058" lon="-3.40104">
        <ele>74</ele>
        <time>2015-01-04T08:17:04Z</time>
      </trkpt>
      <trkpt lat="48.69051" lon="-3.40098">
        <ele>74</ele>
        <time>2015-01-04T08:17:06Z</time>
      </trkpt>
      <trkpt lat="48.69045" lon="-3.40091">
        <ele>74</ele>
        <time>2015-01-04T08:17:06Z</time>
      </trkpt>
      <trkpt lat="48.69038" lon="-3.40085">
        <ele>73</ele>
        <time>2015-01-04T08:17:07Z</time>
      </trkpt>
      <trkpt lat="48.69032" lon="-3.40079">
        <ele>73</ele>
        <time>2015-01-04T08:17:08Z</time>
      </trkpt>
      <trkpt lat="48.69025" lon="-3.40074">
        <ele>73</ele>
        <time>2015-01-04T08:17:09Z</time>
      </trkpt>
      <trkpt lat="48.69018" lon="-3.40069">
        <ele>73</ele>
        <time>2015-01-04T08:17:11Z</time>
      </trkpt>
      <trkpt lat="48.69011" lon="-3.40064">
        <ele>73</ele>
        <time>2015-01-04T08:17:11Z</time>
      </trkpt>
      <trkpt lat="48.69003" lon="-3.4006">
        <ele>73</ele>
        <time>2015-01-04T08:17:13Z</time>
      </trkpt>
      <trkpt lat="48.68996" lon="-3.40056">
        <ele>73</ele>
        <time>2015-01-04T08:17:13Z</time>
      </trkpt>
      <trkpt lat="48.68989" lon="-3.40053">
        <ele>73</ele>
        <time>2015-01-04T08:17:14Z</time>
      </trkpt>
      <trkpt lat="48.68982" lon="-3.4005">
        <ele>73</ele>
        <time>2015-01-04T08:17:16Z</time>
      </trkpt>
      <trkpt lat="48.68975" lon="-3.40047">
        <ele>73</ele>
        <time>2015-01-04T08:17:16Z</time>
      </trkpt>
      <trkpt lat="48.68969" lon="-3.40044">
        <ele>73</ele>
        <time>2015-01-04T08:17:17Z</time>
      </trkpt>
      <trkpt lat="48.68962" lon="-3.40041">
        <ele>73</ele>
        <time>2015-01-04T08:17:18Z</time>
      </trkpt>
      <trkpt lat="48.68956" lon="-3.40039">
        <ele>73</ele>
        <time>2015-01-04T08:17:19Z</time>
      </trkpt>
      <trkpt lat="48.68949" lon="-3.40037">
        <ele>73</ele>
        <time>2015-01-04T08:17:21Z</time>
      </trkpt>
      <trkpt lat="48.68942" lon="-3.40034">
        <ele>73</ele>
        <time>2015-01-04T08:17:21Z</time>
      </trkpt>
      <trkpt lat="48.68936" lon="-3.40032">
        <ele>73</ele>
        <time>2015-01-04T08:17:22Z</time>
      </trkpt>
      <trkpt lat="48.68929" lon="-3.4003">
        <ele>73</ele>
        <time>2015-01-04T08:17:23Z</time>
      </trkpt>
      <trkpt lat="48.68922" lon="-3.40028">
        <ele>73</ele>
        <time>2015-01-04T08:17:24Z</time>
      </trkpt>
      <trkpt lat="48.68915" lon="-3.40027">
        <ele>73</ele>
        <time>2015-01-04T08:17:26Z</time>
      </trkpt>
      <trkpt lat="48.68908" lon="-3.40025">
        <ele>73</ele>
        <time>2015-01-04T08:17:26Z</time>
      </trkpt>
      <trkpt lat="48.68901" lon="-3.40024">
        <ele>73</ele>
        <time>2015-01-04T08:17:27Z</time>
      </trkpt>
      <trkpt lat="48.68895" lon="-3.40023">
        <ele>73</ele>
        <time>2015-01-04T08:17:28Z</time>
      </trkpt>
      <trkpt lat="48.68888" lon="-3.40022">
        <ele>73</ele>
        <time>2015-01-04T08:17:29Z</time>
      </trkpt>
      <trkpt lat="48.68881" lon="-3.40021">
        <ele>73</ele>
        <time>2015-01-04T08:17:31Z</time>
      </trkpt>
      <trkpt lat="48.68874" lon="-3.4002">
        <ele>73</ele>
        <time>2015-01-04T08:17:31Z</time>
      </trkpt>
      <trkpt lat="48.68868" lon="-3.4002">
        <ele>73</ele>
        <time>2015-01-04T08:17:32Z</time>
      </trkpt>
      <trkpt lat="48.68861" lon="-3.40019">
        <ele>73</ele>
        <time>2015-01-04T08:17:33Z</time>
      </trkpt>
      <trkpt lat="48.68854" lon="-3.40018">
        <ele>72</ele>
        <time>2015-01-04T08:17:34Z</time>
      </trkpt>
      <trkpt lat="48.68847" lon="-3.40017">
        <ele>72</ele>
        <time>2015-01-04T08:17:36Z</time>
      </trkpt>
      <trkpt lat="48.6884" lon="-3.40016">
        <ele>72</ele>
        <time>2015-01-04T08:17:36Z</time>
      </trkpt>
      <trkpt lat="48.68834" lon="-3.40014">
        <ele>72</ele>
        <time>2015-01-04T08:17:37Z</time>
      </trkpt>
      <trkpt lat="48.68827" lon="-3.40013">
        <ele>72</ele>
        <time>2015-01-04T08:17:38Z</time>
      </trkpt>
      <trkpt lat="48.68821" lon="-3.40011">
        <ele>72</ele>
        <time>2015-01-04T08:17:39Z</time>
      </trkpt>
      <trkpt lat="48.68814" lon="-3.40009">
        <ele>72</ele>
        <time>2015-01-04T08:17:41Z</time>
      </trkpt>
      <trkpt lat="48.68808" lon="-3.40007">
        <ele>72</ele>
        <time>2015-01-04T08:17:41Z</time>
      </trkpt>
      <trkpt lat="48.68802" lon="-3.40004">
        <ele>71</ele>
        <time>2015-01-04T08:17:43Z</time>
      </trkpt>
      <trkpt lat="48.68795" lon="-3.40002">
        <ele>71</ele>
        <time>2015-01-04T08:17:43Z</time>
      </trkpt>
      <trkpt lat="48.68789" lon="-3.4">
        <ele>71</ele>
        <time>2015-01-04T08:17:44Z</time>
      </trkpt>
      <trkpt lat="48.68782" lon="-3.39998">
        <ele>71</ele>
        <time>2015-01-04T08:17:46Z</time>
      </trkpt>
      <trkpt lat="48.68776" lon="-3.39995">
        <ele>71</ele>
        <time>2015-01-04T08:17:46Z</time>
      </trkpt>
      <trkpt lat="48.68769" lon="-3.39993">
        <ele>71</ele>
        <time>2015-01-04T08:17:47Z</time>
      </trkpt>
      <trkpt lat="48.68763" lon="-3.39991">
        <ele>70</ele>
        <time>2015-01-04T08:17:48Z</time>
      </trkpt>
      <trkpt lat="48.68756" lon="-3.39989">
        <ele>70</ele>
        <time>2015-01-04T08:17:49Z</time>
      </trkpt>
      <trkpt lat="48.6875" lon="-3.39987">
        <ele>70</ele>
        <time>2015-01-04T08:17:51Z</time>
      </trkpt>
      <trkpt lat="48.68744" lon="-3.39985">
        <ele>70</ele>
        <time>2015-01-04T08:17:51Z</time>
      </trkpt>
      <trkpt lat="48.68737" lon="-3.39983">
        <ele>70</ele>
        <time>2015-01-04T08:17:52Z</time>
      </trkpt>
      <trkpt lat="48.6873" lon="-3.39981">
        <ele>70</ele>
        <time>2015-01-04T08:17:53Z</time>
      </trkpt>
      <trkpt lat="48.68724" lon="-3.39979">
        <ele>70</ele>
        <time>2015-01-04T08:17:54Z</time>
      </trkpt>
      <trkpt lat="48.68717" lon="-3.39978">
        <ele>70</ele>
        <time>2015-01-04T08:17:56Z</time>
      </trkpt>
      <trkpt lat="48.6871" lon="-3.39976">
        <ele>70</ele>
        <time>2015-01-04T08:17:56Z</time>
      </trkpt>
      <trkpt lat="48.68704" lon="-3.39974">
        <ele>70</ele>
        <time>2015-01-04T08:17:57Z</time>
      </trkpt>
      <trkpt lat="48.68697" lon="-3.39972">
        <ele>70</ele>
        <time>2015-01-04T08:17:58Z</time>
      </trkpt>
      <trkpt lat="48.68691" lon="-3.3997">
        <ele>70</ele>
        <time>2015-01-04T08:17:59Z</time>
      </trkpt>
      <trkpt lat="48.68684" lon="-3.39968">
        <ele>70</ele>
        <time>2015-01-04T08:18:01Z</time>
      </trkpt>
      <trkpt lat="48.68677" lon="-3.39966">
        <ele>70</ele>
        <time>2015-01-04T08:18:01Z</time>
      </trkpt>
      <trkpt lat="48.68671" lon="-3.39964">
        <ele>70</ele>
        <time>2015-01-04T08:18:02Z</time>
      </trkpt>
      <trkpt lat="48.68664" lon="-3.39962">
        <ele>70</ele>
        <time>2015-01-04T08:18:03Z</time>
      </trkpt>
      <trkpt lat="48.68657" lon="-3.3996">
        <ele>70</ele>
        <time>2015-01-04T08:18:04Z</time>
      </trkpt>
      <trkpt lat="48.6865" lon="-3.39958">
        <ele>70</ele>
        <time>2015-01-04T08:18:06Z</time>
      </trkpt>
      <trkpt lat="48.68644" lon="-3.39956">
        <ele>70</ele>
        <time>2015-01-04T08:18:06Z</time>
      </trkpt>
      <trkpt lat="48.68637" lon="-3.39953">
        <ele>70</ele>
        <time>2015-01-04T08:18:07Z</time>
      </trkpt>
      <trkpt lat="48.68631" lon="-3.39952">
        <ele>70</ele>
        <time>2015-01-04T08:18:08Z</time>
      </trkpt>
      <trkpt lat="48.68624" lon="-3.3995">
        <ele>70</ele>
        <time>2015-01-04T08:18:09Z</time>
      </trkpt>
      <trkpt lat="48.68618" lon="-3.39949">
        <ele>70</ele>
        <time>2015-01-04T08:18:11Z</time>
      </trkpt>
      <trkpt lat="48.68611" lon="-3.39948">
        <ele>70</ele>
        <time>2015-01-04T08:18:11Z</time>
      </trkpt>
      <trkpt lat="48.68605" lon="-3.39947">
        <ele>70</ele>
        <time>2015-01-04T08:18:12Z</time>
      </trkpt>
      <trkpt lat="48.68598" lon="-3.39946">
        <ele>70</ele>
        <time>2015-01-04T08:18:13Z</time>
      </trkpt>
      <trkpt lat="48.68592" lon="-3.39947">
        <ele>70</ele>
        <time>2015-01-04T08:18:14Z</time>
      </trkpt>
      <trkpt lat="48.68586" lon="-3.39947">
        <ele>70</ele>
        <time>2015-01-04T08:18:16Z</time>
      </trkpt>
      <trkpt lat="48.68579" lon="-3.39948">
        <ele>70</ele>
        <time>2015-01-04T08:18:16Z</time>
      </trkpt>
      <trkpt lat="48.68573" lon="-3.39949">
        <ele>70</ele>
        <time>2015-01-04T08:18:17Z</time>
      </trkpt>
      <trkpt lat="48.68566" lon="-3.39949">
        <ele>70</ele>
        <time>2015-01-04T08:18:18Z</time>
      </trkpt>
      <trkpt lat="48.6856" lon="-3.39951">
        <ele>70</ele>
        <time>2015-01-04T08:18:19Z</time>
      </trkpt>
      <trkpt lat="48.68553" lon="-3.39953">
        <ele>70</ele>
        <time>2015-01-04T08:18:21Z</time>
      </trkpt>
      <trkpt lat="48.68547" lon="-3.39955">
        <ele>70</ele>
        <time>2015-01-04T08:18:21Z</time>
      </trkpt>
      <trkpt lat="48.6854" lon="-3.39956">
        <ele>70</ele>
        <time>2015-01-04T08:18:22Z</time>
      </trkpt>
      <trkpt lat="48.68534" lon="-3.39958">
        <ele>70</ele>
        <time>2015-01-04T08:18:23Z</time>
      </trkpt>
      <trkpt lat="48.68527" lon="-3.3996">
        <ele>70</ele>
        <time>2015-01-04T08:18:25Z</time>
      </trkpt>
      <trkpt lat="48.68521" lon="-3.39962">
        <ele>70</ele>
        <time>2015-01-04T08:18:26Z</time>
      </trkpt>
      <trkpt lat="48.68515" lon="-3.39964">
        <ele>70</ele>
        <time>2015-01-04T08:18:26Z</time>
      </trkpt>
      <trkpt lat="48.68508" lon="-3.39966">
        <ele>70</ele>
        <time>2015-01-04T08:18:27Z</time>
      </trkpt>
      <trkpt lat="48.68502" lon="-3.39967">
        <ele>70</ele>
        <time>2015-01-04T08:18:28Z</time>
      </trkpt>
      <trkpt lat="48.68496" lon="-3.39968">
        <ele>70</ele>
        <time>2015-01-04T08:18:29Z</time>
      </trkpt>
      <trkpt lat="48.68489" lon="-3.39969">
        <ele>70</ele>
        <time>2015-01-04T08:18:31Z</time>
      </trkpt>
      <trkpt lat="48.68482" lon="-3.39969">
        <ele>70</ele>
        <time>2015-01-04T08:18:31Z</time>
      </trkpt>
      <trkpt lat="48.68476" lon="-3.39969">
        <ele>70</ele>
        <time>2015-01-04T08:18:32Z</time>
      </trkpt>
      <trkpt lat="48.68469" lon="-3.39968">
        <ele>70</ele>
        <time>2015-01-04T08:18:34Z</time>
      </trkpt>
      <trkpt lat="48.68462" lon="-3.39967">
        <ele>70</ele>
        <time>2015-01-04T08:18:34Z</time>
      </trkpt>
      <trkpt lat="48.68456" lon="-3.39964">
        <ele>70</ele>
        <time>2015-01-04T08:18:36Z</time>
      </trkpt>
      <trkpt lat="48.6845" lon="-3.3996">
        <ele>70</ele>
        <time>2015-01-04T08:18:36Z</time>
      </trkpt>
      <trkpt lat="48.68444" lon="-3.39955">
        <ele>70</ele>
        <time>2015-01-04T08:18:37Z</time>
      </trkpt>
      <trkpt lat="48.68438" lon="-3.3995">
        <ele>70</ele>
        <time>2015-01-04T08:18:38Z</time>
      </trkpt>
      <trkpt lat="48.68433" lon="-3.39945">
        <ele>70</ele>
        <time>2015-01-04T08:18:39Z</time>
      </trkpt>
      <trkpt lat="48.68427" lon="-3.3994">
        <ele>70</ele>
        <time>2015-01-04T08:18:41Z</time>
      </trkpt>
      <trkpt lat="48.68422" lon="-3.39935">
        <ele>70</ele>
        <time>2015-01-04T08:18:41Z</time>
      </trkpt>
      <trkpt lat="48.68416" lon="-3.3993">
        <ele>70</ele>
        <time>2015-01-04T08:18:43Z</time>
      </trkpt>
      <trkpt lat="48.6841" lon="-3.39926">
        <ele>70</ele>
        <time>2015-01-04T08:18:43Z</time>
      </trkpt>
      <trkpt lat="48.68405" lon="-3.39922">
        <ele>70</ele>
        <time>2015-01-04T08:18:44Z</time>
      </trkpt>
      <trkpt lat="48.68399" lon="-3.39918">
        <ele>70</ele>
        <time>2015-01-04T08:18:46Z</time>
      </trkpt>
      <trkpt lat="48.68393" lon="-3.39915">
        <ele>70</ele>
        <time>2015-01-04T08:18:46Z</time>
      </trkpt>
      <trkpt lat="48.68387" lon="-3.39912">
        <ele>70</ele>
        <time>2015-01-04T08:18:47Z</time>
      </trkpt>
      <trkpt lat="48.68381" lon="-3.39909">
        <ele>70</ele>
        <time>2015-01-04T08:18:48Z</time>
      </trkpt>
      <trkpt lat="48.68375" lon="-3.39906">
        <ele>70</ele>
        <time>2015-01-04T08:18:49Z</time>
      </trkpt>
      <trkpt lat="48.68368" lon="-3.39903">
        <ele>70</ele>
        <time>2015-01-04T08:18:51Z</time>
      </trkpt>
      <trkpt lat="48.68362" lon="-3.399">
        <ele>70</ele>
        <time>2015-01-04T08:18:51Z</time>
      </trkpt>
      <trkpt lat="48.68355" lon="-3.39897">
        <ele>70</ele>
        <time>2015-01-04T08:18:52Z</time>
      </trkpt>
      <trkpt lat="48.68348" lon="-3.39895">
        <ele>70</ele>
        <time>2015-01-04T08:18:53Z</time>
      </trkpt>
      <trkpt lat="48.68341" lon="-3.39893">
        <ele>70</ele>
        <time>2015-01-04T08:18:55Z</time>
      </trkpt>
      <trkpt lat="48.68334" lon="-3.3989">
        <ele>70</ele>
        <time>2015-01-04T08:18:56Z</time>
      </trkpt>
      <trkpt lat="48.68327" lon="-3.39887">
        <ele>70</ele>
        <time>2015-01-04T08:18:56Z</time>
      </trkpt>
      <trkpt lat="48.6832" lon="-3.39885">
        <ele>70</ele>
        <time>2015-01-04T08:18:57Z</time>
      </trkpt>
      <trkpt lat="48.68313" lon="-3.39882">
        <ele>70</ele>
        <time>2015-01-04T08:18:58Z</time>
      </trkpt>
      <trkpt lat="48.68306" lon="-3.39879">
        <ele>70</ele>
        <time>2015-01-04T08:18:59Z</time>
      </trkpt>
      <trkpt lat="48.68299" lon="-3.39876">
        <ele>70</ele>
        <time>2015-01-04T08:19:01Z</time>
      </trkpt>
      <trkpt lat="48.68293" lon="-3.39874">
        <ele>70</ele>
        <time>2015-01-04T08:19:01Z</time>
      </trkpt>
      <trkpt lat="48.68285" lon="-3.39871">
        <ele>70</ele>
        <time>2015-01-04T08:19:02Z</time>
      </trkpt>
      <trkpt lat="48.68279" lon="-3.39868">
        <ele>70</ele>
        <time>2015-01-04T08:19:03Z</time>
      </trkpt>
      <trkpt lat="48.68271" lon="-3.39866">
        <ele>70</ele>
        <time>2015-01-04T08:19:04Z</time>
      </trkpt>
      <trkpt lat="48.68264" lon="-3.39863">
        <ele>70</ele>
        <time>2015-01-04T08:19:06Z</time>
      </trkpt>
      <trkpt lat="48.68257" lon="-3.3986">
        <ele>70</ele>
        <time>2015-01-04T08:19:06Z</time>
      </trkpt>
      <trkpt lat="48.68251" lon="-3.39856">
        <ele>70</ele>
        <time>2015-01-04T08:19:07Z</time>
      </trkpt>
      <trkpt lat="48.68244" lon="-3.39853">
        <ele>70</ele>
        <time>2015-01-04T08:19:08Z</time>
      </trkpt>
      <trkpt lat="48.68238" lon="-3.39848">
        <ele>70</ele>
        <time>2015-01-04T08:19:09Z</time>
      </trkpt>
      <trkpt lat="48.68231" lon="-3.39844">
        <ele>70</ele>
        <time>2015-01-04T08:19:11Z</time>
      </trkpt>
      <trkpt lat="48.68225" lon="-3.3984">
        <ele>70</ele>
        <time>2015-01-04T08:19:11Z</time>
      </trkpt>
      <trkpt lat="48.68219" lon="-3.39835">
        <ele>70</ele>
        <time>2015-01-04T08:19:12Z</time>
      </trkpt>
      <trkpt lat="48.68213" lon="-3.39829">
        <ele>70</ele>
        <time>2015-01-04T08:19:13Z</time>
      </trkpt>
      <trkpt lat="48.68208" lon="-3.39823">
        <ele>70</ele>
        <time>2015-01-04T08:19:14Z</time>
      </trkpt>
      <trkpt lat="48.68202" lon="-3.39816">
        <ele>70</ele>
        <time>2015-01-04T08:19:16Z</time>
      </trkpt>
      <trkpt lat="48.68197" lon="-3.39809">
        <ele>70</ele>
        <time>2015-01-04T08:19:16Z</time>
      </trkpt>
      <trkpt lat="48.68192" lon="-3.39802">
        <ele>70</ele>
        <time>2015-01-04T08:19:17Z</time>
      </trkpt>
      <trkpt lat="48.68187" lon="-3.39795">
        <ele>70</ele>
        <time>2015-01-04T08:19:18Z</time>
      </trkpt>
      <trkpt lat="48.68181" lon="-3.39788">
        <ele>70</ele>
        <time>2015-01-04T08:19:19Z</time>
      </trkpt>
      <trkpt lat="48.68176" lon="-3.39782">
        <ele>70</ele>
        <time>2015-01-04T08:19:20Z</time>
      </trkpt>
      <trkpt lat="48.6817" lon="-3.39775">
        <ele>70</ele>
        <time>2015-01-04T08:19:21Z</time>
      </trkpt>
      <trkpt lat="48.68165" lon="-3.39769">
        <ele>70</ele>
        <time>2015-01-04T08:19:22Z</time>
      </trkpt>
      <trkpt lat="48.6816" lon="-3.39763">
        <ele>70</ele>
        <time>2015-01-04T08:19:23Z</time>
      </trkpt>
      <trkpt lat="48.68154" lon="-3.39757">
        <ele>70</ele>
        <time>2015-01-04T08:19:24Z</time>
      </trkpt>
      <trkpt lat="48.68148" lon="-3.39751">
        <ele>70</ele>
        <time>2015-01-04T08:19:26Z</time>
      </trkpt>
      <trkpt lat="48.68143" lon="-3.39746">
        <ele>70</ele>
        <time>2015-01-04T08:19:26Z</time>
      </trkpt>
      <trkpt lat="48.68137" lon="-3.3974">
        <ele>70</ele>
        <time>2015-01-04T08:19:27Z</time>
      </trkpt>
      <trkpt lat="48.68131" lon="-3.39734">
        <ele>70</ele>
        <time>2015-01-04T08:19:28Z</time>
      </trkpt>
      <trkpt lat="48.68125" lon="-3.39728">
        <ele>70</ele>
        <time>2015-01-04T08:19:29Z</time>
      </trkpt>
      <trkpt lat="48.68119" lon="-3.39723">
        <ele>70</ele>
        <time>2015-01-04T08:19:31Z</time>
      </trkpt>
      <trkpt lat="48.68113" lon="-3.39718">
        <ele>70</ele>
        <time>2015-01-04T08:19:31Z</time>
      </trkpt>
      <trkpt lat="48.68107" lon="-3.39712">
        <ele>70</ele>
        <time>2015-01-04T08:19:32Z</time>
      </trkpt>
      <trkpt lat="48.68101" lon="-3.39707">
        <ele>70</ele>
        <time>2015-01-04T08:19:33Z</time>
      </trkpt>
      <trkpt lat="48.68095" lon="-3.39702">
        <ele>70</ele>
        <time>2015-01-04T08:19:34Z</time>
      </trkpt>
      <trkpt lat="48.68089" lon="-3.39697">
        <ele>70</ele>
        <time>2015-01-04T08:19:36Z</time>
      </trkpt>
      <trkpt lat="48.68083" lon="-3.39692">
        <ele>70</ele>
        <time>2015-01-04T08:19:36Z</time>
      </trkpt>
      <trkpt lat="48.68077" lon="-3.39687">
        <ele>70</ele>
        <time>2015-01-04T08:19:37Z</time>
      </trkpt>
      <trkpt lat="48.68071" lon="-3.39682">
        <ele>70</ele>
        <time>2015-01-04T08:19:38Z</time>
      </trkpt>
      <trkpt lat="48.68065" lon="-3.39677">
        <ele>70</ele>
        <time>2015-01-04T08:19:39Z</time>
      </trkpt>
      <trkpt lat="48.68058" lon="-3.39671">
        <ele>70</ele>
        <time>2015-01-04T08:19:41Z</time>
      </trkpt>
      <trkpt lat="48.68052" lon="-3.39666">
        <ele>70</ele>
        <time>2015-01-04T08:19:41Z</time>
      </trkpt>
      <trkpt lat="48.68046" lon="-3.39661">
        <ele>70</ele>
        <time>2015-01-04T08:19:42Z</time>
      </trkpt>
      <trkpt lat="48.6804" lon="-3.39656">
        <ele>70</ele>
        <time>2015-01-04T08:19:43Z</time>
      </trkpt>
      <trkpt lat="48.68034" lon="-3.39651">
        <ele>70</ele>
        <time>2015-01-04T08:19:44Z</time>
      </trkpt>
      <trkpt lat="48.68028" lon="-3.39646">
        <ele>70</ele>
        <time>2015-01-04T08:19:46Z</time>
      </trkpt>
      <trkpt lat="48.68022" lon="-3.39641">
        <ele>70</ele>
        <time>2015-01-04T08:19:46Z</time>
      </trkpt>
      <trkpt lat="48.68016" lon="-3.39635">
        <ele>70</ele>
        <time>2015-01-04T08:19:47Z</time>
      </trkpt>
      <trkpt lat="48.6801" lon="-3.3963">
        <ele>70</ele>
        <time>2015-01-04T08:19:48Z</time>
      </trkpt>
      <trkpt lat="48.68005" lon="-3.39625">
        <ele>70</ele>
        <time>2015-01-04T08:19:49Z</time>
      </trkpt>
      <trkpt lat="48.67999" lon="-3.3962">
        <ele>70</ele>
        <time>2015-01-04T08:19:51Z</time>
      </trkpt>
      <trkpt lat="48.67993" lon="-3.39615">
        <ele>70</ele>
        <time>2015-01-04T08:19:51Z</time>
      </trkpt>
      <trkpt lat="48.67988" lon="-3.3961">
        <ele>71</ele>
        <time>2015-01-04T08:19:52Z</time>
      </trkpt>
      <trkpt lat="48.67982" lon="-3.39606">
        <ele>71</ele>
        <time>2015-01-04T08:19:53Z</time>
      </trkpt>
      <trkpt lat="48.67976" lon="-3.39602">
        <ele>71</ele>
        <time>2015-01-04T08:19:54Z</time>
      </trkpt>
      <trkpt lat="48.67971" lon="-3.39599">
        <ele>71</ele>
        <time>2015-01-04T08:19:56Z</time>
      </trkpt>
      <trkpt lat="48.67965" lon="-3.39596">
        <ele>71</ele>
        <time>2015-01-04T08:19:56Z</time>
      </trkpt>
      <trkpt lat="48.67959" lon="-3.39594">
        <ele>72</ele>
        <time>2015-01-04T08:19:57Z</time>
      </trkpt>
      <trkpt lat="48.67953" lon="-3.39592">
        <ele>72</ele>
        <time>2015-01-04T08:19:58Z</time>
      </trkpt>
      <trkpt lat="48.67948" lon="-3.39591">
        <ele>72</ele>
        <time>2015-01-04T08:19:59Z</time>
      </trkpt>
      <trkpt lat="48.67943" lon="-3.39589">
        <ele>73</ele>
        <time>2015-01-04T08:20:00Z</time>
      </trkpt>
      <trkpt lat="48.67938" lon="-3.39588">
        <ele>73</ele>
        <time>2015-01-04T08:20:01Z</time>
      </trkpt>
      <trkpt lat="48.67933" lon="-3.39587">
        <ele>73</ele>
        <time>2015-01-04T08:20:02Z</time>
      </trkpt>
      <trkpt lat="48.67927" lon="-3.39587">
        <ele>74</ele>
        <time>2015-01-04T08:20:03Z</time>
      </trkpt>
      <trkpt lat="48.67922" lon="-3.39586">
        <ele>74</ele>
        <time>2015-01-04T08:20:04Z</time>
      </trkpt>
      <trkpt lat="48.67916" lon="-3.39585">
        <ele>74</ele>
        <time>2015-01-04T08:20:06Z</time>
      </trkpt>
      <trkpt lat="48.6791" lon="-3.39584">
        <ele>74</ele>
        <time>2015-01-04T08:20:06Z</time>
      </trkpt>
      <trkpt lat="48.67905" lon="-3.39583">
        <ele>75</ele>
        <time>2015-01-04T08:20:07Z</time>
      </trkpt>
      <trkpt lat="48.67899" lon="-3.39582">
        <ele>75</ele>
        <time>2015-01-04T08:20:08Z</time>
      </trkpt>
      <trkpt lat="48.67893" lon="-3.39581">
        <ele>75</ele>
        <time>2015-01-04T08:20:09Z</time>
      </trkpt>
      <trkpt lat="48.67887" lon="-3.3958">
        <ele>75</ele>
        <time>2015-01-04T08:20:11Z</time>
      </trkpt>
      <trkpt lat="48.67881" lon="-3.39579">
        <ele>75</ele>
        <time>2015-01-04T08:20:11Z</time>
      </trkpt>
      <trkpt lat="48.67874" lon="-3.39578">
        <ele>75</ele>
        <time>2015-01-04T08:20:12Z</time>
      </trkpt>
      <trkpt lat="48.67868" lon="-3.39578">
        <ele>75</ele>
        <time>2015-01-04T08:20:13Z</time>
      </trkpt>
      <trkpt lat="48.67856" lon="-3.39578">
        <ele>75</ele>
        <time>2015-01-04T08:20:16Z</time>
      </trkpt>
      <trkpt lat="48.6785" lon="-3.39578">
        <ele>75</ele>
        <time>2015-01-04T08:20:17Z</time>
      </trkpt>
      <trkpt lat="48.67844" lon="-3.39579">
        <ele>75</ele>
        <time>2015-01-04T08:20:17Z</time>
      </trkpt>
      <trkpt lat="48.67838" lon="-3.3958">
        <ele>75</ele>
        <time>2015-01-04T08:20:18Z</time>
      </trkpt>
      <trkpt lat="48.67832" lon="-3.39581">
        <ele>75</ele>
        <time>2015-01-04T08:20:19Z</time>
      </trkpt>
      <trkpt lat="48.67825" lon="-3.39581">
        <ele>75</ele>
        <time>2015-01-04T08:20:21Z</time>
      </trkpt>
      <trkpt lat="48.67819" lon="-3.39581">
        <ele>75</ele>
        <time>2015-01-04T08:20:21Z</time>
      </trkpt>
      <trkpt lat="48.67812" lon="-3.39581">
        <ele>75</ele>
        <time>2015-01-04T08:20:22Z</time>
      </trkpt>
      <trkpt lat="48.67806" lon="-3.39581">
        <ele>75</ele>
        <time>2015-01-04T08:20:23Z</time>
      </trkpt>
      <trkpt lat="48.678" lon="-3.3958">
        <ele>75</ele>
        <time>2015-01-04T08:20:24Z</time>
      </trkpt>
      <trkpt lat="48.67794" lon="-3.39578">
        <ele>75</ele>
        <time>2015-01-04T08:20:26Z</time>
      </trkpt>
      <trkpt lat="48.67788" lon="-3.39576">
        <ele>75</ele>
        <time>2015-01-04T08:20:26Z</time>
      </trkpt>
      <trkpt lat="48.67782" lon="-3.39573">
        <ele>75</ele>
        <time>2015-01-04T08:20:27Z</time>
      </trkpt>
      <trkpt lat="48.67775" lon="-3.3957">
        <ele>75</ele>
        <time>2015-01-04T08:20:28Z</time>
      </trkpt>
      <trkpt lat="48.6777" lon="-3.39567">
        <ele>75</ele>
        <time>2015-01-04T08:20:29Z</time>
      </trkpt>
      <trkpt lat="48.67764" lon="-3.39564">
        <ele>75</ele>
        <time>2015-01-04T08:20:31Z</time>
      </trkpt>
      <trkpt lat="48.67757" lon="-3.39561">
        <ele>75</ele>
        <time>2015-01-04T08:20:31Z</time>
      </trkpt>
      <trkpt lat="48.67751" lon="-3.39558">
        <ele>75</ele>
        <time>2015-01-04T08:20:32Z</time>
      </trkpt>
      <trkpt lat="48.67745" lon="-3.39555">
        <ele>75</ele>
        <time>2015-01-04T08:20:33Z</time>
      </trkpt>
      <trkpt lat="48.67739" lon="-3.39553">
        <ele>75</ele>
        <time>2015-01-04T08:20:34Z</time>
      </trkpt>
      <trkpt lat="48.67733" lon="-3.3955">
        <ele>76</ele>
        <time>2015-01-04T08:20:36Z</time>
      </trkpt>
      <trkpt lat="48.67726" lon="-3.39548">
        <ele>76</ele>
        <time>2015-01-04T08:20:36Z</time>
      </trkpt>
      <trkpt lat="48.6772" lon="-3.39546">
        <ele>76</ele>
        <time>2015-01-04T08:20:37Z</time>
      </trkpt>
      <trkpt lat="48.67714" lon="-3.39544">
        <ele>76</ele>
        <time>2015-01-04T08:20:38Z</time>
      </trkpt>
      <trkpt lat="48.67707" lon="-3.39542">
        <ele>76</ele>
        <time>2015-01-04T08:20:39Z</time>
      </trkpt>
      <trkpt lat="48.67701" lon="-3.3954">
        <ele>76</ele>
        <time>2015-01-04T08:20:41Z</time>
      </trkpt>
      <trkpt lat="48.67695" lon="-3.39538">
        <ele>76</ele>
        <time>2015-01-04T08:20:41Z</time>
      </trkpt>
      <trkpt lat="48.67688" lon="-3.39536">
        <ele>76</ele>
        <time>2015-01-04T08:20:42Z</time>
      </trkpt>
      <trkpt lat="48.67682" lon="-3.39533">
        <ele>77</ele>
        <time>2015-01-04T08:20:43Z</time>
      </trkpt>
      <trkpt lat="48.67676" lon="-3.3953">
        <ele>77</ele>
        <time>2015-01-04T08:20:44Z</time>
      </trkpt>
      <trkpt lat="48.6767" lon="-3.39527">
        <ele>77</ele>
        <time>2015-01-04T08:20:46Z</time>
      </trkpt>
      <trkpt lat="48.67664" lon="-3.39523">
        <ele>77</ele>
        <time>2015-01-04T08:20:46Z</time>
      </trkpt>
      <trkpt lat="48.67658" lon="-3.39519">
        <ele>77</ele>
        <time>2015-01-04T08:20:47Z</time>
      </trkpt>
      <trkpt lat="48.67652" lon="-3.39516">
        <ele>77</ele>
        <time>2015-01-04T08:20:48Z</time>
      </trkpt>
      <trkpt lat="48.67646" lon="-3.39512">
        <ele>78</ele>
        <time>2015-01-04T08:20:49Z</time>
      </trkpt>
      <trkpt lat="48.6764" lon="-3.39508">
        <ele>78</ele>
        <time>2015-01-04T08:20:51Z</time>
      </trkpt>
      <trkpt lat="48.67634" lon="-3.39504">
        <ele>78</ele>
        <time>2015-01-04T08:20:51Z</time>
      </trkpt>
      <trkpt lat="48.67628" lon="-3.395">
        <ele>78</ele>
        <time>2015-01-04T08:20:52Z</time>
      </trkpt>
      <trkpt lat="48.67621" lon="-3.39496">
        <ele>78</ele>
        <time>2015-01-04T08:20:53Z</time>
      </trkpt>
      <trkpt lat="48.67615" lon="-3.39493">
        <ele>78</ele>
        <time>2015-01-04T08:20:54Z</time>
      </trkpt>
      <trkpt lat="48.67609" lon="-3.39489">
        <ele>78</ele>
        <time>2015-01-04T08:20:56Z</time>
      </trkpt>
      <trkpt lat="48.67602" lon="-3.39485">
        <ele>78</ele>
        <time>2015-01-04T08:20:56Z</time>
      </trkpt>
      <trkpt lat="48.67596" lon="-3.39482">
        <ele>78</ele>
        <time>2015-01-04T08:20:57Z</time>
      </trkpt>
      <trkpt lat="48.67589" lon="-3.39478">
        <ele>78</ele>
        <time>2015-01-04T08:20:58Z</time>
      </trkpt>
      <trkpt lat="48.67582" lon="-3.39474">
        <ele>78</ele>
        <time>2015-01-04T08:20:59Z</time>
      </trkpt>
      <trkpt lat="48.67575" lon="-3.39471">
        <ele>78</ele>
        <time>2015-01-04T08:21:01Z</time>
      </trkpt>
      <trkpt lat="48.67568" lon="-3.39467">
        <ele>78</ele>
        <time>2015-01-04T08:21:01Z</time>
      </trkpt>
      <trkpt lat="48.67561" lon="-3.39464">
        <ele>78</ele>
        <time>2015-01-04T08:21:02Z</time>
      </trkpt>
      <trkpt lat="48.67554" lon="-3.39462">
        <ele>78</ele>
        <time>2015-01-04T08:21:03Z</time>
      </trkpt>
      <trkpt lat="48.67547" lon="-3.39459">
        <ele>78</ele>
        <time>2015-01-04T08:21:04Z</time>
      </trkpt>
      <trkpt lat="48.6754" lon="-3.39457">
        <ele>78</ele>
        <time>2015-01-04T08:21:06Z</time>
      </trkpt>
      <trkpt lat="48.67533" lon="-3.39456">
        <ele>78</ele>
        <time>2015-01-04T08:21:07Z</time>
      </trkpt>
      <trkpt lat="48.67526" lon="-3.39454">
        <ele>78</ele>
        <time>2015-01-04T08:21:07Z</time>
      </trkpt>
      <trkpt lat="48.67519" lon="-3.39452">
        <ele>78</ele>
        <time>2015-01-04T08:21:08Z</time>
      </trkpt>
      <trkpt lat="48.67512" lon="-3.39451">
        <ele>78</ele>
        <time>2015-01-04T08:21:09Z</time>
      </trkpt>
      <trkpt lat="48.67505" lon="-3.39449">
        <ele>78</ele>
        <time>2015-01-04T08:21:11Z</time>
      </trkpt>
      <trkpt lat="48.67499" lon="-3.39448">
        <ele>78</ele>
        <time>2015-01-04T08:21:11Z</time>
      </trkpt>
      <trkpt lat="48.67492" lon="-3.39446">
        <ele>78</ele>
        <time>2015-01-04T08:21:12Z</time>
      </trkpt>
      <trkpt lat="48.67486" lon="-3.39443">
        <ele>78</ele>
        <time>2015-01-04T08:21:13Z</time>
      </trkpt>
      <trkpt lat="48.6748" lon="-3.39441">
        <ele>78</ele>
        <time>2015-01-04T08:21:14Z</time>
      </trkpt>
      <trkpt lat="48.67474" lon="-3.39438">
        <ele>78</ele>
        <time>2015-01-04T08:21:16Z</time>
      </trkpt>
      <trkpt lat="48.67468" lon="-3.39436">
        <ele>78</ele>
        <time>2015-01-04T08:21:16Z</time>
      </trkpt>
      <trkpt lat="48.67462" lon="-3.39433">
        <ele>78</ele>
        <time>2015-01-04T08:21:17Z</time>
      </trkpt>
      <trkpt lat="48.67456" lon="-3.3943">
        <ele>78</ele>
        <time>2015-01-04T08:21:18Z</time>
      </trkpt>
      <trkpt lat="48.6745" lon="-3.39427">
        <ele>79</ele>
        <time>2015-01-04T08:21:19Z</time>
      </trkpt>
      <trkpt lat="48.67444" lon="-3.39424">
        <ele>79</ele>
        <time>2015-01-04T08:21:21Z</time>
      </trkpt>
      <trkpt lat="48.67439" lon="-3.3942">
        <ele>79</ele>
        <time>2015-01-04T08:21:21Z</time>
      </trkpt>
      <trkpt lat="48.67433" lon="-3.39417">
        <ele>79</ele>
        <time>2015-01-04T08:21:22Z</time>
      </trkpt>
      <trkpt lat="48.67427" lon="-3.39413">
        <ele>79</ele>
        <time>2015-01-04T08:21:23Z</time>
      </trkpt>
      <trkpt lat="48.67421" lon="-3.3941">
        <ele>79</ele>
        <time>2015-01-04T08:21:24Z</time>
      </trkpt>
      <trkpt lat="48.67415" lon="-3.39406">
        <ele>79</ele>
        <time>2015-01-04T08:21:26Z</time>
      </trkpt>
      <trkpt lat="48.67409" lon="-3.39403">
        <ele>79</ele>
        <time>2015-01-04T08:21:26Z</time>
      </trkpt>
      <trkpt lat="48.67403" lon="-3.39401">
        <ele>79</ele>
        <time>2015-01-04T08:21:27Z</time>
      </trkpt>
      <trkpt lat="48.67397" lon="-3.39398">
        <ele>79</ele>
        <time>2015-01-04T08:21:28Z</time>
      </trkpt>
      <trkpt lat="48.67391" lon="-3.39395">
        <ele>79</ele>
        <time>2015-01-04T08:21:29Z</time>
      </trkpt>
      <trkpt lat="48.67384" lon="-3.39393">
        <ele>79</ele>
        <time>2015-01-04T08:21:31Z</time>
      </trkpt>
      <trkpt lat="48.67378" lon="-3.39391">
        <ele>79</ele>
        <time>2015-01-04T08:21:31Z</time>
      </trkpt>
      <trkpt lat="48.67372" lon="-3.39389">
        <ele>79</ele>
        <time>2015-01-04T08:21:32Z</time>
      </trkpt>
      <trkpt lat="48.67366" lon="-3.39387">
        <ele>79</ele>
        <time>2015-01-04T08:21:33Z</time>
      </trkpt>
      <trkpt lat="48.6736" lon="-3.39385">
        <ele>80</ele>
        <time>2015-01-04T08:21:34Z</time>
      </trkpt>
      <trkpt lat="48.67353" lon="-3.39384">
        <ele>80</ele>
        <time>2015-01-04T08:21:35Z</time>
      </trkpt>
      <trkpt lat="48.67347" lon="-3.39383">
        <ele>80</ele>
        <time>2015-01-04T08:21:36Z</time>
      </trkpt>
      <trkpt lat="48.6734" lon="-3.39382">
        <ele>80</ele>
        <time>2015-01-04T08:21:37Z</time>
      </trkpt>
      <trkpt lat="48.67334" lon="-3.39383">
        <ele>80</ele>
        <time>2015-01-04T08:21:38Z</time>
      </trkpt>
      <trkpt lat="48.67328" lon="-3.39383">
        <ele>80</ele>
        <time>2015-01-04T08:21:39Z</time>
      </trkpt>
      <trkpt lat="48.67321" lon="-3.39385">
        <ele>80</ele>
        <time>2015-01-04T08:21:41Z</time>
      </trkpt>
      <trkpt lat="48.67315" lon="-3.39386">
        <ele>80</ele>
        <time>2015-01-04T08:21:41Z</time>
      </trkpt>
      <trkpt lat="48.67309" lon="-3.39387">
        <ele>80</ele>
        <time>2015-01-04T08:21:42Z</time>
      </trkpt>
      <trkpt lat="48.67302" lon="-3.39389">
        <ele>80</ele>
        <time>2015-01-04T08:21:43Z</time>
      </trkpt>
      <trkpt lat="48.67297" lon="-3.39391">
        <ele>80</ele>
        <time>2015-01-04T08:21:44Z</time>
      </trkpt>
      <trkpt lat="48.67291" lon="-3.39394">
        <ele>80</ele>
        <time>2015-01-04T08:21:46Z</time>
      </trkpt>
      <trkpt lat="48.67284" lon="-3.39396">
        <ele>80</ele>
        <time>2015-01-04T08:21:46Z</time>
      </trkpt>
      <trkpt lat="48.67279" lon="-3.39399">
        <ele>80</ele>
        <time>2015-01-04T08:21:47Z</time>
      </trkpt>
      <trkpt lat="48.67273" lon="-3.39401">
        <ele>80</ele>
        <time>2015-01-04T08:21:48Z</time>
      </trkpt>
      <trkpt lat="48.67268" lon="-3.39404">
        <ele>80</ele>
        <time>2015-01-04T08:21:49Z</time>
      </trkpt>
      <trkpt lat="48.67262" lon="-3.39407">
        <ele>81</ele>
        <time>2015-01-04T08:21:50Z</time>
      </trkpt>
      <trkpt lat="48.67257" lon="-3.39409">
        <ele>81</ele>
        <time>2015-01-04T08:21:51Z</time>
      </trkpt>
      <trkpt lat="48.67251" lon="-3.39412">
        <ele>81</ele>
        <time>2015-01-04T08:21:52Z</time>
      </trkpt>
      <trkpt lat="48.67245" lon="-3.39414">
        <ele>81</ele>
        <time>2015-01-04T08:21:53Z</time>
      </trkpt>
      <trkpt lat="48.67239" lon="-3.39416">
        <ele>81</ele>
        <time>2015-01-04T08:21:54Z</time>
      </trkpt>
      <trkpt lat="48.67234" lon="-3.39417">
        <ele>81</ele>
        <time>2015-01-04T08:21:55Z</time>
      </trkpt>
      <trkpt lat="48.67228" lon="-3.39419">
        <ele>81</ele>
        <time>2015-01-04T08:21:56Z</time>
      </trkpt>
      <trkpt lat="48.67222" lon="-3.3942">
        <ele>81</ele>
        <time>2015-01-04T08:21:57Z</time>
      </trkpt>
      <trkpt lat="48.67216" lon="-3.39421">
        <ele>81</ele>
        <time>2015-01-04T08:21:58Z</time>
      </trkpt>
      <trkpt lat="48.67211" lon="-3.39422">
        <ele>82</ele>
        <time>2015-01-04T08:21:59Z</time>
      </trkpt>
      <trkpt lat="48.67205" lon="-3.39423">
        <ele>82</ele>
        <time>2015-01-04T08:22:01Z</time>
      </trkpt>
      <trkpt lat="48.67199" lon="-3.39424">
        <ele>82</ele>
        <time>2015-01-04T08:22:01Z</time>
      </trkpt>
      <trkpt lat="48.67193" lon="-3.39425">
        <ele>82</ele>
        <time>2015-01-04T08:22:02Z</time>
      </trkpt>
      <trkpt lat="48.67187" lon="-3.39426">
        <ele>82</ele>
        <time>2015-01-04T08:22:03Z</time>
      </trkpt>
      <trkpt lat="48.67181" lon="-3.39427">
        <ele>82</ele>
        <time>2015-01-04T08:22:04Z</time>
      </trkpt>
      <trkpt lat="48.67176" lon="-3.39428">
        <ele>82</ele>
        <time>2015-01-04T08:22:06Z</time>
      </trkpt>
      <trkpt lat="48.6717" lon="-3.39429">
        <ele>82</ele>
        <time>2015-01-04T08:22:06Z</time>
      </trkpt>
      <trkpt lat="48.67164" lon="-3.3943">
        <ele>83</ele>
        <time>2015-01-04T08:22:07Z</time>
      </trkpt>
      <trkpt lat="48.67158" lon="-3.39431">
        <ele>83</ele>
        <time>2015-01-04T08:22:08Z</time>
      </trkpt>
      <trkpt lat="48.67152" lon="-3.39433">
        <ele>83</ele>
        <time>2015-01-04T08:22:09Z</time>
      </trkpt>
      <trkpt lat="48.67147" lon="-3.39434">
        <ele>83</ele>
        <time>2015-01-04T08:22:11Z</time>
      </trkpt>
      <trkpt lat="48.67141" lon="-3.39435">
        <ele>83</ele>
        <time>2015-01-04T08:22:11Z</time>
      </trkpt>
      <trkpt lat="48.67135" lon="-3.39436">
        <ele>83</ele>
        <time>2015-01-04T08:22:12Z</time>
      </trkpt>
      <trkpt lat="48.67129" lon="-3.39437">
        <ele>83</ele>
        <time>2015-01-04T08:22:13Z</time>
      </trkpt>
      <trkpt lat="48.67123" lon="-3.39439">
        <ele>83</ele>
        <time>2015-01-04T08:22:14Z</time>
      </trkpt>
      <trkpt lat="48.67117" lon="-3.3944">
        <ele>83</ele>
        <time>2015-01-04T08:22:16Z</time>
      </trkpt>
      <trkpt lat="48.67111" lon="-3.39441">
        <ele>84</ele>
        <time>2015-01-04T08:22:16Z</time>
      </trkpt>
      <trkpt lat="48.67105" lon="-3.39443">
        <ele>84</ele>
        <time>2015-01-04T08:22:17Z</time>
      </trkpt>
      <trkpt lat="48.671" lon="-3.39444">
        <ele>84</ele>
        <time>2015-01-04T08:22:18Z</time>
      </trkpt>
      <trkpt lat="48.67094" lon="-3.39446">
        <ele>84</ele>
        <time>2015-01-04T08:22:19Z</time>
      </trkpt>
      <trkpt lat="48.67089" lon="-3.39447">
        <ele>84</ele>
        <time>2015-01-04T08:22:20Z</time>
      </trkpt>
      <trkpt lat="48.67083" lon="-3.39449">
        <ele>84</ele>
        <time>2015-01-04T08:22:21Z</time>
      </trkpt>
      <trkpt lat="48.67078" lon="-3.39451">
        <ele>84</ele>
        <time>2015-01-04T08:22:22Z</time>
      </trkpt>
      <trkpt lat="48.67072" lon="-3.39453">
        <ele>84</ele>
        <time>2015-01-04T08:22:23Z</time>
      </trkpt>
      <trkpt lat="48.67067" lon="-3.39455">
        <ele>84</ele>
        <time>2015-01-04T08:22:24Z</time>
      </trkpt>
      <trkpt lat="48.67061" lon="-3.39457">
        <ele>84</ele>
        <time>2015-01-04T08:22:25Z</time>
      </trkpt>
      <trkpt lat="48.67056" lon="-3.39461">
        <ele>84</ele>
        <time>2015-01-04T08:22:26Z</time>
      </trkpt>
      <trkpt lat="48.67051" lon="-3.39465">
        <ele>84</ele>
        <time>2015-01-04T08:22:27Z</time>
      </trkpt>
      <trkpt lat="48.67046" lon="-3.39471">
        <ele>84</ele>
        <time>2015-01-04T08:22:28Z</time>
      </trkpt>
      <trkpt lat="48.67042" lon="-3.39477">
        <ele>84</ele>
        <time>2015-01-04T08:22:29Z</time>
      </trkpt>
      <trkpt lat="48.67038" lon="-3.39485">
        <ele>84</ele>
        <time>2015-01-04T08:22:31Z</time>
      </trkpt>
      <trkpt lat="48.67035" lon="-3.39493">
        <ele>84</ele>
        <time>2015-01-04T08:22:31Z</time>
      </trkpt>
      <trkpt lat="48.67032" lon="-3.39501">
        <ele>84</ele>
        <time>2015-01-04T08:22:32Z</time>
      </trkpt>
      <trkpt lat="48.67029" lon="-3.39508">
        <ele>84</ele>
        <time>2015-01-04T08:22:33Z</time>
      </trkpt>
      <trkpt lat="48.67026" lon="-3.39516">
        <ele>84</ele>
        <time>2015-01-04T08:22:34Z</time>
      </trkpt>
      <trkpt lat="48.67023" lon="-3.39524">
        <ele>84</ele>
        <time>2015-01-04T08:22:35Z</time>
      </trkpt>
      <trkpt lat="48.6702" lon="-3.39531">
        <ele>84</ele>
        <time>2015-01-04T08:22:36Z</time>
      </trkpt>
      <trkpt lat="48.67017" lon="-3.39539">
        <ele>84</ele>
        <time>2015-01-04T08:22:37Z</time>
      </trkpt>
      <trkpt lat="48.67014" lon="-3.39546">
        <ele>84</ele>
        <time>2015-01-04T08:22:38Z</time>
      </trkpt>
      <trkpt lat="48.67011" lon="-3.39553">
        <ele>84</ele>
        <time>2015-01-04T08:22:39Z</time>
      </trkpt>
      <trkpt lat="48.67007" lon="-3.39559">
        <ele>84</ele>
        <time>2015-01-04T08:22:40Z</time>
      </trkpt>
      <trkpt lat="48.67003" lon="-3.39564">
        <ele>84</ele>
        <time>2015-01-04T08:22:41Z</time>
      </trkpt>
      <trkpt lat="48.66998" lon="-3.39567">
        <ele>84</ele>
        <time>2015-01-04T08:22:42Z</time>
      </trkpt>
      <trkpt lat="48.66993" lon="-3.39569">
        <ele>84</ele>
        <time>2015-01-04T08:22:43Z</time>
      </trkpt>
      <trkpt lat="48.66988" lon="-3.39571">
        <ele>84</ele>
        <time>2015-01-04T08:22:44Z</time>
      </trkpt>
      <trkpt lat="48.66982" lon="-3.39572">
        <ele>84</ele>
        <time>2015-01-04T08:22:45Z</time>
      </trkpt>
      <trkpt lat="48.66977" lon="-3.39573">
        <ele>84</ele>
        <time>2015-01-04T08:22:46Z</time>
      </trkpt>
      <trkpt lat="48.66971" lon="-3.39575">
        <ele>84</ele>
        <time>2015-01-04T08:22:47Z</time>
      </trkpt>
      <trkpt lat="48.66965" lon="-3.39576">
        <ele>84</ele>
        <time>2015-01-04T08:22:48Z</time>
      </trkpt>
      <trkpt lat="48.6696" lon="-3.39579">
        <ele>84</ele>
        <time>2015-01-04T08:22:49Z</time>
      </trkpt>
      <trkpt lat="48.66954" lon="-3.39581">
        <ele>84</ele>
        <time>2015-01-04T08:22:50Z</time>
      </trkpt>
      <trkpt lat="48.66948" lon="-3.39584">
        <ele>84</ele>
        <time>2015-01-04T08:22:51Z</time>
      </trkpt>
      <trkpt lat="48.66943" lon="-3.39588">
        <ele>84</ele>
        <time>2015-01-04T08:22:52Z</time>
      </trkpt>
      <trkpt lat="48.66937" lon="-3.39591">
        <ele>84</ele>
        <time>2015-01-04T08:22:53Z</time>
      </trkpt>
      <trkpt lat="48.66932" lon="-3.39594">
        <ele>84</ele>
        <time>2015-01-04T08:22:54Z</time>
      </trkpt>
      <trkpt lat="48.66926" lon="-3.39597">
        <ele>84</ele>
        <time>2015-01-04T08:22:55Z</time>
      </trkpt>
      <trkpt lat="48.66921" lon="-3.396">
        <ele>85</ele>
        <time>2015-01-04T08:22:56Z</time>
      </trkpt>
      <trkpt lat="48.66915" lon="-3.39602">
        <ele>85</ele>
        <time>2015-01-04T08:22:57Z</time>
      </trkpt>
      <trkpt lat="48.66909" lon="-3.39605">
        <ele>85</ele>
        <time>2015-01-04T08:22:58Z</time>
      </trkpt>
      <trkpt lat="48.66904" lon="-3.39607">
        <ele>85</ele>
        <time>2015-01-04T08:22:59Z</time>
      </trkpt>
      <trkpt lat="48.66899" lon="-3.3961">
        <ele>85</ele>
        <time>2015-01-04T08:23:01Z</time>
      </trkpt>
      <trkpt lat="48.66893" lon="-3.39614">
        <ele>85</ele>
        <time>2015-01-04T08:23:01Z</time>
      </trkpt>
      <trkpt lat="48.66888" lon="-3.39618">
        <ele>85</ele>
        <time>2015-01-04T08:23:02Z</time>
      </trkpt>
      <trkpt lat="48.66884" lon="-3.39624">
        <ele>85</ele>
        <time>2015-01-04T08:23:03Z</time>
      </trkpt>
      <trkpt lat="48.6688" lon="-3.39631">
        <ele>85</ele>
        <time>2015-01-04T08:23:04Z</time>
      </trkpt>
      <trkpt lat="48.66877" lon="-3.39638">
        <ele>85</ele>
        <time>2015-01-04T08:23:06Z</time>
      </trkpt>
      <trkpt lat="48.66874" lon="-3.39646">
        <ele>85</ele>
        <time>2015-01-04T08:23:06Z</time>
      </trkpt>
      <trkpt lat="48.66871" lon="-3.39654">
        <ele>85</ele>
        <time>2015-01-04T08:23:07Z</time>
      </trkpt>
      <trkpt lat="48.66868" lon="-3.39662">
        <ele>85</ele>
        <time>2015-01-04T08:23:08Z</time>
      </trkpt>
      <trkpt lat="48.66866" lon="-3.3967">
        <ele>85</ele>
        <time>2015-01-04T08:23:09Z</time>
      </trkpt>
      <trkpt lat="48.66862" lon="-3.39677">
        <ele>85</ele>
        <time>2015-01-04T08:23:11Z</time>
      </trkpt>
      <trkpt lat="48.66859" lon="-3.39684">
        <ele>85</ele>
        <time>2015-01-04T08:23:11Z</time>
      </trkpt>
      <trkpt lat="48.66854" lon="-3.3969">
        <ele>85</ele>
        <time>2015-01-04T08:23:12Z</time>
      </trkpt>
      <trkpt lat="48.6685" lon="-3.39695">
        <ele>86</ele>
        <time>2015-01-04T08:23:13Z</time>
      </trkpt>
      <trkpt lat="48.66844" lon="-3.39699">
        <ele>86</ele>
        <time>2015-01-04T08:23:14Z</time>
      </trkpt>
      <trkpt lat="48.66839" lon="-3.39702">
        <ele>86</ele>
        <time>2015-01-04T08:23:15Z</time>
      </trkpt>
      <trkpt lat="48.66834" lon="-3.39704">
        <ele>86</ele>
        <time>2015-01-04T08:23:16Z</time>
      </trkpt>
      <trkpt lat="48.66828" lon="-3.39706">
        <ele>87</ele>
        <time>2015-01-04T08:23:17Z</time>
      </trkpt>
      <trkpt lat="48.66822" lon="-3.39708">
        <ele>87</ele>
        <time>2015-01-04T08:23:18Z</time>
      </trkpt>
      <trkpt lat="48.66817" lon="-3.3971">
        <ele>87</ele>
        <time>2015-01-04T08:23:19Z</time>
      </trkpt>
      <trkpt lat="48.66811" lon="-3.39711">
        <ele>87</ele>
        <time>2015-01-04T08:23:20Z</time>
      </trkpt>
      <trkpt lat="48.66806" lon="-3.39713">
        <ele>87</ele>
        <time>2015-01-04T08:23:21Z</time>
      </trkpt>
      <trkpt lat="48.668" lon="-3.39714">
        <ele>87</ele>
        <time>2015-01-04T08:23:22Z</time>
      </trkpt>
      <trkpt lat="48.66795" lon="-3.39715">
        <ele>87</ele>
        <time>2015-01-04T08:23:23Z</time>
      </trkpt>
      <trkpt lat="48.66789" lon="-3.39717">
        <ele>87</ele>
        <time>2015-01-04T08:23:24Z</time>
      </trkpt>
      <trkpt lat="48.66784" lon="-3.39718">
        <ele>87</ele>
        <time>2015-01-04T08:23:25Z</time>
      </trkpt>
      <trkpt lat="48.66779" lon="-3.39719">
        <ele>87</ele>
        <time>2015-01-04T08:23:26Z</time>
      </trkpt>
      <trkpt lat="48.66774" lon="-3.39721">
        <ele>87</ele>
        <time>2015-01-04T08:23:27Z</time>
      </trkpt>
      <trkpt lat="48.66769" lon="-3.39722">
        <ele>87</ele>
        <time>2015-01-04T08:23:28Z</time>
      </trkpt>
      <trkpt lat="48.66764" lon="-3.39724">
        <ele>87</ele>
        <time>2015-01-04T08:23:29Z</time>
      </trkpt>
      <trkpt lat="48.66758" lon="-3.39725">
        <ele>87</ele>
        <time>2015-01-04T08:23:31Z</time>
      </trkpt>
      <trkpt lat="48.66753" lon="-3.39727">
        <ele>88</ele>
        <time>2015-01-04T08:23:31Z</time>
      </trkpt>
      <trkpt lat="48.66748" lon="-3.39729">
        <ele>88</ele>
        <time>2015-01-04T08:23:32Z</time>
      </trkpt>
      <trkpt lat="48.66742" lon="-3.39731">
        <ele>88</ele>
        <time>2015-01-04T08:23:33Z</time>
      </trkpt>
      <trkpt lat="48.66737" lon="-3.39733">
        <ele>88</ele>
        <time>2015-01-04T08:23:34Z</time>
      </trkpt>
      <trkpt lat="48.66732" lon="-3.39734">
        <ele>89</ele>
        <time>2015-01-04T08:23:35Z</time>
      </trkpt>
      <trkpt lat="48.66726" lon="-3.39736">
        <ele>89</ele>
        <time>2015-01-04T08:23:36Z</time>
      </trkpt>
      <trkpt lat="48.66721" lon="-3.39737">
        <ele>89</ele>
        <time>2015-01-04T08:23:37Z</time>
      </trkpt>
      <trkpt lat="48.66715" lon="-3.39738">
        <ele>89</ele>
        <time>2015-01-04T08:23:38Z</time>
      </trkpt>
      <trkpt lat="48.6671" lon="-3.39739">
        <ele>90</ele>
        <time>2015-01-04T08:23:39Z</time>
      </trkpt>
      <trkpt lat="48.66704" lon="-3.39739">
        <ele>90</ele>
        <time>2015-01-04T08:23:40Z</time>
      </trkpt>
      <trkpt lat="48.66698" lon="-3.3974">
        <ele>90</ele>
        <time>2015-01-04T08:23:41Z</time>
      </trkpt>
      <trkpt lat="48.66687" lon="-3.39739">
        <ele>90</ele>
        <time>2015-01-04T08:23:43Z</time>
      </trkpt>
      <trkpt lat="48.66682" lon="-3.39739">
        <ele>91</ele>
        <time>2015-01-04T08:23:44Z</time>
      </trkpt>
      <trkpt lat="48.66677" lon="-3.39738">
        <ele>91</ele>
        <time>2015-01-04T08:23:46Z</time>
      </trkpt>
      <trkpt lat="48.66671" lon="-3.39737">
        <ele>91</ele>
        <time>2015-01-04T08:23:46Z</time>
      </trkpt>
      <trkpt lat="48.66666" lon="-3.39736">
        <ele>91</ele>
        <time>2015-01-04T08:23:47Z</time>
      </trkpt>
      <trkpt lat="48.66661" lon="-3.39734">
        <ele>91</ele>
        <time>2015-01-04T08:23:48Z</time>
      </trkpt>
      <trkpt lat="48.66655" lon="-3.39732">
        <ele>91</ele>
        <time>2015-01-04T08:23:49Z</time>
      </trkpt>
      <trkpt lat="48.6665" lon="-3.3973">
        <ele>91</ele>
        <time>2015-01-04T08:23:51Z</time>
      </trkpt>
      <trkpt lat="48.66645" lon="-3.39728">
        <ele>92</ele>
        <time>2015-01-04T08:23:51Z</time>
      </trkpt>
      <trkpt lat="48.66639" lon="-3.39726">
        <ele>92</ele>
        <time>2015-01-04T08:23:52Z</time>
      </trkpt>
      <trkpt lat="48.66634" lon="-3.39724">
        <ele>92</ele>
        <time>2015-01-04T08:23:53Z</time>
      </trkpt>
      <trkpt lat="48.66629" lon="-3.39722">
        <ele>92</ele>
        <time>2015-01-04T08:23:54Z</time>
      </trkpt>
      <trkpt lat="48.66623" lon="-3.3972">
        <ele>92</ele>
        <time>2015-01-04T08:23:55Z</time>
      </trkpt>
      <trkpt lat="48.66618" lon="-3.39718">
        <ele>92</ele>
        <time>2015-01-04T08:23:56Z</time>
      </trkpt>
      <trkpt lat="48.66613" lon="-3.39715">
        <ele>92</ele>
        <time>2015-01-04T08:23:57Z</time>
      </trkpt>
      <trkpt lat="48.66607" lon="-3.39713">
        <ele>92</ele>
        <time>2015-01-04T08:23:58Z</time>
      </trkpt>
      <trkpt lat="48.66602" lon="-3.39711">
        <ele>92</ele>
        <time>2015-01-04T08:23:59Z</time>
      </trkpt>
      <trkpt lat="48.66596" lon="-3.39709">
        <ele>92</ele>
        <time>2015-01-04T08:24:00Z</time>
      </trkpt>
      <trkpt lat="48.66591" lon="-3.39707">
        <ele>92</ele>
        <time>2015-01-04T08:24:01Z</time>
      </trkpt>
      <trkpt lat="48.66585" lon="-3.39706">
        <ele>92</ele>
        <time>2015-01-04T08:24:02Z</time>
      </trkpt>
      <trkpt lat="48.66579" lon="-3.39705">
        <ele>93</ele>
        <time>2015-01-04T08:24:03Z</time>
      </trkpt>
      <trkpt lat="48.66574" lon="-3.39704">
        <ele>93</ele>
        <time>2015-01-04T08:24:04Z</time>
      </trkpt>
      <trkpt lat="48.66568" lon="-3.39704">
        <ele>93</ele>
        <time>2015-01-04T08:24:05Z</time>
      </trkpt>
      <trkpt lat="48.66563" lon="-3.39703">
        <ele>93</ele>
        <time>2015-01-04T08:24:06Z</time>
      </trkpt>
      <trkpt lat="48.66557" lon="-3.39703">
        <ele>93</ele>
        <time>2015-01-04T08:24:07Z</time>
      </trkpt>
      <trkpt lat="48.66551" lon="-3.39703">
        <ele>94</ele>
        <time>2015-01-04T08:24:08Z</time>
      </trkpt>
      <trkpt lat="48.66534" lon="-3.39703">
        <ele>94</ele>
        <time>2015-01-04T08:24:11Z</time>
      </trkpt>
      <trkpt lat="48.66528" lon="-3.39703">
        <ele>94</ele>
        <time>2015-01-04T08:24:12Z</time>
      </trkpt>
      <trkpt lat="48.66523" lon="-3.39703">
        <ele>94</ele>
        <time>2015-01-04T08:24:13Z</time>
      </trkpt>
      <trkpt lat="48.66517" lon="-3.39702">
        <ele>94</ele>
        <time>2015-01-04T08:24:14Z</time>
      </trkpt>
      <trkpt lat="48.66512" lon="-3.39702">
        <ele>95</ele>
        <time>2015-01-04T08:24:15Z</time>
      </trkpt>
      <trkpt lat="48.66506" lon="-3.39701">
        <ele>95</ele>
        <time>2015-01-04T08:24:16Z</time>
      </trkpt>
      <trkpt lat="48.665" lon="-3.39701">
        <ele>95</ele>
        <time>2015-01-04T08:24:17Z</time>
      </trkpt>
      <trkpt lat="48.66495" lon="-3.397">
        <ele>95</ele>
        <time>2015-01-04T08:24:18Z</time>
      </trkpt>
      <trkpt lat="48.66489" lon="-3.397">
        <ele>95</ele>
        <time>2015-01-04T08:24:19Z</time>
      </trkpt>
      <trkpt lat="48.66477" lon="-3.39701">
        <ele>95</ele>
        <time>2015-01-04T08:24:21Z</time>
      </trkpt>
      <trkpt lat="48.66471" lon="-3.39702">
        <ele>95</ele>
        <time>2015-01-04T08:24:22Z</time>
      </trkpt>
      <trkpt lat="48.66465" lon="-3.39703">
        <ele>95</ele>
        <time>2015-01-04T08:24:23Z</time>
      </trkpt>
      <trkpt lat="48.66459" lon="-3.39705">
        <ele>95</ele>
        <time>2015-01-04T08:24:24Z</time>
      </trkpt>
      <trkpt lat="48.66453" lon="-3.39706">
        <ele>95</ele>
        <time>2015-01-04T08:24:25Z</time>
      </trkpt>
      <trkpt lat="48.66447" lon="-3.39708">
        <ele>95</ele>
        <time>2015-01-04T08:24:26Z</time>
      </trkpt>
      <trkpt lat="48.66441" lon="-3.3971">
        <ele>95</ele>
        <time>2015-01-04T08:24:27Z</time>
      </trkpt>
      <trkpt lat="48.66435" lon="-3.39711">
        <ele>95</ele>
        <time>2015-01-04T08:24:28Z</time>
      </trkpt>
      <trkpt lat="48.66428" lon="-3.39711">
        <ele>95</ele>
        <time>2015-01-04T08:24:29Z</time>
      </trkpt>
      <trkpt lat="48.66416" lon="-3.39711">
        <ele>95</ele>
        <time>2015-01-04T08:24:31Z</time>
      </trkpt>
      <trkpt lat="48.6641" lon="-3.3971">
        <ele>95</ele>
        <time>2015-01-04T08:24:32Z</time>
      </trkpt>
      <trkpt lat="48.66403" lon="-3.39709">
        <ele>95</ele>
        <time>2015-01-04T08:24:33Z</time>
      </trkpt>
      <trkpt lat="48.66397" lon="-3.39707">
        <ele>95</ele>
        <time>2015-01-04T08:24:34Z</time>
      </trkpt>
      <trkpt lat="48.66391" lon="-3.39705">
        <ele>95</ele>
        <time>2015-01-04T08:24:35Z</time>
      </trkpt>
      <trkpt lat="48.66385" lon="-3.39704">
        <ele>95</ele>
        <time>2015-01-04T08:24:36Z</time>
      </trkpt>
      <trkpt lat="48.66379" lon="-3.39702">
        <ele>95</ele>
        <time>2015-01-04T08:24:37Z</time>
      </trkpt>
      <trkpt lat="48.66373" lon="-3.397">
        <ele>95</ele>
        <time>2015-01-04T08:24:38Z</time>
      </trkpt>
      <trkpt lat="48.66367" lon="-3.39698">
        <ele>95</ele>
        <time>2015-01-04T08:24:39Z</time>
      </trkpt>
      <trkpt lat="48.66361" lon="-3.39696">
        <ele>95</ele>
        <time>2015-01-04T08:24:41Z</time>
      </trkpt>
      <trkpt lat="48.66355" lon="-3.39694">
        <ele>96</ele>
        <time>2015-01-04T08:24:41Z</time>
      </trkpt>
      <trkpt lat="48.66349" lon="-3.39693">
        <ele>96</ele>
        <time>2015-01-04T08:24:42Z</time>
      </trkpt>
      <trkpt lat="48.66343" lon="-3.3969">
        <ele>96</ele>
        <time>2015-01-04T08:24:43Z</time>
      </trkpt>
      <trkpt lat="48.66337" lon="-3.39688">
        <ele>96</ele>
        <time>2015-01-04T08:24:44Z</time>
      </trkpt>
      <trkpt lat="48.66331" lon="-3.39686">
        <ele>97</ele>
        <time>2015-01-04T08:24:45Z</time>
      </trkpt>
      <trkpt lat="48.66325" lon="-3.39684">
        <ele>97</ele>
        <time>2015-01-04T08:24:46Z</time>
      </trkpt>
      <trkpt lat="48.66318" lon="-3.39682">
        <ele>97</ele>
        <time>2015-01-04T08:24:47Z</time>
      </trkpt>
      <trkpt lat="48.66312" lon="-3.3968">
        <ele>97</ele>
        <time>2015-01-04T08:24:48Z</time>
      </trkpt>
      <trkpt lat="48.66306" lon="-3.39678">
        <ele>97</ele>
        <time>2015-01-04T08:24:49Z</time>
      </trkpt>
      <trkpt lat="48.66299" lon="-3.39676">
        <ele>97</ele>
        <time>2015-01-04T08:24:50Z</time>
      </trkpt>
      <trkpt lat="48.66293" lon="-3.39674">
        <ele>97</ele>
        <time>2015-01-04T08:24:51Z</time>
      </trkpt>
      <trkpt lat="48.66287" lon="-3.39672">
        <ele>97</ele>
        <time>2015-01-04T08:24:52Z</time>
      </trkpt>
      <trkpt lat="48.6628" lon="-3.39669">
        <ele>97</ele>
        <time>2015-01-04T08:24:53Z</time>
      </trkpt>
      <trkpt lat="48.66274" lon="-3.39667">
        <ele>97</ele>
        <time>2015-01-04T08:24:54Z</time>
      </trkpt>
      <trkpt lat="48.66267" lon="-3.39664">
        <ele>97</ele>
        <time>2015-01-04T08:24:55Z</time>
      </trkpt>
      <trkpt lat="48.66261" lon="-3.39661">
        <ele>97</ele>
        <time>2015-01-04T08:24:56Z</time>
      </trkpt>
      <trkpt lat="48.66254" lon="-3.39659">
        <ele>97</ele>
        <time>2015-01-04T08:24:57Z</time>
      </trkpt>
      <trkpt lat="48.66248" lon="-3.39656">
        <ele>97</ele>
        <time>2015-01-04T08:24:58Z</time>
      </trkpt>
      <trkpt lat="48.66241" lon="-3.39653">
        <ele>97</ele>
        <time>2015-01-04T08:24:59Z</time>
      </trkpt>
      <trkpt lat="48.66235" lon="-3.3965">
        <ele>97</ele>
        <time>2015-01-04T08:25:00Z</time>
      </trkpt>
      <trkpt lat="48.66228" lon="-3.39647">
        <ele>97</ele>
        <time>2015-01-04T08:25:01Z</time>
      </trkpt>
      <trkpt lat="48.66222" lon="-3.39644">
        <ele>97</ele>
        <time>2015-01-04T08:25:02Z</time>
      </trkpt>
      <trkpt lat="48.66216" lon="-3.39642">
        <ele>97</ele>
        <time>2015-01-04T08:25:03Z</time>
      </trkpt>
      <trkpt lat="48.66209" lon="-3.39639">
        <ele>97</ele>
        <time>2015-01-04T08:25:04Z</time>
      </trkpt>
      <trkpt lat="48.66203" lon="-3.39636">
        <ele>97</ele>
        <time>2015-01-04T08:25:05Z</time>
      </trkpt>
      <trkpt lat="48.66197" lon="-3.39633">
        <ele>97</ele>
        <time>2015-01-04T08:25:06Z</time>
      </trkpt>
      <trkpt lat="48.66191" lon="-3.3963">
        <ele>97</ele>
        <time>2015-01-04T08:25:07Z</time>
      </trkpt>
      <trkpt lat="48.66185" lon="-3.39628">
        <ele>97</ele>
        <time>2015-01-04T08:25:08Z</time>
      </trkpt>
      <trkpt lat="48.66178" lon="-3.39625">
        <ele>97</ele>
        <time>2015-01-04T08:25:09Z</time>
      </trkpt>
      <trkpt lat="48.66172" lon="-3.39622">
        <ele>97</ele>
        <time>2015-01-04T08:25:10Z</time>
      </trkpt>
      <trkpt lat="48.66165" lon="-3.3962">
        <ele>97</ele>
        <time>2015-01-04T08:25:11Z</time>
      </trkpt>
      <trkpt lat="48.66159" lon="-3.39617">
        <ele>97</ele>
        <time>2015-01-04T08:25:12Z</time>
      </trkpt>
      <trkpt lat="48.66152" lon="-3.39615">
        <ele>97</ele>
        <time>2015-01-04T08:25:13Z</time>
      </trkpt>
      <trkpt lat="48.66145" lon="-3.39613">
        <ele>97</ele>
        <time>2015-01-04T08:25:14Z</time>
      </trkpt>
      <trkpt lat="48.66138" lon="-3.3961">
        <ele>97</ele>
        <time>2015-01-04T08:25:15Z</time>
      </trkpt>
      <trkpt lat="48.66132" lon="-3.39608">
        <ele>97</ele>
        <time>2015-01-04T08:25:16Z</time>
      </trkpt>
      <trkpt lat="48.66125" lon="-3.39606">
        <ele>97</ele>
        <time>2015-01-04T08:25:17Z</time>
      </trkpt>
      <trkpt lat="48.66119" lon="-3.39604">
        <ele>97</ele>
        <time>2015-01-04T08:25:18Z</time>
      </trkpt>
      <trkpt lat="48.66113" lon="-3.39602">
        <ele>97</ele>
        <time>2015-01-04T08:25:19Z</time>
      </trkpt>
      <trkpt lat="48.66107" lon="-3.396">
        <ele>97</ele>
        <time>2015-01-04T08:25:20Z</time>
      </trkpt>
      <trkpt lat="48.66101" lon="-3.39598">
        <ele>97</ele>
        <time>2015-01-04T08:25:21Z</time>
      </trkpt>
      <trkpt lat="48.66095" lon="-3.39596">
        <ele>97</ele>
        <time>2015-01-04T08:25:22Z</time>
      </trkpt>
      <trkpt lat="48.66088" lon="-3.39594">
        <ele>97</ele>
        <time>2015-01-04T08:25:23Z</time>
      </trkpt>
      <trkpt lat="48.66082" lon="-3.39592">
        <ele>97</ele>
        <time>2015-01-04T08:25:24Z</time>
      </trkpt>
      <trkpt lat="48.66076" lon="-3.3959">
        <ele>97</ele>
        <time>2015-01-04T08:25:25Z</time>
      </trkpt>
      <trkpt lat="48.66069" lon="-3.39587">
        <ele>97</ele>
        <time>2015-01-04T08:25:26Z</time>
      </trkpt>
      <trkpt lat="48.66063" lon="-3.39585">
        <ele>97</ele>
        <time>2015-01-04T08:25:27Z</time>
      </trkpt>
      <trkpt lat="48.66056" lon="-3.39582">
        <ele>97</ele>
        <time>2015-01-04T08:25:28Z</time>
      </trkpt>
      <trkpt lat="48.6605" lon="-3.39579">
        <ele>97</ele>
        <time>2015-01-04T08:25:29Z</time>
      </trkpt>
      <trkpt lat="48.66043" lon="-3.39577">
        <ele>97</ele>
        <time>2015-01-04T08:25:30Z</time>
      </trkpt>
      <trkpt lat="48.66037" lon="-3.39574">
        <ele>97</ele>
        <time>2015-01-04T08:25:31Z</time>
      </trkpt>
      <trkpt lat="48.6603" lon="-3.39571">
        <ele>97</ele>
        <time>2015-01-04T08:25:32Z</time>
      </trkpt>
      <trkpt lat="48.66023" lon="-3.39568">
        <ele>97</ele>
        <time>2015-01-04T08:25:33Z</time>
      </trkpt>
      <trkpt lat="48.66016" lon="-3.39565">
        <ele>97</ele>
        <time>2015-01-04T08:25:34Z</time>
      </trkpt>
      <trkpt lat="48.66009" lon="-3.39562">
        <ele>97</ele>
        <time>2015-01-04T08:25:35Z</time>
      </trkpt>
      <trkpt lat="48.66002" lon="-3.39559">
        <ele>97</ele>
        <time>2015-01-04T08:25:36Z</time>
      </trkpt>
      <trkpt lat="48.65995" lon="-3.39556">
        <ele>97</ele>
        <time>2015-01-04T08:25:37Z</time>
      </trkpt>
      <trkpt lat="48.65989" lon="-3.39553">
        <ele>97</ele>
        <time>2015-01-04T08:25:38Z</time>
      </trkpt>
      <trkpt lat="48.65982" lon="-3.3955">
        <ele>97</ele>
        <time>2015-01-04T08:25:39Z</time>
      </trkpt>
      <trkpt lat="48.65975" lon="-3.39547">
        <ele>97</ele>
        <time>2015-01-04T08:25:40Z</time>
      </trkpt>
      <trkpt lat="48.65968" lon="-3.39544">
        <ele>97</ele>
        <time>2015-01-04T08:25:41Z</time>
      </trkpt>
      <trkpt lat="48.65961" lon="-3.3954">
        <ele>97</ele>
        <time>2015-01-04T08:25:42Z</time>
      </trkpt>
      <trkpt lat="48.65955" lon="-3.39536">
        <ele>97</ele>
        <time>2015-01-04T08:25:43Z</time>
      </trkpt>
      <trkpt lat="48.65948" lon="-3.39533">
        <ele>97</ele>
        <time>2015-01-04T08:25:44Z</time>
      </trkpt>
      <trkpt lat="48.65941" lon="-3.39529">
        <ele>97</ele>
        <time>2015-01-04T08:25:45Z</time>
      </trkpt>
      <trkpt lat="48.65934" lon="-3.39526">
        <ele>97</ele>
        <time>2015-01-04T08:25:46Z</time>
      </trkpt>
      <trkpt lat="48.65927" lon="-3.39523">
        <ele>97</ele>
        <time>2015-01-04T08:25:47Z</time>
      </trkpt>
      <trkpt lat="48.6592" lon="-3.3952">
        <ele>97</ele>
        <time>2015-01-04T08:25:48Z</time>
      </trkpt>
      <trkpt lat="48.65913" lon="-3.39517">
        <ele>97</ele>
        <time>2015-01-04T08:25:49Z</time>
      </trkpt>
      <trkpt lat="48.65906" lon="-3.39513">
        <ele>97</ele>
        <time>2015-01-04T08:25:50Z</time>
      </trkpt>
      <trkpt lat="48.65899" lon="-3.39511">
        <ele>97</ele>
        <time>2015-01-04T08:25:51Z</time>
      </trkpt>
      <trkpt lat="48.65892" lon="-3.39508">
        <ele>97</ele>
        <time>2015-01-04T08:25:52Z</time>
      </trkpt>
      <trkpt lat="48.65886" lon="-3.39506">
        <ele>97</ele>
        <time>2015-01-04T08:25:53Z</time>
      </trkpt>
      <trkpt lat="48.65879" lon="-3.39503">
        <ele>97</ele>
        <time>2015-01-04T08:25:54Z</time>
      </trkpt>
      <trkpt lat="48.65872" lon="-3.39501">
        <ele>97</ele>
        <time>2015-01-04T08:25:55Z</time>
      </trkpt>
      <trkpt lat="48.65865" lon="-3.39498">
        <ele>97</ele>
        <time>2015-01-04T08:25:56Z</time>
      </trkpt>
      <trkpt lat="48.65858" lon="-3.39495">
        <ele>97</ele>
        <time>2015-01-04T08:25:57Z</time>
      </trkpt>
      <trkpt lat="48.65851" lon="-3.39493">
        <ele>97</ele>
        <time>2015-01-04T08:25:58Z</time>
      </trkpt>
      <trkpt lat="48.65844" lon="-3.3949">
        <ele>97</ele>
        <time>2015-01-04T08:25:59Z</time>
      </trkpt>
      <trkpt lat="48.65837" lon="-3.39488">
        <ele>97</ele>
        <time>2015-01-04T08:26:00Z</time>
      </trkpt>
      <trkpt lat="48.65829" lon="-3.39486">
        <ele>97</ele>
        <time>2015-01-04T08:26:01Z</time>
      </trkpt>
      <trkpt lat="48.65822" lon="-3.39485">
        <ele>97</ele>
        <time>2015-01-04T08:26:02Z</time>
      </trkpt>
      <trkpt lat="48.65815" lon="-3.39483">
        <ele>97</ele>
        <time>2015-01-04T08:26:03Z</time>
      </trkpt>
      <trkpt lat="48.65808" lon="-3.39482">
        <ele>97</ele>
        <time>2015-01-04T08:26:04Z</time>
      </trkpt>
      <trkpt lat="48.65801" lon="-3.39481">
        <ele>97</ele>
        <time>2015-01-04T08:26:05Z</time>
      </trkpt>
      <trkpt lat="48.65794" lon="-3.3948">
        <ele>97</ele>
        <time>2015-01-04T08:26:06Z</time>
      </trkpt>
      <trkpt lat="48.65787" lon="-3.39479">
        <ele>97</ele>
        <time>2015-01-04T08:26:07Z</time>
      </trkpt>
      <trkpt lat="48.6578" lon="-3.39478">
        <ele>97</ele>
        <time>2015-01-04T08:26:08Z</time>
      </trkpt>
      <trkpt lat="48.65773" lon="-3.39476">
        <ele>97</ele>
        <time>2015-01-04T08:26:09Z</time>
      </trkpt>
      <trkpt lat="48.65766" lon="-3.39476">
        <ele>97</ele>
        <time>2015-01-04T08:26:10Z</time>
      </trkpt>
      <trkpt lat="48.65759" lon="-3.39475">
        <ele>97</ele>
        <time>2015-01-04T08:26:11Z</time>
      </trkpt>
      <trkpt lat="48.65752" lon="-3.39474">
        <ele>97</ele>
        <time>2015-01-04T08:26:12Z</time>
      </trkpt>
      <trkpt lat="48.65744" lon="-3.39474">
        <ele>97</ele>
        <time>2015-01-04T08:26:13Z</time>
      </trkpt>
      <trkpt lat="48.65737" lon="-3.39474">
        <ele>97</ele>
        <time>2015-01-04T08:26:14Z</time>
      </trkpt>
      <trkpt lat="48.6573" lon="-3.39474">
        <ele>97</ele>
        <time>2015-01-04T08:26:15Z</time>
      </trkpt>
      <trkpt lat="48.65723" lon="-3.39475">
        <ele>97</ele>
        <time>2015-01-04T08:26:16Z</time>
      </trkpt>
      <trkpt lat="48.65716" lon="-3.39476">
        <ele>97</ele>
        <time>2015-01-04T08:26:17Z</time>
      </trkpt>
      <trkpt lat="48.65709" lon="-3.39476">
        <ele>98</ele>
        <time>2015-01-04T08:26:18Z</time>
      </trkpt>
      <trkpt lat="48.65702" lon="-3.39477">
        <ele>98</ele>
        <time>2015-01-04T08:26:20Z</time>
      </trkpt>
      <trkpt lat="48.65695" lon="-3.39478">
        <ele>98</ele>
        <time>2015-01-04T08:26:20Z</time>
      </trkpt>
      <trkpt lat="48.65688" lon="-3.39478">
        <ele>98</ele>
        <time>2015-01-04T08:26:21Z</time>
      </trkpt>
      <trkpt lat="48.65681" lon="-3.39478">
        <ele>98</ele>
        <time>2015-01-04T08:26:22Z</time>
      </trkpt>
      <trkpt lat="48.65673" lon="-3.39477">
        <ele>98</ele>
        <time>2015-01-04T08:26:23Z</time>
      </trkpt>
      <trkpt lat="48.65667" lon="-3.39477">
        <ele>98</ele>
        <time>2015-01-04T08:26:24Z</time>
      </trkpt>
      <trkpt lat="48.65652" lon="-3.39477">
        <ele>98</ele>
        <time>2015-01-04T08:26:26Z</time>
      </trkpt>
      <trkpt lat="48.65645" lon="-3.39477">
        <ele>98</ele>
        <time>2015-01-04T08:26:27Z</time>
      </trkpt>
      <trkpt lat="48.65638" lon="-3.39477">
        <ele>98</ele>
        <time>2015-01-04T08:26:28Z</time>
      </trkpt>
      <trkpt lat="48.65631" lon="-3.39476">
        <ele>98</ele>
        <time>2015-01-04T08:26:29Z</time>
      </trkpt>
      <trkpt lat="48.65624" lon="-3.39475">
        <ele>98</ele>
        <time>2015-01-04T08:26:30Z</time>
      </trkpt>
      <trkpt lat="48.65617" lon="-3.39474">
        <ele>98</ele>
        <time>2015-01-04T08:26:31Z</time>
      </trkpt>
      <trkpt lat="48.65611" lon="-3.39472">
        <ele>98</ele>
        <time>2015-01-04T08:26:32Z</time>
      </trkpt>
      <trkpt lat="48.65604" lon="-3.39471">
        <ele>98</ele>
        <time>2015-01-04T08:26:33Z</time>
      </trkpt>
      <trkpt lat="48.65597" lon="-3.39469">
        <ele>98</ele>
        <time>2015-01-04T08:26:34Z</time>
      </trkpt>
      <trkpt lat="48.6559" lon="-3.39467">
        <ele>98</ele>
        <time>2015-01-04T08:26:35Z</time>
      </trkpt>
      <trkpt lat="48.65583" lon="-3.39466">
        <ele>98</ele>
        <time>2015-01-04T08:26:36Z</time>
      </trkpt>
      <trkpt lat="48.65576" lon="-3.39465">
        <ele>98</ele>
        <time>2015-01-04T08:26:37Z</time>
      </trkpt>
      <trkpt lat="48.65569" lon="-3.39464">
        <ele>98</ele>
        <time>2015-01-04T08:26:38Z</time>
      </trkpt>
      <trkpt lat="48.65554" lon="-3.39465">
        <ele>98</ele>
        <time>2015-01-04T08:26:40Z</time>
      </trkpt>
      <trkpt lat="48.65547" lon="-3.39466">
        <ele>98</ele>
        <time>2015-01-04T08:26:41Z</time>
      </trkpt>
      <trkpt lat="48.6554" lon="-3.39467">
        <ele>98</ele>
        <time>2015-01-04T08:26:42Z</time>
      </trkpt>
      <trkpt lat="48.65533" lon="-3.3947">
        <ele>98</ele>
        <time>2015-01-04T08:26:43Z</time>
      </trkpt>
      <trkpt lat="48.65526" lon="-3.39472">
        <ele>98</ele>
        <time>2015-01-04T08:26:44Z</time>
      </trkpt>
      <trkpt lat="48.65519" lon="-3.39476">
        <ele>98</ele>
        <time>2015-01-04T08:26:45Z</time>
      </trkpt>
      <trkpt lat="48.65513" lon="-3.39479">
        <ele>98</ele>
        <time>2015-01-04T08:26:46Z</time>
      </trkpt>
      <trkpt lat="48.65506" lon="-3.39484">
        <ele>98</ele>
        <time>2015-01-04T08:26:47Z</time>
      </trkpt>
      <trkpt lat="48.655" lon="-3.39487">
        <ele>98</ele>
        <time>2015-01-04T08:26:48Z</time>
      </trkpt>
      <trkpt lat="48.65493" lon="-3.3949">
        <ele>98</ele>
        <time>2015-01-04T08:26:49Z</time>
      </trkpt>
      <trkpt lat="48.65487" lon="-3.39493">
        <ele>98</ele>
        <time>2015-01-04T08:26:50Z</time>
      </trkpt>
      <trkpt lat="48.6548" lon="-3.39494">
        <ele>98</ele>
        <time>2015-01-04T08:26:51Z</time>
      </trkpt>
      <trkpt lat="48.65473" lon="-3.39496">
        <ele>98</ele>
        <time>2015-01-04T08:26:52Z</time>
      </trkpt>
      <trkpt lat="48.65466" lon="-3.39497">
        <ele>98</ele>
        <time>2015-01-04T08:26:53Z</time>
      </trkpt>
      <trkpt lat="48.65459" lon="-3.39498">
        <ele>98</ele>
        <time>2015-01-04T08:26:54Z</time>
      </trkpt>
      <trkpt lat="48.65453" lon="-3.39499">
        <ele>98</ele>
        <time>2015-01-04T08:26:55Z</time>
      </trkpt>
      <trkpt lat="48.65446" lon="-3.39499">
        <ele>98</ele>
        <time>2015-01-04T08:26:56Z</time>
      </trkpt>
      <trkpt lat="48.65439" lon="-3.39499">
        <ele>98</ele>
        <time>2015-01-04T08:26:57Z</time>
      </trkpt>
      <trkpt lat="48.65432" lon="-3.39498">
        <ele>98</ele>
        <time>2015-01-04T08:26:58Z</time>
      </trkpt>
      <trkpt lat="48.65425" lon="-3.39496">
        <ele>98</ele>
        <time>2015-01-04T08:26:59Z</time>
      </trkpt>
      <trkpt lat="48.65418" lon="-3.39495">
        <ele>98</ele>
        <time>2015-01-04T08:27:00Z</time>
      </trkpt>
      <trkpt lat="48.65412" lon="-3.39494">
        <ele>98</ele>
        <time>2015-01-04T08:27:01Z</time>
      </trkpt>
      <trkpt lat="48.65405" lon="-3.39492">
        <ele>98</ele>
        <time>2015-01-04T08:27:02Z</time>
      </trkpt>
      <trkpt lat="48.65398" lon="-3.39491">
        <ele>98</ele>
        <time>2015-01-04T08:27:03Z</time>
      </trkpt>
      <trkpt lat="48.65392" lon="-3.39489">
        <ele>98</ele>
        <time>2015-01-04T08:27:04Z</time>
      </trkpt>
      <trkpt lat="48.65385" lon="-3.39487">
        <ele>98</ele>
        <time>2015-01-04T08:27:05Z</time>
      </trkpt>
      <trkpt lat="48.65379" lon="-3.39486">
        <ele>98</ele>
        <time>2015-01-04T08:27:06Z</time>
      </trkpt>
      <trkpt lat="48.65372" lon="-3.39484">
        <ele>98</ele>
        <time>2015-01-04T08:27:07Z</time>
      </trkpt>
      <trkpt lat="48.65366" lon="-3.39483">
        <ele>98</ele>
        <time>2015-01-04T08:27:08Z</time>
      </trkpt>
      <trkpt lat="48.65359" lon="-3.39482">
        <ele>98</ele>
        <time>2015-01-04T08:27:09Z</time>
      </trkpt>
      <trkpt lat="48.65353" lon="-3.3948">
        <ele>98</ele>
        <time>2015-01-04T08:27:10Z</time>
      </trkpt>
      <trkpt lat="48.65346" lon="-3.39479">
        <ele>98</ele>
        <time>2015-01-04T08:27:11Z</time>
      </trkpt>
      <trkpt lat="48.6534" lon="-3.39477">
        <ele>98</ele>
        <time>2015-01-04T08:27:12Z</time>
      </trkpt>
      <trkpt lat="48.65334" lon="-3.39476">
        <ele>98</ele>
        <time>2015-01-04T08:27:13Z</time>
      </trkpt>
      <trkpt lat="48.65327" lon="-3.39474">
        <ele>98</ele>
        <time>2015-01-04T08:27:14Z</time>
      </trkpt>
      <trkpt lat="48.65321" lon="-3.39473">
        <ele>98</ele>
        <time>2015-01-04T08:27:15Z</time>
      </trkpt>
      <trkpt lat="48.65315" lon="-3.39472">
        <ele>98</ele>
        <time>2015-01-04T08:27:16Z</time>
      </trkpt>
      <trkpt lat="48.65308" lon="-3.3947">
        <ele>98</ele>
        <time>2015-01-04T08:27:17Z</time>
      </trkpt>
      <trkpt lat="48.65302" lon="-3.39469">
        <ele>98</ele>
        <time>2015-01-04T08:27:18Z</time>
      </trkpt>
      <trkpt lat="48.65295" lon="-3.39467">
        <ele>98</ele>
        <time>2015-01-04T08:27:19Z</time>
      </trkpt>
      <trkpt lat="48.65288" lon="-3.39466">
        <ele>98</ele>
        <time>2015-01-04T08:27:20Z</time>
      </trkpt>
      <trkpt lat="48.65281" lon="-3.39464">
        <ele>98</ele>
        <time>2015-01-04T08:27:21Z</time>
      </trkpt>
      <trkpt lat="48.65274" lon="-3.39462">
        <ele>98</ele>
        <time>2015-01-04T08:27:22Z</time>
      </trkpt>
      <trkpt lat="48.65268" lon="-3.39461">
        <ele>98</ele>
        <time>2015-01-04T08:27:23Z</time>
      </trkpt>
      <trkpt lat="48.6526" lon="-3.3946">
        <ele>98</ele>
        <time>2015-01-04T08:27:24Z</time>
      </trkpt>
      <trkpt lat="48.65253" lon="-3.39458">
        <ele>98</ele>
        <time>2015-01-04T08:27:25Z</time>
      </trkpt>
      <trkpt lat="48.65247" lon="-3.39457">
        <ele>98</ele>
        <time>2015-01-04T08:27:26Z</time>
      </trkpt>
      <trkpt lat="48.6524" lon="-3.39455">
        <ele>98</ele>
        <time>2015-01-04T08:27:27Z</time>
      </trkpt>
      <trkpt lat="48.65233" lon="-3.39453">
        <ele>98</ele>
        <time>2015-01-04T08:27:28Z</time>
      </trkpt>
      <trkpt lat="48.65226" lon="-3.39452">
        <ele>98</ele>
        <time>2015-01-04T08:27:29Z</time>
      </trkpt>
      <trkpt lat="48.6522" lon="-3.3945">
        <ele>98</ele>
        <time>2015-01-04T08:27:30Z</time>
      </trkpt>
      <trkpt lat="48.65213" lon="-3.39449">
        <ele>98</ele>
        <time>2015-01-04T08:27:31Z</time>
      </trkpt>
      <trkpt lat="48.65206" lon="-3.39447">
        <ele>98</ele>
        <time>2015-01-04T08:27:32Z</time>
      </trkpt>
      <trkpt lat="48.652" lon="-3.39446">
        <ele>98</ele>
        <time>2015-01-04T08:27:33Z</time>
      </trkpt>
      <trkpt lat="48.65193" lon="-3.39444">
        <ele>98</ele>
        <time>2015-01-04T08:27:34Z</time>
      </trkpt>
      <trkpt lat="48.65186" lon="-3.39443">
        <ele>98</ele>
        <time>2015-01-04T08:27:35Z</time>
      </trkpt>
      <trkpt lat="48.65179" lon="-3.39441">
        <ele>98</ele>
        <time>2015-01-04T08:27:36Z</time>
      </trkpt>
      <trkpt lat="48.65173" lon="-3.39439">
        <ele>98</ele>
        <time>2015-01-04T08:27:37Z</time>
      </trkpt>
      <trkpt lat="48.65166" lon="-3.39437">
        <ele>98</ele>
        <time>2015-01-04T08:27:38Z</time>
      </trkpt>
      <trkpt lat="48.65159" lon="-3.39436">
        <ele>98</ele>
        <time>2015-01-04T08:27:39Z</time>
      </trkpt>
      <trkpt lat="48.65152" lon="-3.39434">
        <ele>98</ele>
        <time>2015-01-04T08:27:40Z</time>
      </trkpt>
      <trkpt lat="48.65145" lon="-3.39432">
        <ele>98</ele>
        <time>2015-01-04T08:27:41Z</time>
      </trkpt>
      <trkpt lat="48.65139" lon="-3.3943">
        <ele>98</ele>
        <time>2015-01-04T08:27:42Z</time>
      </trkpt>
      <trkpt lat="48.65132" lon="-3.39428">
        <ele>98</ele>
        <time>2015-01-04T08:27:43Z</time>
      </trkpt>
      <trkpt lat="48.65126" lon="-3.39426">
        <ele>98</ele>
        <time>2015-01-04T08:27:44Z</time>
      </trkpt>
      <trkpt lat="48.65119" lon="-3.39424">
        <ele>98</ele>
        <time>2015-01-04T08:27:45Z</time>
      </trkpt>
      <trkpt lat="48.65113" lon="-3.39423">
        <ele>98</ele>
        <time>2015-01-04T08:27:46Z</time>
      </trkpt>
      <trkpt lat="48.65106" lon="-3.39421">
        <ele>98</ele>
        <time>2015-01-04T08:27:47Z</time>
      </trkpt>
      <trkpt lat="48.651" lon="-3.39419">
        <ele>98</ele>
        <time>2015-01-04T08:27:48Z</time>
      </trkpt>
      <trkpt lat="48.65094" lon="-3.39417">
        <ele>98</ele>
        <time>2015-01-04T08:27:49Z</time>
      </trkpt>
      <trkpt lat="48.65087" lon="-3.39416">
        <ele>98</ele>
        <time>2015-01-04T08:27:50Z</time>
      </trkpt>
      <trkpt lat="48.65081" lon="-3.39414">
        <ele>98</ele>
        <time>2015-01-04T08:27:51Z</time>
      </trkpt>
      <trkpt lat="48.65075" lon="-3.39412">
        <ele>98</ele>
        <time>2015-01-04T08:27:52Z</time>
      </trkpt>
      <trkpt lat="48.65068" lon="-3.39411">
        <ele>98</ele>
        <time>2015-01-04T08:27:53Z</time>
      </trkpt>
      <trkpt lat="48.65062" lon="-3.39409">
        <ele>98</ele>
        <time>2015-01-04T08:27:54Z</time>
      </trkpt>
      <trkpt lat="48.65056" lon="-3.39407">
        <ele>98</ele>
        <time>2015-01-04T08:27:55Z</time>
      </trkpt>
      <trkpt lat="48.6505" lon="-3.39406">
        <ele>98</ele>
        <time>2015-01-04T08:27:56Z</time>
      </trkpt>
      <trkpt lat="48.65044" lon="-3.39404">
        <ele>98</ele>
        <time>2015-01-04T08:27:57Z</time>
      </trkpt>
      <trkpt lat="48.65039" lon="-3.39403">
        <ele>98</ele>
        <time>2015-01-04T08:27:58Z</time>
      </trkpt>
      <trkpt lat="48.65033" lon="-3.39403">
        <ele>98</ele>
        <time>2015-01-04T08:27:59Z</time>
      </trkpt>
      <trkpt lat="48.65028" lon="-3.39403">
        <ele>98</ele>
        <time>2015-01-04T08:28:00Z</time>
      </trkpt>
      <trkpt lat="48.65023" lon="-3.39403">
        <ele>98</ele>
        <time>2015-01-04T08:28:01Z</time>
      </trkpt>
      <trkpt lat="48.65018" lon="-3.39403">
        <ele>98</ele>
        <time>2015-01-04T08:28:02Z</time>
      </trkpt>
      <trkpt lat="48.65013" lon="-3.39403">
        <ele>98</ele>
        <time>2015-01-04T08:28:03Z</time>
      </trkpt>
      <trkpt lat="48.65009" lon="-3.39404">
        <ele>98</ele>
        <time>2015-01-04T08:28:04Z</time>
      </trkpt>
      <trkpt lat="48.65005" lon="-3.39404">
        <ele>98</ele>
        <time>2015-01-04T08:28:05Z</time>
      </trkpt>
      <trkpt lat="48.65002" lon="-3.39404">
        <ele>98</ele>
        <time>2015-01-04T08:28:06Z</time>
      </trkpt>
      <trkpt lat="48.64999" lon="-3.39403">
        <ele>98</ele>
        <time>2015-01-04T08:28:07Z</time>
      </trkpt>
      <trkpt lat="48.64996" lon="-3.39401">
        <ele>98</ele>
        <time>2015-01-04T08:28:08Z</time>
      </trkpt>
      <trkpt lat="48.64994" lon="-3.39399">
        <ele>98</ele>
        <time>2015-01-04T08:28:09Z</time>
      </trkpt>
      <trkpt lat="48.64992" lon="-3.39394">
        <ele>98</ele>
        <time>2015-01-04T08:28:10Z</time>
      </trkpt>
      <trkpt lat="48.64992" lon="-3.39388">
        <ele>99</ele>
        <time>2015-01-04T08:28:11Z</time>
      </trkpt>
      <trkpt lat="48.64993" lon="-3.39374">
        <ele>99</ele>
        <time>2015-01-04T08:28:13Z</time>
      </trkpt>
      <trkpt lat="48.64994" lon="-3.39366">
        <ele>99</ele>
        <time>2015-01-04T08:28:14Z</time>
      </trkpt>
      <trkpt lat="48.64996" lon="-3.39357">
        <ele>99</ele>
        <time>2015-01-04T08:28:15Z</time>
      </trkpt>
      <trkpt lat="48.64997" lon="-3.39348">
        <ele>99</ele>
        <time>2015-01-04T08:28:16Z</time>
      </trkpt>
      <trkpt lat="48.64999" lon="-3.39338">
        <ele>99</ele>
        <time>2015-01-04T08:28:17Z</time>
      </trkpt>
      <trkpt lat="48.65" lon="-3.39329">
        <ele>99</ele>
        <time>2015-01-04T08:28:18Z</time>
      </trkpt>
      <trkpt lat="48.65001" lon="-3.39318">
        <ele>99</ele>
        <time>2015-01-04T08:28:19Z</time>
      </trkpt>
      <trkpt lat="48.65002" lon="-3.39309">
        <ele>99</ele>
        <time>2015-01-04T08:28:20Z</time>
      </trkpt>
      <trkpt lat="48.65004" lon="-3.39299">
        <ele>99</ele>
        <time>2015-01-04T08:28:21Z</time>
      </trkpt>
      <trkpt lat="48.65005" lon="-3.39289">
        <ele>99</ele>
        <time>2015-01-04T08:28:22Z</time>
      </trkpt>
      <trkpt lat="48.65006" lon="-3.3928">
        <ele>99</ele>
        <time>2015-01-04T08:28:23Z</time>
      </trkpt>
      <trkpt lat="48.65007" lon="-3.39271">
        <ele>99</ele>
        <time>2015-01-04T08:28:24Z</time>
      </trkpt>
      <trkpt lat="48.65008" lon="-3.39262">
        <ele>99</ele>
        <time>2015-01-04T08:28:25Z</time>
      </trkpt>
      <trkpt lat="48.65009" lon="-3.39253">
        <ele>99</ele>
        <time>2015-01-04T08:28:26Z</time>
      </trkpt>
      <trkpt lat="48.6501" lon="-3.39244">
        <ele>99</ele>
        <time>2015-01-04T08:28:27Z</time>
      </trkpt>
      <trkpt lat="48.65011" lon="-3.39236">
        <ele>99</ele>
        <time>2015-01-04T08:28:28Z</time>
      </trkpt>
      <trkpt lat="48.65012" lon="-3.39227">
        <ele>99</ele>
        <time>2015-01-04T08:28:29Z</time>
      </trkpt>
      <trkpt lat="48.65014" lon="-3.39219">
        <ele>99</ele>
        <time>2015-01-04T08:28:30Z</time>
      </trkpt>
      <trkpt lat="48.65015" lon="-3.3921">
        <ele>99</ele>
        <time>2015-01-04T08:28:31Z</time>
      </trkpt>
      <trkpt lat="48.65016" lon="-3.39202">
        <ele>99</ele>
        <time>2015-01-04T08:28:32Z</time>
      </trkpt>
      <trkpt lat="48.65017" lon="-3.39193">
        <ele>99</ele>
        <time>2015-01-04T08:28:33Z</time>
      </trkpt>
      <trkpt lat="48.65018" lon="-3.39184">
        <ele>99</ele>
        <time>2015-01-04T08:28:34Z</time>
      </trkpt>
      <trkpt lat="48.65019" lon="-3.39175">
        <ele>99</ele>
        <time>2015-01-04T08:28:35Z</time>
      </trkpt>
      <trkpt lat="48.65021" lon="-3.39166">
        <ele>99</ele>
        <time>2015-01-04T08:28:36Z</time>
      </trkpt>
      <trkpt lat="48.65022" lon="-3.39156">
        <ele>99</ele>
        <time>2015-01-04T08:28:37Z</time>
      </trkpt>
      <trkpt lat="48.65024" lon="-3.39146">
        <ele>99</ele>
        <time>2015-01-04T08:28:38Z</time>
      </trkpt>
      <trkpt lat="48.65026" lon="-3.39136">
        <ele>99</ele>
        <time>2015-01-04T08:28:39Z</time>
      </trkpt>
      <trkpt lat="48.65027" lon="-3.39126">
        <ele>99</ele>
        <time>2015-01-04T08:28:40Z</time>
      </trkpt>
      <trkpt lat="48.65029" lon="-3.39116">
        <ele>99</ele>
        <time>2015-01-04T08:28:41Z</time>
      </trkpt>
      <trkpt lat="48.6503" lon="-3.39106">
        <ele>99</ele>
        <time>2015-01-04T08:28:42Z</time>
      </trkpt>
      <trkpt lat="48.65031" lon="-3.39096">
        <ele>99</ele>
        <time>2015-01-04T08:28:43Z</time>
      </trkpt>
      <trkpt lat="48.65032" lon="-3.39086">
        <ele>99</ele>
        <time>2015-01-04T08:28:44Z</time>
      </trkpt>
      <trkpt lat="48.65033" lon="-3.39076">
        <ele>99</ele>
        <time>2015-01-04T08:28:45Z</time>
      </trkpt>
      <trkpt lat="48.65034" lon="-3.39066">
        <ele>99</ele>
        <time>2015-01-04T08:28:46Z</time>
      </trkpt>
      <trkpt lat="48.65034" lon="-3.39056">
        <ele>99</ele>
        <time>2015-01-04T08:28:47Z</time>
      </trkpt>
      <trkpt lat="48.65034" lon="-3.39035">
        <ele>99</ele>
        <time>2015-01-04T08:28:49Z</time>
      </trkpt>
      <trkpt lat="48.65033" lon="-3.39025">
        <ele>99</ele>
        <time>2015-01-04T08:28:50Z</time>
      </trkpt>
      <trkpt lat="48.65033" lon="-3.39014">
        <ele>99</ele>
        <time>2015-01-04T08:28:51Z</time>
      </trkpt>
      <trkpt lat="48.65031" lon="-3.39003">
        <ele>99</ele>
        <time>2015-01-04T08:28:52Z</time>
      </trkpt>
      <trkpt lat="48.6503" lon="-3.38993">
        <ele>99</ele>
        <time>2015-01-04T08:28:53Z</time>
      </trkpt>
      <trkpt lat="48.65028" lon="-3.38983">
        <ele>99</ele>
        <time>2015-01-04T08:28:54Z</time>
      </trkpt>
      <trkpt lat="48.65027" lon="-3.38973">
        <ele>99</ele>
        <time>2015-01-04T08:28:55Z</time>
      </trkpt>
      <trkpt lat="48.65025" lon="-3.38964">
        <ele>99</ele>
        <time>2015-01-04T08:28:56Z</time>
      </trkpt>
      <trkpt lat="48.65023" lon="-3.38954">
        <ele>99</ele>
        <time>2015-01-04T08:28:57Z</time>
      </trkpt>
      <trkpt lat="48.6502" lon="-3.38945">
        <ele>99</ele>
        <time>2015-01-04T08:28:58Z</time>
      </trkpt>
      <trkpt lat="48.65016" lon="-3.38936">
        <ele>99</ele>
        <time>2015-01-04T08:28:59Z</time>
      </trkpt>
      <trkpt lat="48.65012" lon="-3.38928">
        <ele>99</ele>
        <time>2015-01-04T08:29:00Z</time>
      </trkpt>
      <trkpt lat="48.65007" lon="-3.38921">
        <ele>99</ele>
        <time>2015-01-04T08:29:01Z</time>
      </trkpt>
      <trkpt lat="48.65002" lon="-3.38914">
        <ele>99</ele>
        <time>2015-01-04T08:29:02Z</time>
      </trkpt>
      <trkpt lat="48.64996" lon="-3.38908">
        <ele>99</ele>
        <time>2015-01-04T08:29:03Z</time>
      </trkpt>
      <trkpt lat="48.6499" lon="-3.38903">
        <ele>99</ele>
        <time>2015-01-04T08:29:04Z</time>
      </trkpt>
      <trkpt lat="48.64984" lon="-3.38898">
        <ele>99</ele>
        <time>2015-01-04T08:29:05Z</time>
      </trkpt>
      <trkpt lat="48.64978" lon="-3.38894">
        <ele>99</ele>
        <time>2015-01-04T08:29:06Z</time>
      </trkpt>
      <trkpt lat="48.64972" lon="-3.38889">
        <ele>99</ele>
        <time>2015-01-04T08:29:07Z</time>
      </trkpt>
      <trkpt lat="48.64965" lon="-3.38884">
        <ele>99</ele>
        <time>2015-01-04T08:29:08Z</time>
      </trkpt>
      <trkpt lat="48.64959" lon="-3.3888">
        <ele>99</ele>
        <time>2015-01-04T08:29:09Z</time>
      </trkpt>
      <trkpt lat="48.64953" lon="-3.38875">
        <ele>99</ele>
        <time>2015-01-04T08:29:10Z</time>
      </trkpt>
      <trkpt lat="48.64947" lon="-3.3887">
        <ele>99</ele>
        <time>2015-01-04T08:29:11Z</time>
      </trkpt>
      <trkpt lat="48.64941" lon="-3.38866">
        <ele>99</ele>
        <time>2015-01-04T08:29:12Z</time>
      </trkpt>
      <trkpt lat="48.64935" lon="-3.38861">
        <ele>99</ele>
        <time>2015-01-04T08:29:13Z</time>
      </trkpt>
      <trkpt lat="48.64928" lon="-3.38856">
        <ele>99</ele>
        <time>2015-01-04T08:29:14Z</time>
      </trkpt>
      <trkpt lat="48.64922" lon="-3.38852">
        <ele>99</ele>
        <time>2015-01-04T08:29:15Z</time>
      </trkpt>
      <trkpt lat="48.64916" lon="-3.38847">
        <ele>99</ele>
        <time>2015-01-04T08:29:16Z</time>
      </trkpt>
      <trkpt lat="48.6491" lon="-3.38842">
        <ele>99</ele>
        <time>2015-01-04T08:29:17Z</time>
      </trkpt>
      <trkpt lat="48.64904" lon="-3.38837">
        <ele>99</ele>
        <time>2015-01-04T08:29:18Z</time>
      </trkpt>
      <trkpt lat="48.64898" lon="-3.38833">
        <ele>99</ele>
        <time>2015-01-04T08:29:19Z</time>
      </trkpt>
      <trkpt lat="48.64891" lon="-3.38828">
        <ele>99</ele>
        <time>2015-01-04T08:29:20Z</time>
      </trkpt>
      <trkpt lat="48.64885" lon="-3.38824">
        <ele>99</ele>
        <time>2015-01-04T08:29:21Z</time>
      </trkpt>
      <trkpt lat="48.64879" lon="-3.38819">
        <ele>99</ele>
        <time>2015-01-04T08:29:22Z</time>
      </trkpt>
      <trkpt lat="48.64873" lon="-3.38815">
        <ele>99</ele>
        <time>2015-01-04T08:29:23Z</time>
      </trkpt>
      <trkpt lat="48.64866" lon="-3.3881">
        <ele>99</ele>
        <time>2015-01-04T08:29:24Z</time>
      </trkpt>
      <trkpt lat="48.6486" lon="-3.38806">
        <ele>99</ele>
        <time>2015-01-04T08:29:25Z</time>
      </trkpt>
      <trkpt lat="48.64854" lon="-3.38801">
        <ele>99</ele>
        <time>2015-01-04T08:29:26Z</time>
      </trkpt>
      <trkpt lat="48.64849" lon="-3.38796">
        <ele>99</ele>
        <time>2015-01-04T08:29:27Z</time>
      </trkpt>
      <trkpt lat="48.64843" lon="-3.3879">
        <ele>99</ele>
        <time>2015-01-04T08:29:28Z</time>
      </trkpt>
      <trkpt lat="48.64838" lon="-3.38784">
        <ele>99</ele>
        <time>2015-01-04T08:29:29Z</time>
      </trkpt>
      <trkpt lat="48.64834" lon="-3.38776">
        <ele>99</ele>
        <time>2015-01-04T08:29:30Z</time>
      </trkpt>
      <trkpt lat="48.64829" lon="-3.38769">
        <ele>99</ele>
        <time>2015-01-04T08:29:31Z</time>
      </trkpt>
      <trkpt lat="48.64824" lon="-3.38762">
        <ele>99</ele>
        <time>2015-01-04T08:29:32Z</time>
      </trkpt>
      <trkpt lat="48.6482" lon="-3.38754">
        <ele>99</ele>
        <time>2015-01-04T08:29:33Z</time>
      </trkpt>
      <trkpt lat="48.64815" lon="-3.38746">
        <ele>99</ele>
        <time>2015-01-04T08:29:34Z</time>
      </trkpt>
      <trkpt lat="48.64811" lon="-3.38738">
        <ele>99</ele>
        <time>2015-01-04T08:29:35Z</time>
      </trkpt>
      <trkpt lat="48.64806" lon="-3.3873">
        <ele>99</ele>
        <time>2015-01-04T08:29:36Z</time>
      </trkpt>
      <trkpt lat="48.64801" lon="-3.38721">
        <ele>99</ele>
        <time>2015-01-04T08:29:37Z</time>
      </trkpt>
      <trkpt lat="48.64796" lon="-3.38713">
        <ele>99</ele>
        <time>2015-01-04T08:29:38Z</time>
      </trkpt>
      <trkpt lat="48.64792" lon="-3.38705">
        <ele>99</ele>
        <time>2015-01-04T08:29:39Z</time>
      </trkpt>
      <trkpt lat="48.64787" lon="-3.38697">
        <ele>99</ele>
        <time>2015-01-04T08:29:40Z</time>
      </trkpt>
      <trkpt lat="48.64782" lon="-3.38688">
        <ele>99</ele>
        <time>2015-01-04T08:29:41Z</time>
      </trkpt>
      <trkpt lat="48.64777" lon="-3.3868">
        <ele>99</ele>
        <time>2015-01-04T08:29:42Z</time>
      </trkpt>
      <trkpt lat="48.64773" lon="-3.38672">
        <ele>99</ele>
        <time>2015-01-04T08:29:43Z</time>
      </trkpt>
      <trkpt lat="48.64768" lon="-3.38664">
        <ele>99</ele>
        <time>2015-01-04T08:29:44Z</time>
      </trkpt>
      <trkpt lat="48.64763" lon="-3.38656">
        <ele>99</ele>
        <time>2015-01-04T08:29:45Z</time>
      </trkpt>
      <trkpt lat="48.64759" lon="-3.38647">
        <ele>99</ele>
        <time>2015-01-04T08:29:46Z</time>
      </trkpt>
      <trkpt lat="48.64754" lon="-3.38638">
        <ele>99</ele>
        <time>2015-01-04T08:29:47Z</time>
      </trkpt>
      <trkpt lat="48.6475" lon="-3.38629">
        <ele>99</ele>
        <time>2015-01-04T08:29:48Z</time>
      </trkpt>
      <trkpt lat="48.64746" lon="-3.3862">
        <ele>99</ele>
        <time>2015-01-04T08:29:49Z</time>
      </trkpt>
      <trkpt lat="48.64742" lon="-3.38611">
        <ele>99</ele>
        <time>2015-01-04T08:29:50Z</time>
      </trkpt>
      <trkpt lat="48.64738" lon="-3.38601">
        <ele>99</ele>
        <time>2015-01-04T08:29:51Z</time>
      </trkpt>
      <trkpt lat="48.64735" lon="-3.38592">
        <ele>99</ele>
        <time>2015-01-04T08:29:52Z</time>
      </trkpt>
      <trkpt lat="48.64732" lon="-3.38581">
        <ele>99</ele>
        <time>2015-01-04T08:29:53Z</time>
      </trkpt>
      <trkpt lat="48.64728" lon="-3.38571">
        <ele>99</ele>
        <time>2015-01-04T08:29:54Z</time>
      </trkpt>
      <trkpt lat="48.64724" lon="-3.38561">
        <ele>99</ele>
        <time>2015-01-04T08:29:55Z</time>
      </trkpt>
      <trkpt lat="48.6472" lon="-3.38551">
        <ele>99</ele>
        <time>2015-01-04T08:29:56Z</time>
      </trkpt>
      <trkpt lat="48.64716" lon="-3.38541">
        <ele>99</ele>
        <time>2015-01-04T08:29:57Z</time>
      </trkpt>
      <trkpt lat="48.64711" lon="-3.38532">
        <ele>99</ele>
        <time>2015-01-04T08:29:58Z</time>
      </trkpt>
      <trkpt lat="48.64707" lon="-3.38522">
        <ele>99</ele>
        <time>2015-01-04T08:29:59Z</time>
      </trkpt>
      <trkpt lat="48.64703" lon="-3.38512">
        <ele>99</ele>
        <time>2015-01-04T08:30:00Z</time>
      </trkpt>
      <trkpt lat="48.64698" lon="-3.38502">
        <ele>99</ele>
        <time>2015-01-04T08:30:01Z</time>
      </trkpt>
      <trkpt lat="48.64694" lon="-3.38492">
        <ele>99</ele>
        <time>2015-01-04T08:30:02Z</time>
      </trkpt>
      <trkpt lat="48.6469" lon="-3.38482">
        <ele>99</ele>
        <time>2015-01-04T08:30:03Z</time>
      </trkpt>
      <trkpt lat="48.64685" lon="-3.38472">
        <ele>99</ele>
        <time>2015-01-04T08:30:04Z</time>
      </trkpt>
      <trkpt lat="48.6468" lon="-3.38462">
        <ele>99</ele>
        <time>2015-01-04T08:30:05Z</time>
      </trkpt>
      <trkpt lat="48.64676" lon="-3.38451">
        <ele>99</ele>
        <time>2015-01-04T08:30:06Z</time>
      </trkpt>
      <trkpt lat="48.64671" lon="-3.38441">
        <ele>99</ele>
        <time>2015-01-04T08:30:07Z</time>
      </trkpt>
      <trkpt lat="48.64666" lon="-3.38431">
        <ele>99</ele>
        <time>2015-01-04T08:30:08Z</time>
      </trkpt>
      <trkpt lat="48.6466" lon="-3.38421">
        <ele>99</ele>
        <time>2015-01-04T08:30:09Z</time>
      </trkpt>
      <trkpt lat="48.64654" lon="-3.38411">
        <ele>99</ele>
        <time>2015-01-04T08:30:10Z</time>
      </trkpt>
      <trkpt lat="48.64648" lon="-3.38403">
        <ele>99</ele>
        <time>2015-01-04T08:30:11Z</time>
      </trkpt>
      <trkpt lat="48.64641" lon="-3.38395">
        <ele>99</ele>
        <time>2015-01-04T08:30:12Z</time>
      </trkpt>
      <trkpt lat="48.64634" lon="-3.38387">
        <ele>99</ele>
        <time>2015-01-04T08:30:13Z</time>
      </trkpt>
      <trkpt lat="48.64627" lon="-3.38381">
        <ele>99</ele>
        <time>2015-01-04T08:30:14Z</time>
      </trkpt>
      <trkpt lat="48.6462" lon="-3.38375">
        <ele>99</ele>
        <time>2015-01-04T08:30:15Z</time>
      </trkpt>
      <trkpt lat="48.64612" lon="-3.38368">
        <ele>99</ele>
        <time>2015-01-04T08:30:16Z</time>
      </trkpt>
      <trkpt lat="48.64605" lon="-3.38361">
        <ele>99</ele>
        <time>2015-01-04T08:30:17Z</time>
      </trkpt>
      <trkpt lat="48.64599" lon="-3.38354">
        <ele>99</ele>
        <time>2015-01-04T08:30:18Z</time>
      </trkpt>
      <trkpt lat="48.64593" lon="-3.38345">
        <ele>99</ele>
        <time>2015-01-04T08:30:19Z</time>
      </trkpt>
      <trkpt lat="48.64588" lon="-3.38336">
        <ele>99</ele>
        <time>2015-01-04T08:30:20Z</time>
      </trkpt>
      <trkpt lat="48.64583" lon="-3.38326">
        <ele>99</ele>
        <time>2015-01-04T08:30:21Z</time>
      </trkpt>
      <trkpt lat="48.64579" lon="-3.38316">
        <ele>99</ele>
        <time>2015-01-04T08:30:22Z</time>
      </trkpt>
      <trkpt lat="48.64575" lon="-3.38305">
        <ele>99</ele>
        <time>2015-01-04T08:30:23Z</time>
      </trkpt>
      <trkpt lat="48.64572" lon="-3.38295">
        <ele>99</ele>
        <time>2015-01-04T08:30:24Z</time>
      </trkpt>
      <trkpt lat="48.64569" lon="-3.38283">
        <ele>99</ele>
        <time>2015-01-04T08:30:25Z</time>
      </trkpt>
      <trkpt lat="48.64566" lon="-3.38273">
        <ele>99</ele>
        <time>2015-01-04T08:30:26Z</time>
      </trkpt>
      <trkpt lat="48.64564" lon="-3.38261">
        <ele>99</ele>
        <time>2015-01-04T08:30:27Z</time>
      </trkpt>
      <trkpt lat="48.64562" lon="-3.3825">
        <ele>99</ele>
        <time>2015-01-04T08:30:28Z</time>
      </trkpt>
      <trkpt lat="48.6456" lon="-3.38238">
        <ele>99</ele>
        <time>2015-01-04T08:30:29Z</time>
      </trkpt>
      <trkpt lat="48.64559" lon="-3.38227">
        <ele>99</ele>
        <time>2015-01-04T08:30:30Z</time>
      </trkpt>
      <trkpt lat="48.64558" lon="-3.38215">
        <ele>99</ele>
        <time>2015-01-04T08:30:31Z</time>
      </trkpt>
      <trkpt lat="48.64556" lon="-3.38203">
        <ele>99</ele>
        <time>2015-01-04T08:30:32Z</time>
      </trkpt>
      <trkpt lat="48.64554" lon="-3.38191">
        <ele>99</ele>
        <time>2015-01-04T08:30:33Z</time>
      </trkpt>
      <trkpt lat="48.64552" lon="-3.38178">
        <ele>99</ele>
        <time>2015-01-04T08:30:34Z</time>
      </trkpt>
      <trkpt lat="48.6455" lon="-3.38166">
        <ele>98</ele>
        <time>2015-01-04T08:30:35Z</time>
      </trkpt>
      <trkpt lat="48.64547" lon="-3.38153">
        <ele>98</ele>
        <time>2015-01-04T08:30:36Z</time>
      </trkpt>
      <trkpt lat="48.64545" lon="-3.3814">
        <ele>98</ele>
        <time>2015-01-04T08:30:37Z</time>
      </trkpt>
      <trkpt lat="48.64542" lon="-3.38126">
        <ele>97</ele>
        <time>2015-01-04T08:30:38Z</time>
      </trkpt>
      <trkpt lat="48.64539" lon="-3.38113">
        <ele>97</ele>
        <time>2015-01-04T08:30:39Z</time>
      </trkpt>
      <trkpt lat="48.64536" lon="-3.381">
        <ele>97</ele>
        <time>2015-01-04T08:30:40Z</time>
      </trkpt>
      <trkpt lat="48.64532" lon="-3.38087">
        <ele>96</ele>
        <time>2015-01-04T08:30:41Z</time>
      </trkpt>
      <trkpt lat="48.64529" lon="-3.38074">
        <ele>96</ele>
        <time>2015-01-04T08:30:42Z</time>
      </trkpt>
      <trkpt lat="48.64526" lon="-3.38062">
        <ele>96</ele>
        <time>2015-01-04T08:30:43Z</time>
      </trkpt>
      <trkpt lat="48.64522" lon="-3.38051">
        <ele>96</ele>
        <time>2015-01-04T08:30:44Z</time>
      </trkpt>
      <trkpt lat="48.64519" lon="-3.3804">
        <ele>96</ele>
        <time>2015-01-04T08:30:45Z</time>
      </trkpt>
      <trkpt lat="48.64516" lon="-3.38029">
        <ele>96</ele>
        <time>2015-01-04T08:30:46Z</time>
      </trkpt>
      <trkpt lat="48.64513" lon="-3.38019">
        <ele>96</ele>
        <time>2015-01-04T08:30:47Z</time>
      </trkpt>
      <trkpt lat="48.6451" lon="-3.38009">
        <ele>96</ele>
        <time>2015-01-04T08:30:48Z</time>
      </trkpt>
      <trkpt lat="48.64508" lon="-3.38">
        <ele>96</ele>
        <time>2015-01-04T08:30:49Z</time>
      </trkpt>
      <trkpt lat="48.64505" lon="-3.37991">
        <ele>96</ele>
        <time>2015-01-04T08:30:50Z</time>
      </trkpt>
      <trkpt lat="48.64502" lon="-3.37982">
        <ele>96</ele>
        <time>2015-01-04T08:30:51Z</time>
      </trkpt>
      <trkpt lat="48.64499" lon="-3.37973">
        <ele>96</ele>
        <time>2015-01-04T08:30:52Z</time>
      </trkpt>
      <trkpt lat="48.64495" lon="-3.37965">
        <ele>96</ele>
        <time>2015-01-04T08:30:53Z</time>
      </trkpt>
      <trkpt lat="48.64492" lon="-3.37957">
        <ele>96</ele>
        <time>2015-01-04T08:30:54Z</time>
      </trkpt>
      <trkpt lat="48.64488" lon="-3.37949">
        <ele>96</ele>
        <time>2015-01-04T08:30:55Z</time>
      </trkpt>
      <trkpt lat="48.64484" lon="-3.37942">
        <ele>96</ele>
        <time>2015-01-04T08:30:56Z</time>
      </trkpt>
      <trkpt lat="48.6448" lon="-3.37934">
        <ele>96</ele>
        <time>2015-01-04T08:30:57Z</time>
      </trkpt>
      <trkpt lat="48.64475" lon="-3.37927">
        <ele>96</ele>
        <time>2015-01-04T08:30:58Z</time>
      </trkpt>
      <trkpt lat="48.64471" lon="-3.3792">
        <ele>96</ele>
        <time>2015-01-04T08:30:59Z</time>
      </trkpt>
      <trkpt lat="48.64466" lon="-3.37913">
        <ele>96</ele>
        <time>2015-01-04T08:31:00Z</time>
      </trkpt>
      <trkpt lat="48.64461" lon="-3.37907">
        <ele>96</ele>
        <time>2015-01-04T08:31:01Z</time>
      </trkpt>
      <trkpt lat="48.64456" lon="-3.379">
        <ele>96</ele>
        <time>2015-01-04T08:31:02Z</time>
      </trkpt>
      <trkpt lat="48.64451" lon="-3.37893">
        <ele>96</ele>
        <time>2015-01-04T08:31:03Z</time>
      </trkpt>
      <trkpt lat="48.64446" lon="-3.37886">
        <ele>96</ele>
        <time>2015-01-04T08:31:04Z</time>
      </trkpt>
      <trkpt lat="48.64441" lon="-3.37879">
        <ele>96</ele>
        <time>2015-01-04T08:31:05Z</time>
      </trkpt>
      <trkpt lat="48.64436" lon="-3.37873">
        <ele>96</ele>
        <time>2015-01-04T08:31:06Z</time>
      </trkpt>
      <trkpt lat="48.64431" lon="-3.37866">
        <ele>96</ele>
        <time>2015-01-04T08:31:07Z</time>
      </trkpt>
      <trkpt lat="48.64426" lon="-3.3786">
        <ele>96</ele>
        <time>2015-01-04T08:31:08Z</time>
      </trkpt>
      <trkpt lat="48.6442" lon="-3.37853">
        <ele>96</ele>
        <time>2015-01-04T08:31:09Z</time>
      </trkpt>
      <trkpt lat="48.64415" lon="-3.37847">
        <ele>96</ele>
        <time>2015-01-04T08:31:10Z</time>
      </trkpt>
      <trkpt lat="48.64409" lon="-3.37841">
        <ele>96</ele>
        <time>2015-01-04T08:31:11Z</time>
      </trkpt>
      <trkpt lat="48.64404" lon="-3.37835">
        <ele>96</ele>
        <time>2015-01-04T08:31:12Z</time>
      </trkpt>
      <trkpt lat="48.64399" lon="-3.37829">
        <ele>96</ele>
        <time>2015-01-04T08:31:13Z</time>
      </trkpt>
      <trkpt lat="48.64393" lon="-3.37823">
        <ele>96</ele>
        <time>2015-01-04T08:31:14Z</time>
      </trkpt>
      <trkpt lat="48.64388" lon="-3.37817">
        <ele>96</ele>
        <time>2015-01-04T08:31:15Z</time>
      </trkpt>
      <trkpt lat="48.64383" lon="-3.37811">
        <ele>96</ele>
        <time>2015-01-04T08:31:16Z</time>
      </trkpt>
      <trkpt lat="48.64377" lon="-3.37805">
        <ele>96</ele>
        <time>2015-01-04T08:31:17Z</time>
      </trkpt>
      <trkpt lat="48.64372" lon="-3.37799">
        <ele>96</ele>
        <time>2015-01-04T08:31:18Z</time>
      </trkpt>
      <trkpt lat="48.64367" lon="-3.37792">
        <ele>96</ele>
        <time>2015-01-04T08:31:19Z</time>
      </trkpt>
      <trkpt lat="48.64362" lon="-3.37785">
        <ele>96</ele>
        <time>2015-01-04T08:31:20Z</time>
      </trkpt>
      <trkpt lat="48.64357" lon="-3.37777">
        <ele>96</ele>
        <time>2015-01-04T08:31:21Z</time>
      </trkpt>
      <trkpt lat="48.64352" lon="-3.37769">
        <ele>96</ele>
        <time>2015-01-04T08:31:22Z</time>
      </trkpt>
      <trkpt lat="48.64348" lon="-3.3776">
        <ele>96</ele>
        <time>2015-01-04T08:31:23Z</time>
      </trkpt>
      <trkpt lat="48.64344" lon="-3.3775">
        <ele>96</ele>
        <time>2015-01-04T08:31:24Z</time>
      </trkpt>
      <trkpt lat="48.64341" lon="-3.37739">
        <ele>96</ele>
        <time>2015-01-04T08:31:25Z</time>
      </trkpt>
      <trkpt lat="48.64338" lon="-3.37728">
        <ele>96</ele>
        <time>2015-01-04T08:31:26Z</time>
      </trkpt>
      <trkpt lat="48.64335" lon="-3.37716">
        <ele>96</ele>
        <time>2015-01-04T08:31:27Z</time>
      </trkpt>
      <trkpt lat="48.64331" lon="-3.37704">
        <ele>96</ele>
        <time>2015-01-04T08:31:28Z</time>
      </trkpt>
      <trkpt lat="48.64328" lon="-3.37691">
        <ele>96</ele>
        <time>2015-01-04T08:31:29Z</time>
      </trkpt>
      <trkpt lat="48.64325" lon="-3.37679">
        <ele>96</ele>
        <time>2015-01-04T08:31:30Z</time>
      </trkpt>
      <trkpt lat="48.64322" lon="-3.37666">
        <ele>96</ele>
        <time>2015-01-04T08:31:31Z</time>
      </trkpt>
      <trkpt lat="48.64318" lon="-3.37653">
        <ele>96</ele>
        <time>2015-01-04T08:31:32Z</time>
      </trkpt>
      <trkpt lat="48.64315" lon="-3.3764">
        <ele>96</ele>
        <time>2015-01-04T08:31:33Z</time>
      </trkpt>
      <trkpt lat="48.64312" lon="-3.37627">
        <ele>96</ele>
        <time>2015-01-04T08:31:34Z</time>
      </trkpt>
      <trkpt lat="48.6431" lon="-3.37614">
        <ele>96</ele>
        <time>2015-01-04T08:31:35Z</time>
      </trkpt>
      <trkpt lat="48.64307" lon="-3.37601">
        <ele>96</ele>
        <time>2015-01-04T08:31:36Z</time>
      </trkpt>
      <trkpt lat="48.64305" lon="-3.37588">
        <ele>95</ele>
        <time>2015-01-04T08:31:37Z</time>
      </trkpt>
      <trkpt lat="48.64303" lon="-3.37574">
        <ele>95</ele>
        <time>2015-01-04T08:31:38Z</time>
      </trkpt>
      <trkpt lat="48.64301" lon="-3.3756">
        <ele>94</ele>
        <time>2015-01-04T08:31:39Z</time>
      </trkpt>
      <trkpt lat="48.64298" lon="-3.37546">
        <ele>94</ele>
        <time>2015-01-04T08:31:40Z</time>
      </trkpt>
      <trkpt lat="48.64296" lon="-3.37532">
        <ele>94</ele>
        <time>2015-01-04T08:31:41Z</time>
      </trkpt>
      <trkpt lat="48.64294" lon="-3.37519">
        <ele>94</ele>
        <time>2015-01-04T08:31:42Z</time>
      </trkpt>
      <trkpt lat="48.64291" lon="-3.37507">
        <ele>94</ele>
        <time>2015-01-04T08:31:43Z</time>
      </trkpt>
      <trkpt lat="48.64289" lon="-3.37495">
        <ele>94</ele>
        <time>2015-01-04T08:31:44Z</time>
      </trkpt>
      <trkpt lat="48.64288" lon="-3.37484">
        <ele>94</ele>
        <time>2015-01-04T08:31:45Z</time>
      </trkpt>
      <trkpt lat="48.64286" lon="-3.37473">
        <ele>94</ele>
        <time>2015-01-04T08:31:46Z</time>
      </trkpt>
      <trkpt lat="48.64285" lon="-3.37463">
        <ele>94</ele>
        <time>2015-01-04T08:31:47Z</time>
      </trkpt>
      <trkpt lat="48.64285" lon="-3.37452">
        <ele>94</ele>
        <time>2015-01-04T08:31:48Z</time>
      </trkpt>
      <trkpt lat="48.64285" lon="-3.37442">
        <ele>94</ele>
        <time>2015-01-04T08:31:49Z</time>
      </trkpt>
      <trkpt lat="48.64285" lon="-3.37433">
        <ele>94</ele>
        <time>2015-01-04T08:31:50Z</time>
      </trkpt>
      <trkpt lat="48.64286" lon="-3.37424">
        <ele>94</ele>
        <time>2015-01-04T08:31:51Z</time>
      </trkpt>
      <trkpt lat="48.64288" lon="-3.37416">
        <ele>94</ele>
        <time>2015-01-04T08:31:52Z</time>
      </trkpt>
      <trkpt lat="48.64289" lon="-3.37407">
        <ele>94</ele>
        <time>2015-01-04T08:31:53Z</time>
      </trkpt>
      <trkpt lat="48.64291" lon="-3.37399">
        <ele>94</ele>
        <time>2015-01-04T08:31:54Z</time>
      </trkpt>
      <trkpt lat="48.64292" lon="-3.37392">
        <ele>94</ele>
        <time>2015-01-04T08:31:55Z</time>
      </trkpt>
      <trkpt lat="48.64293" lon="-3.37384">
        <ele>94</ele>
        <time>2015-01-04T08:31:56Z</time>
      </trkpt>
      <trkpt lat="48.64295" lon="-3.37377">
        <ele>94</ele>
        <time>2015-01-04T08:31:57Z</time>
      </trkpt>
      <trkpt lat="48.64296" lon="-3.37369">
        <ele>94</ele>
        <time>2015-01-04T08:31:58Z</time>
      </trkpt>
      <trkpt lat="48.64297" lon="-3.37362">
        <ele>94</ele>
        <time>2015-01-04T08:31:59Z</time>
      </trkpt>
      <trkpt lat="48.64298" lon="-3.37354">
        <ele>94</ele>
        <time>2015-01-04T08:32:00Z</time>
      </trkpt>
      <trkpt lat="48.64299" lon="-3.37346">
        <ele>94</ele>
        <time>2015-01-04T08:32:01Z</time>
      </trkpt>
      <trkpt lat="48.64299" lon="-3.37338">
        <ele>94</ele>
        <time>2015-01-04T08:32:02Z</time>
      </trkpt>
      <trkpt lat="48.64299" lon="-3.3733">
        <ele>94</ele>
        <time>2015-01-04T08:32:03Z</time>
      </trkpt>
      <trkpt lat="48.64299" lon="-3.37322">
        <ele>94</ele>
        <time>2015-01-04T08:32:04Z</time>
      </trkpt>
      <trkpt lat="48.64297" lon="-3.37315">
        <ele>94</ele>
        <time>2015-01-04T08:32:05Z</time>
      </trkpt>
      <trkpt lat="48.64295" lon="-3.37307">
        <ele>95</ele>
        <time>2015-01-04T08:32:06Z</time>
      </trkpt>
      <trkpt lat="48.64293" lon="-3.373">
        <ele>95</ele>
        <time>2015-01-04T08:32:07Z</time>
      </trkpt>
      <trkpt lat="48.64289" lon="-3.37295">
        <ele>95</ele>
        <time>2015-01-04T08:32:08Z</time>
      </trkpt>
      <trkpt lat="48.64286" lon="-3.3729">
        <ele>95</ele>
        <time>2015-01-04T08:32:09Z</time>
      </trkpt>
      <trkpt lat="48.64282" lon="-3.37285">
        <ele>96</ele>
        <time>2015-01-04T08:32:10Z</time>
      </trkpt>
      <trkpt lat="48.64277" lon="-3.37281">
        <ele>96</ele>
        <time>2015-01-04T08:32:11Z</time>
      </trkpt>
      <trkpt lat="48.64273" lon="-3.37278">
        <ele>96</ele>
        <time>2015-01-04T08:32:12Z</time>
      </trkpt>
      <trkpt lat="48.64268" lon="-3.37276">
        <ele>97</ele>
        <time>2015-01-04T08:32:13Z</time>
      </trkpt>
      <trkpt lat="48.64263" lon="-3.37275">
        <ele>97</ele>
        <time>2015-01-04T08:32:14Z</time>
      </trkpt>
      <trkpt lat="48.64258" lon="-3.37274">
        <ele>97</ele>
        <time>2015-01-04T08:32:15Z</time>
      </trkpt>
      <trkpt lat="48.64248" lon="-3.37275">
        <ele>98</ele>
        <time>2015-01-04T08:32:17Z</time>
      </trkpt>
      <trkpt lat="48.64243" lon="-3.37275">
        <ele>98</ele>
        <time>2015-01-04T08:32:18Z</time>
      </trkpt>
      <trkpt lat="48.64237" lon="-3.37277">
        <ele>99</ele>
        <time>2015-01-04T08:32:19Z</time>
      </trkpt>
      <trkpt lat="48.64232" lon="-3.37278">
        <ele>99</ele>
        <time>2015-01-04T08:32:20Z</time>
      </trkpt>
      <trkpt lat="48.64227" lon="-3.37281">
        <ele>99</ele>
        <time>2015-01-04T08:32:21Z</time>
      </trkpt>
      <trkpt lat="48.64222" lon="-3.37283">
        <ele>99</ele>
        <time>2015-01-04T08:32:22Z</time>
      </trkpt>
      <trkpt lat="48.64217" lon="-3.37286">
        <ele>100</ele>
        <time>2015-01-04T08:32:23Z</time>
      </trkpt>
      <trkpt lat="48.64213" lon="-3.37289">
        <ele>100</ele>
        <time>2015-01-04T08:32:24Z</time>
      </trkpt>
      <trkpt lat="48.64208" lon="-3.37291">
        <ele>100</ele>
        <time>2015-01-04T08:32:25Z</time>
      </trkpt>
      <trkpt lat="48.64204" lon="-3.37293">
        <ele>101</ele>
        <time>2015-01-04T08:32:26Z</time>
      </trkpt>
      <trkpt lat="48.64199" lon="-3.37295">
        <ele>101</ele>
        <time>2015-01-04T08:32:27Z</time>
      </trkpt>
      <trkpt lat="48.64194" lon="-3.37296">
        <ele>101</ele>
        <time>2015-01-04T08:32:28Z</time>
      </trkpt>
      <trkpt lat="48.6419" lon="-3.37297">
        <ele>102</ele>
        <time>2015-01-04T08:32:29Z</time>
      </trkpt>
      <trkpt lat="48.64185" lon="-3.37298">
        <ele>102</ele>
        <time>2015-01-04T08:32:30Z</time>
      </trkpt>
      <trkpt lat="48.6418" lon="-3.37297">
        <ele>103</ele>
        <time>2015-01-04T08:32:31Z</time>
      </trkpt>
      <trkpt lat="48.64175" lon="-3.37296">
        <ele>103</ele>
        <time>2015-01-04T08:32:32Z</time>
      </trkpt>
      <trkpt lat="48.64171" lon="-3.37294">
        <ele>103</ele>
        <time>2015-01-04T08:32:33Z</time>
      </trkpt>
      <trkpt lat="48.64167" lon="-3.37291">
        <ele>104</ele>
        <time>2015-01-04T08:32:34Z</time>
      </trkpt>
      <trkpt lat="48.64162" lon="-3.37287">
        <ele>104</ele>
        <time>2015-01-04T08:32:35Z</time>
      </trkpt>
      <trkpt lat="48.64158" lon="-3.37282">
        <ele>104</ele>
        <time>2015-01-04T08:32:36Z</time>
      </trkpt>
      <trkpt lat="48.64154" lon="-3.37278">
        <ele>105</ele>
        <time>2015-01-04T08:32:37Z</time>
      </trkpt>
      <trkpt lat="48.64151" lon="-3.37273">
        <ele>105</ele>
        <time>2015-01-04T08:32:38Z</time>
      </trkpt>
      <trkpt lat="48.64147" lon="-3.37268">
        <ele>105</ele>
        <time>2015-01-04T08:32:39Z</time>
      </trkpt>
      <trkpt lat="48.64144" lon="-3.37263">
        <ele>105</ele>
        <time>2015-01-04T08:32:40Z</time>
      </trkpt>
      <trkpt lat="48.6414" lon="-3.37258">
        <ele>106</ele>
        <time>2015-01-04T08:32:41Z</time>
      </trkpt>
      <trkpt lat="48.64137" lon="-3.37253">
        <ele>106</ele>
        <time>2015-01-04T08:32:42Z</time>
      </trkpt>
      <trkpt lat="48.64134" lon="-3.37249">
        <ele>106</ele>
        <time>2015-01-04T08:32:43Z</time>
      </trkpt>
      <trkpt lat="48.64131" lon="-3.37245">
        <ele>107</ele>
        <time>2015-01-04T08:32:44Z</time>
      </trkpt>
      <trkpt lat="48.64128" lon="-3.37241">
        <ele>107</ele>
        <time>2015-01-04T08:32:45Z</time>
      </trkpt>
      <trkpt lat="48.64125" lon="-3.37237">
        <ele>108</ele>
        <time>2015-01-04T08:32:46Z</time>
      </trkpt>
      <trkpt lat="48.64121" lon="-3.37233">
        <ele>108</ele>
        <time>2015-01-04T08:32:47Z</time>
      </trkpt>
      <trkpt lat="48.64118" lon="-3.37229">
        <ele>108</ele>
        <time>2015-01-04T08:32:48Z</time>
      </trkpt>
      <trkpt lat="48.64116" lon="-3.37225">
        <ele>109</ele>
        <time>2015-01-04T08:32:49Z</time>
      </trkpt>
      <trkpt lat="48.64113" lon="-3.37222">
        <ele>109</ele>
        <time>2015-01-04T08:32:50Z</time>
      </trkpt>
      <trkpt lat="48.64112" lon="-3.37218">
        <ele>109</ele>
        <time>2015-01-04T08:32:51Z</time>
      </trkpt>
      <trkpt lat="48.64111" lon="-3.37214">
        <ele>109</ele>
        <time>2015-01-04T08:32:52Z</time>
      </trkpt>
      <trkpt lat="48.64112" lon="-3.3721">
        <ele>110</ele>
        <time>2015-01-04T08:32:53Z</time>
      </trkpt>
      <trkpt lat="48.64114" lon="-3.37205">
        <ele>110</ele>
        <time>2015-01-04T08:32:54Z</time>
      </trkpt>
      <trkpt lat="48.64116" lon="-3.37201">
        <ele>110</ele>
        <time>2015-01-04T08:32:55Z</time>
      </trkpt>
      <trkpt lat="48.64119" lon="-3.37196">
        <ele>110</ele>
        <time>2015-01-04T08:32:56Z</time>
      </trkpt>
      <trkpt lat="48.64121" lon="-3.37192">
        <ele>110</ele>
        <time>2015-01-04T08:32:57Z</time>
      </trkpt>
      <trkpt lat="48.64125" lon="-3.37188">
        <ele>110</ele>
        <time>2015-01-04T08:32:58Z</time>
      </trkpt>
      <trkpt lat="48.64128" lon="-3.37184">
        <ele>110</ele>
        <time>2015-01-04T08:32:59Z</time>
      </trkpt>
      <trkpt lat="48.64132" lon="-3.3718">
        <ele>110</ele>
        <time>2015-01-04T08:33:00Z</time>
      </trkpt>
      <trkpt lat="48.64135" lon="-3.37176">
        <ele>110</ele>
        <time>2015-01-04T08:33:01Z</time>
      </trkpt>
      <trkpt lat="48.64138" lon="-3.37173">
        <ele>110</ele>
        <time>2015-01-04T08:33:02Z</time>
      </trkpt>
      <trkpt lat="48.64142" lon="-3.37169">
        <ele>111</ele>
        <time>2015-01-04T08:33:03Z</time>
      </trkpt>
      <trkpt lat="48.64146" lon="-3.37165">
        <ele>111</ele>
        <time>2015-01-04T08:33:04Z</time>
      </trkpt>
      <trkpt lat="48.64149" lon="-3.37161">
        <ele>111</ele>
        <time>2015-01-04T08:33:05Z</time>
      </trkpt>
      <trkpt lat="48.64153" lon="-3.37158">
        <ele>111</ele>
        <time>2015-01-04T08:33:06Z</time>
      </trkpt>
      <trkpt lat="48.64156" lon="-3.37154">
        <ele>111</ele>
        <time>2015-01-04T08:33:07Z</time>
      </trkpt>
      <trkpt lat="48.64159" lon="-3.3715">
        <ele>111</ele>
        <time>2015-01-04T08:33:08Z</time>
      </trkpt>
      <trkpt lat="48.64163" lon="-3.37146">
        <ele>111</ele>
        <time>2015-01-04T08:33:09Z</time>
      </trkpt>
      <trkpt lat="48.64167" lon="-3.37142">
        <ele>111</ele>
        <time>2015-01-04T08:33:10Z</time>
      </trkpt>
      <trkpt lat="48.6417" lon="-3.37138">
        <ele>111</ele>
        <time>2015-01-04T08:33:11Z</time>
      </trkpt>
      <trkpt lat="48.64174" lon="-3.37134">
        <ele>112</ele>
        <time>2015-01-04T08:33:12Z</time>
      </trkpt>
      <trkpt lat="48.64178" lon="-3.3713">
        <ele>112</ele>
        <time>2015-01-04T08:33:13Z</time>
      </trkpt>
      <trkpt lat="48.64182" lon="-3.37126">
        <ele>112</ele>
        <time>2015-01-04T08:33:14Z</time>
      </trkpt>
      <trkpt lat="48.64185" lon="-3.37121">
        <ele>112</ele>
        <time>2015-01-04T08:33:15Z</time>
      </trkpt>
      <trkpt lat="48.64188" lon="-3.37114">
        <ele>112</ele>
        <time>2015-01-04T08:33:16Z</time>
      </trkpt>
      <trkpt lat="48.6419" lon="-3.37107">
        <ele>112</ele>
        <time>2015-01-04T08:33:17Z</time>
      </trkpt>
      <trkpt lat="48.64191" lon="-3.37098">
        <ele>112</ele>
        <time>2015-01-04T08:33:18Z</time>
      </trkpt>
      <trkpt lat="48.64193" lon="-3.37089">
        <ele>112</ele>
        <time>2015-01-04T08:33:19Z</time>
      </trkpt>
      <trkpt lat="48.64194" lon="-3.37079">
        <ele>112</ele>
        <time>2015-01-04T08:33:20Z</time>
      </trkpt>
      <trkpt lat="48.64195" lon="-3.37069">
        <ele>112</ele>
        <time>2015-01-04T08:33:21Z</time>
      </trkpt>
      <trkpt lat="48.64196" lon="-3.37057">
        <ele>112</ele>
        <time>2015-01-04T08:33:22Z</time>
      </trkpt>
      <trkpt lat="48.64197" lon="-3.37045">
        <ele>112</ele>
        <time>2015-01-04T08:33:23Z</time>
      </trkpt>
      <trkpt lat="48.64199" lon="-3.37032">
        <ele>112</ele>
        <time>2015-01-04T08:33:24Z</time>
      </trkpt>
      <trkpt lat="48.642" lon="-3.37019">
        <ele>112</ele>
        <time>2015-01-04T08:33:25Z</time>
      </trkpt>
      <trkpt lat="48.64202" lon="-3.37005">
        <ele>112</ele>
        <time>2015-01-04T08:33:26Z</time>
      </trkpt>
      <trkpt lat="48.64203" lon="-3.36991">
        <ele>112</ele>
        <time>2015-01-04T08:33:27Z</time>
      </trkpt>
      <trkpt lat="48.64205" lon="-3.36977">
        <ele>112</ele>
        <time>2015-01-04T08:33:28Z</time>
      </trkpt>
      <trkpt lat="48.64207" lon="-3.36962">
        <ele>112</ele>
        <time>2015-01-04T08:33:29Z</time>
      </trkpt>
      <trkpt lat="48.6421" lon="-3.36947">
        <ele>111</ele>
        <time>2015-01-04T08:33:30Z</time>
      </trkpt>
      <trkpt lat="48.64212" lon="-3.36932">
        <ele>111</ele>
        <time>2015-01-04T08:33:31Z</time>
      </trkpt>
      <trkpt lat="48.64215" lon="-3.36917">
        <ele>110</ele>
        <time>2015-01-04T08:33:32Z</time>
      </trkpt>
      <trkpt lat="48.64219" lon="-3.36902">
        <ele>110</ele>
        <time>2015-01-04T08:33:33Z</time>
      </trkpt>
      <trkpt lat="48.64222" lon="-3.36887">
        <ele>109</ele>
        <time>2015-01-04T08:33:34Z</time>
      </trkpt>
      <trkpt lat="48.64225" lon="-3.36872">
        <ele>109</ele>
        <time>2015-01-04T08:33:35Z</time>
      </trkpt>
      <trkpt lat="48.64228" lon="-3.36856">
        <ele>108</ele>
        <time>2015-01-04T08:33:36Z</time>
      </trkpt>
      <trkpt lat="48.6423" lon="-3.36841">
        <ele>108</ele>
        <time>2015-01-04T08:33:37Z</time>
      </trkpt>
      <trkpt lat="48.64233" lon="-3.36824">
        <ele>107</ele>
        <time>2015-01-04T08:33:38Z</time>
      </trkpt>
      <trkpt lat="48.64236" lon="-3.36808">
        <ele>107</ele>
        <time>2015-01-04T08:33:39Z</time>
      </trkpt>
      <trkpt lat="48.6424" lon="-3.36792">
        <ele>106</ele>
        <time>2015-01-04T08:33:40Z</time>
      </trkpt>
      <trkpt lat="48.64244" lon="-3.36776">
        <ele>105</ele>
        <time>2015-01-04T08:33:41Z</time>
      </trkpt>
      <trkpt lat="48.6425" lon="-3.3676">
        <ele>105</ele>
        <time>2015-01-04T08:33:42Z</time>
      </trkpt>
      <trkpt lat="48.64255" lon="-3.36744">
        <ele>104</ele>
        <time>2015-01-04T08:33:43Z</time>
      </trkpt>
      <trkpt lat="48.6426" lon="-3.36728">
        <ele>103</ele>
        <time>2015-01-04T08:33:44Z</time>
      </trkpt>
      <trkpt lat="48.64265" lon="-3.36712">
        <ele>103</ele>
        <time>2015-01-04T08:33:45Z</time>
      </trkpt>
      <trkpt lat="48.6427" lon="-3.36695">
        <ele>102</ele>
        <time>2015-01-04T08:33:46Z</time>
      </trkpt>
      <trkpt lat="48.64276" lon="-3.36679">
        <ele>101</ele>
        <time>2015-01-04T08:33:47Z</time>
      </trkpt>
      <trkpt lat="48.64281" lon="-3.36662">
        <ele>101</ele>
        <time>2015-01-04T08:33:48Z</time>
      </trkpt>
      <trkpt lat="48.64286" lon="-3.36644">
        <ele>100</ele>
        <time>2015-01-04T08:33:49Z</time>
      </trkpt>
      <trkpt lat="48.64291" lon="-3.36626">
        <ele>99</ele>
        <time>2015-01-04T08:33:50Z</time>
      </trkpt>
      <trkpt lat="48.64295" lon="-3.36607">
        <ele>98</ele>
        <time>2015-01-04T08:33:51Z</time>
      </trkpt>
      <trkpt lat="48.643" lon="-3.36588">
        <ele>97</ele>
        <time>2015-01-04T08:33:52Z</time>
      </trkpt>
      <trkpt lat="48.64304" lon="-3.36569">
        <ele>96</ele>
        <time>2015-01-04T08:33:53Z</time>
      </trkpt>
      <trkpt lat="48.64308" lon="-3.36549">
        <ele>95</ele>
        <time>2015-01-04T08:33:54Z</time>
      </trkpt>
      <trkpt lat="48.64313" lon="-3.36529">
        <ele>94</ele>
        <time>2015-01-04T08:33:55Z</time>
      </trkpt>
      <trkpt lat="48.64317" lon="-3.36509">
        <ele>93</ele>
        <time>2015-01-04T08:33:56Z</time>
      </trkpt>
      <trkpt lat="48.64322" lon="-3.3649">
        <ele>92</ele>
        <time>2015-01-04T08:33:57Z</time>
      </trkpt>
      <trkpt lat="48.64327" lon="-3.3647">
        <ele>91</ele>
        <time>2015-01-04T08:33:58Z</time>
      </trkpt>
      <trkpt lat="48.64333" lon="-3.36451">
        <ele>90</ele>
        <time>2015-01-04T08:33:59Z</time>
      </trkpt>
      <trkpt lat="48.64338" lon="-3.36432">
        <ele>89</ele>
        <time>2015-01-04T08:34:00Z</time>
      </trkpt>
      <trkpt lat="48.64343" lon="-3.36413">
        <ele>89</ele>
        <time>2015-01-04T08:34:01Z</time>
      </trkpt>
      <trkpt lat="48.64347" lon="-3.36395">
        <ele>88</ele>
        <time>2015-01-04T08:34:02Z</time>
      </trkpt>
      <trkpt lat="48.64352" lon="-3.36377">
        <ele>88</ele>
        <time>2015-01-04T08:34:03Z</time>
      </trkpt>
      <trkpt lat="48.64355" lon="-3.3636">
        <ele>88</ele>
        <time>2015-01-04T08:34:04Z</time>
      </trkpt>
      <trkpt lat="48.64359" lon="-3.36343">
        <ele>88</ele>
        <time>2015-01-04T08:34:05Z</time>
      </trkpt>
      <trkpt lat="48.64361" lon="-3.36327">
        <ele>88</ele>
        <time>2015-01-04T08:34:06Z</time>
      </trkpt>
      <trkpt lat="48.64364" lon="-3.36312">
        <ele>88</ele>
        <time>2015-01-04T08:34:07Z</time>
      </trkpt>
      <trkpt lat="48.64366" lon="-3.36298">
        <ele>88</ele>
        <time>2015-01-04T08:34:08Z</time>
      </trkpt>
      <trkpt lat="48.64368" lon="-3.36285">
        <ele>88</ele>
        <time>2015-01-04T08:34:09Z</time>
      </trkpt>
      <trkpt lat="48.64369" lon="-3.36274">
        <ele>88</ele>
        <time>2015-01-04T08:34:10Z</time>
      </trkpt>
      <trkpt lat="48.6437" lon="-3.36263">
        <ele>88</ele>
        <time>2015-01-04T08:34:11Z</time>
      </trkpt>
      <trkpt lat="48.64371" lon="-3.36253">
        <ele>88</ele>
        <time>2015-01-04T08:34:12Z</time>
      </trkpt>
      <trkpt lat="48.64371" lon="-3.36244">
        <ele>88</ele>
        <time>2015-01-04T08:34:13Z</time>
      </trkpt>
      <trkpt lat="48.64372" lon="-3.36235">
        <ele>88</ele>
        <time>2015-01-04T08:34:14Z</time>
      </trkpt>
      <trkpt lat="48.64373" lon="-3.36227">
        <ele>88</ele>
        <time>2015-01-04T08:34:15Z</time>
      </trkpt>
      <trkpt lat="48.64373" lon="-3.3622">
        <ele>88</ele>
        <time>2015-01-04T08:34:16Z</time>
      </trkpt>
      <trkpt lat="48.64374" lon="-3.36212">
        <ele>88</ele>
        <time>2015-01-04T08:34:17Z</time>
      </trkpt>
      <trkpt lat="48.64375" lon="-3.36205">
        <ele>88</ele>
        <time>2015-01-04T08:34:18Z</time>
      </trkpt>
      <trkpt lat="48.64376" lon="-3.36199">
        <ele>88</ele>
        <time>2015-01-04T08:34:19Z</time>
      </trkpt>
      <trkpt lat="48.64376" lon="-3.36192">
        <ele>88</ele>
        <time>2015-01-04T08:34:20Z</time>
      </trkpt>
      <trkpt lat="48.64377" lon="-3.36187">
        <ele>88</ele>
        <time>2015-01-04T08:34:21Z</time>
      </trkpt>
      <trkpt lat="48.64378" lon="-3.3618">
        <ele>89</ele>
        <time>2015-01-04T08:34:22Z</time>
      </trkpt>
      <trkpt lat="48.64379" lon="-3.36174">
        <ele>89</ele>
        <time>2015-01-04T08:34:23Z</time>
      </trkpt>
      <trkpt lat="48.64381" lon="-3.36167">
        <ele>90</ele>
        <time>2015-01-04T08:34:24Z</time>
      </trkpt>
      <trkpt lat="48.64383" lon="-3.3616">
        <ele>90</ele>
        <time>2015-01-04T08:34:25Z</time>
      </trkpt>
      <trkpt lat="48.64385" lon="-3.36154">
        <ele>90</ele>
        <time>2015-01-04T08:34:26Z</time>
      </trkpt>
      <trkpt lat="48.64388" lon="-3.36147">
        <ele>91</ele>
        <time>2015-01-04T08:34:27Z</time>
      </trkpt>
      <trkpt lat="48.6439" lon="-3.3614">
        <ele>91</ele>
        <time>2015-01-04T08:34:28Z</time>
      </trkpt>
      <trkpt lat="48.64393" lon="-3.36132">
        <ele>91</ele>
        <time>2015-01-04T08:34:29Z</time>
      </trkpt>
      <trkpt lat="48.64396" lon="-3.36125">
        <ele>91</ele>
        <time>2015-01-04T08:34:30Z</time>
      </trkpt>
      <trkpt lat="48.64398" lon="-3.36118">
        <ele>92</ele>
        <time>2015-01-04T08:34:31Z</time>
      </trkpt>
      <trkpt lat="48.64401" lon="-3.36111">
        <ele>92</ele>
        <time>2015-01-04T08:34:32Z</time>
      </trkpt>
      <trkpt lat="48.64403" lon="-3.36103">
        <ele>92</ele>
        <time>2015-01-04T08:34:33Z</time>
      </trkpt>
      <trkpt lat="48.64405" lon="-3.36095">
        <ele>92</ele>
        <time>2015-01-04T08:34:34Z</time>
      </trkpt>
      <trkpt lat="48.64407" lon="-3.36087">
        <ele>92</ele>
        <time>2015-01-04T08:34:35Z</time>
      </trkpt>
      <trkpt lat="48.64408" lon="-3.36079">
        <ele>93</ele>
        <time>2015-01-04T08:34:36Z</time>
      </trkpt>
      <trkpt lat="48.6441" lon="-3.3607">
        <ele>93</ele>
        <time>2015-01-04T08:34:37Z</time>
      </trkpt>
      <trkpt lat="48.64411" lon="-3.36062">
        <ele>93</ele>
        <time>2015-01-04T08:34:38Z</time>
      </trkpt>
      <trkpt lat="48.64412" lon="-3.36054">
        <ele>93</ele>
        <time>2015-01-04T08:34:39Z</time>
      </trkpt>
      <trkpt lat="48.64414" lon="-3.36045">
        <ele>93</ele>
        <time>2015-01-04T08:34:40Z</time>
      </trkpt>
      <trkpt lat="48.64415" lon="-3.36036">
        <ele>93</ele>
        <time>2015-01-04T08:34:41Z</time>
      </trkpt>
      <trkpt lat="48.64417" lon="-3.36028">
        <ele>93</ele>
        <time>2015-01-04T08:34:42Z</time>
      </trkpt>
      <trkpt lat="48.64418" lon="-3.36019">
        <ele>93</ele>
        <time>2015-01-04T08:34:43Z</time>
      </trkpt>
      <trkpt lat="48.6442" lon="-3.3601">
        <ele>93</ele>
        <time>2015-01-04T08:34:44Z</time>
      </trkpt>
      <trkpt lat="48.64423" lon="-3.36001">
        <ele>93</ele>
        <time>2015-01-04T08:34:45Z</time>
      </trkpt>
      <trkpt lat="48.64425" lon="-3.35992">
        <ele>93</ele>
        <time>2015-01-04T08:34:46Z</time>
      </trkpt>
      <trkpt lat="48.64428" lon="-3.35984">
        <ele>93</ele>
        <time>2015-01-04T08:34:47Z</time>
      </trkpt>
      <trkpt lat="48.64431" lon="-3.35975">
        <ele>93</ele>
        <time>2015-01-04T08:34:48Z</time>
      </trkpt>
      <trkpt lat="48.64434" lon="-3.35967">
        <ele>93</ele>
        <time>2015-01-04T08:34:49Z</time>
      </trkpt>
      <trkpt lat="48.64437" lon="-3.35959">
        <ele>93</ele>
        <time>2015-01-04T08:34:50Z</time>
      </trkpt>
      <trkpt lat="48.6444" lon="-3.35951">
        <ele>93</ele>
        <time>2015-01-04T08:34:51Z</time>
      </trkpt>
      <trkpt lat="48.64443" lon="-3.35943">
        <ele>94</ele>
        <time>2015-01-04T08:34:52Z</time>
      </trkpt>
      <trkpt lat="48.64446" lon="-3.35935">
        <ele>94</ele>
        <time>2015-01-04T08:34:53Z</time>
      </trkpt>
      <trkpt lat="48.64449" lon="-3.35927">
        <ele>94</ele>
        <time>2015-01-04T08:34:54Z</time>
      </trkpt>
      <trkpt lat="48.64453" lon="-3.3592">
        <ele>94</ele>
        <time>2015-01-04T08:34:55Z</time>
      </trkpt>
      <trkpt lat="48.64456" lon="-3.35912">
        <ele>94</ele>
        <time>2015-01-04T08:34:56Z</time>
      </trkpt>
      <trkpt lat="48.6446" lon="-3.35904">
        <ele>94</ele>
        <time>2015-01-04T08:34:57Z</time>
      </trkpt>
      <trkpt lat="48.64463" lon="-3.35896">
        <ele>95</ele>
        <time>2015-01-04T08:34:58Z</time>
      </trkpt>
      <trkpt lat="48.64467" lon="-3.35889">
        <ele>95</ele>
        <time>2015-01-04T08:34:59Z</time>
      </trkpt>
      <trkpt lat="48.64471" lon="-3.35881">
        <ele>95</ele>
        <time>2015-01-04T08:35:00Z</time>
      </trkpt>
      <trkpt lat="48.64475" lon="-3.35873">
        <ele>95</ele>
        <time>2015-01-04T08:35:01Z</time>
      </trkpt>
      <trkpt lat="48.64479" lon="-3.35866">
        <ele>95</ele>
        <time>2015-01-04T08:35:02Z</time>
      </trkpt>
      <trkpt lat="48.64483" lon="-3.35858">
        <ele>95</ele>
        <time>2015-01-04T08:35:03Z</time>
      </trkpt>
      <trkpt lat="48.64487" lon="-3.35851">
        <ele>95</ele>
        <time>2015-01-04T08:35:04Z</time>
      </trkpt>
      <trkpt lat="48.64491" lon="-3.35844">
        <ele>95</ele>
        <time>2015-01-04T08:35:05Z</time>
      </trkpt>
      <trkpt lat="48.64495" lon="-3.35837">
        <ele>95</ele>
        <time>2015-01-04T08:35:06Z</time>
      </trkpt>
      <trkpt lat="48.64499" lon="-3.35829">
        <ele>95</ele>
        <time>2015-01-04T08:35:07Z</time>
      </trkpt>
      <trkpt lat="48.64502" lon="-3.35821">
        <ele>96</ele>
        <time>2015-01-04T08:35:08Z</time>
      </trkpt>
      <trkpt lat="48.64505" lon="-3.35813">
        <ele>96</ele>
        <time>2015-01-04T08:35:09Z</time>
      </trkpt>
      <trkpt lat="48.64509" lon="-3.35805">
        <ele>96</ele>
        <time>2015-01-04T08:35:10Z</time>
      </trkpt>
      <trkpt lat="48.64512" lon="-3.35796">
        <ele>96</ele>
        <time>2015-01-04T08:35:11Z</time>
      </trkpt>
      <trkpt lat="48.64515" lon="-3.35788">
        <ele>96</ele>
        <time>2015-01-04T08:35:12Z</time>
      </trkpt>
      <trkpt lat="48.64517" lon="-3.35779">
        <ele>96</ele>
        <time>2015-01-04T08:35:13Z</time>
      </trkpt>
      <trkpt lat="48.6452" lon="-3.3577">
        <ele>96</ele>
        <time>2015-01-04T08:35:14Z</time>
      </trkpt>
      <trkpt lat="48.64522" lon="-3.3576">
        <ele>96</ele>
        <time>2015-01-04T08:35:15Z</time>
      </trkpt>
      <trkpt lat="48.64524" lon="-3.35751">
        <ele>96</ele>
        <time>2015-01-04T08:35:16Z</time>
      </trkpt>
      <trkpt lat="48.64527" lon="-3.35742">
        <ele>96</ele>
        <time>2015-01-04T08:35:17Z</time>
      </trkpt>
      <trkpt lat="48.64529" lon="-3.35732">
        <ele>96</ele>
        <time>2015-01-04T08:35:18Z</time>
      </trkpt>
      <trkpt lat="48.64531" lon="-3.35723">
        <ele>96</ele>
        <time>2015-01-04T08:35:19Z</time>
      </trkpt>
      <trkpt lat="48.64533" lon="-3.35713">
        <ele>96</ele>
        <time>2015-01-04T08:35:20Z</time>
      </trkpt>
      <trkpt lat="48.64535" lon="-3.35703">
        <ele>96</ele>
        <time>2015-01-04T08:35:21Z</time>
      </trkpt>
      <trkpt lat="48.64537" lon="-3.35694">
        <ele>96</ele>
        <time>2015-01-04T08:35:22Z</time>
      </trkpt>
      <trkpt lat="48.6454" lon="-3.35684">
        <ele>96</ele>
        <time>2015-01-04T08:35:23Z</time>
      </trkpt>
      <trkpt lat="48.64542" lon="-3.35675">
        <ele>96</ele>
        <time>2015-01-04T08:35:24Z</time>
      </trkpt>
      <trkpt lat="48.64545" lon="-3.35666">
        <ele>96</ele>
        <time>2015-01-04T08:35:25Z</time>
      </trkpt>
      <trkpt lat="48.64548" lon="-3.35657">
        <ele>96</ele>
        <time>2015-01-04T08:35:26Z</time>
      </trkpt>
      <trkpt lat="48.64552" lon="-3.35648">
        <ele>96</ele>
        <time>2015-01-04T08:35:27Z</time>
      </trkpt>
      <trkpt lat="48.64556" lon="-3.35639">
        <ele>96</ele>
        <time>2015-01-04T08:35:28Z</time>
      </trkpt>
      <trkpt lat="48.6456" lon="-3.35631">
        <ele>96</ele>
        <time>2015-01-04T08:35:29Z</time>
      </trkpt>
      <trkpt lat="48.64563" lon="-3.35623">
        <ele>96</ele>
        <time>2015-01-04T08:35:30Z</time>
      </trkpt>
      <trkpt lat="48.64568" lon="-3.35614">
        <ele>96</ele>
        <time>2015-01-04T08:35:31Z</time>
      </trkpt>
      <trkpt lat="48.64571" lon="-3.35606">
        <ele>96</ele>
        <time>2015-01-04T08:35:32Z</time>
      </trkpt>
      <trkpt lat="48.64576" lon="-3.35598">
        <ele>96</ele>
        <time>2015-01-04T08:35:33Z</time>
      </trkpt>
      <trkpt lat="48.6458" lon="-3.3559">
        <ele>96</ele>
        <time>2015-01-04T08:35:34Z</time>
      </trkpt>
      <trkpt lat="48.64584" lon="-3.35582">
        <ele>96</ele>
        <time>2015-01-04T08:35:35Z</time>
      </trkpt>
      <trkpt lat="48.64588" lon="-3.35574">
        <ele>96</ele>
        <time>2015-01-04T08:35:36Z</time>
      </trkpt>
      <trkpt lat="48.64592" lon="-3.35566">
        <ele>96</ele>
        <time>2015-01-04T08:35:37Z</time>
      </trkpt>
      <trkpt lat="48.64595" lon="-3.35557">
        <ele>96</ele>
        <time>2015-01-04T08:35:38Z</time>
      </trkpt>
      <trkpt lat="48.64599" lon="-3.35549">
        <ele>96</ele>
        <time>2015-01-04T08:35:39Z</time>
      </trkpt>
      <trkpt lat="48.64602" lon="-3.3554">
        <ele>96</ele>
        <time>2015-01-04T08:35:40Z</time>
      </trkpt>
      <trkpt lat="48.64606" lon="-3.35531">
        <ele>96</ele>
        <time>2015-01-04T08:35:41Z</time>
      </trkpt>
      <trkpt lat="48.64609" lon="-3.35522">
        <ele>96</ele>
        <time>2015-01-04T08:35:42Z</time>
      </trkpt>
      <trkpt lat="48.64612" lon="-3.35513">
        <ele>96</ele>
        <time>2015-01-04T08:35:43Z</time>
      </trkpt>
      <trkpt lat="48.64615" lon="-3.35505">
        <ele>96</ele>
        <time>2015-01-04T08:35:44Z</time>
      </trkpt>
      <trkpt lat="48.64618" lon="-3.35496">
        <ele>96</ele>
        <time>2015-01-04T08:35:45Z</time>
      </trkpt>
      <trkpt lat="48.64621" lon="-3.35488">
        <ele>96</ele>
        <time>2015-01-04T08:35:46Z</time>
      </trkpt>
      <trkpt lat="48.64625" lon="-3.35479">
        <ele>96</ele>
        <time>2015-01-04T08:35:47Z</time>
      </trkpt>
      <trkpt lat="48.64628" lon="-3.3547">
        <ele>96</ele>
        <time>2015-01-04T08:35:48Z</time>
      </trkpt>
      <trkpt lat="48.64631" lon="-3.35462">
        <ele>96</ele>
        <time>2015-01-04T08:35:49Z</time>
      </trkpt>
      <trkpt lat="48.64634" lon="-3.35453">
        <ele>96</ele>
        <time>2015-01-04T08:35:50Z</time>
      </trkpt>
      <trkpt lat="48.64637" lon="-3.35444">
        <ele>96</ele>
        <time>2015-01-04T08:35:51Z</time>
      </trkpt>
      <trkpt lat="48.6464" lon="-3.35436">
        <ele>96</ele>
        <time>2015-01-04T08:35:52Z</time>
      </trkpt>
      <trkpt lat="48.64644" lon="-3.35427">
        <ele>96</ele>
        <time>2015-01-04T08:35:53Z</time>
      </trkpt>
      <trkpt lat="48.64647" lon="-3.35419">
        <ele>96</ele>
        <time>2015-01-04T08:35:54Z</time>
      </trkpt>
      <trkpt lat="48.64651" lon="-3.3541">
        <ele>96</ele>
        <time>2015-01-04T08:35:55Z</time>
      </trkpt>
      <trkpt lat="48.64654" lon="-3.35401">
        <ele>96</ele>
        <time>2015-01-04T08:35:56Z</time>
      </trkpt>
      <trkpt lat="48.64657" lon="-3.35393">
        <ele>96</ele>
        <time>2015-01-04T08:35:57Z</time>
      </trkpt>
      <trkpt lat="48.6466" lon="-3.35384">
        <ele>96</ele>
        <time>2015-01-04T08:35:58Z</time>
      </trkpt>
      <trkpt lat="48.64663" lon="-3.35375">
        <ele>96</ele>
        <time>2015-01-04T08:35:59Z</time>
      </trkpt>
      <trkpt lat="48.64666" lon="-3.35366">
        <ele>96</ele>
        <time>2015-01-04T08:36:00Z</time>
      </trkpt>
      <trkpt lat="48.64669" lon="-3.35357">
        <ele>96</ele>
        <time>2015-01-04T08:36:01Z</time>
      </trkpt>
      <trkpt lat="48.64672" lon="-3.35348">
        <ele>96</ele>
        <time>2015-01-04T08:36:02Z</time>
      </trkpt>
      <trkpt lat="48.64674" lon="-3.35338">
        <ele>96</ele>
        <time>2015-01-04T08:36:03Z</time>
      </trkpt>
      <trkpt lat="48.64677" lon="-3.35327">
        <ele>96</ele>
        <time>2015-01-04T08:36:04Z</time>
      </trkpt>
      <trkpt lat="48.64679" lon="-3.35317">
        <ele>96</ele>
        <time>2015-01-04T08:36:05Z</time>
      </trkpt>
      <trkpt lat="48.6468" lon="-3.35307">
        <ele>96</ele>
        <time>2015-01-04T08:36:06Z</time>
      </trkpt>
      <trkpt lat="48.64682" lon="-3.35296">
        <ele>96</ele>
        <time>2015-01-04T08:36:07Z</time>
      </trkpt>
      <trkpt lat="48.64683" lon="-3.35286">
        <ele>96</ele>
        <time>2015-01-04T08:36:08Z</time>
      </trkpt>
      <trkpt lat="48.64684" lon="-3.35275">
        <ele>96</ele>
        <time>2015-01-04T08:36:09Z</time>
      </trkpt>
      <trkpt lat="48.64685" lon="-3.35265">
        <ele>96</ele>
        <time>2015-01-04T08:36:10Z</time>
      </trkpt>
      <trkpt lat="48.64686" lon="-3.35255">
        <ele>96</ele>
        <time>2015-01-04T08:36:11Z</time>
      </trkpt>
      <trkpt lat="48.64687" lon="-3.35244">
        <ele>97</ele>
        <time>2015-01-04T08:36:12Z</time>
      </trkpt>
      <trkpt lat="48.64689" lon="-3.35234">
        <ele>97</ele>
        <time>2015-01-04T08:36:13Z</time>
      </trkpt>
      <trkpt lat="48.6469" lon="-3.35224">
        <ele>97</ele>
        <time>2015-01-04T08:36:14Z</time>
      </trkpt>
      <trkpt lat="48.64692" lon="-3.35214">
        <ele>97</ele>
        <time>2015-01-04T08:36:15Z</time>
      </trkpt>
      <trkpt lat="48.64694" lon="-3.35204">
        <ele>97</ele>
        <time>2015-01-04T08:36:16Z</time>
      </trkpt>
      <trkpt lat="48.64696" lon="-3.35194">
        <ele>97</ele>
        <time>2015-01-04T08:36:17Z</time>
      </trkpt>
      <trkpt lat="48.64698" lon="-3.35184">
        <ele>97</ele>
        <time>2015-01-04T08:36:18Z</time>
      </trkpt>
      <trkpt lat="48.647" lon="-3.35174">
        <ele>97</ele>
        <time>2015-01-04T08:36:19Z</time>
      </trkpt>
      <trkpt lat="48.64703" lon="-3.35164">
        <ele>97</ele>
        <time>2015-01-04T08:36:20Z</time>
      </trkpt>
      <trkpt lat="48.64705" lon="-3.35154">
        <ele>97</ele>
        <time>2015-01-04T08:36:21Z</time>
      </trkpt>
      <trkpt lat="48.64708" lon="-3.35145">
        <ele>97</ele>
        <time>2015-01-04T08:36:22Z</time>
      </trkpt>
      <trkpt lat="48.6471" lon="-3.35135">
        <ele>97</ele>
        <time>2015-01-04T08:36:23Z</time>
      </trkpt>
      <trkpt lat="48.64713" lon="-3.35125">
        <ele>97</ele>
        <time>2015-01-04T08:36:24Z</time>
      </trkpt>
      <trkpt lat="48.64715" lon="-3.35115">
        <ele>97</ele>
        <time>2015-01-04T08:36:25Z</time>
      </trkpt>
      <trkpt lat="48.64717" lon="-3.35104">
        <ele>97</ele>
        <time>2015-01-04T08:36:26Z</time>
      </trkpt>
      <trkpt lat="48.64719" lon="-3.35094">
        <ele>97</ele>
        <time>2015-01-04T08:36:27Z</time>
      </trkpt>
      <trkpt lat="48.64722" lon="-3.35084">
        <ele>97</ele>
        <time>2015-01-04T08:36:28Z</time>
      </trkpt>
      <trkpt lat="48.64724" lon="-3.35074">
        <ele>98</ele>
        <time>2015-01-04T08:36:29Z</time>
      </trkpt>
      <trkpt lat="48.64727" lon="-3.35064">
        <ele>98</ele>
        <time>2015-01-04T08:36:30Z</time>
      </trkpt>
      <trkpt lat="48.6473" lon="-3.35054">
        <ele>98</ele>
        <time>2015-01-04T08:36:31Z</time>
      </trkpt>
      <trkpt lat="48.64732" lon="-3.35044">
        <ele>98</ele>
        <time>2015-01-04T08:36:32Z</time>
      </trkpt>
      <trkpt lat="48.64734" lon="-3.35034">
        <ele>98</ele>
        <time>2015-01-04T08:36:33Z</time>
      </trkpt>
      <trkpt lat="48.64736" lon="-3.35024">
        <ele>98</ele>
        <time>2015-01-04T08:36:34Z</time>
      </trkpt>
      <trkpt lat="48.64739" lon="-3.35014">
        <ele>98</ele>
        <time>2015-01-04T08:36:35Z</time>
      </trkpt>
      <trkpt lat="48.64741" lon="-3.35004">
        <ele>98</ele>
        <time>2015-01-04T08:36:36Z</time>
      </trkpt>
      <trkpt lat="48.64743" lon="-3.34994">
        <ele>98</ele>
        <time>2015-01-04T08:36:37Z</time>
      </trkpt>
      <trkpt lat="48.64746" lon="-3.34985">
        <ele>98</ele>
        <time>2015-01-04T08:36:38Z</time>
      </trkpt>
      <trkpt lat="48.64748" lon="-3.34975">
        <ele>99</ele>
        <time>2015-01-04T08:36:39Z</time>
      </trkpt>
      <trkpt lat="48.64751" lon="-3.34965">
        <ele>99</ele>
        <time>2015-01-04T08:36:40Z</time>
      </trkpt>
      <trkpt lat="48.64753" lon="-3.34956">
        <ele>99</ele>
        <time>2015-01-04T08:36:41Z</time>
      </trkpt>
      <trkpt lat="48.64756" lon="-3.34947">
        <ele>99</ele>
        <time>2015-01-04T08:36:42Z</time>
      </trkpt>
      <trkpt lat="48.64758" lon="-3.34937">
        <ele>100</ele>
        <time>2015-01-04T08:36:43Z</time>
      </trkpt>
      <trkpt lat="48.64761" lon="-3.34928">
        <ele>100</ele>
        <time>2015-01-04T08:36:44Z</time>
      </trkpt>
      <trkpt lat="48.64763" lon="-3.34919">
        <ele>100</ele>
        <time>2015-01-04T08:36:45Z</time>
      </trkpt>
      <trkpt lat="48.64766" lon="-3.34909">
        <ele>100</ele>
        <time>2015-01-04T08:36:46Z</time>
      </trkpt>
      <trkpt lat="48.64769" lon="-3.349">
        <ele>100</ele>
        <time>2015-01-04T08:36:47Z</time>
      </trkpt>
      <trkpt lat="48.64771" lon="-3.34891">
        <ele>100</ele>
        <time>2015-01-04T08:36:48Z</time>
      </trkpt>
      <trkpt lat="48.64774" lon="-3.34882">
        <ele>101</ele>
        <time>2015-01-04T08:36:49Z</time>
      </trkpt>
      <trkpt lat="48.64777" lon="-3.34874">
        <ele>101</ele>
        <time>2015-01-04T08:36:50Z</time>
      </trkpt>
      <trkpt lat="48.64781" lon="-3.34865">
        <ele>101</ele>
        <time>2015-01-04T08:36:51Z</time>
      </trkpt>
      <trkpt lat="48.64784" lon="-3.34856">
        <ele>101</ele>
        <time>2015-01-04T08:36:52Z</time>
      </trkpt>
      <trkpt lat="48.64788" lon="-3.34848">
        <ele>102</ele>
        <time>2015-01-04T08:36:53Z</time>
      </trkpt>
      <trkpt lat="48.64792" lon="-3.34841">
        <ele>102</ele>
        <time>2015-01-04T08:36:54Z</time>
      </trkpt>
      <trkpt lat="48.64797" lon="-3.34834">
        <ele>102</ele>
        <time>2015-01-04T08:36:55Z</time>
      </trkpt>
      <trkpt lat="48.64803" lon="-3.34827">
        <ele>102</ele>
        <time>2015-01-04T08:36:56Z</time>
      </trkpt>
      <trkpt lat="48.64808" lon="-3.34822">
        <ele>102</ele>
        <time>2015-01-04T08:36:57Z</time>
      </trkpt>
      <trkpt lat="48.64814" lon="-3.34817">
        <ele>102</ele>
        <time>2015-01-04T08:36:58Z</time>
      </trkpt>
      <trkpt lat="48.6482" lon="-3.34811">
        <ele>102</ele>
        <time>2015-01-04T08:36:59Z</time>
      </trkpt>
      <trkpt lat="48.64826" lon="-3.34807">
        <ele>102</ele>
        <time>2015-01-04T08:37:00Z</time>
      </trkpt>
      <trkpt lat="48.64832" lon="-3.34802">
        <ele>103</ele>
        <time>2015-01-04T08:37:01Z</time>
      </trkpt>
      <trkpt lat="48.64838" lon="-3.34797">
        <ele>103</ele>
        <time>2015-01-04T08:37:02Z</time>
      </trkpt>
      <trkpt lat="48.64844" lon="-3.34792">
        <ele>103</ele>
        <time>2015-01-04T08:37:03Z</time>
      </trkpt>
      <trkpt lat="48.6485" lon="-3.34787">
        <ele>103</ele>
        <time>2015-01-04T08:37:04Z</time>
      </trkpt>
      <trkpt lat="48.64857" lon="-3.34782">
        <ele>103</ele>
        <time>2015-01-04T08:37:05Z</time>
      </trkpt>
      <trkpt lat="48.64863" lon="-3.34778">
        <ele>103</ele>
        <time>2015-01-04T08:37:06Z</time>
      </trkpt>
      <trkpt lat="48.6487" lon="-3.34775">
        <ele>103</ele>
        <time>2015-01-04T08:37:07Z</time>
      </trkpt>
      <trkpt lat="48.64877" lon="-3.34772">
        <ele>103</ele>
        <time>2015-01-04T08:37:08Z</time>
      </trkpt>
      <trkpt lat="48.64884" lon="-3.34769">
        <ele>103</ele>
        <time>2015-01-04T08:37:09Z</time>
      </trkpt>
      <trkpt lat="48.64891" lon="-3.34766">
        <ele>103</ele>
        <time>2015-01-04T08:37:10Z</time>
      </trkpt>
      <trkpt lat="48.64898" lon="-3.34764">
        <ele>103</ele>
        <time>2015-01-04T08:37:11Z</time>
      </trkpt>
      <trkpt lat="48.64906" lon="-3.34762">
        <ele>103</ele>
        <time>2015-01-04T08:37:12Z</time>
      </trkpt>
      <trkpt lat="48.64913" lon="-3.34759">
        <ele>103</ele>
        <time>2015-01-04T08:37:13Z</time>
      </trkpt>
      <trkpt lat="48.6492" lon="-3.34757">
        <ele>103</ele>
        <time>2015-01-04T08:37:14Z</time>
      </trkpt>
      <trkpt lat="48.64927" lon="-3.34754">
        <ele>103</ele>
        <time>2015-01-04T08:37:15Z</time>
      </trkpt>
      <trkpt lat="48.64934" lon="-3.34752">
        <ele>103</ele>
        <time>2015-01-04T08:37:16Z</time>
      </trkpt>
      <trkpt lat="48.6494" lon="-3.34749">
        <ele>103</ele>
        <time>2015-01-04T08:37:17Z</time>
      </trkpt>
      <trkpt lat="48.64947" lon="-3.34745">
        <ele>104</ele>
        <time>2015-01-04T08:37:18Z</time>
      </trkpt>
      <trkpt lat="48.64954" lon="-3.34742">
        <ele>104</ele>
        <time>2015-01-04T08:37:19Z</time>
      </trkpt>
      <trkpt lat="48.6496" lon="-3.34738">
        <ele>104</ele>
        <time>2015-01-04T08:37:20Z</time>
      </trkpt>
      <trkpt lat="48.64967" lon="-3.34734">
        <ele>104</ele>
        <time>2015-01-04T08:37:21Z</time>
      </trkpt>
      <trkpt lat="48.64974" lon="-3.3473">
        <ele>104</ele>
        <time>2015-01-04T08:37:22Z</time>
      </trkpt>
      <trkpt lat="48.6498" lon="-3.34726">
        <ele>104</ele>
        <time>2015-01-04T08:37:23Z</time>
      </trkpt>
      <trkpt lat="48.64987" lon="-3.34721">
        <ele>104</ele>
        <time>2015-01-04T08:37:24Z</time>
      </trkpt>
      <trkpt lat="48.64994" lon="-3.34716">
        <ele>104</ele>
        <time>2015-01-04T08:37:25Z</time>
      </trkpt>
      <trkpt lat="48.65001" lon="-3.34711">
        <ele>104</ele>
        <time>2015-01-04T08:37:26Z</time>
      </trkpt>
      <trkpt lat="48.65007" lon="-3.34706">
        <ele>104</ele>
        <time>2015-01-04T08:37:27Z</time>
      </trkpt>
      <trkpt lat="48.65014" lon="-3.34702">
        <ele>104</ele>
        <time>2015-01-04T08:37:28Z</time>
      </trkpt>
      <trkpt lat="48.65021" lon="-3.34698">
        <ele>104</ele>
        <time>2015-01-04T08:37:29Z</time>
      </trkpt>
      <trkpt lat="48.65028" lon="-3.34694">
        <ele>104</ele>
        <time>2015-01-04T08:37:30Z</time>
      </trkpt>
      <trkpt lat="48.65034" lon="-3.3469">
        <ele>104</ele>
        <time>2015-01-04T08:37:31Z</time>
      </trkpt>
      <trkpt lat="48.65041" lon="-3.34687">
        <ele>104</ele>
        <time>2015-01-04T08:37:32Z</time>
      </trkpt>
      <trkpt lat="48.65048" lon="-3.34683">
        <ele>104</ele>
        <time>2015-01-04T08:37:33Z</time>
      </trkpt>
      <trkpt lat="48.65054" lon="-3.3468">
        <ele>104</ele>
        <time>2015-01-04T08:37:34Z</time>
      </trkpt>
      <trkpt lat="48.65061" lon="-3.34676">
        <ele>104</ele>
        <time>2015-01-04T08:37:35Z</time>
      </trkpt>
      <trkpt lat="48.65068" lon="-3.34673">
        <ele>104</ele>
        <time>2015-01-04T08:37:36Z</time>
      </trkpt>
      <trkpt lat="48.65075" lon="-3.34669">
        <ele>104</ele>
        <time>2015-01-04T08:37:37Z</time>
      </trkpt>
      <trkpt lat="48.65082" lon="-3.34665">
        <ele>104</ele>
        <time>2015-01-04T08:37:38Z</time>
      </trkpt>
      <trkpt lat="48.65089" lon="-3.34662">
        <ele>104</ele>
        <time>2015-01-04T08:37:39Z</time>
      </trkpt>
      <trkpt lat="48.65096" lon="-3.34657">
        <ele>104</ele>
        <time>2015-01-04T08:37:40Z</time>
      </trkpt>
      <trkpt lat="48.65103" lon="-3.34653">
        <ele>104</ele>
        <time>2015-01-04T08:37:41Z</time>
      </trkpt>
      <trkpt lat="48.6511" lon="-3.34649">
        <ele>104</ele>
        <time>2015-01-04T08:37:42Z</time>
      </trkpt>
      <trkpt lat="48.65118" lon="-3.34645">
        <ele>104</ele>
        <time>2015-01-04T08:37:43Z</time>
      </trkpt>
      <trkpt lat="48.65125" lon="-3.34641">
        <ele>104</ele>
        <time>2015-01-04T08:37:44Z</time>
      </trkpt>
      <trkpt lat="48.65132" lon="-3.34637">
        <ele>104</ele>
        <time>2015-01-04T08:37:45Z</time>
      </trkpt>
      <trkpt lat="48.65139" lon="-3.34632">
        <ele>104</ele>
        <time>2015-01-04T08:37:46Z</time>
      </trkpt>
      <trkpt lat="48.65147" lon="-3.34628">
        <ele>104</ele>
        <time>2015-01-04T08:37:47Z</time>
      </trkpt>
      <trkpt lat="48.65154" lon="-3.34623">
        <ele>104</ele>
        <time>2015-01-04T08:37:48Z</time>
      </trkpt>
      <trkpt lat="48.65161" lon="-3.34618">
        <ele>104</ele>
        <time>2015-01-04T08:37:49Z</time>
      </trkpt>
      <trkpt lat="48.65168" lon="-3.34613">
        <ele>104</ele>
        <time>2015-01-04T08:37:50Z</time>
      </trkpt>
      <trkpt lat="48.65176" lon="-3.34607">
        <ele>104</ele>
        <time>2015-01-04T08:37:51Z</time>
      </trkpt>
      <trkpt lat="48.65183" lon="-3.34601">
        <ele>104</ele>
        <time>2015-01-04T08:37:52Z</time>
      </trkpt>
      <trkpt lat="48.65189" lon="-3.34595">
        <ele>104</ele>
        <time>2015-01-04T08:37:53Z</time>
      </trkpt>
      <trkpt lat="48.65196" lon="-3.34588">
        <ele>104</ele>
        <time>2015-01-04T08:37:54Z</time>
      </trkpt>
      <trkpt lat="48.65202" lon="-3.3458">
        <ele>104</ele>
        <time>2015-01-04T08:37:55Z</time>
      </trkpt>
      <trkpt lat="48.65208" lon="-3.34573">
        <ele>104</ele>
        <time>2015-01-04T08:37:56Z</time>
      </trkpt>
      <trkpt lat="48.65214" lon="-3.34565">
        <ele>104</ele>
        <time>2015-01-04T08:37:57Z</time>
      </trkpt>
      <trkpt lat="48.6522" lon="-3.34557">
        <ele>104</ele>
        <time>2015-01-04T08:37:58Z</time>
      </trkpt>
      <trkpt lat="48.65226" lon="-3.3455">
        <ele>104</ele>
        <time>2015-01-04T08:37:59Z</time>
      </trkpt>
      <trkpt lat="48.65231" lon="-3.34541">
        <ele>104</ele>
        <time>2015-01-04T08:38:00Z</time>
      </trkpt>
      <trkpt lat="48.65237" lon="-3.34533">
        <ele>104</ele>
        <time>2015-01-04T08:38:01Z</time>
      </trkpt>
      <trkpt lat="48.65242" lon="-3.34525">
        <ele>104</ele>
        <time>2015-01-04T08:38:02Z</time>
      </trkpt>
      <trkpt lat="48.65248" lon="-3.34517">
        <ele>104</ele>
        <time>2015-01-04T08:38:03Z</time>
      </trkpt>
      <trkpt lat="48.65253" lon="-3.34509">
        <ele>104</ele>
        <time>2015-01-04T08:38:04Z</time>
      </trkpt>
      <trkpt lat="48.65259" lon="-3.34502">
        <ele>104</ele>
        <time>2015-01-04T08:38:05Z</time>
      </trkpt>
      <trkpt lat="48.65265" lon="-3.34495">
        <ele>104</ele>
        <time>2015-01-04T08:38:06Z</time>
      </trkpt>
      <trkpt lat="48.65271" lon="-3.34488">
        <ele>104</ele>
        <time>2015-01-04T08:38:07Z</time>
      </trkpt>
      <trkpt lat="48.65277" lon="-3.34481">
        <ele>104</ele>
        <time>2015-01-04T08:38:08Z</time>
      </trkpt>
      <trkpt lat="48.65283" lon="-3.34475">
        <ele>104</ele>
        <time>2015-01-04T08:38:09Z</time>
      </trkpt>
      <trkpt lat="48.6529" lon="-3.34469">
        <ele>104</ele>
        <time>2015-01-04T08:38:10Z</time>
      </trkpt>
      <trkpt lat="48.65296" lon="-3.34463">
        <ele>104</ele>
        <time>2015-01-04T08:38:11Z</time>
      </trkpt>
      <trkpt lat="48.65303" lon="-3.34458">
        <ele>104</ele>
        <time>2015-01-04T08:38:12Z</time>
      </trkpt>
      <trkpt lat="48.65309" lon="-3.34453">
        <ele>104</ele>
        <time>2015-01-04T08:38:13Z</time>
      </trkpt>
      <trkpt lat="48.65316" lon="-3.34448">
        <ele>104</ele>
        <time>2015-01-04T08:38:14Z</time>
      </trkpt>
      <trkpt lat="48.65322" lon="-3.34444">
        <ele>104</ele>
        <time>2015-01-04T08:38:15Z</time>
      </trkpt>
      <trkpt lat="48.65329" lon="-3.34439">
        <ele>104</ele>
        <time>2015-01-04T08:38:16Z</time>
      </trkpt>
      <trkpt lat="48.65336" lon="-3.34434">
        <ele>104</ele>
        <time>2015-01-04T08:38:17Z</time>
      </trkpt>
      <trkpt lat="48.65342" lon="-3.34429">
        <ele>104</ele>
        <time>2015-01-04T08:38:18Z</time>
      </trkpt>
      <trkpt lat="48.65349" lon="-3.34423">
        <ele>104</ele>
        <time>2015-01-04T08:38:19Z</time>
      </trkpt>
      <trkpt lat="48.65355" lon="-3.34417">
        <ele>104</ele>
        <time>2015-01-04T08:38:20Z</time>
      </trkpt>
      <trkpt lat="48.65361" lon="-3.34409">
        <ele>104</ele>
        <time>2015-01-04T08:38:21Z</time>
      </trkpt>
      <trkpt lat="48.65366" lon="-3.34402">
        <ele>104</ele>
        <time>2015-01-04T08:38:22Z</time>
      </trkpt>
      <trkpt lat="48.65372" lon="-3.34394">
        <ele>104</ele>
        <time>2015-01-04T08:38:23Z</time>
      </trkpt>
      <trkpt lat="48.65377" lon="-3.34385">
        <ele>104</ele>
        <time>2015-01-04T08:38:24Z</time>
      </trkpt>
      <trkpt lat="48.65381" lon="-3.34376">
        <ele>104</ele>
        <time>2015-01-04T08:38:25Z</time>
      </trkpt>
      <trkpt lat="48.65385" lon="-3.34367">
        <ele>104</ele>
        <time>2015-01-04T08:38:26Z</time>
      </trkpt>
      <trkpt lat="48.6539" lon="-3.34357">
        <ele>104</ele>
        <time>2015-01-04T08:38:27Z</time>
      </trkpt>
      <trkpt lat="48.65394" lon="-3.34347">
        <ele>104</ele>
        <time>2015-01-04T08:38:28Z</time>
      </trkpt>
      <trkpt lat="48.65398" lon="-3.34338">
        <ele>104</ele>
        <time>2015-01-04T08:38:29Z</time>
      </trkpt>
      <trkpt lat="48.65402" lon="-3.34328">
        <ele>104</ele>
        <time>2015-01-04T08:38:30Z</time>
      </trkpt>
      <trkpt lat="48.65406" lon="-3.34319">
        <ele>104</ele>
        <time>2015-01-04T08:38:31Z</time>
      </trkpt>
      <trkpt lat="48.65411" lon="-3.34309">
        <ele>104</ele>
        <time>2015-01-04T08:38:32Z</time>
      </trkpt>
      <trkpt lat="48.65415" lon="-3.343">
        <ele>104</ele>
        <time>2015-01-04T08:38:33Z</time>
      </trkpt>
      <trkpt lat="48.6542" lon="-3.34291">
        <ele>104</ele>
        <time>2015-01-04T08:38:34Z</time>
      </trkpt>
      <trkpt lat="48.65424" lon="-3.34281">
        <ele>104</ele>
        <time>2015-01-04T08:38:35Z</time>
      </trkpt>
      <trkpt lat="48.65428" lon="-3.34272">
        <ele>104</ele>
        <time>2015-01-04T08:38:36Z</time>
      </trkpt>
      <trkpt lat="48.65433" lon="-3.34263">
        <ele>104</ele>
        <time>2015-01-04T08:38:37Z</time>
      </trkpt>
      <trkpt lat="48.65437" lon="-3.34254">
        <ele>104</ele>
        <time>2015-01-04T08:38:38Z</time>
      </trkpt>
      <trkpt lat="48.65441" lon="-3.34245">
        <ele>104</ele>
        <time>2015-01-04T08:38:39Z</time>
      </trkpt>
      <trkpt lat="48.65445" lon="-3.34235">
        <ele>104</ele>
        <time>2015-01-04T08:38:40Z</time>
      </trkpt>
      <trkpt lat="48.6545" lon="-3.34226">
        <ele>104</ele>
        <time>2015-01-04T08:38:41Z</time>
      </trkpt>
      <trkpt lat="48.65453" lon="-3.34216">
        <ele>104</ele>
        <time>2015-01-04T08:38:42Z</time>
      </trkpt>
      <trkpt lat="48.65457" lon="-3.34206">
        <ele>104</ele>
        <time>2015-01-04T08:38:43Z</time>
      </trkpt>
      <trkpt lat="48.65461" lon="-3.34196">
        <ele>104</ele>
        <time>2015-01-04T08:38:44Z</time>
      </trkpt>
      <trkpt lat="48.65465" lon="-3.34186">
        <ele>104</ele>
        <time>2015-01-04T08:38:45Z</time>
      </trkpt>
      <trkpt lat="48.65468" lon="-3.34175">
        <ele>104</ele>
        <time>2015-01-04T08:38:46Z</time>
      </trkpt>
      <trkpt lat="48.65471" lon="-3.34165">
        <ele>104</ele>
        <time>2015-01-04T08:38:47Z</time>
      </trkpt>
      <trkpt lat="48.65474" lon="-3.34154">
        <ele>104</ele>
        <time>2015-01-04T08:38:48Z</time>
      </trkpt>
      <trkpt lat="48.65478" lon="-3.34143">
        <ele>104</ele>
        <time>2015-01-04T08:38:49Z</time>
      </trkpt>
      <trkpt lat="48.65481" lon="-3.34132">
        <ele>104</ele>
        <time>2015-01-04T08:38:50Z</time>
      </trkpt>
      <trkpt lat="48.65484" lon="-3.34121">
        <ele>104</ele>
        <time>2015-01-04T08:38:51Z</time>
      </trkpt>
      <trkpt lat="48.65487" lon="-3.34111">
        <ele>104</ele>
        <time>2015-01-04T08:38:52Z</time>
      </trkpt>
      <trkpt lat="48.6549" lon="-3.341">
        <ele>104</ele>
        <time>2015-01-04T08:38:53Z</time>
      </trkpt>
      <trkpt lat="48.65493" lon="-3.34089">
        <ele>104</ele>
        <time>2015-01-04T08:38:54Z</time>
      </trkpt>
      <trkpt lat="48.65496" lon="-3.34078">
        <ele>104</ele>
        <time>2015-01-04T08:38:55Z</time>
      </trkpt>
      <trkpt lat="48.65498" lon="-3.34067">
        <ele>104</ele>
        <time>2015-01-04T08:38:56Z</time>
      </trkpt>
      <trkpt lat="48.65501" lon="-3.34056">
        <ele>104</ele>
        <time>2015-01-04T08:38:57Z</time>
      </trkpt>
      <trkpt lat="48.65505" lon="-3.34045">
        <ele>104</ele>
        <time>2015-01-04T08:38:58Z</time>
      </trkpt>
      <trkpt lat="48.65509" lon="-3.34035">
        <ele>104</ele>
        <time>2015-01-04T08:38:59Z</time>
      </trkpt>
      <trkpt lat="48.65514" lon="-3.34025">
        <ele>104</ele>
        <time>2015-01-04T08:39:00Z</time>
      </trkpt>
      <trkpt lat="48.65519" lon="-3.34017">
        <ele>104</ele>
        <time>2015-01-04T08:39:01Z</time>
      </trkpt>
      <trkpt lat="48.65525" lon="-3.34009">
        <ele>104</ele>
        <time>2015-01-04T08:39:02Z</time>
      </trkpt>
      <trkpt lat="48.6553" lon="-3.34">
        <ele>104</ele>
        <time>2015-01-04T08:39:03Z</time>
      </trkpt>
      <trkpt lat="48.65537" lon="-3.33993">
        <ele>104</ele>
        <time>2015-01-04T08:39:04Z</time>
      </trkpt>
      <trkpt lat="48.65543" lon="-3.33986">
        <ele>104</ele>
        <time>2015-01-04T08:39:05Z</time>
      </trkpt>
      <trkpt lat="48.65549" lon="-3.33979">
        <ele>104</ele>
        <time>2015-01-04T08:39:06Z</time>
      </trkpt>
      <trkpt lat="48.65555" lon="-3.33972">
        <ele>104</ele>
        <time>2015-01-04T08:39:07Z</time>
      </trkpt>
      <trkpt lat="48.65562" lon="-3.33965">
        <ele>104</ele>
        <time>2015-01-04T08:39:08Z</time>
      </trkpt>
      <trkpt lat="48.65569" lon="-3.33959">
        <ele>104</ele>
        <time>2015-01-04T08:39:09Z</time>
      </trkpt>
      <trkpt lat="48.65575" lon="-3.33953">
        <ele>104</ele>
        <time>2015-01-04T08:39:10Z</time>
      </trkpt>
      <trkpt lat="48.65583" lon="-3.33948">
        <ele>104</ele>
        <time>2015-01-04T08:39:11Z</time>
      </trkpt>
      <trkpt lat="48.6559" lon="-3.33944">
        <ele>104</ele>
        <time>2015-01-04T08:39:12Z</time>
      </trkpt>
      <trkpt lat="48.65597" lon="-3.3394">
        <ele>104</ele>
        <time>2015-01-04T08:39:13Z</time>
      </trkpt>
      <trkpt lat="48.65605" lon="-3.33936">
        <ele>104</ele>
        <time>2015-01-04T08:39:14Z</time>
      </trkpt>
      <trkpt lat="48.65612" lon="-3.33933">
        <ele>104</ele>
        <time>2015-01-04T08:39:15Z</time>
      </trkpt>
      <trkpt lat="48.6562" lon="-3.33931">
        <ele>104</ele>
        <time>2015-01-04T08:39:16Z</time>
      </trkpt>
      <trkpt lat="48.65628" lon="-3.33929">
        <ele>104</ele>
        <time>2015-01-04T08:39:17Z</time>
      </trkpt>
      <trkpt lat="48.65635" lon="-3.33927">
        <ele>104</ele>
        <time>2015-01-04T08:39:18Z</time>
      </trkpt>
      <trkpt lat="48.65643" lon="-3.33925">
        <ele>104</ele>
        <time>2015-01-04T08:39:19Z</time>
      </trkpt>
      <trkpt lat="48.6565" lon="-3.33924">
        <ele>104</ele>
        <time>2015-01-04T08:39:20Z</time>
      </trkpt>
      <trkpt lat="48.65657" lon="-3.33922">
        <ele>104</ele>
        <time>2015-01-04T08:39:21Z</time>
      </trkpt>
      <trkpt lat="48.65665" lon="-3.3392">
        <ele>104</ele>
        <time>2015-01-04T08:39:22Z</time>
      </trkpt>
      <trkpt lat="48.65672" lon="-3.33917">
        <ele>104</ele>
        <time>2015-01-04T08:39:23Z</time>
      </trkpt>
      <trkpt lat="48.65678" lon="-3.33914">
        <ele>104</ele>
        <time>2015-01-04T08:39:24Z</time>
      </trkpt>
      <trkpt lat="48.65685" lon="-3.33911">
        <ele>104</ele>
        <time>2015-01-04T08:39:25Z</time>
      </trkpt>
      <trkpt lat="48.65691" lon="-3.33908">
        <ele>104</ele>
        <time>2015-01-04T08:39:26Z</time>
      </trkpt>
      <trkpt lat="48.65697" lon="-3.33904">
        <ele>104</ele>
        <time>2015-01-04T08:39:27Z</time>
      </trkpt>
      <trkpt lat="48.65703" lon="-3.33901">
        <ele>104</ele>
        <time>2015-01-04T08:39:28Z</time>
      </trkpt>
      <trkpt lat="48.65708" lon="-3.33896">
        <ele>104</ele>
        <time>2015-01-04T08:39:29Z</time>
      </trkpt>
      <trkpt lat="48.65713" lon="-3.33892">
        <ele>104</ele>
        <time>2015-01-04T08:39:30Z</time>
      </trkpt>
      <trkpt lat="48.65718" lon="-3.33888">
        <ele>104</ele>
        <time>2015-01-04T08:39:31Z</time>
      </trkpt>
      <trkpt lat="48.65723" lon="-3.33884">
        <ele>104</ele>
        <time>2015-01-04T08:39:32Z</time>
      </trkpt>
      <trkpt lat="48.65727" lon="-3.33879">
        <ele>104</ele>
        <time>2015-01-04T08:39:33Z</time>
      </trkpt>
      <trkpt lat="48.65731" lon="-3.33874">
        <ele>104</ele>
        <time>2015-01-04T08:39:34Z</time>
      </trkpt>
      <trkpt lat="48.65734" lon="-3.33867">
        <ele>104</ele>
        <time>2015-01-04T08:39:35Z</time>
      </trkpt>
      <trkpt lat="48.65737" lon="-3.3386">
        <ele>104</ele>
        <time>2015-01-04T08:39:36Z</time>
      </trkpt>
      <trkpt lat="48.65738" lon="-3.33852">
        <ele>104</ele>
        <time>2015-01-04T08:39:37Z</time>
      </trkpt>
      <trkpt lat="48.65738" lon="-3.33844">
        <ele>104</ele>
        <time>2015-01-04T08:39:38Z</time>
      </trkpt>
      <trkpt lat="48.65738" lon="-3.33837">
        <ele>104</ele>
        <time>2015-01-04T08:39:39Z</time>
      </trkpt>
      <trkpt lat="48.65736" lon="-3.33831">
        <ele>104</ele>
        <time>2015-01-04T08:39:40Z</time>
      </trkpt>
      <trkpt lat="48.65733" lon="-3.33825">
        <ele>104</ele>
        <time>2015-01-04T08:39:41Z</time>
      </trkpt>
      <trkpt lat="48.6573" lon="-3.33819">
        <ele>104</ele>
        <time>2015-01-04T08:39:42Z</time>
      </trkpt>
      <trkpt lat="48.65726" lon="-3.33814">
        <ele>104</ele>
        <time>2015-01-04T08:39:43Z</time>
      </trkpt>
      <trkpt lat="48.65722" lon="-3.33808">
        <ele>104</ele>
        <time>2015-01-04T08:39:44Z</time>
      </trkpt>
      <trkpt lat="48.65716" lon="-3.33803">
        <ele>104</ele>
        <time>2015-01-04T08:39:45Z</time>
      </trkpt>
      <trkpt lat="48.6571" lon="-3.33799">
        <ele>104</ele>
        <time>2015-01-04T08:39:46Z</time>
      </trkpt>
      <trkpt lat="48.65704" lon="-3.33797">
        <ele>104</ele>
        <time>2015-01-04T08:39:47Z</time>
      </trkpt>
      <trkpt lat="48.65698" lon="-3.33795">
        <ele>104</ele>
        <time>2015-01-04T08:39:48Z</time>
      </trkpt>
      <trkpt lat="48.65692" lon="-3.33793">
        <ele>104</ele>
        <time>2015-01-04T08:39:49Z</time>
      </trkpt>
      <trkpt lat="48.65685" lon="-3.33792">
        <ele>104</ele>
        <time>2015-01-04T08:39:50Z</time>
      </trkpt>
      <trkpt lat="48.65679" lon="-3.33791">
        <ele>104</ele>
        <time>2015-01-04T08:39:51Z</time>
      </trkpt>
      <trkpt lat="48.65672" lon="-3.3379">
        <ele>104</ele>
        <time>2015-01-04T08:39:52Z</time>
      </trkpt>
      <trkpt lat="48.65666" lon="-3.33789">
        <ele>104</ele>
        <time>2015-01-04T08:39:53Z</time>
      </trkpt>
      <trkpt lat="48.6566" lon="-3.33788">
        <ele>104</ele>
        <time>2015-01-04T08:39:54Z</time>
      </trkpt>
      <trkpt lat="48.65655" lon="-3.33787">
        <ele>104</ele>
        <time>2015-01-04T08:39:55Z</time>
      </trkpt>
      <trkpt lat="48.6565" lon="-3.33787">
        <ele>104</ele>
        <time>2015-01-04T08:39:56Z</time>
      </trkpt>
      <trkpt lat="48.65646" lon="-3.33786">
        <ele>104</ele>
        <time>2015-01-04T08:39:57Z</time>
      </trkpt>
      <trkpt lat="48.65641" lon="-3.33786">
        <ele>104</ele>
        <time>2015-01-04T08:39:58Z</time>
      </trkpt>
      <trkpt lat="48.65637" lon="-3.33785">
        <ele>104</ele>
        <time>2015-01-04T08:39:59Z</time>
      </trkpt>
      <trkpt lat="48.65634" lon="-3.33784">
        <ele>104</ele>
        <time>2015-01-04T08:40:00Z</time>
      </trkpt>
      <trkpt lat="48.65629" lon="-3.33785">
        <ele>104</ele>
        <time>2015-01-04T08:40:02Z</time>
      </trkpt>
      <trkpt lat="48.65627" lon="-3.33785">
        <ele>104</ele>
        <time>2015-01-04T08:40:03Z</time>
      </trkpt>
      <trkpt lat="48.65625" lon="-3.33785">
        <ele>104</ele>
        <time>2015-01-04T08:40:04Z</time>
      </trkpt>
      <trkpt lat="48.65623" lon="-3.33784">
        <ele>104</ele>
        <time>2015-01-04T08:40:05Z</time>
      </trkpt>
      <trkpt lat="48.65622" lon="-3.33785">
        <ele>104</ele>
        <time>2015-01-04T08:40:06Z</time>
      </trkpt>
      <trkpt lat="48.6562" lon="-3.33785">
        <ele>104</ele>
        <time>2015-01-04T08:40:07Z</time>
      </trkpt>
      <trkpt lat="48.65619" lon="-3.33785">
        <ele>104</ele>
        <time>2015-01-04T08:40:08Z</time>
      </trkpt>
      <trkpt lat="48.65617" lon="-3.33785">
        <ele>104</ele>
        <time>2015-01-04T08:40:09Z</time>
      </trkpt>
      <trkpt lat="48.65616" lon="-3.33785">
        <ele>104</ele>
        <time>2015-01-04T08:40:10Z</time>
      </trkpt>
      <trkpt lat="48.65615" lon="-3.33785">
        <ele>104</ele>
        <time>2015-01-04T08:40:11Z</time>
      </trkpt>
      <trkpt lat="48.65565" lon="-3.33774">
        <ele>106</ele>
        <time>2015-01-04T08:40:13Z</time>
      </trkpt>
      <trkpt lat="48.6556" lon="-3.33773">
        <ele>106</ele>
        <time>2015-01-04T08:40:14Z</time>
      </trkpt>
      <trkpt lat="48.65555" lon="-3.33771">
        <ele>106</ele>
        <time>2015-01-04T08:40:15Z</time>
      </trkpt>
      <trkpt lat="48.65549" lon="-3.3377">
        <ele>106</ele>
        <time>2015-01-04T08:40:16Z</time>
      </trkpt>
      <trkpt lat="48.65544" lon="-3.33769">
        <ele>106</ele>
        <time>2015-01-04T08:40:17Z</time>
      </trkpt>
      <trkpt lat="48.65538" lon="-3.33768">
        <ele>106</ele>
        <time>2015-01-04T08:40:18Z</time>
      </trkpt>
      <trkpt lat="48.65532" lon="-3.33767">
        <ele>106</ele>
        <time>2015-01-04T08:40:19Z</time>
      </trkpt>
      <trkpt lat="48.65526" lon="-3.33766">
        <ele>106</ele>
        <time>2015-01-04T08:40:20Z</time>
      </trkpt>
      <trkpt lat="48.65519" lon="-3.33765">
        <ele>106</ele>
        <time>2015-01-04T08:40:21Z</time>
      </trkpt>
      <trkpt lat="48.65513" lon="-3.33763">
        <ele>106</ele>
        <time>2015-01-04T08:40:22Z</time>
      </trkpt>
      <trkpt lat="48.65506" lon="-3.33762">
        <ele>106</ele>
        <time>2015-01-04T08:40:23Z</time>
      </trkpt>
      <trkpt lat="48.655" lon="-3.3376">
        <ele>106</ele>
        <time>2015-01-04T08:40:24Z</time>
      </trkpt>
      <trkpt lat="48.65493" lon="-3.33757">
        <ele>106</ele>
        <time>2015-01-04T08:40:25Z</time>
      </trkpt>
      <trkpt lat="48.65487" lon="-3.33754">
        <ele>106</ele>
        <time>2015-01-04T08:40:26Z</time>
      </trkpt>
      <trkpt lat="48.6548" lon="-3.33752">
        <ele>106</ele>
        <time>2015-01-04T08:40:27Z</time>
      </trkpt>
      <trkpt lat="48.65474" lon="-3.33748">
        <ele>106</ele>
        <time>2015-01-04T08:40:28Z</time>
      </trkpt>
      <trkpt lat="48.65468" lon="-3.33745">
        <ele>106</ele>
        <time>2015-01-04T08:40:29Z</time>
      </trkpt>
      <trkpt lat="48.65461" lon="-3.33742">
        <ele>106</ele>
        <time>2015-01-04T08:40:30Z</time>
      </trkpt>
      <trkpt lat="48.65455" lon="-3.33738">
        <ele>106</ele>
        <time>2015-01-04T08:40:31Z</time>
      </trkpt>
      <trkpt lat="48.65448" lon="-3.33734">
        <ele>106</ele>
        <time>2015-01-04T08:40:32Z</time>
      </trkpt>
      <trkpt lat="48.65442" lon="-3.3373">
        <ele>106</ele>
        <time>2015-01-04T08:40:33Z</time>
      </trkpt>
      <trkpt lat="48.65436" lon="-3.33726">
        <ele>106</ele>
        <time>2015-01-04T08:40:34Z</time>
      </trkpt>
      <trkpt lat="48.65429" lon="-3.33723">
        <ele>106</ele>
        <time>2015-01-04T08:40:35Z</time>
      </trkpt>
      <trkpt lat="48.65423" lon="-3.33718">
        <ele>106</ele>
        <time>2015-01-04T08:40:36Z</time>
      </trkpt>
      <trkpt lat="48.65417" lon="-3.33715">
        <ele>106</ele>
        <time>2015-01-04T08:40:37Z</time>
      </trkpt>
      <trkpt lat="48.6541" lon="-3.33711">
        <ele>106</ele>
        <time>2015-01-04T08:40:38Z</time>
      </trkpt>
      <trkpt lat="48.65403" lon="-3.33708">
        <ele>106</ele>
        <time>2015-01-04T08:40:39Z</time>
      </trkpt>
      <trkpt lat="48.65397" lon="-3.33705">
        <ele>106</ele>
        <time>2015-01-04T08:40:40Z</time>
      </trkpt>
      <trkpt lat="48.6539" lon="-3.33701">
        <ele>106</ele>
        <time>2015-01-04T08:40:41Z</time>
      </trkpt>
      <trkpt lat="48.65383" lon="-3.33698">
        <ele>106</ele>
        <time>2015-01-04T08:40:42Z</time>
      </trkpt>
      <trkpt lat="48.65376" lon="-3.33696">
        <ele>106</ele>
        <time>2015-01-04T08:40:43Z</time>
      </trkpt>
      <trkpt lat="48.65369" lon="-3.33693">
        <ele>106</ele>
        <time>2015-01-04T08:40:44Z</time>
      </trkpt>
      <trkpt lat="48.65363" lon="-3.33691">
        <ele>106</ele>
        <time>2015-01-04T08:40:45Z</time>
      </trkpt>
      <trkpt lat="48.65356" lon="-3.33689">
        <ele>106</ele>
        <time>2015-01-04T08:40:46Z</time>
      </trkpt>
      <trkpt lat="48.65349" lon="-3.33688">
        <ele>106</ele>
        <time>2015-01-04T08:40:47Z</time>
      </trkpt>
      <trkpt lat="48.65342" lon="-3.33686">
        <ele>106</ele>
        <time>2015-01-04T08:40:48Z</time>
      </trkpt>
      <trkpt lat="48.65336" lon="-3.33685">
        <ele>106</ele>
        <time>2015-01-04T08:40:49Z</time>
      </trkpt>
      <trkpt lat="48.65329" lon="-3.33684">
        <ele>106</ele>
        <time>2015-01-04T08:40:50Z</time>
      </trkpt>
      <trkpt lat="48.65322" lon="-3.33683">
        <ele>106</ele>
        <time>2015-01-04T08:40:51Z</time>
      </trkpt>
      <trkpt lat="48.65315" lon="-3.33682">
        <ele>106</ele>
        <time>2015-01-04T08:40:52Z</time>
      </trkpt>
      <trkpt lat="48.65308" lon="-3.33681">
        <ele>106</ele>
        <time>2015-01-04T08:40:53Z</time>
      </trkpt>
      <trkpt lat="48.65302" lon="-3.33679">
        <ele>106</ele>
        <time>2015-01-04T08:40:54Z</time>
      </trkpt>
      <trkpt lat="48.65295" lon="-3.33677">
        <ele>106</ele>
        <time>2015-01-04T08:40:55Z</time>
      </trkpt>
      <trkpt lat="48.65289" lon="-3.33675">
        <ele>106</ele>
        <time>2015-01-04T08:40:56Z</time>
      </trkpt>
      <trkpt lat="48.65282" lon="-3.33673">
        <ele>106</ele>
        <time>2015-01-04T08:40:57Z</time>
      </trkpt>
      <trkpt lat="48.65276" lon="-3.33672">
        <ele>106</ele>
        <time>2015-01-04T08:40:58Z</time>
      </trkpt>
      <trkpt lat="48.65269" lon="-3.3367">
        <ele>106</ele>
        <time>2015-01-04T08:40:59Z</time>
      </trkpt>
      <trkpt lat="48.65263" lon="-3.33668">
        <ele>106</ele>
        <time>2015-01-04T08:41:00Z</time>
      </trkpt>
      <trkpt lat="48.65257" lon="-3.33666">
        <ele>106</ele>
        <time>2015-01-04T08:41:01Z</time>
      </trkpt>
      <trkpt lat="48.6525" lon="-3.33664">
        <ele>106</ele>
        <time>2015-01-04T08:41:02Z</time>
      </trkpt>
      <trkpt lat="48.65244" lon="-3.33662">
        <ele>106</ele>
        <time>2015-01-04T08:41:03Z</time>
      </trkpt>
      <trkpt lat="48.65237" lon="-3.3366">
        <ele>106</ele>
        <time>2015-01-04T08:41:04Z</time>
      </trkpt>
      <trkpt lat="48.6523" lon="-3.33658">
        <ele>106</ele>
        <time>2015-01-04T08:41:05Z</time>
      </trkpt>
      <trkpt lat="48.65224" lon="-3.33656">
        <ele>106</ele>
        <time>2015-01-04T08:41:06Z</time>
      </trkpt>
      <trkpt lat="48.65217" lon="-3.33654">
        <ele>106</ele>
        <time>2015-01-04T08:41:07Z</time>
      </trkpt>
      <trkpt lat="48.6521" lon="-3.33652">
        <ele>106</ele>
        <time>2015-01-04T08:41:08Z</time>
      </trkpt>
      <trkpt lat="48.65204" lon="-3.3365">
        <ele>106</ele>
        <time>2015-01-04T08:41:09Z</time>
      </trkpt>
      <trkpt lat="48.65197" lon="-3.33648">
        <ele>106</ele>
        <time>2015-01-04T08:41:10Z</time>
      </trkpt>
      <trkpt lat="48.6519" lon="-3.33646">
        <ele>106</ele>
        <time>2015-01-04T08:41:11Z</time>
      </trkpt>
      <trkpt lat="48.65184" lon="-3.33643">
        <ele>106</ele>
        <time>2015-01-04T08:41:12Z</time>
      </trkpt>
      <trkpt lat="48.65177" lon="-3.33641">
        <ele>106</ele>
        <time>2015-01-04T08:41:13Z</time>
      </trkpt>
      <trkpt lat="48.6517" lon="-3.33639">
        <ele>106</ele>
        <time>2015-01-04T08:41:14Z</time>
      </trkpt>
      <trkpt lat="48.65163" lon="-3.33637">
        <ele>106</ele>
        <time>2015-01-04T08:41:15Z</time>
      </trkpt>
      <trkpt lat="48.65157" lon="-3.33634">
        <ele>106</ele>
        <time>2015-01-04T08:41:16Z</time>
      </trkpt>
      <trkpt lat="48.6515" lon="-3.33632">
        <ele>106</ele>
        <time>2015-01-04T08:41:17Z</time>
      </trkpt>
      <trkpt lat="48.65143" lon="-3.3363">
        <ele>106</ele>
        <time>2015-01-04T08:41:18Z</time>
      </trkpt>
      <trkpt lat="48.65136" lon="-3.33628">
        <ele>106</ele>
        <time>2015-01-04T08:41:19Z</time>
      </trkpt>
      <trkpt lat="48.6513" lon="-3.33625">
        <ele>106</ele>
        <time>2015-01-04T08:41:20Z</time>
      </trkpt>
      <trkpt lat="48.65123" lon="-3.33623">
        <ele>106</ele>
        <time>2015-01-04T08:41:21Z</time>
      </trkpt>
      <trkpt lat="48.65116" lon="-3.33621">
        <ele>106</ele>
        <time>2015-01-04T08:41:22Z</time>
      </trkpt>
      <trkpt lat="48.65109" lon="-3.33618">
        <ele>106</ele>
        <time>2015-01-04T08:41:23Z</time>
      </trkpt>
      <trkpt lat="48.65102" lon="-3.33616">
        <ele>106</ele>
        <time>2015-01-04T08:41:24Z</time>
      </trkpt>
      <trkpt lat="48.65096" lon="-3.33614">
        <ele>106</ele>
        <time>2015-01-04T08:41:25Z</time>
      </trkpt>
      <trkpt lat="48.65089" lon="-3.33612">
        <ele>106</ele>
        <time>2015-01-04T08:41:26Z</time>
      </trkpt>
      <trkpt lat="48.65082" lon="-3.3361">
        <ele>106</ele>
        <time>2015-01-04T08:41:27Z</time>
      </trkpt>
      <trkpt lat="48.65075" lon="-3.33608">
        <ele>106</ele>
        <time>2015-01-04T08:41:28Z</time>
      </trkpt>
      <trkpt lat="48.65068" lon="-3.33606">
        <ele>106</ele>
        <time>2015-01-04T08:41:29Z</time>
      </trkpt>
      <trkpt lat="48.65062" lon="-3.33604">
        <ele>106</ele>
        <time>2015-01-04T08:41:30Z</time>
      </trkpt>
      <trkpt lat="48.65055" lon="-3.33602">
        <ele>106</ele>
        <time>2015-01-04T08:41:31Z</time>
      </trkpt>
      <trkpt lat="48.65049" lon="-3.33601">
        <ele>106</ele>
        <time>2015-01-04T08:41:32Z</time>
      </trkpt>
      <trkpt lat="48.65043" lon="-3.33599">
        <ele>106</ele>
        <time>2015-01-04T08:41:33Z</time>
      </trkpt>
      <trkpt lat="48.65037" lon="-3.33597">
        <ele>106</ele>
        <time>2015-01-04T08:41:34Z</time>
      </trkpt>
      <trkpt lat="48.6503" lon="-3.33596">
        <ele>106</ele>
        <time>2015-01-04T08:41:35Z</time>
      </trkpt>
      <trkpt lat="48.65024" lon="-3.33594">
        <ele>106</ele>
        <time>2015-01-04T08:41:36Z</time>
      </trkpt>
      <trkpt lat="48.65018" lon="-3.33593">
        <ele>106</ele>
        <time>2015-01-04T08:41:37Z</time>
      </trkpt>
      <trkpt lat="48.65012" lon="-3.33591">
        <ele>106</ele>
        <time>2015-01-04T08:41:38Z</time>
      </trkpt>
      <trkpt lat="48.65006" lon="-3.33589">
        <ele>106</ele>
        <time>2015-01-04T08:41:39Z</time>
      </trkpt>
      <trkpt lat="48.65" lon="-3.33588">
        <ele>106</ele>
        <time>2015-01-04T08:41:40Z</time>
      </trkpt>
      <trkpt lat="48.64994" lon="-3.33587">
        <ele>106</ele>
        <time>2015-01-04T08:41:41Z</time>
      </trkpt>
      <trkpt lat="48.64988" lon="-3.33585">
        <ele>106</ele>
        <time>2015-01-04T08:41:42Z</time>
      </trkpt>
      <trkpt lat="48.64982" lon="-3.33584">
        <ele>106</ele>
        <time>2015-01-04T08:41:43Z</time>
      </trkpt>
      <trkpt lat="48.64976" lon="-3.33582">
        <ele>106</ele>
        <time>2015-01-04T08:41:44Z</time>
      </trkpt>
      <trkpt lat="48.6497" lon="-3.33581">
        <ele>106</ele>
        <time>2015-01-04T08:41:45Z</time>
      </trkpt>
      <trkpt lat="48.64964" lon="-3.33579">
        <ele>106</ele>
        <time>2015-01-04T08:41:46Z</time>
      </trkpt>
      <trkpt lat="48.64958" lon="-3.33578">
        <ele>106</ele>
        <time>2015-01-04T08:41:47Z</time>
      </trkpt>
      <trkpt lat="48.64952" lon="-3.33576">
        <ele>106</ele>
        <time>2015-01-04T08:41:48Z</time>
      </trkpt>
      <trkpt lat="48.64946" lon="-3.33576">
        <ele>106</ele>
        <time>2015-01-04T08:41:49Z</time>
      </trkpt>
      <trkpt lat="48.64941" lon="-3.33575">
        <ele>106</ele>
        <time>2015-01-04T08:41:50Z</time>
      </trkpt>
      <trkpt lat="48.64935" lon="-3.33573">
        <ele>106</ele>
        <time>2015-01-04T08:41:51Z</time>
      </trkpt>
      <trkpt lat="48.64929" lon="-3.33572">
        <ele>106</ele>
        <time>2015-01-04T08:41:52Z</time>
      </trkpt>
      <trkpt lat="48.64923" lon="-3.33571">
        <ele>106</ele>
        <time>2015-01-04T08:41:53Z</time>
      </trkpt>
      <trkpt lat="48.64917" lon="-3.3357">
        <ele>106</ele>
        <time>2015-01-04T08:41:54Z</time>
      </trkpt>
      <trkpt lat="48.64911" lon="-3.33568">
        <ele>106</ele>
        <time>2015-01-04T08:41:55Z</time>
      </trkpt>
      <trkpt lat="48.64904" lon="-3.33567">
        <ele>106</ele>
        <time>2015-01-04T08:41:56Z</time>
      </trkpt>
      <trkpt lat="48.64898" lon="-3.33566">
        <ele>106</ele>
        <time>2015-01-04T08:41:57Z</time>
      </trkpt>
      <trkpt lat="48.64892" lon="-3.33565">
        <ele>106</ele>
        <time>2015-01-04T08:41:58Z</time>
      </trkpt>
      <trkpt lat="48.64885" lon="-3.33565">
        <ele>106</ele>
        <time>2015-01-04T08:41:59Z</time>
      </trkpt>
      <trkpt lat="48.64878" lon="-3.33564">
        <ele>107</ele>
        <time>2015-01-04T08:42:00Z</time>
      </trkpt>
      <trkpt lat="48.64872" lon="-3.33563">
        <ele>108</ele>
        <time>2015-01-04T08:42:01Z</time>
      </trkpt>
      <trkpt lat="48.64865" lon="-3.33563">
        <ele>109</ele>
        <time>2015-01-04T08:42:02Z</time>
      </trkpt>
      <trkpt lat="48.64858" lon="-3.33562">
        <ele>110</ele>
        <time>2015-01-04T08:42:03Z</time>
      </trkpt>
      <trkpt lat="48.64851" lon="-3.33561">
        <ele>111</ele>
        <time>2015-01-04T08:42:04Z</time>
      </trkpt>
      <trkpt lat="48.64845" lon="-3.3356">
        <ele>112</ele>
        <time>2015-01-04T08:42:05Z</time>
      </trkpt>
      <trkpt lat="48.64838" lon="-3.33559">
        <ele>113</ele>
        <time>2015-01-04T08:42:06Z</time>
      </trkpt>
      <trkpt lat="48.64832" lon="-3.33558">
        <ele>114</ele>
        <time>2015-01-04T08:42:07Z</time>
      </trkpt>
      <trkpt lat="48.64825" lon="-3.33556">
        <ele>115</ele>
        <time>2015-01-04T08:42:08Z</time>
      </trkpt>
      <trkpt lat="48.64819" lon="-3.33555">
        <ele>116</ele>
        <time>2015-01-04T08:42:09Z</time>
      </trkpt>
      <trkpt lat="48.64813" lon="-3.33553">
        <ele>117</ele>
        <time>2015-01-04T08:42:10Z</time>
      </trkpt>
      <trkpt lat="48.64807" lon="-3.33551">
        <ele>118</ele>
        <time>2015-01-04T08:42:11Z</time>
      </trkpt>
      <trkpt lat="48.64801" lon="-3.3355">
        <ele>118</ele>
        <time>2015-01-04T08:42:12Z</time>
      </trkpt>
      <trkpt lat="48.64794" lon="-3.33548">
        <ele>118</ele>
        <time>2015-01-04T08:42:13Z</time>
      </trkpt>
      <trkpt lat="48.64788" lon="-3.33547">
        <ele>118</ele>
        <time>2015-01-04T08:42:14Z</time>
      </trkpt>
      <trkpt lat="48.64782" lon="-3.33545">
        <ele>118</ele>
        <time>2015-01-04T08:42:15Z</time>
      </trkpt>
      <trkpt lat="48.64775" lon="-3.33543">
        <ele>118</ele>
        <time>2015-01-04T08:42:16Z</time>
      </trkpt>
      <trkpt lat="48.64769" lon="-3.33542">
        <ele>118</ele>
        <time>2015-01-04T08:42:17Z</time>
      </trkpt>
      <trkpt lat="48.64763" lon="-3.3354">
        <ele>118</ele>
        <time>2015-01-04T08:42:18Z</time>
      </trkpt>
      <trkpt lat="48.64757" lon="-3.33538">
        <ele>118</ele>
        <time>2015-01-04T08:42:19Z</time>
      </trkpt>
      <trkpt lat="48.64751" lon="-3.33537">
        <ele>118</ele>
        <time>2015-01-04T08:42:20Z</time>
      </trkpt>
      <trkpt lat="48.64746" lon="-3.33534">
        <ele>118</ele>
        <time>2015-01-04T08:42:21Z</time>
      </trkpt>
      <trkpt lat="48.6474" lon="-3.33533">
        <ele>118</ele>
        <time>2015-01-04T08:42:22Z</time>
      </trkpt>
      <trkpt lat="48.64734" lon="-3.33531">
        <ele>118</ele>
        <time>2015-01-04T08:42:23Z</time>
      </trkpt>
      <trkpt lat="48.64728" lon="-3.33529">
        <ele>118</ele>
        <time>2015-01-04T08:42:24Z</time>
      </trkpt>
      <trkpt lat="48.64722" lon="-3.33527">
        <ele>118</ele>
        <time>2015-01-04T08:42:25Z</time>
      </trkpt>
      <trkpt lat="48.64716" lon="-3.33525">
        <ele>118</ele>
        <time>2015-01-04T08:42:26Z</time>
      </trkpt>
      <trkpt lat="48.6471" lon="-3.33523">
        <ele>118</ele>
        <time>2015-01-04T08:42:27Z</time>
      </trkpt>
      <trkpt lat="48.64704" lon="-3.3352">
        <ele>118</ele>
        <time>2015-01-04T08:42:28Z</time>
      </trkpt>
      <trkpt lat="48.64698" lon="-3.33518">
        <ele>118</ele>
        <time>2015-01-04T08:42:29Z</time>
      </trkpt>
      <trkpt lat="48.64692" lon="-3.33515">
        <ele>118</ele>
        <time>2015-01-04T08:42:30Z</time>
      </trkpt>
      <trkpt lat="48.64686" lon="-3.33513">
        <ele>118</ele>
        <time>2015-01-04T08:42:31Z</time>
      </trkpt>
      <trkpt lat="48.6468" lon="-3.3351">
        <ele>118</ele>
        <time>2015-01-04T08:42:32Z</time>
      </trkpt>
      <trkpt lat="48.64674" lon="-3.33508">
        <ele>118</ele>
        <time>2015-01-04T08:42:33Z</time>
      </trkpt>
      <trkpt lat="48.64669" lon="-3.33505">
        <ele>118</ele>
        <time>2015-01-04T08:42:34Z</time>
      </trkpt>
      <trkpt lat="48.64662" lon="-3.33503">
        <ele>117</ele>
        <time>2015-01-04T08:42:35Z</time>
      </trkpt>
      <trkpt lat="48.64656" lon="-3.335">
        <ele>117</ele>
        <time>2015-01-04T08:42:36Z</time>
      </trkpt>
      <trkpt lat="48.6465" lon="-3.33498">
        <ele>117</ele>
        <time>2015-01-04T08:42:37Z</time>
      </trkpt>
      <trkpt lat="48.64644" lon="-3.33495">
        <ele>116</ele>
        <time>2015-01-04T08:42:38Z</time>
      </trkpt>
      <trkpt lat="48.64638" lon="-3.33492">
        <ele>116</ele>
        <time>2015-01-04T08:42:39Z</time>
      </trkpt>
      <trkpt lat="48.64632" lon="-3.33489">
        <ele>116</ele>
        <time>2015-01-04T08:42:40Z</time>
      </trkpt>
      <trkpt lat="48.64626" lon="-3.33486">
        <ele>115</ele>
        <time>2015-01-04T08:42:41Z</time>
      </trkpt>
      <trkpt lat="48.6462" lon="-3.33483">
        <ele>115</ele>
        <time>2015-01-04T08:42:42Z</time>
      </trkpt>
      <trkpt lat="48.64614" lon="-3.3348">
        <ele>115</ele>
        <time>2015-01-04T08:42:43Z</time>
      </trkpt>
      <trkpt lat="48.64608" lon="-3.33476">
        <ele>115</ele>
        <time>2015-01-04T08:42:44Z</time>
      </trkpt>
      <trkpt lat="48.64602" lon="-3.33473">
        <ele>115</ele>
        <time>2015-01-04T08:42:45Z</time>
      </trkpt>
      <trkpt lat="48.64596" lon="-3.3347">
        <ele>114</ele>
        <time>2015-01-04T08:42:46Z</time>
      </trkpt>
      <trkpt lat="48.6459" lon="-3.33466">
        <ele>114</ele>
        <time>2015-01-04T08:42:47Z</time>
      </trkpt>
      <trkpt lat="48.64584" lon="-3.33462">
        <ele>114</ele>
        <time>2015-01-04T08:42:48Z</time>
      </trkpt>
      <trkpt lat="48.64577" lon="-3.33458">
        <ele>114</ele>
        <time>2015-01-04T08:42:49Z</time>
      </trkpt>
      <trkpt lat="48.64571" lon="-3.33454">
        <ele>114</ele>
        <time>2015-01-04T08:42:50Z</time>
      </trkpt>
      <trkpt lat="48.64565" lon="-3.3345">
        <ele>114</ele>
        <time>2015-01-04T08:42:51Z</time>
      </trkpt>
      <trkpt lat="48.64559" lon="-3.33447">
        <ele>114</ele>
        <time>2015-01-04T08:42:52Z</time>
      </trkpt>
      <trkpt lat="48.64553" lon="-3.33443">
        <ele>114</ele>
        <time>2015-01-04T08:42:53Z</time>
      </trkpt>
      <trkpt lat="48.64547" lon="-3.33439">
        <ele>114</ele>
        <time>2015-01-04T08:42:54Z</time>
      </trkpt>
      <trkpt lat="48.64541" lon="-3.33435">
        <ele>114</ele>
        <time>2015-01-04T08:42:55Z</time>
      </trkpt>
      <trkpt lat="48.64535" lon="-3.33431">
        <ele>114</ele>
        <time>2015-01-04T08:42:56Z</time>
      </trkpt>
      <trkpt lat="48.64529" lon="-3.33427">
        <ele>114</ele>
        <time>2015-01-04T08:42:57Z</time>
      </trkpt>
      <trkpt lat="48.64523" lon="-3.33423">
        <ele>114</ele>
        <time>2015-01-04T08:42:58Z</time>
      </trkpt>
      <trkpt lat="48.64517" lon="-3.33419">
        <ele>114</ele>
        <time>2015-01-04T08:42:59Z</time>
      </trkpt>
      <trkpt lat="48.64511" lon="-3.33416">
        <ele>114</ele>
        <time>2015-01-04T08:43:00Z</time>
      </trkpt>
      <trkpt lat="48.64505" lon="-3.33412">
        <ele>114</ele>
        <time>2015-01-04T08:43:01Z</time>
      </trkpt>
      <trkpt lat="48.64499" lon="-3.33408">
        <ele>114</ele>
        <time>2015-01-04T08:43:02Z</time>
      </trkpt>
      <trkpt lat="48.64493" lon="-3.33404">
        <ele>114</ele>
        <time>2015-01-04T08:43:03Z</time>
      </trkpt>
      <trkpt lat="48.64486" lon="-3.334">
        <ele>114</ele>
        <time>2015-01-04T08:43:04Z</time>
      </trkpt>
      <trkpt lat="48.64481" lon="-3.33396">
        <ele>113</ele>
        <time>2015-01-04T08:43:05Z</time>
      </trkpt>
      <trkpt lat="48.64474" lon="-3.33392">
        <ele>113</ele>
        <time>2015-01-04T08:43:06Z</time>
      </trkpt>
      <trkpt lat="48.64468" lon="-3.33388">
        <ele>113</ele>
        <time>2015-01-04T08:43:07Z</time>
      </trkpt>
      <trkpt lat="48.64462" lon="-3.33384">
        <ele>113</ele>
        <time>2015-01-04T08:43:08Z</time>
      </trkpt>
      <trkpt lat="48.64456" lon="-3.3338">
        <ele>113</ele>
        <time>2015-01-04T08:43:09Z</time>
      </trkpt>
      <trkpt lat="48.6445" lon="-3.33376">
        <ele>113</ele>
        <time>2015-01-04T08:43:10Z</time>
      </trkpt>
      <trkpt lat="48.64444" lon="-3.33372">
        <ele>113</ele>
        <time>2015-01-04T08:43:11Z</time>
      </trkpt>
      <trkpt lat="48.64437" lon="-3.33368">
        <ele>113</ele>
        <time>2015-01-04T08:43:12Z</time>
      </trkpt>
      <trkpt lat="48.64431" lon="-3.33365">
        <ele>113</ele>
        <time>2015-01-04T08:43:13Z</time>
      </trkpt>
      <trkpt lat="48.64425" lon="-3.33361">
        <ele>113</ele>
        <time>2015-01-04T08:43:14Z</time>
      </trkpt>
      <trkpt lat="48.64418" lon="-3.33358">
        <ele>113</ele>
        <time>2015-01-04T08:43:15Z</time>
      </trkpt>
      <trkpt lat="48.64412" lon="-3.33355">
        <ele>113</ele>
        <time>2015-01-04T08:43:16Z</time>
      </trkpt>
      <trkpt lat="48.64406" lon="-3.33351">
        <ele>113</ele>
        <time>2015-01-04T08:43:17Z</time>
      </trkpt>
      <trkpt lat="48.64399" lon="-3.33348">
        <ele>113</ele>
        <time>2015-01-04T08:43:18Z</time>
      </trkpt>
      <trkpt lat="48.64393" lon="-3.33345">
        <ele>113</ele>
        <time>2015-01-04T08:43:19Z</time>
      </trkpt>
      <trkpt lat="48.64386" lon="-3.33342">
        <ele>113</ele>
        <time>2015-01-04T08:43:20Z</time>
      </trkpt>
      <trkpt lat="48.6438" lon="-3.33339">
        <ele>113</ele>
        <time>2015-01-04T08:43:21Z</time>
      </trkpt>
      <trkpt lat="48.64373" lon="-3.33336">
        <ele>112</ele>
        <time>2015-01-04T08:43:22Z</time>
      </trkpt>
      <trkpt lat="48.64367" lon="-3.33334">
        <ele>112</ele>
        <time>2015-01-04T08:43:23Z</time>
      </trkpt>
      <trkpt lat="48.6436" lon="-3.33331">
        <ele>112</ele>
        <time>2015-01-04T08:43:24Z</time>
      </trkpt>
      <trkpt lat="48.64354" lon="-3.33329">
        <ele>112</ele>
        <time>2015-01-04T08:43:25Z</time>
      </trkpt>
      <trkpt lat="48.64347" lon="-3.33328">
        <ele>112</ele>
        <time>2015-01-04T08:43:26Z</time>
      </trkpt>
      <trkpt lat="48.6434" lon="-3.33326">
        <ele>112</ele>
        <time>2015-01-04T08:43:27Z</time>
      </trkpt>
      <trkpt lat="48.64333" lon="-3.33325">
        <ele>112</ele>
        <time>2015-01-04T08:43:28Z</time>
      </trkpt>
      <trkpt lat="48.64326" lon="-3.33324">
        <ele>112</ele>
        <time>2015-01-04T08:43:29Z</time>
      </trkpt>
      <trkpt lat="48.64319" lon="-3.33323">
        <ele>112</ele>
        <time>2015-01-04T08:43:30Z</time>
      </trkpt>
      <trkpt lat="48.64312" lon="-3.33322">
        <ele>112</ele>
        <time>2015-01-04T08:43:31Z</time>
      </trkpt>
      <trkpt lat="48.64305" lon="-3.33322">
        <ele>112</ele>
        <time>2015-01-04T08:43:32Z</time>
      </trkpt>
      <trkpt lat="48.64298" lon="-3.33321">
        <ele>112</ele>
        <time>2015-01-04T08:43:33Z</time>
      </trkpt>
      <trkpt lat="48.64291" lon="-3.33321">
        <ele>112</ele>
        <time>2015-01-04T08:43:34Z</time>
      </trkpt>
      <trkpt lat="48.64284" lon="-3.3332">
        <ele>112</ele>
        <time>2015-01-04T08:43:35Z</time>
      </trkpt>
      <trkpt lat="48.64277" lon="-3.33319">
        <ele>112</ele>
        <time>2015-01-04T08:43:36Z</time>
      </trkpt>
      <trkpt lat="48.6427" lon="-3.33319">
        <ele>112</ele>
        <time>2015-01-04T08:43:37Z</time>
      </trkpt>
      <trkpt lat="48.64263" lon="-3.33318">
        <ele>112</ele>
        <time>2015-01-04T08:43:38Z</time>
      </trkpt>
      <trkpt lat="48.64256" lon="-3.33317">
        <ele>112</ele>
        <time>2015-01-04T08:43:39Z</time>
      </trkpt>
      <trkpt lat="48.64249" lon="-3.33317">
        <ele>112</ele>
        <time>2015-01-04T08:43:40Z</time>
      </trkpt>
      <trkpt lat="48.64243" lon="-3.33316">
        <ele>112</ele>
        <time>2015-01-04T08:43:41Z</time>
      </trkpt>
      <trkpt lat="48.64236" lon="-3.33316">
        <ele>112</ele>
        <time>2015-01-04T08:43:42Z</time>
      </trkpt>
      <trkpt lat="48.6423" lon="-3.33315">
        <ele>112</ele>
        <time>2015-01-04T08:43:43Z</time>
      </trkpt>
      <trkpt lat="48.64223" lon="-3.33315">
        <ele>112</ele>
        <time>2015-01-04T08:43:44Z</time>
      </trkpt>
      <trkpt lat="48.64216" lon="-3.33314">
        <ele>112</ele>
        <time>2015-01-04T08:43:45Z</time>
      </trkpt>
      <trkpt lat="48.6421" lon="-3.33314">
        <ele>112</ele>
        <time>2015-01-04T08:43:46Z</time>
      </trkpt>
      <trkpt lat="48.64203" lon="-3.33313">
        <ele>112</ele>
        <time>2015-01-04T08:43:47Z</time>
      </trkpt>
      <trkpt lat="48.64196" lon="-3.33313">
        <ele>112</ele>
        <time>2015-01-04T08:43:48Z</time>
      </trkpt>
      <trkpt lat="48.6419" lon="-3.33313">
        <ele>112</ele>
        <time>2015-01-04T08:43:49Z</time>
      </trkpt>
      <trkpt lat="48.64183" lon="-3.33312">
        <ele>112</ele>
        <time>2015-01-04T08:43:50Z</time>
      </trkpt>
      <trkpt lat="48.64176" lon="-3.33312">
        <ele>112</ele>
        <time>2015-01-04T08:43:51Z</time>
      </trkpt>
      <trkpt lat="48.64169" lon="-3.33311">
        <ele>112</ele>
        <time>2015-01-04T08:43:52Z</time>
      </trkpt>
      <trkpt lat="48.64162" lon="-3.3331">
        <ele>112</ele>
        <time>2015-01-04T08:43:53Z</time>
      </trkpt>
      <trkpt lat="48.64155" lon="-3.3331">
        <ele>112</ele>
        <time>2015-01-04T08:43:54Z</time>
      </trkpt>
      <trkpt lat="48.64148" lon="-3.33309">
        <ele>112</ele>
        <time>2015-01-04T08:43:55Z</time>
      </trkpt>
      <trkpt lat="48.64142" lon="-3.33309">
        <ele>112</ele>
        <time>2015-01-04T08:43:56Z</time>
      </trkpt>
      <trkpt lat="48.64135" lon="-3.33308">
        <ele>112</ele>
        <time>2015-01-04T08:43:57Z</time>
      </trkpt>
      <trkpt lat="48.64128" lon="-3.33307">
        <ele>112</ele>
        <time>2015-01-04T08:43:58Z</time>
      </trkpt>
      <trkpt lat="48.64122" lon="-3.33307">
        <ele>112</ele>
        <time>2015-01-04T08:43:59Z</time>
      </trkpt>
      <trkpt lat="48.64115" lon="-3.33306">
        <ele>112</ele>
        <time>2015-01-04T08:44:00Z</time>
      </trkpt>
      <trkpt lat="48.64109" lon="-3.33306">
        <ele>112</ele>
        <time>2015-01-04T08:44:01Z</time>
      </trkpt>
      <trkpt lat="48.64102" lon="-3.33305">
        <ele>112</ele>
        <time>2015-01-04T08:44:02Z</time>
      </trkpt>
      <trkpt lat="48.64096" lon="-3.33305">
        <ele>112</ele>
        <time>2015-01-04T08:44:03Z</time>
      </trkpt>
      <trkpt lat="48.64089" lon="-3.33304">
        <ele>112</ele>
        <time>2015-01-04T08:44:04Z</time>
      </trkpt>
      <trkpt lat="48.64083" lon="-3.33304">
        <ele>112</ele>
        <time>2015-01-04T08:44:05Z</time>
      </trkpt>
      <trkpt lat="48.64077" lon="-3.33303">
        <ele>112</ele>
        <time>2015-01-04T08:44:06Z</time>
      </trkpt>
      <trkpt lat="48.6407" lon="-3.33303">
        <ele>112</ele>
        <time>2015-01-04T08:44:07Z</time>
      </trkpt>
      <trkpt lat="48.64064" lon="-3.33302">
        <ele>112</ele>
        <time>2015-01-04T08:44:08Z</time>
      </trkpt>
      <trkpt lat="48.64057" lon="-3.33302">
        <ele>112</ele>
        <time>2015-01-04T08:44:09Z</time>
      </trkpt>
      <trkpt lat="48.6405" lon="-3.33301">
        <ele>112</ele>
        <time>2015-01-04T08:44:10Z</time>
      </trkpt>
      <trkpt lat="48.64044" lon="-3.333">
        <ele>112</ele>
        <time>2015-01-04T08:44:11Z</time>
      </trkpt>
      <trkpt lat="48.64037" lon="-3.333">
        <ele>112</ele>
        <time>2015-01-04T08:44:12Z</time>
      </trkpt>
      <trkpt lat="48.64031" lon="-3.33299">
        <ele>112</ele>
        <time>2015-01-04T08:44:13Z</time>
      </trkpt>
      <trkpt lat="48.64024" lon="-3.33299">
        <ele>112</ele>
        <time>2015-01-04T08:44:14Z</time>
      </trkpt>
      <trkpt lat="48.64018" lon="-3.33298">
        <ele>112</ele>
        <time>2015-01-04T08:44:15Z</time>
      </trkpt>
      <trkpt lat="48.64011" lon="-3.33298">
        <ele>112</ele>
        <time>2015-01-04T08:44:16Z</time>
      </trkpt>
      <trkpt lat="48.64005" lon="-3.33298">
        <ele>112</ele>
        <time>2015-01-04T08:44:17Z</time>
      </trkpt>
      <trkpt lat="48.63998" lon="-3.33297">
        <ele>112</ele>
        <time>2015-01-04T08:44:18Z</time>
      </trkpt>
      <trkpt lat="48.63992" lon="-3.33297">
        <ele>112</ele>
        <time>2015-01-04T08:44:19Z</time>
      </trkpt>
      <trkpt lat="48.63985" lon="-3.33297">
        <ele>112</ele>
        <time>2015-01-04T08:44:20Z</time>
      </trkpt>
      <trkpt lat="48.63979" lon="-3.33296">
        <ele>112</ele>
        <time>2015-01-04T08:44:22Z</time>
      </trkpt>
      <trkpt lat="48.63972" lon="-3.33296">
        <ele>112</ele>
        <time>2015-01-04T08:44:22Z</time>
      </trkpt>
      <trkpt lat="48.63966" lon="-3.33295">
        <ele>112</ele>
        <time>2015-01-04T08:44:23Z</time>
      </trkpt>
      <trkpt lat="48.63959" lon="-3.33295">
        <ele>112</ele>
        <time>2015-01-04T08:44:24Z</time>
      </trkpt>
      <trkpt lat="48.63953" lon="-3.33294">
        <ele>112</ele>
        <time>2015-01-04T08:44:25Z</time>
      </trkpt>
      <trkpt lat="48.63947" lon="-3.33294">
        <ele>112</ele>
        <time>2015-01-04T08:44:26Z</time>
      </trkpt>
      <trkpt lat="48.6394" lon="-3.33293">
        <ele>112</ele>
        <time>2015-01-04T08:44:27Z</time>
      </trkpt>
      <trkpt lat="48.63934" lon="-3.33293">
        <ele>112</ele>
        <time>2015-01-04T08:44:28Z</time>
      </trkpt>
      <trkpt lat="48.63927" lon="-3.33292">
        <ele>112</ele>
        <time>2015-01-04T08:44:29Z</time>
      </trkpt>
      <trkpt lat="48.63921" lon="-3.33291">
        <ele>112</ele>
        <time>2015-01-04T08:44:30Z</time>
      </trkpt>
      <trkpt lat="48.63914" lon="-3.33291">
        <ele>112</ele>
        <time>2015-01-04T08:44:31Z</time>
      </trkpt>
      <trkpt lat="48.63907" lon="-3.3329">
        <ele>112</ele>
        <time>2015-01-04T08:44:32Z</time>
      </trkpt>
      <trkpt lat="48.63901" lon="-3.33289">
        <ele>112</ele>
        <time>2015-01-04T08:44:33Z</time>
      </trkpt>
      <trkpt lat="48.63894" lon="-3.33288">
        <ele>112</ele>
        <time>2015-01-04T08:44:34Z</time>
      </trkpt>
      <trkpt lat="48.63888" lon="-3.33288">
        <ele>112</ele>
        <time>2015-01-04T08:44:35Z</time>
      </trkpt>
      <trkpt lat="48.63881" lon="-3.33287">
        <ele>112</ele>
        <time>2015-01-04T08:44:36Z</time>
      </trkpt>
      <trkpt lat="48.63874" lon="-3.33286">
        <ele>112</ele>
        <time>2015-01-04T08:44:37Z</time>
      </trkpt>
      <trkpt lat="48.63868" lon="-3.33285">
        <ele>112</ele>
        <time>2015-01-04T08:44:38Z</time>
      </trkpt>
      <trkpt lat="48.63861" lon="-3.33284">
        <ele>112</ele>
        <time>2015-01-04T08:44:39Z</time>
      </trkpt>
      <trkpt lat="48.63854" lon="-3.33283">
        <ele>112</ele>
        <time>2015-01-04T08:44:40Z</time>
      </trkpt>
      <trkpt lat="48.63847" lon="-3.33281">
        <ele>112</ele>
        <time>2015-01-04T08:44:41Z</time>
      </trkpt>
      <trkpt lat="48.63841" lon="-3.3328">
        <ele>112</ele>
        <time>2015-01-04T08:44:42Z</time>
      </trkpt>
      <trkpt lat="48.63834" lon="-3.33279">
        <ele>112</ele>
        <time>2015-01-04T08:44:43Z</time>
      </trkpt>
      <trkpt lat="48.63827" lon="-3.33278">
        <ele>112</ele>
        <time>2015-01-04T08:44:44Z</time>
      </trkpt>
      <trkpt lat="48.6382" lon="-3.33277">
        <ele>112</ele>
        <time>2015-01-04T08:44:45Z</time>
      </trkpt>
      <trkpt lat="48.63813" lon="-3.33276">
        <ele>112</ele>
        <time>2015-01-04T08:44:46Z</time>
      </trkpt>
      <trkpt lat="48.63806" lon="-3.33275">
        <ele>112</ele>
        <time>2015-01-04T08:44:47Z</time>
      </trkpt>
      <trkpt lat="48.63799" lon="-3.33273">
        <ele>112</ele>
        <time>2015-01-04T08:44:48Z</time>
      </trkpt>
      <trkpt lat="48.63792" lon="-3.33272">
        <ele>112</ele>
        <time>2015-01-04T08:44:49Z</time>
      </trkpt>
      <trkpt lat="48.63785" lon="-3.33271">
        <ele>112</ele>
        <time>2015-01-04T08:44:50Z</time>
      </trkpt>
      <trkpt lat="48.63778" lon="-3.3327">
        <ele>112</ele>
        <time>2015-01-04T08:44:51Z</time>
      </trkpt>
      <trkpt lat="48.63772" lon="-3.33268">
        <ele>112</ele>
        <time>2015-01-04T08:44:52Z</time>
      </trkpt>
      <trkpt lat="48.63765" lon="-3.33267">
        <ele>112</ele>
        <time>2015-01-04T08:44:53Z</time>
      </trkpt>
      <trkpt lat="48.63758" lon="-3.33266">
        <ele>112</ele>
        <time>2015-01-04T08:44:54Z</time>
      </trkpt>
      <trkpt lat="48.63751" lon="-3.33265">
        <ele>112</ele>
        <time>2015-01-04T08:44:55Z</time>
      </trkpt>
      <trkpt lat="48.63744" lon="-3.33264">
        <ele>112</ele>
        <time>2015-01-04T08:44:56Z</time>
      </trkpt>
      <trkpt lat="48.63737" lon="-3.33263">
        <ele>112</ele>
        <time>2015-01-04T08:44:57Z</time>
      </trkpt>
      <trkpt lat="48.63731" lon="-3.33262">
        <ele>112</ele>
        <time>2015-01-04T08:44:58Z</time>
      </trkpt>
      <trkpt lat="48.63723" lon="-3.3326">
        <ele>112</ele>
        <time>2015-01-04T08:44:59Z</time>
      </trkpt>
      <trkpt lat="48.63717" lon="-3.33259">
        <ele>112</ele>
        <time>2015-01-04T08:45:00Z</time>
      </trkpt>
      <trkpt lat="48.6371" lon="-3.33258">
        <ele>112</ele>
        <time>2015-01-04T08:45:01Z</time>
      </trkpt>
      <trkpt lat="48.63702" lon="-3.33257">
        <ele>112</ele>
        <time>2015-01-04T08:45:02Z</time>
      </trkpt>
      <trkpt lat="48.63695" lon="-3.33256">
        <ele>112</ele>
        <time>2015-01-04T08:45:03Z</time>
      </trkpt>
      <trkpt lat="48.63688" lon="-3.33255">
        <ele>112</ele>
        <time>2015-01-04T08:45:04Z</time>
      </trkpt>
      <trkpt lat="48.63681" lon="-3.33254">
        <ele>112</ele>
        <time>2015-01-04T08:45:05Z</time>
      </trkpt>
      <trkpt lat="48.63674" lon="-3.33253">
        <ele>112</ele>
        <time>2015-01-04T08:45:06Z</time>
      </trkpt>
      <trkpt lat="48.63667" lon="-3.33252">
        <ele>112</ele>
        <time>2015-01-04T08:45:07Z</time>
      </trkpt>
      <trkpt lat="48.6366" lon="-3.33251">
        <ele>112</ele>
        <time>2015-01-04T08:45:08Z</time>
      </trkpt>
      <trkpt lat="48.63653" lon="-3.33249">
        <ele>112</ele>
        <time>2015-01-04T08:45:09Z</time>
      </trkpt>
      <trkpt lat="48.63646" lon="-3.33248">
        <ele>112</ele>
        <time>2015-01-04T08:45:10Z</time>
      </trkpt>
      <trkpt lat="48.63638" lon="-3.33247">
        <ele>112</ele>
        <time>2015-01-04T08:45:11Z</time>
      </trkpt>
      <trkpt lat="48.63631" lon="-3.33246">
        <ele>112</ele>
        <time>2015-01-04T08:45:12Z</time>
      </trkpt>
      <trkpt lat="48.63624" lon="-3.33245">
        <ele>112</ele>
        <time>2015-01-04T08:45:13Z</time>
      </trkpt>
      <trkpt lat="48.63617" lon="-3.33245">
        <ele>112</ele>
        <time>2015-01-04T08:45:14Z</time>
      </trkpt>
      <trkpt lat="48.63609" lon="-3.33244">
        <ele>112</ele>
        <time>2015-01-04T08:45:15Z</time>
      </trkpt>
      <trkpt lat="48.63602" lon="-3.33244">
        <ele>112</ele>
        <time>2015-01-04T08:45:16Z</time>
      </trkpt>
      <trkpt lat="48.63588" lon="-3.33244">
        <ele>112</ele>
        <time>2015-01-04T08:45:18Z</time>
      </trkpt>
      <trkpt lat="48.63581" lon="-3.33244">
        <ele>112</ele>
        <time>2015-01-04T08:45:19Z</time>
      </trkpt>
      <trkpt lat="48.63574" lon="-3.33244">
        <ele>112</ele>
        <time>2015-01-04T08:45:20Z</time>
      </trkpt>
      <trkpt lat="48.63567" lon="-3.33245">
        <ele>112</ele>
        <time>2015-01-04T08:45:21Z</time>
      </trkpt>
      <trkpt lat="48.6356" lon="-3.33245">
        <ele>112</ele>
        <time>2015-01-04T08:45:22Z</time>
      </trkpt>
      <trkpt lat="48.63553" lon="-3.33246">
        <ele>112</ele>
        <time>2015-01-04T08:45:23Z</time>
      </trkpt>
      <trkpt lat="48.63546" lon="-3.33247">
        <ele>112</ele>
        <time>2015-01-04T08:45:24Z</time>
      </trkpt>
      <trkpt lat="48.63539" lon="-3.33248">
        <ele>112</ele>
        <time>2015-01-04T08:45:25Z</time>
      </trkpt>
      <trkpt lat="48.63532" lon="-3.33249">
        <ele>112</ele>
        <time>2015-01-04T08:45:26Z</time>
      </trkpt>
      <trkpt lat="48.63525" lon="-3.3325">
        <ele>112</ele>
        <time>2015-01-04T08:45:27Z</time>
      </trkpt>
      <trkpt lat="48.63517" lon="-3.33251">
        <ele>112</ele>
        <time>2015-01-04T08:45:28Z</time>
      </trkpt>
      <trkpt lat="48.63509" lon="-3.33251">
        <ele>112</ele>
        <time>2015-01-04T08:45:29Z</time>
      </trkpt>
      <trkpt lat="48.63502" lon="-3.33252">
        <ele>112</ele>
        <time>2015-01-04T08:45:30Z</time>
      </trkpt>
      <trkpt lat="48.63494" lon="-3.33253">
        <ele>112</ele>
        <time>2015-01-04T08:45:31Z</time>
      </trkpt>
      <trkpt lat="48.63486" lon="-3.33254">
        <ele>112</ele>
        <time>2015-01-04T08:45:32Z</time>
      </trkpt>
      <trkpt lat="48.63478" lon="-3.33255">
        <ele>112</ele>
        <time>2015-01-04T08:45:33Z</time>
      </trkpt>
      <trkpt lat="48.63471" lon="-3.33255">
        <ele>112</ele>
        <time>2015-01-04T08:45:34Z</time>
      </trkpt>
      <trkpt lat="48.63463" lon="-3.33256">
        <ele>112</ele>
        <time>2015-01-04T08:45:35Z</time>
      </trkpt>
      <trkpt lat="48.63456" lon="-3.33257">
        <ele>112</ele>
        <time>2015-01-04T08:45:36Z</time>
      </trkpt>
      <trkpt lat="48.63448" lon="-3.33258">
        <ele>112</ele>
        <time>2015-01-04T08:45:37Z</time>
      </trkpt>
      <trkpt lat="48.63441" lon="-3.33259">
        <ele>112</ele>
        <time>2015-01-04T08:45:38Z</time>
      </trkpt>
      <trkpt lat="48.63433" lon="-3.33259">
        <ele>112</ele>
        <time>2015-01-04T08:45:39Z</time>
      </trkpt>
      <trkpt lat="48.63426" lon="-3.3326">
        <ele>112</ele>
        <time>2015-01-04T08:45:40Z</time>
      </trkpt>
      <trkpt lat="48.63419" lon="-3.3326">
        <ele>112</ele>
        <time>2015-01-04T08:45:41Z</time>
      </trkpt>
      <trkpt lat="48.63412" lon="-3.3326">
        <ele>112</ele>
        <time>2015-01-04T08:45:42Z</time>
      </trkpt>
      <trkpt lat="48.63398" lon="-3.3326">
        <ele>112</ele>
        <time>2015-01-04T08:45:44Z</time>
      </trkpt>
      <trkpt lat="48.6339" lon="-3.33261">
        <ele>112</ele>
        <time>2015-01-04T08:45:45Z</time>
      </trkpt>
      <trkpt lat="48.63383" lon="-3.33261">
        <ele>112</ele>
        <time>2015-01-04T08:45:46Z</time>
      </trkpt>
      <trkpt lat="48.63376" lon="-3.33261">
        <ele>112</ele>
        <time>2015-01-04T08:45:47Z</time>
      </trkpt>
      <trkpt lat="48.63369" lon="-3.33261">
        <ele>112</ele>
        <time>2015-01-04T08:45:48Z</time>
      </trkpt>
      <trkpt lat="48.63348" lon="-3.33261">
        <ele>112</ele>
        <time>2015-01-04T08:45:51Z</time>
      </trkpt>
      <trkpt lat="48.63342" lon="-3.33261">
        <ele>112</ele>
        <time>2015-01-04T08:45:52Z</time>
      </trkpt>
      <trkpt lat="48.63335" lon="-3.33261">
        <ele>112</ele>
        <time>2015-01-04T08:45:53Z</time>
      </trkpt>
      <trkpt lat="48.63328" lon="-3.33261">
        <ele>112</ele>
        <time>2015-01-04T08:45:54Z</time>
      </trkpt>
      <trkpt lat="48.63321" lon="-3.33262">
        <ele>112</ele>
        <time>2015-01-04T08:45:55Z</time>
      </trkpt>
      <trkpt lat="48.63315" lon="-3.33262">
        <ele>112</ele>
        <time>2015-01-04T08:45:56Z</time>
      </trkpt>
      <trkpt lat="48.63309" lon="-3.33262">
        <ele>112</ele>
        <time>2015-01-04T08:45:57Z</time>
      </trkpt>
      <trkpt lat="48.63303" lon="-3.33263">
        <ele>112</ele>
        <time>2015-01-04T08:45:58Z</time>
      </trkpt>
      <trkpt lat="48.63297" lon="-3.33264">
        <ele>112</ele>
        <time>2015-01-04T08:45:59Z</time>
      </trkpt>
      <trkpt lat="48.6329" lon="-3.33264">
        <ele>112</ele>
        <time>2015-01-04T08:46:00Z</time>
      </trkpt>
      <trkpt lat="48.63284" lon="-3.33265">
        <ele>112</ele>
        <time>2015-01-04T08:46:01Z</time>
      </trkpt>
      <trkpt lat="48.63277" lon="-3.33266">
        <ele>112</ele>
        <time>2015-01-04T08:46:02Z</time>
      </trkpt>
      <trkpt lat="48.63271" lon="-3.33266">
        <ele>112</ele>
        <time>2015-01-04T08:46:03Z</time>
      </trkpt>
      <trkpt lat="48.63264" lon="-3.33267">
        <ele>112</ele>
        <time>2015-01-04T08:46:04Z</time>
      </trkpt>
      <trkpt lat="48.63258" lon="-3.33267">
        <ele>112</ele>
        <time>2015-01-04T08:46:05Z</time>
      </trkpt>
      <trkpt lat="48.63252" lon="-3.33268">
        <ele>112</ele>
        <time>2015-01-04T08:46:06Z</time>
      </trkpt>
      <trkpt lat="48.63245" lon="-3.33268">
        <ele>112</ele>
        <time>2015-01-04T08:46:07Z</time>
      </trkpt>
      <trkpt lat="48.63239" lon="-3.33269">
        <ele>112</ele>
        <time>2015-01-04T08:46:08Z</time>
      </trkpt>
      <trkpt lat="48.63233" lon="-3.3327">
        <ele>112</ele>
        <time>2015-01-04T08:46:09Z</time>
      </trkpt>
      <trkpt lat="48.63226" lon="-3.33271">
        <ele>112</ele>
        <time>2015-01-04T08:46:10Z</time>
      </trkpt>
      <trkpt lat="48.6322" lon="-3.33271">
        <ele>112</ele>
        <time>2015-01-04T08:46:11Z</time>
      </trkpt>
      <trkpt lat="48.63214" lon="-3.33272">
        <ele>112</ele>
        <time>2015-01-04T08:46:12Z</time>
      </trkpt>
      <trkpt lat="48.63208" lon="-3.33273">
        <ele>112</ele>
        <time>2015-01-04T08:46:13Z</time>
      </trkpt>
      <trkpt lat="48.63202" lon="-3.33274">
        <ele>112</ele>
        <time>2015-01-04T08:46:14Z</time>
      </trkpt>
      <trkpt lat="48.63195" lon="-3.33275">
        <ele>112</ele>
        <time>2015-01-04T08:46:15Z</time>
      </trkpt>
      <trkpt lat="48.63188" lon="-3.33275">
        <ele>112</ele>
        <time>2015-01-04T08:46:16Z</time>
      </trkpt>
      <trkpt lat="48.63182" lon="-3.33276">
        <ele>112</ele>
        <time>2015-01-04T08:46:17Z</time>
      </trkpt>
      <trkpt lat="48.63175" lon="-3.33277">
        <ele>112</ele>
        <time>2015-01-04T08:46:18Z</time>
      </trkpt>
      <trkpt lat="48.63169" lon="-3.33278">
        <ele>112</ele>
        <time>2015-01-04T08:46:19Z</time>
      </trkpt>
      <trkpt lat="48.63162" lon="-3.33278">
        <ele>112</ele>
        <time>2015-01-04T08:46:20Z</time>
      </trkpt>
      <trkpt lat="48.63155" lon="-3.33279">
        <ele>112</ele>
        <time>2015-01-04T08:46:21Z</time>
      </trkpt>
      <trkpt lat="48.63148" lon="-3.33279">
        <ele>112</ele>
        <time>2015-01-04T08:46:22Z</time>
      </trkpt>
      <trkpt lat="48.63141" lon="-3.3328">
        <ele>112</ele>
        <time>2015-01-04T08:46:23Z</time>
      </trkpt>
      <trkpt lat="48.63134" lon="-3.33281">
        <ele>112</ele>
        <time>2015-01-04T08:46:24Z</time>
      </trkpt>
      <trkpt lat="48.63126" lon="-3.33281">
        <ele>112</ele>
        <time>2015-01-04T08:46:25Z</time>
      </trkpt>
      <trkpt lat="48.63111" lon="-3.33281">
        <ele>112</ele>
        <time>2015-01-04T08:46:27Z</time>
      </trkpt>
      <trkpt lat="48.63104" lon="-3.33279">
        <ele>112</ele>
        <time>2015-01-04T08:46:28Z</time>
      </trkpt>
      <trkpt lat="48.63097" lon="-3.33277">
        <ele>112</ele>
        <time>2015-01-04T08:46:29Z</time>
      </trkpt>
      <trkpt lat="48.6309" lon="-3.33273">
        <ele>112</ele>
        <time>2015-01-04T08:46:30Z</time>
      </trkpt>
      <trkpt lat="48.63084" lon="-3.33269">
        <ele>112</ele>
        <time>2015-01-04T08:46:31Z</time>
      </trkpt>
      <trkpt lat="48.63077" lon="-3.33264">
        <ele>112</ele>
        <time>2015-01-04T08:46:32Z</time>
      </trkpt>
      <trkpt lat="48.6307" lon="-3.33259">
        <ele>112</ele>
        <time>2015-01-04T08:46:33Z</time>
      </trkpt>
      <trkpt lat="48.63063" lon="-3.33253">
        <ele>112</ele>
        <time>2015-01-04T08:46:34Z</time>
      </trkpt>
      <trkpt lat="48.63057" lon="-3.33247">
        <ele>112</ele>
        <time>2015-01-04T08:46:35Z</time>
      </trkpt>
      <trkpt lat="48.6305" lon="-3.33242">
        <ele>112</ele>
        <time>2015-01-04T08:46:36Z</time>
      </trkpt>
      <trkpt lat="48.63043" lon="-3.33237">
        <ele>112</ele>
        <time>2015-01-04T08:46:37Z</time>
      </trkpt>
      <trkpt lat="48.63036" lon="-3.33233">
        <ele>112</ele>
        <time>2015-01-04T08:46:38Z</time>
      </trkpt>
      <trkpt lat="48.63029" lon="-3.3323">
        <ele>112</ele>
        <time>2015-01-04T08:46:39Z</time>
      </trkpt>
      <trkpt lat="48.63022" lon="-3.33227">
        <ele>112</ele>
        <time>2015-01-04T08:46:40Z</time>
      </trkpt>
      <trkpt lat="48.63015" lon="-3.33224">
        <ele>112</ele>
        <time>2015-01-04T08:46:41Z</time>
      </trkpt>
      <trkpt lat="48.63007" lon="-3.33222">
        <ele>112</ele>
        <time>2015-01-04T08:46:42Z</time>
      </trkpt>
      <trkpt lat="48.63" lon="-3.33219">
        <ele>112</ele>
        <time>2015-01-04T08:46:43Z</time>
      </trkpt>
      <trkpt lat="48.62993" lon="-3.33217">
        <ele>112</ele>
        <time>2015-01-04T08:46:44Z</time>
      </trkpt>
      <trkpt lat="48.62986" lon="-3.33214">
        <ele>112</ele>
        <time>2015-01-04T08:46:45Z</time>
      </trkpt>
      <trkpt lat="48.62979" lon="-3.33211">
        <ele>112</ele>
        <time>2015-01-04T08:46:46Z</time>
      </trkpt>
      <trkpt lat="48.62972" lon="-3.33209">
        <ele>112</ele>
        <time>2015-01-04T08:46:47Z</time>
      </trkpt>
      <trkpt lat="48.62965" lon="-3.33207">
        <ele>112</ele>
        <time>2015-01-04T08:46:48Z</time>
      </trkpt>
      <trkpt lat="48.62958" lon="-3.33204">
        <ele>112</ele>
        <time>2015-01-04T08:46:49Z</time>
      </trkpt>
      <trkpt lat="48.62951" lon="-3.33202">
        <ele>112</ele>
        <time>2015-01-04T08:46:50Z</time>
      </trkpt>
      <trkpt lat="48.62944" lon="-3.332">
        <ele>112</ele>
        <time>2015-01-04T08:46:51Z</time>
      </trkpt>
      <trkpt lat="48.62937" lon="-3.33198">
        <ele>112</ele>
        <time>2015-01-04T08:46:52Z</time>
      </trkpt>
      <trkpt lat="48.6293" lon="-3.33196">
        <ele>112</ele>
        <time>2015-01-04T08:46:53Z</time>
      </trkpt>
      <trkpt lat="48.62923" lon="-3.33193">
        <ele>112</ele>
        <time>2015-01-04T08:46:54Z</time>
      </trkpt>
      <trkpt lat="48.62916" lon="-3.33191">
        <ele>112</ele>
        <time>2015-01-04T08:46:55Z</time>
      </trkpt>
      <trkpt lat="48.62909" lon="-3.3319">
        <ele>112</ele>
        <time>2015-01-04T08:46:56Z</time>
      </trkpt>
      <trkpt lat="48.62903" lon="-3.33188">
        <ele>112</ele>
        <time>2015-01-04T08:46:57Z</time>
      </trkpt>
      <trkpt lat="48.62896" lon="-3.33186">
        <ele>112</ele>
        <time>2015-01-04T08:46:58Z</time>
      </trkpt>
      <trkpt lat="48.62889" lon="-3.33185">
        <ele>112</ele>
        <time>2015-01-04T08:46:59Z</time>
      </trkpt>
      <trkpt lat="48.62883" lon="-3.33183">
        <ele>112</ele>
        <time>2015-01-04T08:47:00Z</time>
      </trkpt>
      <trkpt lat="48.62875" lon="-3.33181">
        <ele>112</ele>
        <time>2015-01-04T08:47:01Z</time>
      </trkpt>
      <trkpt lat="48.62869" lon="-3.33179">
        <ele>112</ele>
        <time>2015-01-04T08:47:02Z</time>
      </trkpt>
      <trkpt lat="48.62862" lon="-3.33176">
        <ele>112</ele>
        <time>2015-01-04T08:47:03Z</time>
      </trkpt>
      <trkpt lat="48.62854" lon="-3.33173">
        <ele>112</ele>
        <time>2015-01-04T08:47:04Z</time>
      </trkpt>
      <trkpt lat="48.62847" lon="-3.3317">
        <ele>112</ele>
        <time>2015-01-04T08:47:05Z</time>
      </trkpt>
      <trkpt lat="48.62841" lon="-3.33167">
        <ele>112</ele>
        <time>2015-01-04T08:47:06Z</time>
      </trkpt>
      <trkpt lat="48.62834" lon="-3.33163">
        <ele>112</ele>
        <time>2015-01-04T08:47:07Z</time>
      </trkpt>
      <trkpt lat="48.62827" lon="-3.33159">
        <ele>112</ele>
        <time>2015-01-04T08:47:08Z</time>
      </trkpt>
      <trkpt lat="48.6282" lon="-3.33155">
        <ele>112</ele>
        <time>2015-01-04T08:47:09Z</time>
      </trkpt>
      <trkpt lat="48.62814" lon="-3.33152">
        <ele>112</ele>
        <time>2015-01-04T08:47:10Z</time>
      </trkpt>
      <trkpt lat="48.62807" lon="-3.33148">
        <ele>112</ele>
        <time>2015-01-04T08:47:11Z</time>
      </trkpt>
      <trkpt lat="48.62801" lon="-3.33144">
        <ele>112</ele>
        <time>2015-01-04T08:47:12Z</time>
      </trkpt>
      <trkpt lat="48.62794" lon="-3.3314">
        <ele>112</ele>
        <time>2015-01-04T08:47:13Z</time>
      </trkpt>
      <trkpt lat="48.62788" lon="-3.33136">
        <ele>112</ele>
        <time>2015-01-04T08:47:14Z</time>
      </trkpt>
      <trkpt lat="48.62781" lon="-3.33133">
        <ele>112</ele>
        <time>2015-01-04T08:47:15Z</time>
      </trkpt>
      <trkpt lat="48.62775" lon="-3.33129">
        <ele>112</ele>
        <time>2015-01-04T08:47:16Z</time>
      </trkpt>
      <trkpt lat="48.62769" lon="-3.33126">
        <ele>112</ele>
        <time>2015-01-04T08:47:17Z</time>
      </trkpt>
      <trkpt lat="48.62762" lon="-3.33123">
        <ele>112</ele>
        <time>2015-01-04T08:47:18Z</time>
      </trkpt>
      <trkpt lat="48.62756" lon="-3.33121">
        <ele>113</ele>
        <time>2015-01-04T08:47:19Z</time>
      </trkpt>
      <trkpt lat="48.6275" lon="-3.33118">
        <ele>113</ele>
        <time>2015-01-04T08:47:20Z</time>
      </trkpt>
      <trkpt lat="48.62744" lon="-3.33116">
        <ele>113</ele>
        <time>2015-01-04T08:47:21Z</time>
      </trkpt>
      <trkpt lat="48.62737" lon="-3.33114">
        <ele>113</ele>
        <time>2015-01-04T08:47:22Z</time>
      </trkpt>
      <trkpt lat="48.62731" lon="-3.33112">
        <ele>113</ele>
        <time>2015-01-04T08:47:23Z</time>
      </trkpt>
      <trkpt lat="48.62725" lon="-3.3311">
        <ele>113</ele>
        <time>2015-01-04T08:47:24Z</time>
      </trkpt>
      <trkpt lat="48.62719" lon="-3.33108">
        <ele>113</ele>
        <time>2015-01-04T08:47:25Z</time>
      </trkpt>
      <trkpt lat="48.62713" lon="-3.33105">
        <ele>114</ele>
        <time>2015-01-04T08:47:26Z</time>
      </trkpt>
      <trkpt lat="48.62707" lon="-3.33103">
        <ele>114</ele>
        <time>2015-01-04T08:47:27Z</time>
      </trkpt>
      <trkpt lat="48.62701" lon="-3.33101">
        <ele>114</ele>
        <time>2015-01-04T08:47:28Z</time>
      </trkpt>
      <trkpt lat="48.62694" lon="-3.33099">
        <ele>114</ele>
        <time>2015-01-04T08:47:29Z</time>
      </trkpt>
      <trkpt lat="48.62688" lon="-3.33097">
        <ele>114</ele>
        <time>2015-01-04T08:47:30Z</time>
      </trkpt>
      <trkpt lat="48.62681" lon="-3.33095">
        <ele>114</ele>
        <time>2015-01-04T08:47:31Z</time>
      </trkpt>
      <trkpt lat="48.62675" lon="-3.33093">
        <ele>114</ele>
        <time>2015-01-04T08:47:32Z</time>
      </trkpt>
      <trkpt lat="48.62669" lon="-3.33091">
        <ele>115</ele>
        <time>2015-01-04T08:47:33Z</time>
      </trkpt>
      <trkpt lat="48.62662" lon="-3.33089">
        <ele>115</ele>
        <time>2015-01-04T08:47:34Z</time>
      </trkpt>
      <trkpt lat="48.62656" lon="-3.33087">
        <ele>115</ele>
        <time>2015-01-04T08:47:35Z</time>
      </trkpt>
      <trkpt lat="48.6265" lon="-3.33085">
        <ele>115</ele>
        <time>2015-01-04T08:47:36Z</time>
      </trkpt>
      <trkpt lat="48.62643" lon="-3.33082">
        <ele>115</ele>
        <time>2015-01-04T08:47:37Z</time>
      </trkpt>
      <trkpt lat="48.62637" lon="-3.3308">
        <ele>115</ele>
        <time>2015-01-04T08:47:38Z</time>
      </trkpt>
      <trkpt lat="48.6263" lon="-3.33079">
        <ele>115</ele>
        <time>2015-01-04T08:47:39Z</time>
      </trkpt>
      <trkpt lat="48.62624" lon="-3.33077">
        <ele>115</ele>
        <time>2015-01-04T08:47:40Z</time>
      </trkpt>
      <trkpt lat="48.62618" lon="-3.33075">
        <ele>116</ele>
        <time>2015-01-04T08:47:41Z</time>
      </trkpt>
      <trkpt lat="48.62612" lon="-3.33073">
        <ele>116</ele>
        <time>2015-01-04T08:47:42Z</time>
      </trkpt>
      <trkpt lat="48.62605" lon="-3.33071">
        <ele>116</ele>
        <time>2015-01-04T08:47:43Z</time>
      </trkpt>
      <trkpt lat="48.62599" lon="-3.33069">
        <ele>116</ele>
        <time>2015-01-04T08:47:44Z</time>
      </trkpt>
      <trkpt lat="48.62593" lon="-3.33067">
        <ele>116</ele>
        <time>2015-01-04T08:47:45Z</time>
      </trkpt>
      <trkpt lat="48.62587" lon="-3.33066">
        <ele>117</ele>
        <time>2015-01-04T08:47:46Z</time>
      </trkpt>
      <trkpt lat="48.62581" lon="-3.33064">
        <ele>117</ele>
        <time>2015-01-04T08:47:47Z</time>
      </trkpt>
      <trkpt lat="48.62575" lon="-3.33062">
        <ele>117</ele>
        <time>2015-01-04T08:47:48Z</time>
      </trkpt>
      <trkpt lat="48.62569" lon="-3.3306">
        <ele>117</ele>
        <time>2015-01-04T08:47:49Z</time>
      </trkpt>
      <trkpt lat="48.62563" lon="-3.33059">
        <ele>117</ele>
        <time>2015-01-04T08:47:50Z</time>
      </trkpt>
      <trkpt lat="48.62556" lon="-3.33057">
        <ele>118</ele>
        <time>2015-01-04T08:47:51Z</time>
      </trkpt>
      <trkpt lat="48.6255" lon="-3.33055">
        <ele>118</ele>
        <time>2015-01-04T08:47:52Z</time>
      </trkpt>
      <trkpt lat="48.62544" lon="-3.33053">
        <ele>118</ele>
        <time>2015-01-04T08:47:53Z</time>
      </trkpt>
      <trkpt lat="48.62538" lon="-3.33051">
        <ele>118</ele>
        <time>2015-01-04T08:47:54Z</time>
      </trkpt>
      <trkpt lat="48.62532" lon="-3.33049">
        <ele>118</ele>
        <time>2015-01-04T08:47:55Z</time>
      </trkpt>
      <trkpt lat="48.62526" lon="-3.33047">
        <ele>119</ele>
        <time>2015-01-04T08:47:56Z</time>
      </trkpt>
      <trkpt lat="48.6252" lon="-3.33044">
        <ele>119</ele>
        <time>2015-01-04T08:47:57Z</time>
      </trkpt>
      <trkpt lat="48.62514" lon="-3.33041">
        <ele>119</ele>
        <time>2015-01-04T08:47:58Z</time>
      </trkpt>
      <trkpt lat="48.62508" lon="-3.33039">
        <ele>119</ele>
        <time>2015-01-04T08:47:59Z</time>
      </trkpt>
      <trkpt lat="48.62502" lon="-3.33036">
        <ele>119</ele>
        <time>2015-01-04T08:48:00Z</time>
      </trkpt>
      <trkpt lat="48.62497" lon="-3.33033">
        <ele>119</ele>
        <time>2015-01-04T08:48:01Z</time>
      </trkpt>
      <trkpt lat="48.62491" lon="-3.33031">
        <ele>119</ele>
        <time>2015-01-04T08:48:02Z</time>
      </trkpt>
      <trkpt lat="48.62485" lon="-3.33028">
        <ele>120</ele>
        <time>2015-01-04T08:48:03Z</time>
      </trkpt>
      <trkpt lat="48.62479" lon="-3.33025">
        <ele>120</ele>
        <time>2015-01-04T08:48:04Z</time>
      </trkpt>
      <trkpt lat="48.62474" lon="-3.33022">
        <ele>120</ele>
        <time>2015-01-04T08:48:05Z</time>
      </trkpt>
      <trkpt lat="48.62469" lon="-3.33019">
        <ele>120</ele>
        <time>2015-01-04T08:48:06Z</time>
      </trkpt>
      <trkpt lat="48.62463" lon="-3.33015">
        <ele>120</ele>
        <time>2015-01-04T08:48:07Z</time>
      </trkpt>
      <trkpt lat="48.62458" lon="-3.33012">
        <ele>120</ele>
        <time>2015-01-04T08:48:08Z</time>
      </trkpt>
      <trkpt lat="48.62452" lon="-3.33008">
        <ele>120</ele>
        <time>2015-01-04T08:48:09Z</time>
      </trkpt>
      <trkpt lat="48.62447" lon="-3.33004">
        <ele>120</ele>
        <time>2015-01-04T08:48:10Z</time>
      </trkpt>
      <trkpt lat="48.62442" lon="-3.33">
        <ele>120</ele>
        <time>2015-01-04T08:48:11Z</time>
      </trkpt>
      <trkpt lat="48.62437" lon="-3.32997">
        <ele>120</ele>
        <time>2015-01-04T08:48:12Z</time>
      </trkpt>
      <trkpt lat="48.62431" lon="-3.32993">
        <ele>121</ele>
        <time>2015-01-04T08:48:13Z</time>
      </trkpt>
      <trkpt lat="48.62426" lon="-3.32989">
        <ele>121</ele>
        <time>2015-01-04T08:48:14Z</time>
      </trkpt>
      <trkpt lat="48.62421" lon="-3.32984">
        <ele>121</ele>
        <time>2015-01-04T08:48:15Z</time>
      </trkpt>
      <trkpt lat="48.62416" lon="-3.3298">
        <ele>121</ele>
        <time>2015-01-04T08:48:16Z</time>
      </trkpt>
      <trkpt lat="48.62411" lon="-3.32975">
        <ele>121</ele>
        <time>2015-01-04T08:48:17Z</time>
      </trkpt>
      <trkpt lat="48.62406" lon="-3.32971">
        <ele>121</ele>
        <time>2015-01-04T08:48:18Z</time>
      </trkpt>
      <trkpt lat="48.62401" lon="-3.32967">
        <ele>121</ele>
        <time>2015-01-04T08:48:19Z</time>
      </trkpt>
      <trkpt lat="48.62396" lon="-3.32962">
        <ele>121</ele>
        <time>2015-01-04T08:48:20Z</time>
      </trkpt>
      <trkpt lat="48.62391" lon="-3.32958">
        <ele>122</ele>
        <time>2015-01-04T08:48:21Z</time>
      </trkpt>
      <trkpt lat="48.62386" lon="-3.32953">
        <ele>122</ele>
        <time>2015-01-04T08:48:22Z</time>
      </trkpt>
      <trkpt lat="48.62381" lon="-3.32948">
        <ele>122</ele>
        <time>2015-01-04T08:48:23Z</time>
      </trkpt>
      <trkpt lat="48.62377" lon="-3.32943">
        <ele>122</ele>
        <time>2015-01-04T08:48:24Z</time>
      </trkpt>
      <trkpt lat="48.62372" lon="-3.32938">
        <ele>123</ele>
        <time>2015-01-04T08:48:25Z</time>
      </trkpt>
      <trkpt lat="48.62367" lon="-3.32932">
        <ele>123</ele>
        <time>2015-01-04T08:48:26Z</time>
      </trkpt>
      <trkpt lat="48.62363" lon="-3.32926">
        <ele>123</ele>
        <time>2015-01-04T08:48:27Z</time>
      </trkpt>
      <trkpt lat="48.62358" lon="-3.32921">
        <ele>123</ele>
        <time>2015-01-04T08:48:28Z</time>
      </trkpt>
      <trkpt lat="48.62353" lon="-3.32916">
        <ele>123</ele>
        <time>2015-01-04T08:48:29Z</time>
      </trkpt>
      <trkpt lat="48.62348" lon="-3.32911">
        <ele>124</ele>
        <time>2015-01-04T08:48:30Z</time>
      </trkpt>
      <trkpt lat="48.62342" lon="-3.32907">
        <ele>124</ele>
        <time>2015-01-04T08:48:31Z</time>
      </trkpt>
      <trkpt lat="48.62337" lon="-3.32903">
        <ele>124</ele>
        <time>2015-01-04T08:48:32Z</time>
      </trkpt>
      <trkpt lat="48.62332" lon="-3.329">
        <ele>124</ele>
        <time>2015-01-04T08:48:33Z</time>
      </trkpt>
      <trkpt lat="48.62326" lon="-3.32898">
        <ele>125</ele>
        <time>2015-01-04T08:48:34Z</time>
      </trkpt>
      <trkpt lat="48.6232" lon="-3.32896">
        <ele>125</ele>
        <time>2015-01-04T08:48:35Z</time>
      </trkpt>
      <trkpt lat="48.62314" lon="-3.32894">
        <ele>125</ele>
        <time>2015-01-04T08:48:36Z</time>
      </trkpt>
      <trkpt lat="48.62308" lon="-3.32894">
        <ele>125</ele>
        <time>2015-01-04T08:48:37Z</time>
      </trkpt>
      <trkpt lat="48.62302" lon="-3.32894">
        <ele>125</ele>
        <time>2015-01-04T08:48:38Z</time>
      </trkpt>
      <trkpt lat="48.62297" lon="-3.32894">
        <ele>126</ele>
        <time>2015-01-04T08:48:39Z</time>
      </trkpt>
      <trkpt lat="48.62291" lon="-3.32895">
        <ele>126</ele>
        <time>2015-01-04T08:48:40Z</time>
      </trkpt>
      <trkpt lat="48.62279" lon="-3.32894">
        <ele>126</ele>
        <time>2015-01-04T08:48:42Z</time>
      </trkpt>
      <trkpt lat="48.62273" lon="-3.32893">
        <ele>127</ele>
        <time>2015-01-04T08:48:43Z</time>
      </trkpt>
      <trkpt lat="48.62267" lon="-3.32892">
        <ele>127</ele>
        <time>2015-01-04T08:48:44Z</time>
      </trkpt>
      <trkpt lat="48.62261" lon="-3.3289">
        <ele>127</ele>
        <time>2015-01-04T08:48:45Z</time>
      </trkpt>
      <trkpt lat="48.62255" lon="-3.32887">
        <ele>127</ele>
        <time>2015-01-04T08:48:46Z</time>
      </trkpt>
      <trkpt lat="48.62249" lon="-3.32884">
        <ele>127</ele>
        <time>2015-01-04T08:48:47Z</time>
      </trkpt>
      <trkpt lat="48.62244" lon="-3.32881">
        <ele>127</ele>
        <time>2015-01-04T08:48:48Z</time>
      </trkpt>
      <trkpt lat="48.62238" lon="-3.32878">
        <ele>127</ele>
        <time>2015-01-04T08:48:49Z</time>
      </trkpt>
      <trkpt lat="48.62232" lon="-3.32874">
        <ele>127</ele>
        <time>2015-01-04T08:48:50Z</time>
      </trkpt>
      <trkpt lat="48.62227" lon="-3.3287">
        <ele>128</ele>
        <time>2015-01-04T08:48:51Z</time>
      </trkpt>
      <trkpt lat="48.62222" lon="-3.32865">
        <ele>128</ele>
        <time>2015-01-04T08:48:52Z</time>
      </trkpt>
      <trkpt lat="48.62216" lon="-3.3286">
        <ele>128</ele>
        <time>2015-01-04T08:48:53Z</time>
      </trkpt>
      <trkpt lat="48.62211" lon="-3.32855">
        <ele>128</ele>
        <time>2015-01-04T08:48:54Z</time>
      </trkpt>
      <trkpt lat="48.62206" lon="-3.32849">
        <ele>128</ele>
        <time>2015-01-04T08:48:55Z</time>
      </trkpt>
      <trkpt lat="48.62202" lon="-3.32843">
        <ele>129</ele>
        <time>2015-01-04T08:48:56Z</time>
      </trkpt>
      <trkpt lat="48.62197" lon="-3.32837">
        <ele>129</ele>
        <time>2015-01-04T08:48:57Z</time>
      </trkpt>
      <trkpt lat="48.62192" lon="-3.3283">
        <ele>129</ele>
        <time>2015-01-04T08:48:58Z</time>
      </trkpt>
      <trkpt lat="48.62188" lon="-3.32824">
        <ele>129</ele>
        <time>2015-01-04T08:48:59Z</time>
      </trkpt>
      <trkpt lat="48.62183" lon="-3.32818">
        <ele>129</ele>
        <time>2015-01-04T08:49:00Z</time>
      </trkpt>
      <trkpt lat="48.62178" lon="-3.32812">
        <ele>129</ele>
        <time>2015-01-04T08:49:01Z</time>
      </trkpt>
      <trkpt lat="48.62174" lon="-3.32806">
        <ele>129</ele>
        <time>2015-01-04T08:49:02Z</time>
      </trkpt>
      <trkpt lat="48.62169" lon="-3.32801">
        <ele>129</ele>
        <time>2015-01-04T08:49:03Z</time>
      </trkpt>
      <trkpt lat="48.62165" lon="-3.32796">
        <ele>129</ele>
        <time>2015-01-04T08:49:04Z</time>
      </trkpt>
      <trkpt lat="48.6216" lon="-3.32791">
        <ele>129</ele>
        <time>2015-01-04T08:49:05Z</time>
      </trkpt>
      <trkpt lat="48.62155" lon="-3.32787">
        <ele>129</ele>
        <time>2015-01-04T08:49:06Z</time>
      </trkpt>
      <trkpt lat="48.62151" lon="-3.32783">
        <ele>129</ele>
        <time>2015-01-04T08:49:07Z</time>
      </trkpt>
      <trkpt lat="48.62146" lon="-3.32779">
        <ele>129</ele>
        <time>2015-01-04T08:49:08Z</time>
      </trkpt>
      <trkpt lat="48.62142" lon="-3.32775">
        <ele>129</ele>
        <time>2015-01-04T08:49:09Z</time>
      </trkpt>
      <trkpt lat="48.62137" lon="-3.32772">
        <ele>129</ele>
        <time>2015-01-04T08:49:10Z</time>
      </trkpt>
      <trkpt lat="48.62134" lon="-3.32769">
        <ele>129</ele>
        <time>2015-01-04T08:49:11Z</time>
      </trkpt>
      <trkpt lat="48.62131" lon="-3.32766">
        <ele>129</ele>
        <time>2015-01-04T08:49:12Z</time>
      </trkpt>
      <trkpt lat="48.62128" lon="-3.32765">
        <ele>129</ele>
        <time>2015-01-04T08:49:13Z</time>
      </trkpt>
      <trkpt lat="48.62127" lon="-3.32763">
        <ele>129</ele>
        <time>2015-01-04T08:49:14Z</time>
      </trkpt>
      <trkpt lat="48.62125" lon="-3.32762">
        <ele>129</ele>
        <time>2015-01-04T08:49:15Z</time>
      </trkpt>
      <trkpt lat="48.62123" lon="-3.32763">
        <ele>129</ele>
        <time>2015-01-04T08:49:16Z</time>
      </trkpt>
      <trkpt lat="48.62121" lon="-3.32765">
        <ele>129</ele>
        <time>2015-01-04T08:49:17Z</time>
      </trkpt>
      <trkpt lat="48.6212" lon="-3.32769">
        <ele>129</ele>
        <time>2015-01-04T08:49:18Z</time>
      </trkpt>
      <trkpt lat="48.62118" lon="-3.32773">
        <ele>129</ele>
        <time>2015-01-04T08:49:19Z</time>
      </trkpt>
      <trkpt lat="48.62117" lon="-3.32779">
        <ele>129</ele>
        <time>2015-01-04T08:49:20Z</time>
      </trkpt>
      <trkpt lat="48.62115" lon="-3.32784">
        <ele>129</ele>
        <time>2015-01-04T08:49:21Z</time>
      </trkpt>
      <trkpt lat="48.62113" lon="-3.3279">
        <ele>129</ele>
        <time>2015-01-04T08:49:22Z</time>
      </trkpt>
      <trkpt lat="48.62112" lon="-3.32796">
        <ele>129</ele>
        <time>2015-01-04T08:49:23Z</time>
      </trkpt>
      <trkpt lat="48.6211" lon="-3.32802">
        <ele>129</ele>
        <time>2015-01-04T08:49:24Z</time>
      </trkpt>
      <trkpt lat="48.62109" lon="-3.32808">
        <ele>129</ele>
        <time>2015-01-04T08:49:25Z</time>
      </trkpt>
      <trkpt lat="48.62107" lon="-3.32814">
        <ele>129</ele>
        <time>2015-01-04T08:49:26Z</time>
      </trkpt>
      <trkpt lat="48.62105" lon="-3.3282">
        <ele>129</ele>
        <time>2015-01-04T08:49:27Z</time>
      </trkpt>
      <trkpt lat="48.62103" lon="-3.32826">
        <ele>129</ele>
        <time>2015-01-04T08:49:28Z</time>
      </trkpt>
      <trkpt lat="48.62102" lon="-3.32832">
        <ele>129</ele>
        <time>2015-01-04T08:49:29Z</time>
      </trkpt>
      <trkpt lat="48.621" lon="-3.32839">
        <ele>129</ele>
        <time>2015-01-04T08:49:30Z</time>
      </trkpt>
      <trkpt lat="48.62098" lon="-3.32845">
        <ele>129</ele>
        <time>2015-01-04T08:49:31Z</time>
      </trkpt>
      <trkpt lat="48.62097" lon="-3.32852">
        <ele>129</ele>
        <time>2015-01-04T08:49:32Z</time>
      </trkpt>
      <trkpt lat="48.62096" lon="-3.32859">
        <ele>129</ele>
        <time>2015-01-04T08:49:33Z</time>
      </trkpt>
      <trkpt lat="48.62095" lon="-3.32866">
        <ele>129</ele>
        <time>2015-01-04T08:49:34Z</time>
      </trkpt>
      <trkpt lat="48.62093" lon="-3.32873">
        <ele>129</ele>
        <time>2015-01-04T08:49:35Z</time>
      </trkpt>
      <trkpt lat="48.62092" lon="-3.32881">
        <ele>129</ele>
        <time>2015-01-04T08:49:36Z</time>
      </trkpt>
      <trkpt lat="48.62091" lon="-3.32889">
        <ele>129</ele>
        <time>2015-01-04T08:49:37Z</time>
      </trkpt>
      <trkpt lat="48.62089" lon="-3.32897">
        <ele>129</ele>
        <time>2015-01-04T08:49:38Z</time>
      </trkpt>
      <trkpt lat="48.62088" lon="-3.32905">
        <ele>129</ele>
        <time>2015-01-04T08:49:39Z</time>
      </trkpt>
      <trkpt lat="48.62087" lon="-3.32913">
        <ele>129</ele>
        <time>2015-01-04T08:49:40Z</time>
      </trkpt>
      <trkpt lat="48.62085" lon="-3.32921">
        <ele>129</ele>
        <time>2015-01-04T08:49:41Z</time>
      </trkpt>
      <trkpt lat="48.62084" lon="-3.32929">
        <ele>129</ele>
        <time>2015-01-04T08:49:42Z</time>
      </trkpt>
      <trkpt lat="48.62082" lon="-3.32938">
        <ele>129</ele>
        <time>2015-01-04T08:49:43Z</time>
      </trkpt>
      <trkpt lat="48.62081" lon="-3.32946">
        <ele>129</ele>
        <time>2015-01-04T08:49:44Z</time>
      </trkpt>
      <trkpt lat="48.6208" lon="-3.32955">
        <ele>129</ele>
        <time>2015-01-04T08:49:45Z</time>
      </trkpt>
      <trkpt lat="48.62078" lon="-3.32963">
        <ele>129</ele>
        <time>2015-01-04T08:49:46Z</time>
      </trkpt>
      <trkpt lat="48.62077" lon="-3.32972">
        <ele>129</ele>
        <time>2015-01-04T08:49:47Z</time>
      </trkpt>
      <trkpt lat="48.62076" lon="-3.32979">
        <ele>129</ele>
        <time>2015-01-04T08:49:48Z</time>
      </trkpt>
      <trkpt lat="48.62075" lon="-3.32987">
        <ele>129</ele>
        <time>2015-01-04T08:49:49Z</time>
      </trkpt>
      <trkpt lat="48.62075" lon="-3.32995">
        <ele>129</ele>
        <time>2015-01-04T08:49:50Z</time>
      </trkpt>
      <trkpt lat="48.62074" lon="-3.33003">
        <ele>130</ele>
        <time>2015-01-04T08:49:51Z</time>
      </trkpt>
      <trkpt lat="48.62074" lon="-3.33011">
        <ele>130</ele>
        <time>2015-01-04T08:49:52Z</time>
      </trkpt>
      <trkpt lat="48.62073" lon="-3.33019">
        <ele>130</ele>
        <time>2015-01-04T08:49:53Z</time>
      </trkpt>
      <trkpt lat="48.62073" lon="-3.33027">
        <ele>130</ele>
        <time>2015-01-04T08:49:54Z</time>
      </trkpt>
      <trkpt lat="48.62072" lon="-3.33035">
        <ele>130</ele>
        <time>2015-01-04T08:49:55Z</time>
      </trkpt>
      <trkpt lat="48.62072" lon="-3.33044">
        <ele>130</ele>
        <time>2015-01-04T08:49:56Z</time>
      </trkpt>
      <trkpt lat="48.62072" lon="-3.33053">
        <ele>130</ele>
        <time>2015-01-04T08:49:57Z</time>
      </trkpt>
      <trkpt lat="48.62071" lon="-3.33073">
        <ele>130</ele>
        <time>2015-01-04T08:49:59Z</time>
      </trkpt>
      <trkpt lat="48.6207" lon="-3.33083">
        <ele>130</ele>
        <time>2015-01-04T08:50:00Z</time>
      </trkpt>
      <trkpt lat="48.6207" lon="-3.33093">
        <ele>130</ele>
        <time>2015-01-04T08:50:01Z</time>
      </trkpt>
      <trkpt lat="48.62069" lon="-3.33104">
        <ele>130</ele>
        <time>2015-01-04T08:50:02Z</time>
      </trkpt>
      <trkpt lat="48.62067" lon="-3.33115">
        <ele>130</ele>
        <time>2015-01-04T08:50:03Z</time>
      </trkpt>
      <trkpt lat="48.62065" lon="-3.33126">
        <ele>130</ele>
        <time>2015-01-04T08:50:04Z</time>
      </trkpt>
      <trkpt lat="48.62063" lon="-3.33137">
        <ele>130</ele>
        <time>2015-01-04T08:50:05Z</time>
      </trkpt>
      <trkpt lat="48.62061" lon="-3.33147">
        <ele>130</ele>
        <time>2015-01-04T08:50:06Z</time>
      </trkpt>
      <trkpt lat="48.62059" lon="-3.33158">
        <ele>130</ele>
        <time>2015-01-04T08:50:07Z</time>
      </trkpt>
      <trkpt lat="48.62056" lon="-3.33169">
        <ele>130</ele>
        <time>2015-01-04T08:50:08Z</time>
      </trkpt>
      <trkpt lat="48.62054" lon="-3.33179">
        <ele>130</ele>
        <time>2015-01-04T08:50:09Z</time>
      </trkpt>
      <trkpt lat="48.62051" lon="-3.33189">
        <ele>130</ele>
        <time>2015-01-04T08:50:10Z</time>
      </trkpt>
      <trkpt lat="48.62047" lon="-3.33198">
        <ele>130</ele>
        <time>2015-01-04T08:50:11Z</time>
      </trkpt>
      <trkpt lat="48.62044" lon="-3.33206">
        <ele>130</ele>
        <time>2015-01-04T08:50:12Z</time>
      </trkpt>
      <trkpt lat="48.6204" lon="-3.33215">
        <ele>130</ele>
        <time>2015-01-04T08:50:13Z</time>
      </trkpt>
      <trkpt lat="48.62036" lon="-3.33223">
        <ele>130</ele>
        <time>2015-01-04T08:50:14Z</time>
      </trkpt>
      <trkpt lat="48.62032" lon="-3.33232">
        <ele>130</ele>
        <time>2015-01-04T08:50:15Z</time>
      </trkpt>
      <trkpt lat="48.62028" lon="-3.33241">
        <ele>130</ele>
        <time>2015-01-04T08:50:16Z</time>
      </trkpt>
      <trkpt lat="48.62024" lon="-3.3325">
        <ele>130</ele>
        <time>2015-01-04T08:50:17Z</time>
      </trkpt>
      <trkpt lat="48.62019" lon="-3.3326">
        <ele>130</ele>
        <time>2015-01-04T08:50:18Z</time>
      </trkpt>
      <trkpt lat="48.62015" lon="-3.3327">
        <ele>130</ele>
        <time>2015-01-04T08:50:19Z</time>
      </trkpt>
      <trkpt lat="48.62011" lon="-3.3328">
        <ele>130</ele>
        <time>2015-01-04T08:50:20Z</time>
      </trkpt>
      <trkpt lat="48.62008" lon="-3.33292">
        <ele>130</ele>
        <time>2015-01-04T08:50:21Z</time>
      </trkpt>
      <trkpt lat="48.62004" lon="-3.33303">
        <ele>130</ele>
        <time>2015-01-04T08:50:22Z</time>
      </trkpt>
      <trkpt lat="48.62001" lon="-3.33314">
        <ele>130</ele>
        <time>2015-01-04T08:50:23Z</time>
      </trkpt>
      <trkpt lat="48.61998" lon="-3.33326">
        <ele>130</ele>
        <time>2015-01-04T08:50:24Z</time>
      </trkpt>
      <trkpt lat="48.61995" lon="-3.33337">
        <ele>130</ele>
        <time>2015-01-04T08:50:25Z</time>
      </trkpt>
      <trkpt lat="48.61992" lon="-3.33349">
        <ele>130</ele>
        <time>2015-01-04T08:50:26Z</time>
      </trkpt>
      <trkpt lat="48.6199" lon="-3.3336">
        <ele>130</ele>
        <time>2015-01-04T08:50:27Z</time>
      </trkpt>
      <trkpt lat="48.61987" lon="-3.33371">
        <ele>130</ele>
        <time>2015-01-04T08:50:28Z</time>
      </trkpt>
      <trkpt lat="48.61985" lon="-3.33382">
        <ele>130</ele>
        <time>2015-01-04T08:50:29Z</time>
      </trkpt>
      <trkpt lat="48.61982" lon="-3.33394">
        <ele>130</ele>
        <time>2015-01-04T08:50:30Z</time>
      </trkpt>
      <trkpt lat="48.6198" lon="-3.33405">
        <ele>130</ele>
        <time>2015-01-04T08:50:31Z</time>
      </trkpt>
      <trkpt lat="48.61977" lon="-3.33418">
        <ele>130</ele>
        <time>2015-01-04T08:50:32Z</time>
      </trkpt>
      <trkpt lat="48.61974" lon="-3.3343">
        <ele>130</ele>
        <time>2015-01-04T08:50:33Z</time>
      </trkpt>
      <trkpt lat="48.61972" lon="-3.33443">
        <ele>130</ele>
        <time>2015-01-04T08:50:34Z</time>
      </trkpt>
      <trkpt lat="48.61969" lon="-3.33456">
        <ele>129</ele>
        <time>2015-01-04T08:50:35Z</time>
      </trkpt>
      <trkpt lat="48.61966" lon="-3.3347">
        <ele>129</ele>
        <time>2015-01-04T08:50:36Z</time>
      </trkpt>
      <trkpt lat="48.61963" lon="-3.33483">
        <ele>128</ele>
        <time>2015-01-04T08:50:37Z</time>
      </trkpt>
      <trkpt lat="48.61961" lon="-3.33496">
        <ele>128</ele>
        <time>2015-01-04T08:50:38Z</time>
      </trkpt>
      <trkpt lat="48.61958" lon="-3.33508">
        <ele>128</ele>
        <time>2015-01-04T08:50:39Z</time>
      </trkpt>
      <trkpt lat="48.61955" lon="-3.33521">
        <ele>127</ele>
        <time>2015-01-04T08:50:40Z</time>
      </trkpt>
      <trkpt lat="48.61952" lon="-3.33534">
        <ele>127</ele>
        <time>2015-01-04T08:50:41Z</time>
      </trkpt>
      <trkpt lat="48.61949" lon="-3.33548">
        <ele>126</ele>
        <time>2015-01-04T08:50:42Z</time>
      </trkpt>
      <trkpt lat="48.61946" lon="-3.33561">
        <ele>126</ele>
        <time>2015-01-04T08:50:43Z</time>
      </trkpt>
      <trkpt lat="48.61943" lon="-3.33574">
        <ele>125</ele>
        <time>2015-01-04T08:50:44Z</time>
      </trkpt>
      <trkpt lat="48.6194" lon="-3.33588">
        <ele>125</ele>
        <time>2015-01-04T08:50:45Z</time>
      </trkpt>
      <trkpt lat="48.61937" lon="-3.33601">
        <ele>125</ele>
        <time>2015-01-04T08:50:46Z</time>
      </trkpt>
      <trkpt lat="48.61933" lon="-3.33614">
        <ele>124</ele>
        <time>2015-01-04T08:50:47Z</time>
      </trkpt>
      <trkpt lat="48.6193" lon="-3.33627">
        <ele>124</ele>
        <time>2015-01-04T08:50:48Z</time>
      </trkpt>
      <trkpt lat="48.61926" lon="-3.33639">
        <ele>124</ele>
        <time>2015-01-04T08:50:49Z</time>
      </trkpt>
      <trkpt lat="48.61921" lon="-3.3365">
        <ele>124</ele>
        <time>2015-01-04T08:50:50Z</time>
      </trkpt>
      <trkpt lat="48.61916" lon="-3.3366">
        <ele>124</ele>
        <time>2015-01-04T08:50:51Z</time>
      </trkpt>
      <trkpt lat="48.61911" lon="-3.3367">
        <ele>124</ele>
        <time>2015-01-04T08:50:52Z</time>
      </trkpt>
      <trkpt lat="48.61905" lon="-3.33679">
        <ele>124</ele>
        <time>2015-01-04T08:50:53Z</time>
      </trkpt>
      <trkpt lat="48.61899" lon="-3.33688">
        <ele>124</ele>
        <time>2015-01-04T08:50:54Z</time>
      </trkpt>
      <trkpt lat="48.61893" lon="-3.33696">
        <ele>124</ele>
        <time>2015-01-04T08:50:55Z</time>
      </trkpt>
      <trkpt lat="48.61887" lon="-3.33705">
        <ele>124</ele>
        <time>2015-01-04T08:50:56Z</time>
      </trkpt>
      <trkpt lat="48.61882" lon="-3.33713">
        <ele>124</ele>
        <time>2015-01-04T08:50:57Z</time>
      </trkpt>
      <trkpt lat="48.61876" lon="-3.33721">
        <ele>124</ele>
        <time>2015-01-04T08:50:58Z</time>
      </trkpt>
      <trkpt lat="48.61871" lon="-3.33729">
        <ele>124</ele>
        <time>2015-01-04T08:50:59Z</time>
      </trkpt>
      <trkpt lat="48.61865" lon="-3.33737">
        <ele>124</ele>
        <time>2015-01-04T08:51:00Z</time>
      </trkpt>
      <trkpt lat="48.6186" lon="-3.33745">
        <ele>124</ele>
        <time>2015-01-04T08:51:01Z</time>
      </trkpt>
      <trkpt lat="48.61855" lon="-3.33753">
        <ele>124</ele>
        <time>2015-01-04T08:51:02Z</time>
      </trkpt>
      <trkpt lat="48.6185" lon="-3.33761">
        <ele>124</ele>
        <time>2015-01-04T08:51:03Z</time>
      </trkpt>
      <trkpt lat="48.61845" lon="-3.33768">
        <ele>124</ele>
        <time>2015-01-04T08:51:04Z</time>
      </trkpt>
      <trkpt lat="48.6184" lon="-3.33776">
        <ele>124</ele>
        <time>2015-01-04T08:51:05Z</time>
      </trkpt>
      <trkpt lat="48.61835" lon="-3.33783">
        <ele>124</ele>
        <time>2015-01-04T08:51:06Z</time>
      </trkpt>
      <trkpt lat="48.6183" lon="-3.33791">
        <ele>124</ele>
        <time>2015-01-04T08:51:07Z</time>
      </trkpt>
      <trkpt lat="48.61825" lon="-3.33799">
        <ele>124</ele>
        <time>2015-01-04T08:51:08Z</time>
      </trkpt>
      <trkpt lat="48.61821" lon="-3.33807">
        <ele>124</ele>
        <time>2015-01-04T08:51:09Z</time>
      </trkpt>
      <trkpt lat="48.61816" lon="-3.33816">
        <ele>124</ele>
        <time>2015-01-04T08:51:10Z</time>
      </trkpt>
      <trkpt lat="48.61811" lon="-3.33824">
        <ele>124</ele>
        <time>2015-01-04T08:51:11Z</time>
      </trkpt>
      <trkpt lat="48.61807" lon="-3.33833">
        <ele>124</ele>
        <time>2015-01-04T08:51:12Z</time>
      </trkpt>
      <trkpt lat="48.61802" lon="-3.33842">
        <ele>124</ele>
        <time>2015-01-04T08:51:13Z</time>
      </trkpt>
      <trkpt lat="48.61798" lon="-3.33852">
        <ele>124</ele>
        <time>2015-01-04T08:51:14Z</time>
      </trkpt>
      <trkpt lat="48.61793" lon="-3.33861">
        <ele>124</ele>
        <time>2015-01-04T08:51:15Z</time>
      </trkpt>
      <trkpt lat="48.61788" lon="-3.33871">
        <ele>124</ele>
        <time>2015-01-04T08:51:16Z</time>
      </trkpt>
      <trkpt lat="48.61783" lon="-3.33881">
        <ele>124</ele>
        <time>2015-01-04T08:51:17Z</time>
      </trkpt>
      <trkpt lat="48.61778" lon="-3.33891">
        <ele>123</ele>
        <time>2015-01-04T08:51:18Z</time>
      </trkpt>
      <trkpt lat="48.61773" lon="-3.33901">
        <ele>123</ele>
        <time>2015-01-04T08:51:19Z</time>
      </trkpt>
      <trkpt lat="48.61768" lon="-3.33911">
        <ele>123</ele>
        <time>2015-01-04T08:51:20Z</time>
      </trkpt>
      <trkpt lat="48.61762" lon="-3.33921">
        <ele>123</ele>
        <time>2015-01-04T08:51:21Z</time>
      </trkpt>
      <trkpt lat="48.61757" lon="-3.33931">
        <ele>122</ele>
        <time>2015-01-04T08:51:22Z</time>
      </trkpt>
      <trkpt lat="48.61751" lon="-3.33941">
        <ele>122</ele>
        <time>2015-01-04T08:51:23Z</time>
      </trkpt>
      <trkpt lat="48.61745" lon="-3.3395">
        <ele>122</ele>
        <time>2015-01-04T08:51:24Z</time>
      </trkpt>
      <trkpt lat="48.61739" lon="-3.33958">
        <ele>122</ele>
        <time>2015-01-04T08:51:25Z</time>
      </trkpt>
      <trkpt lat="48.61732" lon="-3.33966">
        <ele>122</ele>
        <time>2015-01-04T08:51:26Z</time>
      </trkpt>
      <trkpt lat="48.61725" lon="-3.33972">
        <ele>122</ele>
        <time>2015-01-04T08:51:27Z</time>
      </trkpt>
      <trkpt lat="48.61718" lon="-3.33977">
        <ele>121</ele>
        <time>2015-01-04T08:51:28Z</time>
      </trkpt>
      <trkpt lat="48.61709" lon="-3.33981">
        <ele>121</ele>
        <time>2015-01-04T08:51:29Z</time>
      </trkpt>
      <trkpt lat="48.61701" lon="-3.33985">
        <ele>121</ele>
        <time>2015-01-04T08:51:30Z</time>
      </trkpt>
      <trkpt lat="48.61692" lon="-3.33989">
        <ele>120</ele>
        <time>2015-01-04T08:51:31Z</time>
      </trkpt>
      <trkpt lat="48.61684" lon="-3.33993">
        <ele>120</ele>
        <time>2015-01-04T08:51:32Z</time>
      </trkpt>
      <trkpt lat="48.61675" lon="-3.33998">
        <ele>119</ele>
        <time>2015-01-04T08:51:33Z</time>
      </trkpt>
      <trkpt lat="48.61666" lon="-3.34004">
        <ele>119</ele>
        <time>2015-01-04T08:51:34Z</time>
      </trkpt>
      <trkpt lat="48.61656" lon="-3.34011">
        <ele>118</ele>
        <time>2015-01-04T08:51:35Z</time>
      </trkpt>
      <trkpt lat="48.61648" lon="-3.3402">
        <ele>118</ele>
        <time>2015-01-04T08:51:36Z</time>
      </trkpt>
      <trkpt lat="48.61639" lon="-3.3403">
        <ele>117</ele>
        <time>2015-01-04T08:51:37Z</time>
      </trkpt>
      <trkpt lat="48.61631" lon="-3.34039">
        <ele>117</ele>
        <time>2015-01-04T08:51:38Z</time>
      </trkpt>
      <trkpt lat="48.61622" lon="-3.34049">
        <ele>116</ele>
        <time>2015-01-04T08:51:39Z</time>
      </trkpt>
      <trkpt lat="48.61614" lon="-3.34058">
        <ele>116</ele>
        <time>2015-01-04T08:51:40Z</time>
      </trkpt>
      <trkpt lat="48.61605" lon="-3.34066">
        <ele>116</ele>
        <time>2015-01-04T08:51:41Z</time>
      </trkpt>
      <trkpt lat="48.61597" lon="-3.34075">
        <ele>116</ele>
        <time>2015-01-04T08:51:42Z</time>
      </trkpt>
      <trkpt lat="48.61589" lon="-3.34082">
        <ele>116</ele>
        <time>2015-01-04T08:51:43Z</time>
      </trkpt>
      <trkpt lat="48.61582" lon="-3.34089">
        <ele>116</ele>
        <time>2015-01-04T08:51:44Z</time>
      </trkpt>
      <trkpt lat="48.61575" lon="-3.34096">
        <ele>116</ele>
        <time>2015-01-04T08:51:45Z</time>
      </trkpt>
      <trkpt lat="48.6157" lon="-3.34103">
        <ele>116</ele>
        <time>2015-01-04T08:51:46Z</time>
      </trkpt>
      <trkpt lat="48.61565" lon="-3.34109">
        <ele>116</ele>
        <time>2015-01-04T08:51:47Z</time>
      </trkpt>
      <trkpt lat="48.61561" lon="-3.34116">
        <ele>116</ele>
        <time>2015-01-04T08:51:48Z</time>
      </trkpt>
      <trkpt lat="48.61557" lon="-3.34122">
        <ele>116</ele>
        <time>2015-01-04T08:51:49Z</time>
      </trkpt>
      <trkpt lat="48.61553" lon="-3.34129">
        <ele>116</ele>
        <time>2015-01-04T08:51:50Z</time>
      </trkpt>
      <trkpt lat="48.61549" lon="-3.34136">
        <ele>116</ele>
        <time>2015-01-04T08:51:51Z</time>
      </trkpt>
      <trkpt lat="48.61545" lon="-3.34144">
        <ele>116</ele>
        <time>2015-01-04T08:51:52Z</time>
      </trkpt>
      <trkpt lat="48.61541" lon="-3.34151">
        <ele>116</ele>
        <time>2015-01-04T08:51:53Z</time>
      </trkpt>
      <trkpt lat="48.61538" lon="-3.34159">
        <ele>116</ele>
        <time>2015-01-04T08:51:54Z</time>
      </trkpt>
      <trkpt lat="48.61534" lon="-3.34167">
        <ele>116</ele>
        <time>2015-01-04T08:51:55Z</time>
      </trkpt>
      <trkpt lat="48.6153" lon="-3.34174">
        <ele>116</ele>
        <time>2015-01-04T08:51:56Z</time>
      </trkpt>
      <trkpt lat="48.61526" lon="-3.34181">
        <ele>116</ele>
        <time>2015-01-04T08:51:57Z</time>
      </trkpt>
      <trkpt lat="48.61523" lon="-3.34188">
        <ele>116</ele>
        <time>2015-01-04T08:51:58Z</time>
      </trkpt>
      <trkpt lat="48.61519" lon="-3.34194">
        <ele>116</ele>
        <time>2015-01-04T08:51:59Z</time>
      </trkpt>
      <trkpt lat="48.61516" lon="-3.34201">
        <ele>116</ele>
        <time>2015-01-04T08:52:00Z</time>
      </trkpt>
      <trkpt lat="48.61512" lon="-3.34208">
        <ele>117</ele>
        <time>2015-01-04T08:52:01Z</time>
      </trkpt>
      <trkpt lat="48.61509" lon="-3.34214">
        <ele>117</ele>
        <time>2015-01-04T08:52:02Z</time>
      </trkpt>
      <trkpt lat="48.61506" lon="-3.34221">
        <ele>117</ele>
        <time>2015-01-04T08:52:03Z</time>
      </trkpt>
      <trkpt lat="48.61503" lon="-3.34227">
        <ele>118</ele>
        <time>2015-01-04T08:52:04Z</time>
      </trkpt>
      <trkpt lat="48.615" lon="-3.34233">
        <ele>118</ele>
        <time>2015-01-04T08:52:05Z</time>
      </trkpt>
      <trkpt lat="48.61497" lon="-3.34239">
        <ele>119</ele>
        <time>2015-01-04T08:52:06Z</time>
      </trkpt>
      <trkpt lat="48.61494" lon="-3.34245">
        <ele>119</ele>
        <time>2015-01-04T08:52:07Z</time>
      </trkpt>
      <trkpt lat="48.61491" lon="-3.34252">
        <ele>119</ele>
        <time>2015-01-04T08:52:08Z</time>
      </trkpt>
      <trkpt lat="48.61488" lon="-3.34258">
        <ele>119</ele>
        <time>2015-01-04T08:52:09Z</time>
      </trkpt>
      <trkpt lat="48.61485" lon="-3.34265">
        <ele>120</ele>
        <time>2015-01-04T08:52:10Z</time>
      </trkpt>
      <trkpt lat="48.61482" lon="-3.34272">
        <ele>120</ele>
        <time>2015-01-04T08:52:11Z</time>
      </trkpt>
      <trkpt lat="48.61479" lon="-3.34279">
        <ele>120</ele>
        <time>2015-01-04T08:52:12Z</time>
      </trkpt>
      <trkpt lat="48.61476" lon="-3.34286">
        <ele>120</ele>
        <time>2015-01-04T08:52:13Z</time>
      </trkpt>
      <trkpt lat="48.61474" lon="-3.34293">
        <ele>121</ele>
        <time>2015-01-04T08:52:14Z</time>
      </trkpt>
      <trkpt lat="48.61471" lon="-3.343">
        <ele>121</ele>
        <time>2015-01-04T08:52:15Z</time>
      </trkpt>
      <trkpt lat="48.61469" lon="-3.34308">
        <ele>121</ele>
        <time>2015-01-04T08:52:16Z</time>
      </trkpt>
      <trkpt lat="48.61466" lon="-3.34315">
        <ele>121</ele>
        <time>2015-01-04T08:52:17Z</time>
      </trkpt>
      <trkpt lat="48.61464" lon="-3.34322">
        <ele>122</ele>
        <time>2015-01-04T08:52:18Z</time>
      </trkpt>
      <trkpt lat="48.61462" lon="-3.34329">
        <ele>122</ele>
        <time>2015-01-04T08:52:19Z</time>
      </trkpt>
      <trkpt lat="48.6146" lon="-3.34336">
        <ele>122</ele>
        <time>2015-01-04T08:52:20Z</time>
      </trkpt>
      <trkpt lat="48.61459" lon="-3.34343">
        <ele>122</ele>
        <time>2015-01-04T08:52:21Z</time>
      </trkpt>
      <trkpt lat="48.61457" lon="-3.3435">
        <ele>122</ele>
        <time>2015-01-04T08:52:22Z</time>
      </trkpt>
      <trkpt lat="48.61455" lon="-3.34357">
        <ele>123</ele>
        <time>2015-01-04T08:52:23Z</time>
      </trkpt>
      <trkpt lat="48.61452" lon="-3.34363">
        <ele>123</ele>
        <time>2015-01-04T08:52:24Z</time>
      </trkpt>
      <trkpt lat="48.6145" lon="-3.3437">
        <ele>123</ele>
        <time>2015-01-04T08:52:25Z</time>
      </trkpt>
      <trkpt lat="48.61447" lon="-3.34377">
        <ele>123</ele>
        <time>2015-01-04T08:52:26Z</time>
      </trkpt>
      <trkpt lat="48.61444" lon="-3.34383">
        <ele>124</ele>
        <time>2015-01-04T08:52:27Z</time>
      </trkpt>
      <trkpt lat="48.61441" lon="-3.3439">
        <ele>124</ele>
        <time>2015-01-04T08:52:28Z</time>
      </trkpt>
      <trkpt lat="48.61438" lon="-3.34396">
        <ele>124</ele>
        <time>2015-01-04T08:52:29Z</time>
      </trkpt>
      <trkpt lat="48.61435" lon="-3.34402">
        <ele>124</ele>
        <time>2015-01-04T08:52:30Z</time>
      </trkpt>
      <trkpt lat="48.61432" lon="-3.34409">
        <ele>125</ele>
        <time>2015-01-04T08:52:31Z</time>
      </trkpt>
      <trkpt lat="48.61429" lon="-3.34415">
        <ele>125</ele>
        <time>2015-01-04T08:52:32Z</time>
      </trkpt>
      <trkpt lat="48.61425" lon="-3.34422">
        <ele>125</ele>
        <time>2015-01-04T08:52:33Z</time>
      </trkpt>
      <trkpt lat="48.61423" lon="-3.34429">
        <ele>125</ele>
        <time>2015-01-04T08:52:34Z</time>
      </trkpt>
      <trkpt lat="48.6142" lon="-3.34436">
        <ele>126</ele>
        <time>2015-01-04T08:52:35Z</time>
      </trkpt>
      <trkpt lat="48.61417" lon="-3.34443">
        <ele>126</ele>
        <time>2015-01-04T08:52:36Z</time>
      </trkpt>
      <trkpt lat="48.61415" lon="-3.3445">
        <ele>126</ele>
        <time>2015-01-04T08:52:37Z</time>
      </trkpt>
      <trkpt lat="48.61412" lon="-3.34457">
        <ele>126</ele>
        <time>2015-01-04T08:52:38Z</time>
      </trkpt>
      <trkpt lat="48.61411" lon="-3.34465">
        <ele>127</ele>
        <time>2015-01-04T08:52:39Z</time>
      </trkpt>
      <trkpt lat="48.61409" lon="-3.34472">
        <ele>127</ele>
        <time>2015-01-04T08:52:40Z</time>
      </trkpt>
      <trkpt lat="48.61407" lon="-3.34479">
        <ele>127</ele>
        <time>2015-01-04T08:52:41Z</time>
      </trkpt>
      <trkpt lat="48.61405" lon="-3.34487">
        <ele>127</ele>
        <time>2015-01-04T08:52:42Z</time>
      </trkpt>
      <trkpt lat="48.61403" lon="-3.34494">
        <ele>127</ele>
        <time>2015-01-04T08:52:43Z</time>
      </trkpt>
      <trkpt lat="48.61401" lon="-3.34501">
        <ele>127</ele>
        <time>2015-01-04T08:52:44Z</time>
      </trkpt>
      <trkpt lat="48.614" lon="-3.34508">
        <ele>128</ele>
        <time>2015-01-04T08:52:45Z</time>
      </trkpt>
      <trkpt lat="48.61398" lon="-3.34515">
        <ele>128</ele>
        <time>2015-01-04T08:52:46Z</time>
      </trkpt>
      <trkpt lat="48.61396" lon="-3.34523">
        <ele>128</ele>
        <time>2015-01-04T08:52:47Z</time>
      </trkpt>
      <trkpt lat="48.61394" lon="-3.3453">
        <ele>128</ele>
        <time>2015-01-04T08:52:48Z</time>
      </trkpt>
      <trkpt lat="48.61391" lon="-3.34537">
        <ele>128</ele>
        <time>2015-01-04T08:52:49Z</time>
      </trkpt>
      <trkpt lat="48.61389" lon="-3.34544">
        <ele>129</ele>
        <time>2015-01-04T08:52:50Z</time>
      </trkpt>
      <trkpt lat="48.61387" lon="-3.34551">
        <ele>129</ele>
        <time>2015-01-04T08:52:51Z</time>
      </trkpt>
      <trkpt lat="48.61385" lon="-3.34558">
        <ele>129</ele>
        <time>2015-01-04T08:52:52Z</time>
      </trkpt>
      <trkpt lat="48.61382" lon="-3.34565">
        <ele>130</ele>
        <time>2015-01-04T08:52:53Z</time>
      </trkpt>
      <trkpt lat="48.6138" lon="-3.34571">
        <ele>130</ele>
        <time>2015-01-04T08:52:54Z</time>
      </trkpt>
      <trkpt lat="48.61377" lon="-3.34578">
        <ele>130</ele>
        <time>2015-01-04T08:52:55Z</time>
      </trkpt>
      <trkpt lat="48.61375" lon="-3.34585">
        <ele>130</ele>
        <time>2015-01-04T08:52:56Z</time>
      </trkpt>
      <trkpt lat="48.61374" lon="-3.34592">
        <ele>131</ele>
        <time>2015-01-04T08:52:57Z</time>
      </trkpt>
      <trkpt lat="48.61372" lon="-3.34599">
        <ele>131</ele>
        <time>2015-01-04T08:52:58Z</time>
      </trkpt>
      <trkpt lat="48.6137" lon="-3.34606">
        <ele>131</ele>
        <time>2015-01-04T08:52:59Z</time>
      </trkpt>
      <trkpt lat="48.61369" lon="-3.34614">
        <ele>131</ele>
        <time>2015-01-04T08:53:00Z</time>
      </trkpt>
      <trkpt lat="48.61367" lon="-3.34621">
        <ele>131</ele>
        <time>2015-01-04T08:53:01Z</time>
      </trkpt>
      <trkpt lat="48.61365" lon="-3.34629">
        <ele>132</ele>
        <time>2015-01-04T08:53:02Z</time>
      </trkpt>
      <trkpt lat="48.61363" lon="-3.34637">
        <ele>132</ele>
        <time>2015-01-04T08:53:03Z</time>
      </trkpt>
      <trkpt lat="48.61361" lon="-3.34645">
        <ele>132</ele>
        <time>2015-01-04T08:53:04Z</time>
      </trkpt>
      <trkpt lat="48.61359" lon="-3.34653">
        <ele>132</ele>
        <time>2015-01-04T08:53:05Z</time>
      </trkpt>
      <trkpt lat="48.61356" lon="-3.34662">
        <ele>132</ele>
        <time>2015-01-04T08:53:06Z</time>
      </trkpt>
      <trkpt lat="48.61354" lon="-3.3467">
        <ele>132</ele>
        <time>2015-01-04T08:53:07Z</time>
      </trkpt>
      <trkpt lat="48.61351" lon="-3.34678">
        <ele>132</ele>
        <time>2015-01-04T08:53:08Z</time>
      </trkpt>
      <trkpt lat="48.61349" lon="-3.34686">
        <ele>132</ele>
        <time>2015-01-04T08:53:09Z</time>
      </trkpt>
      <trkpt lat="48.61346" lon="-3.34694">
        <ele>132</ele>
        <time>2015-01-04T08:53:10Z</time>
      </trkpt>
      <trkpt lat="48.61344" lon="-3.34701">
        <ele>132</ele>
        <time>2015-01-04T08:53:11Z</time>
      </trkpt>
      <trkpt lat="48.61341" lon="-3.34709">
        <ele>132</ele>
        <time>2015-01-04T08:53:12Z</time>
      </trkpt>
      <trkpt lat="48.61339" lon="-3.34717">
        <ele>132</ele>
        <time>2015-01-04T08:53:13Z</time>
      </trkpt>
      <trkpt lat="48.61337" lon="-3.34725">
        <ele>132</ele>
        <time>2015-01-04T08:53:14Z</time>
      </trkpt>
      <trkpt lat="48.61334" lon="-3.34733">
        <ele>132</ele>
        <time>2015-01-04T08:53:15Z</time>
      </trkpt>
      <trkpt lat="48.61332" lon="-3.34741">
        <ele>132</ele>
        <time>2015-01-04T08:53:16Z</time>
      </trkpt>
      <trkpt lat="48.6133" lon="-3.34748">
        <ele>132</ele>
        <time>2015-01-04T08:53:17Z</time>
      </trkpt>
      <trkpt lat="48.61327" lon="-3.34756">
        <ele>132</ele>
        <time>2015-01-04T08:53:18Z</time>
      </trkpt>
      <trkpt lat="48.61325" lon="-3.34763">
        <ele>132</ele>
        <time>2015-01-04T08:53:19Z</time>
      </trkpt>
      <trkpt lat="48.61322" lon="-3.34771">
        <ele>132</ele>
        <time>2015-01-04T08:53:20Z</time>
      </trkpt>
      <trkpt lat="48.6132" lon="-3.34778">
        <ele>132</ele>
        <time>2015-01-04T08:53:21Z</time>
      </trkpt>
      <trkpt lat="48.61317" lon="-3.34786">
        <ele>132</ele>
        <time>2015-01-04T08:53:22Z</time>
      </trkpt>
      <trkpt lat="48.61314" lon="-3.34793">
        <ele>133</ele>
        <time>2015-01-04T08:53:23Z</time>
      </trkpt>
      <trkpt lat="48.61311" lon="-3.348">
        <ele>133</ele>
        <time>2015-01-04T08:53:24Z</time>
      </trkpt>
      <trkpt lat="48.61308" lon="-3.34807">
        <ele>133</ele>
        <time>2015-01-04T08:53:25Z</time>
      </trkpt>
      <trkpt lat="48.61305" lon="-3.34813">
        <ele>133</ele>
        <time>2015-01-04T08:53:26Z</time>
      </trkpt>
      <trkpt lat="48.61301" lon="-3.3482">
        <ele>133</ele>
        <time>2015-01-04T08:53:27Z</time>
      </trkpt>
      <trkpt lat="48.61298" lon="-3.34826">
        <ele>134</ele>
        <time>2015-01-04T08:53:28Z</time>
      </trkpt>
      <trkpt lat="48.61295" lon="-3.34833">
        <ele>134</ele>
        <time>2015-01-04T08:53:29Z</time>
      </trkpt>
      <trkpt lat="48.61291" lon="-3.34839">
        <ele>134</ele>
        <time>2015-01-04T08:53:30Z</time>
      </trkpt>
      <trkpt lat="48.61288" lon="-3.34845">
        <ele>134</ele>
        <time>2015-01-04T08:53:31Z</time>
      </trkpt>
      <trkpt lat="48.61284" lon="-3.34851">
        <ele>135</ele>
        <time>2015-01-04T08:53:32Z</time>
      </trkpt>
      <trkpt lat="48.6128" lon="-3.34857">
        <ele>135</ele>
        <time>2015-01-04T08:53:33Z</time>
      </trkpt>
      <trkpt lat="48.61277" lon="-3.34864">
        <ele>135</ele>
        <time>2015-01-04T08:53:34Z</time>
      </trkpt>
      <trkpt lat="48.61273" lon="-3.3487">
        <ele>135</ele>
        <time>2015-01-04T08:53:35Z</time>
      </trkpt>
      <trkpt lat="48.61269" lon="-3.34876">
        <ele>135</ele>
        <time>2015-01-04T08:53:36Z</time>
      </trkpt>
      <trkpt lat="48.61265" lon="-3.34882">
        <ele>136</ele>
        <time>2015-01-04T08:53:37Z</time>
      </trkpt>
      <trkpt lat="48.61261" lon="-3.34888">
        <ele>136</ele>
        <time>2015-01-04T08:53:38Z</time>
      </trkpt>
      <trkpt lat="48.61258" lon="-3.34894">
        <ele>136</ele>
        <time>2015-01-04T08:53:39Z</time>
      </trkpt>
      <trkpt lat="48.61254" lon="-3.349">
        <ele>136</ele>
        <time>2015-01-04T08:53:40Z</time>
      </trkpt>
      <trkpt lat="48.6125" lon="-3.34907">
        <ele>136</ele>
        <time>2015-01-04T08:53:41Z</time>
      </trkpt>
      <trkpt lat="48.61247" lon="-3.34912">
        <ele>137</ele>
        <time>2015-01-04T08:53:42Z</time>
      </trkpt>
      <trkpt lat="48.61243" lon="-3.34919">
        <ele>137</ele>
        <time>2015-01-04T08:53:43Z</time>
      </trkpt>
      <trkpt lat="48.6124" lon="-3.34925">
        <ele>137</ele>
        <time>2015-01-04T08:53:44Z</time>
      </trkpt>
      <trkpt lat="48.61236" lon="-3.34931">
        <ele>137</ele>
        <time>2015-01-04T08:53:45Z</time>
      </trkpt>
      <trkpt lat="48.61232" lon="-3.34938">
        <ele>138</ele>
        <time>2015-01-04T08:53:46Z</time>
      </trkpt>
      <trkpt lat="48.61229" lon="-3.34944">
        <ele>138</ele>
        <time>2015-01-04T08:53:47Z</time>
      </trkpt>
      <trkpt lat="48.61226" lon="-3.34949">
        <ele>138</ele>
        <time>2015-01-04T08:53:48Z</time>
      </trkpt>
      <trkpt lat="48.61222" lon="-3.34955">
        <ele>139</ele>
        <time>2015-01-04T08:53:49Z</time>
      </trkpt>
      <trkpt lat="48.61218" lon="-3.3496">
        <ele>139</ele>
        <time>2015-01-04T08:53:50Z</time>
      </trkpt>
      <trkpt lat="48.61215" lon="-3.34965">
        <ele>139</ele>
        <time>2015-01-04T08:53:51Z</time>
      </trkpt>
      <trkpt lat="48.61211" lon="-3.3497">
        <ele>140</ele>
        <time>2015-01-04T08:53:52Z</time>
      </trkpt>
      <trkpt lat="48.61208" lon="-3.34975">
        <ele>140</ele>
        <time>2015-01-04T08:53:53Z</time>
      </trkpt>
      <trkpt lat="48.61204" lon="-3.34981">
        <ele>140</ele>
        <time>2015-01-04T08:53:54Z</time>
      </trkpt>
      <trkpt lat="48.612" lon="-3.34986">
        <ele>141</ele>
        <time>2015-01-04T08:53:55Z</time>
      </trkpt>
      <trkpt lat="48.61196" lon="-3.34991">
        <ele>141</ele>
        <time>2015-01-04T08:53:56Z</time>
      </trkpt>
      <trkpt lat="48.61192" lon="-3.34996">
        <ele>141</ele>
        <time>2015-01-04T08:53:57Z</time>
      </trkpt>
      <trkpt lat="48.61188" lon="-3.35">
        <ele>141</ele>
        <time>2015-01-04T08:53:58Z</time>
      </trkpt>
      <trkpt lat="48.61184" lon="-3.35006">
        <ele>142</ele>
        <time>2015-01-04T08:53:59Z</time>
      </trkpt>
      <trkpt lat="48.61181" lon="-3.35011">
        <ele>142</ele>
        <time>2015-01-04T08:54:00Z</time>
      </trkpt>
      <trkpt lat="48.61178" lon="-3.35016">
        <ele>142</ele>
        <time>2015-01-04T08:54:01Z</time>
      </trkpt>
      <trkpt lat="48.61175" lon="-3.35023">
        <ele>142</ele>
        <time>2015-01-04T08:54:02Z</time>
      </trkpt>
      <trkpt lat="48.61172" lon="-3.35029">
        <ele>143</ele>
        <time>2015-01-04T08:54:03Z</time>
      </trkpt>
      <trkpt lat="48.6117" lon="-3.35035">
        <ele>143</ele>
        <time>2015-01-04T08:54:04Z</time>
      </trkpt>
      <trkpt lat="48.61168" lon="-3.35042">
        <ele>143</ele>
        <time>2015-01-04T08:54:05Z</time>
      </trkpt>
      <trkpt lat="48.61166" lon="-3.35048">
        <ele>143</ele>
        <time>2015-01-04T08:54:06Z</time>
      </trkpt>
      <trkpt lat="48.61164" lon="-3.35055">
        <ele>144</ele>
        <time>2015-01-04T08:54:07Z</time>
      </trkpt>
      <trkpt lat="48.61162" lon="-3.35062">
        <ele>144</ele>
        <time>2015-01-04T08:54:08Z</time>
      </trkpt>
      <trkpt lat="48.6116" lon="-3.35069">
        <ele>144</ele>
        <time>2015-01-04T08:54:09Z</time>
      </trkpt>
      <trkpt lat="48.61158" lon="-3.35077">
        <ele>144</ele>
        <time>2015-01-04T08:54:10Z</time>
      </trkpt>
      <trkpt lat="48.61156" lon="-3.35084">
        <ele>144</ele>
        <time>2015-01-04T08:54:11Z</time>
      </trkpt>
      <trkpt lat="48.61155" lon="-3.35092">
        <ele>144</ele>
        <time>2015-01-04T08:54:12Z</time>
      </trkpt>
      <trkpt lat="48.61153" lon="-3.351">
        <ele>144</ele>
        <time>2015-01-04T08:54:13Z</time>
      </trkpt>
      <trkpt lat="48.61151" lon="-3.35107">
        <ele>144</ele>
        <time>2015-01-04T08:54:14Z</time>
      </trkpt>
      <trkpt lat="48.61149" lon="-3.35114">
        <ele>144</ele>
        <time>2015-01-04T08:54:15Z</time>
      </trkpt>
      <trkpt lat="48.61148" lon="-3.35121">
        <ele>144</ele>
        <time>2015-01-04T08:54:16Z</time>
      </trkpt>
      <trkpt lat="48.61145" lon="-3.35129">
        <ele>145</ele>
        <time>2015-01-04T08:54:17Z</time>
      </trkpt>
      <trkpt lat="48.61143" lon="-3.35136">
        <ele>145</ele>
        <time>2015-01-04T08:54:18Z</time>
      </trkpt>
      <trkpt lat="48.6114" lon="-3.35144">
        <ele>145</ele>
        <time>2015-01-04T08:54:19Z</time>
      </trkpt>
      <trkpt lat="48.61137" lon="-3.35152">
        <ele>145</ele>
        <time>2015-01-04T08:54:20Z</time>
      </trkpt>
      <trkpt lat="48.61134" lon="-3.35161">
        <ele>145</ele>
        <time>2015-01-04T08:54:21Z</time>
      </trkpt>
      <trkpt lat="48.61131" lon="-3.3517">
        <ele>145</ele>
        <time>2015-01-04T08:54:22Z</time>
      </trkpt>
      <trkpt lat="48.61127" lon="-3.35179">
        <ele>145</ele>
        <time>2015-01-04T08:54:23Z</time>
      </trkpt>
      <trkpt lat="48.61124" lon="-3.35188">
        <ele>145</ele>
        <time>2015-01-04T08:54:24Z</time>
      </trkpt>
      <trkpt lat="48.6112" lon="-3.35198">
        <ele>145</ele>
        <time>2015-01-04T08:54:25Z</time>
      </trkpt>
      <trkpt lat="48.61116" lon="-3.35208">
        <ele>145</ele>
        <time>2015-01-04T08:54:26Z</time>
      </trkpt>
      <trkpt lat="48.61112" lon="-3.35218">
        <ele>145</ele>
        <time>2015-01-04T08:54:27Z</time>
      </trkpt>
      <trkpt lat="48.61108" lon="-3.35228">
        <ele>145</ele>
        <time>2015-01-04T08:54:28Z</time>
      </trkpt>
      <trkpt lat="48.61105" lon="-3.35238">
        <ele>145</ele>
        <time>2015-01-04T08:54:29Z</time>
      </trkpt>
      <trkpt lat="48.61101" lon="-3.35248">
        <ele>145</ele>
        <time>2015-01-04T08:54:30Z</time>
      </trkpt>
      <trkpt lat="48.61097" lon="-3.35259">
        <ele>145</ele>
        <time>2015-01-04T08:54:31Z</time>
      </trkpt>
      <trkpt lat="48.61093" lon="-3.35269">
        <ele>145</ele>
        <time>2015-01-04T08:54:32Z</time>
      </trkpt>
      <trkpt lat="48.61089" lon="-3.35279">
        <ele>145</ele>
        <time>2015-01-04T08:54:33Z</time>
      </trkpt>
      <trkpt lat="48.61086" lon="-3.35289">
        <ele>145</ele>
        <time>2015-01-04T08:54:34Z</time>
      </trkpt>
      <trkpt lat="48.61082" lon="-3.35299">
        <ele>145</ele>
        <time>2015-01-04T08:54:35Z</time>
      </trkpt>
      <trkpt lat="48.61079" lon="-3.35309">
        <ele>145</ele>
        <time>2015-01-04T08:54:36Z</time>
      </trkpt>
      <trkpt lat="48.61075" lon="-3.35319">
        <ele>145</ele>
        <time>2015-01-04T08:54:37Z</time>
      </trkpt>
      <trkpt lat="48.61071" lon="-3.35329">
        <ele>145</ele>
        <time>2015-01-04T08:54:38Z</time>
      </trkpt>
      <trkpt lat="48.61067" lon="-3.35339">
        <ele>145</ele>
        <time>2015-01-04T08:54:39Z</time>
      </trkpt>
      <trkpt lat="48.61064" lon="-3.35349">
        <ele>145</ele>
        <time>2015-01-04T08:54:40Z</time>
      </trkpt>
      <trkpt lat="48.6106" lon="-3.35358">
        <ele>145</ele>
        <time>2015-01-04T08:54:41Z</time>
      </trkpt>
      <trkpt lat="48.61057" lon="-3.35368">
        <ele>145</ele>
        <time>2015-01-04T08:54:42Z</time>
      </trkpt>
      <trkpt lat="48.61053" lon="-3.35377">
        <ele>145</ele>
        <time>2015-01-04T08:54:43Z</time>
      </trkpt>
      <trkpt lat="48.6105" lon="-3.35387">
        <ele>145</ele>
        <time>2015-01-04T08:54:44Z</time>
      </trkpt>
      <trkpt lat="48.61047" lon="-3.35397">
        <ele>145</ele>
        <time>2015-01-04T08:54:45Z</time>
      </trkpt>
      <trkpt lat="48.61043" lon="-3.35407">
        <ele>145</ele>
        <time>2015-01-04T08:54:46Z</time>
      </trkpt>
      <trkpt lat="48.6104" lon="-3.35417">
        <ele>145</ele>
        <time>2015-01-04T08:54:47Z</time>
      </trkpt>
      <trkpt lat="48.61037" lon="-3.35427">
        <ele>145</ele>
        <time>2015-01-04T08:54:48Z</time>
      </trkpt>
      <trkpt lat="48.61034" lon="-3.35437">
        <ele>145</ele>
        <time>2015-01-04T08:54:49Z</time>
      </trkpt>
      <trkpt lat="48.61032" lon="-3.35448">
        <ele>145</ele>
        <time>2015-01-04T08:54:50Z</time>
      </trkpt>
      <trkpt lat="48.61029" lon="-3.35458">
        <ele>145</ele>
        <time>2015-01-04T08:54:51Z</time>
      </trkpt>
      <trkpt lat="48.61026" lon="-3.35468">
        <ele>145</ele>
        <time>2015-01-04T08:54:52Z</time>
      </trkpt>
      <trkpt lat="48.61024" lon="-3.35479">
        <ele>145</ele>
        <time>2015-01-04T08:54:53Z</time>
      </trkpt>
      <trkpt lat="48.61021" lon="-3.3549">
        <ele>145</ele>
        <time>2015-01-04T08:54:54Z</time>
      </trkpt>
      <trkpt lat="48.61018" lon="-3.35501">
        <ele>145</ele>
        <time>2015-01-04T08:54:55Z</time>
      </trkpt>
      <trkpt lat="48.61014" lon="-3.35511">
        <ele>145</ele>
        <time>2015-01-04T08:54:56Z</time>
      </trkpt>
      <trkpt lat="48.61011" lon="-3.35522">
        <ele>145</ele>
        <time>2015-01-04T08:54:57Z</time>
      </trkpt>
      <trkpt lat="48.61007" lon="-3.35533">
        <ele>145</ele>
        <time>2015-01-04T08:54:58Z</time>
      </trkpt>
      <trkpt lat="48.61003" lon="-3.35542">
        <ele>145</ele>
        <time>2015-01-04T08:54:59Z</time>
      </trkpt>
      <trkpt lat="48.60998" lon="-3.35552">
        <ele>145</ele>
        <time>2015-01-04T08:55:00Z</time>
      </trkpt>
      <trkpt lat="48.60993" lon="-3.35561">
        <ele>145</ele>
        <time>2015-01-04T08:55:01Z</time>
      </trkpt>
      <trkpt lat="48.60988" lon="-3.3557">
        <ele>145</ele>
        <time>2015-01-04T08:55:02Z</time>
      </trkpt>
      <trkpt lat="48.60982" lon="-3.35577">
        <ele>145</ele>
        <time>2015-01-04T08:55:03Z</time>
      </trkpt>
      <trkpt lat="48.60976" lon="-3.35584">
        <ele>145</ele>
        <time>2015-01-04T08:55:04Z</time>
      </trkpt>
      <trkpt lat="48.6097" lon="-3.35589">
        <ele>145</ele>
        <time>2015-01-04T08:55:05Z</time>
      </trkpt>
      <trkpt lat="48.60963" lon="-3.35593">
        <ele>145</ele>
        <time>2015-01-04T08:55:06Z</time>
      </trkpt>
      <trkpt lat="48.60956" lon="-3.35596">
        <ele>144</ele>
        <time>2015-01-04T08:55:07Z</time>
      </trkpt>
      <trkpt lat="48.60949" lon="-3.35599">
        <ele>144</ele>
        <time>2015-01-04T08:55:08Z</time>
      </trkpt>
      <trkpt lat="48.60942" lon="-3.35602">
        <ele>144</ele>
        <time>2015-01-04T08:55:09Z</time>
      </trkpt>
      <trkpt lat="48.60935" lon="-3.35605">
        <ele>144</ele>
        <time>2015-01-04T08:55:10Z</time>
      </trkpt>
      <trkpt lat="48.60928" lon="-3.35608">
        <ele>144</ele>
        <time>2015-01-04T08:55:11Z</time>
      </trkpt>
      <trkpt lat="48.60921" lon="-3.35612">
        <ele>144</ele>
        <time>2015-01-04T08:55:12Z</time>
      </trkpt>
      <trkpt lat="48.60915" lon="-3.35617">
        <ele>144</ele>
        <time>2015-01-04T08:55:13Z</time>
      </trkpt>
      <trkpt lat="48.6091" lon="-3.35623">
        <ele>144</ele>
        <time>2015-01-04T08:55:14Z</time>
      </trkpt>
      <trkpt lat="48.60904" lon="-3.3563">
        <ele>144</ele>
        <time>2015-01-04T08:55:15Z</time>
      </trkpt>
      <trkpt lat="48.609" lon="-3.35639">
        <ele>144</ele>
        <time>2015-01-04T08:55:16Z</time>
      </trkpt>
      <trkpt lat="48.60897" lon="-3.35648">
        <ele>144</ele>
        <time>2015-01-04T08:55:17Z</time>
      </trkpt>
      <trkpt lat="48.60894" lon="-3.35659">
        <ele>144</ele>
        <time>2015-01-04T08:55:18Z</time>
      </trkpt>
      <trkpt lat="48.60892" lon="-3.35669">
        <ele>144</ele>
        <time>2015-01-04T08:55:19Z</time>
      </trkpt>
      <trkpt lat="48.60891" lon="-3.3568">
        <ele>143</ele>
        <time>2015-01-04T08:55:20Z</time>
      </trkpt>
      <trkpt lat="48.6089" lon="-3.35691">
        <ele>143</ele>
        <time>2015-01-04T08:55:21Z</time>
      </trkpt>
      <trkpt lat="48.60888" lon="-3.35701">
        <ele>143</ele>
        <time>2015-01-04T08:55:22Z</time>
      </trkpt>
      <trkpt lat="48.60887" lon="-3.35713">
        <ele>143</ele>
        <time>2015-01-04T08:55:23Z</time>
      </trkpt>
      <trkpt lat="48.60886" lon="-3.35724">
        <ele>143</ele>
        <time>2015-01-04T08:55:24Z</time>
      </trkpt>
      <trkpt lat="48.60884" lon="-3.35735">
        <ele>143</ele>
        <time>2015-01-04T08:55:25Z</time>
      </trkpt>
      <trkpt lat="48.60883" lon="-3.35746">
        <ele>143</ele>
        <time>2015-01-04T08:55:26Z</time>
      </trkpt>
      <trkpt lat="48.60882" lon="-3.35757">
        <ele>143</ele>
        <time>2015-01-04T08:55:27Z</time>
      </trkpt>
      <trkpt lat="48.60881" lon="-3.35768">
        <ele>143</ele>
        <time>2015-01-04T08:55:28Z</time>
      </trkpt>
      <trkpt lat="48.6088" lon="-3.35779">
        <ele>143</ele>
        <time>2015-01-04T08:55:29Z</time>
      </trkpt>
      <trkpt lat="48.60879" lon="-3.35791">
        <ele>143</ele>
        <time>2015-01-04T08:55:30Z</time>
      </trkpt>
      <trkpt lat="48.60878" lon="-3.35802">
        <ele>143</ele>
        <time>2015-01-04T08:55:31Z</time>
      </trkpt>
      <trkpt lat="48.60878" lon="-3.35814">
        <ele>143</ele>
        <time>2015-01-04T08:55:32Z</time>
      </trkpt>
      <trkpt lat="48.60878" lon="-3.35838">
        <ele>143</ele>
        <time>2015-01-04T08:55:34Z</time>
      </trkpt>
      <trkpt lat="48.60878" lon="-3.35849">
        <ele>143</ele>
        <time>2015-01-04T08:55:35Z</time>
      </trkpt>
      <trkpt lat="48.60879" lon="-3.35861">
        <ele>142</ele>
        <time>2015-01-04T08:55:36Z</time>
      </trkpt>
      <trkpt lat="48.60879" lon="-3.35873">
        <ele>142</ele>
        <time>2015-01-04T08:55:37Z</time>
      </trkpt>
      <trkpt lat="48.6088" lon="-3.35884">
        <ele>142</ele>
        <time>2015-01-04T08:55:38Z</time>
      </trkpt>
      <trkpt lat="48.60881" lon="-3.35895">
        <ele>142</ele>
        <time>2015-01-04T08:55:39Z</time>
      </trkpt>
      <trkpt lat="48.60882" lon="-3.35907">
        <ele>142</ele>
        <time>2015-01-04T08:55:40Z</time>
      </trkpt>
      <trkpt lat="48.60883" lon="-3.35918">
        <ele>142</ele>
        <time>2015-01-04T08:55:41Z</time>
      </trkpt>
      <trkpt lat="48.60884" lon="-3.35929">
        <ele>141</ele>
        <time>2015-01-04T08:55:42Z</time>
      </trkpt>
      <trkpt lat="48.60885" lon="-3.35941">
        <ele>141</ele>
        <time>2015-01-04T08:55:43Z</time>
      </trkpt>
      <trkpt lat="48.60886" lon="-3.35952">
        <ele>141</ele>
        <time>2015-01-04T08:55:44Z</time>
      </trkpt>
      <trkpt lat="48.60887" lon="-3.35963">
        <ele>141</ele>
        <time>2015-01-04T08:55:45Z</time>
      </trkpt>
      <trkpt lat="48.60888" lon="-3.35974">
        <ele>141</ele>
        <time>2015-01-04T08:55:46Z</time>
      </trkpt>
      <trkpt lat="48.60889" lon="-3.35985">
        <ele>141</ele>
        <time>2015-01-04T08:55:47Z</time>
      </trkpt>
      <trkpt lat="48.6089" lon="-3.35996">
        <ele>141</ele>
        <time>2015-01-04T08:55:48Z</time>
      </trkpt>
      <trkpt lat="48.60891" lon="-3.36007">
        <ele>141</ele>
        <time>2015-01-04T08:55:49Z</time>
      </trkpt>
      <trkpt lat="48.60892" lon="-3.36018">
        <ele>141</ele>
        <time>2015-01-04T08:55:50Z</time>
      </trkpt>
      <trkpt lat="48.60892" lon="-3.3603">
        <ele>141</ele>
        <time>2015-01-04T08:55:51Z</time>
      </trkpt>
      <trkpt lat="48.60893" lon="-3.36041">
        <ele>141</ele>
        <time>2015-01-04T08:55:52Z</time>
      </trkpt>
      <trkpt lat="48.60892" lon="-3.36065">
        <ele>141</ele>
        <time>2015-01-04T08:55:54Z</time>
      </trkpt>
      <trkpt lat="48.60892" lon="-3.36078">
        <ele>141</ele>
        <time>2015-01-04T08:55:55Z</time>
      </trkpt>
      <trkpt lat="48.60891" lon="-3.36089">
        <ele>141</ele>
        <time>2015-01-04T08:55:56Z</time>
      </trkpt>
      <trkpt lat="48.6089" lon="-3.36101">
        <ele>141</ele>
        <time>2015-01-04T08:55:57Z</time>
      </trkpt>
      <trkpt lat="48.60888" lon="-3.36113">
        <ele>141</ele>
        <time>2015-01-04T08:55:58Z</time>
      </trkpt>
      <trkpt lat="48.60886" lon="-3.36125">
        <ele>141</ele>
        <time>2015-01-04T08:55:59Z</time>
      </trkpt>
      <trkpt lat="48.60885" lon="-3.36137">
        <ele>141</ele>
        <time>2015-01-04T08:56:00Z</time>
      </trkpt>
      <trkpt lat="48.60883" lon="-3.36148">
        <ele>141</ele>
        <time>2015-01-04T08:56:01Z</time>
      </trkpt>
      <trkpt lat="48.60881" lon="-3.3616">
        <ele>141</ele>
        <time>2015-01-04T08:56:02Z</time>
      </trkpt>
      <trkpt lat="48.6088" lon="-3.36171">
        <ele>141</ele>
        <time>2015-01-04T08:56:03Z</time>
      </trkpt>
      <trkpt lat="48.60878" lon="-3.36182">
        <ele>141</ele>
        <time>2015-01-04T08:56:04Z</time>
      </trkpt>
      <trkpt lat="48.60876" lon="-3.36193">
        <ele>141</ele>
        <time>2015-01-04T08:56:05Z</time>
      </trkpt>
      <trkpt lat="48.60875" lon="-3.36204">
        <ele>141</ele>
        <time>2015-01-04T08:56:06Z</time>
      </trkpt>
      <trkpt lat="48.60873" lon="-3.36215">
        <ele>141</ele>
        <time>2015-01-04T08:56:07Z</time>
      </trkpt>
      <trkpt lat="48.60872" lon="-3.36226">
        <ele>141</ele>
        <time>2015-01-04T08:56:08Z</time>
      </trkpt>
      <trkpt lat="48.6087" lon="-3.36238">
        <ele>141</ele>
        <time>2015-01-04T08:56:09Z</time>
      </trkpt>
      <trkpt lat="48.6087" lon="-3.36249">
        <ele>141</ele>
        <time>2015-01-04T08:56:10Z</time>
      </trkpt>
      <trkpt lat="48.60869" lon="-3.36261">
        <ele>141</ele>
        <time>2015-01-04T08:56:11Z</time>
      </trkpt>
      <trkpt lat="48.6087" lon="-3.36273">
        <ele>141</ele>
        <time>2015-01-04T08:56:12Z</time>
      </trkpt>
      <trkpt lat="48.6087" lon="-3.36285">
        <ele>140</ele>
        <time>2015-01-04T08:56:13Z</time>
      </trkpt>
      <trkpt lat="48.60872" lon="-3.36297">
        <ele>140</ele>
        <time>2015-01-04T08:56:14Z</time>
      </trkpt>
      <trkpt lat="48.60874" lon="-3.36308">
        <ele>140</ele>
        <time>2015-01-04T08:56:15Z</time>
      </trkpt>
      <trkpt lat="48.60876" lon="-3.36319">
        <ele>140</ele>
        <time>2015-01-04T08:56:16Z</time>
      </trkpt>
      <trkpt lat="48.60878" lon="-3.36331">
        <ele>140</ele>
        <time>2015-01-04T08:56:17Z</time>
      </trkpt>
      <trkpt lat="48.60881" lon="-3.36342">
        <ele>140</ele>
        <time>2015-01-04T08:56:18Z</time>
      </trkpt>
      <trkpt lat="48.60884" lon="-3.36353">
        <ele>140</ele>
        <time>2015-01-04T08:56:19Z</time>
      </trkpt>
      <trkpt lat="48.60886" lon="-3.36364">
        <ele>140</ele>
        <time>2015-01-04T08:56:20Z</time>
      </trkpt>
      <trkpt lat="48.60889" lon="-3.36375">
        <ele>140</ele>
        <time>2015-01-04T08:56:21Z</time>
      </trkpt>
      <trkpt lat="48.60891" lon="-3.36385">
        <ele>140</ele>
        <time>2015-01-04T08:56:22Z</time>
      </trkpt>
      <trkpt lat="48.60894" lon="-3.36396">
        <ele>140</ele>
        <time>2015-01-04T08:56:23Z</time>
      </trkpt>
      <trkpt lat="48.60897" lon="-3.36407">
        <ele>140</ele>
        <time>2015-01-04T08:56:24Z</time>
      </trkpt>
      <trkpt lat="48.609" lon="-3.36417">
        <ele>140</ele>
        <time>2015-01-04T08:56:25Z</time>
      </trkpt>
      <trkpt lat="48.60902" lon="-3.36428">
        <ele>140</ele>
        <time>2015-01-04T08:56:26Z</time>
      </trkpt>
      <trkpt lat="48.60905" lon="-3.36438">
        <ele>140</ele>
        <time>2015-01-04T08:56:27Z</time>
      </trkpt>
      <trkpt lat="48.60907" lon="-3.36448">
        <ele>140</ele>
        <time>2015-01-04T08:56:28Z</time>
      </trkpt>
      <trkpt lat="48.6091" lon="-3.36458">
        <ele>140</ele>
        <time>2015-01-04T08:56:29Z</time>
      </trkpt>
      <trkpt lat="48.60913" lon="-3.36468">
        <ele>140</ele>
        <time>2015-01-04T08:56:30Z</time>
      </trkpt>
      <trkpt lat="48.60917" lon="-3.36478">
        <ele>140</ele>
        <time>2015-01-04T08:56:31Z</time>
      </trkpt>
      <trkpt lat="48.6092" lon="-3.36487">
        <ele>140</ele>
        <time>2015-01-04T08:56:32Z</time>
      </trkpt>
      <trkpt lat="48.60925" lon="-3.36496">
        <ele>140</ele>
        <time>2015-01-04T08:56:33Z</time>
      </trkpt>
      <trkpt lat="48.6093" lon="-3.36504">
        <ele>140</ele>
        <time>2015-01-04T08:56:34Z</time>
      </trkpt>
      <trkpt lat="48.60935" lon="-3.36512">
        <ele>140</ele>
        <time>2015-01-04T08:56:35Z</time>
      </trkpt>
      <trkpt lat="48.60941" lon="-3.3652">
        <ele>140</ele>
        <time>2015-01-04T08:56:36Z</time>
      </trkpt>
      <trkpt lat="48.60946" lon="-3.36526">
        <ele>140</ele>
        <time>2015-01-04T08:56:37Z</time>
      </trkpt>
      <trkpt lat="48.60952" lon="-3.36532">
        <ele>140</ele>
        <time>2015-01-04T08:56:38Z</time>
      </trkpt>
      <trkpt lat="48.60957" lon="-3.36539">
        <ele>140</ele>
        <time>2015-01-04T08:56:39Z</time>
      </trkpt>
      <trkpt lat="48.60963" lon="-3.36545">
        <ele>140</ele>
        <time>2015-01-04T08:56:40Z</time>
      </trkpt>
      <trkpt lat="48.60969" lon="-3.36553">
        <ele>140</ele>
        <time>2015-01-04T08:56:41Z</time>
      </trkpt>
      <trkpt lat="48.60975" lon="-3.3656">
        <ele>140</ele>
        <time>2015-01-04T08:56:42Z</time>
      </trkpt>
      <trkpt lat="48.60982" lon="-3.36567">
        <ele>140</ele>
        <time>2015-01-04T08:56:43Z</time>
      </trkpt>
      <trkpt lat="48.60988" lon="-3.36575">
        <ele>140</ele>
        <time>2015-01-04T08:56:44Z</time>
      </trkpt>
      <trkpt lat="48.60995" lon="-3.36582">
        <ele>140</ele>
        <time>2015-01-04T08:56:45Z</time>
      </trkpt>
      <trkpt lat="48.61001" lon="-3.36591">
        <ele>140</ele>
        <time>2015-01-04T08:56:46Z</time>
      </trkpt>
      <trkpt lat="48.61007" lon="-3.366">
        <ele>140</ele>
        <time>2015-01-04T08:56:47Z</time>
      </trkpt>
      <trkpt lat="48.61013" lon="-3.36611">
        <ele>140</ele>
        <time>2015-01-04T08:56:48Z</time>
      </trkpt>
      <trkpt lat="48.61018" lon="-3.36621">
        <ele>140</ele>
        <time>2015-01-04T08:56:49Z</time>
      </trkpt>
      <trkpt lat="48.61023" lon="-3.36631">
        <ele>140</ele>
        <time>2015-01-04T08:56:50Z</time>
      </trkpt>
      <trkpt lat="48.61028" lon="-3.36642">
        <ele>140</ele>
        <time>2015-01-04T08:56:51Z</time>
      </trkpt>
      <trkpt lat="48.61032" lon="-3.36652">
        <ele>140</ele>
        <time>2015-01-04T08:56:52Z</time>
      </trkpt>
      <trkpt lat="48.61037" lon="-3.36662">
        <ele>140</ele>
        <time>2015-01-04T08:56:53Z</time>
      </trkpt>
      <trkpt lat="48.61042" lon="-3.36671">
        <ele>140</ele>
        <time>2015-01-04T08:56:54Z</time>
      </trkpt>
      <trkpt lat="48.61048" lon="-3.36679">
        <ele>140</ele>
        <time>2015-01-04T08:56:55Z</time>
      </trkpt>
      <trkpt lat="48.61053" lon="-3.36688">
        <ele>140</ele>
        <time>2015-01-04T08:56:56Z</time>
      </trkpt>
      <trkpt lat="48.61059" lon="-3.36696">
        <ele>140</ele>
        <time>2015-01-04T08:56:57Z</time>
      </trkpt>
      <trkpt lat="48.61065" lon="-3.36705">
        <ele>140</ele>
        <time>2015-01-04T08:56:58Z</time>
      </trkpt>
      <trkpt lat="48.6107" lon="-3.36714">
        <ele>140</ele>
        <time>2015-01-04T08:56:59Z</time>
      </trkpt>
      <trkpt lat="48.61076" lon="-3.36722">
        <ele>140</ele>
        <time>2015-01-04T08:57:00Z</time>
      </trkpt>
      <trkpt lat="48.61082" lon="-3.36732">
        <ele>140</ele>
        <time>2015-01-04T08:57:01Z</time>
      </trkpt>
      <trkpt lat="48.61087" lon="-3.36741">
        <ele>140</ele>
        <time>2015-01-04T08:57:02Z</time>
      </trkpt>
      <trkpt lat="48.61092" lon="-3.36751">
        <ele>140</ele>
        <time>2015-01-04T08:57:03Z</time>
      </trkpt>
      <trkpt lat="48.61097" lon="-3.3676">
        <ele>140</ele>
        <time>2015-01-04T08:57:04Z</time>
      </trkpt>
      <trkpt lat="48.61102" lon="-3.3677">
        <ele>140</ele>
        <time>2015-01-04T08:57:05Z</time>
      </trkpt>
      <trkpt lat="48.61106" lon="-3.3678">
        <ele>140</ele>
        <time>2015-01-04T08:57:06Z</time>
      </trkpt>
      <trkpt lat="48.61111" lon="-3.3679">
        <ele>140</ele>
        <time>2015-01-04T08:57:07Z</time>
      </trkpt>
      <trkpt lat="48.61115" lon="-3.368">
        <ele>140</ele>
        <time>2015-01-04T08:57:08Z</time>
      </trkpt>
      <trkpt lat="48.61119" lon="-3.3681">
        <ele>140</ele>
        <time>2015-01-04T08:57:09Z</time>
      </trkpt>
      <trkpt lat="48.61123" lon="-3.3682">
        <ele>140</ele>
        <time>2015-01-04T08:57:10Z</time>
      </trkpt>
      <trkpt lat="48.61127" lon="-3.3683">
        <ele>140</ele>
        <time>2015-01-04T08:57:11Z</time>
      </trkpt>
      <trkpt lat="48.61131" lon="-3.3684">
        <ele>140</ele>
        <time>2015-01-04T08:57:12Z</time>
      </trkpt>
      <trkpt lat="48.61135" lon="-3.36849">
        <ele>140</ele>
        <time>2015-01-04T08:57:13Z</time>
      </trkpt>
      <trkpt lat="48.6114" lon="-3.36859">
        <ele>140</ele>
        <time>2015-01-04T08:57:14Z</time>
      </trkpt>
      <trkpt lat="48.61143" lon="-3.36868">
        <ele>140</ele>
        <time>2015-01-04T08:57:15Z</time>
      </trkpt>
      <trkpt lat="48.61148" lon="-3.36877">
        <ele>140</ele>
        <time>2015-01-04T08:57:16Z</time>
      </trkpt>
      <trkpt lat="48.61152" lon="-3.36887">
        <ele>140</ele>
        <time>2015-01-04T08:57:17Z</time>
      </trkpt>
      <trkpt lat="48.61155" lon="-3.36896">
        <ele>140</ele>
        <time>2015-01-04T08:57:18Z</time>
      </trkpt>
      <trkpt lat="48.61159" lon="-3.36905">
        <ele>140</ele>
        <time>2015-01-04T08:57:19Z</time>
      </trkpt>
      <trkpt lat="48.61163" lon="-3.36914">
        <ele>140</ele>
        <time>2015-01-04T08:57:20Z</time>
      </trkpt>
      <trkpt lat="48.61166" lon="-3.36924">
        <ele>140</ele>
        <time>2015-01-04T08:57:21Z</time>
      </trkpt>
      <trkpt lat="48.6117" lon="-3.36933">
        <ele>140</ele>
        <time>2015-01-04T08:57:22Z</time>
      </trkpt>
      <trkpt lat="48.61172" lon="-3.36942">
        <ele>140</ele>
        <time>2015-01-04T08:57:23Z</time>
      </trkpt>
      <trkpt lat="48.61175" lon="-3.36952">
        <ele>140</ele>
        <time>2015-01-04T08:57:24Z</time>
      </trkpt>
      <trkpt lat="48.61177" lon="-3.36961">
        <ele>140</ele>
        <time>2015-01-04T08:57:25Z</time>
      </trkpt>
      <trkpt lat="48.61179" lon="-3.36971">
        <ele>140</ele>
        <time>2015-01-04T08:57:26Z</time>
      </trkpt>
      <trkpt lat="48.61181" lon="-3.3698">
        <ele>140</ele>
        <time>2015-01-04T08:57:27Z</time>
      </trkpt>
      <trkpt lat="48.61183" lon="-3.3699">
        <ele>140</ele>
        <time>2015-01-04T08:57:28Z</time>
      </trkpt>
      <trkpt lat="48.61185" lon="-3.37">
        <ele>140</ele>
        <time>2015-01-04T08:57:29Z</time>
      </trkpt>
      <trkpt lat="48.61187" lon="-3.3701">
        <ele>140</ele>
        <time>2015-01-04T08:57:30Z</time>
      </trkpt>
      <trkpt lat="48.61188" lon="-3.37019">
        <ele>140</ele>
        <time>2015-01-04T08:57:31Z</time>
      </trkpt>
      <trkpt lat="48.6119" lon="-3.37029">
        <ele>140</ele>
        <time>2015-01-04T08:57:32Z</time>
      </trkpt>
      <trkpt lat="48.61192" lon="-3.37038">
        <ele>140</ele>
        <time>2015-01-04T08:57:33Z</time>
      </trkpt>
      <trkpt lat="48.61194" lon="-3.37047">
        <ele>140</ele>
        <time>2015-01-04T08:57:34Z</time>
      </trkpt>
      <trkpt lat="48.61195" lon="-3.37057">
        <ele>140</ele>
        <time>2015-01-04T08:57:35Z</time>
      </trkpt>
      <trkpt lat="48.61197" lon="-3.37066">
        <ele>140</ele>
        <time>2015-01-04T08:57:36Z</time>
      </trkpt>
      <trkpt lat="48.61199" lon="-3.37075">
        <ele>140</ele>
        <time>2015-01-04T08:57:37Z</time>
      </trkpt>
      <trkpt lat="48.61201" lon="-3.37085">
        <ele>140</ele>
        <time>2015-01-04T08:57:38Z</time>
      </trkpt>
      <trkpt lat="48.61203" lon="-3.37094">
        <ele>141</ele>
        <time>2015-01-04T08:57:39Z</time>
      </trkpt>
      <trkpt lat="48.61204" lon="-3.37103">
        <ele>141</ele>
        <time>2015-01-04T08:57:40Z</time>
      </trkpt>
      <trkpt lat="48.61206" lon="-3.37112">
        <ele>141</ele>
        <time>2015-01-04T08:57:41Z</time>
      </trkpt>
      <trkpt lat="48.61207" lon="-3.3712">
        <ele>141</ele>
        <time>2015-01-04T08:57:42Z</time>
      </trkpt>
      <trkpt lat="48.61209" lon="-3.37129">
        <ele>142</ele>
        <time>2015-01-04T08:57:43Z</time>
      </trkpt>
      <trkpt lat="48.61211" lon="-3.37138">
        <ele>142</ele>
        <time>2015-01-04T08:57:44Z</time>
      </trkpt>
      <trkpt lat="48.61212" lon="-3.37147">
        <ele>142</ele>
        <time>2015-01-04T08:57:45Z</time>
      </trkpt>
      <trkpt lat="48.61214" lon="-3.37156">
        <ele>142</ele>
        <time>2015-01-04T08:57:46Z</time>
      </trkpt>
      <trkpt lat="48.61215" lon="-3.37165">
        <ele>143</ele>
        <time>2015-01-04T08:57:47Z</time>
      </trkpt>
      <trkpt lat="48.61217" lon="-3.37174">
        <ele>143</ele>
        <time>2015-01-04T08:57:48Z</time>
      </trkpt>
      <trkpt lat="48.61218" lon="-3.37183">
        <ele>143</ele>
        <time>2015-01-04T08:57:49Z</time>
      </trkpt>
      <trkpt lat="48.61219" lon="-3.37191">
        <ele>143</ele>
        <time>2015-01-04T08:57:50Z</time>
      </trkpt>
      <trkpt lat="48.61221" lon="-3.372">
        <ele>144</ele>
        <time>2015-01-04T08:57:51Z</time>
      </trkpt>
      <trkpt lat="48.61221" lon="-3.37209">
        <ele>144</ele>
        <time>2015-01-04T08:57:52Z</time>
      </trkpt>
      <trkpt lat="48.61222" lon="-3.37218">
        <ele>144</ele>
        <time>2015-01-04T08:57:53Z</time>
      </trkpt>
      <trkpt lat="48.61222" lon="-3.37227">
        <ele>144</ele>
        <time>2015-01-04T08:57:54Z</time>
      </trkpt>
      <trkpt lat="48.61223" lon="-3.37236">
        <ele>145</ele>
        <time>2015-01-04T08:57:55Z</time>
      </trkpt>
      <trkpt lat="48.61222" lon="-3.37278">
        <ele>146</ele>
        <time>2015-01-04T08:58:00Z</time>
      </trkpt>
      <trkpt lat="48.61222" lon="-3.37286">
        <ele>146</ele>
        <time>2015-01-04T08:58:01Z</time>
      </trkpt>
      <trkpt lat="48.61221" lon="-3.37294">
        <ele>146</ele>
        <time>2015-01-04T08:58:02Z</time>
      </trkpt>
      <trkpt lat="48.61221" lon="-3.3731">
        <ele>147</ele>
        <time>2015-01-04T08:58:04Z</time>
      </trkpt>
      <trkpt lat="48.61221" lon="-3.37317">
        <ele>147</ele>
        <time>2015-01-04T08:58:05Z</time>
      </trkpt>
      <trkpt lat="48.6122" lon="-3.37325">
        <ele>147</ele>
        <time>2015-01-04T08:58:06Z</time>
      </trkpt>
      <trkpt lat="48.6122" lon="-3.37333">
        <ele>148</ele>
        <time>2015-01-04T08:58:07Z</time>
      </trkpt>
      <trkpt lat="48.6122" lon="-3.37363">
        <ele>149</ele>
        <time>2015-01-04T08:58:11Z</time>
      </trkpt>
      <trkpt lat="48.61221" lon="-3.37371">
        <ele>149</ele>
        <time>2015-01-04T08:58:12Z</time>
      </trkpt>
      <trkpt lat="48.61221" lon="-3.37378">
        <ele>149</ele>
        <time>2015-01-04T08:58:13Z</time>
      </trkpt>
      <trkpt lat="48.61222" lon="-3.37385">
        <ele>149</ele>
        <time>2015-01-04T08:58:14Z</time>
      </trkpt>
      <trkpt lat="48.61223" lon="-3.37393">
        <ele>150</ele>
        <time>2015-01-04T08:58:15Z</time>
      </trkpt>
      <trkpt lat="48.61224" lon="-3.374">
        <ele>150</ele>
        <time>2015-01-04T08:58:16Z</time>
      </trkpt>
      <trkpt lat="48.61224" lon="-3.37406">
        <ele>150</ele>
        <time>2015-01-04T08:58:17Z</time>
      </trkpt>
      <trkpt lat="48.61226" lon="-3.37413">
        <ele>151</ele>
        <time>2015-01-04T08:58:18Z</time>
      </trkpt>
      <trkpt lat="48.61227" lon="-3.37419">
        <ele>151</ele>
        <time>2015-01-04T08:58:19Z</time>
      </trkpt>
      <trkpt lat="48.61227" lon="-3.37426">
        <ele>152</ele>
        <time>2015-01-04T08:58:20Z</time>
      </trkpt>
      <trkpt lat="48.61229" lon="-3.37432">
        <ele>152</ele>
        <time>2015-01-04T08:58:21Z</time>
      </trkpt>
      <trkpt lat="48.61229" lon="-3.37439">
        <ele>152</ele>
        <time>2015-01-04T08:58:22Z</time>
      </trkpt>
      <trkpt lat="48.6123" lon="-3.37445">
        <ele>153</ele>
        <time>2015-01-04T08:58:23Z</time>
      </trkpt>
      <trkpt lat="48.61231" lon="-3.37452">
        <ele>153</ele>
        <time>2015-01-04T08:58:24Z</time>
      </trkpt>
      <trkpt lat="48.61232" lon="-3.37458">
        <ele>153</ele>
        <time>2015-01-04T08:58:25Z</time>
      </trkpt>
      <trkpt lat="48.61233" lon="-3.37465">
        <ele>154</ele>
        <time>2015-01-04T08:58:26Z</time>
      </trkpt>
      <trkpt lat="48.61233" lon="-3.37472">
        <ele>154</ele>
        <time>2015-01-04T08:58:27Z</time>
      </trkpt>
      <trkpt lat="48.61234" lon="-3.37478">
        <ele>154</ele>
        <time>2015-01-04T08:58:28Z</time>
      </trkpt>
      <trkpt lat="48.61235" lon="-3.37484">
        <ele>154</ele>
        <time>2015-01-04T08:58:29Z</time>
      </trkpt>
      <trkpt lat="48.61235" lon="-3.37491">
        <ele>155</ele>
        <time>2015-01-04T08:58:30Z</time>
      </trkpt>
      <trkpt lat="48.61236" lon="-3.37497">
        <ele>155</ele>
        <time>2015-01-04T08:58:31Z</time>
      </trkpt>
      <trkpt lat="48.61236" lon="-3.37504">
        <ele>155</ele>
        <time>2015-01-04T08:58:32Z</time>
      </trkpt>
      <trkpt lat="48.61237" lon="-3.37511">
        <ele>155</ele>
        <time>2015-01-04T08:58:33Z</time>
      </trkpt>
      <trkpt lat="48.61237" lon="-3.37517">
        <ele>156</ele>
        <time>2015-01-04T08:58:34Z</time>
      </trkpt>
      <trkpt lat="48.61237" lon="-3.37524">
        <ele>156</ele>
        <time>2015-01-04T08:58:35Z</time>
      </trkpt>
      <trkpt lat="48.61238" lon="-3.37537">
        <ele>156</ele>
        <time>2015-01-04T08:58:37Z</time>
      </trkpt>
      <trkpt lat="48.61238" lon="-3.37551">
        <ele>157</ele>
        <time>2015-01-04T08:58:39Z</time>
      </trkpt>
      <trkpt lat="48.61238" lon="-3.37559">
        <ele>157</ele>
        <time>2015-01-04T08:58:40Z</time>
      </trkpt>
      <trkpt lat="48.61238" lon="-3.37589">
        <ele>158</ele>
        <time>2015-01-04T08:58:44Z</time>
      </trkpt>
      <trkpt lat="48.61238" lon="-3.37605">
        <ele>158</ele>
        <time>2015-01-04T08:58:46Z</time>
      </trkpt>
      <trkpt lat="48.61237" lon="-3.37613">
        <ele>158</ele>
        <time>2015-01-04T08:58:47Z</time>
      </trkpt>
      <trkpt lat="48.61237" lon="-3.37621">
        <ele>158</ele>
        <time>2015-01-04T08:58:48Z</time>
      </trkpt>
      <trkpt lat="48.61237" lon="-3.3763">
        <ele>158</ele>
        <time>2015-01-04T08:58:49Z</time>
      </trkpt>
      <trkpt lat="48.61236" lon="-3.37639">
        <ele>158</ele>
        <time>2015-01-04T08:58:50Z</time>
      </trkpt>
      <trkpt lat="48.61236" lon="-3.37649">
        <ele>158</ele>
        <time>2015-01-04T08:58:51Z</time>
      </trkpt>
      <trkpt lat="48.61235" lon="-3.37658">
        <ele>158</ele>
        <time>2015-01-04T08:58:52Z</time>
      </trkpt>
      <trkpt lat="48.61235" lon="-3.37667">
        <ele>158</ele>
        <time>2015-01-04T08:58:53Z</time>
      </trkpt>
      <trkpt lat="48.61234" lon="-3.37677">
        <ele>158</ele>
        <time>2015-01-04T08:58:54Z</time>
      </trkpt>
      <trkpt lat="48.61234" lon="-3.37686">
        <ele>158</ele>
        <time>2015-01-04T08:58:55Z</time>
      </trkpt>
      <trkpt lat="48.61233" lon="-3.37695">
        <ele>158</ele>
        <time>2015-01-04T08:58:56Z</time>
      </trkpt>
      <trkpt lat="48.61232" lon="-3.37704">
        <ele>158</ele>
        <time>2015-01-04T08:58:57Z</time>
      </trkpt>
      <trkpt lat="48.61232" lon="-3.37714">
        <ele>158</ele>
        <time>2015-01-04T08:58:58Z</time>
      </trkpt>
      <trkpt lat="48.61231" lon="-3.37722">
        <ele>158</ele>
        <time>2015-01-04T08:58:59Z</time>
      </trkpt>
      <trkpt lat="48.6123" lon="-3.37732">
        <ele>158</ele>
        <time>2015-01-04T08:59:00Z</time>
      </trkpt>
      <trkpt lat="48.6123" lon="-3.3774">
        <ele>158</ele>
        <time>2015-01-04T08:59:01Z</time>
      </trkpt>
      <trkpt lat="48.61229" lon="-3.37749">
        <ele>158</ele>
        <time>2015-01-04T08:59:02Z</time>
      </trkpt>
      <trkpt lat="48.61228" lon="-3.37758">
        <ele>158</ele>
        <time>2015-01-04T08:59:03Z</time>
      </trkpt>
      <trkpt lat="48.61227" lon="-3.37767">
        <ele>158</ele>
        <time>2015-01-04T08:59:04Z</time>
      </trkpt>
      <trkpt lat="48.61226" lon="-3.37776">
        <ele>158</ele>
        <time>2015-01-04T08:59:05Z</time>
      </trkpt>
      <trkpt lat="48.61225" lon="-3.37785">
        <ele>158</ele>
        <time>2015-01-04T08:59:06Z</time>
      </trkpt>
      <trkpt lat="48.61224" lon="-3.37793">
        <ele>158</ele>
        <time>2015-01-04T08:59:07Z</time>
      </trkpt>
      <trkpt lat="48.61223" lon="-3.37803">
        <ele>158</ele>
        <time>2015-01-04T08:59:08Z</time>
      </trkpt>
      <trkpt lat="48.61222" lon="-3.37811">
        <ele>158</ele>
        <time>2015-01-04T08:59:09Z</time>
      </trkpt>
      <trkpt lat="48.61221" lon="-3.3782">
        <ele>158</ele>
        <time>2015-01-04T08:59:10Z</time>
      </trkpt>
      <trkpt lat="48.6122" lon="-3.37829">
        <ele>158</ele>
        <time>2015-01-04T08:59:11Z</time>
      </trkpt>
      <trkpt lat="48.61219" lon="-3.37838">
        <ele>158</ele>
        <time>2015-01-04T08:59:12Z</time>
      </trkpt>
      <trkpt lat="48.61218" lon="-3.37847">
        <ele>158</ele>
        <time>2015-01-04T08:59:13Z</time>
      </trkpt>
      <trkpt lat="48.61216" lon="-3.37856">
        <ele>158</ele>
        <time>2015-01-04T08:59:14Z</time>
      </trkpt>
      <trkpt lat="48.61216" lon="-3.37865">
        <ele>158</ele>
        <time>2015-01-04T08:59:15Z</time>
      </trkpt>
      <trkpt lat="48.61214" lon="-3.37874">
        <ele>158</ele>
        <time>2015-01-04T08:59:16Z</time>
      </trkpt>
      <trkpt lat="48.61214" lon="-3.37883">
        <ele>158</ele>
        <time>2015-01-04T08:59:17Z</time>
      </trkpt>
      <trkpt lat="48.61213" lon="-3.37892">
        <ele>158</ele>
        <time>2015-01-04T08:59:18Z</time>
      </trkpt>
      <trkpt lat="48.61212" lon="-3.37901">
        <ele>158</ele>
        <time>2015-01-04T08:59:19Z</time>
      </trkpt>
      <trkpt lat="48.61211" lon="-3.3791">
        <ele>158</ele>
        <time>2015-01-04T08:59:20Z</time>
      </trkpt>
      <trkpt lat="48.61211" lon="-3.37919">
        <ele>158</ele>
        <time>2015-01-04T08:59:21Z</time>
      </trkpt>
      <trkpt lat="48.6121" lon="-3.37929">
        <ele>158</ele>
        <time>2015-01-04T08:59:22Z</time>
      </trkpt>
      <trkpt lat="48.61209" lon="-3.37938">
        <ele>158</ele>
        <time>2015-01-04T08:59:23Z</time>
      </trkpt>
      <trkpt lat="48.61208" lon="-3.37947">
        <ele>158</ele>
        <time>2015-01-04T08:59:24Z</time>
      </trkpt>
      <trkpt lat="48.61208" lon="-3.37956">
        <ele>158</ele>
        <time>2015-01-04T08:59:25Z</time>
      </trkpt>
      <trkpt lat="48.61207" lon="-3.37965">
        <ele>158</ele>
        <time>2015-01-04T08:59:26Z</time>
      </trkpt>
      <trkpt lat="48.61206" lon="-3.37975">
        <ele>158</ele>
        <time>2015-01-04T08:59:27Z</time>
      </trkpt>
      <trkpt lat="48.61205" lon="-3.37984">
        <ele>158</ele>
        <time>2015-01-04T08:59:28Z</time>
      </trkpt>
      <trkpt lat="48.61203" lon="-3.37994">
        <ele>158</ele>
        <time>2015-01-04T08:59:29Z</time>
      </trkpt>
      <trkpt lat="48.61202" lon="-3.38004">
        <ele>158</ele>
        <time>2015-01-04T08:59:30Z</time>
      </trkpt>
      <trkpt lat="48.612" lon="-3.38014">
        <ele>158</ele>
        <time>2015-01-04T08:59:31Z</time>
      </trkpt>
      <trkpt lat="48.61198" lon="-3.38024">
        <ele>158</ele>
        <time>2015-01-04T08:59:32Z</time>
      </trkpt>
      <trkpt lat="48.61197" lon="-3.38035">
        <ele>158</ele>
        <time>2015-01-04T08:59:33Z</time>
      </trkpt>
      <trkpt lat="48.61195" lon="-3.38046">
        <ele>158</ele>
        <time>2015-01-04T08:59:34Z</time>
      </trkpt>
      <trkpt lat="48.61195" lon="-3.38057">
        <ele>158</ele>
        <time>2015-01-04T08:59:35Z</time>
      </trkpt>
      <trkpt lat="48.61194" lon="-3.38069">
        <ele>158</ele>
        <time>2015-01-04T08:59:36Z</time>
      </trkpt>
      <trkpt lat="48.61193" lon="-3.38142">
        <ele>158</ele>
        <time>2015-01-04T08:59:42Z</time>
      </trkpt>
      <trkpt lat="48.61192" lon="-3.38154">
        <ele>158</ele>
        <time>2015-01-04T08:59:43Z</time>
      </trkpt>
      <trkpt lat="48.61191" lon="-3.38167">
        <ele>158</ele>
        <time>2015-01-04T08:59:44Z</time>
      </trkpt>
      <trkpt lat="48.6119" lon="-3.3818">
        <ele>158</ele>
        <time>2015-01-04T08:59:45Z</time>
      </trkpt>
      <trkpt lat="48.61189" lon="-3.38193">
        <ele>158</ele>
        <time>2015-01-04T08:59:46Z</time>
      </trkpt>
      <trkpt lat="48.61187" lon="-3.38206">
        <ele>158</ele>
        <time>2015-01-04T08:59:47Z</time>
      </trkpt>
      <trkpt lat="48.61185" lon="-3.38219">
        <ele>158</ele>
        <time>2015-01-04T08:59:48Z</time>
      </trkpt>
      <trkpt lat="48.61184" lon="-3.38233">
        <ele>158</ele>
        <time>2015-01-04T08:59:49Z</time>
      </trkpt>
      <trkpt lat="48.61183" lon="-3.38247">
        <ele>157</ele>
        <time>2015-01-04T08:59:50Z</time>
      </trkpt>
      <trkpt lat="48.61181" lon="-3.38262">
        <ele>156</ele>
        <time>2015-01-04T08:59:51Z</time>
      </trkpt>
      <trkpt lat="48.6118" lon="-3.38278">
        <ele>156</ele>
        <time>2015-01-04T08:59:52Z</time>
      </trkpt>
      <trkpt lat="48.61179" lon="-3.38294">
        <ele>155</ele>
        <time>2015-01-04T08:59:53Z</time>
      </trkpt>
      <trkpt lat="48.61178" lon="-3.3831">
        <ele>154</ele>
        <time>2015-01-04T08:59:54Z</time>
      </trkpt>
      <trkpt lat="48.61176" lon="-3.38326">
        <ele>153</ele>
        <time>2015-01-04T08:59:55Z</time>
      </trkpt>
      <trkpt lat="48.61175" lon="-3.38342">
        <ele>152</ele>
        <time>2015-01-04T08:59:56Z</time>
      </trkpt>
      <trkpt lat="48.61173" lon="-3.38359">
        <ele>151</ele>
        <time>2015-01-04T08:59:57Z</time>
      </trkpt>
      <trkpt lat="48.61172" lon="-3.38377">
        <ele>150</ele>
        <time>2015-01-04T08:59:58Z</time>
      </trkpt>
      <trkpt lat="48.6117" lon="-3.38395">
        <ele>149</ele>
        <time>2015-01-04T08:59:59Z</time>
      </trkpt>
      <trkpt lat="48.61169" lon="-3.38413">
        <ele>148</ele>
        <time>2015-01-04T09:00:00Z</time>
      </trkpt>
      <trkpt lat="48.61167" lon="-3.38432">
        <ele>147</ele>
        <time>2015-01-04T09:00:01Z</time>
      </trkpt>
      <trkpt lat="48.61165" lon="-3.3845">
        <ele>146</ele>
        <time>2015-01-04T09:00:02Z</time>
      </trkpt>
      <trkpt lat="48.61163" lon="-3.38468">
        <ele>145</ele>
        <time>2015-01-04T09:00:03Z</time>
      </trkpt>
      <trkpt lat="48.61161" lon="-3.38486">
        <ele>144</ele>
        <time>2015-01-04T09:00:04Z</time>
      </trkpt>
      <trkpt lat="48.6116" lon="-3.38503">
        <ele>143</ele>
        <time>2015-01-04T09:00:05Z</time>
      </trkpt>
      <trkpt lat="48.61158" lon="-3.3852">
        <ele>142</ele>
        <time>2015-01-04T09:00:06Z</time>
      </trkpt>
      <trkpt lat="48.61158" lon="-3.38536">
        <ele>141</ele>
        <time>2015-01-04T09:00:07Z</time>
      </trkpt>
      <trkpt lat="48.61158" lon="-3.38554">
        <ele>140</ele>
        <time>2015-01-04T09:00:08Z</time>
      </trkpt>
      <trkpt lat="48.6116" lon="-3.38571">
        <ele>139</ele>
        <time>2015-01-04T09:00:09Z</time>
      </trkpt>
      <trkpt lat="48.61163" lon="-3.38588">
        <ele>138</ele>
        <time>2015-01-04T09:00:10Z</time>
      </trkpt>
      <trkpt lat="48.61167" lon="-3.38606">
        <ele>137</ele>
        <time>2015-01-04T09:00:11Z</time>
      </trkpt>
      <trkpt lat="48.61171" lon="-3.38623">
        <ele>136</ele>
        <time>2015-01-04T09:00:12Z</time>
      </trkpt>
      <trkpt lat="48.61176" lon="-3.3864">
        <ele>135</ele>
        <time>2015-01-04T09:00:13Z</time>
      </trkpt>
      <trkpt lat="48.61181" lon="-3.38657">
        <ele>134</ele>
        <time>2015-01-04T09:00:14Z</time>
      </trkpt>
      <trkpt lat="48.61187" lon="-3.38672">
        <ele>133</ele>
        <time>2015-01-04T09:00:15Z</time>
      </trkpt>
      <trkpt lat="48.61192" lon="-3.38688">
        <ele>133</ele>
        <time>2015-01-04T09:00:16Z</time>
      </trkpt>
      <trkpt lat="48.61198" lon="-3.38703">
        <ele>132</ele>
        <time>2015-01-04T09:00:17Z</time>
      </trkpt>
      <trkpt lat="48.61204" lon="-3.38718">
        <ele>132</ele>
        <time>2015-01-04T09:00:18Z</time>
      </trkpt>
      <trkpt lat="48.61209" lon="-3.38733">
        <ele>131</ele>
        <time>2015-01-04T09:00:19Z</time>
      </trkpt>
      <trkpt lat="48.61212" lon="-3.38749">
        <ele>131</ele>
        <time>2015-01-04T09:00:20Z</time>
      </trkpt>
      <trkpt lat="48.61213" lon="-3.38766">
        <ele>131</ele>
        <time>2015-01-04T09:00:21Z</time>
      </trkpt>
      <trkpt lat="48.61213" lon="-3.38797">
        <ele>130</ele>
        <time>2015-01-04T09:00:23Z</time>
      </trkpt>
      <trkpt lat="48.61212" lon="-3.38813">
        <ele>130</ele>
        <time>2015-01-04T09:00:24Z</time>
      </trkpt>
      <trkpt lat="48.61211" lon="-3.38828">
        <ele>130</ele>
        <time>2015-01-04T09:00:25Z</time>
      </trkpt>
      <trkpt lat="48.61211" lon="-3.38844">
        <ele>129</ele>
        <time>2015-01-04T09:00:26Z</time>
      </trkpt>
      <trkpt lat="48.6121" lon="-3.3886">
        <ele>129</ele>
        <time>2015-01-04T09:00:27Z</time>
      </trkpt>
      <trkpt lat="48.61208" lon="-3.38876">
        <ele>129</ele>
        <time>2015-01-04T09:00:28Z</time>
      </trkpt>
      <trkpt lat="48.61207" lon="-3.38892">
        <ele>128</ele>
        <time>2015-01-04T09:00:29Z</time>
      </trkpt>
      <trkpt lat="48.61206" lon="-3.38908">
        <ele>128</ele>
        <time>2015-01-04T09:00:30Z</time>
      </trkpt>
      <trkpt lat="48.61205" lon="-3.38925">
        <ele>127</ele>
        <time>2015-01-04T09:00:31Z</time>
      </trkpt>
      <trkpt lat="48.61204" lon="-3.38942">
        <ele>127</ele>
        <time>2015-01-04T09:00:32Z</time>
      </trkpt>
      <trkpt lat="48.61203" lon="-3.38959">
        <ele>126</ele>
        <time>2015-01-04T09:00:33Z</time>
      </trkpt>
      <trkpt lat="48.61201" lon="-3.38976">
        <ele>125</ele>
        <time>2015-01-04T09:00:34Z</time>
      </trkpt>
      <trkpt lat="48.612" lon="-3.38992">
        <ele>125</ele>
        <time>2015-01-04T09:00:35Z</time>
      </trkpt>
      <trkpt lat="48.61199" lon="-3.39008">
        <ele>125</ele>
        <time>2015-01-04T09:00:36Z</time>
      </trkpt>
      <trkpt lat="48.61198" lon="-3.39024">
        <ele>124</ele>
        <time>2015-01-04T09:00:37Z</time>
      </trkpt>
      <trkpt lat="48.61197" lon="-3.3904">
        <ele>124</ele>
        <time>2015-01-04T09:00:38Z</time>
      </trkpt>
      <trkpt lat="48.61195" lon="-3.39055">
        <ele>124</ele>
        <time>2015-01-04T09:00:39Z</time>
      </trkpt>
      <trkpt lat="48.61195" lon="-3.39071">
        <ele>124</ele>
        <time>2015-01-04T09:00:40Z</time>
      </trkpt>
      <trkpt lat="48.61194" lon="-3.39086">
        <ele>123</ele>
        <time>2015-01-04T09:00:41Z</time>
      </trkpt>
      <trkpt lat="48.61193" lon="-3.391">
        <ele>123</ele>
        <time>2015-01-04T09:00:42Z</time>
      </trkpt>
      <trkpt lat="48.61194" lon="-3.39116">
        <ele>123</ele>
        <time>2015-01-04T09:00:43Z</time>
      </trkpt>
      <trkpt lat="48.61195" lon="-3.39132">
        <ele>122</ele>
        <time>2015-01-04T09:00:44Z</time>
      </trkpt>
      <trkpt lat="48.61198" lon="-3.39149">
        <ele>121</ele>
        <time>2015-01-04T09:00:45Z</time>
      </trkpt>
      <trkpt lat="48.61199" lon="-3.39166">
        <ele>120</ele>
        <time>2015-01-04T09:00:46Z</time>
      </trkpt>
      <trkpt lat="48.61201" lon="-3.39185">
        <ele>119</ele>
        <time>2015-01-04T09:00:47Z</time>
      </trkpt>
      <trkpt lat="48.61202" lon="-3.39204">
        <ele>118</ele>
        <time>2015-01-04T09:00:48Z</time>
      </trkpt>
      <trkpt lat="48.61203" lon="-3.39223">
        <ele>117</ele>
        <time>2015-01-04T09:00:49Z</time>
      </trkpt>
      <trkpt lat="48.61202" lon="-3.39243">
        <ele>116</ele>
        <time>2015-01-04T09:00:50Z</time>
      </trkpt>
      <trkpt lat="48.61201" lon="-3.39263">
        <ele>115</ele>
        <time>2015-01-04T09:00:51Z</time>
      </trkpt>
      <trkpt lat="48.61199" lon="-3.39282">
        <ele>114</ele>
        <time>2015-01-04T09:00:52Z</time>
      </trkpt>
      <trkpt lat="48.61197" lon="-3.39299">
        <ele>113</ele>
        <time>2015-01-04T09:00:53Z</time>
      </trkpt>
      <trkpt lat="48.61195" lon="-3.39317">
        <ele>113</ele>
        <time>2015-01-04T09:00:54Z</time>
      </trkpt>
      <trkpt lat="48.61194" lon="-3.39333">
        <ele>113</ele>
        <time>2015-01-04T09:00:55Z</time>
      </trkpt>
      <trkpt lat="48.61192" lon="-3.39349">
        <ele>113</ele>
        <time>2015-01-04T09:00:56Z</time>
      </trkpt>
      <trkpt lat="48.61191" lon="-3.39365">
        <ele>112</ele>
        <time>2015-01-04T09:00:57Z</time>
      </trkpt>
      <trkpt lat="48.61189" lon="-3.3938">
        <ele>112</ele>
        <time>2015-01-04T09:00:58Z</time>
      </trkpt>
      <trkpt lat="48.61186" lon="-3.39395">
        <ele>112</ele>
        <time>2015-01-04T09:00:59Z</time>
      </trkpt>
      <trkpt lat="48.61182" lon="-3.39409">
        <ele>112</ele>
        <time>2015-01-04T09:01:00Z</time>
      </trkpt>
      <trkpt lat="48.61178" lon="-3.39423">
        <ele>112</ele>
        <time>2015-01-04T09:01:01Z</time>
      </trkpt>
      <trkpt lat="48.61174" lon="-3.39436">
        <ele>111</ele>
        <time>2015-01-04T09:01:02Z</time>
      </trkpt>
      <trkpt lat="48.6117" lon="-3.3945">
        <ele>111</ele>
        <time>2015-01-04T09:01:03Z</time>
      </trkpt>
      <trkpt lat="48.61166" lon="-3.39463">
        <ele>111</ele>
        <time>2015-01-04T09:01:04Z</time>
      </trkpt>
      <trkpt lat="48.61163" lon="-3.39477">
        <ele>111</ele>
        <time>2015-01-04T09:01:05Z</time>
      </trkpt>
      <trkpt lat="48.6116" lon="-3.3949">
        <ele>110</ele>
        <time>2015-01-04T09:01:06Z</time>
      </trkpt>
      <trkpt lat="48.61158" lon="-3.39504">
        <ele>110</ele>
        <time>2015-01-04T09:01:07Z</time>
      </trkpt>
      <trkpt lat="48.61155" lon="-3.39518">
        <ele>110</ele>
        <time>2015-01-04T09:01:08Z</time>
      </trkpt>
      <trkpt lat="48.61153" lon="-3.39532">
        <ele>109</ele>
        <time>2015-01-04T09:01:09Z</time>
      </trkpt>
      <trkpt lat="48.6115" lon="-3.39545">
        <ele>109</ele>
        <time>2015-01-04T09:01:10Z</time>
      </trkpt>
      <trkpt lat="48.61148" lon="-3.39559">
        <ele>109</ele>
        <time>2015-01-04T09:01:11Z</time>
      </trkpt>
      <trkpt lat="48.61146" lon="-3.39573">
        <ele>108</ele>
        <time>2015-01-04T09:01:12Z</time>
      </trkpt>
      <trkpt lat="48.61145" lon="-3.39586">
        <ele>108</ele>
        <time>2015-01-04T09:01:13Z</time>
      </trkpt>
      <trkpt lat="48.61143" lon="-3.396">
        <ele>107</ele>
        <time>2015-01-04T09:01:14Z</time>
      </trkpt>
      <trkpt lat="48.61143" lon="-3.39614">
        <ele>107</ele>
        <time>2015-01-04T09:01:15Z</time>
      </trkpt>
      <trkpt lat="48.61143" lon="-3.39644">
        <ele>106</ele>
        <time>2015-01-04T09:01:17Z</time>
      </trkpt>
      <trkpt lat="48.61145" lon="-3.39659">
        <ele>106</ele>
        <time>2015-01-04T09:01:18Z</time>
      </trkpt>
      <trkpt lat="48.61147" lon="-3.39674">
        <ele>105</ele>
        <time>2015-01-04T09:01:19Z</time>
      </trkpt>
      <trkpt lat="48.61149" lon="-3.39689">
        <ele>105</ele>
        <time>2015-01-04T09:01:20Z</time>
      </trkpt>
      <trkpt lat="48.61152" lon="-3.39704">
        <ele>105</ele>
        <time>2015-01-04T09:01:21Z</time>
      </trkpt>
      <trkpt lat="48.61155" lon="-3.39719">
        <ele>104</ele>
        <time>2015-01-04T09:01:22Z</time>
      </trkpt>
      <trkpt lat="48.61158" lon="-3.39733">
        <ele>104</ele>
        <time>2015-01-04T09:01:23Z</time>
      </trkpt>
      <trkpt lat="48.61161" lon="-3.39748">
        <ele>104</ele>
        <time>2015-01-04T09:01:24Z</time>
      </trkpt>
      <trkpt lat="48.61165" lon="-3.39763">
        <ele>104</ele>
        <time>2015-01-04T09:01:25Z</time>
      </trkpt>
      <trkpt lat="48.61168" lon="-3.39778">
        <ele>103</ele>
        <time>2015-01-04T09:01:26Z</time>
      </trkpt>
      <trkpt lat="48.61171" lon="-3.39793">
        <ele>103</ele>
        <time>2015-01-04T09:01:27Z</time>
      </trkpt>
      <trkpt lat="48.61173" lon="-3.39809">
        <ele>103</ele>
        <time>2015-01-04T09:01:28Z</time>
      </trkpt>
      <trkpt lat="48.61174" lon="-3.39825">
        <ele>102</ele>
        <time>2015-01-04T09:01:29Z</time>
      </trkpt>
      <trkpt lat="48.61173" lon="-3.39858">
        <ele>102</ele>
        <time>2015-01-04T09:01:31Z</time>
      </trkpt>
      <trkpt lat="48.61172" lon="-3.39874">
        <ele>101</ele>
        <time>2015-01-04T09:01:32Z</time>
      </trkpt>
      <trkpt lat="48.61171" lon="-3.39889">
        <ele>101</ele>
        <time>2015-01-04T09:01:33Z</time>
      </trkpt>
      <trkpt lat="48.6117" lon="-3.39905">
        <ele>101</ele>
        <time>2015-01-04T09:01:34Z</time>
      </trkpt>
      <trkpt lat="48.61169" lon="-3.3992">
        <ele>101</ele>
        <time>2015-01-04T09:01:35Z</time>
      </trkpt>
      <trkpt lat="48.6117" lon="-3.39951">
        <ele>100</ele>
        <time>2015-01-04T09:01:37Z</time>
      </trkpt>
      <trkpt lat="48.61171" lon="-3.39966">
        <ele>100</ele>
        <time>2015-01-04T09:01:38Z</time>
      </trkpt>
      <trkpt lat="48.61174" lon="-3.39981">
        <ele>100</ele>
        <time>2015-01-04T09:01:39Z</time>
      </trkpt>
      <trkpt lat="48.61176" lon="-3.39996">
        <ele>100</ele>
        <time>2015-01-04T09:01:40Z</time>
      </trkpt>
      <trkpt lat="48.61179" lon="-3.4001">
        <ele>100</ele>
        <time>2015-01-04T09:01:41Z</time>
      </trkpt>
      <trkpt lat="48.61182" lon="-3.40025">
        <ele>100</ele>
        <time>2015-01-04T09:01:42Z</time>
      </trkpt>
      <trkpt lat="48.61184" lon="-3.40039">
        <ele>100</ele>
        <time>2015-01-04T09:01:43Z</time>
      </trkpt>
      <trkpt lat="48.61186" lon="-3.40054">
        <ele>100</ele>
        <time>2015-01-04T09:01:44Z</time>
      </trkpt>
      <trkpt lat="48.61187" lon="-3.40068">
        <ele>99</ele>
        <time>2015-01-04T09:01:45Z</time>
      </trkpt>
      <trkpt lat="48.61187" lon="-3.40096">
        <ele>99</ele>
        <time>2015-01-04T09:01:47Z</time>
      </trkpt>
      <trkpt lat="48.61186" lon="-3.40109">
        <ele>99</ele>
        <time>2015-01-04T09:01:48Z</time>
      </trkpt>
      <trkpt lat="48.61184" lon="-3.40123">
        <ele>99</ele>
        <time>2015-01-04T09:01:49Z</time>
      </trkpt>
      <trkpt lat="48.61183" lon="-3.40136">
        <ele>99</ele>
        <time>2015-01-04T09:01:50Z</time>
      </trkpt>
      <trkpt lat="48.61182" lon="-3.40148">
        <ele>99</ele>
        <time>2015-01-04T09:01:51Z</time>
      </trkpt>
      <trkpt lat="48.6118" lon="-3.40161">
        <ele>99</ele>
        <time>2015-01-04T09:01:52Z</time>
      </trkpt>
      <trkpt lat="48.61178" lon="-3.40174">
        <ele>99</ele>
        <time>2015-01-04T09:01:53Z</time>
      </trkpt>
      <trkpt lat="48.61177" lon="-3.40187">
        <ele>99</ele>
        <time>2015-01-04T09:01:54Z</time>
      </trkpt>
      <trkpt lat="48.61175" lon="-3.402">
        <ele>98</ele>
        <time>2015-01-04T09:01:55Z</time>
      </trkpt>
      <trkpt lat="48.61174" lon="-3.40213">
        <ele>98</ele>
        <time>2015-01-04T09:01:56Z</time>
      </trkpt>
      <trkpt lat="48.61172" lon="-3.40226">
        <ele>98</ele>
        <time>2015-01-04T09:01:57Z</time>
      </trkpt>
      <trkpt lat="48.61171" lon="-3.4024">
        <ele>98</ele>
        <time>2015-01-04T09:01:58Z</time>
      </trkpt>
      <trkpt lat="48.61169" lon="-3.40253">
        <ele>97</ele>
        <time>2015-01-04T09:01:59Z</time>
      </trkpt>
      <trkpt lat="48.61167" lon="-3.40267">
        <ele>97</ele>
        <time>2015-01-04T09:02:00Z</time>
      </trkpt>
      <trkpt lat="48.61165" lon="-3.40281">
        <ele>96</ele>
        <time>2015-01-04T09:02:01Z</time>
      </trkpt>
      <trkpt lat="48.61163" lon="-3.40296">
        <ele>96</ele>
        <time>2015-01-04T09:02:02Z</time>
      </trkpt>
      <trkpt lat="48.61162" lon="-3.4031">
        <ele>95</ele>
        <time>2015-01-04T09:02:03Z</time>
      </trkpt>
      <trkpt lat="48.6116" lon="-3.40325">
        <ele>95</ele>
        <time>2015-01-04T09:02:04Z</time>
      </trkpt>
      <trkpt lat="48.61158" lon="-3.40339">
        <ele>95</ele>
        <time>2015-01-04T09:02:05Z</time>
      </trkpt>
      <trkpt lat="48.61156" lon="-3.40353">
        <ele>94</ele>
        <time>2015-01-04T09:02:06Z</time>
      </trkpt>
      <trkpt lat="48.61155" lon="-3.40368">
        <ele>94</ele>
        <time>2015-01-04T09:02:07Z</time>
      </trkpt>
      <trkpt lat="48.61153" lon="-3.40383">
        <ele>94</ele>
        <time>2015-01-04T09:02:08Z</time>
      </trkpt>
      <trkpt lat="48.61151" lon="-3.40397">
        <ele>93</ele>
        <time>2015-01-04T09:02:09Z</time>
      </trkpt>
      <trkpt lat="48.61149" lon="-3.40411">
        <ele>93</ele>
        <time>2015-01-04T09:02:10Z</time>
      </trkpt>
      <trkpt lat="48.61147" lon="-3.40425">
        <ele>93</ele>
        <time>2015-01-04T09:02:11Z</time>
      </trkpt>
      <trkpt lat="48.61143" lon="-3.4044">
        <ele>93</ele>
        <time>2015-01-04T09:02:12Z</time>
      </trkpt>
      <trkpt lat="48.6114" lon="-3.40454">
        <ele>92</ele>
        <time>2015-01-04T09:02:13Z</time>
      </trkpt>
      <trkpt lat="48.61137" lon="-3.40468">
        <ele>92</ele>
        <time>2015-01-04T09:02:14Z</time>
      </trkpt>
      <trkpt lat="48.61133" lon="-3.40483">
        <ele>91</ele>
        <time>2015-01-04T09:02:15Z</time>
      </trkpt>
      <trkpt lat="48.61129" lon="-3.40497">
        <ele>91</ele>
        <time>2015-01-04T09:02:16Z</time>
      </trkpt>
      <trkpt lat="48.61124" lon="-3.40511">
        <ele>90</ele>
        <time>2015-01-04T09:02:17Z</time>
      </trkpt>
      <trkpt lat="48.6112" lon="-3.40526">
        <ele>90</ele>
        <time>2015-01-04T09:02:18Z</time>
      </trkpt>
      <trkpt lat="48.61116" lon="-3.4054">
        <ele>90</ele>
        <time>2015-01-04T09:02:19Z</time>
      </trkpt>
      <trkpt lat="48.61112" lon="-3.40554">
        <ele>89</ele>
        <time>2015-01-04T09:02:20Z</time>
      </trkpt>
      <trkpt lat="48.61108" lon="-3.40567">
        <ele>89</ele>
        <time>2015-01-04T09:02:21Z</time>
      </trkpt>
      <trkpt lat="48.61104" lon="-3.4058">
        <ele>89</ele>
        <time>2015-01-04T09:02:22Z</time>
      </trkpt>
      <trkpt lat="48.611" lon="-3.40592">
        <ele>88</ele>
        <time>2015-01-04T09:02:23Z</time>
      </trkpt>
      <trkpt lat="48.61096" lon="-3.40603">
        <ele>88</ele>
        <time>2015-01-04T09:02:24Z</time>
      </trkpt>
      <trkpt lat="48.61092" lon="-3.40614">
        <ele>88</ele>
        <time>2015-01-04T09:02:25Z</time>
      </trkpt>
      <trkpt lat="48.61086" lon="-3.40624">
        <ele>88</ele>
        <time>2015-01-04T09:02:26Z</time>
      </trkpt>
      <trkpt lat="48.6108" lon="-3.40634">
        <ele>87</ele>
        <time>2015-01-04T09:02:27Z</time>
      </trkpt>
      <trkpt lat="48.61073" lon="-3.40642">
        <ele>87</ele>
        <time>2015-01-04T09:02:28Z</time>
      </trkpt>
      <trkpt lat="48.61066" lon="-3.40649">
        <ele>87</ele>
        <time>2015-01-04T09:02:29Z</time>
      </trkpt>
      <trkpt lat="48.61057" lon="-3.40654">
        <ele>86</ele>
        <time>2015-01-04T09:02:30Z</time>
      </trkpt>
      <trkpt lat="48.61049" lon="-3.40658">
        <ele>86</ele>
        <time>2015-01-04T09:02:31Z</time>
      </trkpt>
      <trkpt lat="48.6104" lon="-3.4066">
        <ele>86</ele>
        <time>2015-01-04T09:02:32Z</time>
      </trkpt>
      <trkpt lat="48.61031" lon="-3.40662">
        <ele>85</ele>
        <time>2015-01-04T09:02:33Z</time>
      </trkpt>
      <trkpt lat="48.61022" lon="-3.40664">
        <ele>85</ele>
        <time>2015-01-04T09:02:34Z</time>
      </trkpt>
      <trkpt lat="48.61013" lon="-3.40666">
        <ele>85</ele>
        <time>2015-01-04T09:02:35Z</time>
      </trkpt>
      <trkpt lat="48.61004" lon="-3.40668">
        <ele>84</ele>
        <time>2015-01-04T09:02:36Z</time>
      </trkpt>
      <trkpt lat="48.60995" lon="-3.40669">
        <ele>84</ele>
        <time>2015-01-04T09:02:37Z</time>
      </trkpt>
      <trkpt lat="48.60986" lon="-3.40671">
        <ele>84</ele>
        <time>2015-01-04T09:02:38Z</time>
      </trkpt>
      <trkpt lat="48.60978" lon="-3.40673">
        <ele>84</ele>
        <time>2015-01-04T09:02:39Z</time>
      </trkpt>
      <trkpt lat="48.60969" lon="-3.40676">
        <ele>83</ele>
        <time>2015-01-04T09:02:40Z</time>
      </trkpt>
      <trkpt lat="48.6096" lon="-3.40681">
        <ele>83</ele>
        <time>2015-01-04T09:02:41Z</time>
      </trkpt>
      <trkpt lat="48.60952" lon="-3.40686">
        <ele>83</ele>
        <time>2015-01-04T09:02:42Z</time>
      </trkpt>
      <trkpt lat="48.60944" lon="-3.40692">
        <ele>83</ele>
        <time>2015-01-04T09:02:43Z</time>
      </trkpt>
      <trkpt lat="48.60936" lon="-3.407">
        <ele>82</ele>
        <time>2015-01-04T09:02:44Z</time>
      </trkpt>
      <trkpt lat="48.60929" lon="-3.40708">
        <ele>82</ele>
        <time>2015-01-04T09:02:45Z</time>
      </trkpt>
      <trkpt lat="48.60922" lon="-3.40718">
        <ele>81</ele>
        <time>2015-01-04T09:02:46Z</time>
      </trkpt>
      <trkpt lat="48.60915" lon="-3.40728">
        <ele>81</ele>
        <time>2015-01-04T09:02:47Z</time>
      </trkpt>
      <trkpt lat="48.60908" lon="-3.40739">
        <ele>80</ele>
        <time>2015-01-04T09:02:48Z</time>
      </trkpt>
      <trkpt lat="48.60902" lon="-3.4075">
        <ele>80</ele>
        <time>2015-01-04T09:02:49Z</time>
      </trkpt>
      <trkpt lat="48.60895" lon="-3.40762">
        <ele>80</ele>
        <time>2015-01-04T09:02:50Z</time>
      </trkpt>
      <trkpt lat="48.60888" lon="-3.40774">
        <ele>79</ele>
        <time>2015-01-04T09:02:51Z</time>
      </trkpt>
      <trkpt lat="48.60882" lon="-3.40786">
        <ele>79</ele>
        <time>2015-01-04T09:02:52Z</time>
      </trkpt>
      <trkpt lat="48.60875" lon="-3.40798">
        <ele>78</ele>
        <time>2015-01-04T09:02:53Z</time>
      </trkpt>
      <trkpt lat="48.60869" lon="-3.4081">
        <ele>78</ele>
        <time>2015-01-04T09:02:54Z</time>
      </trkpt>
      <trkpt lat="48.60862" lon="-3.40822">
        <ele>77</ele>
        <time>2015-01-04T09:02:55Z</time>
      </trkpt>
      <trkpt lat="48.60855" lon="-3.40834">
        <ele>77</ele>
        <time>2015-01-04T09:02:56Z</time>
      </trkpt>
      <trkpt lat="48.60847" lon="-3.40845">
        <ele>76</ele>
        <time>2015-01-04T09:02:57Z</time>
      </trkpt>
      <trkpt lat="48.60838" lon="-3.40854">
        <ele>76</ele>
        <time>2015-01-04T09:02:58Z</time>
      </trkpt>
      <trkpt lat="48.60829" lon="-3.40862">
        <ele>75</ele>
        <time>2015-01-04T09:02:59Z</time>
      </trkpt>
      <trkpt lat="48.60819" lon="-3.40868">
        <ele>75</ele>
        <time>2015-01-04T09:03:00Z</time>
      </trkpt>
      <trkpt lat="48.60809" lon="-3.40873">
        <ele>74</ele>
        <time>2015-01-04T09:03:01Z</time>
      </trkpt>
      <trkpt lat="48.60799" lon="-3.40877">
        <ele>74</ele>
        <time>2015-01-04T09:03:02Z</time>
      </trkpt>
      <trkpt lat="48.60789" lon="-3.40881">
        <ele>74</ele>
        <time>2015-01-04T09:03:03Z</time>
      </trkpt>
      <trkpt lat="48.60779" lon="-3.40883">
        <ele>73</ele>
        <time>2015-01-04T09:03:04Z</time>
      </trkpt>
      <trkpt lat="48.60769" lon="-3.40886">
        <ele>73</ele>
        <time>2015-01-04T09:03:05Z</time>
      </trkpt>
      <trkpt lat="48.6076" lon="-3.40888">
        <ele>73</ele>
        <time>2015-01-04T09:03:06Z</time>
      </trkpt>
      <trkpt lat="48.6075" lon="-3.40891">
        <ele>73</ele>
        <time>2015-01-04T09:03:07Z</time>
      </trkpt>
      <trkpt lat="48.60741" lon="-3.40895">
        <ele>72</ele>
        <time>2015-01-04T09:03:08Z</time>
      </trkpt>
      <trkpt lat="48.60733" lon="-3.409">
        <ele>72</ele>
        <time>2015-01-04T09:03:09Z</time>
      </trkpt>
      <trkpt lat="48.60725" lon="-3.40907">
        <ele>72</ele>
        <time>2015-01-04T09:03:10Z</time>
      </trkpt>
      <trkpt lat="48.60717" lon="-3.40915">
        <ele>72</ele>
        <time>2015-01-04T09:03:11Z</time>
      </trkpt>
      <trkpt lat="48.60711" lon="-3.40925">
        <ele>72</ele>
        <time>2015-01-04T09:03:12Z</time>
      </trkpt>
      <trkpt lat="48.60706" lon="-3.40936">
        <ele>72</ele>
        <time>2015-01-04T09:03:13Z</time>
      </trkpt>
      <trkpt lat="48.60702" lon="-3.40948">
        <ele>72</ele>
        <time>2015-01-04T09:03:14Z</time>
      </trkpt>
      <trkpt lat="48.60698" lon="-3.40959">
        <ele>72</ele>
        <time>2015-01-04T09:03:15Z</time>
      </trkpt>
      <trkpt lat="48.60695" lon="-3.4097">
        <ele>72</ele>
        <time>2015-01-04T09:03:16Z</time>
      </trkpt>
      <trkpt lat="48.60692" lon="-3.40982">
        <ele>72</ele>
        <time>2015-01-04T09:03:17Z</time>
      </trkpt>
      <trkpt lat="48.60689" lon="-3.40994">
        <ele>72</ele>
        <time>2015-01-04T09:03:18Z</time>
      </trkpt>
      <trkpt lat="48.60686" lon="-3.41005">
        <ele>72</ele>
        <time>2015-01-04T09:03:19Z</time>
      </trkpt>
      <trkpt lat="48.60684" lon="-3.41016">
        <ele>72</ele>
        <time>2015-01-04T09:03:20Z</time>
      </trkpt>
      <trkpt lat="48.60681" lon="-3.41028">
        <ele>72</ele>
        <time>2015-01-04T09:03:21Z</time>
      </trkpt>
      <trkpt lat="48.60678" lon="-3.41039">
        <ele>72</ele>
        <time>2015-01-04T09:03:22Z</time>
      </trkpt>
      <trkpt lat="48.60675" lon="-3.41051">
        <ele>72</ele>
        <time>2015-01-04T09:03:23Z</time>
      </trkpt>
      <trkpt lat="48.60672" lon="-3.41062">
        <ele>72</ele>
        <time>2015-01-04T09:03:24Z</time>
      </trkpt>
      <trkpt lat="48.60669" lon="-3.41073">
        <ele>72</ele>
        <time>2015-01-04T09:03:25Z</time>
      </trkpt>
      <trkpt lat="48.60666" lon="-3.41085">
        <ele>72</ele>
        <time>2015-01-04T09:03:26Z</time>
      </trkpt>
      <trkpt lat="48.60663" lon="-3.41096">
        <ele>72</ele>
        <time>2015-01-04T09:03:27Z</time>
      </trkpt>
      <trkpt lat="48.6066" lon="-3.41107">
        <ele>72</ele>
        <time>2015-01-04T09:03:28Z</time>
      </trkpt>
      <trkpt lat="48.60657" lon="-3.41118">
        <ele>72</ele>
        <time>2015-01-04T09:03:29Z</time>
      </trkpt>
      <trkpt lat="48.60654" lon="-3.41129">
        <ele>72</ele>
        <time>2015-01-04T09:03:30Z</time>
      </trkpt>
      <trkpt lat="48.60652" lon="-3.41141">
        <ele>72</ele>
        <time>2015-01-04T09:03:31Z</time>
      </trkpt>
      <trkpt lat="48.60649" lon="-3.41152">
        <ele>72</ele>
        <time>2015-01-04T09:03:32Z</time>
      </trkpt>
      <trkpt lat="48.60646" lon="-3.41163">
        <ele>72</ele>
        <time>2015-01-04T09:03:33Z</time>
      </trkpt>
      <trkpt lat="48.60643" lon="-3.41174">
        <ele>72</ele>
        <time>2015-01-04T09:03:34Z</time>
      </trkpt>
      <trkpt lat="48.6064" lon="-3.41185">
        <ele>72</ele>
        <time>2015-01-04T09:03:35Z</time>
      </trkpt>
      <trkpt lat="48.60638" lon="-3.41196">
        <ele>72</ele>
        <time>2015-01-04T09:03:36Z</time>
      </trkpt>
      <trkpt lat="48.60635" lon="-3.41207">
        <ele>72</ele>
        <time>2015-01-04T09:03:37Z</time>
      </trkpt>
      <trkpt lat="48.60632" lon="-3.41217">
        <ele>72</ele>
        <time>2015-01-04T09:03:38Z</time>
      </trkpt>
      <trkpt lat="48.6063" lon="-3.41228">
        <ele>72</ele>
        <time>2015-01-04T09:03:39Z</time>
      </trkpt>
      <trkpt lat="48.60627" lon="-3.41239">
        <ele>72</ele>
        <time>2015-01-04T09:03:40Z</time>
      </trkpt>
      <trkpt lat="48.60624" lon="-3.41249">
        <ele>72</ele>
        <time>2015-01-04T09:03:41Z</time>
      </trkpt>
      <trkpt lat="48.60621" lon="-3.41259">
        <ele>72</ele>
        <time>2015-01-04T09:03:42Z</time>
      </trkpt>
      <trkpt lat="48.60617" lon="-3.41269">
        <ele>72</ele>
        <time>2015-01-04T09:03:43Z</time>
      </trkpt>
      <trkpt lat="48.60612" lon="-3.41278">
        <ele>72</ele>
        <time>2015-01-04T09:03:44Z</time>
      </trkpt>
      <trkpt lat="48.60607" lon="-3.41286">
        <ele>72</ele>
        <time>2015-01-04T09:03:45Z</time>
      </trkpt>
      <trkpt lat="48.60601" lon="-3.41294">
        <ele>72</ele>
        <time>2015-01-04T09:03:46Z</time>
      </trkpt>
      <trkpt lat="48.60595" lon="-3.41301">
        <ele>72</ele>
        <time>2015-01-04T09:03:47Z</time>
      </trkpt>
      <trkpt lat="48.60589" lon="-3.41307">
        <ele>72</ele>
        <time>2015-01-04T09:03:48Z</time>
      </trkpt>
      <trkpt lat="48.60582" lon="-3.41312">
        <ele>72</ele>
        <time>2015-01-04T09:03:49Z</time>
      </trkpt>
      <trkpt lat="48.60576" lon="-3.41317">
        <ele>72</ele>
        <time>2015-01-04T09:03:50Z</time>
      </trkpt>
      <trkpt lat="48.60569" lon="-3.41321">
        <ele>72</ele>
        <time>2015-01-04T09:03:51Z</time>
      </trkpt>
      <trkpt lat="48.60563" lon="-3.41327">
        <ele>72</ele>
        <time>2015-01-04T09:03:52Z</time>
      </trkpt>
      <trkpt lat="48.60558" lon="-3.41333">
        <ele>72</ele>
        <time>2015-01-04T09:03:53Z</time>
      </trkpt>
      <trkpt lat="48.60553" lon="-3.41341">
        <ele>72</ele>
        <time>2015-01-04T09:03:54Z</time>
      </trkpt>
      <trkpt lat="48.60548" lon="-3.41351">
        <ele>72</ele>
        <time>2015-01-04T09:03:55Z</time>
      </trkpt>
      <trkpt lat="48.60545" lon="-3.41361">
        <ele>72</ele>
        <time>2015-01-04T09:03:56Z</time>
      </trkpt>
      <trkpt lat="48.60543" lon="-3.41372">
        <ele>72</ele>
        <time>2015-01-04T09:03:57Z</time>
      </trkpt>
      <trkpt lat="48.60542" lon="-3.41384">
        <ele>72</ele>
        <time>2015-01-04T09:03:58Z</time>
      </trkpt>
      <trkpt lat="48.60541" lon="-3.41395">
        <ele>72</ele>
        <time>2015-01-04T09:03:59Z</time>
      </trkpt>
      <trkpt lat="48.6054" lon="-3.41407">
        <ele>72</ele>
        <time>2015-01-04T09:04:00Z</time>
      </trkpt>
      <trkpt lat="48.60539" lon="-3.41419">
        <ele>72</ele>
        <time>2015-01-04T09:04:01Z</time>
      </trkpt>
      <trkpt lat="48.60538" lon="-3.4143">
        <ele>72</ele>
        <time>2015-01-04T09:04:02Z</time>
      </trkpt>
      <trkpt lat="48.60537" lon="-3.41441">
        <ele>72</ele>
        <time>2015-01-04T09:04:03Z</time>
      </trkpt>
      <trkpt lat="48.60536" lon="-3.41451">
        <ele>72</ele>
        <time>2015-01-04T09:04:04Z</time>
      </trkpt>
      <trkpt lat="48.60535" lon="-3.41462">
        <ele>72</ele>
        <time>2015-01-04T09:04:05Z</time>
      </trkpt>
      <trkpt lat="48.60535" lon="-3.41472">
        <ele>72</ele>
        <time>2015-01-04T09:04:06Z</time>
      </trkpt>
      <trkpt lat="48.60534" lon="-3.41482">
        <ele>72</ele>
        <time>2015-01-04T09:04:07Z</time>
      </trkpt>
      <trkpt lat="48.60533" lon="-3.41492">
        <ele>72</ele>
        <time>2015-01-04T09:04:08Z</time>
      </trkpt>
      <trkpt lat="48.60531" lon="-3.41501">
        <ele>72</ele>
        <time>2015-01-04T09:04:09Z</time>
      </trkpt>
      <trkpt lat="48.60531" lon="-3.41509">
        <ele>72</ele>
        <time>2015-01-04T09:04:10Z</time>
      </trkpt>
      <trkpt lat="48.6053" lon="-3.4153">
        <ele>72</ele>
        <time>2015-01-04T09:04:13Z</time>
      </trkpt>
      <trkpt lat="48.6053" lon="-3.41538">
        <ele>72</ele>
        <time>2015-01-04T09:04:14Z</time>
      </trkpt>
      <trkpt lat="48.6053" lon="-3.41545">
        <ele>72</ele>
        <time>2015-01-04T09:04:15Z</time>
      </trkpt>
      <trkpt lat="48.60529" lon="-3.41552">
        <ele>72</ele>
        <time>2015-01-04T09:04:16Z</time>
      </trkpt>
      <trkpt lat="48.60529" lon="-3.4156">
        <ele>72</ele>
        <time>2015-01-04T09:04:17Z</time>
      </trkpt>
      <trkpt lat="48.60528" lon="-3.41568">
        <ele>72</ele>
        <time>2015-01-04T09:04:18Z</time>
      </trkpt>
      <trkpt lat="48.60528" lon="-3.41576">
        <ele>72</ele>
        <time>2015-01-04T09:04:19Z</time>
      </trkpt>
      <trkpt lat="48.60527" lon="-3.41584">
        <ele>72</ele>
        <time>2015-01-04T09:04:20Z</time>
      </trkpt>
      <trkpt lat="48.60528" lon="-3.41592">
        <ele>72</ele>
        <time>2015-01-04T09:04:21Z</time>
      </trkpt>
      <trkpt lat="48.60529" lon="-3.41601">
        <ele>72</ele>
        <time>2015-01-04T09:04:22Z</time>
      </trkpt>
      <trkpt lat="48.6053" lon="-3.4161">
        <ele>72</ele>
        <time>2015-01-04T09:04:23Z</time>
      </trkpt>
      <trkpt lat="48.60532" lon="-3.41619">
        <ele>72</ele>
        <time>2015-01-04T09:04:24Z</time>
      </trkpt>
      <trkpt lat="48.60535" lon="-3.41628">
        <ele>72</ele>
        <time>2015-01-04T09:04:25Z</time>
      </trkpt>
      <trkpt lat="48.60538" lon="-3.41636">
        <ele>72</ele>
        <time>2015-01-04T09:04:26Z</time>
      </trkpt>
      <trkpt lat="48.60542" lon="-3.41644">
        <ele>72</ele>
        <time>2015-01-04T09:04:27Z</time>
      </trkpt>
      <trkpt lat="48.60545" lon="-3.41651">
        <ele>72</ele>
        <time>2015-01-04T09:04:28Z</time>
      </trkpt>
      <trkpt lat="48.60549" lon="-3.41658">
        <ele>72</ele>
        <time>2015-01-04T09:04:29Z</time>
      </trkpt>
      <trkpt lat="48.60553" lon="-3.41665">
        <ele>72</ele>
        <time>2015-01-04T09:04:30Z</time>
      </trkpt>
      <trkpt lat="48.60558" lon="-3.41672">
        <ele>72</ele>
        <time>2015-01-04T09:04:31Z</time>
      </trkpt>
      <trkpt lat="48.60562" lon="-3.41679">
        <ele>72</ele>
        <time>2015-01-04T09:04:32Z</time>
      </trkpt>
      <trkpt lat="48.60566" lon="-3.41685">
        <ele>72</ele>
        <time>2015-01-04T09:04:33Z</time>
      </trkpt>
      <trkpt lat="48.60571" lon="-3.41691">
        <ele>72</ele>
        <time>2015-01-04T09:04:34Z</time>
      </trkpt>
      <trkpt lat="48.60575" lon="-3.41697">
        <ele>72</ele>
        <time>2015-01-04T09:04:35Z</time>
      </trkpt>
      <trkpt lat="48.6058" lon="-3.41703">
        <ele>72</ele>
        <time>2015-01-04T09:04:36Z</time>
      </trkpt>
      <trkpt lat="48.60584" lon="-3.4171">
        <ele>72</ele>
        <time>2015-01-04T09:04:37Z</time>
      </trkpt>
      <trkpt lat="48.60588" lon="-3.41716">
        <ele>73</ele>
        <time>2015-01-04T09:04:38Z</time>
      </trkpt>
      <trkpt lat="48.60592" lon="-3.41722">
        <ele>73</ele>
        <time>2015-01-04T09:04:39Z</time>
      </trkpt>
      <trkpt lat="48.60595" lon="-3.41729">
        <ele>73</ele>
        <time>2015-01-04T09:04:40Z</time>
      </trkpt>
      <trkpt lat="48.60599" lon="-3.41736">
        <ele>73</ele>
        <time>2015-01-04T09:04:41Z</time>
      </trkpt>
      <trkpt lat="48.60603" lon="-3.41743">
        <ele>73</ele>
        <time>2015-01-04T09:04:42Z</time>
      </trkpt>
      <trkpt lat="48.60607" lon="-3.4175">
        <ele>73</ele>
        <time>2015-01-04T09:04:43Z</time>
      </trkpt>
      <trkpt lat="48.6061" lon="-3.41756">
        <ele>74</ele>
        <time>2015-01-04T09:04:44Z</time>
      </trkpt>
      <trkpt lat="48.60614" lon="-3.41763">
        <ele>74</ele>
        <time>2015-01-04T09:04:45Z</time>
      </trkpt>
      <trkpt lat="48.60617" lon="-3.4177">
        <ele>74</ele>
        <time>2015-01-04T09:04:46Z</time>
      </trkpt>
      <trkpt lat="48.6062" lon="-3.41777">
        <ele>74</ele>
        <time>2015-01-04T09:04:47Z</time>
      </trkpt>
      <trkpt lat="48.60623" lon="-3.41784">
        <ele>74</ele>
        <time>2015-01-04T09:04:48Z</time>
      </trkpt>
      <trkpt lat="48.60626" lon="-3.41791">
        <ele>74</ele>
        <time>2015-01-04T09:04:49Z</time>
      </trkpt>
      <trkpt lat="48.60629" lon="-3.41798">
        <ele>74</ele>
        <time>2015-01-04T09:04:50Z</time>
      </trkpt>
      <trkpt lat="48.60632" lon="-3.41805">
        <ele>74</ele>
        <time>2015-01-04T09:04:51Z</time>
      </trkpt>
      <trkpt lat="48.60634" lon="-3.41812">
        <ele>74</ele>
        <time>2015-01-04T09:04:52Z</time>
      </trkpt>
      <trkpt lat="48.60637" lon="-3.41819">
        <ele>74</ele>
        <time>2015-01-04T09:04:53Z</time>
      </trkpt>
      <trkpt lat="48.60639" lon="-3.41827">
        <ele>74</ele>
        <time>2015-01-04T09:04:54Z</time>
      </trkpt>
      <trkpt lat="48.60641" lon="-3.41834">
        <ele>74</ele>
        <time>2015-01-04T09:04:55Z</time>
      </trkpt>
      <trkpt lat="48.60643" lon="-3.41842">
        <ele>75</ele>
        <time>2015-01-04T09:04:56Z</time>
      </trkpt>
      <trkpt lat="48.60645" lon="-3.4185">
        <ele>75</ele>
        <time>2015-01-04T09:04:57Z</time>
      </trkpt>
      <trkpt lat="48.60647" lon="-3.41858">
        <ele>75</ele>
        <time>2015-01-04T09:04:58Z</time>
      </trkpt>
      <trkpt lat="48.60649" lon="-3.41865">
        <ele>75</ele>
        <time>2015-01-04T09:04:59Z</time>
      </trkpt>
      <trkpt lat="48.60651" lon="-3.41873">
        <ele>76</ele>
        <time>2015-01-04T09:05:00Z</time>
      </trkpt>
      <trkpt lat="48.60653" lon="-3.4188">
        <ele>76</ele>
        <time>2015-01-04T09:05:01Z</time>
      </trkpt>
      <trkpt lat="48.60654" lon="-3.41888">
        <ele>76</ele>
        <time>2015-01-04T09:05:02Z</time>
      </trkpt>
      <trkpt lat="48.60656" lon="-3.41896">
        <ele>76</ele>
        <time>2015-01-04T09:05:03Z</time>
      </trkpt>
      <trkpt lat="48.60657" lon="-3.41904">
        <ele>76</ele>
        <time>2015-01-04T09:05:04Z</time>
      </trkpt>
      <trkpt lat="48.60659" lon="-3.41912">
        <ele>76</ele>
        <time>2015-01-04T09:05:05Z</time>
      </trkpt>
      <trkpt lat="48.6066" lon="-3.4192">
        <ele>76</ele>
        <time>2015-01-04T09:05:06Z</time>
      </trkpt>
      <trkpt lat="48.60661" lon="-3.41929">
        <ele>76</ele>
        <time>2015-01-04T09:05:07Z</time>
      </trkpt>
      <trkpt lat="48.60663" lon="-3.41937">
        <ele>76</ele>
        <time>2015-01-04T09:05:08Z</time>
      </trkpt>
      <trkpt lat="48.60664" lon="-3.41945">
        <ele>76</ele>
        <time>2015-01-04T09:05:09Z</time>
      </trkpt>
      <trkpt lat="48.60665" lon="-3.41954">
        <ele>76</ele>
        <time>2015-01-04T09:05:10Z</time>
      </trkpt>
      <trkpt lat="48.60667" lon="-3.41962">
        <ele>76</ele>
        <time>2015-01-04T09:05:11Z</time>
      </trkpt>
      <trkpt lat="48.60668" lon="-3.4197">
        <ele>77</ele>
        <time>2015-01-04T09:05:12Z</time>
      </trkpt>
      <trkpt lat="48.60669" lon="-3.41979">
        <ele>77</ele>
        <time>2015-01-04T09:05:13Z</time>
      </trkpt>
      <trkpt lat="48.60671" lon="-3.41987">
        <ele>77</ele>
        <time>2015-01-04T09:05:14Z</time>
      </trkpt>
      <trkpt lat="48.60673" lon="-3.41996">
        <ele>77</ele>
        <time>2015-01-04T09:05:15Z</time>
      </trkpt>
      <trkpt lat="48.60674" lon="-3.42004">
        <ele>77</ele>
        <time>2015-01-04T09:05:16Z</time>
      </trkpt>
      <trkpt lat="48.60676" lon="-3.42012">
        <ele>77</ele>
        <time>2015-01-04T09:05:17Z</time>
      </trkpt>
      <trkpt lat="48.60677" lon="-3.4202">
        <ele>77</ele>
        <time>2015-01-04T09:05:18Z</time>
      </trkpt>
      <trkpt lat="48.60678" lon="-3.42028">
        <ele>77</ele>
        <time>2015-01-04T09:05:19Z</time>
      </trkpt>
      <trkpt lat="48.6068" lon="-3.42036">
        <ele>77</ele>
        <time>2015-01-04T09:05:20Z</time>
      </trkpt>
      <trkpt lat="48.60681" lon="-3.42044">
        <ele>77</ele>
        <time>2015-01-04T09:05:21Z</time>
      </trkpt>
      <trkpt lat="48.60683" lon="-3.42052">
        <ele>77</ele>
        <time>2015-01-04T09:05:22Z</time>
      </trkpt>
      <trkpt lat="48.60684" lon="-3.4206">
        <ele>77</ele>
        <time>2015-01-04T09:05:23Z</time>
      </trkpt>
      <trkpt lat="48.60685" lon="-3.42068">
        <ele>77</ele>
        <time>2015-01-04T09:05:24Z</time>
      </trkpt>
      <trkpt lat="48.60686" lon="-3.42077">
        <ele>77</ele>
        <time>2015-01-04T09:05:25Z</time>
      </trkpt>
      <trkpt lat="48.60688" lon="-3.42086">
        <ele>78</ele>
        <time>2015-01-04T09:05:26Z</time>
      </trkpt>
      <trkpt lat="48.60689" lon="-3.42094">
        <ele>78</ele>
        <time>2015-01-04T09:05:27Z</time>
      </trkpt>
      <trkpt lat="48.6069" lon="-3.42103">
        <ele>78</ele>
        <time>2015-01-04T09:05:28Z</time>
      </trkpt>
      <trkpt lat="48.60691" lon="-3.42111">
        <ele>79</ele>
        <time>2015-01-04T09:05:29Z</time>
      </trkpt>
      <trkpt lat="48.60692" lon="-3.42119">
        <ele>79</ele>
        <time>2015-01-04T09:05:30Z</time>
      </trkpt>
      <trkpt lat="48.60693" lon="-3.42127">
        <ele>79</ele>
        <time>2015-01-04T09:05:31Z</time>
      </trkpt>
      <trkpt lat="48.60693" lon="-3.42135">
        <ele>80</ele>
        <time>2015-01-04T09:05:32Z</time>
      </trkpt>
      <trkpt lat="48.60695" lon="-3.42143">
        <ele>80</ele>
        <time>2015-01-04T09:05:33Z</time>
      </trkpt>
      <trkpt lat="48.60696" lon="-3.4215">
        <ele>80</ele>
        <time>2015-01-04T09:05:34Z</time>
      </trkpt>
      <trkpt lat="48.60697" lon="-3.42159">
        <ele>80</ele>
        <time>2015-01-04T09:05:35Z</time>
      </trkpt>
      <trkpt lat="48.60698" lon="-3.42167">
        <ele>81</ele>
        <time>2015-01-04T09:05:36Z</time>
      </trkpt>
      <trkpt lat="48.60699" lon="-3.42175">
        <ele>81</ele>
        <time>2015-01-04T09:05:37Z</time>
      </trkpt>
      <trkpt lat="48.607" lon="-3.42183">
        <ele>81</ele>
        <time>2015-01-04T09:05:38Z</time>
      </trkpt>
      <trkpt lat="48.60701" lon="-3.42192">
        <ele>81</ele>
        <time>2015-01-04T09:05:39Z</time>
      </trkpt>
      <trkpt lat="48.60701" lon="-3.42201">
        <ele>81</ele>
        <time>2015-01-04T09:05:40Z</time>
      </trkpt>
      <trkpt lat="48.60702" lon="-3.42209">
        <ele>81</ele>
        <time>2015-01-04T09:05:41Z</time>
      </trkpt>
      <trkpt lat="48.60702" lon="-3.42218">
        <ele>81</ele>
        <time>2015-01-04T09:05:42Z</time>
      </trkpt>
      <trkpt lat="48.60703" lon="-3.42226">
        <ele>82</ele>
        <time>2015-01-04T09:05:43Z</time>
      </trkpt>
      <trkpt lat="48.60703" lon="-3.42235">
        <ele>82</ele>
        <time>2015-01-04T09:05:44Z</time>
      </trkpt>
      <trkpt lat="48.60704" lon="-3.42243">
        <ele>82</ele>
        <time>2015-01-04T09:05:45Z</time>
      </trkpt>
      <trkpt lat="48.60705" lon="-3.42251">
        <ele>82</ele>
        <time>2015-01-04T09:05:46Z</time>
      </trkpt>
      <trkpt lat="48.60705" lon="-3.4226">
        <ele>82</ele>
        <time>2015-01-04T09:05:47Z</time>
      </trkpt>
      <trkpt lat="48.60706" lon="-3.42268">
        <ele>82</ele>
        <time>2015-01-04T09:05:48Z</time>
      </trkpt>
      <trkpt lat="48.60707" lon="-3.42277">
        <ele>82</ele>
        <time>2015-01-04T09:05:49Z</time>
      </trkpt>
      <trkpt lat="48.60707" lon="-3.42285">
        <ele>82</ele>
        <time>2015-01-04T09:05:50Z</time>
      </trkpt>
      <trkpt lat="48.60708" lon="-3.42293">
        <ele>82</ele>
        <time>2015-01-04T09:05:51Z</time>
      </trkpt>
      <trkpt lat="48.60708" lon="-3.42301">
        <ele>82</ele>
        <time>2015-01-04T09:05:52Z</time>
      </trkpt>
      <trkpt lat="48.60709" lon="-3.42309">
        <ele>82</ele>
        <time>2015-01-04T09:05:53Z</time>
      </trkpt>
      <trkpt lat="48.6071" lon="-3.42317">
        <ele>82</ele>
        <time>2015-01-04T09:05:54Z</time>
      </trkpt>
      <trkpt lat="48.60711" lon="-3.42324">
        <ele>82</ele>
        <time>2015-01-04T09:05:55Z</time>
      </trkpt>
      <trkpt lat="48.60712" lon="-3.42332">
        <ele>82</ele>
        <time>2015-01-04T09:05:56Z</time>
      </trkpt>
      <trkpt lat="48.60712" lon="-3.42339">
        <ele>82</ele>
        <time>2015-01-04T09:05:57Z</time>
      </trkpt>
      <trkpt lat="48.60712" lon="-3.42355">
        <ele>82</ele>
        <time>2015-01-04T09:05:59Z</time>
      </trkpt>
      <trkpt lat="48.60712" lon="-3.42363">
        <ele>82</ele>
        <time>2015-01-04T09:06:00Z</time>
      </trkpt>
      <trkpt lat="48.60712" lon="-3.4237">
        <ele>82</ele>
        <time>2015-01-04T09:06:01Z</time>
      </trkpt>
      <trkpt lat="48.60711" lon="-3.42387">
        <ele>83</ele>
        <time>2015-01-04T09:06:03Z</time>
      </trkpt>
      <trkpt lat="48.60711" lon="-3.42395">
        <ele>83</ele>
        <time>2015-01-04T09:06:04Z</time>
      </trkpt>
      <trkpt lat="48.6071" lon="-3.42404">
        <ele>83</ele>
        <time>2015-01-04T09:06:05Z</time>
      </trkpt>
      <trkpt lat="48.60709" lon="-3.42412">
        <ele>84</ele>
        <time>2015-01-04T09:06:06Z</time>
      </trkpt>
      <trkpt lat="48.60708" lon="-3.42421">
        <ele>84</ele>
        <time>2015-01-04T09:06:07Z</time>
      </trkpt>
      <trkpt lat="48.60707" lon="-3.42429">
        <ele>84</ele>
        <time>2015-01-04T09:06:08Z</time>
      </trkpt>
      <trkpt lat="48.60706" lon="-3.42437">
        <ele>85</ele>
        <time>2015-01-04T09:06:09Z</time>
      </trkpt>
      <trkpt lat="48.60705" lon="-3.42445">
        <ele>85</ele>
        <time>2015-01-04T09:06:10Z</time>
      </trkpt>
      <trkpt lat="48.60704" lon="-3.42453">
        <ele>86</ele>
        <time>2015-01-04T09:06:11Z</time>
      </trkpt>
      <trkpt lat="48.60703" lon="-3.42461">
        <ele>86</ele>
        <time>2015-01-04T09:06:12Z</time>
      </trkpt>
      <trkpt lat="48.60702" lon="-3.42469">
        <ele>86</ele>
        <time>2015-01-04T09:06:13Z</time>
      </trkpt>
      <trkpt lat="48.60701" lon="-3.42477">
        <ele>86</ele>
        <time>2015-01-04T09:06:14Z</time>
      </trkpt>
      <trkpt lat="48.607" lon="-3.42485">
        <ele>86</ele>
        <time>2015-01-04T09:06:15Z</time>
      </trkpt>
      <trkpt lat="48.60699" lon="-3.42493">
        <ele>86</ele>
        <time>2015-01-04T09:06:16Z</time>
      </trkpt>
      <trkpt lat="48.60698" lon="-3.42501">
        <ele>87</ele>
        <time>2015-01-04T09:06:17Z</time>
      </trkpt>
      <trkpt lat="48.60697" lon="-3.42509">
        <ele>87</ele>
        <time>2015-01-04T09:06:18Z</time>
      </trkpt>
      <trkpt lat="48.60696" lon="-3.42517">
        <ele>87</ele>
        <time>2015-01-04T09:06:19Z</time>
      </trkpt>
      <trkpt lat="48.60695" lon="-3.42525">
        <ele>87</ele>
        <time>2015-01-04T09:06:20Z</time>
      </trkpt>
      <trkpt lat="48.60693" lon="-3.42532">
        <ele>87</ele>
        <time>2015-01-04T09:06:21Z</time>
      </trkpt>
      <trkpt lat="48.60692" lon="-3.42541">
        <ele>87</ele>
        <time>2015-01-04T09:06:22Z</time>
      </trkpt>
      <trkpt lat="48.60691" lon="-3.42549">
        <ele>87</ele>
        <time>2015-01-04T09:06:23Z</time>
      </trkpt>
      <trkpt lat="48.6069" lon="-3.42557">
        <ele>87</ele>
        <time>2015-01-04T09:06:24Z</time>
      </trkpt>
      <trkpt lat="48.60689" lon="-3.42565">
        <ele>87</ele>
        <time>2015-01-04T09:06:25Z</time>
      </trkpt>
      <trkpt lat="48.60688" lon="-3.42573">
        <ele>87</ele>
        <time>2015-01-04T09:06:26Z</time>
      </trkpt>
      <trkpt lat="48.60686" lon="-3.4258">
        <ele>87</ele>
        <time>2015-01-04T09:06:27Z</time>
      </trkpt>
      <trkpt lat="48.60685" lon="-3.42588">
        <ele>87</ele>
        <time>2015-01-04T09:06:28Z</time>
      </trkpt>
      <trkpt lat="48.60684" lon="-3.42596">
        <ele>87</ele>
        <time>2015-01-04T09:06:29Z</time>
      </trkpt>
      <trkpt lat="48.60683" lon="-3.42603">
        <ele>87</ele>
        <time>2015-01-04T09:06:30Z</time>
      </trkpt>
      <trkpt lat="48.60682" lon="-3.4261">
        <ele>87</ele>
        <time>2015-01-04T09:06:31Z</time>
      </trkpt>
      <trkpt lat="48.60681" lon="-3.42618">
        <ele>87</ele>
        <time>2015-01-04T09:06:32Z</time>
      </trkpt>
      <trkpt lat="48.6068" lon="-3.42625">
        <ele>88</ele>
        <time>2015-01-04T09:06:33Z</time>
      </trkpt>
      <trkpt lat="48.60679" lon="-3.42632">
        <ele>88</ele>
        <time>2015-01-04T09:06:34Z</time>
      </trkpt>
      <trkpt lat="48.60678" lon="-3.42639">
        <ele>88</ele>
        <time>2015-01-04T09:06:35Z</time>
      </trkpt>
      <trkpt lat="48.60677" lon="-3.42647">
        <ele>89</ele>
        <time>2015-01-04T09:06:36Z</time>
      </trkpt>
      <trkpt lat="48.60677" lon="-3.42654">
        <ele>89</ele>
        <time>2015-01-04T09:06:37Z</time>
      </trkpt>
      <trkpt lat="48.60676" lon="-3.42661">
        <ele>89</ele>
        <time>2015-01-04T09:06:38Z</time>
      </trkpt>
      <trkpt lat="48.60675" lon="-3.42668">
        <ele>90</ele>
        <time>2015-01-04T09:06:39Z</time>
      </trkpt>
      <trkpt lat="48.60673" lon="-3.42675">
        <ele>90</ele>
        <time>2015-01-04T09:06:40Z</time>
      </trkpt>
      <trkpt lat="48.60672" lon="-3.42683">
        <ele>90</ele>
        <time>2015-01-04T09:06:41Z</time>
      </trkpt>
      <trkpt lat="48.60671" lon="-3.4269">
        <ele>90</ele>
        <time>2015-01-04T09:06:42Z</time>
      </trkpt>
      <trkpt lat="48.60669" lon="-3.42697">
        <ele>91</ele>
        <time>2015-01-04T09:06:43Z</time>
      </trkpt>
      <trkpt lat="48.60667" lon="-3.42704">
        <ele>91</ele>
        <time>2015-01-04T09:06:44Z</time>
      </trkpt>
      <trkpt lat="48.60666" lon="-3.4271">
        <ele>91</ele>
        <time>2015-01-04T09:06:45Z</time>
      </trkpt>
      <trkpt lat="48.60664" lon="-3.42716">
        <ele>92</ele>
        <time>2015-01-04T09:06:46Z</time>
      </trkpt>
      <trkpt lat="48.60661" lon="-3.42722">
        <ele>92</ele>
        <time>2015-01-04T09:06:47Z</time>
      </trkpt>
      <trkpt lat="48.60659" lon="-3.42727">
        <ele>92</ele>
        <time>2015-01-04T09:06:48Z</time>
      </trkpt>
      <trkpt lat="48.60656" lon="-3.42733">
        <ele>92</ele>
        <time>2015-01-04T09:06:49Z</time>
      </trkpt>
      <trkpt lat="48.60653" lon="-3.42738">
        <ele>93</ele>
        <time>2015-01-04T09:06:50Z</time>
      </trkpt>
      <trkpt lat="48.60649" lon="-3.42743">
        <ele>93</ele>
        <time>2015-01-04T09:06:51Z</time>
      </trkpt>
      <trkpt lat="48.60646" lon="-3.42748">
        <ele>93</ele>
        <time>2015-01-04T09:06:52Z</time>
      </trkpt>
      <trkpt lat="48.60643" lon="-3.42753">
        <ele>93</ele>
        <time>2015-01-04T09:06:53Z</time>
      </trkpt>
      <trkpt lat="48.60639" lon="-3.42758">
        <ele>93</ele>
        <time>2015-01-04T09:06:54Z</time>
      </trkpt>
      <trkpt lat="48.60635" lon="-3.42764">
        <ele>94</ele>
        <time>2015-01-04T09:06:55Z</time>
      </trkpt>
      <trkpt lat="48.60632" lon="-3.4277">
        <ele>94</ele>
        <time>2015-01-04T09:06:56Z</time>
      </trkpt>
      <trkpt lat="48.60628" lon="-3.42776">
        <ele>94</ele>
        <time>2015-01-04T09:06:57Z</time>
      </trkpt>
      <trkpt lat="48.60624" lon="-3.42782">
        <ele>94</ele>
        <time>2015-01-04T09:06:58Z</time>
      </trkpt>
      <trkpt lat="48.60621" lon="-3.42788">
        <ele>94</ele>
        <time>2015-01-04T09:06:59Z</time>
      </trkpt>
      <trkpt lat="48.60617" lon="-3.42794">
        <ele>94</ele>
        <time>2015-01-04T09:07:00Z</time>
      </trkpt>
      <trkpt lat="48.60613" lon="-3.42801">
        <ele>94</ele>
        <time>2015-01-04T09:07:01Z</time>
      </trkpt>
      <trkpt lat="48.60609" lon="-3.42808">
        <ele>94</ele>
        <time>2015-01-04T09:07:02Z</time>
      </trkpt>
      <trkpt lat="48.60606" lon="-3.42814">
        <ele>94</ele>
        <time>2015-01-04T09:07:03Z</time>
      </trkpt>
      <trkpt lat="48.60602" lon="-3.4282">
        <ele>94</ele>
        <time>2015-01-04T09:07:04Z</time>
      </trkpt>
      <trkpt lat="48.60598" lon="-3.42826">
        <ele>94</ele>
        <time>2015-01-04T09:07:05Z</time>
      </trkpt>
      <trkpt lat="48.60594" lon="-3.42832">
        <ele>94</ele>
        <time>2015-01-04T09:07:06Z</time>
      </trkpt>
      <trkpt lat="48.60591" lon="-3.42839">
        <ele>94</ele>
        <time>2015-01-04T09:07:07Z</time>
      </trkpt>
      <trkpt lat="48.60587" lon="-3.42844">
        <ele>94</ele>
        <time>2015-01-04T09:07:08Z</time>
      </trkpt>
      <trkpt lat="48.60584" lon="-3.4285">
        <ele>95</ele>
        <time>2015-01-04T09:07:09Z</time>
      </trkpt>
      <trkpt lat="48.6058" lon="-3.42857">
        <ele>95</ele>
        <time>2015-01-04T09:07:10Z</time>
      </trkpt>
      <trkpt lat="48.60577" lon="-3.42863">
        <ele>95</ele>
        <time>2015-01-04T09:07:11Z</time>
      </trkpt>
      <trkpt lat="48.60574" lon="-3.42869">
        <ele>95</ele>
        <time>2015-01-04T09:07:12Z</time>
      </trkpt>
      <trkpt lat="48.60572" lon="-3.42875">
        <ele>96</ele>
        <time>2015-01-04T09:07:13Z</time>
      </trkpt>
      <trkpt lat="48.60569" lon="-3.42882">
        <ele>96</ele>
        <time>2015-01-04T09:07:14Z</time>
      </trkpt>
      <trkpt lat="48.60566" lon="-3.42888">
        <ele>96</ele>
        <time>2015-01-04T09:07:15Z</time>
      </trkpt>
      <trkpt lat="48.60564" lon="-3.42895">
        <ele>96</ele>
        <time>2015-01-04T09:07:16Z</time>
      </trkpt>
      <trkpt lat="48.60562" lon="-3.42901">
        <ele>96</ele>
        <time>2015-01-04T09:07:17Z</time>
      </trkpt>
      <trkpt lat="48.6056" lon="-3.42908">
        <ele>97</ele>
        <time>2015-01-04T09:07:18Z</time>
      </trkpt>
      <trkpt lat="48.60558" lon="-3.42915">
        <ele>97</ele>
        <time>2015-01-04T09:07:19Z</time>
      </trkpt>
      <trkpt lat="48.60557" lon="-3.42922">
        <ele>97</ele>
        <time>2015-01-04T09:07:20Z</time>
      </trkpt>
      <trkpt lat="48.60556" lon="-3.42929">
        <ele>97</ele>
        <time>2015-01-04T09:07:21Z</time>
      </trkpt>
      <trkpt lat="48.60555" lon="-3.42936">
        <ele>98</ele>
        <time>2015-01-04T09:07:22Z</time>
      </trkpt>
      <trkpt lat="48.60554" lon="-3.42943">
        <ele>98</ele>
        <time>2015-01-04T09:07:23Z</time>
      </trkpt>
      <trkpt lat="48.60553" lon="-3.4295">
        <ele>98</ele>
        <time>2015-01-04T09:07:24Z</time>
      </trkpt>
      <trkpt lat="48.60553" lon="-3.42957">
        <ele>98</ele>
        <time>2015-01-04T09:07:25Z</time>
      </trkpt>
      <trkpt lat="48.60553" lon="-3.42964">
        <ele>99</ele>
        <time>2015-01-04T09:07:26Z</time>
      </trkpt>
      <trkpt lat="48.60552" lon="-3.4297">
        <ele>99</ele>
        <time>2015-01-04T09:07:27Z</time>
      </trkpt>
      <trkpt lat="48.60552" lon="-3.42977">
        <ele>99</ele>
        <time>2015-01-04T09:07:28Z</time>
      </trkpt>
      <trkpt lat="48.60552" lon="-3.4299">
        <ele>99</ele>
        <time>2015-01-04T09:07:30Z</time>
      </trkpt>
      <trkpt lat="48.60553" lon="-3.42997">
        <ele>99</ele>
        <time>2015-01-04T09:07:31Z</time>
      </trkpt>
      <trkpt lat="48.60553" lon="-3.43004">
        <ele>99</ele>
        <time>2015-01-04T09:07:32Z</time>
      </trkpt>
      <trkpt lat="48.60554" lon="-3.43011">
        <ele>99</ele>
        <time>2015-01-04T09:07:33Z</time>
      </trkpt>
      <trkpt lat="48.60555" lon="-3.43018">
        <ele>100</ele>
        <time>2015-01-04T09:07:34Z</time>
      </trkpt>
      <trkpt lat="48.60557" lon="-3.43025">
        <ele>100</ele>
        <time>2015-01-04T09:07:35Z</time>
      </trkpt>
      <trkpt lat="48.60559" lon="-3.43032">
        <ele>100</ele>
        <time>2015-01-04T09:07:36Z</time>
      </trkpt>
      <trkpt lat="48.60561" lon="-3.43038">
        <ele>100</ele>
        <time>2015-01-04T09:07:37Z</time>
      </trkpt>
      <trkpt lat="48.60564" lon="-3.43043">
        <ele>100</ele>
        <time>2015-01-04T09:07:38Z</time>
      </trkpt>
      <trkpt lat="48.60568" lon="-3.43048">
        <ele>101</ele>
        <time>2015-01-04T09:07:39Z</time>
      </trkpt>
      <trkpt lat="48.60572" lon="-3.43053">
        <ele>101</ele>
        <time>2015-01-04T09:07:40Z</time>
      </trkpt>
      <trkpt lat="48.60575" lon="-3.43056">
        <ele>101</ele>
        <time>2015-01-04T09:07:41Z</time>
      </trkpt>
      <trkpt lat="48.60579" lon="-3.4306">
        <ele>102</ele>
        <time>2015-01-04T09:07:42Z</time>
      </trkpt>
      <trkpt lat="48.60583" lon="-3.43063">
        <ele>102</ele>
        <time>2015-01-04T09:07:43Z</time>
      </trkpt>
      <trkpt lat="48.60587" lon="-3.43065">
        <ele>102</ele>
        <time>2015-01-04T09:07:44Z</time>
      </trkpt>
      <trkpt lat="48.60592" lon="-3.43068">
        <ele>102</ele>
        <time>2015-01-04T09:07:45Z</time>
      </trkpt>
      <trkpt lat="48.60596" lon="-3.43071">
        <ele>103</ele>
        <time>2015-01-04T09:07:46Z</time>
      </trkpt>
      <trkpt lat="48.606" lon="-3.43074">
        <ele>103</ele>
        <time>2015-01-04T09:07:47Z</time>
      </trkpt>
      <trkpt lat="48.60604" lon="-3.43077">
        <ele>103</ele>
        <time>2015-01-04T09:07:48Z</time>
      </trkpt>
      <trkpt lat="48.60608" lon="-3.4308">
        <ele>104</ele>
        <time>2015-01-04T09:07:49Z</time>
      </trkpt>
      <trkpt lat="48.60611" lon="-3.43084">
        <ele>104</ele>
        <time>2015-01-04T09:07:50Z</time>
      </trkpt>
      <trkpt lat="48.60615" lon="-3.43088">
        <ele>104</ele>
        <time>2015-01-04T09:07:51Z</time>
      </trkpt>
      <trkpt lat="48.60619" lon="-3.43092">
        <ele>104</ele>
        <time>2015-01-04T09:07:52Z</time>
      </trkpt>
      <trkpt lat="48.60622" lon="-3.43096">
        <ele>105</ele>
        <time>2015-01-04T09:07:53Z</time>
      </trkpt>
      <trkpt lat="48.60625" lon="-3.43101">
        <ele>105</ele>
        <time>2015-01-04T09:07:54Z</time>
      </trkpt>
      <trkpt lat="48.60628" lon="-3.43106">
        <ele>105</ele>
        <time>2015-01-04T09:07:55Z</time>
      </trkpt>
      <trkpt lat="48.60631" lon="-3.43111">
        <ele>106</ele>
        <time>2015-01-04T09:07:56Z</time>
      </trkpt>
      <trkpt lat="48.60633" lon="-3.43117">
        <ele>106</ele>
        <time>2015-01-04T09:07:57Z</time>
      </trkpt>
      <trkpt lat="48.60636" lon="-3.43123">
        <ele>106</ele>
        <time>2015-01-04T09:07:58Z</time>
      </trkpt>
      <trkpt lat="48.60638" lon="-3.43128">
        <ele>106</ele>
        <time>2015-01-04T09:07:59Z</time>
      </trkpt>
      <trkpt lat="48.60639" lon="-3.43134">
        <ele>107</ele>
        <time>2015-01-04T09:08:00Z</time>
      </trkpt>
      <trkpt lat="48.6064" lon="-3.4314">
        <ele>107</ele>
        <time>2015-01-04T09:08:01Z</time>
      </trkpt>
      <trkpt lat="48.60641" lon="-3.43146">
        <ele>107</ele>
        <time>2015-01-04T09:08:02Z</time>
      </trkpt>
      <trkpt lat="48.60642" lon="-3.43153">
        <ele>107</ele>
        <time>2015-01-04T09:08:03Z</time>
      </trkpt>
      <trkpt lat="48.60643" lon="-3.43159">
        <ele>108</ele>
        <time>2015-01-04T09:08:04Z</time>
      </trkpt>
      <trkpt lat="48.60644" lon="-3.43165">
        <ele>108</ele>
        <time>2015-01-04T09:08:05Z</time>
      </trkpt>
      <trkpt lat="48.60644" lon="-3.43172">
        <ele>108</ele>
        <time>2015-01-04T09:08:06Z</time>
      </trkpt>
      <trkpt lat="48.60645" lon="-3.43179">
        <ele>108</ele>
        <time>2015-01-04T09:08:07Z</time>
      </trkpt>
      <trkpt lat="48.60645" lon="-3.43193">
        <ele>109</ele>
        <time>2015-01-04T09:08:09Z</time>
      </trkpt>
      <trkpt lat="48.60645" lon="-3.43221">
        <ele>110</ele>
        <time>2015-01-04T09:08:13Z</time>
      </trkpt>
      <trkpt lat="48.60644" lon="-3.43235">
        <ele>110</ele>
        <time>2015-01-04T09:08:15Z</time>
      </trkpt>
      <trkpt lat="48.60643" lon="-3.43242">
        <ele>110</ele>
        <time>2015-01-04T09:08:16Z</time>
      </trkpt>
      <trkpt lat="48.60643" lon="-3.43249">
        <ele>111</ele>
        <time>2015-01-04T09:08:17Z</time>
      </trkpt>
      <trkpt lat="48.60642" lon="-3.43255">
        <ele>111</ele>
        <time>2015-01-04T09:08:18Z</time>
      </trkpt>
      <trkpt lat="48.6064" lon="-3.43262">
        <ele>111</ele>
        <time>2015-01-04T09:08:19Z</time>
      </trkpt>
      <trkpt lat="48.60639" lon="-3.43268">
        <ele>111</ele>
        <time>2015-01-04T09:08:20Z</time>
      </trkpt>
      <trkpt lat="48.60638" lon="-3.43274">
        <ele>112</ele>
        <time>2015-01-04T09:08:21Z</time>
      </trkpt>
      <trkpt lat="48.60637" lon="-3.4328">
        <ele>112</ele>
        <time>2015-01-04T09:08:22Z</time>
      </trkpt>
      <trkpt lat="48.60636" lon="-3.43286">
        <ele>112</ele>
        <time>2015-01-04T09:08:23Z</time>
      </trkpt>
      <trkpt lat="48.60634" lon="-3.43292">
        <ele>112</ele>
        <time>2015-01-04T09:08:24Z</time>
      </trkpt>
      <trkpt lat="48.60633" lon="-3.43298">
        <ele>112</ele>
        <time>2015-01-04T09:08:25Z</time>
      </trkpt>
      <trkpt lat="48.60632" lon="-3.43304">
        <ele>112</ele>
        <time>2015-01-04T09:08:26Z</time>
      </trkpt>
      <trkpt lat="48.60631" lon="-3.43311">
        <ele>113</ele>
        <time>2015-01-04T09:08:27Z</time>
      </trkpt>
      <trkpt lat="48.6063" lon="-3.43317">
        <ele>113</ele>
        <time>2015-01-04T09:08:28Z</time>
      </trkpt>
      <trkpt lat="48.60629" lon="-3.43324">
        <ele>113</ele>
        <time>2015-01-04T09:08:29Z</time>
      </trkpt>
      <trkpt lat="48.60629" lon="-3.4333">
        <ele>114</ele>
        <time>2015-01-04T09:08:30Z</time>
      </trkpt>
      <trkpt lat="48.60628" lon="-3.43337">
        <ele>114</ele>
        <time>2015-01-04T09:08:31Z</time>
      </trkpt>
      <trkpt lat="48.60627" lon="-3.43344">
        <ele>114</ele>
        <time>2015-01-04T09:08:32Z</time>
      </trkpt>
      <trkpt lat="48.60628" lon="-3.43357">
        <ele>115</ele>
        <time>2015-01-04T09:08:34Z</time>
      </trkpt>
      <trkpt lat="48.60628" lon="-3.43364">
        <ele>115</ele>
        <time>2015-01-04T09:08:35Z</time>
      </trkpt>
      <trkpt lat="48.60629" lon="-3.43371">
        <ele>115</ele>
        <time>2015-01-04T09:08:36Z</time>
      </trkpt>
      <trkpt lat="48.60631" lon="-3.43378">
        <ele>116</ele>
        <time>2015-01-04T09:08:37Z</time>
      </trkpt>
      <trkpt lat="48.60632" lon="-3.43386">
        <ele>116</ele>
        <time>2015-01-04T09:08:38Z</time>
      </trkpt>
      <trkpt lat="48.60634" lon="-3.43393">
        <ele>116</ele>
        <time>2015-01-04T09:08:39Z</time>
      </trkpt>
      <trkpt lat="48.60637" lon="-3.434">
        <ele>116</ele>
        <time>2015-01-04T09:08:40Z</time>
      </trkpt>
      <trkpt lat="48.60639" lon="-3.43407">
        <ele>117</ele>
        <time>2015-01-04T09:08:41Z</time>
      </trkpt>
      <trkpt lat="48.60642" lon="-3.43413">
        <ele>117</ele>
        <time>2015-01-04T09:08:42Z</time>
      </trkpt>
      <trkpt lat="48.60645" lon="-3.43419">
        <ele>117</ele>
        <time>2015-01-04T09:08:43Z</time>
      </trkpt>
      <trkpt lat="48.60648" lon="-3.43426">
        <ele>117</ele>
        <time>2015-01-04T09:08:44Z</time>
      </trkpt>
      <trkpt lat="48.60651" lon="-3.43432">
        <ele>118</ele>
        <time>2015-01-04T09:08:45Z</time>
      </trkpt>
      <trkpt lat="48.60654" lon="-3.43438">
        <ele>118</ele>
        <time>2015-01-04T09:08:46Z</time>
      </trkpt>
      <trkpt lat="48.60658" lon="-3.43444">
        <ele>118</ele>
        <time>2015-01-04T09:08:47Z</time>
      </trkpt>
      <trkpt lat="48.60661" lon="-3.43451">
        <ele>118</ele>
        <time>2015-01-04T09:08:48Z</time>
      </trkpt>
      <trkpt lat="48.60665" lon="-3.43458">
        <ele>118</ele>
        <time>2015-01-04T09:08:49Z</time>
      </trkpt>
      <trkpt lat="48.60668" lon="-3.43465">
        <ele>118</ele>
        <time>2015-01-04T09:08:50Z</time>
      </trkpt>
      <trkpt lat="48.60672" lon="-3.43472">
        <ele>118</ele>
        <time>2015-01-04T09:08:51Z</time>
      </trkpt>
      <trkpt lat="48.60675" lon="-3.43479">
        <ele>118</ele>
        <time>2015-01-04T09:08:52Z</time>
      </trkpt>
      <trkpt lat="48.60679" lon="-3.43485">
        <ele>118</ele>
        <time>2015-01-04T09:08:53Z</time>
      </trkpt>
      <trkpt lat="48.60682" lon="-3.43492">
        <ele>118</ele>
        <time>2015-01-04T09:08:54Z</time>
      </trkpt>
      <trkpt lat="48.60686" lon="-3.43499">
        <ele>118</ele>
        <time>2015-01-04T09:08:55Z</time>
      </trkpt>
      <trkpt lat="48.60689" lon="-3.43506">
        <ele>118</ele>
        <time>2015-01-04T09:08:56Z</time>
      </trkpt>
      <trkpt lat="48.60693" lon="-3.43513">
        <ele>118</ele>
        <time>2015-01-04T09:08:57Z</time>
      </trkpt>
      <trkpt lat="48.60696" lon="-3.4352">
        <ele>118</ele>
        <time>2015-01-04T09:08:58Z</time>
      </trkpt>
      <trkpt lat="48.607" lon="-3.43527">
        <ele>118</ele>
        <time>2015-01-04T09:08:59Z</time>
      </trkpt>
      <trkpt lat="48.60704" lon="-3.43534">
        <ele>118</ele>
        <time>2015-01-04T09:09:00Z</time>
      </trkpt>
      <trkpt lat="48.60707" lon="-3.43542">
        <ele>118</ele>
        <time>2015-01-04T09:09:01Z</time>
      </trkpt>
      <trkpt lat="48.60711" lon="-3.43549">
        <ele>118</ele>
        <time>2015-01-04T09:09:02Z</time>
      </trkpt>
      <trkpt lat="48.60715" lon="-3.43557">
        <ele>118</ele>
        <time>2015-01-04T09:09:03Z</time>
      </trkpt>
      <trkpt lat="48.60719" lon="-3.43565">
        <ele>118</ele>
        <time>2015-01-04T09:09:04Z</time>
      </trkpt>
      <trkpt lat="48.60723" lon="-3.43572">
        <ele>118</ele>
        <time>2015-01-04T09:09:05Z</time>
      </trkpt>
      <trkpt lat="48.60727" lon="-3.4358">
        <ele>118</ele>
        <time>2015-01-04T09:09:06Z</time>
      </trkpt>
      <trkpt lat="48.60731" lon="-3.43588">
        <ele>118</ele>
        <time>2015-01-04T09:09:07Z</time>
      </trkpt>
      <trkpt lat="48.60735" lon="-3.43596">
        <ele>118</ele>
        <time>2015-01-04T09:09:08Z</time>
      </trkpt>
      <trkpt lat="48.60739" lon="-3.43604">
        <ele>118</ele>
        <time>2015-01-04T09:09:09Z</time>
      </trkpt>
      <trkpt lat="48.60743" lon="-3.43612">
        <ele>118</ele>
        <time>2015-01-04T09:09:10Z</time>
      </trkpt>
      <trkpt lat="48.60747" lon="-3.4362">
        <ele>118</ele>
        <time>2015-01-04T09:09:11Z</time>
      </trkpt>
      <trkpt lat="48.60751" lon="-3.43628">
        <ele>118</ele>
        <time>2015-01-04T09:09:12Z</time>
      </trkpt>
      <trkpt lat="48.60756" lon="-3.43636">
        <ele>118</ele>
        <time>2015-01-04T09:09:13Z</time>
      </trkpt>
      <trkpt lat="48.60759" lon="-3.43644">
        <ele>118</ele>
        <time>2015-01-04T09:09:14Z</time>
      </trkpt>
      <trkpt lat="48.60764" lon="-3.43652">
        <ele>118</ele>
        <time>2015-01-04T09:09:15Z</time>
      </trkpt>
      <trkpt lat="48.60767" lon="-3.4366">
        <ele>118</ele>
        <time>2015-01-04T09:09:16Z</time>
      </trkpt>
      <trkpt lat="48.60771" lon="-3.43669">
        <ele>118</ele>
        <time>2015-01-04T09:09:17Z</time>
      </trkpt>
      <trkpt lat="48.60775" lon="-3.43678">
        <ele>118</ele>
        <time>2015-01-04T09:09:18Z</time>
      </trkpt>
      <trkpt lat="48.60778" lon="-3.43687">
        <ele>118</ele>
        <time>2015-01-04T09:09:19Z</time>
      </trkpt>
      <trkpt lat="48.60781" lon="-3.43696">
        <ele>118</ele>
        <time>2015-01-04T09:09:20Z</time>
      </trkpt>
      <trkpt lat="48.60784" lon="-3.43706">
        <ele>118</ele>
        <time>2015-01-04T09:09:21Z</time>
      </trkpt>
      <trkpt lat="48.60786" lon="-3.43716">
        <ele>118</ele>
        <time>2015-01-04T09:09:22Z</time>
      </trkpt>
      <trkpt lat="48.60789" lon="-3.43725">
        <ele>118</ele>
        <time>2015-01-04T09:09:23Z</time>
      </trkpt>
      <trkpt lat="48.60791" lon="-3.43735">
        <ele>118</ele>
        <time>2015-01-04T09:09:24Z</time>
      </trkpt>
      <trkpt lat="48.60794" lon="-3.43745">
        <ele>118</ele>
        <time>2015-01-04T09:09:25Z</time>
      </trkpt>
      <trkpt lat="48.60797" lon="-3.43754">
        <ele>118</ele>
        <time>2015-01-04T09:09:26Z</time>
      </trkpt>
      <trkpt lat="48.60801" lon="-3.43763">
        <ele>118</ele>
        <time>2015-01-04T09:09:27Z</time>
      </trkpt>
      <trkpt lat="48.60805" lon="-3.43772">
        <ele>118</ele>
        <time>2015-01-04T09:09:28Z</time>
      </trkpt>
      <trkpt lat="48.6081" lon="-3.4378">
        <ele>118</ele>
        <time>2015-01-04T09:09:29Z</time>
      </trkpt>
      <trkpt lat="48.60815" lon="-3.43787">
        <ele>118</ele>
        <time>2015-01-04T09:09:30Z</time>
      </trkpt>
      <trkpt lat="48.60821" lon="-3.43794">
        <ele>118</ele>
        <time>2015-01-04T09:09:31Z</time>
      </trkpt>
      <trkpt lat="48.60827" lon="-3.43799">
        <ele>118</ele>
        <time>2015-01-04T09:09:32Z</time>
      </trkpt>
      <trkpt lat="48.60833" lon="-3.43804">
        <ele>118</ele>
        <time>2015-01-04T09:09:33Z</time>
      </trkpt>
      <trkpt lat="48.60839" lon="-3.43808">
        <ele>118</ele>
        <time>2015-01-04T09:09:34Z</time>
      </trkpt>
      <trkpt lat="48.60845" lon="-3.43813">
        <ele>118</ele>
        <time>2015-01-04T09:09:35Z</time>
      </trkpt>
      <trkpt lat="48.60851" lon="-3.43817">
        <ele>118</ele>
        <time>2015-01-04T09:09:36Z</time>
      </trkpt>
      <trkpt lat="48.60857" lon="-3.43823">
        <ele>118</ele>
        <time>2015-01-04T09:09:37Z</time>
      </trkpt>
      <trkpt lat="48.60862" lon="-3.43828">
        <ele>118</ele>
        <time>2015-01-04T09:09:38Z</time>
      </trkpt>
      <trkpt lat="48.60867" lon="-3.43834">
        <ele>118</ele>
        <time>2015-01-04T09:09:39Z</time>
      </trkpt>
      <trkpt lat="48.60872" lon="-3.43841">
        <ele>118</ele>
        <time>2015-01-04T09:09:40Z</time>
      </trkpt>
      <trkpt lat="48.60875" lon="-3.43848">
        <ele>118</ele>
        <time>2015-01-04T09:09:41Z</time>
      </trkpt>
      <trkpt lat="48.60879" lon="-3.43856">
        <ele>118</ele>
        <time>2015-01-04T09:09:42Z</time>
      </trkpt>
      <trkpt lat="48.60882" lon="-3.43864">
        <ele>118</ele>
        <time>2015-01-04T09:09:43Z</time>
      </trkpt>
      <trkpt lat="48.60885" lon="-3.43872">
        <ele>118</ele>
        <time>2015-01-04T09:09:44Z</time>
      </trkpt>
      <trkpt lat="48.60887" lon="-3.43881">
        <ele>118</ele>
        <time>2015-01-04T09:09:45Z</time>
      </trkpt>
      <trkpt lat="48.60889" lon="-3.4389">
        <ele>118</ele>
        <time>2015-01-04T09:09:46Z</time>
      </trkpt>
      <trkpt lat="48.6089" lon="-3.43899">
        <ele>118</ele>
        <time>2015-01-04T09:09:47Z</time>
      </trkpt>
      <trkpt lat="48.60891" lon="-3.43909">
        <ele>118</ele>
        <time>2015-01-04T09:09:48Z</time>
      </trkpt>
      <trkpt lat="48.60891" lon="-3.43918">
        <ele>118</ele>
        <time>2015-01-04T09:09:49Z</time>
      </trkpt>
      <trkpt lat="48.60891" lon="-3.43928">
        <ele>118</ele>
        <time>2015-01-04T09:09:50Z</time>
      </trkpt>
      <trkpt lat="48.6089" lon="-3.43937">
        <ele>118</ele>
        <time>2015-01-04T09:09:51Z</time>
      </trkpt>
      <trkpt lat="48.60889" lon="-3.43947">
        <ele>118</ele>
        <time>2015-01-04T09:09:52Z</time>
      </trkpt>
      <trkpt lat="48.60889" lon="-3.43957">
        <ele>118</ele>
        <time>2015-01-04T09:09:53Z</time>
      </trkpt>
      <trkpt lat="48.60888" lon="-3.43967">
        <ele>118</ele>
        <time>2015-01-04T09:09:54Z</time>
      </trkpt>
      <trkpt lat="48.60887" lon="-3.43978">
        <ele>118</ele>
        <time>2015-01-04T09:09:55Z</time>
      </trkpt>
      <trkpt lat="48.60885" lon="-3.43988">
        <ele>118</ele>
        <time>2015-01-04T09:09:56Z</time>
      </trkpt>
      <trkpt lat="48.60883" lon="-3.43999">
        <ele>118</ele>
        <time>2015-01-04T09:09:57Z</time>
      </trkpt>
      <trkpt lat="48.60881" lon="-3.4401">
        <ele>118</ele>
        <time>2015-01-04T09:09:58Z</time>
      </trkpt>
      <trkpt lat="48.60879" lon="-3.44021">
        <ele>118</ele>
        <time>2015-01-04T09:09:59Z</time>
      </trkpt>
      <trkpt lat="48.60877" lon="-3.44031">
        <ele>118</ele>
        <time>2015-01-04T09:10:00Z</time>
      </trkpt>
      <trkpt lat="48.60874" lon="-3.44042">
        <ele>118</ele>
        <time>2015-01-04T09:10:01Z</time>
      </trkpt>
      <trkpt lat="48.60871" lon="-3.44053">
        <ele>118</ele>
        <time>2015-01-04T09:10:02Z</time>
      </trkpt>
      <trkpt lat="48.60868" lon="-3.44064">
        <ele>118</ele>
        <time>2015-01-04T09:10:03Z</time>
      </trkpt>
      <trkpt lat="48.60866" lon="-3.44075">
        <ele>118</ele>
        <time>2015-01-04T09:10:04Z</time>
      </trkpt>
      <trkpt lat="48.60863" lon="-3.44086">
        <ele>118</ele>
        <time>2015-01-04T09:10:05Z</time>
      </trkpt>
      <trkpt lat="48.60861" lon="-3.44098">
        <ele>118</ele>
        <time>2015-01-04T09:10:06Z</time>
      </trkpt>
      <trkpt lat="48.6086" lon="-3.4411">
        <ele>118</ele>
        <time>2015-01-04T09:10:07Z</time>
      </trkpt>
      <trkpt lat="48.60859" lon="-3.44122">
        <ele>118</ele>
        <time>2015-01-04T09:10:08Z</time>
      </trkpt>
      <trkpt lat="48.6086" lon="-3.44156">
        <ele>118</ele>
        <time>2015-01-04T09:10:11Z</time>
      </trkpt>
      <trkpt lat="48.6086" lon="-3.44167">
        <ele>118</ele>
        <time>2015-01-04T09:10:12Z</time>
      </trkpt>
      <trkpt lat="48.6086" lon="-3.44178">
        <ele>118</ele>
        <time>2015-01-04T09:10:13Z</time>
      </trkpt>
      <trkpt lat="48.60861" lon="-3.44189">
        <ele>118</ele>
        <time>2015-01-04T09:10:14Z</time>
      </trkpt>
      <trkpt lat="48.60862" lon="-3.44199">
        <ele>118</ele>
        <time>2015-01-04T09:10:15Z</time>
      </trkpt>
      <trkpt lat="48.60862" lon="-3.4421">
        <ele>118</ele>
        <time>2015-01-04T09:10:16Z</time>
      </trkpt>
      <trkpt lat="48.60862" lon="-3.44221">
        <ele>118</ele>
        <time>2015-01-04T09:10:17Z</time>
      </trkpt>
      <trkpt lat="48.60862" lon="-3.44264">
        <ele>118</ele>
        <time>2015-01-04T09:10:21Z</time>
      </trkpt>
      <trkpt lat="48.6086" lon="-3.44274">
        <ele>118</ele>
        <time>2015-01-04T09:10:22Z</time>
      </trkpt>
      <trkpt lat="48.60858" lon="-3.44285">
        <ele>118</ele>
        <time>2015-01-04T09:10:23Z</time>
      </trkpt>
      <trkpt lat="48.60856" lon="-3.44295">
        <ele>118</ele>
        <time>2015-01-04T09:10:24Z</time>
      </trkpt>
      <trkpt lat="48.60852" lon="-3.44305">
        <ele>118</ele>
        <time>2015-01-04T09:10:25Z</time>
      </trkpt>
      <trkpt lat="48.60848" lon="-3.44315">
        <ele>118</ele>
        <time>2015-01-04T09:10:26Z</time>
      </trkpt>
      <trkpt lat="48.60844" lon="-3.44324">
        <ele>118</ele>
        <time>2015-01-04T09:10:27Z</time>
      </trkpt>
      <trkpt lat="48.60838" lon="-3.44333">
        <ele>118</ele>
        <time>2015-01-04T09:10:28Z</time>
      </trkpt>
      <trkpt lat="48.60833" lon="-3.44341">
        <ele>117</ele>
        <time>2015-01-04T09:10:29Z</time>
      </trkpt>
      <trkpt lat="48.60827" lon="-3.44349">
        <ele>117</ele>
        <time>2015-01-04T09:10:30Z</time>
      </trkpt>
      <trkpt lat="48.60821" lon="-3.44357">
        <ele>117</ele>
        <time>2015-01-04T09:10:31Z</time>
      </trkpt>
      <trkpt lat="48.60814" lon="-3.44365">
        <ele>117</ele>
        <time>2015-01-04T09:10:32Z</time>
      </trkpt>
      <trkpt lat="48.60808" lon="-3.44372">
        <ele>117</ele>
        <time>2015-01-04T09:10:33Z</time>
      </trkpt>
      <trkpt lat="48.60802" lon="-3.4438">
        <ele>117</ele>
        <time>2015-01-04T09:10:34Z</time>
      </trkpt>
      <trkpt lat="48.60796" lon="-3.44387">
        <ele>117</ele>
        <time>2015-01-04T09:10:35Z</time>
      </trkpt>
      <trkpt lat="48.6079" lon="-3.44395">
        <ele>117</ele>
        <time>2015-01-04T09:10:36Z</time>
      </trkpt>
      <trkpt lat="48.60784" lon="-3.44402">
        <ele>116</ele>
        <time>2015-01-04T09:10:37Z</time>
      </trkpt>
      <trkpt lat="48.60778" lon="-3.44409">
        <ele>116</ele>
        <time>2015-01-04T09:10:38Z</time>
      </trkpt>
      <trkpt lat="48.60772" lon="-3.44415">
        <ele>116</ele>
        <time>2015-01-04T09:10:39Z</time>
      </trkpt>
      <trkpt lat="48.60766" lon="-3.44421">
        <ele>116</ele>
        <time>2015-01-04T09:10:40Z</time>
      </trkpt>
      <trkpt lat="48.6076" lon="-3.44427">
        <ele>116</ele>
        <time>2015-01-04T09:10:41Z</time>
      </trkpt>
      <trkpt lat="48.60754" lon="-3.44433">
        <ele>116</ele>
        <time>2015-01-04T09:10:42Z</time>
      </trkpt>
      <trkpt lat="48.60747" lon="-3.44439">
        <ele>116</ele>
        <time>2015-01-04T09:10:43Z</time>
      </trkpt>
      <trkpt lat="48.60741" lon="-3.44445">
        <ele>115</ele>
        <time>2015-01-04T09:10:44Z</time>
      </trkpt>
      <trkpt lat="48.60735" lon="-3.44452">
        <ele>115</ele>
        <time>2015-01-04T09:10:45Z</time>
      </trkpt>
      <trkpt lat="48.60729" lon="-3.44458">
        <ele>115</ele>
        <time>2015-01-04T09:10:46Z</time>
      </trkpt>
      <trkpt lat="48.60723" lon="-3.44466">
        <ele>115</ele>
        <time>2015-01-04T09:10:47Z</time>
      </trkpt>
      <trkpt lat="48.60719" lon="-3.44475">
        <ele>114</ele>
        <time>2015-01-04T09:10:48Z</time>
      </trkpt>
      <trkpt lat="48.60717" lon="-3.44485">
        <ele>114</ele>
        <time>2015-01-04T09:10:49Z</time>
      </trkpt>
      <trkpt lat="48.60716" lon="-3.44496">
        <ele>114</ele>
        <time>2015-01-04T09:10:50Z</time>
      </trkpt>
      <trkpt lat="48.60717" lon="-3.44508">
        <ele>114</ele>
        <time>2015-01-04T09:10:51Z</time>
      </trkpt>
      <trkpt lat="48.60718" lon="-3.44519">
        <ele>114</ele>
        <time>2015-01-04T09:10:52Z</time>
      </trkpt>
      <trkpt lat="48.6072" lon="-3.44531">
        <ele>114</ele>
        <time>2015-01-04T09:10:53Z</time>
      </trkpt>
      <trkpt lat="48.60723" lon="-3.44542">
        <ele>114</ele>
        <time>2015-01-04T09:10:54Z</time>
      </trkpt>
      <trkpt lat="48.60725" lon="-3.44552">
        <ele>114</ele>
        <time>2015-01-04T09:10:55Z</time>
      </trkpt>
      <trkpt lat="48.60728" lon="-3.44563">
        <ele>114</ele>
        <time>2015-01-04T09:10:56Z</time>
      </trkpt>
      <trkpt lat="48.60731" lon="-3.44573">
        <ele>114</ele>
        <time>2015-01-04T09:10:57Z</time>
      </trkpt>
      <trkpt lat="48.60734" lon="-3.44582">
        <ele>114</ele>
        <time>2015-01-04T09:10:58Z</time>
      </trkpt>
      <trkpt lat="48.60736" lon="-3.44591">
        <ele>114</ele>
        <time>2015-01-04T09:10:59Z</time>
      </trkpt>
      <trkpt lat="48.60739" lon="-3.446">
        <ele>114</ele>
        <time>2015-01-04T09:11:00Z</time>
      </trkpt>
      <trkpt lat="48.60742" lon="-3.44608">
        <ele>114</ele>
        <time>2015-01-04T09:11:01Z</time>
      </trkpt>
      <trkpt lat="48.60744" lon="-3.44616">
        <ele>114</ele>
        <time>2015-01-04T09:11:02Z</time>
      </trkpt>
      <trkpt lat="48.60747" lon="-3.44623">
        <ele>114</ele>
        <time>2015-01-04T09:11:03Z</time>
      </trkpt>
      <trkpt lat="48.60749" lon="-3.44631">
        <ele>114</ele>
        <time>2015-01-04T09:11:04Z</time>
      </trkpt>
      <trkpt lat="48.60752" lon="-3.44639">
        <ele>114</ele>
        <time>2015-01-04T09:11:05Z</time>
      </trkpt>
      <trkpt lat="48.60755" lon="-3.44647">
        <ele>114</ele>
        <time>2015-01-04T09:11:06Z</time>
      </trkpt>
      <trkpt lat="48.60758" lon="-3.44654">
        <ele>114</ele>
        <time>2015-01-04T09:11:07Z</time>
      </trkpt>
      <trkpt lat="48.60761" lon="-3.44662">
        <ele>114</ele>
        <time>2015-01-04T09:11:08Z</time>
      </trkpt>
      <trkpt lat="48.60764" lon="-3.4467">
        <ele>114</ele>
        <time>2015-01-04T09:11:09Z</time>
      </trkpt>
      <trkpt lat="48.60766" lon="-3.44678">
        <ele>114</ele>
        <time>2015-01-04T09:11:10Z</time>
      </trkpt>
      <trkpt lat="48.60768" lon="-3.44686">
        <ele>114</ele>
        <time>2015-01-04T09:11:11Z</time>
      </trkpt>
      <trkpt lat="48.6077" lon="-3.44694">
        <ele>114</ele>
        <time>2015-01-04T09:11:12Z</time>
      </trkpt>
      <trkpt lat="48.60771" lon="-3.44702">
        <ele>114</ele>
        <time>2015-01-04T09:11:13Z</time>
      </trkpt>
      <trkpt lat="48.60772" lon="-3.44711">
        <ele>114</ele>
        <time>2015-01-04T09:11:14Z</time>
      </trkpt>
      <trkpt lat="48.60771" lon="-3.44737">
        <ele>114</ele>
        <time>2015-01-04T09:11:17Z</time>
      </trkpt>
      <trkpt lat="48.6077" lon="-3.44745">
        <ele>114</ele>
        <time>2015-01-04T09:11:18Z</time>
      </trkpt>
      <trkpt lat="48.60769" lon="-3.44754">
        <ele>114</ele>
        <time>2015-01-04T09:11:19Z</time>
      </trkpt>
      <trkpt lat="48.60768" lon="-3.44763">
        <ele>114</ele>
        <time>2015-01-04T09:11:20Z</time>
      </trkpt>
      <trkpt lat="48.60767" lon="-3.44772">
        <ele>114</ele>
        <time>2015-01-04T09:11:21Z</time>
      </trkpt>
      <trkpt lat="48.60767" lon="-3.4478">
        <ele>115</ele>
        <time>2015-01-04T09:11:22Z</time>
      </trkpt>
      <trkpt lat="48.60766" lon="-3.44788">
        <ele>115</ele>
        <time>2015-01-04T09:11:23Z</time>
      </trkpt>
      <trkpt lat="48.60765" lon="-3.44796">
        <ele>115</ele>
        <time>2015-01-04T09:11:24Z</time>
      </trkpt>
      <trkpt lat="48.60764" lon="-3.44803">
        <ele>116</ele>
        <time>2015-01-04T09:11:25Z</time>
      </trkpt>
      <trkpt lat="48.60763" lon="-3.4481">
        <ele>116</ele>
        <time>2015-01-04T09:11:26Z</time>
      </trkpt>
      <trkpt lat="48.60762" lon="-3.44818">
        <ele>116</ele>
        <time>2015-01-04T09:11:27Z</time>
      </trkpt>
      <trkpt lat="48.60762" lon="-3.44825">
        <ele>117</ele>
        <time>2015-01-04T09:11:28Z</time>
      </trkpt>
      <trkpt lat="48.60762" lon="-3.44845">
        <ele>117</ele>
        <time>2015-01-04T09:11:31Z</time>
      </trkpt>
      <trkpt lat="48.60763" lon="-3.44853">
        <ele>117</ele>
        <time>2015-01-04T09:11:32Z</time>
      </trkpt>
      <trkpt lat="48.60764" lon="-3.4486">
        <ele>117</ele>
        <time>2015-01-04T09:11:33Z</time>
      </trkpt>
      <trkpt lat="48.60764" lon="-3.44867">
        <ele>117</ele>
        <time>2015-01-04T09:11:34Z</time>
      </trkpt>
      <trkpt lat="48.60764" lon="-3.44875">
        <ele>117</ele>
        <time>2015-01-04T09:11:35Z</time>
      </trkpt>
      <trkpt lat="48.60765" lon="-3.44882">
        <ele>117</ele>
        <time>2015-01-04T09:11:36Z</time>
      </trkpt>
      <trkpt lat="48.60765" lon="-3.4489">
        <ele>117</ele>
        <time>2015-01-04T09:11:37Z</time>
      </trkpt>
      <trkpt lat="48.60766" lon="-3.44898">
        <ele>117</ele>
        <time>2015-01-04T09:11:38Z</time>
      </trkpt>
      <trkpt lat="48.60766" lon="-3.44906">
        <ele>117</ele>
        <time>2015-01-04T09:11:39Z</time>
      </trkpt>
      <trkpt lat="48.60767" lon="-3.44915">
        <ele>117</ele>
        <time>2015-01-04T09:11:40Z</time>
      </trkpt>
      <trkpt lat="48.60767" lon="-3.44923">
        <ele>117</ele>
        <time>2015-01-04T09:11:41Z</time>
      </trkpt>
      <trkpt lat="48.60768" lon="-3.44932">
        <ele>117</ele>
        <time>2015-01-04T09:11:42Z</time>
      </trkpt>
      <trkpt lat="48.60769" lon="-3.44941">
        <ele>117</ele>
        <time>2015-01-04T09:11:43Z</time>
      </trkpt>
      <trkpt lat="48.60769" lon="-3.4495">
        <ele>117</ele>
        <time>2015-01-04T09:11:44Z</time>
      </trkpt>
      <trkpt lat="48.6077" lon="-3.44959">
        <ele>117</ele>
        <time>2015-01-04T09:11:45Z</time>
      </trkpt>
      <trkpt lat="48.6077" lon="-3.44968">
        <ele>117</ele>
        <time>2015-01-04T09:11:46Z</time>
      </trkpt>
      <trkpt lat="48.60771" lon="-3.44978">
        <ele>117</ele>
        <time>2015-01-04T09:11:47Z</time>
      </trkpt>
      <trkpt lat="48.6077" lon="-3.44999">
        <ele>117</ele>
        <time>2015-01-04T09:11:49Z</time>
      </trkpt>
      <trkpt lat="48.6077" lon="-3.45009">
        <ele>117</ele>
        <time>2015-01-04T09:11:50Z</time>
      </trkpt>
      <trkpt lat="48.60769" lon="-3.4502">
        <ele>117</ele>
        <time>2015-01-04T09:11:51Z</time>
      </trkpt>
      <trkpt lat="48.60769" lon="-3.4503">
        <ele>117</ele>
        <time>2015-01-04T09:11:52Z</time>
      </trkpt>
      <trkpt lat="48.60769" lon="-3.45052">
        <ele>117</ele>
        <time>2015-01-04T09:11:54Z</time>
      </trkpt>
      <trkpt lat="48.6077" lon="-3.45063">
        <ele>117</ele>
        <time>2015-01-04T09:11:55Z</time>
      </trkpt>
      <trkpt lat="48.6077" lon="-3.45075">
        <ele>117</ele>
        <time>2015-01-04T09:11:56Z</time>
      </trkpt>
      <trkpt lat="48.60771" lon="-3.45087">
        <ele>117</ele>
        <time>2015-01-04T09:11:57Z</time>
      </trkpt>
      <trkpt lat="48.60771" lon="-3.45099">
        <ele>117</ele>
        <time>2015-01-04T09:11:58Z</time>
      </trkpt>
      <trkpt lat="48.60772" lon="-3.45111">
        <ele>117</ele>
        <time>2015-01-04T09:11:59Z</time>
      </trkpt>
      <trkpt lat="48.60772" lon="-3.45124">
        <ele>117</ele>
        <time>2015-01-04T09:12:00Z</time>
      </trkpt>
      <trkpt lat="48.60773" lon="-3.45138">
        <ele>116</ele>
        <time>2015-01-04T09:12:01Z</time>
      </trkpt>
      <trkpt lat="48.60773" lon="-3.45151">
        <ele>116</ele>
        <time>2015-01-04T09:12:02Z</time>
      </trkpt>
      <trkpt lat="48.60774" lon="-3.45164">
        <ele>115</ele>
        <time>2015-01-04T09:12:03Z</time>
      </trkpt>
      <trkpt lat="48.60775" lon="-3.45177">
        <ele>114</ele>
        <time>2015-01-04T09:12:04Z</time>
      </trkpt>
      <trkpt lat="48.60775" lon="-3.4519">
        <ele>114</ele>
        <time>2015-01-04T09:12:05Z</time>
      </trkpt>
      <trkpt lat="48.60776" lon="-3.45201">
        <ele>113</ele>
        <time>2015-01-04T09:12:06Z</time>
      </trkpt>
      <trkpt lat="48.60778" lon="-3.45213">
        <ele>113</ele>
        <time>2015-01-04T09:12:07Z</time>
      </trkpt>
      <trkpt lat="48.60782" lon="-3.45223">
        <ele>112</ele>
        <time>2015-01-04T09:12:08Z</time>
      </trkpt>
      <trkpt lat="48.60786" lon="-3.45233">
        <ele>112</ele>
        <time>2015-01-04T09:12:09Z</time>
      </trkpt>
      <trkpt lat="48.60792" lon="-3.45241">
        <ele>112</ele>
        <time>2015-01-04T09:12:10Z</time>
      </trkpt>
      <trkpt lat="48.60796" lon="-3.45248">
        <ele>111</ele>
        <time>2015-01-04T09:12:11Z</time>
      </trkpt>
      <trkpt lat="48.60799" lon="-3.45257">
        <ele>111</ele>
        <time>2015-01-04T09:12:12Z</time>
      </trkpt>
      <trkpt lat="48.608" lon="-3.45266">
        <ele>110</ele>
        <time>2015-01-04T09:12:13Z</time>
      </trkpt>
      <trkpt lat="48.60799" lon="-3.45275">
        <ele>110</ele>
        <time>2015-01-04T09:12:14Z</time>
      </trkpt>
      <trkpt lat="48.60798" lon="-3.45284">
        <ele>110</ele>
        <time>2015-01-04T09:12:15Z</time>
      </trkpt>
      <trkpt lat="48.60795" lon="-3.45292">
        <ele>110</ele>
        <time>2015-01-04T09:12:16Z</time>
      </trkpt>
      <trkpt lat="48.60792" lon="-3.453">
        <ele>110</ele>
        <time>2015-01-04T09:12:17Z</time>
      </trkpt>
      <trkpt lat="48.60789" lon="-3.45308">
        <ele>110</ele>
        <time>2015-01-04T09:12:18Z</time>
      </trkpt>
      <trkpt lat="48.60787" lon="-3.45315">
        <ele>110</ele>
        <time>2015-01-04T09:12:19Z</time>
      </trkpt>
      <trkpt lat="48.60784" lon="-3.45323">
        <ele>110</ele>
        <time>2015-01-04T09:12:20Z</time>
      </trkpt>
      <trkpt lat="48.60781" lon="-3.4533">
        <ele>110</ele>
        <time>2015-01-04T09:12:21Z</time>
      </trkpt>
      <trkpt lat="48.60779" lon="-3.45337">
        <ele>110</ele>
        <time>2015-01-04T09:12:22Z</time>
      </trkpt>
      <trkpt lat="48.60776" lon="-3.45343">
        <ele>110</ele>
        <time>2015-01-04T09:12:23Z</time>
      </trkpt>
      <trkpt lat="48.60774" lon="-3.45351">
        <ele>110</ele>
        <time>2015-01-04T09:12:24Z</time>
      </trkpt>
      <trkpt lat="48.60772" lon="-3.45358">
        <ele>110</ele>
        <time>2015-01-04T09:12:25Z</time>
      </trkpt>
      <trkpt lat="48.6077" lon="-3.45366">
        <ele>110</ele>
        <time>2015-01-04T09:12:26Z</time>
      </trkpt>
      <trkpt lat="48.60768" lon="-3.45373">
        <ele>110</ele>
        <time>2015-01-04T09:12:27Z</time>
      </trkpt>
      <trkpt lat="48.60767" lon="-3.45381">
        <ele>110</ele>
        <time>2015-01-04T09:12:28Z</time>
      </trkpt>
      <trkpt lat="48.60766" lon="-3.4539">
        <ele>110</ele>
        <time>2015-01-04T09:12:29Z</time>
      </trkpt>
      <trkpt lat="48.60765" lon="-3.45398">
        <ele>110</ele>
        <time>2015-01-04T09:12:30Z</time>
      </trkpt>
      <trkpt lat="48.60765" lon="-3.45406">
        <ele>110</ele>
        <time>2015-01-04T09:12:31Z</time>
      </trkpt>
      <trkpt lat="48.60764" lon="-3.45415">
        <ele>110</ele>
        <time>2015-01-04T09:12:32Z</time>
      </trkpt>
      <trkpt lat="48.60764" lon="-3.45423">
        <ele>111</ele>
        <time>2015-01-04T09:12:33Z</time>
      </trkpt>
      <trkpt lat="48.60763" lon="-3.45431">
        <ele>111</ele>
        <time>2015-01-04T09:12:34Z</time>
      </trkpt>
      <trkpt lat="48.60763" lon="-3.4544">
        <ele>111</ele>
        <time>2015-01-04T09:12:35Z</time>
      </trkpt>
      <trkpt lat="48.60762" lon="-3.45449">
        <ele>111</ele>
        <time>2015-01-04T09:12:36Z</time>
      </trkpt>
      <trkpt lat="48.60762" lon="-3.45459">
        <ele>111</ele>
        <time>2015-01-04T09:12:37Z</time>
      </trkpt>
      <trkpt lat="48.60762" lon="-3.45469">
        <ele>111</ele>
        <time>2015-01-04T09:12:38Z</time>
      </trkpt>
      <trkpt lat="48.60761" lon="-3.4548">
        <ele>111</ele>
        <time>2015-01-04T09:12:39Z</time>
      </trkpt>
      <trkpt lat="48.60762" lon="-3.45492">
        <ele>111</ele>
        <time>2015-01-04T09:12:40Z</time>
      </trkpt>
      <trkpt lat="48.60762" lon="-3.45504">
        <ele>111</ele>
        <time>2015-01-04T09:12:41Z</time>
      </trkpt>
      <trkpt lat="48.60764" lon="-3.45516">
        <ele>111</ele>
        <time>2015-01-04T09:12:42Z</time>
      </trkpt>
      <trkpt lat="48.60766" lon="-3.45528">
        <ele>111</ele>
        <time>2015-01-04T09:12:43Z</time>
      </trkpt>
      <trkpt lat="48.6077" lon="-3.45539">
        <ele>111</ele>
        <time>2015-01-04T09:12:44Z</time>
      </trkpt>
      <trkpt lat="48.60773" lon="-3.4555">
        <ele>111</ele>
        <time>2015-01-04T09:12:45Z</time>
      </trkpt>
      <trkpt lat="48.60776" lon="-3.4556">
        <ele>111</ele>
        <time>2015-01-04T09:12:46Z</time>
      </trkpt>
      <trkpt lat="48.60779" lon="-3.4557">
        <ele>111</ele>
        <time>2015-01-04T09:12:47Z</time>
      </trkpt>
      <trkpt lat="48.60783" lon="-3.45579">
        <ele>111</ele>
        <time>2015-01-04T09:12:48Z</time>
      </trkpt>
      <trkpt lat="48.60785" lon="-3.45588">
        <ele>111</ele>
        <time>2015-01-04T09:12:49Z</time>
      </trkpt>
      <trkpt lat="48.60788" lon="-3.45596">
        <ele>111</ele>
        <time>2015-01-04T09:12:50Z</time>
      </trkpt>
      <trkpt lat="48.6079" lon="-3.45604">
        <ele>111</ele>
        <time>2015-01-04T09:12:51Z</time>
      </trkpt>
      <trkpt lat="48.60791" lon="-3.45611">
        <ele>111</ele>
        <time>2015-01-04T09:12:52Z</time>
      </trkpt>
      <trkpt lat="48.60793" lon="-3.45619">
        <ele>111</ele>
        <time>2015-01-04T09:12:53Z</time>
      </trkpt>
      <trkpt lat="48.60795" lon="-3.45627">
        <ele>112</ele>
        <time>2015-01-04T09:12:54Z</time>
      </trkpt>
      <trkpt lat="48.60796" lon="-3.45634">
        <ele>112</ele>
        <time>2015-01-04T09:12:55Z</time>
      </trkpt>
      <trkpt lat="48.60797" lon="-3.45642">
        <ele>112</ele>
        <time>2015-01-04T09:12:56Z</time>
      </trkpt>
      <trkpt lat="48.60798" lon="-3.45651">
        <ele>112</ele>
        <time>2015-01-04T09:12:57Z</time>
      </trkpt>
      <trkpt lat="48.60799" lon="-3.45659">
        <ele>113</ele>
        <time>2015-01-04T09:12:58Z</time>
      </trkpt>
      <trkpt lat="48.60799" lon="-3.45667">
        <ele>113</ele>
        <time>2015-01-04T09:12:59Z</time>
      </trkpt>
      <trkpt lat="48.608" lon="-3.45675">
        <ele>113</ele>
        <time>2015-01-04T09:13:00Z</time>
      </trkpt>
      <trkpt lat="48.608" lon="-3.45683">
        <ele>113</ele>
        <time>2015-01-04T09:13:01Z</time>
      </trkpt>
      <trkpt lat="48.608" lon="-3.45691">
        <ele>113</ele>
        <time>2015-01-04T09:13:02Z</time>
      </trkpt>
      <trkpt lat="48.60799" lon="-3.45705">
        <ele>114</ele>
        <time>2015-01-04T09:13:04Z</time>
      </trkpt>
      <trkpt lat="48.60799" lon="-3.45711">
        <ele>114</ele>
        <time>2015-01-04T09:13:05Z</time>
      </trkpt>
      <trkpt lat="48.60799" lon="-3.45718">
        <ele>114</ele>
        <time>2015-01-04T09:13:06Z</time>
      </trkpt>
      <trkpt lat="48.60798" lon="-3.45725">
        <ele>114</ele>
        <time>2015-01-04T09:13:07Z</time>
      </trkpt>
      <trkpt lat="48.60797" lon="-3.45732">
        <ele>114</ele>
        <time>2015-01-04T09:13:08Z</time>
      </trkpt>
      <trkpt lat="48.60796" lon="-3.45738">
        <ele>115</ele>
        <time>2015-01-04T09:13:09Z</time>
      </trkpt>
      <trkpt lat="48.60795" lon="-3.45745">
        <ele>115</ele>
        <time>2015-01-04T09:13:10Z</time>
      </trkpt>
      <trkpt lat="48.60794" lon="-3.45752">
        <ele>115</ele>
        <time>2015-01-04T09:13:11Z</time>
      </trkpt>
      <trkpt lat="48.60793" lon="-3.45758">
        <ele>116</ele>
        <time>2015-01-04T09:13:12Z</time>
      </trkpt>
      <trkpt lat="48.60791" lon="-3.45765">
        <ele>116</ele>
        <time>2015-01-04T09:13:13Z</time>
      </trkpt>
      <trkpt lat="48.60789" lon="-3.45772">
        <ele>116</ele>
        <time>2015-01-04T09:13:14Z</time>
      </trkpt>
      <trkpt lat="48.60788" lon="-3.45778">
        <ele>116</ele>
        <time>2015-01-04T09:13:15Z</time>
      </trkpt>
      <trkpt lat="48.60786" lon="-3.45784">
        <ele>117</ele>
        <time>2015-01-04T09:13:16Z</time>
      </trkpt>
      <trkpt lat="48.60784" lon="-3.4579">
        <ele>117</ele>
        <time>2015-01-04T09:13:17Z</time>
      </trkpt>
      <trkpt lat="48.60781" lon="-3.45797">
        <ele>117</ele>
        <time>2015-01-04T09:13:18Z</time>
      </trkpt>
      <trkpt lat="48.6078" lon="-3.45803">
        <ele>117</ele>
        <time>2015-01-04T09:13:19Z</time>
      </trkpt>
      <trkpt lat="48.60777" lon="-3.45809">
        <ele>118</ele>
        <time>2015-01-04T09:13:20Z</time>
      </trkpt>
      <trkpt lat="48.60775" lon="-3.45815">
        <ele>118</ele>
        <time>2015-01-04T09:13:21Z</time>
      </trkpt>
      <trkpt lat="48.60773" lon="-3.45821">
        <ele>118</ele>
        <time>2015-01-04T09:13:22Z</time>
      </trkpt>
      <trkpt lat="48.60771" lon="-3.45827">
        <ele>118</ele>
        <time>2015-01-04T09:13:23Z</time>
      </trkpt>
      <trkpt lat="48.60769" lon="-3.45832">
        <ele>118</ele>
        <time>2015-01-04T09:13:24Z</time>
      </trkpt>
      <trkpt lat="48.60767" lon="-3.45838">
        <ele>118</ele>
        <time>2015-01-04T09:13:25Z</time>
      </trkpt>
      <trkpt lat="48.60766" lon="-3.45844">
        <ele>119</ele>
        <time>2015-01-04T09:13:26Z</time>
      </trkpt>
      <trkpt lat="48.60764" lon="-3.4585">
        <ele>119</ele>
        <time>2015-01-04T09:13:27Z</time>
      </trkpt>
      <trkpt lat="48.60762" lon="-3.45857">
        <ele>119</ele>
        <time>2015-01-04T09:13:28Z</time>
      </trkpt>
      <trkpt lat="48.60761" lon="-3.45865">
        <ele>119</ele>
        <time>2015-01-04T09:13:29Z</time>
      </trkpt>
      <trkpt lat="48.60759" lon="-3.45872">
        <ele>119</ele>
        <time>2015-01-04T09:13:30Z</time>
      </trkpt>
      <trkpt lat="48.60758" lon="-3.4588">
        <ele>119</ele>
        <time>2015-01-04T09:13:31Z</time>
      </trkpt>
      <trkpt lat="48.60756" lon="-3.45888">
        <ele>119</ele>
        <time>2015-01-04T09:13:32Z</time>
      </trkpt>
      <trkpt lat="48.60754" lon="-3.45896">
        <ele>119</ele>
        <time>2015-01-04T09:13:33Z</time>
      </trkpt>
      <trkpt lat="48.60751" lon="-3.45904">
        <ele>119</ele>
        <time>2015-01-04T09:13:34Z</time>
      </trkpt>
      <trkpt lat="48.60748" lon="-3.45912">
        <ele>119</ele>
        <time>2015-01-04T09:13:35Z</time>
      </trkpt>
      <trkpt lat="48.60745" lon="-3.45919">
        <ele>119</ele>
        <time>2015-01-04T09:13:36Z</time>
      </trkpt>
      <trkpt lat="48.60741" lon="-3.45925">
        <ele>119</ele>
        <time>2015-01-04T09:13:37Z</time>
      </trkpt>
      <trkpt lat="48.60735" lon="-3.45931">
        <ele>119</ele>
        <time>2015-01-04T09:13:38Z</time>
      </trkpt>
      <trkpt lat="48.6073" lon="-3.45936">
        <ele>119</ele>
        <time>2015-01-04T09:13:39Z</time>
      </trkpt>
      <trkpt lat="48.60724" lon="-3.4594">
        <ele>119</ele>
        <time>2015-01-04T09:13:40Z</time>
      </trkpt>
      <trkpt lat="48.60717" lon="-3.45944">
        <ele>119</ele>
        <time>2015-01-04T09:13:41Z</time>
      </trkpt>
      <trkpt lat="48.60711" lon="-3.45946">
        <ele>119</ele>
        <time>2015-01-04T09:13:42Z</time>
      </trkpt>
      <trkpt lat="48.60704" lon="-3.45948">
        <ele>119</ele>
        <time>2015-01-04T09:13:43Z</time>
      </trkpt>
      <trkpt lat="48.60697" lon="-3.4595">
        <ele>119</ele>
        <time>2015-01-04T09:13:44Z</time>
      </trkpt>
      <trkpt lat="48.60691" lon="-3.45951">
        <ele>119</ele>
        <time>2015-01-04T09:13:45Z</time>
      </trkpt>
      <trkpt lat="48.60684" lon="-3.45953">
        <ele>119</ele>
        <time>2015-01-04T09:13:46Z</time>
      </trkpt>
      <trkpt lat="48.60677" lon="-3.45955">
        <ele>119</ele>
        <time>2015-01-04T09:13:47Z</time>
      </trkpt>
      <trkpt lat="48.6067" lon="-3.45957">
        <ele>119</ele>
        <time>2015-01-04T09:13:48Z</time>
      </trkpt>
      <trkpt lat="48.60663" lon="-3.45959">
        <ele>119</ele>
        <time>2015-01-04T09:13:49Z</time>
      </trkpt>
      <trkpt lat="48.60656" lon="-3.45963">
        <ele>119</ele>
        <time>2015-01-04T09:13:50Z</time>
      </trkpt>
      <trkpt lat="48.60649" lon="-3.45968">
        <ele>119</ele>
        <time>2015-01-04T09:13:51Z</time>
      </trkpt>
      <trkpt lat="48.60643" lon="-3.45974">
        <ele>119</ele>
        <time>2015-01-04T09:13:52Z</time>
      </trkpt>
      <trkpt lat="48.60637" lon="-3.45981">
        <ele>119</ele>
        <time>2015-01-04T09:13:53Z</time>
      </trkpt>
      <trkpt lat="48.60632" lon="-3.45989">
        <ele>119</ele>
        <time>2015-01-04T09:13:54Z</time>
      </trkpt>
      <trkpt lat="48.60627" lon="-3.45998">
        <ele>119</ele>
        <time>2015-01-04T09:13:55Z</time>
      </trkpt>
      <trkpt lat="48.60623" lon="-3.46008">
        <ele>119</ele>
        <time>2015-01-04T09:13:56Z</time>
      </trkpt>
      <trkpt lat="48.60619" lon="-3.46019">
        <ele>119</ele>
        <time>2015-01-04T09:13:57Z</time>
      </trkpt>
      <trkpt lat="48.60617" lon="-3.46031">
        <ele>119</ele>
        <time>2015-01-04T09:13:58Z</time>
      </trkpt>
      <trkpt lat="48.60615" lon="-3.46042">
        <ele>119</ele>
        <time>2015-01-04T09:13:59Z</time>
      </trkpt>
      <trkpt lat="48.60614" lon="-3.46054">
        <ele>119</ele>
        <time>2015-01-04T09:14:00Z</time>
      </trkpt>
      <trkpt lat="48.60613" lon="-3.46066">
        <ele>119</ele>
        <time>2015-01-04T09:14:01Z</time>
      </trkpt>
      <trkpt lat="48.60612" lon="-3.46078">
        <ele>119</ele>
        <time>2015-01-04T09:14:02Z</time>
      </trkpt>
      <trkpt lat="48.60612" lon="-3.46089">
        <ele>119</ele>
        <time>2015-01-04T09:14:03Z</time>
      </trkpt>
      <trkpt lat="48.60612" lon="-3.46111">
        <ele>118</ele>
        <time>2015-01-04T09:14:05Z</time>
      </trkpt>
      <trkpt lat="48.60611" lon="-3.46122">
        <ele>118</ele>
        <time>2015-01-04T09:14:06Z</time>
      </trkpt>
      <trkpt lat="48.60611" lon="-3.46177">
        <ele>117</ele>
        <time>2015-01-04T09:14:11Z</time>
      </trkpt>
      <trkpt lat="48.60611" lon="-3.46188">
        <ele>117</ele>
        <time>2015-01-04T09:14:12Z</time>
      </trkpt>
      <trkpt lat="48.6061" lon="-3.46199">
        <ele>117</ele>
        <time>2015-01-04T09:14:13Z</time>
      </trkpt>
      <trkpt lat="48.6061" lon="-3.4621">
        <ele>117</ele>
        <time>2015-01-04T09:14:14Z</time>
      </trkpt>
      <trkpt lat="48.6061" lon="-3.46232">
        <ele>117</ele>
        <time>2015-01-04T09:14:16Z</time>
      </trkpt>
      <trkpt lat="48.60611" lon="-3.46254">
        <ele>116</ele>
        <time>2015-01-04T09:14:18Z</time>
      </trkpt>
      <trkpt lat="48.60612" lon="-3.46265">
        <ele>116</ele>
        <time>2015-01-04T09:14:19Z</time>
      </trkpt>
      <trkpt lat="48.60613" lon="-3.46276">
        <ele>116</ele>
        <time>2015-01-04T09:14:20Z</time>
      </trkpt>
      <trkpt lat="48.60615" lon="-3.46287">
        <ele>116</ele>
        <time>2015-01-04T09:14:21Z</time>
      </trkpt>
      <trkpt lat="48.60618" lon="-3.46297">
        <ele>116</ele>
        <time>2015-01-04T09:14:22Z</time>
      </trkpt>
      <trkpt lat="48.60621" lon="-3.46307">
        <ele>116</ele>
        <time>2015-01-04T09:14:23Z</time>
      </trkpt>
      <trkpt lat="48.60624" lon="-3.46316">
        <ele>116</ele>
        <time>2015-01-04T09:14:24Z</time>
      </trkpt>
      <trkpt lat="48.60628" lon="-3.46325">
        <ele>116</ele>
        <time>2015-01-04T09:14:25Z</time>
      </trkpt>
      <trkpt lat="48.60632" lon="-3.46335">
        <ele>116</ele>
        <time>2015-01-04T09:14:26Z</time>
      </trkpt>
      <trkpt lat="48.60636" lon="-3.46344">
        <ele>116</ele>
        <time>2015-01-04T09:14:27Z</time>
      </trkpt>
      <trkpt lat="48.6064" lon="-3.46354">
        <ele>116</ele>
        <time>2015-01-04T09:14:28Z</time>
      </trkpt>
      <trkpt lat="48.60642" lon="-3.46363">
        <ele>116</ele>
        <time>2015-01-04T09:14:29Z</time>
      </trkpt>
      <trkpt lat="48.60645" lon="-3.46372">
        <ele>116</ele>
        <time>2015-01-04T09:14:30Z</time>
      </trkpt>
      <trkpt lat="48.60646" lon="-3.46381">
        <ele>116</ele>
        <time>2015-01-04T09:14:31Z</time>
      </trkpt>
      <trkpt lat="48.60648" lon="-3.4639">
        <ele>116</ele>
        <time>2015-01-04T09:14:32Z</time>
      </trkpt>
      <trkpt lat="48.60649" lon="-3.46399">
        <ele>116</ele>
        <time>2015-01-04T09:14:33Z</time>
      </trkpt>
      <trkpt lat="48.6065" lon="-3.46408">
        <ele>116</ele>
        <time>2015-01-04T09:14:34Z</time>
      </trkpt>
      <trkpt lat="48.60651" lon="-3.46417">
        <ele>116</ele>
        <time>2015-01-04T09:14:35Z</time>
      </trkpt>
      <trkpt lat="48.60652" lon="-3.46426">
        <ele>116</ele>
        <time>2015-01-04T09:14:36Z</time>
      </trkpt>
      <trkpt lat="48.60653" lon="-3.46435">
        <ele>116</ele>
        <time>2015-01-04T09:14:37Z</time>
      </trkpt>
      <trkpt lat="48.60654" lon="-3.46444">
        <ele>116</ele>
        <time>2015-01-04T09:14:38Z</time>
      </trkpt>
      <trkpt lat="48.60655" lon="-3.46453">
        <ele>116</ele>
        <time>2015-01-04T09:14:39Z</time>
      </trkpt>
      <trkpt lat="48.60656" lon="-3.46462">
        <ele>116</ele>
        <time>2015-01-04T09:14:40Z</time>
      </trkpt>
      <trkpt lat="48.60657" lon="-3.46471">
        <ele>116</ele>
        <time>2015-01-04T09:14:41Z</time>
      </trkpt>
      <trkpt lat="48.60658" lon="-3.4648">
        <ele>116</ele>
        <time>2015-01-04T09:14:42Z</time>
      </trkpt>
      <trkpt lat="48.60659" lon="-3.46489">
        <ele>116</ele>
        <time>2015-01-04T09:14:43Z</time>
      </trkpt>
      <trkpt lat="48.6066" lon="-3.46497">
        <ele>116</ele>
        <time>2015-01-04T09:14:44Z</time>
      </trkpt>
      <trkpt lat="48.60661" lon="-3.46506">
        <ele>116</ele>
        <time>2015-01-04T09:14:45Z</time>
      </trkpt>
      <trkpt lat="48.60661" lon="-3.46514">
        <ele>116</ele>
        <time>2015-01-04T09:14:46Z</time>
      </trkpt>
      <trkpt lat="48.60662" lon="-3.46523">
        <ele>116</ele>
        <time>2015-01-04T09:14:47Z</time>
      </trkpt>
      <trkpt lat="48.60663" lon="-3.46532">
        <ele>116</ele>
        <time>2015-01-04T09:14:48Z</time>
      </trkpt>
      <trkpt lat="48.60664" lon="-3.4654">
        <ele>116</ele>
        <time>2015-01-04T09:14:49Z</time>
      </trkpt>
      <trkpt lat="48.60665" lon="-3.46549">
        <ele>116</ele>
        <time>2015-01-04T09:14:50Z</time>
      </trkpt>
      <trkpt lat="48.60666" lon="-3.46558">
        <ele>116</ele>
        <time>2015-01-04T09:14:51Z</time>
      </trkpt>
      <trkpt lat="48.60667" lon="-3.46567">
        <ele>116</ele>
        <time>2015-01-04T09:14:52Z</time>
      </trkpt>
      <trkpt lat="48.60668" lon="-3.46576">
        <ele>116</ele>
        <time>2015-01-04T09:14:53Z</time>
      </trkpt>
      <trkpt lat="48.60669" lon="-3.46585">
        <ele>116</ele>
        <time>2015-01-04T09:14:54Z</time>
      </trkpt>
      <trkpt lat="48.60669" lon="-3.46594">
        <ele>116</ele>
        <time>2015-01-04T09:14:55Z</time>
      </trkpt>
      <trkpt lat="48.6067" lon="-3.46603">
        <ele>116</ele>
        <time>2015-01-04T09:14:56Z</time>
      </trkpt>
      <trkpt lat="48.60671" lon="-3.46611">
        <ele>116</ele>
        <time>2015-01-04T09:14:57Z</time>
      </trkpt>
      <trkpt lat="48.60671" lon="-3.4662">
        <ele>116</ele>
        <time>2015-01-04T09:14:58Z</time>
      </trkpt>
      <trkpt lat="48.60672" lon="-3.46629">
        <ele>116</ele>
        <time>2015-01-04T09:14:59Z</time>
      </trkpt>
      <trkpt lat="48.60672" lon="-3.46638">
        <ele>116</ele>
        <time>2015-01-04T09:15:00Z</time>
      </trkpt>
      <trkpt lat="48.60673" lon="-3.46647">
        <ele>116</ele>
        <time>2015-01-04T09:15:01Z</time>
      </trkpt>
      <trkpt lat="48.60674" lon="-3.46655">
        <ele>116</ele>
        <time>2015-01-04T09:15:02Z</time>
      </trkpt>
      <trkpt lat="48.60675" lon="-3.46664">
        <ele>116</ele>
        <time>2015-01-04T09:15:03Z</time>
      </trkpt>
      <trkpt lat="48.60676" lon="-3.46673">
        <ele>116</ele>
        <time>2015-01-04T09:15:04Z</time>
      </trkpt>
      <trkpt lat="48.60677" lon="-3.46682">
        <ele>116</ele>
        <time>2015-01-04T09:15:05Z</time>
      </trkpt>
      <trkpt lat="48.60678" lon="-3.46691">
        <ele>116</ele>
        <time>2015-01-04T09:15:06Z</time>
      </trkpt>
      <trkpt lat="48.60679" lon="-3.46701">
        <ele>116</ele>
        <time>2015-01-04T09:15:07Z</time>
      </trkpt>
      <trkpt lat="48.6068" lon="-3.4671">
        <ele>116</ele>
        <time>2015-01-04T09:15:08Z</time>
      </trkpt>
      <trkpt lat="48.60681" lon="-3.4672">
        <ele>116</ele>
        <time>2015-01-04T09:15:09Z</time>
      </trkpt>
      <trkpt lat="48.60682" lon="-3.46729">
        <ele>116</ele>
        <time>2015-01-04T09:15:10Z</time>
      </trkpt>
      <trkpt lat="48.60683" lon="-3.46739">
        <ele>116</ele>
        <time>2015-01-04T09:15:11Z</time>
      </trkpt>
      <trkpt lat="48.60683" lon="-3.46749">
        <ele>116</ele>
        <time>2015-01-04T09:15:12Z</time>
      </trkpt>
      <trkpt lat="48.60685" lon="-3.46759">
        <ele>116</ele>
        <time>2015-01-04T09:15:13Z</time>
      </trkpt>
      <trkpt lat="48.60685" lon="-3.46769">
        <ele>116</ele>
        <time>2015-01-04T09:15:14Z</time>
      </trkpt>
      <trkpt lat="48.60686" lon="-3.46779">
        <ele>116</ele>
        <time>2015-01-04T09:15:15Z</time>
      </trkpt>
      <trkpt lat="48.60687" lon="-3.4679">
        <ele>116</ele>
        <time>2015-01-04T09:15:16Z</time>
      </trkpt>
      <trkpt lat="48.60688" lon="-3.468">
        <ele>116</ele>
        <time>2015-01-04T09:15:17Z</time>
      </trkpt>
      <trkpt lat="48.6069" lon="-3.4681">
        <ele>116</ele>
        <time>2015-01-04T09:15:18Z</time>
      </trkpt>
      <trkpt lat="48.60691" lon="-3.46821">
        <ele>116</ele>
        <time>2015-01-04T09:15:19Z</time>
      </trkpt>
      <trkpt lat="48.60692" lon="-3.46831">
        <ele>116</ele>
        <time>2015-01-04T09:15:20Z</time>
      </trkpt>
      <trkpt lat="48.60694" lon="-3.46842">
        <ele>116</ele>
        <time>2015-01-04T09:15:21Z</time>
      </trkpt>
      <trkpt lat="48.60696" lon="-3.46852">
        <ele>116</ele>
        <time>2015-01-04T09:15:22Z</time>
      </trkpt>
      <trkpt lat="48.60698" lon="-3.46863">
        <ele>116</ele>
        <time>2015-01-04T09:15:23Z</time>
      </trkpt>
      <trkpt lat="48.60701" lon="-3.46873">
        <ele>116</ele>
        <time>2015-01-04T09:15:24Z</time>
      </trkpt>
      <trkpt lat="48.60704" lon="-3.46883">
        <ele>116</ele>
        <time>2015-01-04T09:15:25Z</time>
      </trkpt>
      <trkpt lat="48.60708" lon="-3.46893">
        <ele>116</ele>
        <time>2015-01-04T09:15:26Z</time>
      </trkpt>
      <trkpt lat="48.60712" lon="-3.46901">
        <ele>116</ele>
        <time>2015-01-04T09:15:27Z</time>
      </trkpt>
      <trkpt lat="48.60717" lon="-3.4691">
        <ele>116</ele>
        <time>2015-01-04T09:15:28Z</time>
      </trkpt>
      <trkpt lat="48.60722" lon="-3.46918">
        <ele>116</ele>
        <time>2015-01-04T09:15:29Z</time>
      </trkpt>
      <trkpt lat="48.60728" lon="-3.46925">
        <ele>116</ele>
        <time>2015-01-04T09:15:30Z</time>
      </trkpt>
      <trkpt lat="48.60735" lon="-3.46932">
        <ele>116</ele>
        <time>2015-01-04T09:15:31Z</time>
      </trkpt>
      <trkpt lat="48.60741" lon="-3.46938">
        <ele>116</ele>
        <time>2015-01-04T09:15:32Z</time>
      </trkpt>
      <trkpt lat="48.60748" lon="-3.46944">
        <ele>116</ele>
        <time>2015-01-04T09:15:33Z</time>
      </trkpt>
      <trkpt lat="48.60755" lon="-3.4695">
        <ele>116</ele>
        <time>2015-01-04T09:15:34Z</time>
      </trkpt>
      <trkpt lat="48.60762" lon="-3.46955">
        <ele>116</ele>
        <time>2015-01-04T09:15:35Z</time>
      </trkpt>
      <trkpt lat="48.6077" lon="-3.46961">
        <ele>116</ele>
        <time>2015-01-04T09:15:36Z</time>
      </trkpt>
      <trkpt lat="48.60777" lon="-3.46967">
        <ele>116</ele>
        <time>2015-01-04T09:15:37Z</time>
      </trkpt>
      <trkpt lat="48.60785" lon="-3.46973">
        <ele>116</ele>
        <time>2015-01-04T09:15:38Z</time>
      </trkpt>
      <trkpt lat="48.60793" lon="-3.46979">
        <ele>116</ele>
        <time>2015-01-04T09:15:39Z</time>
      </trkpt>
      <trkpt lat="48.60801" lon="-3.46984">
        <ele>115</ele>
        <time>2015-01-04T09:15:40Z</time>
      </trkpt>
      <trkpt lat="48.6081" lon="-3.4699">
        <ele>115</ele>
        <time>2015-01-04T09:15:41Z</time>
      </trkpt>
      <trkpt lat="48.60818" lon="-3.46996">
        <ele>114</ele>
        <time>2015-01-04T09:15:42Z</time>
      </trkpt>
      <trkpt lat="48.60827" lon="-3.47002">
        <ele>114</ele>
        <time>2015-01-04T09:15:43Z</time>
      </trkpt>
      <trkpt lat="48.60836" lon="-3.47008">
        <ele>113</ele>
        <time>2015-01-04T09:15:44Z</time>
      </trkpt>
      <trkpt lat="48.60844" lon="-3.47015">
        <ele>113</ele>
        <time>2015-01-04T09:15:45Z</time>
      </trkpt>
      <trkpt lat="48.60853" lon="-3.47021">
        <ele>112</ele>
        <time>2015-01-04T09:15:46Z</time>
      </trkpt>
      <trkpt lat="48.60862" lon="-3.47028">
        <ele>112</ele>
        <time>2015-01-04T09:15:47Z</time>
      </trkpt>
      <trkpt lat="48.60871" lon="-3.47034">
        <ele>111</ele>
        <time>2015-01-04T09:15:48Z</time>
      </trkpt>
      <trkpt lat="48.6088" lon="-3.47041">
        <ele>111</ele>
        <time>2015-01-04T09:15:49Z</time>
      </trkpt>
      <trkpt lat="48.60889" lon="-3.47048">
        <ele>111</ele>
        <time>2015-01-04T09:15:50Z</time>
      </trkpt>
      <trkpt lat="48.60897" lon="-3.47055">
        <ele>110</ele>
        <time>2015-01-04T09:15:51Z</time>
      </trkpt>
      <trkpt lat="48.60905" lon="-3.4706">
        <ele>110</ele>
        <time>2015-01-04T09:15:52Z</time>
      </trkpt>
      <trkpt lat="48.60914" lon="-3.47067">
        <ele>110</ele>
        <time>2015-01-04T09:15:53Z</time>
      </trkpt>
      <trkpt lat="48.60922" lon="-3.47073">
        <ele>109</ele>
        <time>2015-01-04T09:15:54Z</time>
      </trkpt>
      <trkpt lat="48.6093" lon="-3.47078">
        <ele>109</ele>
        <time>2015-01-04T09:15:55Z</time>
      </trkpt>
      <trkpt lat="48.60938" lon="-3.47084">
        <ele>109</ele>
        <time>2015-01-04T09:15:56Z</time>
      </trkpt>
      <trkpt lat="48.60946" lon="-3.4709">
        <ele>109</ele>
        <time>2015-01-04T09:15:57Z</time>
      </trkpt>
      <trkpt lat="48.60953" lon="-3.47095">
        <ele>109</ele>
        <time>2015-01-04T09:15:58Z</time>
      </trkpt>
      <trkpt lat="48.6096" lon="-3.471">
        <ele>109</ele>
        <time>2015-01-04T09:15:59Z</time>
      </trkpt>
      <trkpt lat="48.60966" lon="-3.47105">
        <ele>109</ele>
        <time>2015-01-04T09:16:00Z</time>
      </trkpt>
      <trkpt lat="48.60973" lon="-3.4711">
        <ele>109</ele>
        <time>2015-01-04T09:16:01Z</time>
      </trkpt>
      <trkpt lat="48.60979" lon="-3.47114">
        <ele>109</ele>
        <time>2015-01-04T09:16:02Z</time>
      </trkpt>
      <trkpt lat="48.60984" lon="-3.47118">
        <ele>109</ele>
        <time>2015-01-04T09:16:03Z</time>
      </trkpt>
      <trkpt lat="48.6099" lon="-3.47122">
        <ele>109</ele>
        <time>2015-01-04T09:16:04Z</time>
      </trkpt>
      <trkpt lat="48.60996" lon="-3.47126">
        <ele>109</ele>
        <time>2015-01-04T09:16:05Z</time>
      </trkpt>
      <trkpt lat="48.61001" lon="-3.4713">
        <ele>109</ele>
        <time>2015-01-04T09:16:06Z</time>
      </trkpt>
      <trkpt lat="48.61007" lon="-3.47135">
        <ele>109</ele>
        <time>2015-01-04T09:16:07Z</time>
      </trkpt>
      <trkpt lat="48.61013" lon="-3.47139">
        <ele>109</ele>
        <time>2015-01-04T09:16:08Z</time>
      </trkpt>
      <trkpt lat="48.61018" lon="-3.47144">
        <ele>109</ele>
        <time>2015-01-04T09:16:09Z</time>
      </trkpt>
      <trkpt lat="48.61024" lon="-3.47148">
        <ele>109</ele>
        <time>2015-01-04T09:16:10Z</time>
      </trkpt>
      <trkpt lat="48.61029" lon="-3.47151">
        <ele>109</ele>
        <time>2015-01-04T09:16:11Z</time>
      </trkpt>
      <trkpt lat="48.61034" lon="-3.47155">
        <ele>109</ele>
        <time>2015-01-04T09:16:12Z</time>
      </trkpt>
      <trkpt lat="48.6104" lon="-3.47159">
        <ele>109</ele>
        <time>2015-01-04T09:16:13Z</time>
      </trkpt>
      <trkpt lat="48.61045" lon="-3.47163">
        <ele>109</ele>
        <time>2015-01-04T09:16:14Z</time>
      </trkpt>
      <trkpt lat="48.6105" lon="-3.47166">
        <ele>109</ele>
        <time>2015-01-04T09:16:15Z</time>
      </trkpt>
      <trkpt lat="48.61054" lon="-3.4717">
        <ele>109</ele>
        <time>2015-01-04T09:16:16Z</time>
      </trkpt>
      <trkpt lat="48.61059" lon="-3.47174">
        <ele>109</ele>
        <time>2015-01-04T09:16:17Z</time>
      </trkpt>
      <trkpt lat="48.61063" lon="-3.47177">
        <ele>109</ele>
        <time>2015-01-04T09:16:18Z</time>
      </trkpt>
      <trkpt lat="48.61068" lon="-3.4718">
        <ele>109</ele>
        <time>2015-01-04T09:16:19Z</time>
      </trkpt>
      <trkpt lat="48.61072" lon="-3.47184">
        <ele>110</ele>
        <time>2015-01-04T09:16:20Z</time>
      </trkpt>
      <trkpt lat="48.61077" lon="-3.47188">
        <ele>110</ele>
        <time>2015-01-04T09:16:21Z</time>
      </trkpt>
      <trkpt lat="48.61081" lon="-3.47191">
        <ele>110</ele>
        <time>2015-01-04T09:16:22Z</time>
      </trkpt>
      <trkpt lat="48.61085" lon="-3.47194">
        <ele>111</ele>
        <time>2015-01-04T09:16:23Z</time>
      </trkpt>
      <trkpt lat="48.6109" lon="-3.47197">
        <ele>111</ele>
        <time>2015-01-04T09:16:24Z</time>
      </trkpt>
      <trkpt lat="48.61094" lon="-3.472">
        <ele>111</ele>
        <time>2015-01-04T09:16:25Z</time>
      </trkpt>
      <trkpt lat="48.61098" lon="-3.47203">
        <ele>111</ele>
        <time>2015-01-04T09:16:26Z</time>
      </trkpt>
      <trkpt lat="48.61103" lon="-3.47206">
        <ele>112</ele>
        <time>2015-01-04T09:16:27Z</time>
      </trkpt>
      <trkpt lat="48.61107" lon="-3.4721">
        <ele>112</ele>
        <time>2015-01-04T09:16:28Z</time>
      </trkpt>
      <trkpt lat="48.61112" lon="-3.47213">
        <ele>112</ele>
        <time>2015-01-04T09:16:29Z</time>
      </trkpt>
      <trkpt lat="48.61116" lon="-3.47216">
        <ele>112</ele>
        <time>2015-01-04T09:16:30Z</time>
      </trkpt>
      <trkpt lat="48.61121" lon="-3.47219">
        <ele>112</ele>
        <time>2015-01-04T09:16:31Z</time>
      </trkpt>
      <trkpt lat="48.61125" lon="-3.47223">
        <ele>113</ele>
        <time>2015-01-04T09:16:32Z</time>
      </trkpt>
      <trkpt lat="48.6113" lon="-3.47226">
        <ele>113</ele>
        <time>2015-01-04T09:16:33Z</time>
      </trkpt>
      <trkpt lat="48.61134" lon="-3.47229">
        <ele>113</ele>
        <time>2015-01-04T09:16:34Z</time>
      </trkpt>
      <trkpt lat="48.61139" lon="-3.47233">
        <ele>113</ele>
        <time>2015-01-04T09:16:35Z</time>
      </trkpt>
      <trkpt lat="48.61143" lon="-3.47236">
        <ele>114</ele>
        <time>2015-01-04T09:16:36Z</time>
      </trkpt>
      <trkpt lat="48.61147" lon="-3.4724">
        <ele>114</ele>
        <time>2015-01-04T09:16:37Z</time>
      </trkpt>
      <trkpt lat="48.61152" lon="-3.47243">
        <ele>114</ele>
        <time>2015-01-04T09:16:38Z</time>
      </trkpt>
      <trkpt lat="48.61156" lon="-3.47246">
        <ele>114</ele>
        <time>2015-01-04T09:16:39Z</time>
      </trkpt>
      <trkpt lat="48.6116" lon="-3.47249">
        <ele>115</ele>
        <time>2015-01-04T09:16:40Z</time>
      </trkpt>
      <trkpt lat="48.61163" lon="-3.47251">
        <ele>115</ele>
        <time>2015-01-04T09:16:41Z</time>
      </trkpt>
      <trkpt lat="48.61167" lon="-3.47254">
        <ele>115</ele>
        <time>2015-01-04T09:16:42Z</time>
      </trkpt>
      <trkpt lat="48.61171" lon="-3.47257">
        <ele>115</ele>
        <time>2015-01-04T09:16:43Z</time>
      </trkpt>
      <trkpt lat="48.61173" lon="-3.47262">
        <ele>115</ele>
        <time>2015-01-04T09:16:44Z</time>
      </trkpt>
      <trkpt lat="48.61175" lon="-3.47268">
        <ele>115</ele>
        <time>2015-01-04T09:16:45Z</time>
      </trkpt>
      <trkpt lat="48.61176" lon="-3.47273">
        <ele>115</ele>
        <time>2015-01-04T09:16:46Z</time>
      </trkpt>
      <trkpt lat="48.61176" lon="-3.4728">
        <ele>116</ele>
        <time>2015-01-04T09:16:47Z</time>
      </trkpt>
      <trkpt lat="48.61176" lon="-3.47293">
        <ele>116</ele>
        <time>2015-01-04T09:16:49Z</time>
      </trkpt>
      <trkpt lat="48.61176" lon="-3.47301">
        <ele>116</ele>
        <time>2015-01-04T09:16:50Z</time>
      </trkpt>
      <trkpt lat="48.61175" lon="-3.47316">
        <ele>116</ele>
        <time>2015-01-04T09:16:52Z</time>
      </trkpt>
      <trkpt lat="48.61174" lon="-3.4733">
        <ele>116</ele>
        <time>2015-01-04T09:16:54Z</time>
      </trkpt>
      <trkpt lat="48.61174" lon="-3.47337">
        <ele>116</ele>
        <time>2015-01-04T09:16:55Z</time>
      </trkpt>
      <trkpt lat="48.61173" lon="-3.47342">
        <ele>116</ele>
        <time>2015-01-04T09:16:56Z</time>
      </trkpt>
      <trkpt lat="48.61172" lon="-3.47347">
        <ele>116</ele>
        <time>2015-01-04T09:16:57Z</time>
      </trkpt>
      <trkpt lat="48.61171" lon="-3.47352">
        <ele>116</ele>
        <time>2015-01-04T09:16:58Z</time>
      </trkpt>
      <trkpt lat="48.61169" lon="-3.47357">
        <ele>116</ele>
        <time>2015-01-04T09:16:59Z</time>
      </trkpt>
      <trkpt lat="48.61168" lon="-3.47362">
        <ele>116</ele>
        <time>2015-01-04T09:17:00Z</time>
      </trkpt>
      <trkpt lat="48.61166" lon="-3.47369">
        <ele>116</ele>
        <time>2015-01-04T09:17:01Z</time>
      </trkpt>
      <trkpt lat="48.61165" lon="-3.47376">
        <ele>116</ele>
        <time>2015-01-04T09:17:02Z</time>
      </trkpt>
      <trkpt lat="48.61164" lon="-3.47384">
        <ele>116</ele>
        <time>2015-01-04T09:17:03Z</time>
      </trkpt>
      <trkpt lat="48.61162" lon="-3.47392">
        <ele>116</ele>
        <time>2015-01-04T09:17:04Z</time>
      </trkpt>
      <trkpt lat="48.6116" lon="-3.474">
        <ele>116</ele>
        <time>2015-01-04T09:17:05Z</time>
      </trkpt>
      <trkpt lat="48.61158" lon="-3.47409">
        <ele>116</ele>
        <time>2015-01-04T09:17:06Z</time>
      </trkpt>
      <trkpt lat="48.61155" lon="-3.47417">
        <ele>116</ele>
        <time>2015-01-04T09:17:07Z</time>
      </trkpt>
      <trkpt lat="48.61153" lon="-3.47426">
        <ele>116</ele>
        <time>2015-01-04T09:17:08Z</time>
      </trkpt>
      <trkpt lat="48.6115" lon="-3.47435">
        <ele>116</ele>
        <time>2015-01-04T09:17:09Z</time>
      </trkpt>
      <trkpt lat="48.61147" lon="-3.47443">
        <ele>116</ele>
        <time>2015-01-04T09:17:10Z</time>
      </trkpt>
      <trkpt lat="48.61143" lon="-3.47452">
        <ele>116</ele>
        <time>2015-01-04T09:17:11Z</time>
      </trkpt>
      <trkpt lat="48.61139" lon="-3.47459">
        <ele>116</ele>
        <time>2015-01-04T09:17:12Z</time>
      </trkpt>
      <trkpt lat="48.61135" lon="-3.47467">
        <ele>116</ele>
        <time>2015-01-04T09:17:13Z</time>
      </trkpt>
      <trkpt lat="48.6113" lon="-3.47474">
        <ele>116</ele>
        <time>2015-01-04T09:17:14Z</time>
      </trkpt>
      <trkpt lat="48.61125" lon="-3.47481">
        <ele>116</ele>
        <time>2015-01-04T09:17:15Z</time>
      </trkpt>
      <trkpt lat="48.6112" lon="-3.47487">
        <ele>116</ele>
        <time>2015-01-04T09:17:16Z</time>
      </trkpt>
      <trkpt lat="48.61115" lon="-3.47493">
        <ele>116</ele>
        <time>2015-01-04T09:17:17Z</time>
      </trkpt>
      <trkpt lat="48.61109" lon="-3.47499">
        <ele>116</ele>
        <time>2015-01-04T09:17:18Z</time>
      </trkpt>
      <trkpt lat="48.61103" lon="-3.47504">
        <ele>116</ele>
        <time>2015-01-04T09:17:19Z</time>
      </trkpt>
      <trkpt lat="48.61097" lon="-3.47509">
        <ele>116</ele>
        <time>2015-01-04T09:17:20Z</time>
      </trkpt>
      <trkpt lat="48.6109" lon="-3.47515">
        <ele>116</ele>
        <time>2015-01-04T09:17:21Z</time>
      </trkpt>
      <trkpt lat="48.61084" lon="-3.4752">
        <ele>116</ele>
        <time>2015-01-04T09:17:22Z</time>
      </trkpt>
      <trkpt lat="48.61078" lon="-3.47526">
        <ele>116</ele>
        <time>2015-01-04T09:17:23Z</time>
      </trkpt>
      <trkpt lat="48.61072" lon="-3.47531">
        <ele>116</ele>
        <time>2015-01-04T09:17:24Z</time>
      </trkpt>
      <trkpt lat="48.61066" lon="-3.47537">
        <ele>116</ele>
        <time>2015-01-04T09:17:25Z</time>
      </trkpt>
      <trkpt lat="48.61059" lon="-3.47543">
        <ele>116</ele>
        <time>2015-01-04T09:17:26Z</time>
      </trkpt>
      <trkpt lat="48.61053" lon="-3.47549">
        <ele>116</ele>
        <time>2015-01-04T09:17:27Z</time>
      </trkpt>
      <trkpt lat="48.61047" lon="-3.47554">
        <ele>116</ele>
        <time>2015-01-04T09:17:28Z</time>
      </trkpt>
      <trkpt lat="48.61041" lon="-3.4756">
        <ele>116</ele>
        <time>2015-01-04T09:17:29Z</time>
      </trkpt>
      <trkpt lat="48.61034" lon="-3.47566">
        <ele>116</ele>
        <time>2015-01-04T09:17:30Z</time>
      </trkpt>
      <trkpt lat="48.61028" lon="-3.47572">
        <ele>116</ele>
        <time>2015-01-04T09:17:31Z</time>
      </trkpt>
      <trkpt lat="48.61022" lon="-3.47578">
        <ele>116</ele>
        <time>2015-01-04T09:17:32Z</time>
      </trkpt>
      <trkpt lat="48.61015" lon="-3.47584">
        <ele>116</ele>
        <time>2015-01-04T09:17:33Z</time>
      </trkpt>
      <trkpt lat="48.61009" lon="-3.4759">
        <ele>116</ele>
        <time>2015-01-04T09:17:34Z</time>
      </trkpt>
      <trkpt lat="48.61003" lon="-3.47597">
        <ele>116</ele>
        <time>2015-01-04T09:17:35Z</time>
      </trkpt>
      <trkpt lat="48.60997" lon="-3.47603">
        <ele>116</ele>
        <time>2015-01-04T09:17:36Z</time>
      </trkpt>
      <trkpt lat="48.60991" lon="-3.47609">
        <ele>116</ele>
        <time>2015-01-04T09:17:37Z</time>
      </trkpt>
      <trkpt lat="48.60985" lon="-3.47616">
        <ele>116</ele>
        <time>2015-01-04T09:17:38Z</time>
      </trkpt>
      <trkpt lat="48.60979" lon="-3.47622">
        <ele>116</ele>
        <time>2015-01-04T09:17:39Z</time>
      </trkpt>
      <trkpt lat="48.60973" lon="-3.47628">
        <ele>116</ele>
        <time>2015-01-04T09:17:40Z</time>
      </trkpt>
      <trkpt lat="48.60967" lon="-3.47635">
        <ele>116</ele>
        <time>2015-01-04T09:17:41Z</time>
      </trkpt>
      <trkpt lat="48.60961" lon="-3.47641">
        <ele>116</ele>
        <time>2015-01-04T09:17:42Z</time>
      </trkpt>
      <trkpt lat="48.60955" lon="-3.47648">
        <ele>116</ele>
        <time>2015-01-04T09:17:43Z</time>
      </trkpt>
      <trkpt lat="48.6095" lon="-3.47655">
        <ele>116</ele>
        <time>2015-01-04T09:17:44Z</time>
      </trkpt>
      <trkpt lat="48.60944" lon="-3.47661">
        <ele>116</ele>
        <time>2015-01-04T09:17:45Z</time>
      </trkpt>
      <trkpt lat="48.60938" lon="-3.47668">
        <ele>116</ele>
        <time>2015-01-04T09:17:46Z</time>
      </trkpt>
      <trkpt lat="48.60933" lon="-3.47675">
        <ele>116</ele>
        <time>2015-01-04T09:17:47Z</time>
      </trkpt>
      <trkpt lat="48.60927" lon="-3.47682">
        <ele>116</ele>
        <time>2015-01-04T09:17:48Z</time>
      </trkpt>
      <trkpt lat="48.60922" lon="-3.47688">
        <ele>116</ele>
        <time>2015-01-04T09:17:49Z</time>
      </trkpt>
      <trkpt lat="48.60916" lon="-3.47695">
        <ele>116</ele>
        <time>2015-01-04T09:17:50Z</time>
      </trkpt>
      <trkpt lat="48.60911" lon="-3.47702">
        <ele>116</ele>
        <time>2015-01-04T09:17:51Z</time>
      </trkpt>
      <trkpt lat="48.60905" lon="-3.47709">
        <ele>116</ele>
        <time>2015-01-04T09:17:52Z</time>
      </trkpt>
      <trkpt lat="48.609" lon="-3.47716">
        <ele>116</ele>
        <time>2015-01-04T09:17:53Z</time>
      </trkpt>
      <trkpt lat="48.60895" lon="-3.47722">
        <ele>116</ele>
        <time>2015-01-04T09:17:54Z</time>
      </trkpt>
      <trkpt lat="48.60889" lon="-3.47729">
        <ele>116</ele>
        <time>2015-01-04T09:17:55Z</time>
      </trkpt>
      <trkpt lat="48.60884" lon="-3.47736">
        <ele>116</ele>
        <time>2015-01-04T09:17:56Z</time>
      </trkpt>
      <trkpt lat="48.60879" lon="-3.47742">
        <ele>116</ele>
        <time>2015-01-04T09:17:57Z</time>
      </trkpt>
      <trkpt lat="48.60874" lon="-3.47748">
        <ele>116</ele>
        <time>2015-01-04T09:17:58Z</time>
      </trkpt>
      <trkpt lat="48.60869" lon="-3.47755">
        <ele>116</ele>
        <time>2015-01-04T09:17:59Z</time>
      </trkpt>
      <trkpt lat="48.60864" lon="-3.47761">
        <ele>116</ele>
        <time>2015-01-04T09:18:00Z</time>
      </trkpt>
      <trkpt lat="48.60859" lon="-3.47767">
        <ele>116</ele>
        <time>2015-01-04T09:18:01Z</time>
      </trkpt>
      <trkpt lat="48.60854" lon="-3.47773">
        <ele>116</ele>
        <time>2015-01-04T09:18:02Z</time>
      </trkpt>
      <trkpt lat="48.60849" lon="-3.47779">
        <ele>116</ele>
        <time>2015-01-04T09:18:03Z</time>
      </trkpt>
      <trkpt lat="48.60845" lon="-3.47785">
        <ele>116</ele>
        <time>2015-01-04T09:18:04Z</time>
      </trkpt>
      <trkpt lat="48.6084" lon="-3.47791">
        <ele>116</ele>
        <time>2015-01-04T09:18:05Z</time>
      </trkpt>
      <trkpt lat="48.60836" lon="-3.47797">
        <ele>116</ele>
        <time>2015-01-04T09:18:06Z</time>
      </trkpt>
      <trkpt lat="48.60831" lon="-3.47802">
        <ele>116</ele>
        <time>2015-01-04T09:18:07Z</time>
      </trkpt>
      <trkpt lat="48.60826" lon="-3.47808">
        <ele>116</ele>
        <time>2015-01-04T09:18:08Z</time>
      </trkpt>
      <trkpt lat="48.60822" lon="-3.47813">
        <ele>116</ele>
        <time>2015-01-04T09:18:09Z</time>
      </trkpt>
      <trkpt lat="48.60817" lon="-3.47819">
        <ele>116</ele>
        <time>2015-01-04T09:18:10Z</time>
      </trkpt>
      <trkpt lat="48.60813" lon="-3.47824">
        <ele>116</ele>
        <time>2015-01-04T09:18:11Z</time>
      </trkpt>
      <trkpt lat="48.60808" lon="-3.4783">
        <ele>116</ele>
        <time>2015-01-04T09:18:12Z</time>
      </trkpt>
      <trkpt lat="48.60804" lon="-3.47834">
        <ele>117</ele>
        <time>2015-01-04T09:18:13Z</time>
      </trkpt>
      <trkpt lat="48.60799" lon="-3.4784">
        <ele>117</ele>
        <time>2015-01-04T09:18:14Z</time>
      </trkpt>
      <trkpt lat="48.60794" lon="-3.47844">
        <ele>117</ele>
        <time>2015-01-04T09:18:15Z</time>
      </trkpt>
      <trkpt lat="48.60788" lon="-3.47848">
        <ele>117</ele>
        <time>2015-01-04T09:18:16Z</time>
      </trkpt>
      <trkpt lat="48.60783" lon="-3.47851">
        <ele>117</ele>
        <time>2015-01-04T09:18:17Z</time>
      </trkpt>
      <trkpt lat="48.60777" lon="-3.47855">
        <ele>117</ele>
        <time>2015-01-04T09:18:18Z</time>
      </trkpt>
      <trkpt lat="48.60772" lon="-3.47858">
        <ele>118</ele>
        <time>2015-01-04T09:18:19Z</time>
      </trkpt>
      <trkpt lat="48.60766" lon="-3.47861">
        <ele>118</ele>
        <time>2015-01-04T09:18:20Z</time>
      </trkpt>
      <trkpt lat="48.60761" lon="-3.47864">
        <ele>118</ele>
        <time>2015-01-04T09:18:21Z</time>
      </trkpt>
      <trkpt lat="48.60755" lon="-3.47867">
        <ele>118</ele>
        <time>2015-01-04T09:18:22Z</time>
      </trkpt>
      <trkpt lat="48.6075" lon="-3.4787">
        <ele>118</ele>
        <time>2015-01-04T09:18:23Z</time>
      </trkpt>
      <trkpt lat="48.60743" lon="-3.47872">
        <ele>118</ele>
        <time>2015-01-04T09:18:24Z</time>
      </trkpt>
      <trkpt lat="48.60738" lon="-3.47876">
        <ele>118</ele>
        <time>2015-01-04T09:18:25Z</time>
      </trkpt>
      <trkpt lat="48.60735" lon="-3.47881">
        <ele>119</ele>
        <time>2015-01-04T09:18:26Z</time>
      </trkpt>
      <trkpt lat="48.60731" lon="-3.47887">
        <ele>119</ele>
        <time>2015-01-04T09:18:27Z</time>
      </trkpt>
      <trkpt lat="48.60728" lon="-3.47893">
        <ele>119</ele>
        <time>2015-01-04T09:18:28Z</time>
      </trkpt>
      <trkpt lat="48.60726" lon="-3.479">
        <ele>119</ele>
        <time>2015-01-04T09:18:29Z</time>
      </trkpt>
      <trkpt lat="48.60724" lon="-3.47907">
        <ele>119</ele>
        <time>2015-01-04T09:18:30Z</time>
      </trkpt>
      <trkpt lat="48.60722" lon="-3.47914">
        <ele>119</ele>
        <time>2015-01-04T09:18:31Z</time>
      </trkpt>
      <trkpt lat="48.60719" lon="-3.4792">
        <ele>120</ele>
        <time>2015-01-04T09:18:32Z</time>
      </trkpt>
      <trkpt lat="48.60717" lon="-3.47927">
        <ele>120</ele>
        <time>2015-01-04T09:18:33Z</time>
      </trkpt>
      <trkpt lat="48.60715" lon="-3.47934">
        <ele>120</ele>
        <time>2015-01-04T09:18:34Z</time>
      </trkpt>
      <trkpt lat="48.60713" lon="-3.4794">
        <ele>121</ele>
        <time>2015-01-04T09:18:35Z</time>
      </trkpt>
      <trkpt lat="48.60711" lon="-3.47947">
        <ele>121</ele>
        <time>2015-01-04T09:18:36Z</time>
      </trkpt>
      <trkpt lat="48.60709" lon="-3.47953">
        <ele>121</ele>
        <time>2015-01-04T09:18:37Z</time>
      </trkpt>
      <trkpt lat="48.60706" lon="-3.47959">
        <ele>122</ele>
        <time>2015-01-04T09:18:38Z</time>
      </trkpt>
      <trkpt lat="48.60704" lon="-3.47965">
        <ele>122</ele>
        <time>2015-01-04T09:18:39Z</time>
      </trkpt>
      <trkpt lat="48.60702" lon="-3.47972">
        <ele>122</ele>
        <time>2015-01-04T09:18:40Z</time>
      </trkpt>
      <trkpt lat="48.607" lon="-3.47978">
        <ele>123</ele>
        <time>2015-01-04T09:18:41Z</time>
      </trkpt>
      <trkpt lat="48.60698" lon="-3.47984">
        <ele>123</ele>
        <time>2015-01-04T09:18:42Z</time>
      </trkpt>
      <trkpt lat="48.60696" lon="-3.4799">
        <ele>123</ele>
        <time>2015-01-04T09:18:43Z</time>
      </trkpt>
      <trkpt lat="48.60694" lon="-3.47996">
        <ele>124</ele>
        <time>2015-01-04T09:18:44Z</time>
      </trkpt>
      <trkpt lat="48.60692" lon="-3.48002">
        <ele>124</ele>
        <time>2015-01-04T09:18:45Z</time>
      </trkpt>
      <trkpt lat="48.6069" lon="-3.48008">
        <ele>124</ele>
        <time>2015-01-04T09:18:46Z</time>
      </trkpt>
      <trkpt lat="48.60687" lon="-3.48014">
        <ele>124</ele>
        <time>2015-01-04T09:18:47Z</time>
      </trkpt>
      <trkpt lat="48.60685" lon="-3.48021">
        <ele>125</ele>
        <time>2015-01-04T09:18:48Z</time>
      </trkpt>
      <trkpt lat="48.60683" lon="-3.48027">
        <ele>125</ele>
        <time>2015-01-04T09:18:49Z</time>
      </trkpt>
      <trkpt lat="48.60681" lon="-3.48033">
        <ele>125</ele>
        <time>2015-01-04T09:18:50Z</time>
      </trkpt>
      <trkpt lat="48.60679" lon="-3.4804">
        <ele>126</ele>
        <time>2015-01-04T09:18:51Z</time>
      </trkpt>
      <trkpt lat="48.60677" lon="-3.48046">
        <ele>126</ele>
        <time>2015-01-04T09:18:52Z</time>
      </trkpt>
      <trkpt lat="48.60674" lon="-3.48052">
        <ele>126</ele>
        <time>2015-01-04T09:18:53Z</time>
      </trkpt>
      <trkpt lat="48.60672" lon="-3.48059">
        <ele>126</ele>
        <time>2015-01-04T09:18:54Z</time>
      </trkpt>
      <trkpt lat="48.60669" lon="-3.48065">
        <ele>127</ele>
        <time>2015-01-04T09:18:55Z</time>
      </trkpt>
      <trkpt lat="48.60667" lon="-3.48072">
        <ele>127</ele>
        <time>2015-01-04T09:18:56Z</time>
      </trkpt>
      <trkpt lat="48.60665" lon="-3.48078">
        <ele>127</ele>
        <time>2015-01-04T09:18:57Z</time>
      </trkpt>
      <trkpt lat="48.60662" lon="-3.48085">
        <ele>127</ele>
        <time>2015-01-04T09:18:58Z</time>
      </trkpt>
      <trkpt lat="48.6066" lon="-3.48091">
        <ele>127</ele>
        <time>2015-01-04T09:18:59Z</time>
      </trkpt>
      <trkpt lat="48.60658" lon="-3.48098">
        <ele>128</ele>
        <time>2015-01-04T09:19:00Z</time>
      </trkpt>
      <trkpt lat="48.60656" lon="-3.48104">
        <ele>128</ele>
        <time>2015-01-04T09:19:01Z</time>
      </trkpt>
      <trkpt lat="48.60653" lon="-3.4811">
        <ele>128</ele>
        <time>2015-01-04T09:19:02Z</time>
      </trkpt>
      <trkpt lat="48.6065" lon="-3.48116">
        <ele>129</ele>
        <time>2015-01-04T09:19:03Z</time>
      </trkpt>
      <trkpt lat="48.60648" lon="-3.48123">
        <ele>129</ele>
        <time>2015-01-04T09:19:04Z</time>
      </trkpt>
      <trkpt lat="48.60646" lon="-3.48129">
        <ele>129</ele>
        <time>2015-01-04T09:19:05Z</time>
      </trkpt>
      <trkpt lat="48.60645" lon="-3.48135">
        <ele>130</ele>
        <time>2015-01-04T09:19:06Z</time>
      </trkpt>
      <trkpt lat="48.60643" lon="-3.48142">
        <ele>130</ele>
        <time>2015-01-04T09:19:07Z</time>
      </trkpt>
      <trkpt lat="48.6064" lon="-3.48148">
        <ele>130</ele>
        <time>2015-01-04T09:19:08Z</time>
      </trkpt>
      <trkpt lat="48.60638" lon="-3.48154">
        <ele>131</ele>
        <time>2015-01-04T09:19:09Z</time>
      </trkpt>
      <trkpt lat="48.60636" lon="-3.48161">
        <ele>131</ele>
        <time>2015-01-04T09:19:10Z</time>
      </trkpt>
      <trkpt lat="48.60634" lon="-3.48167">
        <ele>131</ele>
        <time>2015-01-04T09:19:11Z</time>
      </trkpt>
      <trkpt lat="48.60632" lon="-3.48173">
        <ele>132</ele>
        <time>2015-01-04T09:19:12Z</time>
      </trkpt>
      <trkpt lat="48.60629" lon="-3.48179">
        <ele>132</ele>
        <time>2015-01-04T09:19:13Z</time>
      </trkpt>
      <trkpt lat="48.60627" lon="-3.48184">
        <ele>132</ele>
        <time>2015-01-04T09:19:14Z</time>
      </trkpt>
      <trkpt lat="48.60625" lon="-3.48189">
        <ele>133</ele>
        <time>2015-01-04T09:19:15Z</time>
      </trkpt>
      <trkpt lat="48.60622" lon="-3.48194">
        <ele>133</ele>
        <time>2015-01-04T09:19:16Z</time>
      </trkpt>
      <trkpt lat="48.6062" lon="-3.48199">
        <ele>133</ele>
        <time>2015-01-04T09:19:17Z</time>
      </trkpt>
      <trkpt lat="48.60617" lon="-3.48204">
        <ele>133</ele>
        <time>2015-01-04T09:19:18Z</time>
      </trkpt>
      <trkpt lat="48.60614" lon="-3.48209">
        <ele>134</ele>
        <time>2015-01-04T09:19:19Z</time>
      </trkpt>
      <trkpt lat="48.60612" lon="-3.48215">
        <ele>134</ele>
        <time>2015-01-04T09:19:20Z</time>
      </trkpt>
      <trkpt lat="48.60609" lon="-3.4822">
        <ele>134</ele>
        <time>2015-01-04T09:19:21Z</time>
      </trkpt>
      <trkpt lat="48.60606" lon="-3.48225">
        <ele>134</ele>
        <time>2015-01-04T09:19:22Z</time>
      </trkpt>
      <trkpt lat="48.60604" lon="-3.4823">
        <ele>134</ele>
        <time>2015-01-04T09:19:23Z</time>
      </trkpt>
      <trkpt lat="48.60601" lon="-3.48235">
        <ele>134</ele>
        <time>2015-01-04T09:19:24Z</time>
      </trkpt>
      <trkpt lat="48.60598" lon="-3.4824">
        <ele>134</ele>
        <time>2015-01-04T09:19:25Z</time>
      </trkpt>
      <trkpt lat="48.60596" lon="-3.48245">
        <ele>135</ele>
        <time>2015-01-04T09:19:26Z</time>
      </trkpt>
      <trkpt lat="48.60593" lon="-3.4825">
        <ele>135</ele>
        <time>2015-01-04T09:19:27Z</time>
      </trkpt>
      <trkpt lat="48.6059" lon="-3.48255">
        <ele>135</ele>
        <time>2015-01-04T09:19:28Z</time>
      </trkpt>
      <trkpt lat="48.60587" lon="-3.48261">
        <ele>135</ele>
        <time>2015-01-04T09:19:29Z</time>
      </trkpt>
      <trkpt lat="48.60585" lon="-3.48266">
        <ele>135</ele>
        <time>2015-01-04T09:19:30Z</time>
      </trkpt>
      <trkpt lat="48.60582" lon="-3.48271">
        <ele>135</ele>
        <time>2015-01-04T09:19:31Z</time>
      </trkpt>
      <trkpt lat="48.60579" lon="-3.48276">
        <ele>135</ele>
        <time>2015-01-04T09:19:32Z</time>
      </trkpt>
      <trkpt lat="48.60576" lon="-3.48281">
        <ele>135</ele>
        <time>2015-01-04T09:19:33Z</time>
      </trkpt>
      <trkpt lat="48.60573" lon="-3.48286">
        <ele>135</ele>
        <time>2015-01-04T09:19:34Z</time>
      </trkpt>
      <trkpt lat="48.60571" lon="-3.48291">
        <ele>135</ele>
        <time>2015-01-04T09:19:35Z</time>
      </trkpt>
      <trkpt lat="48.60568" lon="-3.48297">
        <ele>135</ele>
        <time>2015-01-04T09:19:36Z</time>
      </trkpt>
      <trkpt lat="48.60565" lon="-3.48302">
        <ele>136</ele>
        <time>2015-01-04T09:19:37Z</time>
      </trkpt>
      <trkpt lat="48.60563" lon="-3.48307">
        <ele>136</ele>
        <time>2015-01-04T09:19:38Z</time>
      </trkpt>
      <trkpt lat="48.6056" lon="-3.48313">
        <ele>136</ele>
        <time>2015-01-04T09:19:39Z</time>
      </trkpt>
      <trkpt lat="48.60557" lon="-3.48318">
        <ele>136</ele>
        <time>2015-01-04T09:19:40Z</time>
      </trkpt>
      <trkpt lat="48.60554" lon="-3.48324">
        <ele>137</ele>
        <time>2015-01-04T09:19:41Z</time>
      </trkpt>
      <trkpt lat="48.60551" lon="-3.48329">
        <ele>137</ele>
        <time>2015-01-04T09:19:42Z</time>
      </trkpt>
      <trkpt lat="48.60549" lon="-3.48334">
        <ele>137</ele>
        <time>2015-01-04T09:19:43Z</time>
      </trkpt>
      <trkpt lat="48.60546" lon="-3.4834">
        <ele>137</ele>
        <time>2015-01-04T09:19:44Z</time>
      </trkpt>
      <trkpt lat="48.60543" lon="-3.48345">
        <ele>137</ele>
        <time>2015-01-04T09:19:45Z</time>
      </trkpt>
      <trkpt lat="48.60541" lon="-3.48351">
        <ele>138</ele>
        <time>2015-01-04T09:19:46Z</time>
      </trkpt>
      <trkpt lat="48.60538" lon="-3.48357">
        <ele>138</ele>
        <time>2015-01-04T09:19:47Z</time>
      </trkpt>
      <trkpt lat="48.60535" lon="-3.48362">
        <ele>138</ele>
        <time>2015-01-04T09:19:48Z</time>
      </trkpt>
      <trkpt lat="48.60533" lon="-3.48368">
        <ele>138</ele>
        <time>2015-01-04T09:19:49Z</time>
      </trkpt>
      <trkpt lat="48.6053" lon="-3.48374">
        <ele>138</ele>
        <time>2015-01-04T09:19:50Z</time>
      </trkpt>
      <trkpt lat="48.60528" lon="-3.48379">
        <ele>139</ele>
        <time>2015-01-04T09:19:51Z</time>
      </trkpt>
      <trkpt lat="48.60525" lon="-3.48384">
        <ele>139</ele>
        <time>2015-01-04T09:19:52Z</time>
      </trkpt>
      <trkpt lat="48.60523" lon="-3.4839">
        <ele>139</ele>
        <time>2015-01-04T09:19:53Z</time>
      </trkpt>
      <trkpt lat="48.60521" lon="-3.48395">
        <ele>139</ele>
        <time>2015-01-04T09:19:54Z</time>
      </trkpt>
      <trkpt lat="48.60519" lon="-3.48401">
        <ele>139</ele>
        <time>2015-01-04T09:19:55Z</time>
      </trkpt>
      <trkpt lat="48.60516" lon="-3.48406">
        <ele>139</ele>
        <time>2015-01-04T09:19:56Z</time>
      </trkpt>
      <trkpt lat="48.60514" lon="-3.48411">
        <ele>140</ele>
        <time>2015-01-04T09:19:57Z</time>
      </trkpt>
      <trkpt lat="48.60513" lon="-3.48417">
        <ele>140</ele>
        <time>2015-01-04T09:19:58Z</time>
      </trkpt>
      <trkpt lat="48.60511" lon="-3.48422">
        <ele>140</ele>
        <time>2015-01-04T09:19:59Z</time>
      </trkpt>
      <trkpt lat="48.60508" lon="-3.48427">
        <ele>140</ele>
        <time>2015-01-04T09:20:00Z</time>
      </trkpt>
      <trkpt lat="48.60506" lon="-3.48432">
        <ele>140</ele>
        <time>2015-01-04T09:20:01Z</time>
      </trkpt>
      <trkpt lat="48.60505" lon="-3.48438">
        <ele>140</ele>
        <time>2015-01-04T09:20:02Z</time>
      </trkpt>
      <trkpt lat="48.60503" lon="-3.48444">
        <ele>140</ele>
        <time>2015-01-04T09:20:03Z</time>
      </trkpt>
      <trkpt lat="48.605" lon="-3.4845">
        <ele>141</ele>
        <time>2015-01-04T09:20:04Z</time>
      </trkpt>
      <trkpt lat="48.60498" lon="-3.48456">
        <ele>141</ele>
        <time>2015-01-04T09:20:05Z</time>
      </trkpt>
      <trkpt lat="48.60496" lon="-3.48461">
        <ele>141</ele>
        <time>2015-01-04T09:20:06Z</time>
      </trkpt>
      <trkpt lat="48.60494" lon="-3.48467">
        <ele>141</ele>
        <time>2015-01-04T09:20:07Z</time>
      </trkpt>
      <trkpt lat="48.60492" lon="-3.48473">
        <ele>141</ele>
        <time>2015-01-04T09:20:08Z</time>
      </trkpt>
      <trkpt lat="48.6049" lon="-3.48478">
        <ele>142</ele>
        <time>2015-01-04T09:20:09Z</time>
      </trkpt>
      <trkpt lat="48.60488" lon="-3.48483">
        <ele>142</ele>
        <time>2015-01-04T09:20:10Z</time>
      </trkpt>
      <trkpt lat="48.60485" lon="-3.48489">
        <ele>142</ele>
        <time>2015-01-04T09:20:11Z</time>
      </trkpt>
      <trkpt lat="48.60483" lon="-3.48494">
        <ele>142</ele>
        <time>2015-01-04T09:20:12Z</time>
      </trkpt>
      <trkpt lat="48.60481" lon="-3.485">
        <ele>142</ele>
        <time>2015-01-04T09:20:13Z</time>
      </trkpt>
      <trkpt lat="48.60478" lon="-3.48505">
        <ele>142</ele>
        <time>2015-01-04T09:20:14Z</time>
      </trkpt>
      <trkpt lat="48.60476" lon="-3.4851">
        <ele>143</ele>
        <time>2015-01-04T09:20:15Z</time>
      </trkpt>
      <trkpt lat="48.60473" lon="-3.48515">
        <ele>143</ele>
        <time>2015-01-04T09:20:16Z</time>
      </trkpt>
      <trkpt lat="48.6047" lon="-3.4852">
        <ele>143</ele>
        <time>2015-01-04T09:20:17Z</time>
      </trkpt>
      <trkpt lat="48.60468" lon="-3.48524">
        <ele>143</ele>
        <time>2015-01-04T09:20:18Z</time>
      </trkpt>
      <trkpt lat="48.60465" lon="-3.48529">
        <ele>144</ele>
        <time>2015-01-04T09:20:19Z</time>
      </trkpt>
      <trkpt lat="48.60462" lon="-3.48533">
        <ele>144</ele>
        <time>2015-01-04T09:20:20Z</time>
      </trkpt>
      <trkpt lat="48.60459" lon="-3.48537">
        <ele>144</ele>
        <time>2015-01-04T09:20:21Z</time>
      </trkpt>
      <trkpt lat="48.60456" lon="-3.48542">
        <ele>144</ele>
        <time>2015-01-04T09:20:22Z</time>
      </trkpt>
      <trkpt lat="48.60453" lon="-3.48546">
        <ele>144</ele>
        <time>2015-01-04T09:20:23Z</time>
      </trkpt>
      <trkpt lat="48.6045" lon="-3.4855">
        <ele>145</ele>
        <time>2015-01-04T09:20:24Z</time>
      </trkpt>
      <trkpt lat="48.60446" lon="-3.48554">
        <ele>145</ele>
        <time>2015-01-04T09:20:25Z</time>
      </trkpt>
      <trkpt lat="48.60442" lon="-3.48558">
        <ele>145</ele>
        <time>2015-01-04T09:20:26Z</time>
      </trkpt>
      <trkpt lat="48.60439" lon="-3.48562">
        <ele>145</ele>
        <time>2015-01-04T09:20:27Z</time>
      </trkpt>
      <trkpt lat="48.60435" lon="-3.48566">
        <ele>146</ele>
        <time>2015-01-04T09:20:28Z</time>
      </trkpt>
      <trkpt lat="48.60431" lon="-3.4857">
        <ele>146</ele>
        <time>2015-01-04T09:20:29Z</time>
      </trkpt>
      <trkpt lat="48.60427" lon="-3.48574">
        <ele>146</ele>
        <time>2015-01-04T09:20:30Z</time>
      </trkpt>
      <trkpt lat="48.60424" lon="-3.48578">
        <ele>146</ele>
        <time>2015-01-04T09:20:31Z</time>
      </trkpt>
      <trkpt lat="48.6042" lon="-3.48582">
        <ele>147</ele>
        <time>2015-01-04T09:20:32Z</time>
      </trkpt>
      <trkpt lat="48.60416" lon="-3.48585">
        <ele>147</ele>
        <time>2015-01-04T09:20:33Z</time>
      </trkpt>
      <trkpt lat="48.60412" lon="-3.48589">
        <ele>147</ele>
        <time>2015-01-04T09:20:34Z</time>
      </trkpt>
      <trkpt lat="48.60408" lon="-3.48592">
        <ele>147</ele>
        <time>2015-01-04T09:20:35Z</time>
      </trkpt>
      <trkpt lat="48.60405" lon="-3.48596">
        <ele>147</ele>
        <time>2015-01-04T09:20:36Z</time>
      </trkpt>
      <trkpt lat="48.60401" lon="-3.48599">
        <ele>148</ele>
        <time>2015-01-04T09:20:37Z</time>
      </trkpt>
      <trkpt lat="48.60397" lon="-3.48603">
        <ele>148</ele>
        <time>2015-01-04T09:20:38Z</time>
      </trkpt>
      <trkpt lat="48.60393" lon="-3.48606">
        <ele>148</ele>
        <time>2015-01-04T09:20:39Z</time>
      </trkpt>
      <trkpt lat="48.60389" lon="-3.4861">
        <ele>148</ele>
        <time>2015-01-04T09:20:40Z</time>
      </trkpt>
      <trkpt lat="48.60385" lon="-3.48613">
        <ele>148</ele>
        <time>2015-01-04T09:20:41Z</time>
      </trkpt>
      <trkpt lat="48.60381" lon="-3.48616">
        <ele>148</ele>
        <time>2015-01-04T09:20:42Z</time>
      </trkpt>
      <trkpt lat="48.60377" lon="-3.4862">
        <ele>148</ele>
        <time>2015-01-04T09:20:43Z</time>
      </trkpt>
      <trkpt lat="48.60374" lon="-3.48623">
        <ele>149</ele>
        <time>2015-01-04T09:20:44Z</time>
      </trkpt>
      <trkpt lat="48.6037" lon="-3.48627">
        <ele>149</ele>
        <time>2015-01-04T09:20:45Z</time>
      </trkpt>
      <trkpt lat="48.60366" lon="-3.4863">
        <ele>149</ele>
        <time>2015-01-04T09:20:46Z</time>
      </trkpt>
      <trkpt lat="48.60362" lon="-3.48633">
        <ele>149</ele>
        <time>2015-01-04T09:20:47Z</time>
      </trkpt>
      <trkpt lat="48.60358" lon="-3.48637">
        <ele>149</ele>
        <time>2015-01-04T09:20:48Z</time>
      </trkpt>
      <trkpt lat="48.60355" lon="-3.4864">
        <ele>149</ele>
        <time>2015-01-04T09:20:49Z</time>
      </trkpt>
      <trkpt lat="48.60351" lon="-3.48643">
        <ele>150</ele>
        <time>2015-01-04T09:20:50Z</time>
      </trkpt>
      <trkpt lat="48.60347" lon="-3.48647">
        <ele>150</ele>
        <time>2015-01-04T09:20:51Z</time>
      </trkpt>
      <trkpt lat="48.60343" lon="-3.4865">
        <ele>150</ele>
        <time>2015-01-04T09:20:52Z</time>
      </trkpt>
      <trkpt lat="48.60339" lon="-3.48653">
        <ele>150</ele>
        <time>2015-01-04T09:20:53Z</time>
      </trkpt>
      <trkpt lat="48.60335" lon="-3.48657">
        <ele>150</ele>
        <time>2015-01-04T09:20:54Z</time>
      </trkpt>
      <trkpt lat="48.60331" lon="-3.4866">
        <ele>150</ele>
        <time>2015-01-04T09:20:55Z</time>
      </trkpt>
      <trkpt lat="48.60328" lon="-3.48663">
        <ele>151</ele>
        <time>2015-01-04T09:20:56Z</time>
      </trkpt>
      <trkpt lat="48.60324" lon="-3.48666">
        <ele>151</ele>
        <time>2015-01-04T09:20:57Z</time>
      </trkpt>
      <trkpt lat="48.6032" lon="-3.4867">
        <ele>151</ele>
        <time>2015-01-04T09:20:58Z</time>
      </trkpt>
      <trkpt lat="48.60316" lon="-3.48673">
        <ele>151</ele>
        <time>2015-01-04T09:20:59Z</time>
      </trkpt>
      <trkpt lat="48.60313" lon="-3.48676">
        <ele>151</ele>
        <time>2015-01-04T09:21:00Z</time>
      </trkpt>
      <trkpt lat="48.60309" lon="-3.4868">
        <ele>151</ele>
        <time>2015-01-04T09:21:01Z</time>
      </trkpt>
      <trkpt lat="48.60305" lon="-3.48683">
        <ele>151</ele>
        <time>2015-01-04T09:21:02Z</time>
      </trkpt>
      <trkpt lat="48.60302" lon="-3.48687">
        <ele>151</ele>
        <time>2015-01-04T09:21:03Z</time>
      </trkpt>
      <trkpt lat="48.60299" lon="-3.4869">
        <ele>151</ele>
        <time>2015-01-04T09:21:04Z</time>
      </trkpt>
      <trkpt lat="48.60295" lon="-3.48693">
        <ele>151</ele>
        <time>2015-01-04T09:21:05Z</time>
      </trkpt>
      <trkpt lat="48.60292" lon="-3.48697">
        <ele>151</ele>
        <time>2015-01-04T09:21:06Z</time>
      </trkpt>
      <trkpt lat="48.60289" lon="-3.48701">
        <ele>152</ele>
        <time>2015-01-04T09:21:07Z</time>
      </trkpt>
      <trkpt lat="48.60285" lon="-3.48704">
        <ele>152</ele>
        <time>2015-01-04T09:21:08Z</time>
      </trkpt>
      <trkpt lat="48.60282" lon="-3.48708">
        <ele>152</ele>
        <time>2015-01-04T09:21:09Z</time>
      </trkpt>
      <trkpt lat="48.60279" lon="-3.48712">
        <ele>152</ele>
        <time>2015-01-04T09:21:10Z</time>
      </trkpt>
      <trkpt lat="48.60276" lon="-3.48716">
        <ele>152</ele>
        <time>2015-01-04T09:21:11Z</time>
      </trkpt>
      <trkpt lat="48.60273" lon="-3.48721">
        <ele>152</ele>
        <time>2015-01-04T09:21:12Z</time>
      </trkpt>
      <trkpt lat="48.60271" lon="-3.48725">
        <ele>152</ele>
        <time>2015-01-04T09:21:13Z</time>
      </trkpt>
      <trkpt lat="48.60268" lon="-3.4873">
        <ele>152</ele>
        <time>2015-01-04T09:21:14Z</time>
      </trkpt>
      <trkpt lat="48.60265" lon="-3.48735">
        <ele>152</ele>
        <time>2015-01-04T09:21:15Z</time>
      </trkpt>
      <trkpt lat="48.60263" lon="-3.4874">
        <ele>152</ele>
        <time>2015-01-04T09:21:16Z</time>
      </trkpt>
      <trkpt lat="48.6026" lon="-3.48745">
        <ele>152</ele>
        <time>2015-01-04T09:21:17Z</time>
      </trkpt>
      <trkpt lat="48.60258" lon="-3.4875">
        <ele>153</ele>
        <time>2015-01-04T09:21:18Z</time>
      </trkpt>
      <trkpt lat="48.60256" lon="-3.48755">
        <ele>153</ele>
        <time>2015-01-04T09:21:19Z</time>
      </trkpt>
      <trkpt lat="48.60254" lon="-3.4876">
        <ele>153</ele>
        <time>2015-01-04T09:21:20Z</time>
      </trkpt>
      <trkpt lat="48.60251" lon="-3.48765">
        <ele>153</ele>
        <time>2015-01-04T09:21:21Z</time>
      </trkpt>
      <trkpt lat="48.60249" lon="-3.4877">
        <ele>153</ele>
        <time>2015-01-04T09:21:22Z</time>
      </trkpt>
      <trkpt lat="48.60247" lon="-3.48775">
        <ele>153</ele>
        <time>2015-01-04T09:21:23Z</time>
      </trkpt>
      <trkpt lat="48.60245" lon="-3.4878">
        <ele>154</ele>
        <time>2015-01-04T09:21:24Z</time>
      </trkpt>
      <trkpt lat="48.60242" lon="-3.48785">
        <ele>154</ele>
        <time>2015-01-04T09:21:25Z</time>
      </trkpt>
      <trkpt lat="48.6024" lon="-3.4879">
        <ele>154</ele>
        <time>2015-01-04T09:21:26Z</time>
      </trkpt>
      <trkpt lat="48.60237" lon="-3.48795">
        <ele>154</ele>
        <time>2015-01-04T09:21:27Z</time>
      </trkpt>
      <trkpt lat="48.60235" lon="-3.48799">
        <ele>154</ele>
        <time>2015-01-04T09:21:28Z</time>
      </trkpt>
      <trkpt lat="48.60232" lon="-3.48804">
        <ele>154</ele>
        <time>2015-01-04T09:21:29Z</time>
      </trkpt>
      <trkpt lat="48.60229" lon="-3.48809">
        <ele>155</ele>
        <time>2015-01-04T09:21:30Z</time>
      </trkpt>
      <trkpt lat="48.60227" lon="-3.48813">
        <ele>155</ele>
        <time>2015-01-04T09:21:31Z</time>
      </trkpt>
      <trkpt lat="48.60224" lon="-3.48817">
        <ele>155</ele>
        <time>2015-01-04T09:21:32Z</time>
      </trkpt>
      <trkpt lat="48.60221" lon="-3.48822">
        <ele>155</ele>
        <time>2015-01-04T09:21:33Z</time>
      </trkpt>
      <trkpt lat="48.60218" lon="-3.48826">
        <ele>155</ele>
        <time>2015-01-04T09:21:34Z</time>
      </trkpt>
      <trkpt lat="48.60214" lon="-3.4883">
        <ele>155</ele>
        <time>2015-01-04T09:21:35Z</time>
      </trkpt>
      <trkpt lat="48.60211" lon="-3.48835">
        <ele>156</ele>
        <time>2015-01-04T09:21:36Z</time>
      </trkpt>
      <trkpt lat="48.60207" lon="-3.48839">
        <ele>156</ele>
        <time>2015-01-04T09:21:37Z</time>
      </trkpt>
      <trkpt lat="48.60204" lon="-3.48843">
        <ele>156</ele>
        <time>2015-01-04T09:21:38Z</time>
      </trkpt>
      <trkpt lat="48.602" lon="-3.48847">
        <ele>156</ele>
        <time>2015-01-04T09:21:39Z</time>
      </trkpt>
      <trkpt lat="48.60196" lon="-3.48851">
        <ele>156</ele>
        <time>2015-01-04T09:21:40Z</time>
      </trkpt>
      <trkpt lat="48.60193" lon="-3.48855">
        <ele>156</ele>
        <time>2015-01-04T09:21:41Z</time>
      </trkpt>
      <trkpt lat="48.60189" lon="-3.48859">
        <ele>157</ele>
        <time>2015-01-04T09:21:42Z</time>
      </trkpt>
      <trkpt lat="48.60186" lon="-3.48862">
        <ele>157</ele>
        <time>2015-01-04T09:21:43Z</time>
      </trkpt>
      <trkpt lat="48.60182" lon="-3.48866">
        <ele>157</ele>
        <time>2015-01-04T09:21:44Z</time>
      </trkpt>
      <trkpt lat="48.60178" lon="-3.48869">
        <ele>157</ele>
        <time>2015-01-04T09:21:45Z</time>
      </trkpt>
      <trkpt lat="48.60174" lon="-3.48872">
        <ele>157</ele>
        <time>2015-01-04T09:21:46Z</time>
      </trkpt>
      <trkpt lat="48.60171" lon="-3.48876">
        <ele>157</ele>
        <time>2015-01-04T09:21:47Z</time>
      </trkpt>
      <trkpt lat="48.60167" lon="-3.48879">
        <ele>157</ele>
        <time>2015-01-04T09:21:48Z</time>
      </trkpt>
      <trkpt lat="48.60163" lon="-3.48883">
        <ele>158</ele>
        <time>2015-01-04T09:21:49Z</time>
      </trkpt>
      <trkpt lat="48.60159" lon="-3.48886">
        <ele>158</ele>
        <time>2015-01-04T09:21:50Z</time>
      </trkpt>
      <trkpt lat="48.60155" lon="-3.4889">
        <ele>158</ele>
        <time>2015-01-04T09:21:51Z</time>
      </trkpt>
      <trkpt lat="48.60151" lon="-3.48894">
        <ele>158</ele>
        <time>2015-01-04T09:21:52Z</time>
      </trkpt>
      <trkpt lat="48.60147" lon="-3.48897">
        <ele>158</ele>
        <time>2015-01-04T09:21:53Z</time>
      </trkpt>
      <trkpt lat="48.60144" lon="-3.48901">
        <ele>158</ele>
        <time>2015-01-04T09:21:54Z</time>
      </trkpt>
      <trkpt lat="48.60139" lon="-3.48904">
        <ele>158</ele>
        <time>2015-01-04T09:21:55Z</time>
      </trkpt>
      <trkpt lat="48.60135" lon="-3.48907">
        <ele>158</ele>
        <time>2015-01-04T09:21:56Z</time>
      </trkpt>
      <trkpt lat="48.60131" lon="-3.48911">
        <ele>158</ele>
        <time>2015-01-04T09:21:57Z</time>
      </trkpt>
      <trkpt lat="48.60127" lon="-3.48915">
        <ele>158</ele>
        <time>2015-01-04T09:21:58Z</time>
      </trkpt>
      <trkpt lat="48.60123" lon="-3.48919">
        <ele>158</ele>
        <time>2015-01-04T09:21:59Z</time>
      </trkpt>
      <trkpt lat="48.60118" lon="-3.48923">
        <ele>158</ele>
        <time>2015-01-04T09:22:00Z</time>
      </trkpt>
      <trkpt lat="48.60114" lon="-3.48927">
        <ele>158</ele>
        <time>2015-01-04T09:22:01Z</time>
      </trkpt>
      <trkpt lat="48.6011" lon="-3.4893">
        <ele>159</ele>
        <time>2015-01-04T09:22:02Z</time>
      </trkpt>
      <trkpt lat="48.60105" lon="-3.48934">
        <ele>159</ele>
        <time>2015-01-04T09:22:03Z</time>
      </trkpt>
      <trkpt lat="48.60101" lon="-3.48938">
        <ele>159</ele>
        <time>2015-01-04T09:22:04Z</time>
      </trkpt>
      <trkpt lat="48.60096" lon="-3.48942">
        <ele>159</ele>
        <time>2015-01-04T09:22:05Z</time>
      </trkpt>
      <trkpt lat="48.60092" lon="-3.48946">
        <ele>159</ele>
        <time>2015-01-04T09:22:06Z</time>
      </trkpt>
      <trkpt lat="48.60087" lon="-3.4895">
        <ele>159</ele>
        <time>2015-01-04T09:22:07Z</time>
      </trkpt>
      <trkpt lat="48.60083" lon="-3.48954">
        <ele>159</ele>
        <time>2015-01-04T09:22:08Z</time>
      </trkpt>
      <trkpt lat="48.60078" lon="-3.48958">
        <ele>159</ele>
        <time>2015-01-04T09:22:09Z</time>
      </trkpt>
      <trkpt lat="48.60073" lon="-3.48962">
        <ele>159</ele>
        <time>2015-01-04T09:22:10Z</time>
      </trkpt>
      <trkpt lat="48.60068" lon="-3.48966">
        <ele>159</ele>
        <time>2015-01-04T09:22:11Z</time>
      </trkpt>
      <trkpt lat="48.60064" lon="-3.4897">
        <ele>159</ele>
        <time>2015-01-04T09:22:12Z</time>
      </trkpt>
      <trkpt lat="48.60059" lon="-3.48974">
        <ele>159</ele>
        <time>2015-01-04T09:22:13Z</time>
      </trkpt>
      <trkpt lat="48.60054" lon="-3.48978">
        <ele>159</ele>
        <time>2015-01-04T09:22:14Z</time>
      </trkpt>
      <trkpt lat="48.60049" lon="-3.48982">
        <ele>159</ele>
        <time>2015-01-04T09:22:15Z</time>
      </trkpt>
      <trkpt lat="48.60045" lon="-3.48986">
        <ele>159</ele>
        <time>2015-01-04T09:22:16Z</time>
      </trkpt>
      <trkpt lat="48.6004" lon="-3.4899">
        <ele>159</ele>
        <time>2015-01-04T09:22:17Z</time>
      </trkpt>
      <trkpt lat="48.60035" lon="-3.48994">
        <ele>160</ele>
        <time>2015-01-04T09:22:18Z</time>
      </trkpt>
      <trkpt lat="48.6003" lon="-3.48999">
        <ele>160</ele>
        <time>2015-01-04T09:22:19Z</time>
      </trkpt>
      <trkpt lat="48.60025" lon="-3.49003">
        <ele>160</ele>
        <time>2015-01-04T09:22:20Z</time>
      </trkpt>
      <trkpt lat="48.6002" lon="-3.49007">
        <ele>160</ele>
        <time>2015-01-04T09:22:21Z</time>
      </trkpt>
      <trkpt lat="48.60014" lon="-3.49011">
        <ele>160</ele>
        <time>2015-01-04T09:22:22Z</time>
      </trkpt>
      <trkpt lat="48.60009" lon="-3.49016">
        <ele>160</ele>
        <time>2015-01-04T09:22:23Z</time>
      </trkpt>
      <trkpt lat="48.60003" lon="-3.4902">
        <ele>160</ele>
        <time>2015-01-04T09:22:24Z</time>
      </trkpt>
      <trkpt lat="48.59998" lon="-3.49025">
        <ele>160</ele>
        <time>2015-01-04T09:22:25Z</time>
      </trkpt>
      <trkpt lat="48.59993" lon="-3.49029">
        <ele>160</ele>
        <time>2015-01-04T09:22:26Z</time>
      </trkpt>
      <trkpt lat="48.59988" lon="-3.49033">
        <ele>160</ele>
        <time>2015-01-04T09:22:27Z</time>
      </trkpt>
      <trkpt lat="48.59983" lon="-3.49037">
        <ele>160</ele>
        <time>2015-01-04T09:22:28Z</time>
      </trkpt>
      <trkpt lat="48.59978" lon="-3.49042">
        <ele>160</ele>
        <time>2015-01-04T09:22:29Z</time>
      </trkpt>
      <trkpt lat="48.59973" lon="-3.49046">
        <ele>160</ele>
        <time>2015-01-04T09:22:30Z</time>
      </trkpt>
      <trkpt lat="48.59967" lon="-3.49051">
        <ele>160</ele>
        <time>2015-01-04T09:22:31Z</time>
      </trkpt>
      <trkpt lat="48.59962" lon="-3.49056">
        <ele>160</ele>
        <time>2015-01-04T09:22:32Z</time>
      </trkpt>
      <trkpt lat="48.59956" lon="-3.4906">
        <ele>160</ele>
        <time>2015-01-04T09:22:33Z</time>
      </trkpt>
      <trkpt lat="48.5995" lon="-3.49065">
        <ele>160</ele>
        <time>2015-01-04T09:22:34Z</time>
      </trkpt>
      <trkpt lat="48.59945" lon="-3.4907">
        <ele>160</ele>
        <time>2015-01-04T09:22:35Z</time>
      </trkpt>
      <trkpt lat="48.59939" lon="-3.49075">
        <ele>160</ele>
        <time>2015-01-04T09:22:36Z</time>
      </trkpt>
      <trkpt lat="48.59934" lon="-3.4908">
        <ele>160</ele>
        <time>2015-01-04T09:22:37Z</time>
      </trkpt>
      <trkpt lat="48.59929" lon="-3.49084">
        <ele>160</ele>
        <time>2015-01-04T09:22:38Z</time>
      </trkpt>
      <trkpt lat="48.59923" lon="-3.49088">
        <ele>160</ele>
        <time>2015-01-04T09:22:39Z</time>
      </trkpt>
      <trkpt lat="48.59918" lon="-3.49093">
        <ele>161</ele>
        <time>2015-01-04T09:22:40Z</time>
      </trkpt>
      <trkpt lat="48.59913" lon="-3.49097">
        <ele>161</ele>
        <time>2015-01-04T09:22:41Z</time>
      </trkpt>
      <trkpt lat="48.59907" lon="-3.49102">
        <ele>161</ele>
        <time>2015-01-04T09:22:42Z</time>
      </trkpt>
      <trkpt lat="48.59901" lon="-3.49106">
        <ele>161</ele>
        <time>2015-01-04T09:22:43Z</time>
      </trkpt>
      <trkpt lat="48.59896" lon="-3.49111">
        <ele>161</ele>
        <time>2015-01-04T09:22:44Z</time>
      </trkpt>
      <trkpt lat="48.5989" lon="-3.49115">
        <ele>161</ele>
        <time>2015-01-04T09:22:45Z</time>
      </trkpt>
      <trkpt lat="48.59885" lon="-3.49119">
        <ele>161</ele>
        <time>2015-01-04T09:22:46Z</time>
      </trkpt>
      <trkpt lat="48.59879" lon="-3.49124">
        <ele>161</ele>
        <time>2015-01-04T09:22:47Z</time>
      </trkpt>
      <trkpt lat="48.59873" lon="-3.49128">
        <ele>161</ele>
        <time>2015-01-04T09:22:48Z</time>
      </trkpt>
      <trkpt lat="48.59867" lon="-3.49132">
        <ele>161</ele>
        <time>2015-01-04T09:22:49Z</time>
      </trkpt>
      <trkpt lat="48.59862" lon="-3.49136">
        <ele>162</ele>
        <time>2015-01-04T09:22:50Z</time>
      </trkpt>
      <trkpt lat="48.59856" lon="-3.49139">
        <ele>162</ele>
        <time>2015-01-04T09:22:51Z</time>
      </trkpt>
      <trkpt lat="48.5985" lon="-3.49143">
        <ele>162</ele>
        <time>2015-01-04T09:22:52Z</time>
      </trkpt>
      <trkpt lat="48.59844" lon="-3.49146">
        <ele>162</ele>
        <time>2015-01-04T09:22:53Z</time>
      </trkpt>
      <trkpt lat="48.59838" lon="-3.49149">
        <ele>162</ele>
        <time>2015-01-04T09:22:54Z</time>
      </trkpt>
      <trkpt lat="48.59832" lon="-3.49152">
        <ele>162</ele>
        <time>2015-01-04T09:22:55Z</time>
      </trkpt>
      <trkpt lat="48.59826" lon="-3.49156">
        <ele>162</ele>
        <time>2015-01-04T09:22:56Z</time>
      </trkpt>
      <trkpt lat="48.5982" lon="-3.49159">
        <ele>162</ele>
        <time>2015-01-04T09:22:57Z</time>
      </trkpt>
      <trkpt lat="48.59814" lon="-3.49161">
        <ele>162</ele>
        <time>2015-01-04T09:22:58Z</time>
      </trkpt>
      <trkpt lat="48.59808" lon="-3.49164">
        <ele>163</ele>
        <time>2015-01-04T09:22:59Z</time>
      </trkpt>
      <trkpt lat="48.59802" lon="-3.49167">
        <ele>163</ele>
        <time>2015-01-04T09:23:00Z</time>
      </trkpt>
      <trkpt lat="48.59795" lon="-3.49169">
        <ele>163</ele>
        <time>2015-01-04T09:23:01Z</time>
      </trkpt>
      <trkpt lat="48.59789" lon="-3.49172">
        <ele>163</ele>
        <time>2015-01-04T09:23:02Z</time>
      </trkpt>
      <trkpt lat="48.59782" lon="-3.49175">
        <ele>163</ele>
        <time>2015-01-04T09:23:03Z</time>
      </trkpt>
      <trkpt lat="48.59776" lon="-3.49177">
        <ele>163</ele>
        <time>2015-01-04T09:23:04Z</time>
      </trkpt>
      <trkpt lat="48.59769" lon="-3.4918">
        <ele>163</ele>
        <time>2015-01-04T09:23:05Z</time>
      </trkpt>
      <trkpt lat="48.59762" lon="-3.49182">
        <ele>163</ele>
        <time>2015-01-04T09:23:06Z</time>
      </trkpt>
      <trkpt lat="48.59756" lon="-3.49185">
        <ele>163</ele>
        <time>2015-01-04T09:23:07Z</time>
      </trkpt>
      <trkpt lat="48.59749" lon="-3.49188">
        <ele>163</ele>
        <time>2015-01-04T09:23:08Z</time>
      </trkpt>
      <trkpt lat="48.59742" lon="-3.49191">
        <ele>163</ele>
        <time>2015-01-04T09:23:09Z</time>
      </trkpt>
      <trkpt lat="48.59736" lon="-3.49193">
        <ele>163</ele>
        <time>2015-01-04T09:23:10Z</time>
      </trkpt>
      <trkpt lat="48.59729" lon="-3.49196">
        <ele>163</ele>
        <time>2015-01-04T09:23:11Z</time>
      </trkpt>
      <trkpt lat="48.59722" lon="-3.49199">
        <ele>163</ele>
        <time>2015-01-04T09:23:12Z</time>
      </trkpt>
      <trkpt lat="48.59716" lon="-3.49202">
        <ele>163</ele>
        <time>2015-01-04T09:23:13Z</time>
      </trkpt>
      <trkpt lat="48.59709" lon="-3.49204">
        <ele>164</ele>
        <time>2015-01-04T09:23:14Z</time>
      </trkpt>
      <trkpt lat="48.59702" lon="-3.49208">
        <ele>164</ele>
        <time>2015-01-04T09:23:15Z</time>
      </trkpt>
      <trkpt lat="48.59695" lon="-3.49211">
        <ele>164</ele>
        <time>2015-01-04T09:23:16Z</time>
      </trkpt>
      <trkpt lat="48.59688" lon="-3.49214">
        <ele>164</ele>
        <time>2015-01-04T09:23:17Z</time>
      </trkpt>
      <trkpt lat="48.59681" lon="-3.49218">
        <ele>164</ele>
        <time>2015-01-04T09:23:18Z</time>
      </trkpt>
      <trkpt lat="48.59674" lon="-3.49221">
        <ele>164</ele>
        <time>2015-01-04T09:23:19Z</time>
      </trkpt>
      <trkpt lat="48.59667" lon="-3.49225">
        <ele>164</ele>
        <time>2015-01-04T09:23:20Z</time>
      </trkpt>
      <trkpt lat="48.5966" lon="-3.4923">
        <ele>164</ele>
        <time>2015-01-04T09:23:21Z</time>
      </trkpt>
      <trkpt lat="48.59653" lon="-3.49234">
        <ele>164</ele>
        <time>2015-01-04T09:23:22Z</time>
      </trkpt>
      <trkpt lat="48.59647" lon="-3.49238">
        <ele>164</ele>
        <time>2015-01-04T09:23:23Z</time>
      </trkpt>
      <trkpt lat="48.5964" lon="-3.49243">
        <ele>164</ele>
        <time>2015-01-04T09:23:24Z</time>
      </trkpt>
      <trkpt lat="48.59633" lon="-3.49248">
        <ele>164</ele>
        <time>2015-01-04T09:23:25Z</time>
      </trkpt>
      <trkpt lat="48.59626" lon="-3.49252">
        <ele>164</ele>
        <time>2015-01-04T09:23:26Z</time>
      </trkpt>
      <trkpt lat="48.5962" lon="-3.49257">
        <ele>164</ele>
        <time>2015-01-04T09:23:27Z</time>
      </trkpt>
      <trkpt lat="48.59613" lon="-3.49261">
        <ele>164</ele>
        <time>2015-01-04T09:23:28Z</time>
      </trkpt>
      <trkpt lat="48.59607" lon="-3.49265">
        <ele>164</ele>
        <time>2015-01-04T09:23:29Z</time>
      </trkpt>
      <trkpt lat="48.596" lon="-3.4927">
        <ele>164</ele>
        <time>2015-01-04T09:23:30Z</time>
      </trkpt>
      <trkpt lat="48.59594" lon="-3.49274">
        <ele>164</ele>
        <time>2015-01-04T09:23:31Z</time>
      </trkpt>
      <trkpt lat="48.59587" lon="-3.49279">
        <ele>164</ele>
        <time>2015-01-04T09:23:32Z</time>
      </trkpt>
      <trkpt lat="48.59581" lon="-3.49283">
        <ele>164</ele>
        <time>2015-01-04T09:23:33Z</time>
      </trkpt>
      <trkpt lat="48.59575" lon="-3.49288">
        <ele>164</ele>
        <time>2015-01-04T09:23:34Z</time>
      </trkpt>
      <trkpt lat="48.59569" lon="-3.49292">
        <ele>164</ele>
        <time>2015-01-04T09:23:35Z</time>
      </trkpt>
      <trkpt lat="48.59563" lon="-3.49297">
        <ele>164</ele>
        <time>2015-01-04T09:23:36Z</time>
      </trkpt>
      <trkpt lat="48.59557" lon="-3.49302">
        <ele>164</ele>
        <time>2015-01-04T09:23:37Z</time>
      </trkpt>
      <trkpt lat="48.59551" lon="-3.49307">
        <ele>164</ele>
        <time>2015-01-04T09:23:38Z</time>
      </trkpt>
      <trkpt lat="48.59545" lon="-3.49313">
        <ele>164</ele>
        <time>2015-01-04T09:23:39Z</time>
      </trkpt>
      <trkpt lat="48.59539" lon="-3.49318">
        <ele>164</ele>
        <time>2015-01-04T09:23:40Z</time>
      </trkpt>
      <trkpt lat="48.59534" lon="-3.49324">
        <ele>164</ele>
        <time>2015-01-04T09:23:41Z</time>
      </trkpt>
      <trkpt lat="48.59528" lon="-3.49329">
        <ele>164</ele>
        <time>2015-01-04T09:23:42Z</time>
      </trkpt>
      <trkpt lat="48.59522" lon="-3.49335">
        <ele>164</ele>
        <time>2015-01-04T09:23:43Z</time>
      </trkpt>
      <trkpt lat="48.59517" lon="-3.49341">
        <ele>164</ele>
        <time>2015-01-04T09:23:44Z</time>
      </trkpt>
      <trkpt lat="48.59511" lon="-3.49346">
        <ele>164</ele>
        <time>2015-01-04T09:23:45Z</time>
      </trkpt>
      <trkpt lat="48.59505" lon="-3.49352">
        <ele>164</ele>
        <time>2015-01-04T09:23:46Z</time>
      </trkpt>
      <trkpt lat="48.595" lon="-3.49357">
        <ele>164</ele>
        <time>2015-01-04T09:23:47Z</time>
      </trkpt>
      <trkpt lat="48.59494" lon="-3.49363">
        <ele>164</ele>
        <time>2015-01-04T09:23:48Z</time>
      </trkpt>
      <trkpt lat="48.59489" lon="-3.49369">
        <ele>164</ele>
        <time>2015-01-04T09:23:49Z</time>
      </trkpt>
      <trkpt lat="48.59483" lon="-3.49374">
        <ele>164</ele>
        <time>2015-01-04T09:23:50Z</time>
      </trkpt>
      <trkpt lat="48.59478" lon="-3.4938">
        <ele>164</ele>
        <time>2015-01-04T09:23:51Z</time>
      </trkpt>
      <trkpt lat="48.59472" lon="-3.49386">
        <ele>164</ele>
        <time>2015-01-04T09:23:52Z</time>
      </trkpt>
      <trkpt lat="48.59466" lon="-3.49392">
        <ele>164</ele>
        <time>2015-01-04T09:23:53Z</time>
      </trkpt>
      <trkpt lat="48.59461" lon="-3.49397">
        <ele>164</ele>
        <time>2015-01-04T09:23:54Z</time>
      </trkpt>
      <trkpt lat="48.59455" lon="-3.49403">
        <ele>164</ele>
        <time>2015-01-04T09:23:55Z</time>
      </trkpt>
      <trkpt lat="48.59449" lon="-3.49409">
        <ele>164</ele>
        <time>2015-01-04T09:23:56Z</time>
      </trkpt>
      <trkpt lat="48.59443" lon="-3.49414">
        <ele>164</ele>
        <time>2015-01-04T09:23:57Z</time>
      </trkpt>
      <trkpt lat="48.59438" lon="-3.4942">
        <ele>164</ele>
        <time>2015-01-04T09:23:58Z</time>
      </trkpt>
      <trkpt lat="48.59432" lon="-3.49426">
        <ele>164</ele>
        <time>2015-01-04T09:23:59Z</time>
      </trkpt>
      <trkpt lat="48.59426" lon="-3.49431">
        <ele>164</ele>
        <time>2015-01-04T09:24:00Z</time>
      </trkpt>
      <trkpt lat="48.5942" lon="-3.49437">
        <ele>164</ele>
        <time>2015-01-04T09:24:01Z</time>
      </trkpt>
      <trkpt lat="48.59415" lon="-3.49443">
        <ele>164</ele>
        <time>2015-01-04T09:24:02Z</time>
      </trkpt>
      <trkpt lat="48.59409" lon="-3.49448">
        <ele>164</ele>
        <time>2015-01-04T09:24:03Z</time>
      </trkpt>
      <trkpt lat="48.59403" lon="-3.49454">
        <ele>164</ele>
        <time>2015-01-04T09:24:04Z</time>
      </trkpt>
      <trkpt lat="48.59397" lon="-3.49459">
        <ele>164</ele>
        <time>2015-01-04T09:24:05Z</time>
      </trkpt>
      <trkpt lat="48.59391" lon="-3.49465">
        <ele>164</ele>
        <time>2015-01-04T09:24:06Z</time>
      </trkpt>
      <trkpt lat="48.59385" lon="-3.4947">
        <ele>164</ele>
        <time>2015-01-04T09:24:07Z</time>
      </trkpt>
      <trkpt lat="48.59378" lon="-3.49475">
        <ele>164</ele>
        <time>2015-01-04T09:24:08Z</time>
      </trkpt>
      <trkpt lat="48.59372" lon="-3.4948">
        <ele>164</ele>
        <time>2015-01-04T09:24:09Z</time>
      </trkpt>
      <trkpt lat="48.59365" lon="-3.49484">
        <ele>164</ele>
        <time>2015-01-04T09:24:10Z</time>
      </trkpt>
      <trkpt lat="48.59359" lon="-3.49489">
        <ele>164</ele>
        <time>2015-01-04T09:24:11Z</time>
      </trkpt>
      <trkpt lat="48.59352" lon="-3.49493">
        <ele>164</ele>
        <time>2015-01-04T09:24:12Z</time>
      </trkpt>
      <trkpt lat="48.59345" lon="-3.49497">
        <ele>164</ele>
        <time>2015-01-04T09:24:13Z</time>
      </trkpt>
      <trkpt lat="48.59338" lon="-3.495">
        <ele>164</ele>
        <time>2015-01-04T09:24:14Z</time>
      </trkpt>
      <trkpt lat="48.59331" lon="-3.49503">
        <ele>164</ele>
        <time>2015-01-04T09:24:15Z</time>
      </trkpt>
      <trkpt lat="48.59324" lon="-3.49507">
        <ele>164</ele>
        <time>2015-01-04T09:24:16Z</time>
      </trkpt>
      <trkpt lat="48.59317" lon="-3.4951">
        <ele>164</ele>
        <time>2015-01-04T09:24:17Z</time>
      </trkpt>
      <trkpt lat="48.5931" lon="-3.49513">
        <ele>164</ele>
        <time>2015-01-04T09:24:18Z</time>
      </trkpt>
      <trkpt lat="48.59303" lon="-3.49517">
        <ele>164</ele>
        <time>2015-01-04T09:24:19Z</time>
      </trkpt>
      <trkpt lat="48.59296" lon="-3.4952">
        <ele>164</ele>
        <time>2015-01-04T09:24:20Z</time>
      </trkpt>
      <trkpt lat="48.59288" lon="-3.49523">
        <ele>164</ele>
        <time>2015-01-04T09:24:21Z</time>
      </trkpt>
      <trkpt lat="48.59281" lon="-3.49526">
        <ele>164</ele>
        <time>2015-01-04T09:24:22Z</time>
      </trkpt>
      <trkpt lat="48.59274" lon="-3.49529">
        <ele>164</ele>
        <time>2015-01-04T09:24:23Z</time>
      </trkpt>
      <trkpt lat="48.59266" lon="-3.49532">
        <ele>164</ele>
        <time>2015-01-04T09:24:24Z</time>
      </trkpt>
      <trkpt lat="48.59259" lon="-3.49535">
        <ele>164</ele>
        <time>2015-01-04T09:24:25Z</time>
      </trkpt>
      <trkpt lat="48.59251" lon="-3.49538">
        <ele>164</ele>
        <time>2015-01-04T09:24:26Z</time>
      </trkpt>
      <trkpt lat="48.59244" lon="-3.49541">
        <ele>164</ele>
        <time>2015-01-04T09:24:27Z</time>
      </trkpt>
      <trkpt lat="48.59237" lon="-3.49544">
        <ele>164</ele>
        <time>2015-01-04T09:24:28Z</time>
      </trkpt>
      <trkpt lat="48.59229" lon="-3.49547">
        <ele>164</ele>
        <time>2015-01-04T09:24:29Z</time>
      </trkpt>
      <trkpt lat="48.59222" lon="-3.4955">
        <ele>164</ele>
        <time>2015-01-04T09:24:30Z</time>
      </trkpt>
      <trkpt lat="48.59214" lon="-3.49553">
        <ele>164</ele>
        <time>2015-01-04T09:24:31Z</time>
      </trkpt>
      <trkpt lat="48.59207" lon="-3.49556">
        <ele>164</ele>
        <time>2015-01-04T09:24:32Z</time>
      </trkpt>
      <trkpt lat="48.592" lon="-3.49559">
        <ele>164</ele>
        <time>2015-01-04T09:24:33Z</time>
      </trkpt>
      <trkpt lat="48.59192" lon="-3.49562">
        <ele>164</ele>
        <time>2015-01-04T09:24:34Z</time>
      </trkpt>
      <trkpt lat="48.59185" lon="-3.49565">
        <ele>164</ele>
        <time>2015-01-04T09:24:35Z</time>
      </trkpt>
      <trkpt lat="48.59177" lon="-3.49568">
        <ele>164</ele>
        <time>2015-01-04T09:24:36Z</time>
      </trkpt>
      <trkpt lat="48.5917" lon="-3.49571">
        <ele>164</ele>
        <time>2015-01-04T09:24:37Z</time>
      </trkpt>
      <trkpt lat="48.59162" lon="-3.49574">
        <ele>164</ele>
        <time>2015-01-04T09:24:38Z</time>
      </trkpt>
      <trkpt lat="48.59155" lon="-3.49577">
        <ele>164</ele>
        <time>2015-01-04T09:24:39Z</time>
      </trkpt>
      <trkpt lat="48.59148" lon="-3.4958">
        <ele>164</ele>
        <time>2015-01-04T09:24:40Z</time>
      </trkpt>
      <trkpt lat="48.5914" lon="-3.49583">
        <ele>164</ele>
        <time>2015-01-04T09:24:41Z</time>
      </trkpt>
      <trkpt lat="48.59133" lon="-3.49585">
        <ele>164</ele>
        <time>2015-01-04T09:24:42Z</time>
      </trkpt>
      <trkpt lat="48.59125" lon="-3.49587">
        <ele>164</ele>
        <time>2015-01-04T09:24:43Z</time>
      </trkpt>
      <trkpt lat="48.59118" lon="-3.49589">
        <ele>164</ele>
        <time>2015-01-04T09:24:44Z</time>
      </trkpt>
      <trkpt lat="48.59111" lon="-3.49591">
        <ele>164</ele>
        <time>2015-01-04T09:24:45Z</time>
      </trkpt>
      <trkpt lat="48.59103" lon="-3.49592">
        <ele>164</ele>
        <time>2015-01-04T09:24:46Z</time>
      </trkpt>
      <trkpt lat="48.59096" lon="-3.49594">
        <ele>164</ele>
        <time>2015-01-04T09:24:47Z</time>
      </trkpt>
      <trkpt lat="48.59089" lon="-3.49595">
        <ele>164</ele>
        <time>2015-01-04T09:24:48Z</time>
      </trkpt>
      <trkpt lat="48.59081" lon="-3.49596">
        <ele>164</ele>
        <time>2015-01-04T09:24:49Z</time>
      </trkpt>
      <trkpt lat="48.59074" lon="-3.49597">
        <ele>164</ele>
        <time>2015-01-04T09:24:50Z</time>
      </trkpt>
      <trkpt lat="48.59067" lon="-3.49598">
        <ele>164</ele>
        <time>2015-01-04T09:24:51Z</time>
      </trkpt>
      <trkpt lat="48.5906" lon="-3.49598">
        <ele>164</ele>
        <time>2015-01-04T09:24:52Z</time>
      </trkpt>
      <trkpt lat="48.59053" lon="-3.49598">
        <ele>164</ele>
        <time>2015-01-04T09:24:53Z</time>
      </trkpt>
      <trkpt lat="48.59032" lon="-3.49598">
        <ele>164</ele>
        <time>2015-01-04T09:24:56Z</time>
      </trkpt>
      <trkpt lat="48.59025" lon="-3.49598">
        <ele>164</ele>
        <time>2015-01-04T09:24:57Z</time>
      </trkpt>
      <trkpt lat="48.59018" lon="-3.49597">
        <ele>164</ele>
        <time>2015-01-04T09:24:58Z</time>
      </trkpt>
      <trkpt lat="48.59011" lon="-3.49596">
        <ele>164</ele>
        <time>2015-01-04T09:24:59Z</time>
      </trkpt>
      <trkpt lat="48.59004" lon="-3.49595">
        <ele>164</ele>
        <time>2015-01-04T09:25:00Z</time>
      </trkpt>
      <trkpt lat="48.58997" lon="-3.49594">
        <ele>164</ele>
        <time>2015-01-04T09:25:01Z</time>
      </trkpt>
      <trkpt lat="48.58991" lon="-3.49594">
        <ele>164</ele>
        <time>2015-01-04T09:25:02Z</time>
      </trkpt>
      <trkpt lat="48.58984" lon="-3.49592">
        <ele>164</ele>
        <time>2015-01-04T09:25:03Z</time>
      </trkpt>
      <trkpt lat="48.58977" lon="-3.49591">
        <ele>164</ele>
        <time>2015-01-04T09:25:04Z</time>
      </trkpt>
      <trkpt lat="48.58971" lon="-3.49589">
        <ele>164</ele>
        <time>2015-01-04T09:25:05Z</time>
      </trkpt>
      <trkpt lat="48.58964" lon="-3.49588">
        <ele>164</ele>
        <time>2015-01-04T09:25:06Z</time>
      </trkpt>
      <trkpt lat="48.58958" lon="-3.49586">
        <ele>164</ele>
        <time>2015-01-04T09:25:07Z</time>
      </trkpt>
      <trkpt lat="48.58951" lon="-3.49585">
        <ele>164</ele>
        <time>2015-01-04T09:25:08Z</time>
      </trkpt>
      <trkpt lat="48.58945" lon="-3.49584">
        <ele>164</ele>
        <time>2015-01-04T09:25:09Z</time>
      </trkpt>
      <trkpt lat="48.58938" lon="-3.49582">
        <ele>164</ele>
        <time>2015-01-04T09:25:10Z</time>
      </trkpt>
      <trkpt lat="48.58931" lon="-3.4958">
        <ele>164</ele>
        <time>2015-01-04T09:25:11Z</time>
      </trkpt>
      <trkpt lat="48.58924" lon="-3.49579">
        <ele>164</ele>
        <time>2015-01-04T09:25:12Z</time>
      </trkpt>
      <trkpt lat="48.58918" lon="-3.49577">
        <ele>164</ele>
        <time>2015-01-04T09:25:13Z</time>
      </trkpt>
      <trkpt lat="48.58911" lon="-3.49575">
        <ele>164</ele>
        <time>2015-01-04T09:25:14Z</time>
      </trkpt>
      <trkpt lat="48.58904" lon="-3.49573">
        <ele>164</ele>
        <time>2015-01-04T09:25:15Z</time>
      </trkpt>
      <trkpt lat="48.58897" lon="-3.49572">
        <ele>164</ele>
        <time>2015-01-04T09:25:16Z</time>
      </trkpt>
      <trkpt lat="48.58891" lon="-3.4957">
        <ele>164</ele>
        <time>2015-01-04T09:25:17Z</time>
      </trkpt>
      <trkpt lat="48.58885" lon="-3.49569">
        <ele>164</ele>
        <time>2015-01-04T09:25:18Z</time>
      </trkpt>
      <trkpt lat="48.58879" lon="-3.49567">
        <ele>164</ele>
        <time>2015-01-04T09:25:19Z</time>
      </trkpt>
      <trkpt lat="48.58873" lon="-3.49566">
        <ele>164</ele>
        <time>2015-01-04T09:25:20Z</time>
      </trkpt>
      <trkpt lat="48.58867" lon="-3.49564">
        <ele>164</ele>
        <time>2015-01-04T09:25:21Z</time>
      </trkpt>
      <trkpt lat="48.58861" lon="-3.49563">
        <ele>164</ele>
        <time>2015-01-04T09:25:22Z</time>
      </trkpt>
      <trkpt lat="48.58855" lon="-3.49561">
        <ele>164</ele>
        <time>2015-01-04T09:25:23Z</time>
      </trkpt>
      <trkpt lat="48.58849" lon="-3.4956">
        <ele>164</ele>
        <time>2015-01-04T09:25:24Z</time>
      </trkpt>
      <trkpt lat="48.58843" lon="-3.49558">
        <ele>164</ele>
        <time>2015-01-04T09:25:25Z</time>
      </trkpt>
      <trkpt lat="48.58837" lon="-3.49556">
        <ele>164</ele>
        <time>2015-01-04T09:25:26Z</time>
      </trkpt>
      <trkpt lat="48.5883" lon="-3.49554">
        <ele>164</ele>
        <time>2015-01-04T09:25:27Z</time>
      </trkpt>
      <trkpt lat="48.58824" lon="-3.49553">
        <ele>164</ele>
        <time>2015-01-04T09:25:28Z</time>
      </trkpt>
      <trkpt lat="48.58817" lon="-3.49552">
        <ele>164</ele>
        <time>2015-01-04T09:25:29Z</time>
      </trkpt>
      <trkpt lat="48.5881" lon="-3.4955">
        <ele>164</ele>
        <time>2015-01-04T09:25:30Z</time>
      </trkpt>
      <trkpt lat="48.58804" lon="-3.49549">
        <ele>164</ele>
        <time>2015-01-04T09:25:31Z</time>
      </trkpt>
      <trkpt lat="48.58797" lon="-3.49547">
        <ele>164</ele>
        <time>2015-01-04T09:25:32Z</time>
      </trkpt>
      <trkpt lat="48.58789" lon="-3.49546">
        <ele>164</ele>
        <time>2015-01-04T09:25:33Z</time>
      </trkpt>
      <trkpt lat="48.58782" lon="-3.49544">
        <ele>164</ele>
        <time>2015-01-04T09:25:34Z</time>
      </trkpt>
      <trkpt lat="48.58775" lon="-3.49542">
        <ele>164</ele>
        <time>2015-01-04T09:25:35Z</time>
      </trkpt>
      <trkpt lat="48.58767" lon="-3.4954">
        <ele>164</ele>
        <time>2015-01-04T09:25:36Z</time>
      </trkpt>
      <trkpt lat="48.58759" lon="-3.49538">
        <ele>164</ele>
        <time>2015-01-04T09:25:37Z</time>
      </trkpt>
      <trkpt lat="48.58751" lon="-3.49536">
        <ele>164</ele>
        <time>2015-01-04T09:25:38Z</time>
      </trkpt>
      <trkpt lat="48.58743" lon="-3.49534">
        <ele>164</ele>
        <time>2015-01-04T09:25:39Z</time>
      </trkpt>
      <trkpt lat="48.58736" lon="-3.49533">
        <ele>164</ele>
        <time>2015-01-04T09:25:40Z</time>
      </trkpt>
      <trkpt lat="48.58728" lon="-3.49531">
        <ele>164</ele>
        <time>2015-01-04T09:25:41Z</time>
      </trkpt>
      <trkpt lat="48.5872" lon="-3.49529">
        <ele>164</ele>
        <time>2015-01-04T09:25:42Z</time>
      </trkpt>
      <trkpt lat="48.58713" lon="-3.49527">
        <ele>164</ele>
        <time>2015-01-04T09:25:43Z</time>
      </trkpt>
      <trkpt lat="48.58705" lon="-3.49526">
        <ele>164</ele>
        <time>2015-01-04T09:25:44Z</time>
      </trkpt>
      <trkpt lat="48.58698" lon="-3.49524">
        <ele>164</ele>
        <time>2015-01-04T09:25:45Z</time>
      </trkpt>
      <trkpt lat="48.5869" lon="-3.49522">
        <ele>164</ele>
        <time>2015-01-04T09:25:46Z</time>
      </trkpt>
      <trkpt lat="48.58683" lon="-3.49521">
        <ele>164</ele>
        <time>2015-01-04T09:25:47Z</time>
      </trkpt>
      <trkpt lat="48.58676" lon="-3.49519">
        <ele>164</ele>
        <time>2015-01-04T09:25:48Z</time>
      </trkpt>
      <trkpt lat="48.58669" lon="-3.49517">
        <ele>164</ele>
        <time>2015-01-04T09:25:49Z</time>
      </trkpt>
      <trkpt lat="48.58662" lon="-3.49515">
        <ele>164</ele>
        <time>2015-01-04T09:25:50Z</time>
      </trkpt>
      <trkpt lat="48.58655" lon="-3.49514">
        <ele>164</ele>
        <time>2015-01-04T09:25:51Z</time>
      </trkpt>
      <trkpt lat="48.58648" lon="-3.49512">
        <ele>164</ele>
        <time>2015-01-04T09:25:52Z</time>
      </trkpt>
      <trkpt lat="48.58641" lon="-3.49511">
        <ele>164</ele>
        <time>2015-01-04T09:25:53Z</time>
      </trkpt>
      <trkpt lat="48.58634" lon="-3.49509">
        <ele>164</ele>
        <time>2015-01-04T09:25:54Z</time>
      </trkpt>
      <trkpt lat="48.58627" lon="-3.49507">
        <ele>164</ele>
        <time>2015-01-04T09:25:55Z</time>
      </trkpt>
      <trkpt lat="48.5862" lon="-3.49506">
        <ele>164</ele>
        <time>2015-01-04T09:25:56Z</time>
      </trkpt>
      <trkpt lat="48.58612" lon="-3.49504">
        <ele>164</ele>
        <time>2015-01-04T09:25:57Z</time>
      </trkpt>
      <trkpt lat="48.58605" lon="-3.49502">
        <ele>164</ele>
        <time>2015-01-04T09:25:58Z</time>
      </trkpt>
      <trkpt lat="48.58598" lon="-3.49501">
        <ele>164</ele>
        <time>2015-01-04T09:25:59Z</time>
      </trkpt>
      <trkpt lat="48.58591" lon="-3.49499">
        <ele>164</ele>
        <time>2015-01-04T09:26:00Z</time>
      </trkpt>
      <trkpt lat="48.58584" lon="-3.49498">
        <ele>164</ele>
        <time>2015-01-04T09:26:01Z</time>
      </trkpt>
      <trkpt lat="48.58577" lon="-3.49496">
        <ele>164</ele>
        <time>2015-01-04T09:26:02Z</time>
      </trkpt>
      <trkpt lat="48.58569" lon="-3.49495">
        <ele>164</ele>
        <time>2015-01-04T09:26:03Z</time>
      </trkpt>
      <trkpt lat="48.58562" lon="-3.49494">
        <ele>164</ele>
        <time>2015-01-04T09:26:04Z</time>
      </trkpt>
      <trkpt lat="48.58555" lon="-3.49493">
        <ele>164</ele>
        <time>2015-01-04T09:26:05Z</time>
      </trkpt>
      <trkpt lat="48.58547" lon="-3.49492">
        <ele>164</ele>
        <time>2015-01-04T09:26:06Z</time>
      </trkpt>
      <trkpt lat="48.5854" lon="-3.49491">
        <ele>163</ele>
        <time>2015-01-04T09:26:07Z</time>
      </trkpt>
      <trkpt lat="48.58532" lon="-3.49489">
        <ele>163</ele>
        <time>2015-01-04T09:26:08Z</time>
      </trkpt>
      <trkpt lat="48.58525" lon="-3.49488">
        <ele>163</ele>
        <time>2015-01-04T09:26:09Z</time>
      </trkpt>
      <trkpt lat="48.58517" lon="-3.49487">
        <ele>162</ele>
        <time>2015-01-04T09:26:10Z</time>
      </trkpt>
      <trkpt lat="48.58509" lon="-3.49486">
        <ele>162</ele>
        <time>2015-01-04T09:26:11Z</time>
      </trkpt>
      <trkpt lat="48.58501" lon="-3.49485">
        <ele>162</ele>
        <time>2015-01-04T09:26:12Z</time>
      </trkpt>
      <trkpt lat="48.58493" lon="-3.49484">
        <ele>162</ele>
        <time>2015-01-04T09:26:13Z</time>
      </trkpt>
      <trkpt lat="48.58485" lon="-3.49482">
        <ele>162</ele>
        <time>2015-01-04T09:26:14Z</time>
      </trkpt>
      <trkpt lat="48.58477" lon="-3.49481">
        <ele>162</ele>
        <time>2015-01-04T09:26:15Z</time>
      </trkpt>
      <trkpt lat="48.58469" lon="-3.4948">
        <ele>161</ele>
        <time>2015-01-04T09:26:16Z</time>
      </trkpt>
      <trkpt lat="48.58461" lon="-3.49479">
        <ele>161</ele>
        <time>2015-01-04T09:26:17Z</time>
      </trkpt>
      <trkpt lat="48.58452" lon="-3.49477">
        <ele>161</ele>
        <time>2015-01-04T09:26:18Z</time>
      </trkpt>
      <trkpt lat="48.58444" lon="-3.49476">
        <ele>161</ele>
        <time>2015-01-04T09:26:19Z</time>
      </trkpt>
      <trkpt lat="48.58436" lon="-3.49475">
        <ele>161</ele>
        <time>2015-01-04T09:26:20Z</time>
      </trkpt>
      <trkpt lat="48.58427" lon="-3.49474">
        <ele>160</ele>
        <time>2015-01-04T09:26:21Z</time>
      </trkpt>
      <trkpt lat="48.58419" lon="-3.49473">
        <ele>160</ele>
        <time>2015-01-04T09:26:22Z</time>
      </trkpt>
      <trkpt lat="48.58411" lon="-3.49471">
        <ele>160</ele>
        <time>2015-01-04T09:26:23Z</time>
      </trkpt>
      <trkpt lat="48.58403" lon="-3.4947">
        <ele>160</ele>
        <time>2015-01-04T09:26:24Z</time>
      </trkpt>
      <trkpt lat="48.58395" lon="-3.49469">
        <ele>160</ele>
        <time>2015-01-04T09:26:25Z</time>
      </trkpt>
      <trkpt lat="48.58387" lon="-3.49467">
        <ele>159</ele>
        <time>2015-01-04T09:26:26Z</time>
      </trkpt>
      <trkpt lat="48.58379" lon="-3.49465">
        <ele>159</ele>
        <time>2015-01-04T09:26:27Z</time>
      </trkpt>
      <trkpt lat="48.58371" lon="-3.49464">
        <ele>159</ele>
        <time>2015-01-04T09:26:28Z</time>
      </trkpt>
      <trkpt lat="48.58364" lon="-3.49463">
        <ele>159</ele>
        <time>2015-01-04T09:26:29Z</time>
      </trkpt>
      <trkpt lat="48.58356" lon="-3.49462">
        <ele>158</ele>
        <time>2015-01-04T09:26:30Z</time>
      </trkpt>
      <trkpt lat="48.58348" lon="-3.49461">
        <ele>158</ele>
        <time>2015-01-04T09:26:31Z</time>
      </trkpt>
      <trkpt lat="48.5834" lon="-3.4946">
        <ele>158</ele>
        <time>2015-01-04T09:26:32Z</time>
      </trkpt>
      <trkpt lat="48.58332" lon="-3.4946">
        <ele>158</ele>
        <time>2015-01-04T09:26:33Z</time>
      </trkpt>
      <trkpt lat="48.58324" lon="-3.49459">
        <ele>157</ele>
        <time>2015-01-04T09:26:34Z</time>
      </trkpt>
      <trkpt lat="48.58316" lon="-3.49458">
        <ele>157</ele>
        <time>2015-01-04T09:26:35Z</time>
      </trkpt>
      <trkpt lat="48.58308" lon="-3.49457">
        <ele>157</ele>
        <time>2015-01-04T09:26:36Z</time>
      </trkpt>
      <trkpt lat="48.583" lon="-3.49455">
        <ele>156</ele>
        <time>2015-01-04T09:26:37Z</time>
      </trkpt>
      <trkpt lat="48.58292" lon="-3.49454">
        <ele>156</ele>
        <time>2015-01-04T09:26:38Z</time>
      </trkpt>
      <trkpt lat="48.58284" lon="-3.49453">
        <ele>156</ele>
        <time>2015-01-04T09:26:39Z</time>
      </trkpt>
      <trkpt lat="48.58276" lon="-3.49452">
        <ele>155</ele>
        <time>2015-01-04T09:26:40Z</time>
      </trkpt>
      <trkpt lat="48.58268" lon="-3.49451">
        <ele>155</ele>
        <time>2015-01-04T09:26:41Z</time>
      </trkpt>
      <trkpt lat="48.58261" lon="-3.49451">
        <ele>155</ele>
        <time>2015-01-04T09:26:42Z</time>
      </trkpt>
      <trkpt lat="48.58253" lon="-3.49452">
        <ele>155</ele>
        <time>2015-01-04T09:26:43Z</time>
      </trkpt>
      <trkpt lat="48.58247" lon="-3.49455">
        <ele>155</ele>
        <time>2015-01-04T09:26:44Z</time>
      </trkpt>
      <trkpt lat="48.5824" lon="-3.49461">
        <ele>155</ele>
        <time>2015-01-04T09:26:45Z</time>
      </trkpt>
      <trkpt lat="48.58236" lon="-3.49469">
        <ele>155</ele>
        <time>2015-01-04T09:26:46Z</time>
      </trkpt>
      <trkpt lat="48.58233" lon="-3.49479">
        <ele>155</ele>
        <time>2015-01-04T09:26:47Z</time>
      </trkpt>
      <trkpt lat="48.5823" lon="-3.49488">
        <ele>155</ele>
        <time>2015-01-04T09:26:48Z</time>
      </trkpt>
      <trkpt lat="48.58229" lon="-3.49498">
        <ele>155</ele>
        <time>2015-01-04T09:26:49Z</time>
      </trkpt>
      <trkpt lat="48.58227" lon="-3.49508">
        <ele>155</ele>
        <time>2015-01-04T09:26:50Z</time>
      </trkpt>
      <trkpt lat="48.58226" lon="-3.49518">
        <ele>155</ele>
        <time>2015-01-04T09:26:51Z</time>
      </trkpt>
      <trkpt lat="48.58226" lon="-3.49528">
        <ele>155</ele>
        <time>2015-01-04T09:26:52Z</time>
      </trkpt>
      <trkpt lat="48.58226" lon="-3.49539">
        <ele>155</ele>
        <time>2015-01-04T09:26:53Z</time>
      </trkpt>
      <trkpt lat="48.58226" lon="-3.49549">
        <ele>155</ele>
        <time>2015-01-04T09:26:54Z</time>
      </trkpt>
      <trkpt lat="48.58227" lon="-3.49559">
        <ele>155</ele>
        <time>2015-01-04T09:26:55Z</time>
      </trkpt>
      <trkpt lat="48.58228" lon="-3.49569">
        <ele>155</ele>
        <time>2015-01-04T09:26:56Z</time>
      </trkpt>
      <trkpt lat="48.58229" lon="-3.4958">
        <ele>155</ele>
        <time>2015-01-04T09:26:57Z</time>
      </trkpt>
      <trkpt lat="48.5823" lon="-3.4959">
        <ele>155</ele>
        <time>2015-01-04T09:26:58Z</time>
      </trkpt>
      <trkpt lat="48.58231" lon="-3.496">
        <ele>155</ele>
        <time>2015-01-04T09:26:59Z</time>
      </trkpt>
      <trkpt lat="48.58232" lon="-3.4961">
        <ele>155</ele>
        <time>2015-01-04T09:27:00Z</time>
      </trkpt>
      <trkpt lat="48.58234" lon="-3.49621">
        <ele>155</ele>
        <time>2015-01-04T09:27:01Z</time>
      </trkpt>
      <trkpt lat="48.58235" lon="-3.49631">
        <ele>155</ele>
        <time>2015-01-04T09:27:02Z</time>
      </trkpt>
      <trkpt lat="48.58237" lon="-3.49641">
        <ele>155</ele>
        <time>2015-01-04T09:27:03Z</time>
      </trkpt>
      <trkpt lat="48.5824" lon="-3.49651">
        <ele>155</ele>
        <time>2015-01-04T09:27:04Z</time>
      </trkpt>
      <trkpt lat="48.58243" lon="-3.4966">
        <ele>155</ele>
        <time>2015-01-04T09:27:05Z</time>
      </trkpt>
      <trkpt lat="48.58247" lon="-3.4967">
        <ele>155</ele>
        <time>2015-01-04T09:27:06Z</time>
      </trkpt>
      <trkpt lat="48.58251" lon="-3.49678">
        <ele>155</ele>
        <time>2015-01-04T09:27:07Z</time>
      </trkpt>
      <trkpt lat="48.58255" lon="-3.49687">
        <ele>155</ele>
        <time>2015-01-04T09:27:08Z</time>
      </trkpt>
      <trkpt lat="48.58259" lon="-3.49695">
        <ele>155</ele>
        <time>2015-01-04T09:27:09Z</time>
      </trkpt>
      <trkpt lat="48.58263" lon="-3.49703">
        <ele>155</ele>
        <time>2015-01-04T09:27:10Z</time>
      </trkpt>
      <trkpt lat="48.58268" lon="-3.49711">
        <ele>155</ele>
        <time>2015-01-04T09:27:11Z</time>
      </trkpt>
      <trkpt lat="48.58272" lon="-3.4972">
        <ele>155</ele>
        <time>2015-01-04T09:27:12Z</time>
      </trkpt>
      <trkpt lat="48.58277" lon="-3.49727">
        <ele>155</ele>
        <time>2015-01-04T09:27:13Z</time>
      </trkpt>
      <trkpt lat="48.58281" lon="-3.49735">
        <ele>155</ele>
        <time>2015-01-04T09:27:14Z</time>
      </trkpt>
      <trkpt lat="48.58286" lon="-3.49743">
        <ele>155</ele>
        <time>2015-01-04T09:27:15Z</time>
      </trkpt>
      <trkpt lat="48.5829" lon="-3.49752">
        <ele>155</ele>
        <time>2015-01-04T09:27:16Z</time>
      </trkpt>
      <trkpt lat="48.58295" lon="-3.4976">
        <ele>155</ele>
        <time>2015-01-04T09:27:17Z</time>
      </trkpt>
      <trkpt lat="48.58299" lon="-3.49768">
        <ele>155</ele>
        <time>2015-01-04T09:27:18Z</time>
      </trkpt>
      <trkpt lat="48.58303" lon="-3.49776">
        <ele>155</ele>
        <time>2015-01-04T09:27:19Z</time>
      </trkpt>
      <trkpt lat="48.58308" lon="-3.49784">
        <ele>155</ele>
        <time>2015-01-04T09:27:20Z</time>
      </trkpt>
      <trkpt lat="48.58312" lon="-3.49792">
        <ele>155</ele>
        <time>2015-01-04T09:27:21Z</time>
      </trkpt>
      <trkpt lat="48.58316" lon="-3.49799">
        <ele>155</ele>
        <time>2015-01-04T09:27:22Z</time>
      </trkpt>
      <trkpt lat="48.58321" lon="-3.49807">
        <ele>155</ele>
        <time>2015-01-04T09:27:23Z</time>
      </trkpt>
      <trkpt lat="48.58326" lon="-3.49814">
        <ele>155</ele>
        <time>2015-01-04T09:27:24Z</time>
      </trkpt>
      <trkpt lat="48.58329" lon="-3.49821">
        <ele>155</ele>
        <time>2015-01-04T09:27:25Z</time>
      </trkpt>
      <trkpt lat="48.58333" lon="-3.49829">
        <ele>155</ele>
        <time>2015-01-04T09:27:26Z</time>
      </trkpt>
      <trkpt lat="48.58337" lon="-3.49836">
        <ele>155</ele>
        <time>2015-01-04T09:27:27Z</time>
      </trkpt>
      <trkpt lat="48.58341" lon="-3.49844">
        <ele>155</ele>
        <time>2015-01-04T09:27:28Z</time>
      </trkpt>
      <trkpt lat="48.58345" lon="-3.49851">
        <ele>155</ele>
        <time>2015-01-04T09:27:29Z</time>
      </trkpt>
      <trkpt lat="48.5835" lon="-3.49859">
        <ele>155</ele>
        <time>2015-01-04T09:27:30Z</time>
      </trkpt>
      <trkpt lat="48.58354" lon="-3.49867">
        <ele>155</ele>
        <time>2015-01-04T09:27:31Z</time>
      </trkpt>
      <trkpt lat="48.58358" lon="-3.49874">
        <ele>155</ele>
        <time>2015-01-04T09:27:32Z</time>
      </trkpt>
      <trkpt lat="48.58363" lon="-3.49882">
        <ele>155</ele>
        <time>2015-01-04T09:27:33Z</time>
      </trkpt>
      <trkpt lat="48.58366" lon="-3.49889">
        <ele>155</ele>
        <time>2015-01-04T09:27:34Z</time>
      </trkpt>
      <trkpt lat="48.58371" lon="-3.49897">
        <ele>155</ele>
        <time>2015-01-04T09:27:35Z</time>
      </trkpt>
      <trkpt lat="48.58374" lon="-3.49904">
        <ele>155</ele>
        <time>2015-01-04T09:27:36Z</time>
      </trkpt>
      <trkpt lat="48.58379" lon="-3.49912">
        <ele>155</ele>
        <time>2015-01-04T09:27:37Z</time>
      </trkpt>
      <trkpt lat="48.58382" lon="-3.49919">
        <ele>155</ele>
        <time>2015-01-04T09:27:38Z</time>
      </trkpt>
      <trkpt lat="48.58386" lon="-3.49926">
        <ele>155</ele>
        <time>2015-01-04T09:27:39Z</time>
      </trkpt>
      <trkpt lat="48.5839" lon="-3.49933">
        <ele>155</ele>
        <time>2015-01-04T09:27:40Z</time>
      </trkpt>
      <trkpt lat="48.58394" lon="-3.4994">
        <ele>155</ele>
        <time>2015-01-04T09:27:41Z</time>
      </trkpt>
      <trkpt lat="48.58398" lon="-3.49947">
        <ele>155</ele>
        <time>2015-01-04T09:27:42Z</time>
      </trkpt>
      <trkpt lat="48.58402" lon="-3.49954">
        <ele>155</ele>
        <time>2015-01-04T09:27:43Z</time>
      </trkpt>
      <trkpt lat="48.58406" lon="-3.4996">
        <ele>155</ele>
        <time>2015-01-04T09:27:44Z</time>
      </trkpt>
      <trkpt lat="48.5841" lon="-3.49967">
        <ele>155</ele>
        <time>2015-01-04T09:27:45Z</time>
      </trkpt>
      <trkpt lat="48.58414" lon="-3.49974">
        <ele>155</ele>
        <time>2015-01-04T09:27:46Z</time>
      </trkpt>
      <trkpt lat="48.58418" lon="-3.49982">
        <ele>156</ele>
        <time>2015-01-04T09:27:47Z</time>
      </trkpt>
      <trkpt lat="48.58422" lon="-3.49989">
        <ele>156</ele>
        <time>2015-01-04T09:27:48Z</time>
      </trkpt>
      <trkpt lat="48.58426" lon="-3.49996">
        <ele>156</ele>
        <time>2015-01-04T09:27:49Z</time>
      </trkpt>
      <trkpt lat="48.58431" lon="-3.50003">
        <ele>156</ele>
        <time>2015-01-04T09:27:50Z</time>
      </trkpt>
      <trkpt lat="48.58435" lon="-3.5001">
        <ele>156</ele>
        <time>2015-01-04T09:27:51Z</time>
      </trkpt>
      <trkpt lat="48.58439" lon="-3.50017">
        <ele>157</ele>
        <time>2015-01-04T09:27:52Z</time>
      </trkpt>
      <trkpt lat="48.58444" lon="-3.50023">
        <ele>157</ele>
        <time>2015-01-04T09:27:53Z</time>
      </trkpt>
      <trkpt lat="48.58449" lon="-3.50029">
        <ele>157</ele>
        <time>2015-01-04T09:27:54Z</time>
      </trkpt>
      <trkpt lat="48.58453" lon="-3.50035">
        <ele>157</ele>
        <time>2015-01-04T09:27:55Z</time>
      </trkpt>
      <trkpt lat="48.58458" lon="-3.50042">
        <ele>158</ele>
        <time>2015-01-04T09:27:56Z</time>
      </trkpt>
      <trkpt lat="48.58463" lon="-3.50047">
        <ele>158</ele>
        <time>2015-01-04T09:27:57Z</time>
      </trkpt>
      <trkpt lat="48.58468" lon="-3.50054">
        <ele>158</ele>
        <time>2015-01-04T09:27:58Z</time>
      </trkpt>
      <trkpt lat="48.58473" lon="-3.5006">
        <ele>158</ele>
        <time>2015-01-04T09:27:59Z</time>
      </trkpt>
      <trkpt lat="48.58479" lon="-3.50065">
        <ele>158</ele>
        <time>2015-01-04T09:28:00Z</time>
      </trkpt>
      <trkpt lat="48.58484" lon="-3.50071">
        <ele>158</ele>
        <time>2015-01-04T09:28:01Z</time>
      </trkpt>
      <trkpt lat="48.58489" lon="-3.50077">
        <ele>158</ele>
        <time>2015-01-04T09:28:02Z</time>
      </trkpt>
      <trkpt lat="48.58494" lon="-3.50083">
        <ele>159</ele>
        <time>2015-01-04T09:28:03Z</time>
      </trkpt>
      <trkpt lat="48.58499" lon="-3.50089">
        <ele>159</ele>
        <time>2015-01-04T09:28:04Z</time>
      </trkpt>
      <trkpt lat="48.58504" lon="-3.50095">
        <ele>159</ele>
        <time>2015-01-04T09:28:05Z</time>
      </trkpt>
      <trkpt lat="48.58509" lon="-3.50102">
        <ele>159</ele>
        <time>2015-01-04T09:28:06Z</time>
      </trkpt>
      <trkpt lat="48.58515" lon="-3.50108">
        <ele>159</ele>
        <time>2015-01-04T09:28:07Z</time>
      </trkpt>
      <trkpt lat="48.5852" lon="-3.50114">
        <ele>159</ele>
        <time>2015-01-04T09:28:08Z</time>
      </trkpt>
      <trkpt lat="48.58526" lon="-3.50121">
        <ele>159</ele>
        <time>2015-01-04T09:28:09Z</time>
      </trkpt>
      <trkpt lat="48.58531" lon="-3.50127">
        <ele>159</ele>
        <time>2015-01-04T09:28:10Z</time>
      </trkpt>
      <trkpt lat="48.58537" lon="-3.50133">
        <ele>159</ele>
        <time>2015-01-04T09:28:11Z</time>
      </trkpt>
      <trkpt lat="48.58542" lon="-3.50139">
        <ele>159</ele>
        <time>2015-01-04T09:28:12Z</time>
      </trkpt>
      <trkpt lat="48.58547" lon="-3.50145">
        <ele>159</ele>
        <time>2015-01-04T09:28:13Z</time>
      </trkpt>
      <trkpt lat="48.58552" lon="-3.50151">
        <ele>159</ele>
        <time>2015-01-04T09:28:14Z</time>
      </trkpt>
      <trkpt lat="48.58558" lon="-3.50158">
        <ele>160</ele>
        <time>2015-01-04T09:28:15Z</time>
      </trkpt>
      <trkpt lat="48.58563" lon="-3.50163">
        <ele>160</ele>
        <time>2015-01-04T09:28:16Z</time>
      </trkpt>
      <trkpt lat="48.58568" lon="-3.5017">
        <ele>160</ele>
        <time>2015-01-04T09:28:17Z</time>
      </trkpt>
      <trkpt lat="48.58573" lon="-3.50176">
        <ele>160</ele>
        <time>2015-01-04T09:28:18Z</time>
      </trkpt>
      <trkpt lat="48.58578" lon="-3.50182">
        <ele>160</ele>
        <time>2015-01-04T09:28:19Z</time>
      </trkpt>
      <trkpt lat="48.58584" lon="-3.50188">
        <ele>160</ele>
        <time>2015-01-04T09:28:20Z</time>
      </trkpt>
      <trkpt lat="48.58589" lon="-3.50195">
        <ele>160</ele>
        <time>2015-01-04T09:28:21Z</time>
      </trkpt>
      <trkpt lat="48.58594" lon="-3.50201">
        <ele>160</ele>
        <time>2015-01-04T09:28:22Z</time>
      </trkpt>
      <trkpt lat="48.58599" lon="-3.50207">
        <ele>160</ele>
        <time>2015-01-04T09:28:23Z</time>
      </trkpt>
      <trkpt lat="48.58605" lon="-3.50214">
        <ele>160</ele>
        <time>2015-01-04T09:28:24Z</time>
      </trkpt>
      <trkpt lat="48.5861" lon="-3.50221">
        <ele>160</ele>
        <time>2015-01-04T09:28:25Z</time>
      </trkpt>
      <trkpt lat="48.58615" lon="-3.50228">
        <ele>160</ele>
        <time>2015-01-04T09:28:26Z</time>
      </trkpt>
      <trkpt lat="48.5862" lon="-3.50235">
        <ele>160</ele>
        <time>2015-01-04T09:28:27Z</time>
      </trkpt>
      <trkpt lat="48.58624" lon="-3.50243">
        <ele>160</ele>
        <time>2015-01-04T09:28:28Z</time>
      </trkpt>
      <trkpt lat="48.58629" lon="-3.50251">
        <ele>160</ele>
        <time>2015-01-04T09:28:29Z</time>
      </trkpt>
      <trkpt lat="48.58633" lon="-3.50258">
        <ele>160</ele>
        <time>2015-01-04T09:28:30Z</time>
      </trkpt>
      <trkpt lat="48.58638" lon="-3.50266">
        <ele>160</ele>
        <time>2015-01-04T09:28:31Z</time>
      </trkpt>
      <trkpt lat="48.58642" lon="-3.50275">
        <ele>160</ele>
        <time>2015-01-04T09:28:32Z</time>
      </trkpt>
      <trkpt lat="48.58646" lon="-3.50283">
        <ele>160</ele>
        <time>2015-01-04T09:28:33Z</time>
      </trkpt>
      <trkpt lat="48.5865" lon="-3.50291">
        <ele>160</ele>
        <time>2015-01-04T09:28:34Z</time>
      </trkpt>
      <trkpt lat="48.58653" lon="-3.503">
        <ele>160</ele>
        <time>2015-01-04T09:28:35Z</time>
      </trkpt>
      <trkpt lat="48.58657" lon="-3.50309">
        <ele>160</ele>
        <time>2015-01-04T09:28:36Z</time>
      </trkpt>
      <trkpt lat="48.5866" lon="-3.50318">
        <ele>160</ele>
        <time>2015-01-04T09:28:37Z</time>
      </trkpt>
      <trkpt lat="48.58663" lon="-3.50328">
        <ele>160</ele>
        <time>2015-01-04T09:28:38Z</time>
      </trkpt>
      <trkpt lat="48.58665" lon="-3.50338">
        <ele>160</ele>
        <time>2015-01-04T09:28:39Z</time>
      </trkpt>
      <trkpt lat="48.58667" lon="-3.50348">
        <ele>160</ele>
        <time>2015-01-04T09:28:40Z</time>
      </trkpt>
      <trkpt lat="48.58668" lon="-3.50358">
        <ele>160</ele>
        <time>2015-01-04T09:28:41Z</time>
      </trkpt>
      <trkpt lat="48.58669" lon="-3.50368">
        <ele>160</ele>
        <time>2015-01-04T09:28:42Z</time>
      </trkpt>
      <trkpt lat="48.5867" lon="-3.50377">
        <ele>160</ele>
        <time>2015-01-04T09:28:43Z</time>
      </trkpt>
      <trkpt lat="48.58671" lon="-3.50387">
        <ele>160</ele>
        <time>2015-01-04T09:28:44Z</time>
      </trkpt>
      <trkpt lat="48.58672" lon="-3.50396">
        <ele>161</ele>
        <time>2015-01-04T09:28:45Z</time>
      </trkpt>
      <trkpt lat="48.58673" lon="-3.50406">
        <ele>161</ele>
        <time>2015-01-04T09:28:46Z</time>
      </trkpt>
      <trkpt lat="48.58675" lon="-3.50415">
        <ele>161</ele>
        <time>2015-01-04T09:28:47Z</time>
      </trkpt>
      <trkpt lat="48.58676" lon="-3.50424">
        <ele>162</ele>
        <time>2015-01-04T09:28:48Z</time>
      </trkpt>
      <trkpt lat="48.58677" lon="-3.50433">
        <ele>162</ele>
        <time>2015-01-04T09:28:49Z</time>
      </trkpt>
      <trkpt lat="48.58679" lon="-3.50443">
        <ele>162</ele>
        <time>2015-01-04T09:28:50Z</time>
      </trkpt>
      <trkpt lat="48.58681" lon="-3.50452">
        <ele>162</ele>
        <time>2015-01-04T09:28:51Z</time>
      </trkpt>
      <trkpt lat="48.58683" lon="-3.50461">
        <ele>163</ele>
        <time>2015-01-04T09:28:52Z</time>
      </trkpt>
      <trkpt lat="48.58685" lon="-3.50469">
        <ele>163</ele>
        <time>2015-01-04T09:28:53Z</time>
      </trkpt>
      <trkpt lat="48.58688" lon="-3.50478">
        <ele>163</ele>
        <time>2015-01-04T09:28:54Z</time>
      </trkpt>
      <trkpt lat="48.5869" lon="-3.50486">
        <ele>164</ele>
        <time>2015-01-04T09:28:55Z</time>
      </trkpt>
      <trkpt lat="48.58693" lon="-3.50494">
        <ele>164</ele>
        <time>2015-01-04T09:28:56Z</time>
      </trkpt>
      <trkpt lat="48.58695" lon="-3.50502">
        <ele>164</ele>
        <time>2015-01-04T09:28:57Z</time>
      </trkpt>
      <trkpt lat="48.58698" lon="-3.5051">
        <ele>164</ele>
        <time>2015-01-04T09:28:58Z</time>
      </trkpt>
      <trkpt lat="48.58701" lon="-3.50518">
        <ele>165</ele>
        <time>2015-01-04T09:28:59Z</time>
      </trkpt>
      <trkpt lat="48.58704" lon="-3.50525">
        <ele>165</ele>
        <time>2015-01-04T09:29:00Z</time>
      </trkpt>
      <trkpt lat="48.58707" lon="-3.50533">
        <ele>165</ele>
        <time>2015-01-04T09:29:01Z</time>
      </trkpt>
      <trkpt lat="48.58709" lon="-3.50542">
        <ele>165</ele>
        <time>2015-01-04T09:29:02Z</time>
      </trkpt>
      <trkpt lat="48.58713" lon="-3.5055">
        <ele>165</ele>
        <time>2015-01-04T09:29:03Z</time>
      </trkpt>
      <trkpt lat="48.58716" lon="-3.50558">
        <ele>166</ele>
        <time>2015-01-04T09:29:04Z</time>
      </trkpt>
      <trkpt lat="48.5872" lon="-3.50566">
        <ele>166</ele>
        <time>2015-01-04T09:29:05Z</time>
      </trkpt>
      <trkpt lat="48.58723" lon="-3.50575">
        <ele>166</ele>
        <time>2015-01-04T09:29:06Z</time>
      </trkpt>
      <trkpt lat="48.58727" lon="-3.50583">
        <ele>166</ele>
        <time>2015-01-04T09:29:07Z</time>
      </trkpt>
      <trkpt lat="48.5873" lon="-3.50592">
        <ele>166</ele>
        <time>2015-01-04T09:29:08Z</time>
      </trkpt>
      <trkpt lat="48.58734" lon="-3.50601">
        <ele>166</ele>
        <time>2015-01-04T09:29:09Z</time>
      </trkpt>
      <trkpt lat="48.58737" lon="-3.5061">
        <ele>166</ele>
        <time>2015-01-04T09:29:10Z</time>
      </trkpt>
      <trkpt lat="48.58741" lon="-3.50619">
        <ele>166</ele>
        <time>2015-01-04T09:29:11Z</time>
      </trkpt>
      <trkpt lat="48.58745" lon="-3.50628">
        <ele>166</ele>
        <time>2015-01-04T09:29:12Z</time>
      </trkpt>
      <trkpt lat="48.58749" lon="-3.50637">
        <ele>166</ele>
        <time>2015-01-04T09:29:13Z</time>
      </trkpt>
      <trkpt lat="48.58752" lon="-3.50646">
        <ele>166</ele>
        <time>2015-01-04T09:29:14Z</time>
      </trkpt>
      <trkpt lat="48.58756" lon="-3.50656">
        <ele>166</ele>
        <time>2015-01-04T09:29:15Z</time>
      </trkpt>
      <trkpt lat="48.5876" lon="-3.50665">
        <ele>166</ele>
        <time>2015-01-04T09:29:16Z</time>
      </trkpt>
      <trkpt lat="48.58763" lon="-3.50674">
        <ele>166</ele>
        <time>2015-01-04T09:29:17Z</time>
      </trkpt>
      <trkpt lat="48.58767" lon="-3.50684">
        <ele>166</ele>
        <time>2015-01-04T09:29:18Z</time>
      </trkpt>
      <trkpt lat="48.5877" lon="-3.50693">
        <ele>166</ele>
        <time>2015-01-04T09:29:19Z</time>
      </trkpt>
      <trkpt lat="48.58773" lon="-3.50703">
        <ele>166</ele>
        <time>2015-01-04T09:29:20Z</time>
      </trkpt>
      <trkpt lat="48.58775" lon="-3.50713">
        <ele>166</ele>
        <time>2015-01-04T09:29:21Z</time>
      </trkpt>
      <trkpt lat="48.58778" lon="-3.50723">
        <ele>166</ele>
        <time>2015-01-04T09:29:22Z</time>
      </trkpt>
      <trkpt lat="48.5878" lon="-3.50733">
        <ele>166</ele>
        <time>2015-01-04T09:29:23Z</time>
      </trkpt>
      <trkpt lat="48.58782" lon="-3.50744">
        <ele>166</ele>
        <time>2015-01-04T09:29:24Z</time>
      </trkpt>
      <trkpt lat="48.58784" lon="-3.50754">
        <ele>166</ele>
        <time>2015-01-04T09:29:25Z</time>
      </trkpt>
      <trkpt lat="48.58785" lon="-3.50765">
        <ele>166</ele>
        <time>2015-01-04T09:29:26Z</time>
      </trkpt>
      <trkpt lat="48.58787" lon="-3.50776">
        <ele>166</ele>
        <time>2015-01-04T09:29:27Z</time>
      </trkpt>
      <trkpt lat="48.58788" lon="-3.50787">
        <ele>166</ele>
        <time>2015-01-04T09:29:28Z</time>
      </trkpt>
      <trkpt lat="48.5879" lon="-3.50797">
        <ele>166</ele>
        <time>2015-01-04T09:29:29Z</time>
      </trkpt>
      <trkpt lat="48.58791" lon="-3.50808">
        <ele>166</ele>
        <time>2015-01-04T09:29:30Z</time>
      </trkpt>
      <trkpt lat="48.58792" lon="-3.50819">
        <ele>166</ele>
        <time>2015-01-04T09:29:31Z</time>
      </trkpt>
      <trkpt lat="48.58793" lon="-3.5083">
        <ele>166</ele>
        <time>2015-01-04T09:29:32Z</time>
      </trkpt>
      <trkpt lat="48.58795" lon="-3.50841">
        <ele>166</ele>
        <time>2015-01-04T09:29:33Z</time>
      </trkpt>
      <trkpt lat="48.58796" lon="-3.50852">
        <ele>166</ele>
        <time>2015-01-04T09:29:34Z</time>
      </trkpt>
      <trkpt lat="48.58797" lon="-3.50863">
        <ele>166</ele>
        <time>2015-01-04T09:29:35Z</time>
      </trkpt>
      <trkpt lat="48.58799" lon="-3.50874">
        <ele>166</ele>
        <time>2015-01-04T09:29:36Z</time>
      </trkpt>
      <trkpt lat="48.588" lon="-3.50885">
        <ele>166</ele>
        <time>2015-01-04T09:29:37Z</time>
      </trkpt>
      <trkpt lat="48.58802" lon="-3.50896">
        <ele>166</ele>
        <time>2015-01-04T09:29:38Z</time>
      </trkpt>
      <trkpt lat="48.58803" lon="-3.50907">
        <ele>166</ele>
        <time>2015-01-04T09:29:39Z</time>
      </trkpt>
      <trkpt lat="48.58804" lon="-3.50918">
        <ele>166</ele>
        <time>2015-01-04T09:29:40Z</time>
      </trkpt>
      <trkpt lat="48.58806" lon="-3.50929">
        <ele>166</ele>
        <time>2015-01-04T09:29:41Z</time>
      </trkpt>
      <trkpt lat="48.58807" lon="-3.5094">
        <ele>166</ele>
        <time>2015-01-04T09:29:42Z</time>
      </trkpt>
      <trkpt lat="48.58809" lon="-3.50951">
        <ele>166</ele>
        <time>2015-01-04T09:29:43Z</time>
      </trkpt>
      <trkpt lat="48.5881" lon="-3.50962">
        <ele>166</ele>
        <time>2015-01-04T09:29:44Z</time>
      </trkpt>
      <trkpt lat="48.58812" lon="-3.50974">
        <ele>166</ele>
        <time>2015-01-04T09:29:45Z</time>
      </trkpt>
      <trkpt lat="48.58814" lon="-3.50985">
        <ele>166</ele>
        <time>2015-01-04T09:29:46Z</time>
      </trkpt>
      <trkpt lat="48.58816" lon="-3.50995">
        <ele>166</ele>
        <time>2015-01-04T09:29:47Z</time>
      </trkpt>
      <trkpt lat="48.58818" lon="-3.51007">
        <ele>166</ele>
        <time>2015-01-04T09:29:48Z</time>
      </trkpt>
      <trkpt lat="48.58821" lon="-3.51017">
        <ele>166</ele>
        <time>2015-01-04T09:29:49Z</time>
      </trkpt>
      <trkpt lat="48.58824" lon="-3.51028">
        <ele>166</ele>
        <time>2015-01-04T09:29:50Z</time>
      </trkpt>
      <trkpt lat="48.58827" lon="-3.51039">
        <ele>166</ele>
        <time>2015-01-04T09:29:51Z</time>
      </trkpt>
      <trkpt lat="48.58831" lon="-3.51049">
        <ele>166</ele>
        <time>2015-01-04T09:29:52Z</time>
      </trkpt>
      <trkpt lat="48.58835" lon="-3.51059">
        <ele>166</ele>
        <time>2015-01-04T09:29:53Z</time>
      </trkpt>
      <trkpt lat="48.5884" lon="-3.51068">
        <ele>166</ele>
        <time>2015-01-04T09:29:54Z</time>
      </trkpt>
      <trkpt lat="48.58845" lon="-3.51078">
        <ele>166</ele>
        <time>2015-01-04T09:29:55Z</time>
      </trkpt>
      <trkpt lat="48.5885" lon="-3.51087">
        <ele>166</ele>
        <time>2015-01-04T09:29:56Z</time>
      </trkpt>
      <trkpt lat="48.58855" lon="-3.51095">
        <ele>165</ele>
        <time>2015-01-04T09:29:57Z</time>
      </trkpt>
      <trkpt lat="48.58861" lon="-3.51103">
        <ele>165</ele>
        <time>2015-01-04T09:29:58Z</time>
      </trkpt>
      <trkpt lat="48.58867" lon="-3.51111">
        <ele>165</ele>
        <time>2015-01-04T09:29:59Z</time>
      </trkpt>
      <trkpt lat="48.58873" lon="-3.51119">
        <ele>165</ele>
        <time>2015-01-04T09:30:00Z</time>
      </trkpt>
      <trkpt lat="48.5888" lon="-3.51126">
        <ele>165</ele>
        <time>2015-01-04T09:30:01Z</time>
      </trkpt>
      <trkpt lat="48.58886" lon="-3.51133">
        <ele>165</ele>
        <time>2015-01-04T09:30:02Z</time>
      </trkpt>
      <trkpt lat="48.58893" lon="-3.51139">
        <ele>164</ele>
        <time>2015-01-04T09:30:03Z</time>
      </trkpt>
      <trkpt lat="48.58901" lon="-3.51145">
        <ele>164</ele>
        <time>2015-01-04T09:30:04Z</time>
      </trkpt>
      <trkpt lat="48.58908" lon="-3.51151">
        <ele>164</ele>
        <time>2015-01-04T09:30:05Z</time>
      </trkpt>
      <trkpt lat="48.58915" lon="-3.51157">
        <ele>164</ele>
        <time>2015-01-04T09:30:06Z</time>
      </trkpt>
      <trkpt lat="48.58923" lon="-3.51163">
        <ele>163</ele>
        <time>2015-01-04T09:30:07Z</time>
      </trkpt>
      <trkpt lat="48.58931" lon="-3.51168">
        <ele>163</ele>
        <time>2015-01-04T09:30:08Z</time>
      </trkpt>
      <trkpt lat="48.58939" lon="-3.51175">
        <ele>163</ele>
        <time>2015-01-04T09:30:09Z</time>
      </trkpt>
      <trkpt lat="48.58947" lon="-3.51181">
        <ele>162</ele>
        <time>2015-01-04T09:30:10Z</time>
      </trkpt>
      <trkpt lat="48.58955" lon="-3.51187">
        <ele>162</ele>
        <time>2015-01-04T09:30:11Z</time>
      </trkpt>
      <trkpt lat="48.58964" lon="-3.51194">
        <ele>161</ele>
        <time>2015-01-04T09:30:12Z</time>
      </trkpt>
      <trkpt lat="48.58972" lon="-3.512">
        <ele>161</ele>
        <time>2015-01-04T09:30:13Z</time>
      </trkpt>
      <trkpt lat="48.58981" lon="-3.51207">
        <ele>161</ele>
        <time>2015-01-04T09:30:14Z</time>
      </trkpt>
      <trkpt lat="48.5899" lon="-3.51214">
        <ele>160</ele>
        <time>2015-01-04T09:30:15Z</time>
      </trkpt>
      <trkpt lat="48.58998" lon="-3.5122">
        <ele>160</ele>
        <time>2015-01-04T09:30:16Z</time>
      </trkpt>
      <trkpt lat="48.59007" lon="-3.51227">
        <ele>159</ele>
        <time>2015-01-04T09:30:17Z</time>
      </trkpt>
      <trkpt lat="48.59016" lon="-3.51234">
        <ele>159</ele>
        <time>2015-01-04T09:30:18Z</time>
      </trkpt>
      <trkpt lat="48.59024" lon="-3.5124">
        <ele>159</ele>
        <time>2015-01-04T09:30:19Z</time>
      </trkpt>
      <trkpt lat="48.59033" lon="-3.51247">
        <ele>158</ele>
        <time>2015-01-04T09:30:20Z</time>
      </trkpt>
      <trkpt lat="48.59041" lon="-3.51254">
        <ele>158</ele>
        <time>2015-01-04T09:30:21Z</time>
      </trkpt>
      <trkpt lat="48.59049" lon="-3.51262">
        <ele>158</ele>
        <time>2015-01-04T09:30:22Z</time>
      </trkpt>
      <trkpt lat="48.59057" lon="-3.5127">
        <ele>157</ele>
        <time>2015-01-04T09:30:23Z</time>
      </trkpt>
      <trkpt lat="48.59065" lon="-3.51278">
        <ele>157</ele>
        <time>2015-01-04T09:30:24Z</time>
      </trkpt>
      <trkpt lat="48.59072" lon="-3.51288">
        <ele>157</ele>
        <time>2015-01-04T09:30:25Z</time>
      </trkpt>
      <trkpt lat="48.59079" lon="-3.51297">
        <ele>156</ele>
        <time>2015-01-04T09:30:26Z</time>
      </trkpt>
      <trkpt lat="48.59086" lon="-3.51307">
        <ele>156</ele>
        <time>2015-01-04T09:30:27Z</time>
      </trkpt>
      <trkpt lat="48.59092" lon="-3.51317">
        <ele>156</ele>
        <time>2015-01-04T09:30:28Z</time>
      </trkpt>
      <trkpt lat="48.59099" lon="-3.51327">
        <ele>155</ele>
        <time>2015-01-04T09:30:29Z</time>
      </trkpt>
      <trkpt lat="48.59106" lon="-3.51338">
        <ele>155</ele>
        <time>2015-01-04T09:30:30Z</time>
      </trkpt>
      <trkpt lat="48.59113" lon="-3.51347">
        <ele>155</ele>
        <time>2015-01-04T09:30:31Z</time>
      </trkpt>
      <trkpt lat="48.5912" lon="-3.51358">
        <ele>154</ele>
        <time>2015-01-04T09:30:32Z</time>
      </trkpt>
      <trkpt lat="48.59127" lon="-3.51368">
        <ele>154</ele>
        <time>2015-01-04T09:30:33Z</time>
      </trkpt>
      <trkpt lat="48.59134" lon="-3.51379">
        <ele>154</ele>
        <time>2015-01-04T09:30:34Z</time>
      </trkpt>
      <trkpt lat="48.59141" lon="-3.51389">
        <ele>153</ele>
        <time>2015-01-04T09:30:35Z</time>
      </trkpt>
      <trkpt lat="48.59148" lon="-3.51399">
        <ele>153</ele>
        <time>2015-01-04T09:30:36Z</time>
      </trkpt>
      <trkpt lat="48.59154" lon="-3.51408">
        <ele>153</ele>
        <time>2015-01-04T09:30:37Z</time>
      </trkpt>
      <trkpt lat="48.59161" lon="-3.51418">
        <ele>153</ele>
        <time>2015-01-04T09:30:38Z</time>
      </trkpt>
      <trkpt lat="48.59167" lon="-3.51427">
        <ele>153</ele>
        <time>2015-01-04T09:30:39Z</time>
      </trkpt>
      <trkpt lat="48.59173" lon="-3.51436">
        <ele>153</ele>
        <time>2015-01-04T09:30:40Z</time>
      </trkpt>
      <trkpt lat="48.5918" lon="-3.51445">
        <ele>153</ele>
        <time>2015-01-04T09:30:41Z</time>
      </trkpt>
      <trkpt lat="48.59186" lon="-3.51454">
        <ele>152</ele>
        <time>2015-01-04T09:30:42Z</time>
      </trkpt>
      <trkpt lat="48.59192" lon="-3.51463">
        <ele>152</ele>
        <time>2015-01-04T09:30:43Z</time>
      </trkpt>
      <trkpt lat="48.59198" lon="-3.51472">
        <ele>152</ele>
        <time>2015-01-04T09:30:44Z</time>
      </trkpt>
      <trkpt lat="48.59203" lon="-3.5148">
        <ele>152</ele>
        <time>2015-01-04T09:30:45Z</time>
      </trkpt>
      <trkpt lat="48.59209" lon="-3.51489">
        <ele>152</ele>
        <time>2015-01-04T09:30:46Z</time>
      </trkpt>
      <trkpt lat="48.59215" lon="-3.51498">
        <ele>152</ele>
        <time>2015-01-04T09:30:47Z</time>
      </trkpt>
      <trkpt lat="48.5922" lon="-3.51506">
        <ele>152</ele>
        <time>2015-01-04T09:30:48Z</time>
      </trkpt>
      <trkpt lat="48.59226" lon="-3.51515">
        <ele>152</ele>
        <time>2015-01-04T09:30:49Z</time>
      </trkpt>
      <trkpt lat="48.59231" lon="-3.51523">
        <ele>152</ele>
        <time>2015-01-04T09:30:50Z</time>
      </trkpt>
      <trkpt lat="48.59237" lon="-3.51531">
        <ele>152</ele>
        <time>2015-01-04T09:30:51Z</time>
      </trkpt>
      <trkpt lat="48.59242" lon="-3.51539">
        <ele>152</ele>
        <time>2015-01-04T09:30:52Z</time>
      </trkpt>
      <trkpt lat="48.59247" lon="-3.51547">
        <ele>152</ele>
        <time>2015-01-04T09:30:53Z</time>
      </trkpt>
      <trkpt lat="48.59252" lon="-3.51554">
        <ele>152</ele>
        <time>2015-01-04T09:30:54Z</time>
      </trkpt>
      <trkpt lat="48.59257" lon="-3.51562">
        <ele>152</ele>
        <time>2015-01-04T09:30:55Z</time>
      </trkpt>
      <trkpt lat="48.59262" lon="-3.51569">
        <ele>152</ele>
        <time>2015-01-04T09:30:56Z</time>
      </trkpt>
      <trkpt lat="48.59267" lon="-3.51577">
        <ele>152</ele>
        <time>2015-01-04T09:30:57Z</time>
      </trkpt>
      <trkpt lat="48.59272" lon="-3.51584">
        <ele>152</ele>
        <time>2015-01-04T09:30:58Z</time>
      </trkpt>
      <trkpt lat="48.59276" lon="-3.51591">
        <ele>152</ele>
        <time>2015-01-04T09:30:59Z</time>
      </trkpt>
      <trkpt lat="48.59281" lon="-3.51597">
        <ele>152</ele>
        <time>2015-01-04T09:31:00Z</time>
      </trkpt>
      <trkpt lat="48.59286" lon="-3.51604">
        <ele>152</ele>
        <time>2015-01-04T09:31:01Z</time>
      </trkpt>
      <trkpt lat="48.5929" lon="-3.51611">
        <ele>152</ele>
        <time>2015-01-04T09:31:02Z</time>
      </trkpt>
      <trkpt lat="48.59295" lon="-3.51617">
        <ele>152</ele>
        <time>2015-01-04T09:31:03Z</time>
      </trkpt>
      <trkpt lat="48.59299" lon="-3.51624">
        <ele>152</ele>
        <time>2015-01-04T09:31:04Z</time>
      </trkpt>
      <trkpt lat="48.59304" lon="-3.5163">
        <ele>152</ele>
        <time>2015-01-04T09:31:05Z</time>
      </trkpt>
      <trkpt lat="48.59308" lon="-3.51636">
        <ele>152</ele>
        <time>2015-01-04T09:31:06Z</time>
      </trkpt>
      <trkpt lat="48.59312" lon="-3.51641">
        <ele>152</ele>
        <time>2015-01-04T09:31:07Z</time>
      </trkpt>
      <trkpt lat="48.59317" lon="-3.51647">
        <ele>152</ele>
        <time>2015-01-04T09:31:08Z</time>
      </trkpt>
      <trkpt lat="48.59321" lon="-3.51652">
        <ele>152</ele>
        <time>2015-01-04T09:31:09Z</time>
      </trkpt>
      <trkpt lat="48.59326" lon="-3.51657">
        <ele>152</ele>
        <time>2015-01-04T09:31:10Z</time>
      </trkpt>
      <trkpt lat="48.59332" lon="-3.51661">
        <ele>152</ele>
        <time>2015-01-04T09:31:11Z</time>
      </trkpt>
      <trkpt lat="48.59337" lon="-3.51665">
        <ele>152</ele>
        <time>2015-01-04T09:31:12Z</time>
      </trkpt>
      <trkpt lat="48.59349" lon="-3.5167">
        <ele>153</ele>
        <time>2015-01-04T09:31:14Z</time>
      </trkpt>
      <trkpt lat="48.59355" lon="-3.51672">
        <ele>153</ele>
        <time>2015-01-04T09:31:15Z</time>
      </trkpt>
      <trkpt lat="48.59361" lon="-3.51674">
        <ele>153</ele>
        <time>2015-01-04T09:31:16Z</time>
      </trkpt>
      <trkpt lat="48.59367" lon="-3.51677">
        <ele>153</ele>
        <time>2015-01-04T09:31:17Z</time>
      </trkpt>
      <trkpt lat="48.59374" lon="-3.51678">
        <ele>153</ele>
        <time>2015-01-04T09:31:18Z</time>
      </trkpt>
      <trkpt lat="48.5938" lon="-3.5168">
        <ele>153</ele>
        <time>2015-01-04T09:31:19Z</time>
      </trkpt>
      <trkpt lat="48.59386" lon="-3.51681">
        <ele>154</ele>
        <time>2015-01-04T09:31:20Z</time>
      </trkpt>
      <trkpt lat="48.59391" lon="-3.51682">
        <ele>154</ele>
        <time>2015-01-04T09:31:21Z</time>
      </trkpt>
      <trkpt lat="48.59396" lon="-3.51683">
        <ele>154</ele>
        <time>2015-01-04T09:31:22Z</time>
      </trkpt>
      <trkpt lat="48.59402" lon="-3.51683">
        <ele>154</ele>
        <time>2015-01-04T09:31:23Z</time>
      </trkpt>
      <trkpt lat="48.59407" lon="-3.51684">
        <ele>154</ele>
        <time>2015-01-04T09:31:24Z</time>
      </trkpt>
      <trkpt lat="48.59413" lon="-3.51685">
        <ele>154</ele>
        <time>2015-01-04T09:31:25Z</time>
      </trkpt>
      <trkpt lat="48.59418" lon="-3.51685">
        <ele>155</ele>
        <time>2015-01-04T09:31:26Z</time>
      </trkpt>
      <trkpt lat="48.59423" lon="-3.51685">
        <ele>155</ele>
        <time>2015-01-04T09:31:27Z</time>
      </trkpt>
      <trkpt lat="48.59429" lon="-3.51686">
        <ele>155</ele>
        <time>2015-01-04T09:31:28Z</time>
      </trkpt>
      <trkpt lat="48.59435" lon="-3.51687">
        <ele>155</ele>
        <time>2015-01-04T09:31:29Z</time>
      </trkpt>
      <trkpt lat="48.59441" lon="-3.51689">
        <ele>155</ele>
        <time>2015-01-04T09:31:30Z</time>
      </trkpt>
      <trkpt lat="48.59448" lon="-3.5169">
        <ele>155</ele>
        <time>2015-01-04T09:31:31Z</time>
      </trkpt>
      <trkpt lat="48.59455" lon="-3.5169">
        <ele>155</ele>
        <time>2015-01-04T09:31:32Z</time>
      </trkpt>
      <trkpt lat="48.59463" lon="-3.5169">
        <ele>155</ele>
        <time>2015-01-04T09:31:33Z</time>
      </trkpt>
      <trkpt lat="48.5947" lon="-3.51691">
        <ele>155</ele>
        <time>2015-01-04T09:31:34Z</time>
      </trkpt>
      <trkpt lat="48.59478" lon="-3.51692">
        <ele>155</ele>
        <time>2015-01-04T09:31:35Z</time>
      </trkpt>
      <trkpt lat="48.59486" lon="-3.51693">
        <ele>155</ele>
        <time>2015-01-04T09:31:36Z</time>
      </trkpt>
      <trkpt lat="48.59493" lon="-3.51694">
        <ele>155</ele>
        <time>2015-01-04T09:31:37Z</time>
      </trkpt>
      <trkpt lat="48.595" lon="-3.51696">
        <ele>155</ele>
        <time>2015-01-04T09:31:38Z</time>
      </trkpt>
      <trkpt lat="48.59507" lon="-3.51698">
        <ele>155</ele>
        <time>2015-01-04T09:31:39Z</time>
      </trkpt>
      <trkpt lat="48.59514" lon="-3.51701">
        <ele>155</ele>
        <time>2015-01-04T09:31:40Z</time>
      </trkpt>
      <trkpt lat="48.59522" lon="-3.51704">
        <ele>155</ele>
        <time>2015-01-04T09:31:41Z</time>
      </trkpt>
      <trkpt lat="48.59529" lon="-3.51708">
        <ele>155</ele>
        <time>2015-01-04T09:31:42Z</time>
      </trkpt>
      <trkpt lat="48.59536" lon="-3.51713">
        <ele>155</ele>
        <time>2015-01-04T09:31:43Z</time>
      </trkpt>
      <trkpt lat="48.59543" lon="-3.51718">
        <ele>155</ele>
        <time>2015-01-04T09:31:44Z</time>
      </trkpt>
      <trkpt lat="48.5955" lon="-3.51723">
        <ele>155</ele>
        <time>2015-01-04T09:31:45Z</time>
      </trkpt>
      <trkpt lat="48.59557" lon="-3.51729">
        <ele>155</ele>
        <time>2015-01-04T09:31:46Z</time>
      </trkpt>
      <trkpt lat="48.59564" lon="-3.51734">
        <ele>155</ele>
        <time>2015-01-04T09:31:47Z</time>
      </trkpt>
      <trkpt lat="48.59571" lon="-3.5174">
        <ele>155</ele>
        <time>2015-01-04T09:31:48Z</time>
      </trkpt>
      <trkpt lat="48.59578" lon="-3.51745">
        <ele>155</ele>
        <time>2015-01-04T09:31:49Z</time>
      </trkpt>
      <trkpt lat="48.59585" lon="-3.5175">
        <ele>155</ele>
        <time>2015-01-04T09:31:50Z</time>
      </trkpt>
      <trkpt lat="48.59592" lon="-3.51755">
        <ele>155</ele>
        <time>2015-01-04T09:31:51Z</time>
      </trkpt>
      <trkpt lat="48.59599" lon="-3.5176">
        <ele>155</ele>
        <time>2015-01-04T09:31:52Z</time>
      </trkpt>
      <trkpt lat="48.59606" lon="-3.51765">
        <ele>155</ele>
        <time>2015-01-04T09:31:53Z</time>
      </trkpt>
      <trkpt lat="48.59613" lon="-3.51771">
        <ele>155</ele>
        <time>2015-01-04T09:31:54Z</time>
      </trkpt>
      <trkpt lat="48.5962" lon="-3.51777">
        <ele>155</ele>
        <time>2015-01-04T09:31:55Z</time>
      </trkpt>
      <trkpt lat="48.59626" lon="-3.51784">
        <ele>155</ele>
        <time>2015-01-04T09:31:56Z</time>
      </trkpt>
      <trkpt lat="48.59632" lon="-3.5179">
        <ele>155</ele>
        <time>2015-01-04T09:31:57Z</time>
      </trkpt>
      <trkpt lat="48.59639" lon="-3.51797">
        <ele>155</ele>
        <time>2015-01-04T09:31:58Z</time>
      </trkpt>
      <trkpt lat="48.59644" lon="-3.51804">
        <ele>155</ele>
        <time>2015-01-04T09:31:59Z</time>
      </trkpt>
      <trkpt lat="48.59651" lon="-3.51811">
        <ele>155</ele>
        <time>2015-01-04T09:32:00Z</time>
      </trkpt>
      <trkpt lat="48.59657" lon="-3.51818">
        <ele>155</ele>
        <time>2015-01-04T09:32:01Z</time>
      </trkpt>
      <trkpt lat="48.59663" lon="-3.51825">
        <ele>155</ele>
        <time>2015-01-04T09:32:02Z</time>
      </trkpt>
      <trkpt lat="48.59669" lon="-3.51833">
        <ele>155</ele>
        <time>2015-01-04T09:32:03Z</time>
      </trkpt>
      <trkpt lat="48.59676" lon="-3.51841">
        <ele>155</ele>
        <time>2015-01-04T09:32:04Z</time>
      </trkpt>
      <trkpt lat="48.59682" lon="-3.51848">
        <ele>155</ele>
        <time>2015-01-04T09:32:05Z</time>
      </trkpt>
      <trkpt lat="48.59689" lon="-3.51856">
        <ele>155</ele>
        <time>2015-01-04T09:32:06Z</time>
      </trkpt>
      <trkpt lat="48.59695" lon="-3.51863">
        <ele>155</ele>
        <time>2015-01-04T09:32:07Z</time>
      </trkpt>
      <trkpt lat="48.59702" lon="-3.5187">
        <ele>155</ele>
        <time>2015-01-04T09:32:08Z</time>
      </trkpt>
      <trkpt lat="48.59708" lon="-3.51878">
        <ele>155</ele>
        <time>2015-01-04T09:32:09Z</time>
      </trkpt>
      <trkpt lat="48.59715" lon="-3.51886">
        <ele>155</ele>
        <time>2015-01-04T09:32:10Z</time>
      </trkpt>
      <trkpt lat="48.59722" lon="-3.51894">
        <ele>155</ele>
        <time>2015-01-04T09:32:11Z</time>
      </trkpt>
      <trkpt lat="48.59729" lon="-3.51902">
        <ele>155</ele>
        <time>2015-01-04T09:32:12Z</time>
      </trkpt>
      <trkpt lat="48.59736" lon="-3.5191">
        <ele>155</ele>
        <time>2015-01-04T09:32:13Z</time>
      </trkpt>
      <trkpt lat="48.59743" lon="-3.51918">
        <ele>155</ele>
        <time>2015-01-04T09:32:14Z</time>
      </trkpt>
      <trkpt lat="48.5975" lon="-3.51926">
        <ele>155</ele>
        <time>2015-01-04T09:32:15Z</time>
      </trkpt>
      <trkpt lat="48.59758" lon="-3.51935">
        <ele>155</ele>
        <time>2015-01-04T09:32:16Z</time>
      </trkpt>
      <trkpt lat="48.59765" lon="-3.51943">
        <ele>155</ele>
        <time>2015-01-04T09:32:17Z</time>
      </trkpt>
      <trkpt lat="48.59772" lon="-3.51952">
        <ele>155</ele>
        <time>2015-01-04T09:32:18Z</time>
      </trkpt>
      <trkpt lat="48.5978" lon="-3.5196">
        <ele>155</ele>
        <time>2015-01-04T09:32:19Z</time>
      </trkpt>
      <trkpt lat="48.59787" lon="-3.51969">
        <ele>155</ele>
        <time>2015-01-04T09:32:20Z</time>
      </trkpt>
      <trkpt lat="48.59794" lon="-3.51977">
        <ele>155</ele>
        <time>2015-01-04T09:32:21Z</time>
      </trkpt>
      <trkpt lat="48.59801" lon="-3.51985">
        <ele>155</ele>
        <time>2015-01-04T09:32:22Z</time>
      </trkpt>
      <trkpt lat="48.59808" lon="-3.51993">
        <ele>155</ele>
        <time>2015-01-04T09:32:23Z</time>
      </trkpt>
      <trkpt lat="48.59816" lon="-3.52001">
        <ele>155</ele>
        <time>2015-01-04T09:32:24Z</time>
      </trkpt>
      <trkpt lat="48.59822" lon="-3.52009">
        <ele>155</ele>
        <time>2015-01-04T09:32:25Z</time>
      </trkpt>
      <trkpt lat="48.59829" lon="-3.52016">
        <ele>155</ele>
        <time>2015-01-04T09:32:26Z</time>
      </trkpt>
      <trkpt lat="48.59835" lon="-3.52024">
        <ele>155</ele>
        <time>2015-01-04T09:32:27Z</time>
      </trkpt>
      <trkpt lat="48.59842" lon="-3.52031">
        <ele>155</ele>
        <time>2015-01-04T09:32:28Z</time>
      </trkpt>
      <trkpt lat="48.59848" lon="-3.52038">
        <ele>155</ele>
        <time>2015-01-04T09:32:29Z</time>
      </trkpt>
      <trkpt lat="48.59854" lon="-3.52045">
        <ele>155</ele>
        <time>2015-01-04T09:32:30Z</time>
      </trkpt>
      <trkpt lat="48.59861" lon="-3.52053">
        <ele>155</ele>
        <time>2015-01-04T09:32:31Z</time>
      </trkpt>
      <trkpt lat="48.59867" lon="-3.5206">
        <ele>155</ele>
        <time>2015-01-04T09:32:32Z</time>
      </trkpt>
      <trkpt lat="48.59873" lon="-3.52067">
        <ele>155</ele>
        <time>2015-01-04T09:32:33Z</time>
      </trkpt>
      <trkpt lat="48.5988" lon="-3.52075">
        <ele>155</ele>
        <time>2015-01-04T09:32:34Z</time>
      </trkpt>
      <trkpt lat="48.59885" lon="-3.52083">
        <ele>155</ele>
        <time>2015-01-04T09:32:35Z</time>
      </trkpt>
      <trkpt lat="48.59891" lon="-3.52092">
        <ele>155</ele>
        <time>2015-01-04T09:32:36Z</time>
      </trkpt>
      <trkpt lat="48.59897" lon="-3.521">
        <ele>155</ele>
        <time>2015-01-04T09:32:37Z</time>
      </trkpt>
      <trkpt lat="48.59902" lon="-3.52109">
        <ele>155</ele>
        <time>2015-01-04T09:32:38Z</time>
      </trkpt>
      <trkpt lat="48.59907" lon="-3.52118">
        <ele>155</ele>
        <time>2015-01-04T09:32:39Z</time>
      </trkpt>
      <trkpt lat="48.59911" lon="-3.52128">
        <ele>155</ele>
        <time>2015-01-04T09:32:40Z</time>
      </trkpt>
      <trkpt lat="48.59916" lon="-3.52137">
        <ele>155</ele>
        <time>2015-01-04T09:32:41Z</time>
      </trkpt>
      <trkpt lat="48.5992" lon="-3.52148">
        <ele>155</ele>
        <time>2015-01-04T09:32:42Z</time>
      </trkpt>
      <trkpt lat="48.59924" lon="-3.52158">
        <ele>155</ele>
        <time>2015-01-04T09:32:43Z</time>
      </trkpt>
      <trkpt lat="48.59928" lon="-3.52169">
        <ele>155</ele>
        <time>2015-01-04T09:32:44Z</time>
      </trkpt>
      <trkpt lat="48.59931" lon="-3.5218">
        <ele>155</ele>
        <time>2015-01-04T09:32:45Z</time>
      </trkpt>
      <trkpt lat="48.59934" lon="-3.52191">
        <ele>155</ele>
        <time>2015-01-04T09:32:46Z</time>
      </trkpt>
      <trkpt lat="48.59937" lon="-3.52202">
        <ele>155</ele>
        <time>2015-01-04T09:32:47Z</time>
      </trkpt>
      <trkpt lat="48.59939" lon="-3.52213">
        <ele>155</ele>
        <time>2015-01-04T09:32:48Z</time>
      </trkpt>
      <trkpt lat="48.59942" lon="-3.52225">
        <ele>155</ele>
        <time>2015-01-04T09:32:49Z</time>
      </trkpt>
      <trkpt lat="48.59944" lon="-3.52236">
        <ele>155</ele>
        <time>2015-01-04T09:32:50Z</time>
      </trkpt>
      <trkpt lat="48.59947" lon="-3.52247">
        <ele>155</ele>
        <time>2015-01-04T09:32:51Z</time>
      </trkpt>
      <trkpt lat="48.59949" lon="-3.52258">
        <ele>155</ele>
        <time>2015-01-04T09:32:52Z</time>
      </trkpt>
      <trkpt lat="48.59953" lon="-3.5227">
        <ele>155</ele>
        <time>2015-01-04T09:32:53Z</time>
      </trkpt>
      <trkpt lat="48.59956" lon="-3.5228">
        <ele>155</ele>
        <time>2015-01-04T09:32:54Z</time>
      </trkpt>
      <trkpt lat="48.5996" lon="-3.52291">
        <ele>155</ele>
        <time>2015-01-04T09:32:55Z</time>
      </trkpt>
      <trkpt lat="48.59964" lon="-3.52301">
        <ele>155</ele>
        <time>2015-01-04T09:32:56Z</time>
      </trkpt>
      <trkpt lat="48.59969" lon="-3.52311">
        <ele>155</ele>
        <time>2015-01-04T09:32:57Z</time>
      </trkpt>
      <trkpt lat="48.59974" lon="-3.5232">
        <ele>155</ele>
        <time>2015-01-04T09:32:58Z</time>
      </trkpt>
      <trkpt lat="48.59979" lon="-3.52329">
        <ele>155</ele>
        <time>2015-01-04T09:32:59Z</time>
      </trkpt>
      <trkpt lat="48.59984" lon="-3.52337">
        <ele>155</ele>
        <time>2015-01-04T09:33:00Z</time>
      </trkpt>
      <trkpt lat="48.5999" lon="-3.52345">
        <ele>155</ele>
        <time>2015-01-04T09:33:01Z</time>
      </trkpt>
      <trkpt lat="48.59996" lon="-3.52353">
        <ele>155</ele>
        <time>2015-01-04T09:33:02Z</time>
      </trkpt>
      <trkpt lat="48.60001" lon="-3.52361">
        <ele>155</ele>
        <time>2015-01-04T09:33:03Z</time>
      </trkpt>
      <trkpt lat="48.60007" lon="-3.52369">
        <ele>155</ele>
        <time>2015-01-04T09:33:04Z</time>
      </trkpt>
      <trkpt lat="48.60013" lon="-3.52377">
        <ele>155</ele>
        <time>2015-01-04T09:33:05Z</time>
      </trkpt>
      <trkpt lat="48.60019" lon="-3.52384">
        <ele>155</ele>
        <time>2015-01-04T09:33:06Z</time>
      </trkpt>
      <trkpt lat="48.60025" lon="-3.52391">
        <ele>155</ele>
        <time>2015-01-04T09:33:07Z</time>
      </trkpt>
      <trkpt lat="48.6003" lon="-3.52399">
        <ele>155</ele>
        <time>2015-01-04T09:33:08Z</time>
      </trkpt>
      <trkpt lat="48.60036" lon="-3.52406">
        <ele>155</ele>
        <time>2015-01-04T09:33:09Z</time>
      </trkpt>
      <trkpt lat="48.60042" lon="-3.52413">
        <ele>155</ele>
        <time>2015-01-04T09:33:10Z</time>
      </trkpt>
      <trkpt lat="48.60047" lon="-3.52421">
        <ele>155</ele>
        <time>2015-01-04T09:33:11Z</time>
      </trkpt>
      <trkpt lat="48.60053" lon="-3.52428">
        <ele>155</ele>
        <time>2015-01-04T09:33:12Z</time>
      </trkpt>
      <trkpt lat="48.60059" lon="-3.52435">
        <ele>155</ele>
        <time>2015-01-04T09:33:13Z</time>
      </trkpt>
      <trkpt lat="48.60064" lon="-3.52442">
        <ele>155</ele>
        <time>2015-01-04T09:33:14Z</time>
      </trkpt>
      <trkpt lat="48.6007" lon="-3.52449">
        <ele>155</ele>
        <time>2015-01-04T09:33:15Z</time>
      </trkpt>
      <trkpt lat="48.60076" lon="-3.52455">
        <ele>155</ele>
        <time>2015-01-04T09:33:16Z</time>
      </trkpt>
      <trkpt lat="48.60082" lon="-3.52462">
        <ele>155</ele>
        <time>2015-01-04T09:33:17Z</time>
      </trkpt>
      <trkpt lat="48.60088" lon="-3.52468">
        <ele>155</ele>
        <time>2015-01-04T09:33:18Z</time>
      </trkpt>
      <trkpt lat="48.60095" lon="-3.52474">
        <ele>155</ele>
        <time>2015-01-04T09:33:19Z</time>
      </trkpt>
      <trkpt lat="48.60101" lon="-3.5248">
        <ele>155</ele>
        <time>2015-01-04T09:33:20Z</time>
      </trkpt>
      <trkpt lat="48.60108" lon="-3.52485">
        <ele>155</ele>
        <time>2015-01-04T09:33:21Z</time>
      </trkpt>
      <trkpt lat="48.60115" lon="-3.52491">
        <ele>155</ele>
        <time>2015-01-04T09:33:22Z</time>
      </trkpt>
      <trkpt lat="48.60122" lon="-3.52496">
        <ele>155</ele>
        <time>2015-01-04T09:33:23Z</time>
      </trkpt>
      <trkpt lat="48.60128" lon="-3.525">
        <ele>155</ele>
        <time>2015-01-04T09:33:24Z</time>
      </trkpt>
      <trkpt lat="48.60135" lon="-3.52504">
        <ele>155</ele>
        <time>2015-01-04T09:33:25Z</time>
      </trkpt>
      <trkpt lat="48.60142" lon="-3.52509">
        <ele>155</ele>
        <time>2015-01-04T09:33:26Z</time>
      </trkpt>
      <trkpt lat="48.60149" lon="-3.52513">
        <ele>155</ele>
        <time>2015-01-04T09:33:27Z</time>
      </trkpt>
      <trkpt lat="48.60156" lon="-3.52517">
        <ele>155</ele>
        <time>2015-01-04T09:33:28Z</time>
      </trkpt>
      <trkpt lat="48.60163" lon="-3.52521">
        <ele>155</ele>
        <time>2015-01-04T09:33:29Z</time>
      </trkpt>
      <trkpt lat="48.6017" lon="-3.52526">
        <ele>155</ele>
        <time>2015-01-04T09:33:30Z</time>
      </trkpt>
      <trkpt lat="48.60177" lon="-3.5253">
        <ele>155</ele>
        <time>2015-01-04T09:33:31Z</time>
      </trkpt>
      <trkpt lat="48.60184" lon="-3.52535">
        <ele>155</ele>
        <time>2015-01-04T09:33:32Z</time>
      </trkpt>
      <trkpt lat="48.60192" lon="-3.52539">
        <ele>155</ele>
        <time>2015-01-04T09:33:33Z</time>
      </trkpt>
      <trkpt lat="48.60199" lon="-3.52544">
        <ele>154</ele>
        <time>2015-01-04T09:33:34Z</time>
      </trkpt>
      <trkpt lat="48.60207" lon="-3.52549">
        <ele>154</ele>
        <time>2015-01-04T09:33:35Z</time>
      </trkpt>
      <trkpt lat="48.60215" lon="-3.52554">
        <ele>154</ele>
        <time>2015-01-04T09:33:36Z</time>
      </trkpt>
      <trkpt lat="48.60223" lon="-3.52558">
        <ele>153</ele>
        <time>2015-01-04T09:33:37Z</time>
      </trkpt>
      <trkpt lat="48.6023" lon="-3.52563">
        <ele>153</ele>
        <time>2015-01-04T09:33:38Z</time>
      </trkpt>
      <trkpt lat="48.60238" lon="-3.52568">
        <ele>153</ele>
        <time>2015-01-04T09:33:39Z</time>
      </trkpt>
      <trkpt lat="48.60247" lon="-3.52573">
        <ele>152</ele>
        <time>2015-01-04T09:33:40Z</time>
      </trkpt>
      <trkpt lat="48.60255" lon="-3.52578">
        <ele>152</ele>
        <time>2015-01-04T09:33:41Z</time>
      </trkpt>
      <trkpt lat="48.60264" lon="-3.52583">
        <ele>151</ele>
        <time>2015-01-04T09:33:42Z</time>
      </trkpt>
      <trkpt lat="48.60273" lon="-3.52587">
        <ele>151</ele>
        <time>2015-01-04T09:33:43Z</time>
      </trkpt>
      <trkpt lat="48.60282" lon="-3.52592">
        <ele>150</ele>
        <time>2015-01-04T09:33:44Z</time>
      </trkpt>
      <trkpt lat="48.60291" lon="-3.52596">
        <ele>149</ele>
        <time>2015-01-04T09:33:45Z</time>
      </trkpt>
      <trkpt lat="48.60301" lon="-3.526">
        <ele>149</ele>
        <time>2015-01-04T09:33:46Z</time>
      </trkpt>
      <trkpt lat="48.6031" lon="-3.52603">
        <ele>148</ele>
        <time>2015-01-04T09:33:47Z</time>
      </trkpt>
      <trkpt lat="48.6032" lon="-3.52607">
        <ele>148</ele>
        <time>2015-01-04T09:33:48Z</time>
      </trkpt>
      <trkpt lat="48.60329" lon="-3.5261">
        <ele>148</ele>
        <time>2015-01-04T09:33:49Z</time>
      </trkpt>
      <trkpt lat="48.60339" lon="-3.52613">
        <ele>147</ele>
        <time>2015-01-04T09:33:50Z</time>
      </trkpt>
      <trkpt lat="48.60348" lon="-3.52617">
        <ele>147</ele>
        <time>2015-01-04T09:33:51Z</time>
      </trkpt>
      <trkpt lat="48.60356" lon="-3.52619">
        <ele>147</ele>
        <time>2015-01-04T09:33:52Z</time>
      </trkpt>
      <trkpt lat="48.60365" lon="-3.52622">
        <ele>147</ele>
        <time>2015-01-04T09:33:53Z</time>
      </trkpt>
      <trkpt lat="48.60374" lon="-3.52625">
        <ele>146</ele>
        <time>2015-01-04T09:33:54Z</time>
      </trkpt>
      <trkpt lat="48.60382" lon="-3.52628">
        <ele>146</ele>
        <time>2015-01-04T09:33:55Z</time>
      </trkpt>
      <trkpt lat="48.60391" lon="-3.52631">
        <ele>146</ele>
        <time>2015-01-04T09:33:56Z</time>
      </trkpt>
      <trkpt lat="48.604" lon="-3.52634">
        <ele>145</ele>
        <time>2015-01-04T09:33:57Z</time>
      </trkpt>
      <trkpt lat="48.60408" lon="-3.52637">
        <ele>145</ele>
        <time>2015-01-04T09:33:58Z</time>
      </trkpt>
      <trkpt lat="48.60417" lon="-3.5264">
        <ele>145</ele>
        <time>2015-01-04T09:33:59Z</time>
      </trkpt>
      <trkpt lat="48.60426" lon="-3.52643">
        <ele>144</ele>
        <time>2015-01-04T09:34:00Z</time>
      </trkpt>
      <trkpt lat="48.60436" lon="-3.52647">
        <ele>144</ele>
        <time>2015-01-04T09:34:01Z</time>
      </trkpt>
      <trkpt lat="48.60445" lon="-3.5265">
        <ele>144</ele>
        <time>2015-01-04T09:34:02Z</time>
      </trkpt>
      <trkpt lat="48.60455" lon="-3.52654">
        <ele>143</ele>
        <time>2015-01-04T09:34:03Z</time>
      </trkpt>
      <trkpt lat="48.60465" lon="-3.52657">
        <ele>143</ele>
        <time>2015-01-04T09:34:04Z</time>
      </trkpt>
      <trkpt lat="48.60474" lon="-3.52661">
        <ele>142</ele>
        <time>2015-01-04T09:34:05Z</time>
      </trkpt>
      <trkpt lat="48.60484" lon="-3.52664">
        <ele>142</ele>
        <time>2015-01-04T09:34:06Z</time>
      </trkpt>
      <trkpt lat="48.60494" lon="-3.52668">
        <ele>141</ele>
        <time>2015-01-04T09:34:07Z</time>
      </trkpt>
      <trkpt lat="48.60505" lon="-3.52672">
        <ele>140</ele>
        <time>2015-01-04T09:34:08Z</time>
      </trkpt>
      <trkpt lat="48.60515" lon="-3.52675">
        <ele>139</ele>
        <time>2015-01-04T09:34:09Z</time>
      </trkpt>
      <trkpt lat="48.60526" lon="-3.52679">
        <ele>139</ele>
        <time>2015-01-04T09:34:10Z</time>
      </trkpt>
      <trkpt lat="48.60537" lon="-3.52684">
        <ele>138</ele>
        <time>2015-01-04T09:34:11Z</time>
      </trkpt>
      <trkpt lat="48.60549" lon="-3.52688">
        <ele>137</ele>
        <time>2015-01-04T09:34:12Z</time>
      </trkpt>
      <trkpt lat="48.60561" lon="-3.52692">
        <ele>136</ele>
        <time>2015-01-04T09:34:13Z</time>
      </trkpt>
      <trkpt lat="48.60573" lon="-3.52697">
        <ele>135</ele>
        <time>2015-01-04T09:34:14Z</time>
      </trkpt>
      <trkpt lat="48.60585" lon="-3.52701">
        <ele>135</ele>
        <time>2015-01-04T09:34:15Z</time>
      </trkpt>
      <trkpt lat="48.60598" lon="-3.52706">
        <ele>134</ele>
        <time>2015-01-04T09:34:16Z</time>
      </trkpt>
      <trkpt lat="48.60611" lon="-3.5271">
        <ele>133</ele>
        <time>2015-01-04T09:34:17Z</time>
      </trkpt>
      <trkpt lat="48.60623" lon="-3.52714">
        <ele>132</ele>
        <time>2015-01-04T09:34:18Z</time>
      </trkpt>
      <trkpt lat="48.60636" lon="-3.52719">
        <ele>132</ele>
        <time>2015-01-04T09:34:19Z</time>
      </trkpt>
      <trkpt lat="48.60648" lon="-3.52723">
        <ele>131</ele>
        <time>2015-01-04T09:34:20Z</time>
      </trkpt>
      <trkpt lat="48.60659" lon="-3.52727">
        <ele>131</ele>
        <time>2015-01-04T09:34:21Z</time>
      </trkpt>
      <trkpt lat="48.6067" lon="-3.52731">
        <ele>131</ele>
        <time>2015-01-04T09:34:22Z</time>
      </trkpt>
      <trkpt lat="48.6068" lon="-3.52734">
        <ele>131</ele>
        <time>2015-01-04T09:34:23Z</time>
      </trkpt>
      <trkpt lat="48.60689" lon="-3.52738">
        <ele>131</ele>
        <time>2015-01-04T09:34:24Z</time>
      </trkpt>
      <trkpt lat="48.60698" lon="-3.52741">
        <ele>131</ele>
        <time>2015-01-04T09:34:25Z</time>
      </trkpt>
      <trkpt lat="48.60706" lon="-3.52744">
        <ele>131</ele>
        <time>2015-01-04T09:34:26Z</time>
      </trkpt>
      <trkpt lat="48.60713" lon="-3.52746">
        <ele>131</ele>
        <time>2015-01-04T09:34:27Z</time>
      </trkpt>
      <trkpt lat="48.6072" lon="-3.52749">
        <ele>131</ele>
        <time>2015-01-04T09:34:28Z</time>
      </trkpt>
      <trkpt lat="48.60727" lon="-3.52751">
        <ele>131</ele>
        <time>2015-01-04T09:34:29Z</time>
      </trkpt>
      <trkpt lat="48.60733" lon="-3.52754">
        <ele>131</ele>
        <time>2015-01-04T09:34:30Z</time>
      </trkpt>
      <trkpt lat="48.60739" lon="-3.52756">
        <ele>131</ele>
        <time>2015-01-04T09:34:31Z</time>
      </trkpt>
      <trkpt lat="48.60745" lon="-3.52758">
        <ele>131</ele>
        <time>2015-01-04T09:34:32Z</time>
      </trkpt>
      <trkpt lat="48.60751" lon="-3.5276">
        <ele>131</ele>
        <time>2015-01-04T09:34:33Z</time>
      </trkpt>
      <trkpt lat="48.60757" lon="-3.52762">
        <ele>131</ele>
        <time>2015-01-04T09:34:34Z</time>
      </trkpt>
      <trkpt lat="48.60762" lon="-3.52765">
        <ele>131</ele>
        <time>2015-01-04T09:34:35Z</time>
      </trkpt>
      <trkpt lat="48.60768" lon="-3.52767">
        <ele>131</ele>
        <time>2015-01-04T09:34:36Z</time>
      </trkpt>
      <trkpt lat="48.60774" lon="-3.52769">
        <ele>131</ele>
        <time>2015-01-04T09:34:37Z</time>
      </trkpt>
      <trkpt lat="48.6078" lon="-3.52771">
        <ele>131</ele>
        <time>2015-01-04T09:34:38Z</time>
      </trkpt>
      <trkpt lat="48.60785" lon="-3.52774">
        <ele>131</ele>
        <time>2015-01-04T09:34:39Z</time>
      </trkpt>
      <trkpt lat="48.60791" lon="-3.52777">
        <ele>131</ele>
        <time>2015-01-04T09:34:40Z</time>
      </trkpt>
      <trkpt lat="48.60796" lon="-3.5278">
        <ele>131</ele>
        <time>2015-01-04T09:34:41Z</time>
      </trkpt>
      <trkpt lat="48.60802" lon="-3.52783">
        <ele>131</ele>
        <time>2015-01-04T09:34:42Z</time>
      </trkpt>
      <trkpt lat="48.60808" lon="-3.52785">
        <ele>131</ele>
        <time>2015-01-04T09:34:43Z</time>
      </trkpt>
      <trkpt lat="48.60813" lon="-3.52789">
        <ele>131</ele>
        <time>2015-01-04T09:34:44Z</time>
      </trkpt>
      <trkpt lat="48.60819" lon="-3.52792">
        <ele>131</ele>
        <time>2015-01-04T09:34:45Z</time>
      </trkpt>
      <trkpt lat="48.60824" lon="-3.52795">
        <ele>131</ele>
        <time>2015-01-04T09:34:46Z</time>
      </trkpt>
      <trkpt lat="48.60829" lon="-3.52799">
        <ele>132</ele>
        <time>2015-01-04T09:34:47Z</time>
      </trkpt>
      <trkpt lat="48.60834" lon="-3.52803">
        <ele>132</ele>
        <time>2015-01-04T09:34:48Z</time>
      </trkpt>
      <trkpt lat="48.6084" lon="-3.52808">
        <ele>133</ele>
        <time>2015-01-04T09:34:49Z</time>
      </trkpt>
      <trkpt lat="48.60845" lon="-3.52812">
        <ele>133</ele>
        <time>2015-01-04T09:34:50Z</time>
      </trkpt>
      <trkpt lat="48.60851" lon="-3.52817">
        <ele>133</ele>
        <time>2015-01-04T09:34:51Z</time>
      </trkpt>
      <trkpt lat="48.60856" lon="-3.52822">
        <ele>134</ele>
        <time>2015-01-04T09:34:52Z</time>
      </trkpt>
      <trkpt lat="48.60862" lon="-3.52828">
        <ele>134</ele>
        <time>2015-01-04T09:34:53Z</time>
      </trkpt>
      <trkpt lat="48.60867" lon="-3.52833">
        <ele>134</ele>
        <time>2015-01-04T09:34:54Z</time>
      </trkpt>
      <trkpt lat="48.60873" lon="-3.52838">
        <ele>134</ele>
        <time>2015-01-04T09:34:55Z</time>
      </trkpt>
      <trkpt lat="48.60879" lon="-3.52843">
        <ele>135</ele>
        <time>2015-01-04T09:34:56Z</time>
      </trkpt>
      <trkpt lat="48.60884" lon="-3.52848">
        <ele>135</ele>
        <time>2015-01-04T09:34:57Z</time>
      </trkpt>
      <trkpt lat="48.6089" lon="-3.52853">
        <ele>135</ele>
        <time>2015-01-04T09:34:58Z</time>
      </trkpt>
      <trkpt lat="48.60896" lon="-3.52859">
        <ele>135</ele>
        <time>2015-01-04T09:34:59Z</time>
      </trkpt>
      <trkpt lat="48.60902" lon="-3.52865">
        <ele>135</ele>
        <time>2015-01-04T09:35:00Z</time>
      </trkpt>
      <trkpt lat="48.60908" lon="-3.5287">
        <ele>135</ele>
        <time>2015-01-04T09:35:01Z</time>
      </trkpt>
      <trkpt lat="48.60915" lon="-3.52876">
        <ele>135</ele>
        <time>2015-01-04T09:35:02Z</time>
      </trkpt>
      <trkpt lat="48.60921" lon="-3.52882">
        <ele>135</ele>
        <time>2015-01-04T09:35:03Z</time>
      </trkpt>
      <trkpt lat="48.60928" lon="-3.52888">
        <ele>135</ele>
        <time>2015-01-04T09:35:04Z</time>
      </trkpt>
      <trkpt lat="48.60935" lon="-3.52894">
        <ele>135</ele>
        <time>2015-01-04T09:35:05Z</time>
      </trkpt>
      <trkpt lat="48.60941" lon="-3.529">
        <ele>135</ele>
        <time>2015-01-04T09:35:06Z</time>
      </trkpt>
      <trkpt lat="48.60948" lon="-3.52906">
        <ele>135</ele>
        <time>2015-01-04T09:35:07Z</time>
      </trkpt>
      <trkpt lat="48.60955" lon="-3.52913">
        <ele>135</ele>
        <time>2015-01-04T09:35:08Z</time>
      </trkpt>
      <trkpt lat="48.60962" lon="-3.52919">
        <ele>135</ele>
        <time>2015-01-04T09:35:09Z</time>
      </trkpt>
      <trkpt lat="48.6097" lon="-3.52925">
        <ele>135</ele>
        <time>2015-01-04T09:35:10Z</time>
      </trkpt>
      <trkpt lat="48.60976" lon="-3.52932">
        <ele>135</ele>
        <time>2015-01-04T09:35:11Z</time>
      </trkpt>
      <trkpt lat="48.60984" lon="-3.52939">
        <ele>135</ele>
        <time>2015-01-04T09:35:12Z</time>
      </trkpt>
      <trkpt lat="48.60991" lon="-3.52945">
        <ele>135</ele>
        <time>2015-01-04T09:35:13Z</time>
      </trkpt>
      <trkpt lat="48.60998" lon="-3.52952">
        <ele>135</ele>
        <time>2015-01-04T09:35:14Z</time>
      </trkpt>
      <trkpt lat="48.61005" lon="-3.52959">
        <ele>135</ele>
        <time>2015-01-04T09:35:15Z</time>
      </trkpt>
      <trkpt lat="48.61013" lon="-3.52965">
        <ele>135</ele>
        <time>2015-01-04T09:35:16Z</time>
      </trkpt>
      <trkpt lat="48.6102" lon="-3.52972">
        <ele>135</ele>
        <time>2015-01-04T09:35:17Z</time>
      </trkpt>
      <trkpt lat="48.61028" lon="-3.52979">
        <ele>135</ele>
        <time>2015-01-04T09:35:18Z</time>
      </trkpt>
      <trkpt lat="48.61035" lon="-3.52985">
        <ele>135</ele>
        <time>2015-01-04T09:35:19Z</time>
      </trkpt>
      <trkpt lat="48.61043" lon="-3.52992">
        <ele>135</ele>
        <time>2015-01-04T09:35:20Z</time>
      </trkpt>
      <trkpt lat="48.6105" lon="-3.53">
        <ele>135</ele>
        <time>2015-01-04T09:35:21Z</time>
      </trkpt>
      <trkpt lat="48.61058" lon="-3.53008">
        <ele>135</ele>
        <time>2015-01-04T09:35:22Z</time>
      </trkpt>
      <trkpt lat="48.61066" lon="-3.53016">
        <ele>135</ele>
        <time>2015-01-04T09:35:23Z</time>
      </trkpt>
      <trkpt lat="48.61074" lon="-3.53025">
        <ele>135</ele>
        <time>2015-01-04T09:35:24Z</time>
      </trkpt>
      <trkpt lat="48.61081" lon="-3.53035">
        <ele>135</ele>
        <time>2015-01-04T09:35:25Z</time>
      </trkpt>
      <trkpt lat="48.61088" lon="-3.53046">
        <ele>135</ele>
        <time>2015-01-04T09:35:26Z</time>
      </trkpt>
      <trkpt lat="48.61095" lon="-3.53057">
        <ele>135</ele>
        <time>2015-01-04T09:35:27Z</time>
      </trkpt>
      <trkpt lat="48.61101" lon="-3.5307">
        <ele>135</ele>
        <time>2015-01-04T09:35:28Z</time>
      </trkpt>
      <trkpt lat="48.61107" lon="-3.53082">
        <ele>134</ele>
        <time>2015-01-04T09:35:29Z</time>
      </trkpt>
      <trkpt lat="48.61112" lon="-3.53094">
        <ele>134</ele>
        <time>2015-01-04T09:35:30Z</time>
      </trkpt>
      <trkpt lat="48.61118" lon="-3.53106">
        <ele>134</ele>
        <time>2015-01-04T09:35:31Z</time>
      </trkpt>
      <trkpt lat="48.61123" lon="-3.53117">
        <ele>134</ele>
        <time>2015-01-04T09:35:32Z</time>
      </trkpt>
      <trkpt lat="48.61127" lon="-3.53129">
        <ele>134</ele>
        <time>2015-01-04T09:35:33Z</time>
      </trkpt>
      <trkpt lat="48.61132" lon="-3.53139">
        <ele>134</ele>
        <time>2015-01-04T09:35:34Z</time>
      </trkpt>
      <trkpt lat="48.61137" lon="-3.53149">
        <ele>134</ele>
        <time>2015-01-04T09:35:35Z</time>
      </trkpt>
      <trkpt lat="48.61142" lon="-3.53159">
        <ele>134</ele>
        <time>2015-01-04T09:35:36Z</time>
      </trkpt>
      <trkpt lat="48.61146" lon="-3.53169">
        <ele>134</ele>
        <time>2015-01-04T09:35:37Z</time>
      </trkpt>
      <trkpt lat="48.6115" lon="-3.53178">
        <ele>134</ele>
        <time>2015-01-04T09:35:38Z</time>
      </trkpt>
      <trkpt lat="48.61155" lon="-3.53187">
        <ele>134</ele>
        <time>2015-01-04T09:35:39Z</time>
      </trkpt>
      <trkpt lat="48.61159" lon="-3.53196">
        <ele>134</ele>
        <time>2015-01-04T09:35:40Z</time>
      </trkpt>
      <trkpt lat="48.61163" lon="-3.53205">
        <ele>134</ele>
        <time>2015-01-04T09:35:41Z</time>
      </trkpt>
      <trkpt lat="48.61168" lon="-3.53214">
        <ele>134</ele>
        <time>2015-01-04T09:35:42Z</time>
      </trkpt>
      <trkpt lat="48.61172" lon="-3.53222">
        <ele>134</ele>
        <time>2015-01-04T09:35:43Z</time>
      </trkpt>
      <trkpt lat="48.61176" lon="-3.53231">
        <ele>134</ele>
        <time>2015-01-04T09:35:44Z</time>
      </trkpt>
      <trkpt lat="48.61181" lon="-3.5324">
        <ele>134</ele>
        <time>2015-01-04T09:35:45Z</time>
      </trkpt>
      <trkpt lat="48.61185" lon="-3.53248">
        <ele>134</ele>
        <time>2015-01-04T09:35:46Z</time>
      </trkpt>
      <trkpt lat="48.6119" lon="-3.53256">
        <ele>134</ele>
        <time>2015-01-04T09:35:47Z</time>
      </trkpt>
      <trkpt lat="48.61195" lon="-3.53263">
        <ele>134</ele>
        <time>2015-01-04T09:35:48Z</time>
      </trkpt>
      <trkpt lat="48.612" lon="-3.5327">
        <ele>134</ele>
        <time>2015-01-04T09:35:49Z</time>
      </trkpt>
      <trkpt lat="48.61206" lon="-3.53277">
        <ele>134</ele>
        <time>2015-01-04T09:35:50Z</time>
      </trkpt>
      <trkpt lat="48.61211" lon="-3.53284">
        <ele>134</ele>
        <time>2015-01-04T09:35:51Z</time>
      </trkpt>
      <trkpt lat="48.61217" lon="-3.5329">
        <ele>134</ele>
        <time>2015-01-04T09:35:52Z</time>
      </trkpt>
      <trkpt lat="48.61223" lon="-3.53296">
        <ele>134</ele>
        <time>2015-01-04T09:35:53Z</time>
      </trkpt>
      <trkpt lat="48.61229" lon="-3.53302">
        <ele>134</ele>
        <time>2015-01-04T09:35:54Z</time>
      </trkpt>
      <trkpt lat="48.61235" lon="-3.53308">
        <ele>134</ele>
        <time>2015-01-04T09:35:55Z</time>
      </trkpt>
      <trkpt lat="48.61242" lon="-3.53312">
        <ele>134</ele>
        <time>2015-01-04T09:35:56Z</time>
      </trkpt>
      <trkpt lat="48.61249" lon="-3.53317">
        <ele>134</ele>
        <time>2015-01-04T09:35:57Z</time>
      </trkpt>
      <trkpt lat="48.61256" lon="-3.53321">
        <ele>134</ele>
        <time>2015-01-04T09:35:58Z</time>
      </trkpt>
      <trkpt lat="48.61263" lon="-3.53326">
        <ele>134</ele>
        <time>2015-01-04T09:35:59Z</time>
      </trkpt>
      <trkpt lat="48.61271" lon="-3.53329">
        <ele>134</ele>
        <time>2015-01-04T09:36:00Z</time>
      </trkpt>
      <trkpt lat="48.61278" lon="-3.53334">
        <ele>134</ele>
        <time>2015-01-04T09:36:01Z</time>
      </trkpt>
      <trkpt lat="48.61286" lon="-3.53338">
        <ele>134</ele>
        <time>2015-01-04T09:36:02Z</time>
      </trkpt>
      <trkpt lat="48.61293" lon="-3.53342">
        <ele>134</ele>
        <time>2015-01-04T09:36:03Z</time>
      </trkpt>
      <trkpt lat="48.61301" lon="-3.53346">
        <ele>134</ele>
        <time>2015-01-04T09:36:04Z</time>
      </trkpt>
      <trkpt lat="48.61309" lon="-3.5335">
        <ele>134</ele>
        <time>2015-01-04T09:36:05Z</time>
      </trkpt>
      <trkpt lat="48.61317" lon="-3.53355">
        <ele>134</ele>
        <time>2015-01-04T09:36:06Z</time>
      </trkpt>
      <trkpt lat="48.61325" lon="-3.53359">
        <ele>134</ele>
        <time>2015-01-04T09:36:07Z</time>
      </trkpt>
      <trkpt lat="48.61333" lon="-3.53364">
        <ele>134</ele>
        <time>2015-01-04T09:36:08Z</time>
      </trkpt>
      <trkpt lat="48.61341" lon="-3.53369">
        <ele>134</ele>
        <time>2015-01-04T09:36:09Z</time>
      </trkpt>
      <trkpt lat="48.61349" lon="-3.53375">
        <ele>134</ele>
        <time>2015-01-04T09:36:10Z</time>
      </trkpt>
      <trkpt lat="48.61357" lon="-3.53381">
        <ele>134</ele>
        <time>2015-01-04T09:36:11Z</time>
      </trkpt>
      <trkpt lat="48.61364" lon="-3.53388">
        <ele>134</ele>
        <time>2015-01-04T09:36:12Z</time>
      </trkpt>
      <trkpt lat="48.61372" lon="-3.53396">
        <ele>134</ele>
        <time>2015-01-04T09:36:13Z</time>
      </trkpt>
      <trkpt lat="48.61379" lon="-3.53404">
        <ele>134</ele>
        <time>2015-01-04T09:36:14Z</time>
      </trkpt>
      <trkpt lat="48.61386" lon="-3.53413">
        <ele>134</ele>
        <time>2015-01-04T09:36:15Z</time>
      </trkpt>
      <trkpt lat="48.61393" lon="-3.53423">
        <ele>134</ele>
        <time>2015-01-04T09:36:16Z</time>
      </trkpt>
      <trkpt lat="48.614" lon="-3.53433">
        <ele>134</ele>
        <time>2015-01-04T09:36:17Z</time>
      </trkpt>
      <trkpt lat="48.61406" lon="-3.53444">
        <ele>133</ele>
        <time>2015-01-04T09:36:18Z</time>
      </trkpt>
      <trkpt lat="48.61412" lon="-3.53454">
        <ele>133</ele>
        <time>2015-01-04T09:36:19Z</time>
      </trkpt>
      <trkpt lat="48.61419" lon="-3.53465">
        <ele>132</ele>
        <time>2015-01-04T09:36:20Z</time>
      </trkpt>
      <trkpt lat="48.61425" lon="-3.53477">
        <ele>132</ele>
        <time>2015-01-04T09:36:21Z</time>
      </trkpt>
      <trkpt lat="48.61432" lon="-3.53488">
        <ele>131</ele>
        <time>2015-01-04T09:36:22Z</time>
      </trkpt>
      <trkpt lat="48.61438" lon="-3.53499">
        <ele>131</ele>
        <time>2015-01-04T09:36:23Z</time>
      </trkpt>
      <trkpt lat="48.61444" lon="-3.53511">
        <ele>130</ele>
        <time>2015-01-04T09:36:24Z</time>
      </trkpt>
      <trkpt lat="48.61451" lon="-3.53522">
        <ele>129</ele>
        <time>2015-01-04T09:36:25Z</time>
      </trkpt>
      <trkpt lat="48.61457" lon="-3.53534">
        <ele>129</ele>
        <time>2015-01-04T09:36:26Z</time>
      </trkpt>
      <trkpt lat="48.61463" lon="-3.53546">
        <ele>128</ele>
        <time>2015-01-04T09:36:27Z</time>
      </trkpt>
      <trkpt lat="48.61469" lon="-3.53556">
        <ele>127</ele>
        <time>2015-01-04T09:36:28Z</time>
      </trkpt>
      <trkpt lat="48.61474" lon="-3.53567">
        <ele>127</ele>
        <time>2015-01-04T09:36:29Z</time>
      </trkpt>
      <trkpt lat="48.61478" lon="-3.53576">
        <ele>126</ele>
        <time>2015-01-04T09:36:30Z</time>
      </trkpt>
      <trkpt lat="48.61482" lon="-3.53586">
        <ele>126</ele>
        <time>2015-01-04T09:36:31Z</time>
      </trkpt>
      <trkpt lat="48.61486" lon="-3.53594">
        <ele>125</ele>
        <time>2015-01-04T09:36:32Z</time>
      </trkpt>
      <trkpt lat="48.61491" lon="-3.53602">
        <ele>125</ele>
        <time>2015-01-04T09:36:33Z</time>
      </trkpt>
      <trkpt lat="48.61496" lon="-3.53607">
        <ele>125</ele>
        <time>2015-01-04T09:36:34Z</time>
      </trkpt>
      <trkpt lat="48.61503" lon="-3.5361">
        <ele>125</ele>
        <time>2015-01-04T09:36:35Z</time>
      </trkpt>
      <trkpt lat="48.6151" lon="-3.53612">
        <ele>125</ele>
        <time>2015-01-04T09:36:36Z</time>
      </trkpt>
      <trkpt lat="48.61518" lon="-3.53614">
        <ele>125</ele>
        <time>2015-01-04T09:36:37Z</time>
      </trkpt>
      <trkpt lat="48.61525" lon="-3.53616">
        <ele>124</ele>
        <time>2015-01-04T09:36:38Z</time>
      </trkpt>
      <trkpt lat="48.61534" lon="-3.53619">
        <ele>124</ele>
        <time>2015-01-04T09:36:39Z</time>
      </trkpt>
      <trkpt lat="48.61543" lon="-3.53622">
        <ele>124</ele>
        <time>2015-01-04T09:36:40Z</time>
      </trkpt>
      <trkpt lat="48.61551" lon="-3.53624">
        <ele>123</ele>
        <time>2015-01-04T09:36:41Z</time>
      </trkpt>
      <trkpt lat="48.6156" lon="-3.53627">
        <ele>123</ele>
        <time>2015-01-04T09:36:42Z</time>
      </trkpt>
      <trkpt lat="48.61569" lon="-3.53629">
        <ele>123</ele>
        <time>2015-01-04T09:36:43Z</time>
      </trkpt>
      <trkpt lat="48.61578" lon="-3.53633">
        <ele>122</ele>
        <time>2015-01-04T09:36:44Z</time>
      </trkpt>
      <trkpt lat="48.61588" lon="-3.53636">
        <ele>122</ele>
        <time>2015-01-04T09:36:45Z</time>
      </trkpt>
      <trkpt lat="48.61597" lon="-3.53641">
        <ele>121</ele>
        <time>2015-01-04T09:36:46Z</time>
      </trkpt>
      <trkpt lat="48.61606" lon="-3.53646">
        <ele>120</ele>
        <time>2015-01-04T09:36:47Z</time>
      </trkpt>
      <trkpt lat="48.61615" lon="-3.53652">
        <ele>120</ele>
        <time>2015-01-04T09:36:48Z</time>
      </trkpt>
      <trkpt lat="48.61625" lon="-3.53658">
        <ele>119</ele>
        <time>2015-01-04T09:36:49Z</time>
      </trkpt>
      <trkpt lat="48.61634" lon="-3.53663">
        <ele>118</ele>
        <time>2015-01-04T09:36:50Z</time>
      </trkpt>
      <trkpt lat="48.61644" lon="-3.53669">
        <ele>118</ele>
        <time>2015-01-04T09:36:51Z</time>
      </trkpt>
      <trkpt lat="48.61654" lon="-3.53675">
        <ele>117</ele>
        <time>2015-01-04T09:36:52Z</time>
      </trkpt>
      <trkpt lat="48.61664" lon="-3.5368">
        <ele>116</ele>
        <time>2015-01-04T09:36:53Z</time>
      </trkpt>
      <trkpt lat="48.61674" lon="-3.53685">
        <ele>116</ele>
        <time>2015-01-04T09:36:54Z</time>
      </trkpt>
      <trkpt lat="48.61685" lon="-3.53689">
        <ele>115</ele>
        <time>2015-01-04T09:36:55Z</time>
      </trkpt>
      <trkpt lat="48.61695" lon="-3.53693">
        <ele>115</ele>
        <time>2015-01-04T09:36:56Z</time>
      </trkpt>
      <trkpt lat="48.61705" lon="-3.53698">
        <ele>114</ele>
        <time>2015-01-04T09:36:57Z</time>
      </trkpt>
      <trkpt lat="48.61715" lon="-3.53704">
        <ele>114</ele>
        <time>2015-01-04T09:36:58Z</time>
      </trkpt>
      <trkpt lat="48.61724" lon="-3.5371">
        <ele>114</ele>
        <time>2015-01-04T09:36:59Z</time>
      </trkpt>
      <trkpt lat="48.61734" lon="-3.53717">
        <ele>113</ele>
        <time>2015-01-04T09:37:00Z</time>
      </trkpt>
      <trkpt lat="48.61742" lon="-3.53725">
        <ele>113</ele>
        <time>2015-01-04T09:37:01Z</time>
      </trkpt>
      <trkpt lat="48.61751" lon="-3.53732">
        <ele>113</ele>
        <time>2015-01-04T09:37:02Z</time>
      </trkpt>
      <trkpt lat="48.61759" lon="-3.53741">
        <ele>113</ele>
        <time>2015-01-04T09:37:03Z</time>
      </trkpt>
      <trkpt lat="48.61767" lon="-3.53749">
        <ele>113</ele>
        <time>2015-01-04T09:37:04Z</time>
      </trkpt>
      <trkpt lat="48.61774" lon="-3.53758">
        <ele>112</ele>
        <time>2015-01-04T09:37:05Z</time>
      </trkpt>
      <trkpt lat="48.61781" lon="-3.53767">
        <ele>112</ele>
        <time>2015-01-04T09:37:06Z</time>
      </trkpt>
      <trkpt lat="48.61789" lon="-3.53775">
        <ele>112</ele>
        <time>2015-01-04T09:37:07Z</time>
      </trkpt>
      <trkpt lat="48.61797" lon="-3.53783">
        <ele>112</ele>
        <time>2015-01-04T09:37:08Z</time>
      </trkpt>
      <trkpt lat="48.61804" lon="-3.5379">
        <ele>112</ele>
        <time>2015-01-04T09:37:09Z</time>
      </trkpt>
      <trkpt lat="48.61813" lon="-3.53796">
        <ele>112</ele>
        <time>2015-01-04T09:37:10Z</time>
      </trkpt>
      <trkpt lat="48.61821" lon="-3.53801">
        <ele>112</ele>
        <time>2015-01-04T09:37:11Z</time>
      </trkpt>
      <trkpt lat="48.6183" lon="-3.53804">
        <ele>112</ele>
        <time>2015-01-04T09:37:12Z</time>
      </trkpt>
      <trkpt lat="48.61838" lon="-3.53806">
        <ele>111</ele>
        <time>2015-01-04T09:37:13Z</time>
      </trkpt>
      <trkpt lat="48.61847" lon="-3.53808">
        <ele>111</ele>
        <time>2015-01-04T09:37:14Z</time>
      </trkpt>
      <trkpt lat="48.61855" lon="-3.53809">
        <ele>111</ele>
        <time>2015-01-04T09:37:15Z</time>
      </trkpt>
      <trkpt lat="48.61863" lon="-3.53811">
        <ele>111</ele>
        <time>2015-01-04T09:37:16Z</time>
      </trkpt>
      <trkpt lat="48.61871" lon="-3.53813">
        <ele>111</ele>
        <time>2015-01-04T09:37:17Z</time>
      </trkpt>
      <trkpt lat="48.61879" lon="-3.53814">
        <ele>111</ele>
        <time>2015-01-04T09:37:18Z</time>
      </trkpt>
      <trkpt lat="48.61887" lon="-3.53816">
        <ele>111</ele>
        <time>2015-01-04T09:37:19Z</time>
      </trkpt>
      <trkpt lat="48.61895" lon="-3.53818">
        <ele>111</ele>
        <time>2015-01-04T09:37:20Z</time>
      </trkpt>
      <trkpt lat="48.61902" lon="-3.5382">
        <ele>111</ele>
        <time>2015-01-04T09:37:21Z</time>
      </trkpt>
      <trkpt lat="48.61908" lon="-3.53822">
        <ele>111</ele>
        <time>2015-01-04T09:37:22Z</time>
      </trkpt>
      <trkpt lat="48.61915" lon="-3.53825">
        <ele>111</ele>
        <time>2015-01-04T09:37:23Z</time>
      </trkpt>
      <trkpt lat="48.61921" lon="-3.53826">
        <ele>111</ele>
        <time>2015-01-04T09:37:24Z</time>
      </trkpt>
      <trkpt lat="48.61927" lon="-3.53825">
        <ele>111</ele>
        <time>2015-01-04T09:37:25Z</time>
      </trkpt>
      <trkpt lat="48.61932" lon="-3.53821">
        <ele>111</ele>
        <time>2015-01-04T09:37:26Z</time>
      </trkpt>
      <trkpt lat="48.61936" lon="-3.53814">
        <ele>111</ele>
        <time>2015-01-04T09:37:27Z</time>
      </trkpt>
      <trkpt lat="48.6194" lon="-3.53807">
        <ele>111</ele>
        <time>2015-01-04T09:37:28Z</time>
      </trkpt>
      <trkpt lat="48.61944" lon="-3.53801">
        <ele>111</ele>
        <time>2015-01-04T09:37:29Z</time>
      </trkpt>
      <trkpt lat="48.61948" lon="-3.53795">
        <ele>111</ele>
        <time>2015-01-04T09:37:30Z</time>
      </trkpt>
      <trkpt lat="48.61951" lon="-3.5379">
        <ele>111</ele>
        <time>2015-01-04T09:37:31Z</time>
      </trkpt>
      <trkpt lat="48.61956" lon="-3.53787">
        <ele>111</ele>
        <time>2015-01-04T09:37:32Z</time>
      </trkpt>
      <trkpt lat="48.6196" lon="-3.53785">
        <ele>111</ele>
        <time>2015-01-04T09:37:33Z</time>
      </trkpt>
      <trkpt lat="48.61964" lon="-3.53784">
        <ele>111</ele>
        <time>2015-01-04T09:37:34Z</time>
      </trkpt>
      <trkpt lat="48.61969" lon="-3.53783">
        <ele>111</ele>
        <time>2015-01-04T09:37:35Z</time>
      </trkpt>
      <trkpt lat="48.61972" lon="-3.53779">
        <ele>110</ele>
        <time>2015-01-04T09:37:36Z</time>
      </trkpt>
      <trkpt lat="48.61975" lon="-3.53773">
        <ele>110</ele>
        <time>2015-01-04T09:37:37Z</time>
      </trkpt>
      <trkpt lat="48.61978" lon="-3.53766">
        <ele>110</ele>
        <time>2015-01-04T09:37:38Z</time>
      </trkpt>
      <trkpt lat="48.6198" lon="-3.53758">
        <ele>110</ele>
        <time>2015-01-04T09:37:39Z</time>
      </trkpt>
      <trkpt lat="48.61982" lon="-3.53749">
        <ele>109</ele>
        <time>2015-01-04T09:37:40Z</time>
      </trkpt>
      <trkpt lat="48.61985" lon="-3.5374">
        <ele>109</ele>
        <time>2015-01-04T09:37:41Z</time>
      </trkpt>
      <trkpt lat="48.61988" lon="-3.5373">
        <ele>108</ele>
        <time>2015-01-04T09:37:42Z</time>
      </trkpt>
      <trkpt lat="48.61992" lon="-3.5372">
        <ele>108</ele>
        <time>2015-01-04T09:37:43Z</time>
      </trkpt>
      <trkpt lat="48.61995" lon="-3.53709">
        <ele>107</ele>
        <time>2015-01-04T09:37:44Z</time>
      </trkpt>
      <trkpt lat="48.61998" lon="-3.53698">
        <ele>107</ele>
        <time>2015-01-04T09:37:45Z</time>
      </trkpt>
      <trkpt lat="48.62002" lon="-3.53686">
        <ele>106</ele>
        <time>2015-01-04T09:37:46Z</time>
      </trkpt>
      <trkpt lat="48.62005" lon="-3.53675">
        <ele>106</ele>
        <time>2015-01-04T09:37:47Z</time>
      </trkpt>
      <trkpt lat="48.62009" lon="-3.53663">
        <ele>105</ele>
        <time>2015-01-04T09:37:48Z</time>
      </trkpt>
      <trkpt lat="48.62012" lon="-3.53652">
        <ele>105</ele>
        <time>2015-01-04T09:37:49Z</time>
      </trkpt>
      <trkpt lat="48.62017" lon="-3.53643">
        <ele>105</ele>
        <time>2015-01-04T09:37:50Z</time>
      </trkpt>
      <trkpt lat="48.62022" lon="-3.53636">
        <ele>105</ele>
        <time>2015-01-04T09:37:51Z</time>
      </trkpt>
      <trkpt lat="48.62028" lon="-3.53631">
        <ele>105</ele>
        <time>2015-01-04T09:37:52Z</time>
      </trkpt>
      <trkpt lat="48.62033" lon="-3.53626">
        <ele>105</ele>
        <time>2015-01-04T09:37:53Z</time>
      </trkpt>
      <trkpt lat="48.62039" lon="-3.53622">
        <ele>105</ele>
        <time>2015-01-04T09:37:54Z</time>
      </trkpt>
      <trkpt lat="48.62044" lon="-3.53618">
        <ele>105</ele>
        <time>2015-01-04T09:37:55Z</time>
      </trkpt>
      <trkpt lat="48.62049" lon="-3.53614">
        <ele>105</ele>
        <time>2015-01-04T09:37:56Z</time>
      </trkpt>
      <trkpt lat="48.62054" lon="-3.5361">
        <ele>105</ele>
        <time>2015-01-04T09:37:57Z</time>
      </trkpt>
      <trkpt lat="48.62059" lon="-3.53605">
        <ele>105</ele>
        <time>2015-01-04T09:37:58Z</time>
      </trkpt>
      <trkpt lat="48.62064" lon="-3.53599">
        <ele>105</ele>
        <time>2015-01-04T09:37:59Z</time>
      </trkpt>
      <trkpt lat="48.62068" lon="-3.53593">
        <ele>105</ele>
        <time>2015-01-04T09:38:00Z</time>
      </trkpt>
      <trkpt lat="48.62072" lon="-3.53587">
        <ele>105</ele>
        <time>2015-01-04T09:38:01Z</time>
      </trkpt>
      <trkpt lat="48.62076" lon="-3.53581">
        <ele>105</ele>
        <time>2015-01-04T09:38:02Z</time>
      </trkpt>
      <trkpt lat="48.62081" lon="-3.53574">
        <ele>105</ele>
        <time>2015-01-04T09:38:03Z</time>
      </trkpt>
      <trkpt lat="48.62085" lon="-3.53568">
        <ele>105</ele>
        <time>2015-01-04T09:38:04Z</time>
      </trkpt>
      <trkpt lat="48.6209" lon="-3.5356">
        <ele>105</ele>
        <time>2015-01-04T09:38:05Z</time>
      </trkpt>
      <trkpt lat="48.62094" lon="-3.53552">
        <ele>105</ele>
        <time>2015-01-04T09:38:06Z</time>
      </trkpt>
      <trkpt lat="48.62098" lon="-3.53545">
        <ele>105</ele>
        <time>2015-01-04T09:38:07Z</time>
      </trkpt>
      <trkpt lat="48.62101" lon="-3.53536">
        <ele>105</ele>
        <time>2015-01-04T09:38:08Z</time>
      </trkpt>
      <trkpt lat="48.62106" lon="-3.53528">
        <ele>105</ele>
        <time>2015-01-04T09:38:09Z</time>
      </trkpt>
      <trkpt lat="48.62109" lon="-3.5352">
        <ele>105</ele>
        <time>2015-01-04T09:38:10Z</time>
      </trkpt>
      <trkpt lat="48.62113" lon="-3.53511">
        <ele>105</ele>
        <time>2015-01-04T09:38:11Z</time>
      </trkpt>
      <trkpt lat="48.62117" lon="-3.53502">
        <ele>105</ele>
        <time>2015-01-04T09:38:12Z</time>
      </trkpt>
      <trkpt lat="48.62122" lon="-3.53494">
        <ele>105</ele>
        <time>2015-01-04T09:38:13Z</time>
      </trkpt>
      <trkpt lat="48.62126" lon="-3.53485">
        <ele>105</ele>
        <time>2015-01-04T09:38:14Z</time>
      </trkpt>
      <trkpt lat="48.62131" lon="-3.53477">
        <ele>105</ele>
        <time>2015-01-04T09:38:15Z</time>
      </trkpt>
      <trkpt lat="48.62135" lon="-3.53468">
        <ele>105</ele>
        <time>2015-01-04T09:38:16Z</time>
      </trkpt>
      <trkpt lat="48.6214" lon="-3.53459">
        <ele>105</ele>
        <time>2015-01-04T09:38:17Z</time>
      </trkpt>
      <trkpt lat="48.62144" lon="-3.5345">
        <ele>105</ele>
        <time>2015-01-04T09:38:18Z</time>
      </trkpt>
      <trkpt lat="48.62148" lon="-3.53441">
        <ele>105</ele>
        <time>2015-01-04T09:38:19Z</time>
      </trkpt>
      <trkpt lat="48.62153" lon="-3.53432">
        <ele>105</ele>
        <time>2015-01-04T09:38:20Z</time>
      </trkpt>
      <trkpt lat="48.62157" lon="-3.53423">
        <ele>105</ele>
        <time>2015-01-04T09:38:21Z</time>
      </trkpt>
      <trkpt lat="48.62162" lon="-3.53413">
        <ele>105</ele>
        <time>2015-01-04T09:38:22Z</time>
      </trkpt>
      <trkpt lat="48.62167" lon="-3.53404">
        <ele>105</ele>
        <time>2015-01-04T09:38:23Z</time>
      </trkpt>
      <trkpt lat="48.62172" lon="-3.53394">
        <ele>105</ele>
        <time>2015-01-04T09:38:24Z</time>
      </trkpt>
      <trkpt lat="48.62177" lon="-3.53385">
        <ele>105</ele>
        <time>2015-01-04T09:38:25Z</time>
      </trkpt>
      <trkpt lat="48.62183" lon="-3.53377">
        <ele>105</ele>
        <time>2015-01-04T09:38:26Z</time>
      </trkpt>
      <trkpt lat="48.62189" lon="-3.53369">
        <ele>105</ele>
        <time>2015-01-04T09:38:27Z</time>
      </trkpt>
      <trkpt lat="48.62196" lon="-3.53362">
        <ele>105</ele>
        <time>2015-01-04T09:38:28Z</time>
      </trkpt>
      <trkpt lat="48.62204" lon="-3.53357">
        <ele>105</ele>
        <time>2015-01-04T09:38:29Z</time>
      </trkpt>
      <trkpt lat="48.62213" lon="-3.53352">
        <ele>105</ele>
        <time>2015-01-04T09:38:30Z</time>
      </trkpt>
      <trkpt lat="48.62222" lon="-3.53346">
        <ele>105</ele>
        <time>2015-01-04T09:38:31Z</time>
      </trkpt>
      <trkpt lat="48.6223" lon="-3.53339">
        <ele>105</ele>
        <time>2015-01-04T09:38:32Z</time>
      </trkpt>
      <trkpt lat="48.62238" lon="-3.5333">
        <ele>104</ele>
        <time>2015-01-04T09:38:33Z</time>
      </trkpt>
      <trkpt lat="48.62244" lon="-3.5332">
        <ele>104</ele>
        <time>2015-01-04T09:38:34Z</time>
      </trkpt>
      <trkpt lat="48.62251" lon="-3.53309">
        <ele>103</ele>
        <time>2015-01-04T09:38:35Z</time>
      </trkpt>
      <trkpt lat="48.62258" lon="-3.53298">
        <ele>102</ele>
        <time>2015-01-04T09:38:36Z</time>
      </trkpt>
      <trkpt lat="48.62266" lon="-3.53288">
        <ele>102</ele>
        <time>2015-01-04T09:38:37Z</time>
      </trkpt>
      <trkpt lat="48.62274" lon="-3.53279">
        <ele>101</ele>
        <time>2015-01-04T09:38:38Z</time>
      </trkpt>
      <trkpt lat="48.62283" lon="-3.53271">
        <ele>100</ele>
        <time>2015-01-04T09:38:39Z</time>
      </trkpt>
      <trkpt lat="48.62294" lon="-3.53265">
        <ele>99</ele>
        <time>2015-01-04T09:38:40Z</time>
      </trkpt>
      <trkpt lat="48.62304" lon="-3.53259">
        <ele>99</ele>
        <time>2015-01-04T09:38:41Z</time>
      </trkpt>
      <trkpt lat="48.62314" lon="-3.53255">
        <ele>98</ele>
        <time>2015-01-04T09:38:42Z</time>
      </trkpt>
      <trkpt lat="48.62324" lon="-3.53249">
        <ele>97</ele>
        <time>2015-01-04T09:38:43Z</time>
      </trkpt>
      <trkpt lat="48.62334" lon="-3.53243">
        <ele>97</ele>
        <time>2015-01-04T09:38:44Z</time>
      </trkpt>
      <trkpt lat="48.62343" lon="-3.53236">
        <ele>96</ele>
        <time>2015-01-04T09:38:45Z</time>
      </trkpt>
      <trkpt lat="48.62352" lon="-3.53229">
        <ele>96</ele>
        <time>2015-01-04T09:38:46Z</time>
      </trkpt>
      <trkpt lat="48.62361" lon="-3.53222">
        <ele>95</ele>
        <time>2015-01-04T09:38:47Z</time>
      </trkpt>
      <trkpt lat="48.6237" lon="-3.53216">
        <ele>95</ele>
        <time>2015-01-04T09:38:48Z</time>
      </trkpt>
      <trkpt lat="48.62379" lon="-3.53212">
        <ele>95</ele>
        <time>2015-01-04T09:38:49Z</time>
      </trkpt>
      <trkpt lat="48.62388" lon="-3.53209">
        <ele>94</ele>
        <time>2015-01-04T09:38:50Z</time>
      </trkpt>
      <trkpt lat="48.62397" lon="-3.53207">
        <ele>94</ele>
        <time>2015-01-04T09:38:51Z</time>
      </trkpt>
      <trkpt lat="48.62407" lon="-3.53206">
        <ele>94</ele>
        <time>2015-01-04T09:38:52Z</time>
      </trkpt>
      <trkpt lat="48.62415" lon="-3.53206">
        <ele>94</ele>
        <time>2015-01-04T09:38:53Z</time>
      </trkpt>
      <trkpt lat="48.62433" lon="-3.53206">
        <ele>94</ele>
        <time>2015-01-04T09:38:55Z</time>
      </trkpt>
      <trkpt lat="48.62441" lon="-3.53206">
        <ele>93</ele>
        <time>2015-01-04T09:38:56Z</time>
      </trkpt>
      <trkpt lat="48.62459" lon="-3.53206">
        <ele>93</ele>
        <time>2015-01-04T09:38:58Z</time>
      </trkpt>
      <trkpt lat="48.62467" lon="-3.53206">
        <ele>93</ele>
        <time>2015-01-04T09:38:59Z</time>
      </trkpt>
      <trkpt lat="48.62476" lon="-3.53205">
        <ele>93</ele>
        <time>2015-01-04T09:39:00Z</time>
      </trkpt>
      <trkpt lat="48.62484" lon="-3.53204">
        <ele>92</ele>
        <time>2015-01-04T09:39:01Z</time>
      </trkpt>
      <trkpt lat="48.62492" lon="-3.53203">
        <ele>92</ele>
        <time>2015-01-04T09:39:02Z</time>
      </trkpt>
      <trkpt lat="48.62501" lon="-3.53202">
        <ele>92</ele>
        <time>2015-01-04T09:39:03Z</time>
      </trkpt>
      <trkpt lat="48.6251" lon="-3.532">
        <ele>92</ele>
        <time>2015-01-04T09:39:04Z</time>
      </trkpt>
      <trkpt lat="48.62518" lon="-3.53199">
        <ele>92</ele>
        <time>2015-01-04T09:39:05Z</time>
      </trkpt>
      <trkpt lat="48.62526" lon="-3.53198">
        <ele>92</ele>
        <time>2015-01-04T09:39:06Z</time>
      </trkpt>
      <trkpt lat="48.62535" lon="-3.53197">
        <ele>92</ele>
        <time>2015-01-04T09:39:07Z</time>
      </trkpt>
      <trkpt lat="48.62543" lon="-3.53196">
        <ele>92</ele>
        <time>2015-01-04T09:39:08Z</time>
      </trkpt>
      <trkpt lat="48.62552" lon="-3.53197">
        <ele>92</ele>
        <time>2015-01-04T09:39:09Z</time>
      </trkpt>
      <trkpt lat="48.6256" lon="-3.53198">
        <ele>92</ele>
        <time>2015-01-04T09:39:10Z</time>
      </trkpt>
      <trkpt lat="48.62568" lon="-3.53201">
        <ele>92</ele>
        <time>2015-01-04T09:39:11Z</time>
      </trkpt>
      <trkpt lat="48.62576" lon="-3.53205">
        <ele>92</ele>
        <time>2015-01-04T09:39:12Z</time>
      </trkpt>
      <trkpt lat="48.62583" lon="-3.53212">
        <ele>92</ele>
        <time>2015-01-04T09:39:13Z</time>
      </trkpt>
      <trkpt lat="48.62589" lon="-3.53219">
        <ele>92</ele>
        <time>2015-01-04T09:39:14Z</time>
      </trkpt>
      <trkpt lat="48.62595" lon="-3.53227">
        <ele>92</ele>
        <time>2015-01-04T09:39:15Z</time>
      </trkpt>
      <trkpt lat="48.62601" lon="-3.53236">
        <ele>92</ele>
        <time>2015-01-04T09:39:16Z</time>
      </trkpt>
      <trkpt lat="48.62606" lon="-3.53244">
        <ele>92</ele>
        <time>2015-01-04T09:39:17Z</time>
      </trkpt>
      <trkpt lat="48.62612" lon="-3.53252">
        <ele>92</ele>
        <time>2015-01-04T09:39:18Z</time>
      </trkpt>
      <trkpt lat="48.62617" lon="-3.5326">
        <ele>92</ele>
        <time>2015-01-04T09:39:19Z</time>
      </trkpt>
      <trkpt lat="48.62622" lon="-3.53268">
        <ele>92</ele>
        <time>2015-01-04T09:39:20Z</time>
      </trkpt>
      <trkpt lat="48.62627" lon="-3.53276">
        <ele>92</ele>
        <time>2015-01-04T09:39:21Z</time>
      </trkpt>
      <trkpt lat="48.62632" lon="-3.53283">
        <ele>92</ele>
        <time>2015-01-04T09:39:22Z</time>
      </trkpt>
      <trkpt lat="48.62638" lon="-3.53288">
        <ele>92</ele>
        <time>2015-01-04T09:39:23Z</time>
      </trkpt>
      <trkpt lat="48.62644" lon="-3.53293">
        <ele>92</ele>
        <time>2015-01-04T09:39:24Z</time>
      </trkpt>
      <trkpt lat="48.6265" lon="-3.53296">
        <ele>92</ele>
        <time>2015-01-04T09:39:25Z</time>
      </trkpt>
      <trkpt lat="48.62656" lon="-3.53298">
        <ele>92</ele>
        <time>2015-01-04T09:39:26Z</time>
      </trkpt>
      <trkpt lat="48.62663" lon="-3.533">
        <ele>92</ele>
        <time>2015-01-04T09:39:27Z</time>
      </trkpt>
      <trkpt lat="48.62669" lon="-3.533">
        <ele>92</ele>
        <time>2015-01-04T09:39:28Z</time>
      </trkpt>
      <trkpt lat="48.62676" lon="-3.533">
        <ele>92</ele>
        <time>2015-01-04T09:39:29Z</time>
      </trkpt>
      <trkpt lat="48.62683" lon="-3.53298">
        <ele>92</ele>
        <time>2015-01-04T09:39:30Z</time>
      </trkpt>
      <trkpt lat="48.62691" lon="-3.53294">
        <ele>92</ele>
        <time>2015-01-04T09:39:31Z</time>
      </trkpt>
      <trkpt lat="48.62699" lon="-3.5329">
        <ele>92</ele>
        <time>2015-01-04T09:39:32Z</time>
      </trkpt>
      <trkpt lat="48.62706" lon="-3.53284">
        <ele>92</ele>
        <time>2015-01-04T09:39:33Z</time>
      </trkpt>
      <trkpt lat="48.62714" lon="-3.53277">
        <ele>91</ele>
        <time>2015-01-04T09:39:34Z</time>
      </trkpt>
      <trkpt lat="48.62722" lon="-3.53269">
        <ele>91</ele>
        <time>2015-01-04T09:39:35Z</time>
      </trkpt>
      <trkpt lat="48.62729" lon="-3.5326">
        <ele>90</ele>
        <time>2015-01-04T09:39:36Z</time>
      </trkpt>
      <trkpt lat="48.62737" lon="-3.53251">
        <ele>90</ele>
        <time>2015-01-04T09:39:37Z</time>
      </trkpt>
      <trkpt lat="48.62744" lon="-3.5324">
        <ele>89</ele>
        <time>2015-01-04T09:39:38Z</time>
      </trkpt>
      <trkpt lat="48.62751" lon="-3.53229">
        <ele>88</ele>
        <time>2015-01-04T09:39:39Z</time>
      </trkpt>
      <trkpt lat="48.62759" lon="-3.53217">
        <ele>88</ele>
        <time>2015-01-04T09:39:40Z</time>
      </trkpt>
      <trkpt lat="48.62766" lon="-3.53205">
        <ele>87</ele>
        <time>2015-01-04T09:39:41Z</time>
      </trkpt>
      <trkpt lat="48.62772" lon="-3.53194">
        <ele>87</ele>
        <time>2015-01-04T09:39:42Z</time>
      </trkpt>
      <trkpt lat="48.62779" lon="-3.53182">
        <ele>86</ele>
        <time>2015-01-04T09:39:43Z</time>
      </trkpt>
      <trkpt lat="48.62786" lon="-3.5317">
        <ele>85</ele>
        <time>2015-01-04T09:39:44Z</time>
      </trkpt>
      <trkpt lat="48.62793" lon="-3.53158">
        <ele>85</ele>
        <time>2015-01-04T09:39:45Z</time>
      </trkpt>
      <trkpt lat="48.62799" lon="-3.53145">
        <ele>84</ele>
        <time>2015-01-04T09:39:46Z</time>
      </trkpt>
      <trkpt lat="48.62804" lon="-3.53132">
        <ele>84</ele>
        <time>2015-01-04T09:39:47Z</time>
      </trkpt>
      <trkpt lat="48.62809" lon="-3.53118">
        <ele>83</ele>
        <time>2015-01-04T09:39:48Z</time>
      </trkpt>
      <trkpt lat="48.62813" lon="-3.53103">
        <ele>83</ele>
        <time>2015-01-04T09:39:49Z</time>
      </trkpt>
      <trkpt lat="48.62817" lon="-3.53088">
        <ele>82</ele>
        <time>2015-01-04T09:39:50Z</time>
      </trkpt>
      <trkpt lat="48.62822" lon="-3.53072">
        <ele>82</ele>
        <time>2015-01-04T09:39:51Z</time>
      </trkpt>
      <trkpt lat="48.62826" lon="-3.53057">
        <ele>81</ele>
        <time>2015-01-04T09:39:52Z</time>
      </trkpt>
      <trkpt lat="48.6283" lon="-3.53042">
        <ele>81</ele>
        <time>2015-01-04T09:39:53Z</time>
      </trkpt>
      <trkpt lat="48.62835" lon="-3.53027">
        <ele>80</ele>
        <time>2015-01-04T09:39:54Z</time>
      </trkpt>
      <trkpt lat="48.62839" lon="-3.53012">
        <ele>80</ele>
        <time>2015-01-04T09:39:55Z</time>
      </trkpt>
      <trkpt lat="48.62843" lon="-3.52997">
        <ele>79</ele>
        <time>2015-01-04T09:39:56Z</time>
      </trkpt>
      <trkpt lat="48.62847" lon="-3.52982">
        <ele>78</ele>
        <time>2015-01-04T09:39:57Z</time>
      </trkpt>
      <trkpt lat="48.62851" lon="-3.52968">
        <ele>78</ele>
        <time>2015-01-04T09:39:58Z</time>
      </trkpt>
      <trkpt lat="48.62856" lon="-3.52955">
        <ele>78</ele>
        <time>2015-01-04T09:39:59Z</time>
      </trkpt>
      <trkpt lat="48.6286" lon="-3.52942">
        <ele>78</ele>
        <time>2015-01-04T09:40:00Z</time>
      </trkpt>
      <trkpt lat="48.62865" lon="-3.5293">
        <ele>78</ele>
        <time>2015-01-04T09:40:01Z</time>
      </trkpt>
      <trkpt lat="48.6287" lon="-3.5292">
        <ele>78</ele>
        <time>2015-01-04T09:40:02Z</time>
      </trkpt>
      <trkpt lat="48.62877" lon="-3.52911">
        <ele>78</ele>
        <time>2015-01-04T09:40:03Z</time>
      </trkpt>
      <trkpt lat="48.62884" lon="-3.52904">
        <ele>78</ele>
        <time>2015-01-04T09:40:04Z</time>
      </trkpt>
      <trkpt lat="48.62892" lon="-3.52899">
        <ele>78</ele>
        <time>2015-01-04T09:40:05Z</time>
      </trkpt>
      <trkpt lat="48.629" lon="-3.52896">
        <ele>78</ele>
        <time>2015-01-04T09:40:06Z</time>
      </trkpt>
      <trkpt lat="48.62909" lon="-3.52894">
        <ele>78</ele>
        <time>2015-01-04T09:40:07Z</time>
      </trkpt>
      <trkpt lat="48.62917" lon="-3.52894">
        <ele>78</ele>
        <time>2015-01-04T09:40:08Z</time>
      </trkpt>
      <trkpt lat="48.62924" lon="-3.52895">
        <ele>78</ele>
        <time>2015-01-04T09:40:09Z</time>
      </trkpt>
      <trkpt lat="48.62932" lon="-3.52898">
        <ele>78</ele>
        <time>2015-01-04T09:40:10Z</time>
      </trkpt>
      <trkpt lat="48.62938" lon="-3.529">
        <ele>78</ele>
        <time>2015-01-04T09:40:11Z</time>
      </trkpt>
      <trkpt lat="48.62945" lon="-3.52903">
        <ele>78</ele>
        <time>2015-01-04T09:40:12Z</time>
      </trkpt>
      <trkpt lat="48.62951" lon="-3.52906">
        <ele>78</ele>
        <time>2015-01-04T09:40:13Z</time>
      </trkpt>
      <trkpt lat="48.62956" lon="-3.52909">
        <ele>78</ele>
        <time>2015-01-04T09:40:14Z</time>
      </trkpt>
      <trkpt lat="48.62962" lon="-3.52912">
        <ele>78</ele>
        <time>2015-01-04T09:40:15Z</time>
      </trkpt>
      <trkpt lat="48.62967" lon="-3.52915">
        <ele>78</ele>
        <time>2015-01-04T09:40:16Z</time>
      </trkpt>
      <trkpt lat="48.62973" lon="-3.52918">
        <ele>78</ele>
        <time>2015-01-04T09:40:17Z</time>
      </trkpt>
      <trkpt lat="48.62978" lon="-3.52921">
        <ele>78</ele>
        <time>2015-01-04T09:40:18Z</time>
      </trkpt>
      <trkpt lat="48.62982" lon="-3.52923">
        <ele>78</ele>
        <time>2015-01-04T09:40:19Z</time>
      </trkpt>
      <trkpt lat="48.62987" lon="-3.52925">
        <ele>78</ele>
        <time>2015-01-04T09:40:20Z</time>
      </trkpt>
      <trkpt lat="48.62991" lon="-3.52928">
        <ele>78</ele>
        <time>2015-01-04T09:40:21Z</time>
      </trkpt>
      <trkpt lat="48.62996" lon="-3.5293">
        <ele>78</ele>
        <time>2015-01-04T09:40:22Z</time>
      </trkpt>
      <trkpt lat="48.63001" lon="-3.52933">
        <ele>78</ele>
        <time>2015-01-04T09:40:23Z</time>
      </trkpt>
      <trkpt lat="48.63006" lon="-3.52935">
        <ele>78</ele>
        <time>2015-01-04T09:40:24Z</time>
      </trkpt>
      <trkpt lat="48.63011" lon="-3.52938">
        <ele>78</ele>
        <time>2015-01-04T09:40:25Z</time>
      </trkpt>
      <trkpt lat="48.63016" lon="-3.5294">
        <ele>78</ele>
        <time>2015-01-04T09:40:26Z</time>
      </trkpt>
      <trkpt lat="48.63021" lon="-3.52942">
        <ele>78</ele>
        <time>2015-01-04T09:40:27Z</time>
      </trkpt>
      <trkpt lat="48.63026" lon="-3.52944">
        <ele>78</ele>
        <time>2015-01-04T09:40:28Z</time>
      </trkpt>
      <trkpt lat="48.63031" lon="-3.52946">
        <ele>78</ele>
        <time>2015-01-04T09:40:29Z</time>
      </trkpt>
      <trkpt lat="48.63036" lon="-3.52948">
        <ele>78</ele>
        <time>2015-01-04T09:40:30Z</time>
      </trkpt>
      <trkpt lat="48.63042" lon="-3.5295">
        <ele>78</ele>
        <time>2015-01-04T09:40:31Z</time>
      </trkpt>
      <trkpt lat="48.63047" lon="-3.52951">
        <ele>78</ele>
        <time>2015-01-04T09:40:32Z</time>
      </trkpt>
      <trkpt lat="48.63052" lon="-3.52952">
        <ele>79</ele>
        <time>2015-01-04T09:40:33Z</time>
      </trkpt>
      <trkpt lat="48.63057" lon="-3.52953">
        <ele>79</ele>
        <time>2015-01-04T09:40:34Z</time>
      </trkpt>
      <trkpt lat="48.63062" lon="-3.52953">
        <ele>79</ele>
        <time>2015-01-04T09:40:35Z</time>
      </trkpt>
      <trkpt lat="48.63067" lon="-3.52954">
        <ele>80</ele>
        <time>2015-01-04T09:40:36Z</time>
      </trkpt>
      <trkpt lat="48.63072" lon="-3.52954">
        <ele>80</ele>
        <time>2015-01-04T09:40:37Z</time>
      </trkpt>
      <trkpt lat="48.63077" lon="-3.52954">
        <ele>80</ele>
        <time>2015-01-04T09:40:38Z</time>
      </trkpt>
      <trkpt lat="48.63082" lon="-3.52953">
        <ele>81</ele>
        <time>2015-01-04T09:40:39Z</time>
      </trkpt>
      <trkpt lat="48.63092" lon="-3.52953">
        <ele>82</ele>
        <time>2015-01-04T09:40:41Z</time>
      </trkpt>
      <trkpt lat="48.63097" lon="-3.52952">
        <ele>82</ele>
        <time>2015-01-04T09:40:42Z</time>
      </trkpt>
      <trkpt lat="48.63102" lon="-3.52952">
        <ele>82</ele>
        <time>2015-01-04T09:40:43Z</time>
      </trkpt>
      <trkpt lat="48.63106" lon="-3.52952">
        <ele>83</ele>
        <time>2015-01-04T09:40:44Z</time>
      </trkpt>
      <trkpt lat="48.63111" lon="-3.52951">
        <ele>83</ele>
        <time>2015-01-04T09:40:45Z</time>
      </trkpt>
      <trkpt lat="48.63115" lon="-3.52951">
        <ele>83</ele>
        <time>2015-01-04T09:40:46Z</time>
      </trkpt>
      <trkpt lat="48.6312" lon="-3.5295">
        <ele>83</ele>
        <time>2015-01-04T09:40:47Z</time>
      </trkpt>
      <trkpt lat="48.63124" lon="-3.5295">
        <ele>84</ele>
        <time>2015-01-04T09:40:48Z</time>
      </trkpt>
      <trkpt lat="48.63128" lon="-3.52949">
        <ele>84</ele>
        <time>2015-01-04T09:40:49Z</time>
      </trkpt>
      <trkpt lat="48.63137" lon="-3.5295">
        <ele>85</ele>
        <time>2015-01-04T09:40:51Z</time>
      </trkpt>
      <trkpt lat="48.63142" lon="-3.5295">
        <ele>85</ele>
        <time>2015-01-04T09:40:52Z</time>
      </trkpt>
      <trkpt lat="48.63146" lon="-3.52951">
        <ele>85</ele>
        <time>2015-01-04T09:40:53Z</time>
      </trkpt>
      <trkpt lat="48.63151" lon="-3.52952">
        <ele>85</ele>
        <time>2015-01-04T09:40:54Z</time>
      </trkpt>
      <trkpt lat="48.63156" lon="-3.52953">
        <ele>86</ele>
        <time>2015-01-04T09:40:55Z</time>
      </trkpt>
      <trkpt lat="48.63161" lon="-3.52955">
        <ele>86</ele>
        <time>2015-01-04T09:40:56Z</time>
      </trkpt>
      <trkpt lat="48.63166" lon="-3.52958">
        <ele>86</ele>
        <time>2015-01-04T09:40:57Z</time>
      </trkpt>
      <trkpt lat="48.63171" lon="-3.5296">
        <ele>87</ele>
        <time>2015-01-04T09:40:58Z</time>
      </trkpt>
      <trkpt lat="48.63176" lon="-3.52963">
        <ele>87</ele>
        <time>2015-01-04T09:40:59Z</time>
      </trkpt>
      <trkpt lat="48.63181" lon="-3.52965">
        <ele>87</ele>
        <time>2015-01-04T09:41:00Z</time>
      </trkpt>
      <trkpt lat="48.63186" lon="-3.52967">
        <ele>87</ele>
        <time>2015-01-04T09:41:01Z</time>
      </trkpt>
      <trkpt lat="48.63191" lon="-3.52969">
        <ele>88</ele>
        <time>2015-01-04T09:41:02Z</time>
      </trkpt>
      <trkpt lat="48.63196" lon="-3.52971">
        <ele>88</ele>
        <time>2015-01-04T09:41:03Z</time>
      </trkpt>
      <trkpt lat="48.63201" lon="-3.52973">
        <ele>88</ele>
        <time>2015-01-04T09:41:04Z</time>
      </trkpt>
      <trkpt lat="48.63207" lon="-3.52975">
        <ele>88</ele>
        <time>2015-01-04T09:41:05Z</time>
      </trkpt>
      <trkpt lat="48.63212" lon="-3.52976">
        <ele>89</ele>
        <time>2015-01-04T09:41:06Z</time>
      </trkpt>
      <trkpt lat="48.63218" lon="-3.52977">
        <ele>89</ele>
        <time>2015-01-04T09:41:07Z</time>
      </trkpt>
      <trkpt lat="48.63223" lon="-3.52977">
        <ele>89</ele>
        <time>2015-01-04T09:41:08Z</time>
      </trkpt>
      <trkpt lat="48.63228" lon="-3.52977">
        <ele>89</ele>
        <time>2015-01-04T09:41:09Z</time>
      </trkpt>
      <trkpt lat="48.63234" lon="-3.52976">
        <ele>89</ele>
        <time>2015-01-04T09:41:10Z</time>
      </trkpt>
      <trkpt lat="48.63239" lon="-3.52973">
        <ele>90</ele>
        <time>2015-01-04T09:41:11Z</time>
      </trkpt>
      <trkpt lat="48.63243" lon="-3.5297">
        <ele>90</ele>
        <time>2015-01-04T09:41:12Z</time>
      </trkpt>
      <trkpt lat="48.63248" lon="-3.52966">
        <ele>90</ele>
        <time>2015-01-04T09:41:13Z</time>
      </trkpt>
      <trkpt lat="48.63253" lon="-3.52962">
        <ele>90</ele>
        <time>2015-01-04T09:41:14Z</time>
      </trkpt>
      <trkpt lat="48.63257" lon="-3.52958">
        <ele>90</ele>
        <time>2015-01-04T09:41:15Z</time>
      </trkpt>
      <trkpt lat="48.63261" lon="-3.52953">
        <ele>90</ele>
        <time>2015-01-04T09:41:16Z</time>
      </trkpt>
      <trkpt lat="48.63265" lon="-3.52948">
        <ele>91</ele>
        <time>2015-01-04T09:41:17Z</time>
      </trkpt>
      <trkpt lat="48.63269" lon="-3.52943">
        <ele>91</ele>
        <time>2015-01-04T09:41:18Z</time>
      </trkpt>
      <trkpt lat="48.63273" lon="-3.52937">
        <ele>91</ele>
        <time>2015-01-04T09:41:19Z</time>
      </trkpt>
      <trkpt lat="48.63277" lon="-3.52932">
        <ele>91</ele>
        <time>2015-01-04T09:41:20Z</time>
      </trkpt>
      <trkpt lat="48.63281" lon="-3.52925">
        <ele>91</ele>
        <time>2015-01-04T09:41:21Z</time>
      </trkpt>
      <trkpt lat="48.63284" lon="-3.52919">
        <ele>92</ele>
        <time>2015-01-04T09:41:22Z</time>
      </trkpt>
      <trkpt lat="48.63288" lon="-3.52912">
        <ele>92</ele>
        <time>2015-01-04T09:41:23Z</time>
      </trkpt>
      <trkpt lat="48.63291" lon="-3.52904">
        <ele>92</ele>
        <time>2015-01-04T09:41:24Z</time>
      </trkpt>
      <trkpt lat="48.63294" lon="-3.52897">
        <ele>92</ele>
        <time>2015-01-04T09:41:25Z</time>
      </trkpt>
      <trkpt lat="48.63297" lon="-3.5289">
        <ele>92</ele>
        <time>2015-01-04T09:41:26Z</time>
      </trkpt>
      <trkpt lat="48.63299" lon="-3.52882">
        <ele>92</ele>
        <time>2015-01-04T09:41:27Z</time>
      </trkpt>
      <trkpt lat="48.63302" lon="-3.52875">
        <ele>92</ele>
        <time>2015-01-04T09:41:28Z</time>
      </trkpt>
      <trkpt lat="48.63305" lon="-3.52868">
        <ele>92</ele>
        <time>2015-01-04T09:41:29Z</time>
      </trkpt>
      <trkpt lat="48.63307" lon="-3.5286">
        <ele>93</ele>
        <time>2015-01-04T09:41:30Z</time>
      </trkpt>
      <trkpt lat="48.6331" lon="-3.52853">
        <ele>93</ele>
        <time>2015-01-04T09:41:31Z</time>
      </trkpt>
      <trkpt lat="48.63313" lon="-3.52846">
        <ele>93</ele>
        <time>2015-01-04T09:41:32Z</time>
      </trkpt>
      <trkpt lat="48.63315" lon="-3.52838">
        <ele>93</ele>
        <time>2015-01-04T09:41:33Z</time>
      </trkpt>
      <trkpt lat="48.63318" lon="-3.52831">
        <ele>93</ele>
        <time>2015-01-04T09:41:34Z</time>
      </trkpt>
      <trkpt lat="48.6332" lon="-3.52824">
        <ele>94</ele>
        <time>2015-01-04T09:41:35Z</time>
      </trkpt>
      <trkpt lat="48.63323" lon="-3.52817">
        <ele>94</ele>
        <time>2015-01-04T09:41:36Z</time>
      </trkpt>
      <trkpt lat="48.63326" lon="-3.5281">
        <ele>94</ele>
        <time>2015-01-04T09:41:37Z</time>
      </trkpt>
      <trkpt lat="48.63329" lon="-3.52803">
        <ele>94</ele>
        <time>2015-01-04T09:41:38Z</time>
      </trkpt>
      <trkpt lat="48.63331" lon="-3.52796">
        <ele>94</ele>
        <time>2015-01-04T09:41:39Z</time>
      </trkpt>
      <trkpt lat="48.63333" lon="-3.5279">
        <ele>95</ele>
        <time>2015-01-04T09:41:40Z</time>
      </trkpt>
      <trkpt lat="48.63335" lon="-3.52783">
        <ele>95</ele>
        <time>2015-01-04T09:41:41Z</time>
      </trkpt>
      <trkpt lat="48.63338" lon="-3.52776">
        <ele>95</ele>
        <time>2015-01-04T09:41:42Z</time>
      </trkpt>
      <trkpt lat="48.6334" lon="-3.52769">
        <ele>95</ele>
        <time>2015-01-04T09:41:43Z</time>
      </trkpt>
      <trkpt lat="48.63342" lon="-3.52761">
        <ele>95</ele>
        <time>2015-01-04T09:41:44Z</time>
      </trkpt>
      <trkpt lat="48.63344" lon="-3.52754">
        <ele>96</ele>
        <time>2015-01-04T09:41:45Z</time>
      </trkpt>
      <trkpt lat="48.63346" lon="-3.52746">
        <ele>96</ele>
        <time>2015-01-04T09:41:46Z</time>
      </trkpt>
      <trkpt lat="48.63348" lon="-3.52738">
        <ele>96</ele>
        <time>2015-01-04T09:41:47Z</time>
      </trkpt>
      <trkpt lat="48.6335" lon="-3.52731">
        <ele>97</ele>
        <time>2015-01-04T09:41:48Z</time>
      </trkpt>
      <trkpt lat="48.63351" lon="-3.52723">
        <ele>97</ele>
        <time>2015-01-04T09:41:49Z</time>
      </trkpt>
      <trkpt lat="48.63352" lon="-3.52716">
        <ele>97</ele>
        <time>2015-01-04T09:41:50Z</time>
      </trkpt>
      <trkpt lat="48.63353" lon="-3.52708">
        <ele>98</ele>
        <time>2015-01-04T09:41:51Z</time>
      </trkpt>
      <trkpt lat="48.63354" lon="-3.52701">
        <ele>98</ele>
        <time>2015-01-04T09:41:52Z</time>
      </trkpt>
      <trkpt lat="48.63355" lon="-3.52693">
        <ele>98</ele>
        <time>2015-01-04T09:41:53Z</time>
      </trkpt>
      <trkpt lat="48.63356" lon="-3.52686">
        <ele>98</ele>
        <time>2015-01-04T09:41:54Z</time>
      </trkpt>
      <trkpt lat="48.63357" lon="-3.52678">
        <ele>99</ele>
        <time>2015-01-04T09:41:55Z</time>
      </trkpt>
      <trkpt lat="48.63358" lon="-3.52671">
        <ele>99</ele>
        <time>2015-01-04T09:41:56Z</time>
      </trkpt>
      <trkpt lat="48.63359" lon="-3.52663">
        <ele>99</ele>
        <time>2015-01-04T09:41:57Z</time>
      </trkpt>
      <trkpt lat="48.6336" lon="-3.52655">
        <ele>100</ele>
        <time>2015-01-04T09:41:58Z</time>
      </trkpt>
      <trkpt lat="48.63361" lon="-3.52647">
        <ele>100</ele>
        <time>2015-01-04T09:41:59Z</time>
      </trkpt>
      <trkpt lat="48.63362" lon="-3.5264">
        <ele>100</ele>
        <time>2015-01-04T09:42:00Z</time>
      </trkpt>
      <trkpt lat="48.63363" lon="-3.52632">
        <ele>100</ele>
        <time>2015-01-04T09:42:01Z</time>
      </trkpt>
      <trkpt lat="48.63363" lon="-3.52625">
        <ele>101</ele>
        <time>2015-01-04T09:42:02Z</time>
      </trkpt>
      <trkpt lat="48.63364" lon="-3.52618">
        <ele>101</ele>
        <time>2015-01-04T09:42:03Z</time>
      </trkpt>
      <trkpt lat="48.63365" lon="-3.52611">
        <ele>101</ele>
        <time>2015-01-04T09:42:04Z</time>
      </trkpt>
      <trkpt lat="48.63366" lon="-3.52604">
        <ele>101</ele>
        <time>2015-01-04T09:42:05Z</time>
      </trkpt>
      <trkpt lat="48.63366" lon="-3.52597">
        <ele>102</ele>
        <time>2015-01-04T09:42:06Z</time>
      </trkpt>
      <trkpt lat="48.63367" lon="-3.5259">
        <ele>102</ele>
        <time>2015-01-04T09:42:07Z</time>
      </trkpt>
      <trkpt lat="48.63368" lon="-3.52583">
        <ele>102</ele>
        <time>2015-01-04T09:42:08Z</time>
      </trkpt>
      <trkpt lat="48.63369" lon="-3.52575">
        <ele>102</ele>
        <time>2015-01-04T09:42:09Z</time>
      </trkpt>
      <trkpt lat="48.63369" lon="-3.52568">
        <ele>102</ele>
        <time>2015-01-04T09:42:10Z</time>
      </trkpt>
      <trkpt lat="48.6337" lon="-3.52561">
        <ele>102</ele>
        <time>2015-01-04T09:42:11Z</time>
      </trkpt>
      <trkpt lat="48.63371" lon="-3.52554">
        <ele>102</ele>
        <time>2015-01-04T09:42:12Z</time>
      </trkpt>
      <trkpt lat="48.63371" lon="-3.52546">
        <ele>102</ele>
        <time>2015-01-04T09:42:13Z</time>
      </trkpt>
      <trkpt lat="48.63372" lon="-3.52538">
        <ele>102</ele>
        <time>2015-01-04T09:42:14Z</time>
      </trkpt>
      <trkpt lat="48.63373" lon="-3.52531">
        <ele>102</ele>
        <time>2015-01-04T09:42:15Z</time>
      </trkpt>
      <trkpt lat="48.63374" lon="-3.52524">
        <ele>102</ele>
        <time>2015-01-04T09:42:16Z</time>
      </trkpt>
      <trkpt lat="48.63376" lon="-3.52517">
        <ele>102</ele>
        <time>2015-01-04T09:42:17Z</time>
      </trkpt>
      <trkpt lat="48.63377" lon="-3.52509">
        <ele>103</ele>
        <time>2015-01-04T09:42:18Z</time>
      </trkpt>
      <trkpt lat="48.63377" lon="-3.52501">
        <ele>103</ele>
        <time>2015-01-04T09:42:19Z</time>
      </trkpt>
      <trkpt lat="48.63379" lon="-3.52494">
        <ele>103</ele>
        <time>2015-01-04T09:42:20Z</time>
      </trkpt>
      <trkpt lat="48.6338" lon="-3.52486">
        <ele>103</ele>
        <time>2015-01-04T09:42:21Z</time>
      </trkpt>
      <trkpt lat="48.63381" lon="-3.52478">
        <ele>103</ele>
        <time>2015-01-04T09:42:22Z</time>
      </trkpt>
      <trkpt lat="48.63382" lon="-3.5247">
        <ele>103</ele>
        <time>2015-01-04T09:42:23Z</time>
      </trkpt>
      <trkpt lat="48.63383" lon="-3.52463">
        <ele>103</ele>
        <time>2015-01-04T09:42:24Z</time>
      </trkpt>
      <trkpt lat="48.63385" lon="-3.52455">
        <ele>103</ele>
        <time>2015-01-04T09:42:25Z</time>
      </trkpt>
      <trkpt lat="48.63386" lon="-3.52447">
        <ele>103</ele>
        <time>2015-01-04T09:42:26Z</time>
      </trkpt>
      <trkpt lat="48.63388" lon="-3.52439">
        <ele>103</ele>
        <time>2015-01-04T09:42:27Z</time>
      </trkpt>
      <trkpt lat="48.6339" lon="-3.52431">
        <ele>103</ele>
        <time>2015-01-04T09:42:28Z</time>
      </trkpt>
      <trkpt lat="48.63391" lon="-3.52423">
        <ele>104</ele>
        <time>2015-01-04T09:42:29Z</time>
      </trkpt>
      <trkpt lat="48.63393" lon="-3.52414">
        <ele>104</ele>
        <time>2015-01-04T09:42:30Z</time>
      </trkpt>
      <trkpt lat="48.63394" lon="-3.52407">
        <ele>104</ele>
        <time>2015-01-04T09:42:31Z</time>
      </trkpt>
      <trkpt lat="48.63396" lon="-3.52398">
        <ele>104</ele>
        <time>2015-01-04T09:42:32Z</time>
      </trkpt>
      <trkpt lat="48.63397" lon="-3.52391">
        <ele>104</ele>
        <time>2015-01-04T09:42:33Z</time>
      </trkpt>
      <trkpt lat="48.63399" lon="-3.52383">
        <ele>104</ele>
        <time>2015-01-04T09:42:34Z</time>
      </trkpt>
      <trkpt lat="48.634" lon="-3.52375">
        <ele>104</ele>
        <time>2015-01-04T09:42:35Z</time>
      </trkpt>
      <trkpt lat="48.63402" lon="-3.52366">
        <ele>104</ele>
        <time>2015-01-04T09:42:36Z</time>
      </trkpt>
      <trkpt lat="48.63403" lon="-3.52358">
        <ele>104</ele>
        <time>2015-01-04T09:42:37Z</time>
      </trkpt>
      <trkpt lat="48.63405" lon="-3.52349">
        <ele>104</ele>
        <time>2015-01-04T09:42:38Z</time>
      </trkpt>
      <trkpt lat="48.63407" lon="-3.52341">
        <ele>104</ele>
        <time>2015-01-04T09:42:39Z</time>
      </trkpt>
      <trkpt lat="48.63408" lon="-3.52333">
        <ele>104</ele>
        <time>2015-01-04T09:42:40Z</time>
      </trkpt>
      <trkpt lat="48.6341" lon="-3.52325">
        <ele>104</ele>
        <time>2015-01-04T09:42:41Z</time>
      </trkpt>
      <trkpt lat="48.63411" lon="-3.52317">
        <ele>104</ele>
        <time>2015-01-04T09:42:42Z</time>
      </trkpt>
      <trkpt lat="48.63412" lon="-3.52309">
        <ele>104</ele>
        <time>2015-01-04T09:42:43Z</time>
      </trkpt>
      <trkpt lat="48.63414" lon="-3.52301">
        <ele>104</ele>
        <time>2015-01-04T09:42:44Z</time>
      </trkpt>
      <trkpt lat="48.63416" lon="-3.52294">
        <ele>104</ele>
        <time>2015-01-04T09:42:45Z</time>
      </trkpt>
      <trkpt lat="48.63418" lon="-3.52286">
        <ele>104</ele>
        <time>2015-01-04T09:42:46Z</time>
      </trkpt>
      <trkpt lat="48.63421" lon="-3.52279">
        <ele>104</ele>
        <time>2015-01-04T09:42:47Z</time>
      </trkpt>
      <trkpt lat="48.63424" lon="-3.52272">
        <ele>104</ele>
        <time>2015-01-04T09:42:48Z</time>
      </trkpt>
      <trkpt lat="48.63427" lon="-3.52265">
        <ele>104</ele>
        <time>2015-01-04T09:42:49Z</time>
      </trkpt>
      <trkpt lat="48.6343" lon="-3.52258">
        <ele>104</ele>
        <time>2015-01-04T09:42:50Z</time>
      </trkpt>
      <trkpt lat="48.63434" lon="-3.52252">
        <ele>104</ele>
        <time>2015-01-04T09:42:51Z</time>
      </trkpt>
      <trkpt lat="48.63439" lon="-3.52246">
        <ele>104</ele>
        <time>2015-01-04T09:42:52Z</time>
      </trkpt>
      <trkpt lat="48.63443" lon="-3.5224">
        <ele>104</ele>
        <time>2015-01-04T09:42:53Z</time>
      </trkpt>
      <trkpt lat="48.63448" lon="-3.52235">
        <ele>104</ele>
        <time>2015-01-04T09:42:54Z</time>
      </trkpt>
      <trkpt lat="48.63454" lon="-3.52231">
        <ele>104</ele>
        <time>2015-01-04T09:42:55Z</time>
      </trkpt>
      <trkpt lat="48.63459" lon="-3.52228">
        <ele>104</ele>
        <time>2015-01-04T09:42:56Z</time>
      </trkpt>
      <trkpt lat="48.63465" lon="-3.52224">
        <ele>104</ele>
        <time>2015-01-04T09:42:57Z</time>
      </trkpt>
      <trkpt lat="48.63471" lon="-3.52221">
        <ele>104</ele>
        <time>2015-01-04T09:42:58Z</time>
      </trkpt>
      <trkpt lat="48.63476" lon="-3.52219">
        <ele>104</ele>
        <time>2015-01-04T09:42:59Z</time>
      </trkpt>
      <trkpt lat="48.63481" lon="-3.52216">
        <ele>104</ele>
        <time>2015-01-04T09:43:00Z</time>
      </trkpt>
      <trkpt lat="48.63487" lon="-3.52214">
        <ele>104</ele>
        <time>2015-01-04T09:43:01Z</time>
      </trkpt>
      <trkpt lat="48.63492" lon="-3.52212">
        <ele>104</ele>
        <time>2015-01-04T09:43:02Z</time>
      </trkpt>
      <trkpt lat="48.63497" lon="-3.5221">
        <ele>104</ele>
        <time>2015-01-04T09:43:03Z</time>
      </trkpt>
      <trkpt lat="48.63501" lon="-3.52208">
        <ele>104</ele>
        <time>2015-01-04T09:43:04Z</time>
      </trkpt>
      <trkpt lat="48.63506" lon="-3.52205">
        <ele>104</ele>
        <time>2015-01-04T09:43:05Z</time>
      </trkpt>
      <trkpt lat="48.63511" lon="-3.52203">
        <ele>104</ele>
        <time>2015-01-04T09:43:06Z</time>
      </trkpt>
      <trkpt lat="48.63516" lon="-3.52201">
        <ele>104</ele>
        <time>2015-01-04T09:43:07Z</time>
      </trkpt>
      <trkpt lat="48.63521" lon="-3.52199">
        <ele>104</ele>
        <time>2015-01-04T09:43:08Z</time>
      </trkpt>
      <trkpt lat="48.63527" lon="-3.52196">
        <ele>104</ele>
        <time>2015-01-04T09:43:09Z</time>
      </trkpt>
      <trkpt lat="48.63532" lon="-3.52194">
        <ele>104</ele>
        <time>2015-01-04T09:43:10Z</time>
      </trkpt>
      <trkpt lat="48.63537" lon="-3.52192">
        <ele>104</ele>
        <time>2015-01-04T09:43:11Z</time>
      </trkpt>
      <trkpt lat="48.63542" lon="-3.52189">
        <ele>104</ele>
        <time>2015-01-04T09:43:12Z</time>
      </trkpt>
      <trkpt lat="48.63547" lon="-3.52186">
        <ele>104</ele>
        <time>2015-01-04T09:43:13Z</time>
      </trkpt>
      <trkpt lat="48.63552" lon="-3.52183">
        <ele>104</ele>
        <time>2015-01-04T09:43:14Z</time>
      </trkpt>
      <trkpt lat="48.63557" lon="-3.5218">
        <ele>104</ele>
        <time>2015-01-04T09:43:15Z</time>
      </trkpt>
      <trkpt lat="48.63562" lon="-3.52177">
        <ele>104</ele>
        <time>2015-01-04T09:43:16Z</time>
      </trkpt>
      <trkpt lat="48.63567" lon="-3.52174">
        <ele>104</ele>
        <time>2015-01-04T09:43:17Z</time>
      </trkpt>
      <trkpt lat="48.63572" lon="-3.52169">
        <ele>104</ele>
        <time>2015-01-04T09:43:18Z</time>
      </trkpt>
      <trkpt lat="48.63577" lon="-3.52165">
        <ele>104</ele>
        <time>2015-01-04T09:43:19Z</time>
      </trkpt>
      <trkpt lat="48.63582" lon="-3.52161">
        <ele>104</ele>
        <time>2015-01-04T09:43:20Z</time>
      </trkpt>
      <trkpt lat="48.63588" lon="-3.52156">
        <ele>104</ele>
        <time>2015-01-04T09:43:21Z</time>
      </trkpt>
      <trkpt lat="48.63593" lon="-3.52151">
        <ele>104</ele>
        <time>2015-01-04T09:43:22Z</time>
      </trkpt>
      <trkpt lat="48.63598" lon="-3.52146">
        <ele>104</ele>
        <time>2015-01-04T09:43:23Z</time>
      </trkpt>
      <trkpt lat="48.63604" lon="-3.52141">
        <ele>104</ele>
        <time>2015-01-04T09:43:24Z</time>
      </trkpt>
      <trkpt lat="48.6361" lon="-3.52136">
        <ele>104</ele>
        <time>2015-01-04T09:43:25Z</time>
      </trkpt>
      <trkpt lat="48.63615" lon="-3.52131">
        <ele>104</ele>
        <time>2015-01-04T09:43:26Z</time>
      </trkpt>
      <trkpt lat="48.63621" lon="-3.52126">
        <ele>104</ele>
        <time>2015-01-04T09:43:27Z</time>
      </trkpt>
      <trkpt lat="48.63627" lon="-3.52121">
        <ele>104</ele>
        <time>2015-01-04T09:43:28Z</time>
      </trkpt>
      <trkpt lat="48.63633" lon="-3.52116">
        <ele>104</ele>
        <time>2015-01-04T09:43:29Z</time>
      </trkpt>
      <trkpt lat="48.63639" lon="-3.52111">
        <ele>104</ele>
        <time>2015-01-04T09:43:30Z</time>
      </trkpt>
      <trkpt lat="48.63645" lon="-3.52106">
        <ele>104</ele>
        <time>2015-01-04T09:43:31Z</time>
      </trkpt>
      <trkpt lat="48.63652" lon="-3.521">
        <ele>104</ele>
        <time>2015-01-04T09:43:32Z</time>
      </trkpt>
      <trkpt lat="48.63659" lon="-3.52095">
        <ele>104</ele>
        <time>2015-01-04T09:43:33Z</time>
      </trkpt>
      <trkpt lat="48.63665" lon="-3.52089">
        <ele>104</ele>
        <time>2015-01-04T09:43:34Z</time>
      </trkpt>
      <trkpt lat="48.63673" lon="-3.52083">
        <ele>104</ele>
        <time>2015-01-04T09:43:35Z</time>
      </trkpt>
      <trkpt lat="48.6368" lon="-3.52078">
        <ele>104</ele>
        <time>2015-01-04T09:43:36Z</time>
      </trkpt>
      <trkpt lat="48.63688" lon="-3.52072">
        <ele>104</ele>
        <time>2015-01-04T09:43:37Z</time>
      </trkpt>
      <trkpt lat="48.63695" lon="-3.52065">
        <ele>103</ele>
        <time>2015-01-04T09:43:38Z</time>
      </trkpt>
      <trkpt lat="48.63703" lon="-3.52059">
        <ele>103</ele>
        <time>2015-01-04T09:43:39Z</time>
      </trkpt>
      <trkpt lat="48.63711" lon="-3.52053">
        <ele>103</ele>
        <time>2015-01-04T09:43:40Z</time>
      </trkpt>
      <trkpt lat="48.63718" lon="-3.52047">
        <ele>103</ele>
        <time>2015-01-04T09:43:41Z</time>
      </trkpt>
      <trkpt lat="48.63726" lon="-3.52042">
        <ele>103</ele>
        <time>2015-01-04T09:43:42Z</time>
      </trkpt>
      <trkpt lat="48.63733" lon="-3.52038">
        <ele>103</ele>
        <time>2015-01-04T09:43:43Z</time>
      </trkpt>
      <trkpt lat="48.6374" lon="-3.52035">
        <ele>103</ele>
        <time>2015-01-04T09:43:44Z</time>
      </trkpt>
      <trkpt lat="48.63747" lon="-3.52032">
        <ele>103</ele>
        <time>2015-01-04T09:43:45Z</time>
      </trkpt>
      <trkpt lat="48.63754" lon="-3.5203">
        <ele>103</ele>
        <time>2015-01-04T09:43:46Z</time>
      </trkpt>
      <trkpt lat="48.63761" lon="-3.52029">
        <ele>103</ele>
        <time>2015-01-04T09:43:47Z</time>
      </trkpt>
      <trkpt lat="48.63767" lon="-3.52028">
        <ele>103</ele>
        <time>2015-01-04T09:43:48Z</time>
      </trkpt>
      <trkpt lat="48.63777" lon="-3.52028">
        <ele>103</ele>
        <time>2015-01-04T09:43:50Z</time>
      </trkpt>
      <trkpt lat="48.63781" lon="-3.52028">
        <ele>103</ele>
        <time>2015-01-04T09:43:51Z</time>
      </trkpt>
      <trkpt lat="48.63785" lon="-3.52028">
        <ele>103</ele>
        <time>2015-01-04T09:43:52Z</time>
      </trkpt>
      <trkpt lat="48.63789" lon="-3.52027">
        <ele>103</ele>
        <time>2015-01-04T09:43:53Z</time>
      </trkpt>
      <trkpt lat="48.63794" lon="-3.52028">
        <ele>103</ele>
        <time>2015-01-04T09:43:54Z</time>
      </trkpt>
      <trkpt lat="48.63798" lon="-3.52028">
        <ele>103</ele>
        <time>2015-01-04T09:43:55Z</time>
      </trkpt>
      <trkpt lat="48.63802" lon="-3.52028">
        <ele>103</ele>
        <time>2015-01-04T09:43:56Z</time>
      </trkpt>
      <trkpt lat="48.63806" lon="-3.52029">
        <ele>103</ele>
        <time>2015-01-04T09:43:57Z</time>
      </trkpt>
      <trkpt lat="48.63811" lon="-3.5203">
        <ele>103</ele>
        <time>2015-01-04T09:43:58Z</time>
      </trkpt>
      <trkpt lat="48.63816" lon="-3.5203">
        <ele>103</ele>
        <time>2015-01-04T09:43:59Z</time>
      </trkpt>
      <trkpt lat="48.6382" lon="-3.52031">
        <ele>103</ele>
        <time>2015-01-04T09:44:00Z</time>
      </trkpt>
      <trkpt lat="48.63825" lon="-3.52033">
        <ele>103</ele>
        <time>2015-01-04T09:44:01Z</time>
      </trkpt>
      <trkpt lat="48.6383" lon="-3.52034">
        <ele>103</ele>
        <time>2015-01-04T09:44:02Z</time>
      </trkpt>
      <trkpt lat="48.63835" lon="-3.52035">
        <ele>103</ele>
        <time>2015-01-04T09:44:03Z</time>
      </trkpt>
      <trkpt lat="48.6384" lon="-3.52035">
        <ele>103</ele>
        <time>2015-01-04T09:44:04Z</time>
      </trkpt>
      <trkpt lat="48.63845" lon="-3.52036">
        <ele>103</ele>
        <time>2015-01-04T09:44:05Z</time>
      </trkpt>
      <trkpt lat="48.6385" lon="-3.52038">
        <ele>104</ele>
        <time>2015-01-04T09:44:06Z</time>
      </trkpt>
      <trkpt lat="48.63855" lon="-3.52039">
        <ele>104</ele>
        <time>2015-01-04T09:44:07Z</time>
      </trkpt>
      <trkpt lat="48.63859" lon="-3.52041">
        <ele>104</ele>
        <time>2015-01-04T09:44:08Z</time>
      </trkpt>
      <trkpt lat="48.63864" lon="-3.52042">
        <ele>104</ele>
        <time>2015-01-04T09:44:09Z</time>
      </trkpt>
      <trkpt lat="48.63869" lon="-3.52043">
        <ele>104</ele>
        <time>2015-01-04T09:44:10Z</time>
      </trkpt>
      <trkpt lat="48.63874" lon="-3.52044">
        <ele>104</ele>
        <time>2015-01-04T09:44:11Z</time>
      </trkpt>
      <trkpt lat="48.63879" lon="-3.52046">
        <ele>104</ele>
        <time>2015-01-04T09:44:12Z</time>
      </trkpt>
      <trkpt lat="48.63884" lon="-3.52047">
        <ele>104</ele>
        <time>2015-01-04T09:44:13Z</time>
      </trkpt>
      <trkpt lat="48.63889" lon="-3.52048">
        <ele>104</ele>
        <time>2015-01-04T09:44:14Z</time>
      </trkpt>
      <trkpt lat="48.63895" lon="-3.5205">
        <ele>104</ele>
        <time>2015-01-04T09:44:15Z</time>
      </trkpt>
      <trkpt lat="48.63901" lon="-3.52051">
        <ele>104</ele>
        <time>2015-01-04T09:44:16Z</time>
      </trkpt>
      <trkpt lat="48.63907" lon="-3.52053">
        <ele>104</ele>
        <time>2015-01-04T09:44:17Z</time>
      </trkpt>
      <trkpt lat="48.63913" lon="-3.52054">
        <ele>104</ele>
        <time>2015-01-04T09:44:18Z</time>
      </trkpt>
      <trkpt lat="48.63919" lon="-3.52055">
        <ele>104</ele>
        <time>2015-01-04T09:44:19Z</time>
      </trkpt>
      <trkpt lat="48.63924" lon="-3.52056">
        <ele>104</ele>
        <time>2015-01-04T09:44:20Z</time>
      </trkpt>
      <trkpt lat="48.6393" lon="-3.52057">
        <ele>104</ele>
        <time>2015-01-04T09:44:21Z</time>
      </trkpt>
      <trkpt lat="48.63935" lon="-3.52058">
        <ele>104</ele>
        <time>2015-01-04T09:44:22Z</time>
      </trkpt>
      <trkpt lat="48.63941" lon="-3.52059">
        <ele>104</ele>
        <time>2015-01-04T09:44:23Z</time>
      </trkpt>
      <trkpt lat="48.63946" lon="-3.5206">
        <ele>104</ele>
        <time>2015-01-04T09:44:24Z</time>
      </trkpt>
      <trkpt lat="48.63952" lon="-3.52061">
        <ele>104</ele>
        <time>2015-01-04T09:44:25Z</time>
      </trkpt>
      <trkpt lat="48.63957" lon="-3.52062">
        <ele>104</ele>
        <time>2015-01-04T09:44:26Z</time>
      </trkpt>
      <trkpt lat="48.63963" lon="-3.52063">
        <ele>104</ele>
        <time>2015-01-04T09:44:27Z</time>
      </trkpt>
      <trkpt lat="48.63968" lon="-3.52063">
        <ele>104</ele>
        <time>2015-01-04T09:44:28Z</time>
      </trkpt>
      <trkpt lat="48.63974" lon="-3.52064">
        <ele>104</ele>
        <time>2015-01-04T09:44:29Z</time>
      </trkpt>
      <trkpt lat="48.63979" lon="-3.52066">
        <ele>104</ele>
        <time>2015-01-04T09:44:30Z</time>
      </trkpt>
      <trkpt lat="48.63985" lon="-3.52067">
        <ele>104</ele>
        <time>2015-01-04T09:44:31Z</time>
      </trkpt>
      <trkpt lat="48.6399" lon="-3.52068">
        <ele>104</ele>
        <time>2015-01-04T09:44:32Z</time>
      </trkpt>
      <trkpt lat="48.63995" lon="-3.52069">
        <ele>105</ele>
        <time>2015-01-04T09:44:33Z</time>
      </trkpt>
      <trkpt lat="48.64" lon="-3.5207">
        <ele>105</ele>
        <time>2015-01-04T09:44:34Z</time>
      </trkpt>
      <trkpt lat="48.64006" lon="-3.52071">
        <ele>105</ele>
        <time>2015-01-04T09:44:35Z</time>
      </trkpt>
      <trkpt lat="48.64011" lon="-3.52071">
        <ele>105</ele>
        <time>2015-01-04T09:44:36Z</time>
      </trkpt>
      <trkpt lat="48.64016" lon="-3.52072">
        <ele>105</ele>
        <time>2015-01-04T09:44:37Z</time>
      </trkpt>
      <trkpt lat="48.64021" lon="-3.52072">
        <ele>105</ele>
        <time>2015-01-04T09:44:38Z</time>
      </trkpt>
      <trkpt lat="48.64026" lon="-3.52073">
        <ele>105</ele>
        <time>2015-01-04T09:44:39Z</time>
      </trkpt>
      <trkpt lat="48.64031" lon="-3.52073">
        <ele>105</ele>
        <time>2015-01-04T09:44:40Z</time>
      </trkpt>
      <trkpt lat="48.64041" lon="-3.52073">
        <ele>106</ele>
        <time>2015-01-04T09:44:42Z</time>
      </trkpt>
      <trkpt lat="48.64046" lon="-3.52073">
        <ele>106</ele>
        <time>2015-01-04T09:44:43Z</time>
      </trkpt>
      <trkpt lat="48.64051" lon="-3.52072">
        <ele>106</ele>
        <time>2015-01-04T09:44:44Z</time>
      </trkpt>
      <trkpt lat="48.64056" lon="-3.52072">
        <ele>107</ele>
        <time>2015-01-04T09:44:45Z</time>
      </trkpt>
      <trkpt lat="48.64066" lon="-3.52072">
        <ele>107</ele>
        <time>2015-01-04T09:44:47Z</time>
      </trkpt>
      <trkpt lat="48.64071" lon="-3.52072">
        <ele>108</ele>
        <time>2015-01-04T09:44:48Z</time>
      </trkpt>
      <trkpt lat="48.64075" lon="-3.52073">
        <ele>108</ele>
        <time>2015-01-04T09:44:49Z</time>
      </trkpt>
      <trkpt lat="48.6408" lon="-3.52073">
        <ele>108</ele>
        <time>2015-01-04T09:44:50Z</time>
      </trkpt>
      <trkpt lat="48.64085" lon="-3.52074">
        <ele>109</ele>
        <time>2015-01-04T09:44:51Z</time>
      </trkpt>
      <trkpt lat="48.6409" lon="-3.52074">
        <ele>109</ele>
        <time>2015-01-04T09:44:52Z</time>
      </trkpt>
      <trkpt lat="48.64095" lon="-3.52074">
        <ele>109</ele>
        <time>2015-01-04T09:44:53Z</time>
      </trkpt>
      <trkpt lat="48.641" lon="-3.52074">
        <ele>110</ele>
        <time>2015-01-04T09:44:54Z</time>
      </trkpt>
      <trkpt lat="48.64104" lon="-3.52075">
        <ele>110</ele>
        <time>2015-01-04T09:44:55Z</time>
      </trkpt>
      <trkpt lat="48.64109" lon="-3.52075">
        <ele>110</ele>
        <time>2015-01-04T09:44:56Z</time>
      </trkpt>
      <trkpt lat="48.64113" lon="-3.52075">
        <ele>111</ele>
        <time>2015-01-04T09:44:57Z</time>
      </trkpt>
      <trkpt lat="48.64118" lon="-3.52076">
        <ele>111</ele>
        <time>2015-01-04T09:44:58Z</time>
      </trkpt>
      <trkpt lat="48.64123" lon="-3.52076">
        <ele>111</ele>
        <time>2015-01-04T09:44:59Z</time>
      </trkpt>
      <trkpt lat="48.64128" lon="-3.52076">
        <ele>111</ele>
        <time>2015-01-04T09:45:00Z</time>
      </trkpt>
      <trkpt lat="48.64133" lon="-3.52077">
        <ele>112</ele>
        <time>2015-01-04T09:45:01Z</time>
      </trkpt>
      <trkpt lat="48.64138" lon="-3.52077">
        <ele>112</ele>
        <time>2015-01-04T09:45:02Z</time>
      </trkpt>
      <trkpt lat="48.64154" lon="-3.52077">
        <ele>112</ele>
        <time>2015-01-04T09:45:05Z</time>
      </trkpt>
      <trkpt lat="48.64159" lon="-3.52077">
        <ele>112</ele>
        <time>2015-01-04T09:45:06Z</time>
      </trkpt>
      <trkpt lat="48.64176" lon="-3.52077">
        <ele>113</ele>
        <time>2015-01-04T09:45:09Z</time>
      </trkpt>
      <trkpt lat="48.64181" lon="-3.52077">
        <ele>113</ele>
        <time>2015-01-04T09:45:10Z</time>
      </trkpt>
      <trkpt lat="48.64186" lon="-3.52078">
        <ele>113</ele>
        <time>2015-01-04T09:45:11Z</time>
      </trkpt>
      <trkpt lat="48.64191" lon="-3.52079">
        <ele>113</ele>
        <time>2015-01-04T09:45:12Z</time>
      </trkpt>
      <trkpt lat="48.64196" lon="-3.5208">
        <ele>114</ele>
        <time>2015-01-04T09:45:13Z</time>
      </trkpt>
      <trkpt lat="48.642" lon="-3.52081">
        <ele>114</ele>
        <time>2015-01-04T09:45:14Z</time>
      </trkpt>
      <trkpt lat="48.64204" lon="-3.52081">
        <ele>114</ele>
        <time>2015-01-04T09:45:15Z</time>
      </trkpt>
      <trkpt lat="48.64209" lon="-3.52083">
        <ele>114</ele>
        <time>2015-01-04T09:45:16Z</time>
      </trkpt>
      <trkpt lat="48.64213" lon="-3.52084">
        <ele>115</ele>
        <time>2015-01-04T09:45:17Z</time>
      </trkpt>
      <trkpt lat="48.64217" lon="-3.52086">
        <ele>115</ele>
        <time>2015-01-04T09:45:18Z</time>
      </trkpt>
      <trkpt lat="48.64222" lon="-3.52088">
        <ele>115</ele>
        <time>2015-01-04T09:45:19Z</time>
      </trkpt>
      <trkpt lat="48.64226" lon="-3.5209">
        <ele>115</ele>
        <time>2015-01-04T09:45:20Z</time>
      </trkpt>
      <trkpt lat="48.6423" lon="-3.52092">
        <ele>116</ele>
        <time>2015-01-04T09:45:21Z</time>
      </trkpt>
      <trkpt lat="48.64235" lon="-3.52094">
        <ele>116</ele>
        <time>2015-01-04T09:45:22Z</time>
      </trkpt>
      <trkpt lat="48.64239" lon="-3.52097">
        <ele>116</ele>
        <time>2015-01-04T09:45:23Z</time>
      </trkpt>
      <trkpt lat="48.64243" lon="-3.52099">
        <ele>116</ele>
        <time>2015-01-04T09:45:24Z</time>
      </trkpt>
      <trkpt lat="48.64247" lon="-3.52101">
        <ele>116</ele>
        <time>2015-01-04T09:45:25Z</time>
      </trkpt>
      <trkpt lat="48.64251" lon="-3.52103">
        <ele>116</ele>
        <time>2015-01-04T09:45:26Z</time>
      </trkpt>
      <trkpt lat="48.64256" lon="-3.52106">
        <ele>116</ele>
        <time>2015-01-04T09:45:27Z</time>
      </trkpt>
      <trkpt lat="48.6426" lon="-3.52109">
        <ele>116</ele>
        <time>2015-01-04T09:45:28Z</time>
      </trkpt>
      <trkpt lat="48.64265" lon="-3.52111">
        <ele>116</ele>
        <time>2015-01-04T09:45:29Z</time>
      </trkpt>
      <trkpt lat="48.6427" lon="-3.52115">
        <ele>116</ele>
        <time>2015-01-04T09:45:30Z</time>
      </trkpt>
      <trkpt lat="48.64275" lon="-3.52118">
        <ele>116</ele>
        <time>2015-01-04T09:45:31Z</time>
      </trkpt>
      <trkpt lat="48.6428" lon="-3.52121">
        <ele>116</ele>
        <time>2015-01-04T09:45:32Z</time>
      </trkpt>
      <trkpt lat="48.64285" lon="-3.52124">
        <ele>116</ele>
        <time>2015-01-04T09:45:33Z</time>
      </trkpt>
      <trkpt lat="48.64289" lon="-3.52127">
        <ele>116</ele>
        <time>2015-01-04T09:45:34Z</time>
      </trkpt>
      <trkpt lat="48.64294" lon="-3.5213">
        <ele>116</ele>
        <time>2015-01-04T09:45:35Z</time>
      </trkpt>
      <trkpt lat="48.64299" lon="-3.52133">
        <ele>116</ele>
        <time>2015-01-04T09:45:36Z</time>
      </trkpt>
      <trkpt lat="48.64303" lon="-3.52137">
        <ele>116</ele>
        <time>2015-01-04T09:45:37Z</time>
      </trkpt>
      <trkpt lat="48.64308" lon="-3.52141">
        <ele>116</ele>
        <time>2015-01-04T09:45:38Z</time>
      </trkpt>
      <trkpt lat="48.64312" lon="-3.52145">
        <ele>116</ele>
        <time>2015-01-04T09:45:39Z</time>
      </trkpt>
      <trkpt lat="48.64316" lon="-3.52148">
        <ele>116</ele>
        <time>2015-01-04T09:45:40Z</time>
      </trkpt>
      <trkpt lat="48.6432" lon="-3.52151">
        <ele>116</ele>
        <time>2015-01-04T09:45:41Z</time>
      </trkpt>
      <trkpt lat="48.64323" lon="-3.52154">
        <ele>116</ele>
        <time>2015-01-04T09:45:42Z</time>
      </trkpt>
      <trkpt lat="48.64327" lon="-3.52157">
        <ele>116</ele>
        <time>2015-01-04T09:45:43Z</time>
      </trkpt>
      <trkpt lat="48.64331" lon="-3.5216">
        <ele>116</ele>
        <time>2015-01-04T09:45:44Z</time>
      </trkpt>
      <trkpt lat="48.64333" lon="-3.52162">
        <ele>116</ele>
        <time>2015-01-04T09:45:45Z</time>
      </trkpt>
      <trkpt lat="48.64336" lon="-3.52163">
        <ele>116</ele>
        <time>2015-01-04T09:45:46Z</time>
      </trkpt>
      <trkpt lat="48.64339" lon="-3.52165">
        <ele>116</ele>
        <time>2015-01-04T09:45:47Z</time>
      </trkpt>
      <trkpt lat="48.64341" lon="-3.52166">
        <ele>116</ele>
        <time>2015-01-04T09:45:48Z</time>
      </trkpt>
      <trkpt lat="48.64344" lon="-3.52166">
        <ele>116</ele>
        <time>2015-01-04T09:45:49Z</time>
      </trkpt>
      <trkpt lat="48.64345" lon="-3.52167">
        <ele>116</ele>
        <time>2015-01-04T09:45:50Z</time>
      </trkpt>
      <trkpt lat="48.64347" lon="-3.52168">
        <ele>116</ele>
        <time>2015-01-04T09:46:55Z</time>
      </trkpt>
      <trkpt lat="48.64349" lon="-3.52172">
        <ele>116</ele>
        <time>2015-01-04T09:46:57Z</time>
      </trkpt>
      <trkpt lat="48.64351" lon="-3.52175">
        <ele>116</ele>
        <time>2015-01-04T09:46:58Z</time>
      </trkpt>
      <trkpt lat="48.64353" lon="-3.52177">
        <ele>116</ele>
        <time>2015-01-04T09:46:59Z</time>
      </trkpt>
      <trkpt lat="48.64355" lon="-3.52178">
        <ele>116</ele>
        <time>2015-01-04T09:47:00Z</time>
      </trkpt>
      <trkpt lat="48.64358" lon="-3.5218">
        <ele>116</ele>
        <time>2015-01-04T09:47:01Z</time>
      </trkpt>
      <trkpt lat="48.64361" lon="-3.52182">
        <ele>116</ele>
        <time>2015-01-04T09:47:02Z</time>
      </trkpt>
      <trkpt lat="48.64365" lon="-3.52185">
        <ele>116</ele>
        <time>2015-01-04T09:47:03Z</time>
      </trkpt>
      <trkpt lat="48.64368" lon="-3.52188">
        <ele>116</ele>
        <time>2015-01-04T09:47:04Z</time>
      </trkpt>
      <trkpt lat="48.64372" lon="-3.52191">
        <ele>116</ele>
        <time>2015-01-04T09:47:05Z</time>
      </trkpt>
      <trkpt lat="48.64376" lon="-3.52194">
        <ele>116</ele>
        <time>2015-01-04T09:47:06Z</time>
      </trkpt>
      <trkpt lat="48.64381" lon="-3.52198">
        <ele>116</ele>
        <time>2015-01-04T09:47:07Z</time>
      </trkpt>
      <trkpt lat="48.64386" lon="-3.52201">
        <ele>116</ele>
        <time>2015-01-04T09:47:08Z</time>
      </trkpt>
      <trkpt lat="48.6439" lon="-3.52204">
        <ele>116</ele>
        <time>2015-01-04T09:47:09Z</time>
      </trkpt>
      <trkpt lat="48.64395" lon="-3.52208">
        <ele>116</ele>
        <time>2015-01-04T09:47:10Z</time>
      </trkpt>
      <trkpt lat="48.64399" lon="-3.52212">
        <ele>116</ele>
        <time>2015-01-04T09:47:11Z</time>
      </trkpt>
      <trkpt lat="48.64404" lon="-3.52215">
        <ele>116</ele>
        <time>2015-01-04T09:47:12Z</time>
      </trkpt>
      <trkpt lat="48.64409" lon="-3.52219">
        <ele>116</ele>
        <time>2015-01-04T09:47:13Z</time>
      </trkpt>
      <trkpt lat="48.64414" lon="-3.52222">
        <ele>116</ele>
        <time>2015-01-04T09:47:14Z</time>
      </trkpt>
      <trkpt lat="48.64419" lon="-3.52226">
        <ele>116</ele>
        <time>2015-01-04T09:47:15Z</time>
      </trkpt>
      <trkpt lat="48.64424" lon="-3.5223">
        <ele>116</ele>
        <time>2015-01-04T09:47:16Z</time>
      </trkpt>
      <trkpt lat="48.64429" lon="-3.52234">
        <ele>115</ele>
        <time>2015-01-04T09:47:17Z</time>
      </trkpt>
      <trkpt lat="48.64435" lon="-3.52238">
        <ele>115</ele>
        <time>2015-01-04T09:47:18Z</time>
      </trkpt>
      <trkpt lat="48.6444" lon="-3.52241">
        <ele>115</ele>
        <time>2015-01-04T09:47:19Z</time>
      </trkpt>
      <trkpt lat="48.64446" lon="-3.52246">
        <ele>115</ele>
        <time>2015-01-04T09:47:20Z</time>
      </trkpt>
      <trkpt lat="48.64452" lon="-3.5225">
        <ele>115</ele>
        <time>2015-01-04T09:47:21Z</time>
      </trkpt>
      <trkpt lat="48.64458" lon="-3.52254">
        <ele>115</ele>
        <time>2015-01-04T09:47:22Z</time>
      </trkpt>
      <trkpt lat="48.64463" lon="-3.52258">
        <ele>114</ele>
        <time>2015-01-04T09:47:23Z</time>
      </trkpt>
      <trkpt lat="48.6447" lon="-3.52263">
        <ele>114</ele>
        <time>2015-01-04T09:47:24Z</time>
      </trkpt>
      <trkpt lat="48.64476" lon="-3.52267">
        <ele>114</ele>
        <time>2015-01-04T09:47:25Z</time>
      </trkpt>
      <trkpt lat="48.64483" lon="-3.52272">
        <ele>114</ele>
        <time>2015-01-04T09:47:26Z</time>
      </trkpt>
      <trkpt lat="48.64489" lon="-3.52277">
        <ele>114</ele>
        <time>2015-01-04T09:47:27Z</time>
      </trkpt>
      <trkpt lat="48.64496" lon="-3.52282">
        <ele>113</ele>
        <time>2015-01-04T09:47:28Z</time>
      </trkpt>
      <trkpt lat="48.64503" lon="-3.52287">
        <ele>113</ele>
        <time>2015-01-04T09:47:29Z</time>
      </trkpt>
      <trkpt lat="48.6451" lon="-3.52292">
        <ele>113</ele>
        <time>2015-01-04T09:47:30Z</time>
      </trkpt>
      <trkpt lat="48.64517" lon="-3.52297">
        <ele>113</ele>
        <time>2015-01-04T09:47:31Z</time>
      </trkpt>
      <trkpt lat="48.64524" lon="-3.52301">
        <ele>112</ele>
        <time>2015-01-04T09:47:32Z</time>
      </trkpt>
      <trkpt lat="48.64531" lon="-3.52306">
        <ele>112</ele>
        <time>2015-01-04T09:47:33Z</time>
      </trkpt>
      <trkpt lat="48.64539" lon="-3.52311">
        <ele>112</ele>
        <time>2015-01-04T09:47:34Z</time>
      </trkpt>
      <trkpt lat="48.64547" lon="-3.52316">
        <ele>112</ele>
        <time>2015-01-04T09:47:35Z</time>
      </trkpt>
      <trkpt lat="48.64554" lon="-3.52321">
        <ele>111</ele>
        <time>2015-01-04T09:47:36Z</time>
      </trkpt>
      <trkpt lat="48.64562" lon="-3.52325">
        <ele>111</ele>
        <time>2015-01-04T09:47:37Z</time>
      </trkpt>
      <trkpt lat="48.6457" lon="-3.52329">
        <ele>111</ele>
        <time>2015-01-04T09:47:38Z</time>
      </trkpt>
      <trkpt lat="48.64578" lon="-3.52334">
        <ele>110</ele>
        <time>2015-01-04T09:47:39Z</time>
      </trkpt>
      <trkpt lat="48.64586" lon="-3.52339">
        <ele>110</ele>
        <time>2015-01-04T09:47:40Z</time>
      </trkpt>
      <trkpt lat="48.64594" lon="-3.52343">
        <ele>110</ele>
        <time>2015-01-04T09:47:41Z</time>
      </trkpt>
      <trkpt lat="48.64602" lon="-3.52348">
        <ele>110</ele>
        <time>2015-01-04T09:47:42Z</time>
      </trkpt>
      <trkpt lat="48.64611" lon="-3.52352">
        <ele>109</ele>
        <time>2015-01-04T09:47:43Z</time>
      </trkpt>
      <trkpt lat="48.64619" lon="-3.52357">
        <ele>109</ele>
        <time>2015-01-04T09:47:44Z</time>
      </trkpt>
      <trkpt lat="48.64628" lon="-3.52362">
        <ele>109</ele>
        <time>2015-01-04T09:47:45Z</time>
      </trkpt>
      <trkpt lat="48.64638" lon="-3.52368">
        <ele>109</ele>
        <time>2015-01-04T09:47:46Z</time>
      </trkpt>
      <trkpt lat="48.64648" lon="-3.52373">
        <ele>108</ele>
        <time>2015-01-04T09:47:47Z</time>
      </trkpt>
      <trkpt lat="48.64658" lon="-3.52377">
        <ele>108</ele>
        <time>2015-01-04T09:47:48Z</time>
      </trkpt>
      <trkpt lat="48.64668" lon="-3.52381">
        <ele>108</ele>
        <time>2015-01-04T09:47:49Z</time>
      </trkpt>
      <trkpt lat="48.64679" lon="-3.52385">
        <ele>108</ele>
        <time>2015-01-04T09:47:50Z</time>
      </trkpt>
      <trkpt lat="48.64689" lon="-3.52386">
        <ele>108</ele>
        <time>2015-01-04T09:47:51Z</time>
      </trkpt>
      <trkpt lat="48.64699" lon="-3.52387">
        <ele>108</ele>
        <time>2015-01-04T09:47:52Z</time>
      </trkpt>
      <trkpt lat="48.64709" lon="-3.52388">
        <ele>107</ele>
        <time>2015-01-04T09:47:53Z</time>
      </trkpt>
      <trkpt lat="48.64719" lon="-3.52388">
        <ele>107</ele>
        <time>2015-01-04T09:47:54Z</time>
      </trkpt>
      <trkpt lat="48.64737" lon="-3.52388">
        <ele>107</ele>
        <time>2015-01-04T09:47:56Z</time>
      </trkpt>
      <trkpt lat="48.64755" lon="-3.52388">
        <ele>107</ele>
        <time>2015-01-04T09:47:58Z</time>
      </trkpt>
      <trkpt lat="48.64763" lon="-3.52389">
        <ele>107</ele>
        <time>2015-01-04T09:47:59Z</time>
      </trkpt>
      <trkpt lat="48.64771" lon="-3.5239">
        <ele>107</ele>
        <time>2015-01-04T09:48:00Z</time>
      </trkpt>
      <trkpt lat="48.64779" lon="-3.52391">
        <ele>107</ele>
        <time>2015-01-04T09:48:01Z</time>
      </trkpt>
      <trkpt lat="48.64786" lon="-3.52392">
        <ele>107</ele>
        <time>2015-01-04T09:48:02Z</time>
      </trkpt>
      <trkpt lat="48.64793" lon="-3.52393">
        <ele>107</ele>
        <time>2015-01-04T09:48:03Z</time>
      </trkpt>
      <trkpt lat="48.64801" lon="-3.52395">
        <ele>107</ele>
        <time>2015-01-04T09:48:04Z</time>
      </trkpt>
      <trkpt lat="48.64807" lon="-3.52397">
        <ele>107</ele>
        <time>2015-01-04T09:48:05Z</time>
      </trkpt>
      <trkpt lat="48.64814" lon="-3.524">
        <ele>107</ele>
        <time>2015-01-04T09:48:06Z</time>
      </trkpt>
      <trkpt lat="48.6482" lon="-3.52403">
        <ele>107</ele>
        <time>2015-01-04T09:48:07Z</time>
      </trkpt>
      <trkpt lat="48.64827" lon="-3.52406">
        <ele>107</ele>
        <time>2015-01-04T09:48:08Z</time>
      </trkpt>
      <trkpt lat="48.64833" lon="-3.5241">
        <ele>107</ele>
        <time>2015-01-04T09:48:09Z</time>
      </trkpt>
      <trkpt lat="48.6484" lon="-3.52414">
        <ele>107</ele>
        <time>2015-01-04T09:48:10Z</time>
      </trkpt>
      <trkpt lat="48.64846" lon="-3.52417">
        <ele>107</ele>
        <time>2015-01-04T09:48:11Z</time>
      </trkpt>
      <trkpt lat="48.64852" lon="-3.52421">
        <ele>107</ele>
        <time>2015-01-04T09:48:12Z</time>
      </trkpt>
      <trkpt lat="48.64859" lon="-3.52425">
        <ele>107</ele>
        <time>2015-01-04T09:48:13Z</time>
      </trkpt>
      <trkpt lat="48.64865" lon="-3.52429">
        <ele>107</ele>
        <time>2015-01-04T09:48:14Z</time>
      </trkpt>
      <trkpt lat="48.64872" lon="-3.52433">
        <ele>107</ele>
        <time>2015-01-04T09:48:15Z</time>
      </trkpt>
      <trkpt lat="48.64879" lon="-3.52436">
        <ele>107</ele>
        <time>2015-01-04T09:48:16Z</time>
      </trkpt>
      <trkpt lat="48.64886" lon="-3.52438">
        <ele>107</ele>
        <time>2015-01-04T09:48:17Z</time>
      </trkpt>
      <trkpt lat="48.64893" lon="-3.52441">
        <ele>107</ele>
        <time>2015-01-04T09:48:18Z</time>
      </trkpt>
      <trkpt lat="48.64901" lon="-3.52443">
        <ele>107</ele>
        <time>2015-01-04T09:48:19Z</time>
      </trkpt>
      <trkpt lat="48.64909" lon="-3.52444">
        <ele>107</ele>
        <time>2015-01-04T09:48:20Z</time>
      </trkpt>
      <trkpt lat="48.64916" lon="-3.52446">
        <ele>107</ele>
        <time>2015-01-04T09:48:21Z</time>
      </trkpt>
      <trkpt lat="48.64924" lon="-3.52446">
        <ele>107</ele>
        <time>2015-01-04T09:48:22Z</time>
      </trkpt>
      <trkpt lat="48.64932" lon="-3.52447">
        <ele>107</ele>
        <time>2015-01-04T09:48:23Z</time>
      </trkpt>
      <trkpt lat="48.6494" lon="-3.52447">
        <ele>107</ele>
        <time>2015-01-04T09:48:24Z</time>
      </trkpt>
      <trkpt lat="48.64948" lon="-3.52446">
        <ele>107</ele>
        <time>2015-01-04T09:48:25Z</time>
      </trkpt>
      <trkpt lat="48.64956" lon="-3.52445">
        <ele>107</ele>
        <time>2015-01-04T09:48:26Z</time>
      </trkpt>
      <trkpt lat="48.64963" lon="-3.52443">
        <ele>107</ele>
        <time>2015-01-04T09:48:27Z</time>
      </trkpt>
      <trkpt lat="48.64971" lon="-3.52441">
        <ele>107</ele>
        <time>2015-01-04T09:48:28Z</time>
      </trkpt>
      <trkpt lat="48.64978" lon="-3.52439">
        <ele>107</ele>
        <time>2015-01-04T09:48:29Z</time>
      </trkpt>
      <trkpt lat="48.64985" lon="-3.52436">
        <ele>107</ele>
        <time>2015-01-04T09:48:30Z</time>
      </trkpt>
      <trkpt lat="48.64992" lon="-3.52432">
        <ele>107</ele>
        <time>2015-01-04T09:48:31Z</time>
      </trkpt>
      <trkpt lat="48.64999" lon="-3.52428">
        <ele>107</ele>
        <time>2015-01-04T09:48:32Z</time>
      </trkpt>
      <trkpt lat="48.65006" lon="-3.52424">
        <ele>107</ele>
        <time>2015-01-04T09:48:33Z</time>
      </trkpt>
      <trkpt lat="48.65012" lon="-3.52419">
        <ele>107</ele>
        <time>2015-01-04T09:48:34Z</time>
      </trkpt>
      <trkpt lat="48.65019" lon="-3.52414">
        <ele>107</ele>
        <time>2015-01-04T09:48:35Z</time>
      </trkpt>
      <trkpt lat="48.65025" lon="-3.52409">
        <ele>107</ele>
        <time>2015-01-04T09:48:36Z</time>
      </trkpt>
      <trkpt lat="48.65031" lon="-3.52404">
        <ele>107</ele>
        <time>2015-01-04T09:48:37Z</time>
      </trkpt>
      <trkpt lat="48.65037" lon="-3.52397">
        <ele>107</ele>
        <time>2015-01-04T09:48:38Z</time>
      </trkpt>
      <trkpt lat="48.65043" lon="-3.52391">
        <ele>107</ele>
        <time>2015-01-04T09:48:39Z</time>
      </trkpt>
      <trkpt lat="48.65049" lon="-3.52385">
        <ele>107</ele>
        <time>2015-01-04T09:48:40Z</time>
      </trkpt>
      <trkpt lat="48.65055" lon="-3.52378">
        <ele>107</ele>
        <time>2015-01-04T09:48:41Z</time>
      </trkpt>
      <trkpt lat="48.65061" lon="-3.52372">
        <ele>107</ele>
        <time>2015-01-04T09:48:42Z</time>
      </trkpt>
      <trkpt lat="48.65067" lon="-3.52365">
        <ele>107</ele>
        <time>2015-01-04T09:48:43Z</time>
      </trkpt>
      <trkpt lat="48.65073" lon="-3.52358">
        <ele>107</ele>
        <time>2015-01-04T09:48:44Z</time>
      </trkpt>
      <trkpt lat="48.65079" lon="-3.52351">
        <ele>107</ele>
        <time>2015-01-04T09:48:45Z</time>
      </trkpt>
      <trkpt lat="48.65085" lon="-3.52345">
        <ele>107</ele>
        <time>2015-01-04T09:48:46Z</time>
      </trkpt>
      <trkpt lat="48.65091" lon="-3.52338">
        <ele>107</ele>
        <time>2015-01-04T09:48:47Z</time>
      </trkpt>
      <trkpt lat="48.65097" lon="-3.52331">
        <ele>107</ele>
        <time>2015-01-04T09:48:48Z</time>
      </trkpt>
      <trkpt lat="48.65103" lon="-3.52324">
        <ele>107</ele>
        <time>2015-01-04T09:48:49Z</time>
      </trkpt>
      <trkpt lat="48.65109" lon="-3.52316">
        <ele>107</ele>
        <time>2015-01-04T09:48:50Z</time>
      </trkpt>
      <trkpt lat="48.65115" lon="-3.52309">
        <ele>107</ele>
        <time>2015-01-04T09:48:51Z</time>
      </trkpt>
      <trkpt lat="48.65121" lon="-3.52302">
        <ele>107</ele>
        <time>2015-01-04T09:48:52Z</time>
      </trkpt>
      <trkpt lat="48.65127" lon="-3.52295">
        <ele>107</ele>
        <time>2015-01-04T09:48:53Z</time>
      </trkpt>
      <trkpt lat="48.65133" lon="-3.52288">
        <ele>107</ele>
        <time>2015-01-04T09:48:54Z</time>
      </trkpt>
      <trkpt lat="48.6514" lon="-3.52282">
        <ele>107</ele>
        <time>2015-01-04T09:48:55Z</time>
      </trkpt>
      <trkpt lat="48.65146" lon="-3.52275">
        <ele>107</ele>
        <time>2015-01-04T09:48:56Z</time>
      </trkpt>
      <trkpt lat="48.65152" lon="-3.52268">
        <ele>107</ele>
        <time>2015-01-04T09:48:57Z</time>
      </trkpt>
      <trkpt lat="48.65159" lon="-3.52261">
        <ele>107</ele>
        <time>2015-01-04T09:48:58Z</time>
      </trkpt>
      <trkpt lat="48.65165" lon="-3.52255">
        <ele>107</ele>
        <time>2015-01-04T09:48:59Z</time>
      </trkpt>
      <trkpt lat="48.65172" lon="-3.52249">
        <ele>107</ele>
        <time>2015-01-04T09:49:00Z</time>
      </trkpt>
      <trkpt lat="48.65179" lon="-3.52243">
        <ele>107</ele>
        <time>2015-01-04T09:49:01Z</time>
      </trkpt>
      <trkpt lat="48.65186" lon="-3.52238">
        <ele>107</ele>
        <time>2015-01-04T09:49:02Z</time>
      </trkpt>
      <trkpt lat="48.65193" lon="-3.52233">
        <ele>107</ele>
        <time>2015-01-04T09:49:03Z</time>
      </trkpt>
      <trkpt lat="48.652" lon="-3.52229">
        <ele>107</ele>
        <time>2015-01-04T09:49:04Z</time>
      </trkpt>
      <trkpt lat="48.65207" lon="-3.52225">
        <ele>107</ele>
        <time>2015-01-04T09:49:05Z</time>
      </trkpt>
      <trkpt lat="48.65214" lon="-3.52222">
        <ele>107</ele>
        <time>2015-01-04T09:49:06Z</time>
      </trkpt>
      <trkpt lat="48.65221" lon="-3.52219">
        <ele>107</ele>
        <time>2015-01-04T09:49:07Z</time>
      </trkpt>
      <trkpt lat="48.65228" lon="-3.52217">
        <ele>107</ele>
        <time>2015-01-04T09:49:08Z</time>
      </trkpt>
      <trkpt lat="48.65234" lon="-3.52214">
        <ele>107</ele>
        <time>2015-01-04T09:49:09Z</time>
      </trkpt>
      <trkpt lat="48.6524" lon="-3.52212">
        <ele>107</ele>
        <time>2015-01-04T09:49:10Z</time>
      </trkpt>
      <trkpt lat="48.65247" lon="-3.52209">
        <ele>107</ele>
        <time>2015-01-04T09:49:11Z</time>
      </trkpt>
      <trkpt lat="48.65253" lon="-3.52207">
        <ele>107</ele>
        <time>2015-01-04T09:49:12Z</time>
      </trkpt>
      <trkpt lat="48.6526" lon="-3.52206">
        <ele>107</ele>
        <time>2015-01-04T09:49:13Z</time>
      </trkpt>
      <trkpt lat="48.65266" lon="-3.52204">
        <ele>107</ele>
        <time>2015-01-04T09:49:14Z</time>
      </trkpt>
      <trkpt lat="48.65273" lon="-3.52202">
        <ele>107</ele>
        <time>2015-01-04T09:49:15Z</time>
      </trkpt>
      <trkpt lat="48.65279" lon="-3.522">
        <ele>107</ele>
        <time>2015-01-04T09:49:16Z</time>
      </trkpt>
      <trkpt lat="48.65286" lon="-3.52198">
        <ele>107</ele>
        <time>2015-01-04T09:49:17Z</time>
      </trkpt>
      <trkpt lat="48.65293" lon="-3.52196">
        <ele>107</ele>
        <time>2015-01-04T09:49:18Z</time>
      </trkpt>
      <trkpt lat="48.65299" lon="-3.52195">
        <ele>107</ele>
        <time>2015-01-04T09:49:19Z</time>
      </trkpt>
      <trkpt lat="48.65306" lon="-3.52193">
        <ele>107</ele>
        <time>2015-01-04T09:49:20Z</time>
      </trkpt>
      <trkpt lat="48.65313" lon="-3.5219">
        <ele>107</ele>
        <time>2015-01-04T09:49:21Z</time>
      </trkpt>
      <trkpt lat="48.65319" lon="-3.52188">
        <ele>107</ele>
        <time>2015-01-04T09:49:22Z</time>
      </trkpt>
      <trkpt lat="48.65326" lon="-3.52186">
        <ele>107</ele>
        <time>2015-01-04T09:49:23Z</time>
      </trkpt>
      <trkpt lat="48.65333" lon="-3.52184">
        <ele>107</ele>
        <time>2015-01-04T09:49:24Z</time>
      </trkpt>
      <trkpt lat="48.6534" lon="-3.52182">
        <ele>107</ele>
        <time>2015-01-04T09:49:25Z</time>
      </trkpt>
      <trkpt lat="48.65347" lon="-3.52179">
        <ele>107</ele>
        <time>2015-01-04T09:49:26Z</time>
      </trkpt>
      <trkpt lat="48.65353" lon="-3.52177">
        <ele>107</ele>
        <time>2015-01-04T09:49:27Z</time>
      </trkpt>
      <trkpt lat="48.6536" lon="-3.52175">
        <ele>107</ele>
        <time>2015-01-04T09:49:28Z</time>
      </trkpt>
      <trkpt lat="48.65366" lon="-3.52172">
        <ele>107</ele>
        <time>2015-01-04T09:49:29Z</time>
      </trkpt>
      <trkpt lat="48.65373" lon="-3.5217">
        <ele>107</ele>
        <time>2015-01-04T09:49:30Z</time>
      </trkpt>
      <trkpt lat="48.65379" lon="-3.52168">
        <ele>107</ele>
        <time>2015-01-04T09:49:31Z</time>
      </trkpt>
      <trkpt lat="48.65386" lon="-3.52165">
        <ele>107</ele>
        <time>2015-01-04T09:49:32Z</time>
      </trkpt>
      <trkpt lat="48.65393" lon="-3.52162">
        <ele>107</ele>
        <time>2015-01-04T09:49:33Z</time>
      </trkpt>
      <trkpt lat="48.65399" lon="-3.5216">
        <ele>107</ele>
        <time>2015-01-04T09:49:34Z</time>
      </trkpt>
      <trkpt lat="48.65406" lon="-3.52157">
        <ele>107</ele>
        <time>2015-01-04T09:49:35Z</time>
      </trkpt>
      <trkpt lat="48.65413" lon="-3.52154">
        <ele>107</ele>
        <time>2015-01-04T09:49:36Z</time>
      </trkpt>
      <trkpt lat="48.6542" lon="-3.52151">
        <ele>107</ele>
        <time>2015-01-04T09:49:37Z</time>
      </trkpt>
      <trkpt lat="48.65426" lon="-3.52147">
        <ele>107</ele>
        <time>2015-01-04T09:49:38Z</time>
      </trkpt>
      <trkpt lat="48.65433" lon="-3.52144">
        <ele>107</ele>
        <time>2015-01-04T09:49:39Z</time>
      </trkpt>
      <trkpt lat="48.6544" lon="-3.5214">
        <ele>107</ele>
        <time>2015-01-04T09:49:40Z</time>
      </trkpt>
      <trkpt lat="48.65447" lon="-3.52137">
        <ele>107</ele>
        <time>2015-01-04T09:49:41Z</time>
      </trkpt>
      <trkpt lat="48.65453" lon="-3.52133">
        <ele>107</ele>
        <time>2015-01-04T09:49:42Z</time>
      </trkpt>
      <trkpt lat="48.6546" lon="-3.52129">
        <ele>107</ele>
        <time>2015-01-04T09:49:43Z</time>
      </trkpt>
      <trkpt lat="48.65467" lon="-3.52126">
        <ele>107</ele>
        <time>2015-01-04T09:49:44Z</time>
      </trkpt>
      <trkpt lat="48.65474" lon="-3.52122">
        <ele>107</ele>
        <time>2015-01-04T09:49:45Z</time>
      </trkpt>
      <trkpt lat="48.65481" lon="-3.52118">
        <ele>107</ele>
        <time>2015-01-04T09:49:46Z</time>
      </trkpt>
      <trkpt lat="48.65488" lon="-3.52114">
        <ele>107</ele>
        <time>2015-01-04T09:49:47Z</time>
      </trkpt>
      <trkpt lat="48.65495" lon="-3.5211">
        <ele>107</ele>
        <time>2015-01-04T09:49:48Z</time>
      </trkpt>
      <trkpt lat="48.65502" lon="-3.52106">
        <ele>107</ele>
        <time>2015-01-04T09:49:49Z</time>
      </trkpt>
      <trkpt lat="48.6551" lon="-3.52102">
        <ele>107</ele>
        <time>2015-01-04T09:49:50Z</time>
      </trkpt>
      <trkpt lat="48.65517" lon="-3.52098">
        <ele>107</ele>
        <time>2015-01-04T09:49:51Z</time>
      </trkpt>
      <trkpt lat="48.65524" lon="-3.52095">
        <ele>107</ele>
        <time>2015-01-04T09:49:52Z</time>
      </trkpt>
      <trkpt lat="48.65532" lon="-3.52091">
        <ele>107</ele>
        <time>2015-01-04T09:49:53Z</time>
      </trkpt>
      <trkpt lat="48.65539" lon="-3.52087">
        <ele>107</ele>
        <time>2015-01-04T09:49:54Z</time>
      </trkpt>
      <trkpt lat="48.65547" lon="-3.52084">
        <ele>107</ele>
        <time>2015-01-04T09:49:55Z</time>
      </trkpt>
      <trkpt lat="48.65554" lon="-3.5208">
        <ele>107</ele>
        <time>2015-01-04T09:49:56Z</time>
      </trkpt>
      <trkpt lat="48.65561" lon="-3.52076">
        <ele>107</ele>
        <time>2015-01-04T09:49:57Z</time>
      </trkpt>
      <trkpt lat="48.65569" lon="-3.52072">
        <ele>107</ele>
        <time>2015-01-04T09:49:58Z</time>
      </trkpt>
      <trkpt lat="48.65576" lon="-3.52069">
        <ele>107</ele>
        <time>2015-01-04T09:49:59Z</time>
      </trkpt>
      <trkpt lat="48.65583" lon="-3.52064">
        <ele>107</ele>
        <time>2015-01-04T09:50:00Z</time>
      </trkpt>
      <trkpt lat="48.65591" lon="-3.5206">
        <ele>107</ele>
        <time>2015-01-04T09:50:01Z</time>
      </trkpt>
      <trkpt lat="48.65599" lon="-3.52056">
        <ele>107</ele>
        <time>2015-01-04T09:50:02Z</time>
      </trkpt>
      <trkpt lat="48.65606" lon="-3.52051">
        <ele>107</ele>
        <time>2015-01-04T09:50:03Z</time>
      </trkpt>
      <trkpt lat="48.65614" lon="-3.52046">
        <ele>107</ele>
        <time>2015-01-04T09:50:04Z</time>
      </trkpt>
      <trkpt lat="48.65621" lon="-3.52041">
        <ele>107</ele>
        <time>2015-01-04T09:50:05Z</time>
      </trkpt>
      <trkpt lat="48.65628" lon="-3.52036">
        <ele>107</ele>
        <time>2015-01-04T09:50:06Z</time>
      </trkpt>
      <trkpt lat="48.65636" lon="-3.52031">
        <ele>107</ele>
        <time>2015-01-04T09:50:07Z</time>
      </trkpt>
      <trkpt lat="48.65643" lon="-3.52026">
        <ele>107</ele>
        <time>2015-01-04T09:50:08Z</time>
      </trkpt>
      <trkpt lat="48.65651" lon="-3.52021">
        <ele>107</ele>
        <time>2015-01-04T09:50:09Z</time>
      </trkpt>
      <trkpt lat="48.65658" lon="-3.52015">
        <ele>107</ele>
        <time>2015-01-04T09:50:10Z</time>
      </trkpt>
      <trkpt lat="48.65665" lon="-3.5201">
        <ele>107</ele>
        <time>2015-01-04T09:50:11Z</time>
      </trkpt>
      <trkpt lat="48.65672" lon="-3.52004">
        <ele>107</ele>
        <time>2015-01-04T09:50:12Z</time>
      </trkpt>
      <trkpt lat="48.65678" lon="-3.51999">
        <ele>107</ele>
        <time>2015-01-04T09:50:13Z</time>
      </trkpt>
      <trkpt lat="48.65686" lon="-3.51994">
        <ele>107</ele>
        <time>2015-01-04T09:50:14Z</time>
      </trkpt>
      <trkpt lat="48.65693" lon="-3.51989">
        <ele>107</ele>
        <time>2015-01-04T09:50:15Z</time>
      </trkpt>
      <trkpt lat="48.65699" lon="-3.51983">
        <ele>107</ele>
        <time>2015-01-04T09:50:16Z</time>
      </trkpt>
      <trkpt lat="48.65707" lon="-3.51978">
        <ele>107</ele>
        <time>2015-01-04T09:50:17Z</time>
      </trkpt>
      <trkpt lat="48.65714" lon="-3.51973">
        <ele>107</ele>
        <time>2015-01-04T09:50:18Z</time>
      </trkpt>
      <trkpt lat="48.65721" lon="-3.51969">
        <ele>107</ele>
        <time>2015-01-04T09:50:19Z</time>
      </trkpt>
      <trkpt lat="48.65728" lon="-3.51964">
        <ele>107</ele>
        <time>2015-01-04T09:50:20Z</time>
      </trkpt>
      <trkpt lat="48.65736" lon="-3.5196">
        <ele>107</ele>
        <time>2015-01-04T09:50:21Z</time>
      </trkpt>
      <trkpt lat="48.65743" lon="-3.51956">
        <ele>107</ele>
        <time>2015-01-04T09:50:22Z</time>
      </trkpt>
      <trkpt lat="48.6575" lon="-3.51952">
        <ele>107</ele>
        <time>2015-01-04T09:50:23Z</time>
      </trkpt>
      <trkpt lat="48.65758" lon="-3.51949">
        <ele>107</ele>
        <time>2015-01-04T09:50:24Z</time>
      </trkpt>
      <trkpt lat="48.65765" lon="-3.51946">
        <ele>107</ele>
        <time>2015-01-04T09:50:25Z</time>
      </trkpt>
      <trkpt lat="48.65773" lon="-3.51943">
        <ele>107</ele>
        <time>2015-01-04T09:50:26Z</time>
      </trkpt>
      <trkpt lat="48.65781" lon="-3.51941">
        <ele>107</ele>
        <time>2015-01-04T09:50:27Z</time>
      </trkpt>
      <trkpt lat="48.65789" lon="-3.51939">
        <ele>107</ele>
        <time>2015-01-04T09:50:28Z</time>
      </trkpt>
      <trkpt lat="48.65797" lon="-3.51938">
        <ele>107</ele>
        <time>2015-01-04T09:50:29Z</time>
      </trkpt>
      <trkpt lat="48.65805" lon="-3.51937">
        <ele>107</ele>
        <time>2015-01-04T09:50:30Z</time>
      </trkpt>
      <trkpt lat="48.65813" lon="-3.51936">
        <ele>107</ele>
        <time>2015-01-04T09:50:31Z</time>
      </trkpt>
      <trkpt lat="48.65821" lon="-3.51935">
        <ele>107</ele>
        <time>2015-01-04T09:50:32Z</time>
      </trkpt>
      <trkpt lat="48.6583" lon="-3.51935">
        <ele>107</ele>
        <time>2015-01-04T09:50:33Z</time>
      </trkpt>
      <trkpt lat="48.65854" lon="-3.51935">
        <ele>107</ele>
        <time>2015-01-04T09:50:36Z</time>
      </trkpt>
      <trkpt lat="48.65862" lon="-3.51935">
        <ele>107</ele>
        <time>2015-01-04T09:50:37Z</time>
      </trkpt>
      <trkpt lat="48.65869" lon="-3.51935">
        <ele>107</ele>
        <time>2015-01-04T09:50:38Z</time>
      </trkpt>
      <trkpt lat="48.65893" lon="-3.51935">
        <ele>106</ele>
        <time>2015-01-04T09:50:41Z</time>
      </trkpt>
      <trkpt lat="48.6591" lon="-3.51935">
        <ele>106</ele>
        <time>2015-01-04T09:50:43Z</time>
      </trkpt>
      <trkpt lat="48.65918" lon="-3.51935">
        <ele>106</ele>
        <time>2015-01-04T09:50:44Z</time>
      </trkpt>
      <trkpt lat="48.65926" lon="-3.51934">
        <ele>106</ele>
        <time>2015-01-04T09:50:45Z</time>
      </trkpt>
      <trkpt lat="48.65934" lon="-3.51933">
        <ele>106</ele>
        <time>2015-01-04T09:50:46Z</time>
      </trkpt>
      <trkpt lat="48.65943" lon="-3.51932">
        <ele>106</ele>
        <time>2015-01-04T09:50:47Z</time>
      </trkpt>
      <trkpt lat="48.65951" lon="-3.5193">
        <ele>106</ele>
        <time>2015-01-04T09:50:48Z</time>
      </trkpt>
      <trkpt lat="48.6596" lon="-3.51928">
        <ele>106</ele>
        <time>2015-01-04T09:50:49Z</time>
      </trkpt>
      <trkpt lat="48.65968" lon="-3.51926">
        <ele>106</ele>
        <time>2015-01-04T09:50:50Z</time>
      </trkpt>
      <trkpt lat="48.65976" lon="-3.51923">
        <ele>105</ele>
        <time>2015-01-04T09:50:51Z</time>
      </trkpt>
      <trkpt lat="48.65985" lon="-3.51921">
        <ele>105</ele>
        <time>2015-01-04T09:50:52Z</time>
      </trkpt>
      <trkpt lat="48.65993" lon="-3.51918">
        <ele>105</ele>
        <time>2015-01-04T09:50:53Z</time>
      </trkpt>
      <trkpt lat="48.66001" lon="-3.51916">
        <ele>105</ele>
        <time>2015-01-04T09:50:54Z</time>
      </trkpt>
      <trkpt lat="48.66009" lon="-3.51913">
        <ele>105</ele>
        <time>2015-01-04T09:50:55Z</time>
      </trkpt>
      <trkpt lat="48.66018" lon="-3.51911">
        <ele>105</ele>
        <time>2015-01-04T09:50:56Z</time>
      </trkpt>
      <trkpt lat="48.66026" lon="-3.51908">
        <ele>105</ele>
        <time>2015-01-04T09:50:57Z</time>
      </trkpt>
      <trkpt lat="48.66034" lon="-3.51905">
        <ele>105</ele>
        <time>2015-01-04T09:50:58Z</time>
      </trkpt>
      <trkpt lat="48.66042" lon="-3.51902">
        <ele>105</ele>
        <time>2015-01-04T09:50:59Z</time>
      </trkpt>
      <trkpt lat="48.6605" lon="-3.51898">
        <ele>105</ele>
        <time>2015-01-04T09:51:00Z</time>
      </trkpt>
      <trkpt lat="48.66058" lon="-3.51894">
        <ele>105</ele>
        <time>2015-01-04T09:51:01Z</time>
      </trkpt>
      <trkpt lat="48.66066" lon="-3.5189">
        <ele>104</ele>
        <time>2015-01-04T09:51:02Z</time>
      </trkpt>
      <trkpt lat="48.66075" lon="-3.51886">
        <ele>104</ele>
        <time>2015-01-04T09:51:03Z</time>
      </trkpt>
      <trkpt lat="48.66083" lon="-3.51882">
        <ele>104</ele>
        <time>2015-01-04T09:51:04Z</time>
      </trkpt>
      <trkpt lat="48.66092" lon="-3.51877">
        <ele>104</ele>
        <time>2015-01-04T09:51:05Z</time>
      </trkpt>
      <trkpt lat="48.661" lon="-3.51873">
        <ele>104</ele>
        <time>2015-01-04T09:51:06Z</time>
      </trkpt>
      <trkpt lat="48.66109" lon="-3.51869">
        <ele>104</ele>
        <time>2015-01-04T09:51:07Z</time>
      </trkpt>
      <trkpt lat="48.66117" lon="-3.51864">
        <ele>103</ele>
        <time>2015-01-04T09:51:08Z</time>
      </trkpt>
      <trkpt lat="48.66126" lon="-3.5186">
        <ele>103</ele>
        <time>2015-01-04T09:51:09Z</time>
      </trkpt>
      <trkpt lat="48.66135" lon="-3.51855">
        <ele>103</ele>
        <time>2015-01-04T09:51:10Z</time>
      </trkpt>
      <trkpt lat="48.66143" lon="-3.5185">
        <ele>103</ele>
        <time>2015-01-04T09:51:11Z</time>
      </trkpt>
      <trkpt lat="48.66152" lon="-3.51846">
        <ele>103</ele>
        <time>2015-01-04T09:51:12Z</time>
      </trkpt>
      <trkpt lat="48.66161" lon="-3.51841">
        <ele>103</ele>
        <time>2015-01-04T09:51:13Z</time>
      </trkpt>
      <trkpt lat="48.66169" lon="-3.51837">
        <ele>103</ele>
        <time>2015-01-04T09:51:14Z</time>
      </trkpt>
      <trkpt lat="48.66178" lon="-3.51832">
        <ele>102</ele>
        <time>2015-01-04T09:51:15Z</time>
      </trkpt>
      <trkpt lat="48.66187" lon="-3.51828">
        <ele>102</ele>
        <time>2015-01-04T09:51:16Z</time>
      </trkpt>
      <trkpt lat="48.66195" lon="-3.51823">
        <ele>102</ele>
        <time>2015-01-04T09:51:17Z</time>
      </trkpt>
      <trkpt lat="48.66204" lon="-3.51819">
        <ele>102</ele>
        <time>2015-01-04T09:51:18Z</time>
      </trkpt>
      <trkpt lat="48.66213" lon="-3.51814">
        <ele>102</ele>
        <time>2015-01-04T09:51:19Z</time>
      </trkpt>
      <trkpt lat="48.66222" lon="-3.5181">
        <ele>102</ele>
        <time>2015-01-04T09:51:20Z</time>
      </trkpt>
      <trkpt lat="48.66231" lon="-3.51805">
        <ele>102</ele>
        <time>2015-01-04T09:51:21Z</time>
      </trkpt>
      <trkpt lat="48.6624" lon="-3.51801">
        <ele>101</ele>
        <time>2015-01-04T09:51:22Z</time>
      </trkpt>
      <trkpt lat="48.66249" lon="-3.51796">
        <ele>101</ele>
        <time>2015-01-04T09:51:23Z</time>
      </trkpt>
      <trkpt lat="48.66258" lon="-3.5179">
        <ele>101</ele>
        <time>2015-01-04T09:51:24Z</time>
      </trkpt>
      <trkpt lat="48.66267" lon="-3.51785">
        <ele>101</ele>
        <time>2015-01-04T09:51:25Z</time>
      </trkpt>
      <trkpt lat="48.66277" lon="-3.5178">
        <ele>100</ele>
        <time>2015-01-04T09:51:26Z</time>
      </trkpt>
      <trkpt lat="48.66286" lon="-3.51774">
        <ele>100</ele>
        <time>2015-01-04T09:51:27Z</time>
      </trkpt>
      <trkpt lat="48.66296" lon="-3.51769">
        <ele>100</ele>
        <time>2015-01-04T09:51:28Z</time>
      </trkpt>
      <trkpt lat="48.66305" lon="-3.51764">
        <ele>99</ele>
        <time>2015-01-04T09:51:29Z</time>
      </trkpt>
      <trkpt lat="48.66315" lon="-3.51759">
        <ele>98</ele>
        <time>2015-01-04T09:51:30Z</time>
      </trkpt>
      <trkpt lat="48.66325" lon="-3.51753">
        <ele>98</ele>
        <time>2015-01-04T09:51:31Z</time>
      </trkpt>
      <trkpt lat="48.66334" lon="-3.51747">
        <ele>97</ele>
        <time>2015-01-04T09:51:32Z</time>
      </trkpt>
      <trkpt lat="48.66344" lon="-3.5174">
        <ele>97</ele>
        <time>2015-01-04T09:51:33Z</time>
      </trkpt>
      <trkpt lat="48.66353" lon="-3.51733">
        <ele>97</ele>
        <time>2015-01-04T09:51:34Z</time>
      </trkpt>
      <trkpt lat="48.66362" lon="-3.51726">
        <ele>97</ele>
        <time>2015-01-04T09:51:35Z</time>
      </trkpt>
      <trkpt lat="48.66371" lon="-3.51719">
        <ele>97</ele>
        <time>2015-01-04T09:51:36Z</time>
      </trkpt>
      <trkpt lat="48.6638" lon="-3.51711">
        <ele>97</ele>
        <time>2015-01-04T09:51:37Z</time>
      </trkpt>
      <trkpt lat="48.66388" lon="-3.51702">
        <ele>97</ele>
        <time>2015-01-04T09:51:38Z</time>
      </trkpt>
      <trkpt lat="48.66395" lon="-3.51694">
        <ele>97</ele>
        <time>2015-01-04T09:51:39Z</time>
      </trkpt>
      <trkpt lat="48.66402" lon="-3.51685">
        <ele>97</ele>
        <time>2015-01-04T09:51:40Z</time>
      </trkpt>
      <trkpt lat="48.66409" lon="-3.51676">
        <ele>97</ele>
        <time>2015-01-04T09:51:41Z</time>
      </trkpt>
      <trkpt lat="48.66416" lon="-3.51668">
        <ele>97</ele>
        <time>2015-01-04T09:51:42Z</time>
      </trkpt>
      <trkpt lat="48.66422" lon="-3.51659">
        <ele>97</ele>
        <time>2015-01-04T09:51:43Z</time>
      </trkpt>
      <trkpt lat="48.66428" lon="-3.51651">
        <ele>97</ele>
        <time>2015-01-04T09:51:44Z</time>
      </trkpt>
      <trkpt lat="48.66433" lon="-3.51643">
        <ele>97</ele>
        <time>2015-01-04T09:51:45Z</time>
      </trkpt>
      <trkpt lat="48.66439" lon="-3.51635">
        <ele>97</ele>
        <time>2015-01-04T09:51:46Z</time>
      </trkpt>
      <trkpt lat="48.66444" lon="-3.51626">
        <ele>97</ele>
        <time>2015-01-04T09:51:47Z</time>
      </trkpt>
      <trkpt lat="48.66449" lon="-3.51617">
        <ele>97</ele>
        <time>2015-01-04T09:51:48Z</time>
      </trkpt>
      <trkpt lat="48.66454" lon="-3.51608">
        <ele>97</ele>
        <time>2015-01-04T09:51:49Z</time>
      </trkpt>
      <trkpt lat="48.66458" lon="-3.51599">
        <ele>97</ele>
        <time>2015-01-04T09:51:50Z</time>
      </trkpt>
      <trkpt lat="48.66463" lon="-3.51589">
        <ele>97</ele>
        <time>2015-01-04T09:51:51Z</time>
      </trkpt>
      <trkpt lat="48.66467" lon="-3.51579">
        <ele>97</ele>
        <time>2015-01-04T09:51:52Z</time>
      </trkpt>
      <trkpt lat="48.66471" lon="-3.51569">
        <ele>97</ele>
        <time>2015-01-04T09:51:53Z</time>
      </trkpt>
      <trkpt lat="48.66476" lon="-3.51559">
        <ele>97</ele>
        <time>2015-01-04T09:51:54Z</time>
      </trkpt>
      <trkpt lat="48.6648" lon="-3.51549">
        <ele>97</ele>
        <time>2015-01-04T09:51:55Z</time>
      </trkpt>
      <trkpt lat="48.66484" lon="-3.51538">
        <ele>97</ele>
        <time>2015-01-04T09:51:56Z</time>
      </trkpt>
      <trkpt lat="48.66488" lon="-3.51527">
        <ele>97</ele>
        <time>2015-01-04T09:51:57Z</time>
      </trkpt>
      <trkpt lat="48.66491" lon="-3.51516">
        <ele>97</ele>
        <time>2015-01-04T09:51:58Z</time>
      </trkpt>
      <trkpt lat="48.66495" lon="-3.51505">
        <ele>97</ele>
        <time>2015-01-04T09:51:59Z</time>
      </trkpt>
      <trkpt lat="48.66499" lon="-3.51495">
        <ele>97</ele>
        <time>2015-01-04T09:52:00Z</time>
      </trkpt>
      <trkpt lat="48.66503" lon="-3.51484">
        <ele>97</ele>
        <time>2015-01-04T09:52:01Z</time>
      </trkpt>
      <trkpt lat="48.66506" lon="-3.51474">
        <ele>97</ele>
        <time>2015-01-04T09:52:02Z</time>
      </trkpt>
      <trkpt lat="48.6651" lon="-3.51464">
        <ele>97</ele>
        <time>2015-01-04T09:52:03Z</time>
      </trkpt>
      <trkpt lat="48.66513" lon="-3.51454">
        <ele>97</ele>
        <time>2015-01-04T09:52:04Z</time>
      </trkpt>
      <trkpt lat="48.66517" lon="-3.51444">
        <ele>97</ele>
        <time>2015-01-04T09:52:05Z</time>
      </trkpt>
      <trkpt lat="48.6652" lon="-3.51433">
        <ele>97</ele>
        <time>2015-01-04T09:52:06Z</time>
      </trkpt>
      <trkpt lat="48.66524" lon="-3.51423">
        <ele>97</ele>
        <time>2015-01-04T09:52:07Z</time>
      </trkpt>
      <trkpt lat="48.66528" lon="-3.51413">
        <ele>97</ele>
        <time>2015-01-04T09:52:08Z</time>
      </trkpt>
      <trkpt lat="48.66531" lon="-3.51403">
        <ele>97</ele>
        <time>2015-01-04T09:52:09Z</time>
      </trkpt>
      <trkpt lat="48.66535" lon="-3.51393">
        <ele>97</ele>
        <time>2015-01-04T09:52:10Z</time>
      </trkpt>
      <trkpt lat="48.66539" lon="-3.51382">
        <ele>97</ele>
        <time>2015-01-04T09:52:11Z</time>
      </trkpt>
      <trkpt lat="48.66542" lon="-3.51372">
        <ele>97</ele>
        <time>2015-01-04T09:52:12Z</time>
      </trkpt>
      <trkpt lat="48.66545" lon="-3.51362">
        <ele>97</ele>
        <time>2015-01-04T09:52:13Z</time>
      </trkpt>
      <trkpt lat="48.66549" lon="-3.51352">
        <ele>97</ele>
        <time>2015-01-04T09:52:14Z</time>
      </trkpt>
      <trkpt lat="48.66552" lon="-3.51342">
        <ele>97</ele>
        <time>2015-01-04T09:52:15Z</time>
      </trkpt>
      <trkpt lat="48.66555" lon="-3.51333">
        <ele>97</ele>
        <time>2015-01-04T09:52:16Z</time>
      </trkpt>
      <trkpt lat="48.66558" lon="-3.51323">
        <ele>97</ele>
        <time>2015-01-04T09:52:17Z</time>
      </trkpt>
      <trkpt lat="48.66562" lon="-3.51313">
        <ele>97</ele>
        <time>2015-01-04T09:52:18Z</time>
      </trkpt>
      <trkpt lat="48.66565" lon="-3.51304">
        <ele>97</ele>
        <time>2015-01-04T09:52:19Z</time>
      </trkpt>
      <trkpt lat="48.66568" lon="-3.51294">
        <ele>98</ele>
        <time>2015-01-04T09:52:20Z</time>
      </trkpt>
      <trkpt lat="48.66571" lon="-3.51285">
        <ele>98</ele>
        <time>2015-01-04T09:52:21Z</time>
      </trkpt>
      <trkpt lat="48.66574" lon="-3.51276">
        <ele>98</ele>
        <time>2015-01-04T09:52:22Z</time>
      </trkpt>
      <trkpt lat="48.66577" lon="-3.51267">
        <ele>98</ele>
        <time>2015-01-04T09:52:23Z</time>
      </trkpt>
      <trkpt lat="48.6658" lon="-3.51257">
        <ele>98</ele>
        <time>2015-01-04T09:52:24Z</time>
      </trkpt>
      <trkpt lat="48.66583" lon="-3.51249">
        <ele>98</ele>
        <time>2015-01-04T09:52:25Z</time>
      </trkpt>
      <trkpt lat="48.66586" lon="-3.5124">
        <ele>98</ele>
        <time>2015-01-04T09:52:26Z</time>
      </trkpt>
      <trkpt lat="48.66589" lon="-3.51231">
        <ele>98</ele>
        <time>2015-01-04T09:52:27Z</time>
      </trkpt>
      <trkpt lat="48.66592" lon="-3.51222">
        <ele>98</ele>
        <time>2015-01-04T09:52:28Z</time>
      </trkpt>
      <trkpt lat="48.66595" lon="-3.51214">
        <ele>98</ele>
        <time>2015-01-04T09:52:29Z</time>
      </trkpt>
      <trkpt lat="48.66598" lon="-3.51205">
        <ele>98</ele>
        <time>2015-01-04T09:52:30Z</time>
      </trkpt>
      <trkpt lat="48.66601" lon="-3.51196">
        <ele>98</ele>
        <time>2015-01-04T09:52:31Z</time>
      </trkpt>
      <trkpt lat="48.66603" lon="-3.51188">
        <ele>98</ele>
        <time>2015-01-04T09:52:32Z</time>
      </trkpt>
      <trkpt lat="48.66605" lon="-3.5118">
        <ele>98</ele>
        <time>2015-01-04T09:52:33Z</time>
      </trkpt>
      <trkpt lat="48.66606" lon="-3.51174">
        <ele>98</ele>
        <time>2015-01-04T09:52:34Z</time>
      </trkpt>
      <trkpt lat="48.66607" lon="-3.51168">
        <ele>98</ele>
        <time>2015-01-04T09:52:35Z</time>
      </trkpt>
      <trkpt lat="48.66608" lon="-3.51163">
        <ele>98</ele>
        <time>2015-01-04T09:52:36Z</time>
      </trkpt>
      <trkpt lat="48.6661" lon="-3.51158">
        <ele>98</ele>
        <time>2015-01-04T09:52:37Z</time>
      </trkpt>
      <trkpt lat="48.66613" lon="-3.51154">
        <ele>98</ele>
        <time>2015-01-04T09:52:38Z</time>
      </trkpt>
      <trkpt lat="48.66618" lon="-3.51152">
        <ele>98</ele>
        <time>2015-01-04T09:52:39Z</time>
      </trkpt>
      <trkpt lat="48.66624" lon="-3.5115">
        <ele>98</ele>
        <time>2015-01-04T09:52:40Z</time>
      </trkpt>
      <trkpt lat="48.66629" lon="-3.51148">
        <ele>98</ele>
        <time>2015-01-04T09:52:41Z</time>
      </trkpt>
      <trkpt lat="48.66636" lon="-3.51146">
        <ele>98</ele>
        <time>2015-01-04T09:52:42Z</time>
      </trkpt>
      <trkpt lat="48.66642" lon="-3.51144">
        <ele>98</ele>
        <time>2015-01-04T09:52:43Z</time>
      </trkpt>
      <trkpt lat="48.66648" lon="-3.51141">
        <ele>98</ele>
        <time>2015-01-04T09:52:44Z</time>
      </trkpt>
      <trkpt lat="48.66655" lon="-3.51137">
        <ele>98</ele>
        <time>2015-01-04T09:52:45Z</time>
      </trkpt>
      <trkpt lat="48.66661" lon="-3.51134">
        <ele>98</ele>
        <time>2015-01-04T09:52:46Z</time>
      </trkpt>
      <trkpt lat="48.66667" lon="-3.51129">
        <ele>98</ele>
        <time>2015-01-04T09:52:47Z</time>
      </trkpt>
      <trkpt lat="48.66673" lon="-3.51125">
        <ele>98</ele>
        <time>2015-01-04T09:52:48Z</time>
      </trkpt>
      <trkpt lat="48.66679" lon="-3.5112">
        <ele>98</ele>
        <time>2015-01-04T09:52:49Z</time>
      </trkpt>
      <trkpt lat="48.66685" lon="-3.51115">
        <ele>98</ele>
        <time>2015-01-04T09:52:50Z</time>
      </trkpt>
      <trkpt lat="48.66691" lon="-3.5111">
        <ele>98</ele>
        <time>2015-01-04T09:52:51Z</time>
      </trkpt>
      <trkpt lat="48.66697" lon="-3.51105">
        <ele>98</ele>
        <time>2015-01-04T09:52:52Z</time>
      </trkpt>
      <trkpt lat="48.66703" lon="-3.51099">
        <ele>99</ele>
        <time>2015-01-04T09:52:53Z</time>
      </trkpt>
      <trkpt lat="48.66708" lon="-3.51093">
        <ele>99</ele>
        <time>2015-01-04T09:52:54Z</time>
      </trkpt>
      <trkpt lat="48.66714" lon="-3.51087">
        <ele>99</ele>
        <time>2015-01-04T09:52:55Z</time>
      </trkpt>
      <trkpt lat="48.66719" lon="-3.5108">
        <ele>99</ele>
        <time>2015-01-04T09:52:56Z</time>
      </trkpt>
      <trkpt lat="48.66724" lon="-3.51074">
        <ele>100</ele>
        <time>2015-01-04T09:52:57Z</time>
      </trkpt>
      <trkpt lat="48.66729" lon="-3.51066">
        <ele>100</ele>
        <time>2015-01-04T09:52:58Z</time>
      </trkpt>
      <trkpt lat="48.66734" lon="-3.51058">
        <ele>100</ele>
        <time>2015-01-04T09:52:59Z</time>
      </trkpt>
      <trkpt lat="48.66739" lon="-3.5105">
        <ele>100</ele>
        <time>2015-01-04T09:53:00Z</time>
      </trkpt>
      <trkpt lat="48.66743" lon="-3.51042">
        <ele>101</ele>
        <time>2015-01-04T09:53:01Z</time>
      </trkpt>
      <trkpt lat="48.66747" lon="-3.51034">
        <ele>101</ele>
        <time>2015-01-04T09:53:02Z</time>
      </trkpt>
      <trkpt lat="48.66751" lon="-3.51025">
        <ele>101</ele>
        <time>2015-01-04T09:53:03Z</time>
      </trkpt>
      <trkpt lat="48.66755" lon="-3.51017">
        <ele>101</ele>
        <time>2015-01-04T09:53:04Z</time>
      </trkpt>
      <trkpt lat="48.66759" lon="-3.51009">
        <ele>101</ele>
        <time>2015-01-04T09:53:05Z</time>
      </trkpt>
      <trkpt lat="48.66763" lon="-3.51001">
        <ele>102</ele>
        <time>2015-01-04T09:53:06Z</time>
      </trkpt>
      <trkpt lat="48.66768" lon="-3.50992">
        <ele>102</ele>
        <time>2015-01-04T09:53:07Z</time>
      </trkpt>
      <trkpt lat="48.66772" lon="-3.50985">
        <ele>102</ele>
        <time>2015-01-04T09:53:08Z</time>
      </trkpt>
      <trkpt lat="48.66777" lon="-3.50977">
        <ele>102</ele>
        <time>2015-01-04T09:53:09Z</time>
      </trkpt>
      <trkpt lat="48.66782" lon="-3.5097">
        <ele>102</ele>
        <time>2015-01-04T09:53:10Z</time>
      </trkpt>
      <trkpt lat="48.66787" lon="-3.50963">
        <ele>102</ele>
        <time>2015-01-04T09:53:11Z</time>
      </trkpt>
      <trkpt lat="48.66792" lon="-3.50957">
        <ele>102</ele>
        <time>2015-01-04T09:53:12Z</time>
      </trkpt>
      <trkpt lat="48.66797" lon="-3.5095">
        <ele>102</ele>
        <time>2015-01-04T09:53:13Z</time>
      </trkpt>
      <trkpt lat="48.66803" lon="-3.50944">
        <ele>102</ele>
        <time>2015-01-04T09:53:14Z</time>
      </trkpt>
      <trkpt lat="48.66808" lon="-3.50938">
        <ele>103</ele>
        <time>2015-01-04T09:53:15Z</time>
      </trkpt>
      <trkpt lat="48.66813" lon="-3.50932">
        <ele>103</ele>
        <time>2015-01-04T09:53:16Z</time>
      </trkpt>
      <trkpt lat="48.66819" lon="-3.50926">
        <ele>103</ele>
        <time>2015-01-04T09:53:17Z</time>
      </trkpt>
      <trkpt lat="48.66824" lon="-3.5092">
        <ele>103</ele>
        <time>2015-01-04T09:53:18Z</time>
      </trkpt>
      <trkpt lat="48.6683" lon="-3.50914">
        <ele>103</ele>
        <time>2015-01-04T09:53:19Z</time>
      </trkpt>
      <trkpt lat="48.66835" lon="-3.50908">
        <ele>103</ele>
        <time>2015-01-04T09:53:20Z</time>
      </trkpt>
      <trkpt lat="48.66841" lon="-3.50903">
        <ele>103</ele>
        <time>2015-01-04T09:53:21Z</time>
      </trkpt>
      <trkpt lat="48.66846" lon="-3.50897">
        <ele>103</ele>
        <time>2015-01-04T09:53:22Z</time>
      </trkpt>
      <trkpt lat="48.66851" lon="-3.50892">
        <ele>103</ele>
        <time>2015-01-04T09:53:23Z</time>
      </trkpt>
      <trkpt lat="48.66857" lon="-3.50887">
        <ele>104</ele>
        <time>2015-01-04T09:53:24Z</time>
      </trkpt>
      <trkpt lat="48.66862" lon="-3.50881">
        <ele>104</ele>
        <time>2015-01-04T09:53:25Z</time>
      </trkpt>
      <trkpt lat="48.66867" lon="-3.50876">
        <ele>104</ele>
        <time>2015-01-04T09:53:26Z</time>
      </trkpt>
      <trkpt lat="48.66873" lon="-3.5087">
        <ele>104</ele>
        <time>2015-01-04T09:53:27Z</time>
      </trkpt>
      <trkpt lat="48.66879" lon="-3.50865">
        <ele>104</ele>
        <time>2015-01-04T09:53:28Z</time>
      </trkpt>
      <trkpt lat="48.66884" lon="-3.5086">
        <ele>104</ele>
        <time>2015-01-04T09:53:29Z</time>
      </trkpt>
      <trkpt lat="48.6689" lon="-3.50854">
        <ele>104</ele>
        <time>2015-01-04T09:53:30Z</time>
      </trkpt>
      <trkpt lat="48.66896" lon="-3.50849">
        <ele>104</ele>
        <time>2015-01-04T09:53:31Z</time>
      </trkpt>
      <trkpt lat="48.66902" lon="-3.50844">
        <ele>104</ele>
        <time>2015-01-04T09:53:32Z</time>
      </trkpt>
      <trkpt lat="48.66908" lon="-3.50839">
        <ele>104</ele>
        <time>2015-01-04T09:53:33Z</time>
      </trkpt>
      <trkpt lat="48.66914" lon="-3.50833">
        <ele>105</ele>
        <time>2015-01-04T09:53:34Z</time>
      </trkpt>
      <trkpt lat="48.6692" lon="-3.50829">
        <ele>105</ele>
        <time>2015-01-04T09:53:35Z</time>
      </trkpt>
      <trkpt lat="48.66927" lon="-3.50824">
        <ele>105</ele>
        <time>2015-01-04T09:53:36Z</time>
      </trkpt>
      <trkpt lat="48.66933" lon="-3.5082">
        <ele>105</ele>
        <time>2015-01-04T09:53:37Z</time>
      </trkpt>
      <trkpt lat="48.6694" lon="-3.50816">
        <ele>105</ele>
        <time>2015-01-04T09:53:38Z</time>
      </trkpt>
      <trkpt lat="48.66946" lon="-3.50811">
        <ele>105</ele>
        <time>2015-01-04T09:53:39Z</time>
      </trkpt>
      <trkpt lat="48.66953" lon="-3.50807">
        <ele>105</ele>
        <time>2015-01-04T09:53:40Z</time>
      </trkpt>
      <trkpt lat="48.66959" lon="-3.50803">
        <ele>105</ele>
        <time>2015-01-04T09:53:41Z</time>
      </trkpt>
      <trkpt lat="48.66966" lon="-3.50798">
        <ele>106</ele>
        <time>2015-01-04T09:53:42Z</time>
      </trkpt>
      <trkpt lat="48.66973" lon="-3.50794">
        <ele>106</ele>
        <time>2015-01-04T09:53:43Z</time>
      </trkpt>
      <trkpt lat="48.6698" lon="-3.5079">
        <ele>106</ele>
        <time>2015-01-04T09:53:44Z</time>
      </trkpt>
      <trkpt lat="48.66986" lon="-3.50786">
        <ele>106</ele>
        <time>2015-01-04T09:53:45Z</time>
      </trkpt>
      <trkpt lat="48.66994" lon="-3.50782">
        <ele>106</ele>
        <time>2015-01-04T09:53:46Z</time>
      </trkpt>
      <trkpt lat="48.67001" lon="-3.50778">
        <ele>106</ele>
        <time>2015-01-04T09:53:47Z</time>
      </trkpt>
      <trkpt lat="48.67008" lon="-3.50774">
        <ele>106</ele>
        <time>2015-01-04T09:53:48Z</time>
      </trkpt>
      <trkpt lat="48.67015" lon="-3.50771">
        <ele>106</ele>
        <time>2015-01-04T09:53:49Z</time>
      </trkpt>
      <trkpt lat="48.67022" lon="-3.50767">
        <ele>106</ele>
        <time>2015-01-04T09:53:50Z</time>
      </trkpt>
      <trkpt lat="48.6703" lon="-3.50764">
        <ele>106</ele>
        <time>2015-01-04T09:53:51Z</time>
      </trkpt>
      <trkpt lat="48.67037" lon="-3.5076">
        <ele>106</ele>
        <time>2015-01-04T09:53:52Z</time>
      </trkpt>
      <trkpt lat="48.67044" lon="-3.50757">
        <ele>107</ele>
        <time>2015-01-04T09:53:53Z</time>
      </trkpt>
      <trkpt lat="48.67052" lon="-3.50753">
        <ele>107</ele>
        <time>2015-01-04T09:53:54Z</time>
      </trkpt>
      <trkpt lat="48.67059" lon="-3.50749">
        <ele>107</ele>
        <time>2015-01-04T09:53:55Z</time>
      </trkpt>
      <trkpt lat="48.67067" lon="-3.50746">
        <ele>107</ele>
        <time>2015-01-04T09:53:56Z</time>
      </trkpt>
      <trkpt lat="48.67074" lon="-3.50743">
        <ele>107</ele>
        <time>2015-01-04T09:53:57Z</time>
      </trkpt>
      <trkpt lat="48.67081" lon="-3.5074">
        <ele>107</ele>
        <time>2015-01-04T09:53:58Z</time>
      </trkpt>
      <trkpt lat="48.67089" lon="-3.50737">
        <ele>107</ele>
        <time>2015-01-04T09:53:59Z</time>
      </trkpt>
      <trkpt lat="48.67096" lon="-3.50735">
        <ele>107</ele>
        <time>2015-01-04T09:54:00Z</time>
      </trkpt>
      <trkpt lat="48.67104" lon="-3.50732">
        <ele>107</ele>
        <time>2015-01-04T09:54:01Z</time>
      </trkpt>
      <trkpt lat="48.67111" lon="-3.5073">
        <ele>107</ele>
        <time>2015-01-04T09:54:02Z</time>
      </trkpt>
      <trkpt lat="48.67119" lon="-3.50728">
        <ele>107</ele>
        <time>2015-01-04T09:54:03Z</time>
      </trkpt>
      <trkpt lat="48.67126" lon="-3.50726">
        <ele>107</ele>
        <time>2015-01-04T09:54:04Z</time>
      </trkpt>
      <trkpt lat="48.67134" lon="-3.50725">
        <ele>107</ele>
        <time>2015-01-04T09:54:05Z</time>
      </trkpt>
      <trkpt lat="48.67141" lon="-3.50724">
        <ele>107</ele>
        <time>2015-01-04T09:54:06Z</time>
      </trkpt>
      <trkpt lat="48.67149" lon="-3.50723">
        <ele>107</ele>
        <time>2015-01-04T09:54:07Z</time>
      </trkpt>
      <trkpt lat="48.67157" lon="-3.50722">
        <ele>107</ele>
        <time>2015-01-04T09:54:08Z</time>
      </trkpt>
      <trkpt lat="48.67164" lon="-3.50722">
        <ele>107</ele>
        <time>2015-01-04T09:54:09Z</time>
      </trkpt>
      <trkpt lat="48.67172" lon="-3.50722">
        <ele>107</ele>
        <time>2015-01-04T09:54:10Z</time>
      </trkpt>
      <trkpt lat="48.6718" lon="-3.50721">
        <ele>107</ele>
        <time>2015-01-04T09:54:11Z</time>
      </trkpt>
      <trkpt lat="48.67188" lon="-3.50721">
        <ele>107</ele>
        <time>2015-01-04T09:54:12Z</time>
      </trkpt>
      <trkpt lat="48.67195" lon="-3.50721">
        <ele>107</ele>
        <time>2015-01-04T09:54:13Z</time>
      </trkpt>
      <trkpt lat="48.6721" lon="-3.50721">
        <ele>107</ele>
        <time>2015-01-04T09:54:15Z</time>
      </trkpt>
      <trkpt lat="48.67218" lon="-3.5072">
        <ele>107</ele>
        <time>2015-01-04T09:54:16Z</time>
      </trkpt>
      <trkpt lat="48.67225" lon="-3.5072">
        <ele>107</ele>
        <time>2015-01-04T09:54:17Z</time>
      </trkpt>
      <trkpt lat="48.67233" lon="-3.50719">
        <ele>107</ele>
        <time>2015-01-04T09:54:18Z</time>
      </trkpt>
      <trkpt lat="48.6724" lon="-3.50718">
        <ele>107</ele>
        <time>2015-01-04T09:54:19Z</time>
      </trkpt>
      <trkpt lat="48.67247" lon="-3.50718">
        <ele>107</ele>
        <time>2015-01-04T09:54:20Z</time>
      </trkpt>
      <trkpt lat="48.67255" lon="-3.50718">
        <ele>107</ele>
        <time>2015-01-04T09:54:21Z</time>
      </trkpt>
      <trkpt lat="48.67262" lon="-3.50718">
        <ele>107</ele>
        <time>2015-01-04T09:54:22Z</time>
      </trkpt>
      <trkpt lat="48.67284" lon="-3.50718">
        <ele>107</ele>
        <time>2015-01-04T09:54:25Z</time>
      </trkpt>
      <trkpt lat="48.67291" lon="-3.50718">
        <ele>107</ele>
        <time>2015-01-04T09:54:26Z</time>
      </trkpt>
      <trkpt lat="48.67299" lon="-3.50718">
        <ele>107</ele>
        <time>2015-01-04T09:54:27Z</time>
      </trkpt>
      <trkpt lat="48.67306" lon="-3.50718">
        <ele>107</ele>
        <time>2015-01-04T09:54:28Z</time>
      </trkpt>
      <trkpt lat="48.67314" lon="-3.50719">
        <ele>107</ele>
        <time>2015-01-04T09:54:29Z</time>
      </trkpt>
      <trkpt lat="48.67321" lon="-3.50719">
        <ele>107</ele>
        <time>2015-01-04T09:54:30Z</time>
      </trkpt>
      <trkpt lat="48.67329" lon="-3.5072">
        <ele>107</ele>
        <time>2015-01-04T09:54:31Z</time>
      </trkpt>
      <trkpt lat="48.67337" lon="-3.5072">
        <ele>107</ele>
        <time>2015-01-04T09:54:32Z</time>
      </trkpt>
      <trkpt lat="48.67345" lon="-3.50721">
        <ele>107</ele>
        <time>2015-01-04T09:54:33Z</time>
      </trkpt>
      <trkpt lat="48.67352" lon="-3.50721">
        <ele>107</ele>
        <time>2015-01-04T09:54:34Z</time>
      </trkpt>
      <trkpt lat="48.6736" lon="-3.50722">
        <ele>107</ele>
        <time>2015-01-04T09:54:35Z</time>
      </trkpt>
      <trkpt lat="48.67367" lon="-3.50722">
        <ele>107</ele>
        <time>2015-01-04T09:54:36Z</time>
      </trkpt>
      <trkpt lat="48.67375" lon="-3.50723">
        <ele>107</ele>
        <time>2015-01-04T09:54:37Z</time>
      </trkpt>
      <trkpt lat="48.67382" lon="-3.50723">
        <ele>107</ele>
        <time>2015-01-04T09:54:38Z</time>
      </trkpt>
      <trkpt lat="48.6739" lon="-3.50723">
        <ele>107</ele>
        <time>2015-01-04T09:54:39Z</time>
      </trkpt>
      <trkpt lat="48.67411" lon="-3.50723">
        <ele>107</ele>
        <time>2015-01-04T09:54:42Z</time>
      </trkpt>
      <trkpt lat="48.67418" lon="-3.50723">
        <ele>107</ele>
        <time>2015-01-04T09:54:43Z</time>
      </trkpt>
      <trkpt lat="48.67425" lon="-3.50722">
        <ele>107</ele>
        <time>2015-01-04T09:54:44Z</time>
      </trkpt>
      <trkpt lat="48.67432" lon="-3.50722">
        <ele>107</ele>
        <time>2015-01-04T09:54:45Z</time>
      </trkpt>
      <trkpt lat="48.67452" lon="-3.50722">
        <ele>107</ele>
        <time>2015-01-04T09:54:48Z</time>
      </trkpt>
      <trkpt lat="48.67459" lon="-3.50722">
        <ele>107</ele>
        <time>2015-01-04T09:54:49Z</time>
      </trkpt>
      <trkpt lat="48.67464" lon="-3.50722">
        <ele>107</ele>
        <time>2015-01-04T09:54:50Z</time>
      </trkpt>
      <trkpt lat="48.6747" lon="-3.50721">
        <ele>107</ele>
        <time>2015-01-04T09:54:51Z</time>
      </trkpt>
      <trkpt lat="48.67475" lon="-3.5072">
        <ele>107</ele>
        <time>2015-01-04T09:54:52Z</time>
      </trkpt>
      <trkpt lat="48.67479" lon="-3.50717">
        <ele>107</ele>
        <time>2015-01-04T09:54:53Z</time>
      </trkpt>
      <trkpt lat="48.67483" lon="-3.50713">
        <ele>107</ele>
        <time>2015-01-04T09:54:54Z</time>
      </trkpt>
      <trkpt lat="48.67487" lon="-3.50708">
        <ele>107</ele>
        <time>2015-01-04T09:54:55Z</time>
      </trkpt>
      <trkpt lat="48.67488" lon="-3.50702">
        <ele>107</ele>
        <time>2015-01-04T09:54:56Z</time>
      </trkpt>
      <trkpt lat="48.67486" lon="-3.50686">
        <ele>107</ele>
        <time>2015-01-04T09:54:58Z</time>
      </trkpt>
      <trkpt lat="48.67482" lon="-3.50679">
        <ele>107</ele>
        <time>2015-01-04T09:54:59Z</time>
      </trkpt>
      <trkpt lat="48.67478" lon="-3.50672">
        <ele>107</ele>
        <time>2015-01-04T09:55:00Z</time>
      </trkpt>
      <trkpt lat="48.67474" lon="-3.50666">
        <ele>107</ele>
        <time>2015-01-04T09:55:01Z</time>
      </trkpt>
      <trkpt lat="48.67469" lon="-3.5066">
        <ele>107</ele>
        <time>2015-01-04T09:55:02Z</time>
      </trkpt>
      <trkpt lat="48.67464" lon="-3.50654">
        <ele>107</ele>
        <time>2015-01-04T09:55:03Z</time>
      </trkpt>
      <trkpt lat="48.67459" lon="-3.50648">
        <ele>107</ele>
        <time>2015-01-04T09:55:04Z</time>
      </trkpt>
      <trkpt lat="48.67454" lon="-3.50642">
        <ele>107</ele>
        <time>2015-01-04T09:55:05Z</time>
      </trkpt>
      <trkpt lat="48.67449" lon="-3.50638">
        <ele>107</ele>
        <time>2015-01-04T09:55:06Z</time>
      </trkpt>
      <trkpt lat="48.67444" lon="-3.50633">
        <ele>107</ele>
        <time>2015-01-04T09:55:07Z</time>
      </trkpt>
      <trkpt lat="48.67439" lon="-3.50627">
        <ele>107</ele>
        <time>2015-01-04T09:55:08Z</time>
      </trkpt>
      <trkpt lat="48.67434" lon="-3.50621">
        <ele>107</ele>
        <time>2015-01-04T09:55:09Z</time>
      </trkpt>
      <trkpt lat="48.67428" lon="-3.50616">
        <ele>107</ele>
        <time>2015-01-04T09:55:10Z</time>
      </trkpt>
      <trkpt lat="48.67423" lon="-3.5061">
        <ele>107</ele>
        <time>2015-01-04T09:55:11Z</time>
      </trkpt>
      <trkpt lat="48.67417" lon="-3.50604">
        <ele>107</ele>
        <time>2015-01-04T09:55:12Z</time>
      </trkpt>
      <trkpt lat="48.67411" lon="-3.50597">
        <ele>107</ele>
        <time>2015-01-04T09:55:13Z</time>
      </trkpt>
      <trkpt lat="48.67405" lon="-3.50591">
        <ele>107</ele>
        <time>2015-01-04T09:55:14Z</time>
      </trkpt>
      <trkpt lat="48.67399" lon="-3.50585">
        <ele>107</ele>
        <time>2015-01-04T09:55:15Z</time>
      </trkpt>
      <trkpt lat="48.67393" lon="-3.50579">
        <ele>107</ele>
        <time>2015-01-04T09:55:16Z</time>
      </trkpt>
      <trkpt lat="48.67388" lon="-3.50572">
        <ele>107</ele>
        <time>2015-01-04T09:55:17Z</time>
      </trkpt>
      <trkpt lat="48.67382" lon="-3.50567">
        <ele>107</ele>
        <time>2015-01-04T09:55:18Z</time>
      </trkpt>
      <trkpt lat="48.67376" lon="-3.50561">
        <ele>107</ele>
        <time>2015-01-04T09:55:19Z</time>
      </trkpt>
      <trkpt lat="48.6737" lon="-3.50555">
        <ele>107</ele>
        <time>2015-01-04T09:55:20Z</time>
      </trkpt>
      <trkpt lat="48.67365" lon="-3.50549">
        <ele>107</ele>
        <time>2015-01-04T09:55:21Z</time>
      </trkpt>
      <trkpt lat="48.67359" lon="-3.50543">
        <ele>107</ele>
        <time>2015-01-04T09:55:22Z</time>
      </trkpt>
      <trkpt lat="48.67353" lon="-3.50537">
        <ele>107</ele>
        <time>2015-01-04T09:55:23Z</time>
      </trkpt>
      <trkpt lat="48.67348" lon="-3.50531">
        <ele>107</ele>
        <time>2015-01-04T09:55:24Z</time>
      </trkpt>
      <trkpt lat="48.67342" lon="-3.50525">
        <ele>107</ele>
        <time>2015-01-04T09:55:25Z</time>
      </trkpt>
      <trkpt lat="48.67337" lon="-3.50519">
        <ele>107</ele>
        <time>2015-01-04T09:55:26Z</time>
      </trkpt>
      <trkpt lat="48.67331" lon="-3.50514">
        <ele>107</ele>
        <time>2015-01-04T09:55:27Z</time>
      </trkpt>
      <trkpt lat="48.67325" lon="-3.50508">
        <ele>107</ele>
        <time>2015-01-04T09:55:28Z</time>
      </trkpt>
      <trkpt lat="48.6732" lon="-3.50502">
        <ele>108</ele>
        <time>2015-01-04T09:55:29Z</time>
      </trkpt>
      <trkpt lat="48.67314" lon="-3.50497">
        <ele>108</ele>
        <time>2015-01-04T09:55:30Z</time>
      </trkpt>
      <trkpt lat="48.67309" lon="-3.50491">
        <ele>108</ele>
        <time>2015-01-04T09:55:31Z</time>
      </trkpt>
      <trkpt lat="48.67304" lon="-3.50486">
        <ele>108</ele>
        <time>2015-01-04T09:55:32Z</time>
      </trkpt>
      <trkpt lat="48.67299" lon="-3.50481">
        <ele>108</ele>
        <time>2015-01-04T09:55:33Z</time>
      </trkpt>
      <trkpt lat="48.67294" lon="-3.50476">
        <ele>109</ele>
        <time>2015-01-04T09:55:34Z</time>
      </trkpt>
      <trkpt lat="48.67288" lon="-3.5047">
        <ele>109</ele>
        <time>2015-01-04T09:55:35Z</time>
      </trkpt>
      <trkpt lat="48.67283" lon="-3.50464">
        <ele>109</ele>
        <time>2015-01-04T09:55:36Z</time>
      </trkpt>
      <trkpt lat="48.67278" lon="-3.50457">
        <ele>109</ele>
        <time>2015-01-04T09:55:37Z</time>
      </trkpt>
      <trkpt lat="48.67273" lon="-3.5045">
        <ele>109</ele>
        <time>2015-01-04T09:55:38Z</time>
      </trkpt>
      <trkpt lat="48.67268" lon="-3.50442">
        <ele>109</ele>
        <time>2015-01-04T09:55:39Z</time>
      </trkpt>
      <trkpt lat="48.67263" lon="-3.50434">
        <ele>109</ele>
        <time>2015-01-04T09:55:40Z</time>
      </trkpt>
      <trkpt lat="48.67258" lon="-3.50426">
        <ele>109</ele>
        <time>2015-01-04T09:55:41Z</time>
      </trkpt>
      <trkpt lat="48.67253" lon="-3.50418">
        <ele>109</ele>
        <time>2015-01-04T09:55:42Z</time>
      </trkpt>
      <trkpt lat="48.67249" lon="-3.5041">
        <ele>109</ele>
        <time>2015-01-04T09:55:43Z</time>
      </trkpt>
      <trkpt lat="48.67245" lon="-3.50401">
        <ele>110</ele>
        <time>2015-01-04T09:55:44Z</time>
      </trkpt>
      <trkpt lat="48.67241" lon="-3.50392">
        <ele>110</ele>
        <time>2015-01-04T09:55:45Z</time>
      </trkpt>
      <trkpt lat="48.67237" lon="-3.50382">
        <ele>110</ele>
        <time>2015-01-04T09:55:46Z</time>
      </trkpt>
      <trkpt lat="48.67234" lon="-3.50373">
        <ele>110</ele>
        <time>2015-01-04T09:55:47Z</time>
      </trkpt>
      <trkpt lat="48.6723" lon="-3.50363">
        <ele>110</ele>
        <time>2015-01-04T09:55:48Z</time>
      </trkpt>
      <trkpt lat="48.67227" lon="-3.50353">
        <ele>110</ele>
        <time>2015-01-04T09:55:49Z</time>
      </trkpt>
      <trkpt lat="48.67224" lon="-3.50343">
        <ele>111</ele>
        <time>2015-01-04T09:55:50Z</time>
      </trkpt>
      <trkpt lat="48.67221" lon="-3.50333">
        <ele>111</ele>
        <time>2015-01-04T09:55:51Z</time>
      </trkpt>
      <trkpt lat="48.67218" lon="-3.50323">
        <ele>111</ele>
        <time>2015-01-04T09:55:52Z</time>
      </trkpt>
      <trkpt lat="48.67215" lon="-3.50313">
        <ele>111</ele>
        <time>2015-01-04T09:55:53Z</time>
      </trkpt>
      <trkpt lat="48.67213" lon="-3.50303">
        <ele>111</ele>
        <time>2015-01-04T09:55:54Z</time>
      </trkpt>
      <trkpt lat="48.6721" lon="-3.50293">
        <ele>111</ele>
        <time>2015-01-04T09:55:55Z</time>
      </trkpt>
      <trkpt lat="48.67207" lon="-3.50283">
        <ele>111</ele>
        <time>2015-01-04T09:55:56Z</time>
      </trkpt>
      <trkpt lat="48.67205" lon="-3.50272">
        <ele>111</ele>
        <time>2015-01-04T09:55:57Z</time>
      </trkpt>
      <trkpt lat="48.67202" lon="-3.50262">
        <ele>112</ele>
        <time>2015-01-04T09:55:58Z</time>
      </trkpt>
      <trkpt lat="48.67199" lon="-3.50252">
        <ele>112</ele>
        <time>2015-01-04T09:55:59Z</time>
      </trkpt>
      <trkpt lat="48.67197" lon="-3.50241">
        <ele>112</ele>
        <time>2015-01-04T09:56:00Z</time>
      </trkpt>
      <trkpt lat="48.67194" lon="-3.50231">
        <ele>112</ele>
        <time>2015-01-04T09:56:01Z</time>
      </trkpt>
      <trkpt lat="48.67191" lon="-3.50221">
        <ele>112</ele>
        <time>2015-01-04T09:56:02Z</time>
      </trkpt>
      <trkpt lat="48.67189" lon="-3.5021">
        <ele>112</ele>
        <time>2015-01-04T09:56:03Z</time>
      </trkpt>
      <trkpt lat="48.67186" lon="-3.502">
        <ele>112</ele>
        <time>2015-01-04T09:56:04Z</time>
      </trkpt>
      <trkpt lat="48.67183" lon="-3.50189">
        <ele>112</ele>
        <time>2015-01-04T09:56:05Z</time>
      </trkpt>
      <trkpt lat="48.6718" lon="-3.50178">
        <ele>112</ele>
        <time>2015-01-04T09:56:06Z</time>
      </trkpt>
      <trkpt lat="48.67178" lon="-3.50168">
        <ele>112</ele>
        <time>2015-01-04T09:56:07Z</time>
      </trkpt>
      <trkpt lat="48.67175" lon="-3.50157">
        <ele>112</ele>
        <time>2015-01-04T09:56:08Z</time>
      </trkpt>
      <trkpt lat="48.67172" lon="-3.50146">
        <ele>112</ele>
        <time>2015-01-04T09:56:09Z</time>
      </trkpt>
      <trkpt lat="48.67169" lon="-3.50135">
        <ele>112</ele>
        <time>2015-01-04T09:56:10Z</time>
      </trkpt>
      <trkpt lat="48.67167" lon="-3.50125">
        <ele>112</ele>
        <time>2015-01-04T09:56:11Z</time>
      </trkpt>
      <trkpt lat="48.67164" lon="-3.50114">
        <ele>112</ele>
        <time>2015-01-04T09:56:12Z</time>
      </trkpt>
      <trkpt lat="48.67161" lon="-3.50103">
        <ele>112</ele>
        <time>2015-01-04T09:56:13Z</time>
      </trkpt>
      <trkpt lat="48.67158" lon="-3.50092">
        <ele>112</ele>
        <time>2015-01-04T09:56:14Z</time>
      </trkpt>
      <trkpt lat="48.67155" lon="-3.50081">
        <ele>112</ele>
        <time>2015-01-04T09:56:15Z</time>
      </trkpt>
      <trkpt lat="48.67153" lon="-3.5007">
        <ele>112</ele>
        <time>2015-01-04T09:56:16Z</time>
      </trkpt>
      <trkpt lat="48.6715" lon="-3.50059">
        <ele>112</ele>
        <time>2015-01-04T09:56:17Z</time>
      </trkpt>
      <trkpt lat="48.67147" lon="-3.50047">
        <ele>113</ele>
        <time>2015-01-04T09:56:18Z</time>
      </trkpt>
      <trkpt lat="48.67145" lon="-3.50036">
        <ele>113</ele>
        <time>2015-01-04T09:56:19Z</time>
      </trkpt>
      <trkpt lat="48.67142" lon="-3.50024">
        <ele>113</ele>
        <time>2015-01-04T09:56:20Z</time>
      </trkpt>
      <trkpt lat="48.6714" lon="-3.50012">
        <ele>113</ele>
        <time>2015-01-04T09:56:21Z</time>
      </trkpt>
      <trkpt lat="48.67138" lon="-3.50001">
        <ele>113</ele>
        <time>2015-01-04T09:56:22Z</time>
      </trkpt>
      <trkpt lat="48.67136" lon="-3.49989">
        <ele>113</ele>
        <time>2015-01-04T09:56:23Z</time>
      </trkpt>
      <trkpt lat="48.67134" lon="-3.49977">
        <ele>113</ele>
        <time>2015-01-04T09:56:24Z</time>
      </trkpt>
      <trkpt lat="48.67133" lon="-3.49965">
        <ele>113</ele>
        <time>2015-01-04T09:56:25Z</time>
      </trkpt>
      <trkpt lat="48.67131" lon="-3.49953">
        <ele>113</ele>
        <time>2015-01-04T09:56:26Z</time>
      </trkpt>
      <trkpt lat="48.6713" lon="-3.49941">
        <ele>113</ele>
        <time>2015-01-04T09:56:27Z</time>
      </trkpt>
      <trkpt lat="48.67128" lon="-3.4993">
        <ele>113</ele>
        <time>2015-01-04T09:56:28Z</time>
      </trkpt>
      <trkpt lat="48.67127" lon="-3.49918">
        <ele>113</ele>
        <time>2015-01-04T09:56:29Z</time>
      </trkpt>
      <trkpt lat="48.67125" lon="-3.49906">
        <ele>113</ele>
        <time>2015-01-04T09:56:30Z</time>
      </trkpt>
      <trkpt lat="48.67124" lon="-3.49895">
        <ele>113</ele>
        <time>2015-01-04T09:56:31Z</time>
      </trkpt>
      <trkpt lat="48.67122" lon="-3.49883">
        <ele>113</ele>
        <time>2015-01-04T09:56:32Z</time>
      </trkpt>
      <trkpt lat="48.67121" lon="-3.49871">
        <ele>113</ele>
        <time>2015-01-04T09:56:33Z</time>
      </trkpt>
      <trkpt lat="48.67119" lon="-3.4986">
        <ele>113</ele>
        <time>2015-01-04T09:56:34Z</time>
      </trkpt>
      <trkpt lat="48.67118" lon="-3.49848">
        <ele>113</ele>
        <time>2015-01-04T09:56:35Z</time>
      </trkpt>
      <trkpt lat="48.67116" lon="-3.49837">
        <ele>113</ele>
        <time>2015-01-04T09:56:36Z</time>
      </trkpt>
      <trkpt lat="48.67115" lon="-3.49826">
        <ele>113</ele>
        <time>2015-01-04T09:56:37Z</time>
      </trkpt>
      <trkpt lat="48.67113" lon="-3.49814">
        <ele>113</ele>
        <time>2015-01-04T09:56:38Z</time>
      </trkpt>
      <trkpt lat="48.67112" lon="-3.49803">
        <ele>113</ele>
        <time>2015-01-04T09:56:39Z</time>
      </trkpt>
      <trkpt lat="48.6711" lon="-3.49792">
        <ele>113</ele>
        <time>2015-01-04T09:56:40Z</time>
      </trkpt>
      <trkpt lat="48.67109" lon="-3.4978">
        <ele>113</ele>
        <time>2015-01-04T09:56:41Z</time>
      </trkpt>
      <trkpt lat="48.67107" lon="-3.49769">
        <ele>113</ele>
        <time>2015-01-04T09:56:42Z</time>
      </trkpt>
      <trkpt lat="48.67106" lon="-3.49758">
        <ele>113</ele>
        <time>2015-01-04T09:56:43Z</time>
      </trkpt>
      <trkpt lat="48.67104" lon="-3.49746">
        <ele>114</ele>
        <time>2015-01-04T09:56:44Z</time>
      </trkpt>
      <trkpt lat="48.67102" lon="-3.49735">
        <ele>114</ele>
        <time>2015-01-04T09:56:45Z</time>
      </trkpt>
      <trkpt lat="48.67101" lon="-3.49724">
        <ele>114</ele>
        <time>2015-01-04T09:56:46Z</time>
      </trkpt>
      <trkpt lat="48.67099" lon="-3.49713">
        <ele>114</ele>
        <time>2015-01-04T09:56:47Z</time>
      </trkpt>
      <trkpt lat="48.67096" lon="-3.49702">
        <ele>114</ele>
        <time>2015-01-04T09:56:48Z</time>
      </trkpt>
      <trkpt lat="48.67094" lon="-3.49691">
        <ele>114</ele>
        <time>2015-01-04T09:56:49Z</time>
      </trkpt>
      <trkpt lat="48.67092" lon="-3.4968">
        <ele>114</ele>
        <time>2015-01-04T09:56:50Z</time>
      </trkpt>
      <trkpt lat="48.67089" lon="-3.49669">
        <ele>114</ele>
        <time>2015-01-04T09:56:51Z</time>
      </trkpt>
      <trkpt lat="48.67087" lon="-3.49659">
        <ele>114</ele>
        <time>2015-01-04T09:56:52Z</time>
      </trkpt>
      <trkpt lat="48.67084" lon="-3.49648">
        <ele>114</ele>
        <time>2015-01-04T09:56:53Z</time>
      </trkpt>
      <trkpt lat="48.67081" lon="-3.49638">
        <ele>114</ele>
        <time>2015-01-04T09:56:54Z</time>
      </trkpt>
      <trkpt lat="48.67078" lon="-3.49628">
        <ele>114</ele>
        <time>2015-01-04T09:56:55Z</time>
      </trkpt>
      <trkpt lat="48.67075" lon="-3.49618">
        <ele>114</ele>
        <time>2015-01-04T09:56:56Z</time>
      </trkpt>
      <trkpt lat="48.67072" lon="-3.49609">
        <ele>115</ele>
        <time>2015-01-04T09:56:57Z</time>
      </trkpt>
      <trkpt lat="48.67069" lon="-3.496">
        <ele>115</ele>
        <time>2015-01-04T09:56:58Z</time>
      </trkpt>
      <trkpt lat="48.67066" lon="-3.4959">
        <ele>115</ele>
        <time>2015-01-04T09:56:59Z</time>
      </trkpt>
      <trkpt lat="48.67063" lon="-3.49581">
        <ele>115</ele>
        <time>2015-01-04T09:57:00Z</time>
      </trkpt>
      <trkpt lat="48.6706" lon="-3.49572">
        <ele>115</ele>
        <time>2015-01-04T09:57:01Z</time>
      </trkpt>
      <trkpt lat="48.67057" lon="-3.49564">
        <ele>115</ele>
        <time>2015-01-04T09:57:02Z</time>
      </trkpt>
      <trkpt lat="48.67054" lon="-3.49555">
        <ele>116</ele>
        <time>2015-01-04T09:57:03Z</time>
      </trkpt>
      <trkpt lat="48.67051" lon="-3.49547">
        <ele>116</ele>
        <time>2015-01-04T09:57:04Z</time>
      </trkpt>
      <trkpt lat="48.67048" lon="-3.49539">
        <ele>116</ele>
        <time>2015-01-04T09:57:05Z</time>
      </trkpt>
      <trkpt lat="48.67046" lon="-3.49532">
        <ele>116</ele>
        <time>2015-01-04T09:57:06Z</time>
      </trkpt>
      <trkpt lat="48.67044" lon="-3.49524">
        <ele>116</ele>
        <time>2015-01-04T09:57:07Z</time>
      </trkpt>
      <trkpt lat="48.67042" lon="-3.49515">
        <ele>116</ele>
        <time>2015-01-04T09:57:08Z</time>
      </trkpt>
      <trkpt lat="48.67039" lon="-3.49507">
        <ele>117</ele>
        <time>2015-01-04T09:57:09Z</time>
      </trkpt>
      <trkpt lat="48.67037" lon="-3.49498">
        <ele>117</ele>
        <time>2015-01-04T09:57:10Z</time>
      </trkpt>
      <trkpt lat="48.67034" lon="-3.4949">
        <ele>117</ele>
        <time>2015-01-04T09:57:11Z</time>
      </trkpt>
      <trkpt lat="48.67031" lon="-3.49482">
        <ele>117</ele>
        <time>2015-01-04T09:57:12Z</time>
      </trkpt>
      <trkpt lat="48.67028" lon="-3.49474">
        <ele>117</ele>
        <time>2015-01-04T09:57:13Z</time>
      </trkpt>
      <trkpt lat="48.67026" lon="-3.49465">
        <ele>117</ele>
        <time>2015-01-04T09:57:14Z</time>
      </trkpt>
      <trkpt lat="48.67023" lon="-3.49458">
        <ele>118</ele>
        <time>2015-01-04T09:57:15Z</time>
      </trkpt>
      <trkpt lat="48.6702" lon="-3.49449">
        <ele>118</ele>
        <time>2015-01-04T09:57:16Z</time>
      </trkpt>
      <trkpt lat="48.67018" lon="-3.49442">
        <ele>118</ele>
        <time>2015-01-04T09:57:17Z</time>
      </trkpt>
      <trkpt lat="48.67015" lon="-3.49434">
        <ele>118</ele>
        <time>2015-01-04T09:57:18Z</time>
      </trkpt>
      <trkpt lat="48.67012" lon="-3.49426">
        <ele>118</ele>
        <time>2015-01-04T09:57:19Z</time>
      </trkpt>
      <trkpt lat="48.6701" lon="-3.49418">
        <ele>119</ele>
        <time>2015-01-04T09:57:20Z</time>
      </trkpt>
      <trkpt lat="48.67007" lon="-3.4941">
        <ele>119</ele>
        <time>2015-01-04T09:57:21Z</time>
      </trkpt>
      <trkpt lat="48.67004" lon="-3.49402">
        <ele>119</ele>
        <time>2015-01-04T09:57:22Z</time>
      </trkpt>
      <trkpt lat="48.67002" lon="-3.49394">
        <ele>119</ele>
        <time>2015-01-04T09:57:23Z</time>
      </trkpt>
      <trkpt lat="48.66999" lon="-3.49387">
        <ele>119</ele>
        <time>2015-01-04T09:57:24Z</time>
      </trkpt>
      <trkpt lat="48.66996" lon="-3.49379">
        <ele>119</ele>
        <time>2015-01-04T09:57:25Z</time>
      </trkpt>
      <trkpt lat="48.66993" lon="-3.49371">
        <ele>119</ele>
        <time>2015-01-04T09:57:26Z</time>
      </trkpt>
      <trkpt lat="48.6699" lon="-3.49363">
        <ele>120</ele>
        <time>2015-01-04T09:57:27Z</time>
      </trkpt>
      <trkpt lat="48.66986" lon="-3.49356">
        <ele>120</ele>
        <time>2015-01-04T09:57:28Z</time>
      </trkpt>
      <trkpt lat="48.66983" lon="-3.49349">
        <ele>120</ele>
        <time>2015-01-04T09:57:29Z</time>
      </trkpt>
      <trkpt lat="48.66978" lon="-3.49342">
        <ele>120</ele>
        <time>2015-01-04T09:57:30Z</time>
      </trkpt>
      <trkpt lat="48.66974" lon="-3.49335">
        <ele>120</ele>
        <time>2015-01-04T09:57:31Z</time>
      </trkpt>
      <trkpt lat="48.66969" lon="-3.49327">
        <ele>120</ele>
        <time>2015-01-04T09:57:32Z</time>
      </trkpt>
      <trkpt lat="48.66964" lon="-3.49321">
        <ele>120</ele>
        <time>2015-01-04T09:57:33Z</time>
      </trkpt>
      <trkpt lat="48.66959" lon="-3.49314">
        <ele>120</ele>
        <time>2015-01-04T09:57:34Z</time>
      </trkpt>
      <trkpt lat="48.66953" lon="-3.49307">
        <ele>120</ele>
        <time>2015-01-04T09:57:35Z</time>
      </trkpt>
      <trkpt lat="48.66947" lon="-3.49301">
        <ele>120</ele>
        <time>2015-01-04T09:57:36Z</time>
      </trkpt>
      <trkpt lat="48.66941" lon="-3.49294">
        <ele>120</ele>
        <time>2015-01-04T09:57:37Z</time>
      </trkpt>
      <trkpt lat="48.66935" lon="-3.49287">
        <ele>120</ele>
        <time>2015-01-04T09:57:38Z</time>
      </trkpt>
      <trkpt lat="48.66929" lon="-3.4928">
        <ele>120</ele>
        <time>2015-01-04T09:57:39Z</time>
      </trkpt>
      <trkpt lat="48.66922" lon="-3.49273">
        <ele>120</ele>
        <time>2015-01-04T09:57:40Z</time>
      </trkpt>
      <trkpt lat="48.66916" lon="-3.49266">
        <ele>120</ele>
        <time>2015-01-04T09:57:41Z</time>
      </trkpt>
      <trkpt lat="48.66909" lon="-3.49259">
        <ele>120</ele>
        <time>2015-01-04T09:57:42Z</time>
      </trkpt>
      <trkpt lat="48.66903" lon="-3.49253">
        <ele>120</ele>
        <time>2015-01-04T09:57:43Z</time>
      </trkpt>
      <trkpt lat="48.66897" lon="-3.49246">
        <ele>120</ele>
        <time>2015-01-04T09:57:44Z</time>
      </trkpt>
      <trkpt lat="48.6689" lon="-3.49239">
        <ele>120</ele>
        <time>2015-01-04T09:57:45Z</time>
      </trkpt>
      <trkpt lat="48.66884" lon="-3.49232">
        <ele>120</ele>
        <time>2015-01-04T09:57:46Z</time>
      </trkpt>
      <trkpt lat="48.66877" lon="-3.49225">
        <ele>120</ele>
        <time>2015-01-04T09:57:47Z</time>
      </trkpt>
      <trkpt lat="48.66872" lon="-3.49218">
        <ele>120</ele>
        <time>2015-01-04T09:57:48Z</time>
      </trkpt>
      <trkpt lat="48.66865" lon="-3.4921">
        <ele>120</ele>
        <time>2015-01-04T09:57:49Z</time>
      </trkpt>
      <trkpt lat="48.66859" lon="-3.49203">
        <ele>120</ele>
        <time>2015-01-04T09:57:50Z</time>
      </trkpt>
      <trkpt lat="48.66853" lon="-3.49195">
        <ele>120</ele>
        <time>2015-01-04T09:57:51Z</time>
      </trkpt>
      <trkpt lat="48.66847" lon="-3.49187">
        <ele>120</ele>
        <time>2015-01-04T09:57:52Z</time>
      </trkpt>
      <trkpt lat="48.66842" lon="-3.49179">
        <ele>120</ele>
        <time>2015-01-04T09:57:53Z</time>
      </trkpt>
      <trkpt lat="48.66836" lon="-3.4917">
        <ele>120</ele>
        <time>2015-01-04T09:57:54Z</time>
      </trkpt>
      <trkpt lat="48.6683" lon="-3.49161">
        <ele>120</ele>
        <time>2015-01-04T09:57:55Z</time>
      </trkpt>
      <trkpt lat="48.66824" lon="-3.49153">
        <ele>120</ele>
        <time>2015-01-04T09:57:56Z</time>
      </trkpt>
      <trkpt lat="48.66819" lon="-3.49144">
        <ele>120</ele>
        <time>2015-01-04T09:57:57Z</time>
      </trkpt>
      <trkpt lat="48.66813" lon="-3.49135">
        <ele>120</ele>
        <time>2015-01-04T09:57:58Z</time>
      </trkpt>
      <trkpt lat="48.66807" lon="-3.49127">
        <ele>120</ele>
        <time>2015-01-04T09:57:59Z</time>
      </trkpt>
      <trkpt lat="48.66801" lon="-3.49118">
        <ele>120</ele>
        <time>2015-01-04T09:58:00Z</time>
      </trkpt>
      <trkpt lat="48.66795" lon="-3.4911">
        <ele>120</ele>
        <time>2015-01-04T09:58:01Z</time>
      </trkpt>
      <trkpt lat="48.6679" lon="-3.49101">
        <ele>120</ele>
        <time>2015-01-04T09:58:02Z</time>
      </trkpt>
      <trkpt lat="48.66784" lon="-3.49093">
        <ele>120</ele>
        <time>2015-01-04T09:58:03Z</time>
      </trkpt>
      <trkpt lat="48.66778" lon="-3.49084">
        <ele>120</ele>
        <time>2015-01-04T09:58:04Z</time>
      </trkpt>
      <trkpt lat="48.66772" lon="-3.49075">
        <ele>120</ele>
        <time>2015-01-04T09:58:05Z</time>
      </trkpt>
      <trkpt lat="48.66766" lon="-3.49066">
        <ele>120</ele>
        <time>2015-01-04T09:58:06Z</time>
      </trkpt>
      <trkpt lat="48.6676" lon="-3.49058">
        <ele>120</ele>
        <time>2015-01-04T09:58:07Z</time>
      </trkpt>
      <trkpt lat="48.66754" lon="-3.49049">
        <ele>119</ele>
        <time>2015-01-04T09:58:08Z</time>
      </trkpt>
      <trkpt lat="48.66748" lon="-3.4904">
        <ele>119</ele>
        <time>2015-01-04T09:58:09Z</time>
      </trkpt>
      <trkpt lat="48.66742" lon="-3.49031">
        <ele>119</ele>
        <time>2015-01-04T09:58:10Z</time>
      </trkpt>
      <trkpt lat="48.66736" lon="-3.49022">
        <ele>119</ele>
        <time>2015-01-04T09:58:11Z</time>
      </trkpt>
      <trkpt lat="48.6673" lon="-3.49014">
        <ele>119</ele>
        <time>2015-01-04T09:58:12Z</time>
      </trkpt>
      <trkpt lat="48.66724" lon="-3.49005">
        <ele>118</ele>
        <time>2015-01-04T09:58:13Z</time>
      </trkpt>
      <trkpt lat="48.66718" lon="-3.48996">
        <ele>118</ele>
        <time>2015-01-04T09:58:14Z</time>
      </trkpt>
      <trkpt lat="48.66712" lon="-3.48986">
        <ele>118</ele>
        <time>2015-01-04T09:58:15Z</time>
      </trkpt>
      <trkpt lat="48.66706" lon="-3.48977">
        <ele>118</ele>
        <time>2015-01-04T09:58:16Z</time>
      </trkpt>
      <trkpt lat="48.667" lon="-3.48967">
        <ele>118</ele>
        <time>2015-01-04T09:58:17Z</time>
      </trkpt>
      <trkpt lat="48.66694" lon="-3.48957">
        <ele>118</ele>
        <time>2015-01-04T09:58:18Z</time>
      </trkpt>
      <trkpt lat="48.66688" lon="-3.48947">
        <ele>118</ele>
        <time>2015-01-04T09:58:19Z</time>
      </trkpt>
      <trkpt lat="48.66682" lon="-3.48937">
        <ele>118</ele>
        <time>2015-01-04T09:58:20Z</time>
      </trkpt>
      <trkpt lat="48.66677" lon="-3.48926">
        <ele>118</ele>
        <time>2015-01-04T09:58:21Z</time>
      </trkpt>
      <trkpt lat="48.66673" lon="-3.48915">
        <ele>117</ele>
        <time>2015-01-04T09:58:22Z</time>
      </trkpt>
      <trkpt lat="48.66668" lon="-3.48904">
        <ele>117</ele>
        <time>2015-01-04T09:58:23Z</time>
      </trkpt>
      <trkpt lat="48.66664" lon="-3.48894">
        <ele>117</ele>
        <time>2015-01-04T09:58:24Z</time>
      </trkpt>
      <trkpt lat="48.6666" lon="-3.48883">
        <ele>117</ele>
        <time>2015-01-04T09:58:25Z</time>
      </trkpt>
      <trkpt lat="48.66656" lon="-3.48872">
        <ele>117</ele>
        <time>2015-01-04T09:58:26Z</time>
      </trkpt>
      <trkpt lat="48.66652" lon="-3.48861">
        <ele>117</ele>
        <time>2015-01-04T09:58:27Z</time>
      </trkpt>
      <trkpt lat="48.66647" lon="-3.48849">
        <ele>117</ele>
        <time>2015-01-04T09:58:28Z</time>
      </trkpt>
      <trkpt lat="48.66643" lon="-3.48838">
        <ele>117</ele>
        <time>2015-01-04T09:58:29Z</time>
      </trkpt>
      <trkpt lat="48.66638" lon="-3.48826">
        <ele>117</ele>
        <time>2015-01-04T09:58:30Z</time>
      </trkpt>
      <trkpt lat="48.66634" lon="-3.48815">
        <ele>117</ele>
        <time>2015-01-04T09:58:31Z</time>
      </trkpt>
      <trkpt lat="48.66629" lon="-3.48803">
        <ele>117</ele>
        <time>2015-01-04T09:58:32Z</time>
      </trkpt>
      <trkpt lat="48.66624" lon="-3.48792">
        <ele>117</ele>
        <time>2015-01-04T09:58:33Z</time>
      </trkpt>
      <trkpt lat="48.66619" lon="-3.48781">
        <ele>117</ele>
        <time>2015-01-04T09:58:34Z</time>
      </trkpt>
      <trkpt lat="48.66614" lon="-3.4877">
        <ele>116</ele>
        <time>2015-01-04T09:58:35Z</time>
      </trkpt>
      <trkpt lat="48.66609" lon="-3.4876">
        <ele>116</ele>
        <time>2015-01-04T09:58:36Z</time>
      </trkpt>
      <trkpt lat="48.66604" lon="-3.48748">
        <ele>116</ele>
        <time>2015-01-04T09:58:37Z</time>
      </trkpt>
      <trkpt lat="48.66599" lon="-3.48738">
        <ele>116</ele>
        <time>2015-01-04T09:58:38Z</time>
      </trkpt>
      <trkpt lat="48.66593" lon="-3.48727">
        <ele>116</ele>
        <time>2015-01-04T09:58:39Z</time>
      </trkpt>
      <trkpt lat="48.66587" lon="-3.48716">
        <ele>116</ele>
        <time>2015-01-04T09:58:40Z</time>
      </trkpt>
      <trkpt lat="48.66582" lon="-3.48705">
        <ele>115</ele>
        <time>2015-01-04T09:58:41Z</time>
      </trkpt>
      <trkpt lat="48.66576" lon="-3.48694">
        <ele>115</ele>
        <time>2015-01-04T09:58:42Z</time>
      </trkpt>
      <trkpt lat="48.66571" lon="-3.48683">
        <ele>115</ele>
        <time>2015-01-04T09:58:43Z</time>
      </trkpt>
      <trkpt lat="48.66565" lon="-3.48672">
        <ele>115</ele>
        <time>2015-01-04T09:58:44Z</time>
      </trkpt>
      <trkpt lat="48.66559" lon="-3.48661">
        <ele>115</ele>
        <time>2015-01-04T09:58:45Z</time>
      </trkpt>
      <trkpt lat="48.66554" lon="-3.4865">
        <ele>115</ele>
        <time>2015-01-04T09:58:46Z</time>
      </trkpt>
      <trkpt lat="48.66548" lon="-3.48639">
        <ele>114</ele>
        <time>2015-01-04T09:58:47Z</time>
      </trkpt>
      <trkpt lat="48.66542" lon="-3.48628">
        <ele>114</ele>
        <time>2015-01-04T09:58:48Z</time>
      </trkpt>
      <trkpt lat="48.66536" lon="-3.48617">
        <ele>114</ele>
        <time>2015-01-04T09:58:49Z</time>
      </trkpt>
      <trkpt lat="48.66531" lon="-3.48606">
        <ele>114</ele>
        <time>2015-01-04T09:58:50Z</time>
      </trkpt>
      <trkpt lat="48.66525" lon="-3.48596">
        <ele>114</ele>
        <time>2015-01-04T09:58:51Z</time>
      </trkpt>
      <trkpt lat="48.66519" lon="-3.48585">
        <ele>113</ele>
        <time>2015-01-04T09:58:52Z</time>
      </trkpt>
      <trkpt lat="48.66513" lon="-3.48573">
        <ele>113</ele>
        <time>2015-01-04T09:58:53Z</time>
      </trkpt>
      <trkpt lat="48.66508" lon="-3.48562">
        <ele>113</ele>
        <time>2015-01-04T09:58:54Z</time>
      </trkpt>
      <trkpt lat="48.66502" lon="-3.48551">
        <ele>113</ele>
        <time>2015-01-04T09:58:55Z</time>
      </trkpt>
      <trkpt lat="48.66497" lon="-3.48539">
        <ele>113</ele>
        <time>2015-01-04T09:58:56Z</time>
      </trkpt>
      <trkpt lat="48.66492" lon="-3.48527">
        <ele>112</ele>
        <time>2015-01-04T09:58:57Z</time>
      </trkpt>
      <trkpt lat="48.66487" lon="-3.48515">
        <ele>112</ele>
        <time>2015-01-04T09:58:58Z</time>
      </trkpt>
      <trkpt lat="48.66483" lon="-3.48502">
        <ele>112</ele>
        <time>2015-01-04T09:58:59Z</time>
      </trkpt>
      <trkpt lat="48.66479" lon="-3.48489">
        <ele>112</ele>
        <time>2015-01-04T09:59:00Z</time>
      </trkpt>
      <trkpt lat="48.66476" lon="-3.48475">
        <ele>111</ele>
        <time>2015-01-04T09:59:01Z</time>
      </trkpt>
      <trkpt lat="48.66473" lon="-3.48461">
        <ele>111</ele>
        <time>2015-01-04T09:59:02Z</time>
      </trkpt>
      <trkpt lat="48.6647" lon="-3.48447">
        <ele>111</ele>
        <time>2015-01-04T09:59:03Z</time>
      </trkpt>
      <trkpt lat="48.66469" lon="-3.48433">
        <ele>111</ele>
        <time>2015-01-04T09:59:04Z</time>
      </trkpt>
      <trkpt lat="48.66467" lon="-3.48419">
        <ele>111</ele>
        <time>2015-01-04T09:59:05Z</time>
      </trkpt>
      <trkpt lat="48.66466" lon="-3.48405">
        <ele>111</ele>
        <time>2015-01-04T09:59:06Z</time>
      </trkpt>
      <trkpt lat="48.66465" lon="-3.48391">
        <ele>111</ele>
        <time>2015-01-04T09:59:07Z</time>
      </trkpt>
      <trkpt lat="48.66464" lon="-3.48376">
        <ele>111</ele>
        <time>2015-01-04T09:59:08Z</time>
      </trkpt>
      <trkpt lat="48.66463" lon="-3.48363">
        <ele>110</ele>
        <time>2015-01-04T09:59:09Z</time>
      </trkpt>
      <trkpt lat="48.66462" lon="-3.48349">
        <ele>110</ele>
        <time>2015-01-04T09:59:10Z</time>
      </trkpt>
      <trkpt lat="48.6646" lon="-3.48335">
        <ele>110</ele>
        <time>2015-01-04T09:59:11Z</time>
      </trkpt>
      <trkpt lat="48.66459" lon="-3.48321">
        <ele>110</ele>
        <time>2015-01-04T09:59:12Z</time>
      </trkpt>
      <trkpt lat="48.66458" lon="-3.48307">
        <ele>110</ele>
        <time>2015-01-04T09:59:13Z</time>
      </trkpt>
      <trkpt lat="48.66457" lon="-3.48294">
        <ele>110</ele>
        <time>2015-01-04T09:59:14Z</time>
      </trkpt>
      <trkpt lat="48.66457" lon="-3.4828">
        <ele>110</ele>
        <time>2015-01-04T09:59:15Z</time>
      </trkpt>
      <trkpt lat="48.66455" lon="-3.48266">
        <ele>110</ele>
        <time>2015-01-04T09:59:16Z</time>
      </trkpt>
      <trkpt lat="48.66454" lon="-3.48252">
        <ele>110</ele>
        <time>2015-01-04T09:59:17Z</time>
      </trkpt>
      <trkpt lat="48.66453" lon="-3.48239">
        <ele>109</ele>
        <time>2015-01-04T09:59:18Z</time>
      </trkpt>
      <trkpt lat="48.66452" lon="-3.48225">
        <ele>109</ele>
        <time>2015-01-04T09:59:19Z</time>
      </trkpt>
      <trkpt lat="48.66451" lon="-3.48211">
        <ele>109</ele>
        <time>2015-01-04T09:59:20Z</time>
      </trkpt>
      <trkpt lat="48.6645" lon="-3.48198">
        <ele>109</ele>
        <time>2015-01-04T09:59:21Z</time>
      </trkpt>
      <trkpt lat="48.66449" lon="-3.48184">
        <ele>109</ele>
        <time>2015-01-04T09:59:22Z</time>
      </trkpt>
      <trkpt lat="48.66447" lon="-3.48171">
        <ele>109</ele>
        <time>2015-01-04T09:59:23Z</time>
      </trkpt>
      <trkpt lat="48.66444" lon="-3.48157">
        <ele>108</ele>
        <time>2015-01-04T09:59:24Z</time>
      </trkpt>
      <trkpt lat="48.66441" lon="-3.48144">
        <ele>108</ele>
        <time>2015-01-04T09:59:25Z</time>
      </trkpt>
      <trkpt lat="48.66438" lon="-3.4813">
        <ele>108</ele>
        <time>2015-01-04T09:59:26Z</time>
      </trkpt>
      <trkpt lat="48.66434" lon="-3.48117">
        <ele>108</ele>
        <time>2015-01-04T09:59:27Z</time>
      </trkpt>
      <trkpt lat="48.6643" lon="-3.48104">
        <ele>108</ele>
        <time>2015-01-04T09:59:28Z</time>
      </trkpt>
      <trkpt lat="48.66425" lon="-3.48091">
        <ele>107</ele>
        <time>2015-01-04T09:59:29Z</time>
      </trkpt>
      <trkpt lat="48.6642" lon="-3.48078">
        <ele>107</ele>
        <time>2015-01-04T09:59:30Z</time>
      </trkpt>
      <trkpt lat="48.66415" lon="-3.48066">
        <ele>107</ele>
        <time>2015-01-04T09:59:31Z</time>
      </trkpt>
      <trkpt lat="48.66411" lon="-3.48053">
        <ele>107</ele>
        <time>2015-01-04T09:59:32Z</time>
      </trkpt>
      <trkpt lat="48.66406" lon="-3.4804">
        <ele>106</ele>
        <time>2015-01-04T09:59:33Z</time>
      </trkpt>
      <trkpt lat="48.66401" lon="-3.48028">
        <ele>106</ele>
        <time>2015-01-04T09:59:34Z</time>
      </trkpt>
      <trkpt lat="48.66396" lon="-3.48016">
        <ele>106</ele>
        <time>2015-01-04T09:59:35Z</time>
      </trkpt>
      <trkpt lat="48.66392" lon="-3.48003">
        <ele>105</ele>
        <time>2015-01-04T09:59:36Z</time>
      </trkpt>
      <trkpt lat="48.66387" lon="-3.47991">
        <ele>105</ele>
        <time>2015-01-04T09:59:37Z</time>
      </trkpt>
      <trkpt lat="48.66382" lon="-3.47978">
        <ele>105</ele>
        <time>2015-01-04T09:59:38Z</time>
      </trkpt>
      <trkpt lat="48.66378" lon="-3.47966">
        <ele>104</ele>
        <time>2015-01-04T09:59:39Z</time>
      </trkpt>
      <trkpt lat="48.66373" lon="-3.47953">
        <ele>104</ele>
        <time>2015-01-04T09:59:40Z</time>
      </trkpt>
      <trkpt lat="48.66368" lon="-3.4794">
        <ele>104</ele>
        <time>2015-01-04T09:59:41Z</time>
      </trkpt>
      <trkpt lat="48.66363" lon="-3.47928">
        <ele>103</ele>
        <time>2015-01-04T09:59:42Z</time>
      </trkpt>
      <trkpt lat="48.66358" lon="-3.47915">
        <ele>103</ele>
        <time>2015-01-04T09:59:43Z</time>
      </trkpt>
      <trkpt lat="48.66353" lon="-3.47902">
        <ele>103</ele>
        <time>2015-01-04T09:59:44Z</time>
      </trkpt>
      <trkpt lat="48.66348" lon="-3.47889">
        <ele>103</ele>
        <time>2015-01-04T09:59:45Z</time>
      </trkpt>
      <trkpt lat="48.66343" lon="-3.47876">
        <ele>102</ele>
        <time>2015-01-04T09:59:46Z</time>
      </trkpt>
      <trkpt lat="48.66338" lon="-3.47863">
        <ele>102</ele>
        <time>2015-01-04T09:59:47Z</time>
      </trkpt>
      <trkpt lat="48.66333" lon="-3.4785">
        <ele>102</ele>
        <time>2015-01-04T09:59:48Z</time>
      </trkpt>
      <trkpt lat="48.66328" lon="-3.47838">
        <ele>102</ele>
        <time>2015-01-04T09:59:49Z</time>
      </trkpt>
      <trkpt lat="48.66323" lon="-3.47825">
        <ele>101</ele>
        <time>2015-01-04T09:59:50Z</time>
      </trkpt>
      <trkpt lat="48.66319" lon="-3.47812">
        <ele>101</ele>
        <time>2015-01-04T09:59:51Z</time>
      </trkpt>
      <trkpt lat="48.66314" lon="-3.47799">
        <ele>101</ele>
        <time>2015-01-04T09:59:52Z</time>
      </trkpt>
      <trkpt lat="48.66309" lon="-3.47786">
        <ele>101</ele>
        <time>2015-01-04T09:59:53Z</time>
      </trkpt>
      <trkpt lat="48.66305" lon="-3.47773">
        <ele>100</ele>
        <time>2015-01-04T09:59:54Z</time>
      </trkpt>
      <trkpt lat="48.66301" lon="-3.4776">
        <ele>100</ele>
        <time>2015-01-04T09:59:55Z</time>
      </trkpt>
      <trkpt lat="48.66298" lon="-3.47746">
        <ele>100</ele>
        <time>2015-01-04T09:59:56Z</time>
      </trkpt>
      <trkpt lat="48.66295" lon="-3.47732">
        <ele>99</ele>
        <time>2015-01-04T09:59:57Z</time>
      </trkpt>
      <trkpt lat="48.66292" lon="-3.47718">
        <ele>99</ele>
        <time>2015-01-04T09:59:58Z</time>
      </trkpt>
      <trkpt lat="48.6629" lon="-3.47703">
        <ele>98</ele>
        <time>2015-01-04T09:59:59Z</time>
      </trkpt>
      <trkpt lat="48.66288" lon="-3.47688">
        <ele>98</ele>
        <time>2015-01-04T10:00:00Z</time>
      </trkpt>
      <trkpt lat="48.66285" lon="-3.47673">
        <ele>98</ele>
        <time>2015-01-04T10:00:01Z</time>
      </trkpt>
      <trkpt lat="48.66283" lon="-3.47657">
        <ele>97</ele>
        <time>2015-01-04T10:00:02Z</time>
      </trkpt>
      <trkpt lat="48.66281" lon="-3.47641">
        <ele>97</ele>
        <time>2015-01-04T10:00:03Z</time>
      </trkpt>
      <trkpt lat="48.66278" lon="-3.47626">
        <ele>96</ele>
        <time>2015-01-04T10:00:04Z</time>
      </trkpt>
      <trkpt lat="48.66275" lon="-3.4761">
        <ele>96</ele>
        <time>2015-01-04T10:00:05Z</time>
      </trkpt>
      <trkpt lat="48.66272" lon="-3.47595">
        <ele>95</ele>
        <time>2015-01-04T10:00:06Z</time>
      </trkpt>
      <trkpt lat="48.66267" lon="-3.4758">
        <ele>95</ele>
        <time>2015-01-04T10:00:07Z</time>
      </trkpt>
      <trkpt lat="48.66262" lon="-3.47566">
        <ele>94</ele>
        <time>2015-01-04T10:00:08Z</time>
      </trkpt>
      <trkpt lat="48.66257" lon="-3.47553">
        <ele>94</ele>
        <time>2015-01-04T10:00:09Z</time>
      </trkpt>
      <trkpt lat="48.66251" lon="-3.4754">
        <ele>93</ele>
        <time>2015-01-04T10:00:10Z</time>
      </trkpt>
      <trkpt lat="48.66244" lon="-3.47528">
        <ele>93</ele>
        <time>2015-01-04T10:00:11Z</time>
      </trkpt>
      <trkpt lat="48.66238" lon="-3.47516">
        <ele>93</ele>
        <time>2015-01-04T10:00:12Z</time>
      </trkpt>
      <trkpt lat="48.66232" lon="-3.47505">
        <ele>93</ele>
        <time>2015-01-04T10:00:13Z</time>
      </trkpt>
      <trkpt lat="48.66226" lon="-3.47494">
        <ele>93</ele>
        <time>2015-01-04T10:00:14Z</time>
      </trkpt>
      <trkpt lat="48.6622" lon="-3.47484">
        <ele>93</ele>
        <time>2015-01-04T10:00:15Z</time>
      </trkpt>
      <trkpt lat="48.66216" lon="-3.47475">
        <ele>93</ele>
        <time>2015-01-04T10:00:16Z</time>
      </trkpt>
      <trkpt lat="48.66211" lon="-3.47466">
        <ele>93</ele>
        <time>2015-01-04T10:00:17Z</time>
      </trkpt>
      <trkpt lat="48.66206" lon="-3.47458">
        <ele>93</ele>
        <time>2015-01-04T10:00:18Z</time>
      </trkpt>
      <trkpt lat="48.66202" lon="-3.47451">
        <ele>93</ele>
        <time>2015-01-04T10:00:19Z</time>
      </trkpt>
      <trkpt lat="48.66198" lon="-3.47443">
        <ele>93</ele>
        <time>2015-01-04T10:00:20Z</time>
      </trkpt>
      <trkpt lat="48.66194" lon="-3.47436">
        <ele>93</ele>
        <time>2015-01-04T10:00:21Z</time>
      </trkpt>
      <trkpt lat="48.66189" lon="-3.47428">
        <ele>93</ele>
        <time>2015-01-04T10:00:22Z</time>
      </trkpt>
      <trkpt lat="48.66185" lon="-3.47421">
        <ele>93</ele>
        <time>2015-01-04T10:00:23Z</time>
      </trkpt>
      <trkpt lat="48.66181" lon="-3.47413">
        <ele>93</ele>
        <time>2015-01-04T10:00:24Z</time>
      </trkpt>
      <trkpt lat="48.66178" lon="-3.47406">
        <ele>93</ele>
        <time>2015-01-04T10:00:25Z</time>
      </trkpt>
      <trkpt lat="48.66174" lon="-3.47398">
        <ele>93</ele>
        <time>2015-01-04T10:00:26Z</time>
      </trkpt>
      <trkpt lat="48.66171" lon="-3.4739">
        <ele>93</ele>
        <time>2015-01-04T10:00:27Z</time>
      </trkpt>
      <trkpt lat="48.66168" lon="-3.47382">
        <ele>93</ele>
        <time>2015-01-04T10:00:28Z</time>
      </trkpt>
      <trkpt lat="48.66166" lon="-3.47374">
        <ele>93</ele>
        <time>2015-01-04T10:00:29Z</time>
      </trkpt>
      <trkpt lat="48.66163" lon="-3.47365">
        <ele>93</ele>
        <time>2015-01-04T10:00:30Z</time>
      </trkpt>
      <trkpt lat="48.66161" lon="-3.47356">
        <ele>93</ele>
        <time>2015-01-04T10:00:31Z</time>
      </trkpt>
      <trkpt lat="48.6616" lon="-3.47348">
        <ele>93</ele>
        <time>2015-01-04T10:00:32Z</time>
      </trkpt>
      <trkpt lat="48.66159" lon="-3.47339">
        <ele>93</ele>
        <time>2015-01-04T10:00:33Z</time>
      </trkpt>
      <trkpt lat="48.66158" lon="-3.4733">
        <ele>93</ele>
        <time>2015-01-04T10:00:34Z</time>
      </trkpt>
      <trkpt lat="48.66157" lon="-3.4732">
        <ele>93</ele>
        <time>2015-01-04T10:00:35Z</time>
      </trkpt>
      <trkpt lat="48.66156" lon="-3.47311">
        <ele>94</ele>
        <time>2015-01-04T10:00:36Z</time>
      </trkpt>
      <trkpt lat="48.66157" lon="-3.47301">
        <ele>94</ele>
        <time>2015-01-04T10:00:37Z</time>
      </trkpt>
      <trkpt lat="48.66157" lon="-3.47283">
        <ele>95</ele>
        <time>2015-01-04T10:00:39Z</time>
      </trkpt>
      <trkpt lat="48.66158" lon="-3.47265">
        <ele>95</ele>
        <time>2015-01-04T10:00:41Z</time>
      </trkpt>
      <trkpt lat="48.66158" lon="-3.47255">
        <ele>95</ele>
        <time>2015-01-04T10:00:42Z</time>
      </trkpt>
      <trkpt lat="48.66159" lon="-3.47246">
        <ele>96</ele>
        <time>2015-01-04T10:00:43Z</time>
      </trkpt>
      <trkpt lat="48.66159" lon="-3.47227">
        <ele>96</ele>
        <time>2015-01-04T10:00:45Z</time>
      </trkpt>
      <trkpt lat="48.66159" lon="-3.47218">
        <ele>97</ele>
        <time>2015-01-04T10:00:46Z</time>
      </trkpt>
      <trkpt lat="48.6616" lon="-3.47208">
        <ele>97</ele>
        <time>2015-01-04T10:00:47Z</time>
      </trkpt>
      <trkpt lat="48.6616" lon="-3.47198">
        <ele>97</ele>
        <time>2015-01-04T10:00:48Z</time>
      </trkpt>
      <trkpt lat="48.66161" lon="-3.47189">
        <ele>97</ele>
        <time>2015-01-04T10:00:49Z</time>
      </trkpt>
      <trkpt lat="48.66161" lon="-3.47179">
        <ele>98</ele>
        <time>2015-01-04T10:00:50Z</time>
      </trkpt>
      <trkpt lat="48.66162" lon="-3.47169">
        <ele>98</ele>
        <time>2015-01-04T10:00:51Z</time>
      </trkpt>
      <trkpt lat="48.66162" lon="-3.4715">
        <ele>98</ele>
        <time>2015-01-04T10:00:53Z</time>
      </trkpt>
      <trkpt lat="48.66162" lon="-3.47141">
        <ele>99</ele>
        <time>2015-01-04T10:00:54Z</time>
      </trkpt>
      <trkpt lat="48.66163" lon="-3.47131">
        <ele>99</ele>
        <time>2015-01-04T10:00:55Z</time>
      </trkpt>
      <trkpt lat="48.66163" lon="-3.47112">
        <ele>99</ele>
        <time>2015-01-04T10:00:57Z</time>
      </trkpt>
      <trkpt lat="48.66164" lon="-3.47103">
        <ele>100</ele>
        <time>2015-01-04T10:00:58Z</time>
      </trkpt>
      <trkpt lat="48.66164" lon="-3.47085">
        <ele>100</ele>
        <time>2015-01-04T10:01:00Z</time>
      </trkpt>
      <trkpt lat="48.66164" lon="-3.47076">
        <ele>100</ele>
        <time>2015-01-04T10:01:01Z</time>
      </trkpt>
      <trkpt lat="48.66165" lon="-3.47058">
        <ele>101</ele>
        <time>2015-01-04T10:01:03Z</time>
      </trkpt>
      <trkpt lat="48.66165" lon="-3.47021">
        <ele>102</ele>
        <time>2015-01-04T10:01:07Z</time>
      </trkpt>
      <trkpt lat="48.66166" lon="-3.46984">
        <ele>102</ele>
        <time>2015-01-04T10:01:11Z</time>
      </trkpt>
      <trkpt lat="48.66166" lon="-3.46974">
        <ele>102</ele>
        <time>2015-01-04T10:01:12Z</time>
      </trkpt>
      <trkpt lat="48.66166" lon="-3.46954">
        <ele>102</ele>
        <time>2015-01-04T10:01:14Z</time>
      </trkpt>
      <trkpt lat="48.66167" lon="-3.46932">
        <ele>102</ele>
        <time>2015-01-04T10:01:16Z</time>
      </trkpt>
      <trkpt lat="48.66166" lon="-3.46888">
        <ele>102</ele>
        <time>2015-01-04T10:01:20Z</time>
      </trkpt>
      <trkpt lat="48.66166" lon="-3.46876">
        <ele>102</ele>
        <time>2015-01-04T10:01:21Z</time>
      </trkpt>
      <trkpt lat="48.66166" lon="-3.46865">
        <ele>102</ele>
        <time>2015-01-04T10:01:22Z</time>
      </trkpt>
      <trkpt lat="48.66165" lon="-3.46853">
        <ele>102</ele>
        <time>2015-01-04T10:01:23Z</time>
      </trkpt>
      <trkpt lat="48.66165" lon="-3.46842">
        <ele>102</ele>
        <time>2015-01-04T10:01:24Z</time>
      </trkpt>
      <trkpt lat="48.66164" lon="-3.46831">
        <ele>102</ele>
        <time>2015-01-04T10:01:25Z</time>
      </trkpt>
      <trkpt lat="48.66164" lon="-3.4682">
        <ele>102</ele>
        <time>2015-01-04T10:01:26Z</time>
      </trkpt>
      <trkpt lat="48.66164" lon="-3.46809">
        <ele>102</ele>
        <time>2015-01-04T10:01:27Z</time>
      </trkpt>
      <trkpt lat="48.66163" lon="-3.46797">
        <ele>102</ele>
        <time>2015-01-04T10:01:28Z</time>
      </trkpt>
      <trkpt lat="48.66163" lon="-3.46786">
        <ele>102</ele>
        <time>2015-01-04T10:01:29Z</time>
      </trkpt>
      <trkpt lat="48.66162" lon="-3.46774">
        <ele>102</ele>
        <time>2015-01-04T10:01:30Z</time>
      </trkpt>
      <trkpt lat="48.66161" lon="-3.46762">
        <ele>102</ele>
        <time>2015-01-04T10:01:31Z</time>
      </trkpt>
      <trkpt lat="48.66161" lon="-3.4675">
        <ele>102</ele>
        <time>2015-01-04T10:01:32Z</time>
      </trkpt>
      <trkpt lat="48.6616" lon="-3.46738">
        <ele>102</ele>
        <time>2015-01-04T10:01:33Z</time>
      </trkpt>
      <trkpt lat="48.66159" lon="-3.46725">
        <ele>102</ele>
        <time>2015-01-04T10:01:34Z</time>
      </trkpt>
      <trkpt lat="48.66159" lon="-3.46713">
        <ele>102</ele>
        <time>2015-01-04T10:01:35Z</time>
      </trkpt>
      <trkpt lat="48.66158" lon="-3.467">
        <ele>102</ele>
        <time>2015-01-04T10:01:36Z</time>
      </trkpt>
      <trkpt lat="48.66158" lon="-3.46688">
        <ele>102</ele>
        <time>2015-01-04T10:01:37Z</time>
      </trkpt>
      <trkpt lat="48.66157" lon="-3.46675">
        <ele>102</ele>
        <time>2015-01-04T10:01:38Z</time>
      </trkpt>
      <trkpt lat="48.66156" lon="-3.46662">
        <ele>102</ele>
        <time>2015-01-04T10:01:39Z</time>
      </trkpt>
      <trkpt lat="48.66156" lon="-3.4665">
        <ele>102</ele>
        <time>2015-01-04T10:01:40Z</time>
      </trkpt>
      <trkpt lat="48.66155" lon="-3.46637">
        <ele>102</ele>
        <time>2015-01-04T10:01:41Z</time>
      </trkpt>
      <trkpt lat="48.66155" lon="-3.46611">
        <ele>102</ele>
        <time>2015-01-04T10:01:43Z</time>
      </trkpt>
      <trkpt lat="48.66154" lon="-3.46598">
        <ele>102</ele>
        <time>2015-01-04T10:01:44Z</time>
      </trkpt>
      <trkpt lat="48.66154" lon="-3.46585">
        <ele>102</ele>
        <time>2015-01-04T10:01:45Z</time>
      </trkpt>
      <trkpt lat="48.66153" lon="-3.46571">
        <ele>102</ele>
        <time>2015-01-04T10:01:46Z</time>
      </trkpt>
      <trkpt lat="48.66153" lon="-3.46558">
        <ele>102</ele>
        <time>2015-01-04T10:01:47Z</time>
      </trkpt>
      <trkpt lat="48.66153" lon="-3.46545">
        <ele>102</ele>
        <time>2015-01-04T10:01:48Z</time>
      </trkpt>
      <trkpt lat="48.66152" lon="-3.46531">
        <ele>102</ele>
        <time>2015-01-04T10:01:49Z</time>
      </trkpt>
      <trkpt lat="48.66152" lon="-3.46505">
        <ele>102</ele>
        <time>2015-01-04T10:01:51Z</time>
      </trkpt>
      <trkpt lat="48.66151" lon="-3.46492">
        <ele>102</ele>
        <time>2015-01-04T10:01:52Z</time>
      </trkpt>
      <trkpt lat="48.66151" lon="-3.46479">
        <ele>102</ele>
        <time>2015-01-04T10:01:53Z</time>
      </trkpt>
      <trkpt lat="48.6615" lon="-3.46466">
        <ele>102</ele>
        <time>2015-01-04T10:01:54Z</time>
      </trkpt>
      <trkpt lat="48.66149" lon="-3.46454">
        <ele>102</ele>
        <time>2015-01-04T10:01:55Z</time>
      </trkpt>
      <trkpt lat="48.66147" lon="-3.46441">
        <ele>102</ele>
        <time>2015-01-04T10:01:56Z</time>
      </trkpt>
      <trkpt lat="48.66145" lon="-3.46428">
        <ele>102</ele>
        <time>2015-01-04T10:01:57Z</time>
      </trkpt>
      <trkpt lat="48.66143" lon="-3.46416">
        <ele>102</ele>
        <time>2015-01-04T10:01:58Z</time>
      </trkpt>
      <trkpt lat="48.6614" lon="-3.46403">
        <ele>102</ele>
        <time>2015-01-04T10:01:59Z</time>
      </trkpt>
      <trkpt lat="48.66137" lon="-3.4639">
        <ele>102</ele>
        <time>2015-01-04T10:02:00Z</time>
      </trkpt>
      <trkpt lat="48.66134" lon="-3.46378">
        <ele>102</ele>
        <time>2015-01-04T10:02:01Z</time>
      </trkpt>
      <trkpt lat="48.6613" lon="-3.46366">
        <ele>102</ele>
        <time>2015-01-04T10:02:02Z</time>
      </trkpt>
      <trkpt lat="48.66126" lon="-3.46355">
        <ele>102</ele>
        <time>2015-01-04T10:02:03Z</time>
      </trkpt>
      <trkpt lat="48.66122" lon="-3.46343">
        <ele>102</ele>
        <time>2015-01-04T10:02:04Z</time>
      </trkpt>
      <trkpt lat="48.66118" lon="-3.46332">
        <ele>102</ele>
        <time>2015-01-04T10:02:05Z</time>
      </trkpt>
      <trkpt lat="48.66113" lon="-3.46321">
        <ele>102</ele>
        <time>2015-01-04T10:02:06Z</time>
      </trkpt>
      <trkpt lat="48.66109" lon="-3.46309">
        <ele>102</ele>
        <time>2015-01-04T10:02:07Z</time>
      </trkpt>
      <trkpt lat="48.66105" lon="-3.46298">
        <ele>102</ele>
        <time>2015-01-04T10:02:08Z</time>
      </trkpt>
      <trkpt lat="48.661" lon="-3.46286">
        <ele>102</ele>
        <time>2015-01-04T10:02:09Z</time>
      </trkpt>
      <trkpt lat="48.66095" lon="-3.46275">
        <ele>102</ele>
        <time>2015-01-04T10:02:10Z</time>
      </trkpt>
      <trkpt lat="48.66091" lon="-3.46263">
        <ele>102</ele>
        <time>2015-01-04T10:02:11Z</time>
      </trkpt>
      <trkpt lat="48.66086" lon="-3.46251">
        <ele>102</ele>
        <time>2015-01-04T10:02:12Z</time>
      </trkpt>
      <trkpt lat="48.66082" lon="-3.4624">
        <ele>102</ele>
        <time>2015-01-04T10:02:13Z</time>
      </trkpt>
      <trkpt lat="48.66077" lon="-3.46229">
        <ele>102</ele>
        <time>2015-01-04T10:02:14Z</time>
      </trkpt>
      <trkpt lat="48.66072" lon="-3.46217">
        <ele>102</ele>
        <time>2015-01-04T10:02:15Z</time>
      </trkpt>
      <trkpt lat="48.66067" lon="-3.46207">
        <ele>101</ele>
        <time>2015-01-04T10:02:16Z</time>
      </trkpt>
      <trkpt lat="48.66062" lon="-3.46196">
        <ele>101</ele>
        <time>2015-01-04T10:02:17Z</time>
      </trkpt>
      <trkpt lat="48.66057" lon="-3.46185">
        <ele>101</ele>
        <time>2015-01-04T10:02:18Z</time>
      </trkpt>
      <trkpt lat="48.66051" lon="-3.46175">
        <ele>101</ele>
        <time>2015-01-04T10:02:19Z</time>
      </trkpt>
      <trkpt lat="48.66045" lon="-3.46165">
        <ele>100</ele>
        <time>2015-01-04T10:02:20Z</time>
      </trkpt>
      <trkpt lat="48.66038" lon="-3.46155">
        <ele>100</ele>
        <time>2015-01-04T10:02:21Z</time>
      </trkpt>
      <trkpt lat="48.66031" lon="-3.46146">
        <ele>100</ele>
        <time>2015-01-04T10:02:22Z</time>
      </trkpt>
      <trkpt lat="48.66024" lon="-3.46137">
        <ele>100</ele>
        <time>2015-01-04T10:02:23Z</time>
      </trkpt>
      <trkpt lat="48.66017" lon="-3.46127">
        <ele>99</ele>
        <time>2015-01-04T10:02:24Z</time>
      </trkpt>
      <trkpt lat="48.6601" lon="-3.46118">
        <ele>99</ele>
        <time>2015-01-04T10:02:25Z</time>
      </trkpt>
      <trkpt lat="48.66003" lon="-3.46109">
        <ele>99</ele>
        <time>2015-01-04T10:02:26Z</time>
      </trkpt>
      <trkpt lat="48.65996" lon="-3.461">
        <ele>98</ele>
        <time>2015-01-04T10:02:27Z</time>
      </trkpt>
      <trkpt lat="48.65989" lon="-3.4609">
        <ele>98</ele>
        <time>2015-01-04T10:02:28Z</time>
      </trkpt>
      <trkpt lat="48.65982" lon="-3.46081">
        <ele>98</ele>
        <time>2015-01-04T10:02:29Z</time>
      </trkpt>
      <trkpt lat="48.65976" lon="-3.46072">
        <ele>98</ele>
        <time>2015-01-04T10:02:30Z</time>
      </trkpt>
      <trkpt lat="48.65969" lon="-3.46063">
        <ele>98</ele>
        <time>2015-01-04T10:02:31Z</time>
      </trkpt>
      <trkpt lat="48.65963" lon="-3.46054">
        <ele>98</ele>
        <time>2015-01-04T10:02:32Z</time>
      </trkpt>
      <trkpt lat="48.65957" lon="-3.46044">
        <ele>98</ele>
        <time>2015-01-04T10:02:33Z</time>
      </trkpt>
      <trkpt lat="48.65952" lon="-3.46035">
        <ele>98</ele>
        <time>2015-01-04T10:02:34Z</time>
      </trkpt>
      <trkpt lat="48.65946" lon="-3.46025">
        <ele>98</ele>
        <time>2015-01-04T10:02:35Z</time>
      </trkpt>
      <trkpt lat="48.65941" lon="-3.46015">
        <ele>98</ele>
        <time>2015-01-04T10:02:36Z</time>
      </trkpt>
      <trkpt lat="48.65936" lon="-3.46005">
        <ele>98</ele>
        <time>2015-01-04T10:02:37Z</time>
      </trkpt>
      <trkpt lat="48.65932" lon="-3.45995">
        <ele>98</ele>
        <time>2015-01-04T10:02:38Z</time>
      </trkpt>
      <trkpt lat="48.65928" lon="-3.45984">
        <ele>98</ele>
        <time>2015-01-04T10:02:39Z</time>
      </trkpt>
      <trkpt lat="48.65924" lon="-3.45973">
        <ele>98</ele>
        <time>2015-01-04T10:02:40Z</time>
      </trkpt>
      <trkpt lat="48.6592" lon="-3.45962">
        <ele>98</ele>
        <time>2015-01-04T10:02:41Z</time>
      </trkpt>
      <trkpt lat="48.65918" lon="-3.4595">
        <ele>98</ele>
        <time>2015-01-04T10:02:42Z</time>
      </trkpt>
      <trkpt lat="48.65915" lon="-3.45938">
        <ele>98</ele>
        <time>2015-01-04T10:02:43Z</time>
      </trkpt>
      <trkpt lat="48.65913" lon="-3.45927">
        <ele>98</ele>
        <time>2015-01-04T10:02:44Z</time>
      </trkpt>
      <trkpt lat="48.65911" lon="-3.45915">
        <ele>98</ele>
        <time>2015-01-04T10:02:45Z</time>
      </trkpt>
      <trkpt lat="48.6591" lon="-3.45903">
        <ele>98</ele>
        <time>2015-01-04T10:02:46Z</time>
      </trkpt>
      <trkpt lat="48.65909" lon="-3.45891">
        <ele>98</ele>
        <time>2015-01-04T10:02:47Z</time>
      </trkpt>
      <trkpt lat="48.65908" lon="-3.4588">
        <ele>98</ele>
        <time>2015-01-04T10:02:48Z</time>
      </trkpt>
      <trkpt lat="48.65908" lon="-3.45868">
        <ele>98</ele>
        <time>2015-01-04T10:02:49Z</time>
      </trkpt>
      <trkpt lat="48.65907" lon="-3.45856">
        <ele>98</ele>
        <time>2015-01-04T10:02:50Z</time>
      </trkpt>
      <trkpt lat="48.65907" lon="-3.45845">
        <ele>98</ele>
        <time>2015-01-04T10:02:51Z</time>
      </trkpt>
      <trkpt lat="48.65906" lon="-3.45833">
        <ele>98</ele>
        <time>2015-01-04T10:02:52Z</time>
      </trkpt>
      <trkpt lat="48.65907" lon="-3.4581">
        <ele>98</ele>
        <time>2015-01-04T10:02:54Z</time>
      </trkpt>
      <trkpt lat="48.65907" lon="-3.45798">
        <ele>98</ele>
        <time>2015-01-04T10:02:55Z</time>
      </trkpt>
      <trkpt lat="48.65909" lon="-3.45786">
        <ele>98</ele>
        <time>2015-01-04T10:02:56Z</time>
      </trkpt>
      <trkpt lat="48.65911" lon="-3.45775">
        <ele>98</ele>
        <time>2015-01-04T10:02:57Z</time>
      </trkpt>
      <trkpt lat="48.65914" lon="-3.45764">
        <ele>98</ele>
        <time>2015-01-04T10:02:58Z</time>
      </trkpt>
      <trkpt lat="48.65918" lon="-3.45753">
        <ele>98</ele>
        <time>2015-01-04T10:02:59Z</time>
      </trkpt>
      <trkpt lat="48.65922" lon="-3.45743">
        <ele>98</ele>
        <time>2015-01-04T10:03:00Z</time>
      </trkpt>
      <trkpt lat="48.65926" lon="-3.45732">
        <ele>98</ele>
        <time>2015-01-04T10:03:01Z</time>
      </trkpt>
      <trkpt lat="48.65931" lon="-3.45722">
        <ele>98</ele>
        <time>2015-01-04T10:03:02Z</time>
      </trkpt>
      <trkpt lat="48.65935" lon="-3.45711">
        <ele>98</ele>
        <time>2015-01-04T10:03:03Z</time>
      </trkpt>
      <trkpt lat="48.65939" lon="-3.45701">
        <ele>98</ele>
        <time>2015-01-04T10:03:04Z</time>
      </trkpt>
      <trkpt lat="48.65944" lon="-3.4569">
        <ele>98</ele>
        <time>2015-01-04T10:03:05Z</time>
      </trkpt>
      <trkpt lat="48.65948" lon="-3.4568">
        <ele>98</ele>
        <time>2015-01-04T10:03:06Z</time>
      </trkpt>
      <trkpt lat="48.65952" lon="-3.45669">
        <ele>98</ele>
        <time>2015-01-04T10:03:07Z</time>
      </trkpt>
      <trkpt lat="48.65957" lon="-3.45658">
        <ele>98</ele>
        <time>2015-01-04T10:03:08Z</time>
      </trkpt>
      <trkpt lat="48.65961" lon="-3.45648">
        <ele>98</ele>
        <time>2015-01-04T10:03:09Z</time>
      </trkpt>
      <trkpt lat="48.65965" lon="-3.45637">
        <ele>98</ele>
        <time>2015-01-04T10:03:10Z</time>
      </trkpt>
      <trkpt lat="48.65969" lon="-3.45627">
        <ele>98</ele>
        <time>2015-01-04T10:03:11Z</time>
      </trkpt>
      <trkpt lat="48.65974" lon="-3.45617">
        <ele>98</ele>
        <time>2015-01-04T10:03:12Z</time>
      </trkpt>
      <trkpt lat="48.65979" lon="-3.45607">
        <ele>98</ele>
        <time>2015-01-04T10:03:13Z</time>
      </trkpt>
      <trkpt lat="48.65983" lon="-3.45597">
        <ele>98</ele>
        <time>2015-01-04T10:03:14Z</time>
      </trkpt>
      <trkpt lat="48.65988" lon="-3.45587">
        <ele>98</ele>
        <time>2015-01-04T10:03:15Z</time>
      </trkpt>
      <trkpt lat="48.65993" lon="-3.45577">
        <ele>98</ele>
        <time>2015-01-04T10:03:16Z</time>
      </trkpt>
      <trkpt lat="48.65999" lon="-3.45568">
        <ele>98</ele>
        <time>2015-01-04T10:03:17Z</time>
      </trkpt>
      <trkpt lat="48.66005" lon="-3.45559">
        <ele>98</ele>
        <time>2015-01-04T10:03:18Z</time>
      </trkpt>
      <trkpt lat="48.66011" lon="-3.45552">
        <ele>98</ele>
        <time>2015-01-04T10:03:19Z</time>
      </trkpt>
      <trkpt lat="48.66017" lon="-3.45545">
        <ele>98</ele>
        <time>2015-01-04T10:03:20Z</time>
      </trkpt>
      <trkpt lat="48.66024" lon="-3.45538">
        <ele>98</ele>
        <time>2015-01-04T10:03:21Z</time>
      </trkpt>
      <trkpt lat="48.66031" lon="-3.45531">
        <ele>98</ele>
        <time>2015-01-04T10:03:22Z</time>
      </trkpt>
      <trkpt lat="48.66038" lon="-3.45525">
        <ele>98</ele>
        <time>2015-01-04T10:03:23Z</time>
      </trkpt>
      <trkpt lat="48.66045" lon="-3.45518">
        <ele>98</ele>
        <time>2015-01-04T10:03:24Z</time>
      </trkpt>
      <trkpt lat="48.66053" lon="-3.45512">
        <ele>98</ele>
        <time>2015-01-04T10:03:25Z</time>
      </trkpt>
      <trkpt lat="48.66059" lon="-3.45506">
        <ele>98</ele>
        <time>2015-01-04T10:03:26Z</time>
      </trkpt>
      <trkpt lat="48.66066" lon="-3.45499">
        <ele>98</ele>
        <time>2015-01-04T10:03:27Z</time>
      </trkpt>
      <trkpt lat="48.66073" lon="-3.45491">
        <ele>98</ele>
        <time>2015-01-04T10:03:28Z</time>
      </trkpt>
      <trkpt lat="48.66079" lon="-3.45482">
        <ele>98</ele>
        <time>2015-01-04T10:03:29Z</time>
      </trkpt>
      <trkpt lat="48.66084" lon="-3.45473">
        <ele>98</ele>
        <time>2015-01-04T10:03:30Z</time>
      </trkpt>
      <trkpt lat="48.66089" lon="-3.45462">
        <ele>98</ele>
        <time>2015-01-04T10:03:31Z</time>
      </trkpt>
      <trkpt lat="48.66093" lon="-3.4545">
        <ele>98</ele>
        <time>2015-01-04T10:03:32Z</time>
      </trkpt>
      <trkpt lat="48.66098" lon="-3.45439">
        <ele>98</ele>
        <time>2015-01-04T10:03:33Z</time>
      </trkpt>
      <trkpt lat="48.66102" lon="-3.45427">
        <ele>98</ele>
        <time>2015-01-04T10:03:34Z</time>
      </trkpt>
      <trkpt lat="48.66106" lon="-3.45414">
        <ele>98</ele>
        <time>2015-01-04T10:03:35Z</time>
      </trkpt>
      <trkpt lat="48.6611" lon="-3.45402">
        <ele>98</ele>
        <time>2015-01-04T10:03:36Z</time>
      </trkpt>
      <trkpt lat="48.66114" lon="-3.4539">
        <ele>98</ele>
        <time>2015-01-04T10:03:37Z</time>
      </trkpt>
      <trkpt lat="48.66118" lon="-3.45377">
        <ele>98</ele>
        <time>2015-01-04T10:03:38Z</time>
      </trkpt>
      <trkpt lat="48.66122" lon="-3.45365">
        <ele>98</ele>
        <time>2015-01-04T10:03:39Z</time>
      </trkpt>
      <trkpt lat="48.66127" lon="-3.45352">
        <ele>98</ele>
        <time>2015-01-04T10:03:40Z</time>
      </trkpt>
      <trkpt lat="48.66131" lon="-3.4534">
        <ele>98</ele>
        <time>2015-01-04T10:03:41Z</time>
      </trkpt>
      <trkpt lat="48.66135" lon="-3.45328">
        <ele>98</ele>
        <time>2015-01-04T10:03:42Z</time>
      </trkpt>
      <trkpt lat="48.6614" lon="-3.45315">
        <ele>98</ele>
        <time>2015-01-04T10:03:43Z</time>
      </trkpt>
      <trkpt lat="48.66144" lon="-3.45303">
        <ele>98</ele>
        <time>2015-01-04T10:03:44Z</time>
      </trkpt>
      <trkpt lat="48.66147" lon="-3.4529">
        <ele>98</ele>
        <time>2015-01-04T10:03:45Z</time>
      </trkpt>
      <trkpt lat="48.66149" lon="-3.45278">
        <ele>97</ele>
        <time>2015-01-04T10:03:46Z</time>
      </trkpt>
      <trkpt lat="48.6615" lon="-3.45264">
        <ele>97</ele>
        <time>2015-01-04T10:03:47Z</time>
      </trkpt>
      <trkpt lat="48.66148" lon="-3.4525">
        <ele>97</ele>
        <time>2015-01-04T10:03:48Z</time>
      </trkpt>
      <trkpt lat="48.66144" lon="-3.45237">
        <ele>97</ele>
        <time>2015-01-04T10:03:49Z</time>
      </trkpt>
      <trkpt lat="48.66139" lon="-3.45226">
        <ele>96</ele>
        <time>2015-01-04T10:03:50Z</time>
      </trkpt>
      <trkpt lat="48.66133" lon="-3.45215">
        <ele>96</ele>
        <time>2015-01-04T10:03:51Z</time>
      </trkpt>
      <trkpt lat="48.66126" lon="-3.45206">
        <ele>96</ele>
        <time>2015-01-04T10:03:52Z</time>
      </trkpt>
      <trkpt lat="48.66119" lon="-3.45197">
        <ele>96</ele>
        <time>2015-01-04T10:03:53Z</time>
      </trkpt>
      <trkpt lat="48.66112" lon="-3.45188">
        <ele>96</ele>
        <time>2015-01-04T10:03:54Z</time>
      </trkpt>
      <trkpt lat="48.66105" lon="-3.45179">
        <ele>96</ele>
        <time>2015-01-04T10:03:55Z</time>
      </trkpt>
      <trkpt lat="48.66097" lon="-3.4517">
        <ele>95</ele>
        <time>2015-01-04T10:03:56Z</time>
      </trkpt>
      <trkpt lat="48.6609" lon="-3.45162">
        <ele>95</ele>
        <time>2015-01-04T10:03:57Z</time>
      </trkpt>
      <trkpt lat="48.66083" lon="-3.45153">
        <ele>95</ele>
        <time>2015-01-04T10:03:58Z</time>
      </trkpt>
      <trkpt lat="48.66075" lon="-3.45145">
        <ele>95</ele>
        <time>2015-01-04T10:03:59Z</time>
      </trkpt>
      <trkpt lat="48.66067" lon="-3.45138">
        <ele>95</ele>
        <time>2015-01-04T10:04:00Z</time>
      </trkpt>
      <trkpt lat="48.66059" lon="-3.45131">
        <ele>95</ele>
        <time>2015-01-04T10:04:01Z</time>
      </trkpt>
      <trkpt lat="48.6605" lon="-3.45126">
        <ele>95</ele>
        <time>2015-01-04T10:04:02Z</time>
      </trkpt>
      <trkpt lat="48.66042" lon="-3.45121">
        <ele>95</ele>
        <time>2015-01-04T10:04:03Z</time>
      </trkpt>
      <trkpt lat="48.66033" lon="-3.45117">
        <ele>95</ele>
        <time>2015-01-04T10:04:04Z</time>
      </trkpt>
      <trkpt lat="48.66025" lon="-3.45113">
        <ele>95</ele>
        <time>2015-01-04T10:04:05Z</time>
      </trkpt>
      <trkpt lat="48.66016" lon="-3.45109">
        <ele>95</ele>
        <time>2015-01-04T10:04:06Z</time>
      </trkpt>
      <trkpt lat="48.66008" lon="-3.45105">
        <ele>94</ele>
        <time>2015-01-04T10:04:07Z</time>
      </trkpt>
      <trkpt lat="48.66" lon="-3.45101">
        <ele>94</ele>
        <time>2015-01-04T10:04:08Z</time>
      </trkpt>
      <trkpt lat="48.65992" lon="-3.45097">
        <ele>94</ele>
        <time>2015-01-04T10:04:09Z</time>
      </trkpt>
      <trkpt lat="48.65984" lon="-3.45093">
        <ele>94</ele>
        <time>2015-01-04T10:04:10Z</time>
      </trkpt>
      <trkpt lat="48.65976" lon="-3.45089">
        <ele>94</ele>
        <time>2015-01-04T10:04:11Z</time>
      </trkpt>
      <trkpt lat="48.65968" lon="-3.45084">
        <ele>94</ele>
        <time>2015-01-04T10:04:12Z</time>
      </trkpt>
      <trkpt lat="48.6596" lon="-3.45079">
        <ele>94</ele>
        <time>2015-01-04T10:04:13Z</time>
      </trkpt>
      <trkpt lat="48.65953" lon="-3.45072">
        <ele>94</ele>
        <time>2015-01-04T10:04:14Z</time>
      </trkpt>
      <trkpt lat="48.65947" lon="-3.45064">
        <ele>94</ele>
        <time>2015-01-04T10:04:15Z</time>
      </trkpt>
      <trkpt lat="48.65941" lon="-3.45055">
        <ele>94</ele>
        <time>2015-01-04T10:04:16Z</time>
      </trkpt>
      <trkpt lat="48.65936" lon="-3.45044">
        <ele>94</ele>
        <time>2015-01-04T10:04:17Z</time>
      </trkpt>
      <trkpt lat="48.65932" lon="-3.45032">
        <ele>94</ele>
        <time>2015-01-04T10:04:18Z</time>
      </trkpt>
      <trkpt lat="48.6593" lon="-3.4502">
        <ele>94</ele>
        <time>2015-01-04T10:04:19Z</time>
      </trkpt>
      <trkpt lat="48.65929" lon="-3.45006">
        <ele>94</ele>
        <time>2015-01-04T10:04:20Z</time>
      </trkpt>
      <trkpt lat="48.65929" lon="-3.44993">
        <ele>94</ele>
        <time>2015-01-04T10:04:21Z</time>
      </trkpt>
      <trkpt lat="48.6593" lon="-3.4498">
        <ele>94</ele>
        <time>2015-01-04T10:04:22Z</time>
      </trkpt>
      <trkpt lat="48.65931" lon="-3.44966">
        <ele>94</ele>
        <time>2015-01-04T10:04:23Z</time>
      </trkpt>
      <trkpt lat="48.65932" lon="-3.44953">
        <ele>94</ele>
        <time>2015-01-04T10:04:24Z</time>
      </trkpt>
      <trkpt lat="48.65934" lon="-3.4494">
        <ele>94</ele>
        <time>2015-01-04T10:04:25Z</time>
      </trkpt>
      <trkpt lat="48.65935" lon="-3.44927">
        <ele>94</ele>
        <time>2015-01-04T10:04:26Z</time>
      </trkpt>
      <trkpt lat="48.65936" lon="-3.44915">
        <ele>94</ele>
        <time>2015-01-04T10:04:27Z</time>
      </trkpt>
      <trkpt lat="48.65937" lon="-3.44903">
        <ele>94</ele>
        <time>2015-01-04T10:04:28Z</time>
      </trkpt>
      <trkpt lat="48.65938" lon="-3.44892">
        <ele>94</ele>
        <time>2015-01-04T10:04:29Z</time>
      </trkpt>
      <trkpt lat="48.65939" lon="-3.44882">
        <ele>94</ele>
        <time>2015-01-04T10:04:30Z</time>
      </trkpt>
      <trkpt lat="48.65939" lon="-3.44872">
        <ele>94</ele>
        <time>2015-01-04T10:04:31Z</time>
      </trkpt>
      <trkpt lat="48.6594" lon="-3.44862">
        <ele>94</ele>
        <time>2015-01-04T10:04:32Z</time>
      </trkpt>
      <trkpt lat="48.6594" lon="-3.44853">
        <ele>94</ele>
        <time>2015-01-04T10:04:33Z</time>
      </trkpt>
      <trkpt lat="48.6594" lon="-3.44824">
        <ele>94</ele>
        <time>2015-01-04T10:04:36Z</time>
      </trkpt>
      <trkpt lat="48.65939" lon="-3.44815">
        <ele>94</ele>
        <time>2015-01-04T10:04:37Z</time>
      </trkpt>
      <trkpt lat="48.65939" lon="-3.44805">
        <ele>94</ele>
        <time>2015-01-04T10:04:38Z</time>
      </trkpt>
      <trkpt lat="48.65938" lon="-3.44795">
        <ele>94</ele>
        <time>2015-01-04T10:04:39Z</time>
      </trkpt>
      <trkpt lat="48.65937" lon="-3.44785">
        <ele>94</ele>
        <time>2015-01-04T10:04:40Z</time>
      </trkpt>
      <trkpt lat="48.65937" lon="-3.44775">
        <ele>94</ele>
        <time>2015-01-04T10:04:41Z</time>
      </trkpt>
      <trkpt lat="48.65936" lon="-3.44765">
        <ele>94</ele>
        <time>2015-01-04T10:04:42Z</time>
      </trkpt>
      <trkpt lat="48.65934" lon="-3.44756">
        <ele>94</ele>
        <time>2015-01-04T10:04:43Z</time>
      </trkpt>
      <trkpt lat="48.65933" lon="-3.44746">
        <ele>94</ele>
        <time>2015-01-04T10:04:44Z</time>
      </trkpt>
      <trkpt lat="48.65932" lon="-3.44736">
        <ele>94</ele>
        <time>2015-01-04T10:04:45Z</time>
      </trkpt>
      <trkpt lat="48.65931" lon="-3.44725">
        <ele>94</ele>
        <time>2015-01-04T10:04:46Z</time>
      </trkpt>
      <trkpt lat="48.65931" lon="-3.44715">
        <ele>94</ele>
        <time>2015-01-04T10:04:47Z</time>
      </trkpt>
      <trkpt lat="48.6593" lon="-3.44704">
        <ele>94</ele>
        <time>2015-01-04T10:04:48Z</time>
      </trkpt>
      <trkpt lat="48.65929" lon="-3.44694">
        <ele>94</ele>
        <time>2015-01-04T10:04:49Z</time>
      </trkpt>
      <trkpt lat="48.65929" lon="-3.44683">
        <ele>95</ele>
        <time>2015-01-04T10:04:50Z</time>
      </trkpt>
      <trkpt lat="48.65929" lon="-3.44652">
        <ele>95</ele>
        <time>2015-01-04T10:04:53Z</time>
      </trkpt>
      <trkpt lat="48.65929" lon="-3.44641">
        <ele>96</ele>
        <time>2015-01-04T10:04:54Z</time>
      </trkpt>
      <trkpt lat="48.6593" lon="-3.44631">
        <ele>96</ele>
        <time>2015-01-04T10:04:55Z</time>
      </trkpt>
      <trkpt lat="48.65931" lon="-3.44609">
        <ele>96</ele>
        <time>2015-01-04T10:04:57Z</time>
      </trkpt>
      <trkpt lat="48.65931" lon="-3.44598">
        <ele>96</ele>
        <time>2015-01-04T10:04:58Z</time>
      </trkpt>
      <trkpt lat="48.65932" lon="-3.44587">
        <ele>96</ele>
        <time>2015-01-04T10:04:59Z</time>
      </trkpt>
      <trkpt lat="48.65932" lon="-3.44577">
        <ele>96</ele>
        <time>2015-01-04T10:05:00Z</time>
      </trkpt>
      <trkpt lat="48.65932" lon="-3.44566">
        <ele>96</ele>
        <time>2015-01-04T10:05:01Z</time>
      </trkpt>
      <trkpt lat="48.65933" lon="-3.44555">
        <ele>96</ele>
        <time>2015-01-04T10:05:02Z</time>
      </trkpt>
      <trkpt lat="48.65934" lon="-3.44545">
        <ele>96</ele>
        <time>2015-01-04T10:05:03Z</time>
      </trkpt>
      <trkpt lat="48.65934" lon="-3.44536">
        <ele>96</ele>
        <time>2015-01-04T10:05:04Z</time>
      </trkpt>
      <trkpt lat="48.65934" lon="-3.44528">
        <ele>96</ele>
        <time>2015-01-04T10:05:05Z</time>
      </trkpt>
      <trkpt lat="48.65933" lon="-3.44513">
        <ele>96</ele>
        <time>2015-01-04T10:05:07Z</time>
      </trkpt>
      <trkpt lat="48.6593" lon="-3.44506">
        <ele>96</ele>
        <time>2015-01-04T10:05:08Z</time>
      </trkpt>
      <trkpt lat="48.65926" lon="-3.445">
        <ele>96</ele>
        <time>2015-01-04T10:05:09Z</time>
      </trkpt>
      <trkpt lat="48.65921" lon="-3.44497">
        <ele>96</ele>
        <time>2015-01-04T10:05:10Z</time>
      </trkpt>
      <trkpt lat="48.65915" lon="-3.44495">
        <ele>96</ele>
        <time>2015-01-04T10:05:11Z</time>
      </trkpt>
      <trkpt lat="48.65908" lon="-3.44494">
        <ele>96</ele>
        <time>2015-01-04T10:05:12Z</time>
      </trkpt>
      <trkpt lat="48.65902" lon="-3.44493">
        <ele>96</ele>
        <time>2015-01-04T10:05:13Z</time>
      </trkpt>
      <trkpt lat="48.65894" lon="-3.44493">
        <ele>96</ele>
        <time>2015-01-04T10:05:14Z</time>
      </trkpt>
      <trkpt lat="48.65887" lon="-3.44492">
        <ele>96</ele>
        <time>2015-01-04T10:05:15Z</time>
      </trkpt>
      <trkpt lat="48.65881" lon="-3.44491">
        <ele>96</ele>
        <time>2015-01-04T10:05:16Z</time>
      </trkpt>
      <trkpt lat="48.65873" lon="-3.4449">
        <ele>96</ele>
        <time>2015-01-04T10:05:17Z</time>
      </trkpt>
      <trkpt lat="48.65866" lon="-3.44489">
        <ele>96</ele>
        <time>2015-01-04T10:05:18Z</time>
      </trkpt>
      <trkpt lat="48.6586" lon="-3.44488">
        <ele>96</ele>
        <time>2015-01-04T10:05:19Z</time>
      </trkpt>
      <trkpt lat="48.65852" lon="-3.44487">
        <ele>96</ele>
        <time>2015-01-04T10:05:20Z</time>
      </trkpt>
      <trkpt lat="48.65845" lon="-3.44487">
        <ele>96</ele>
        <time>2015-01-04T10:05:21Z</time>
      </trkpt>
      <trkpt lat="48.65838" lon="-3.44487">
        <ele>96</ele>
        <time>2015-01-04T10:05:22Z</time>
      </trkpt>
      <trkpt lat="48.65831" lon="-3.44486">
        <ele>96</ele>
        <time>2015-01-04T10:05:23Z</time>
      </trkpt>
      <trkpt lat="48.65816" lon="-3.44487">
        <ele>96</ele>
        <time>2015-01-04T10:05:25Z</time>
      </trkpt>
      <trkpt lat="48.65809" lon="-3.44487">
        <ele>96</ele>
        <time>2015-01-04T10:05:26Z</time>
      </trkpt>
      <trkpt lat="48.65802" lon="-3.44487">
        <ele>96</ele>
        <time>2015-01-04T10:05:27Z</time>
      </trkpt>
      <trkpt lat="48.65795" lon="-3.44487">
        <ele>96</ele>
        <time>2015-01-04T10:05:28Z</time>
      </trkpt>
      <trkpt lat="48.65788" lon="-3.44488">
        <ele>96</ele>
        <time>2015-01-04T10:05:29Z</time>
      </trkpt>
      <trkpt lat="48.65781" lon="-3.44488">
        <ele>96</ele>
        <time>2015-01-04T10:05:30Z</time>
      </trkpt>
      <trkpt lat="48.65774" lon="-3.44488">
        <ele>96</ele>
        <time>2015-01-04T10:05:31Z</time>
      </trkpt>
      <trkpt lat="48.65768" lon="-3.44488">
        <ele>96</ele>
        <time>2015-01-04T10:05:32Z</time>
      </trkpt>
      <trkpt lat="48.65761" lon="-3.44489">
        <ele>96</ele>
        <time>2015-01-04T10:05:33Z</time>
      </trkpt>
      <trkpt lat="48.65754" lon="-3.44489">
        <ele>96</ele>
        <time>2015-01-04T10:05:34Z</time>
      </trkpt>
      <trkpt lat="48.65747" lon="-3.4449">
        <ele>96</ele>
        <time>2015-01-04T10:05:35Z</time>
      </trkpt>
      <trkpt lat="48.6574" lon="-3.4449">
        <ele>96</ele>
        <time>2015-01-04T10:05:36Z</time>
      </trkpt>
      <trkpt lat="48.65733" lon="-3.44491">
        <ele>96</ele>
        <time>2015-01-04T10:05:37Z</time>
      </trkpt>
      <trkpt lat="48.65726" lon="-3.44491">
        <ele>96</ele>
        <time>2015-01-04T10:05:38Z</time>
      </trkpt>
      <trkpt lat="48.65719" lon="-3.44491">
        <ele>96</ele>
        <time>2015-01-04T10:05:39Z</time>
      </trkpt>
      <trkpt lat="48.65712" lon="-3.44492">
        <ele>96</ele>
        <time>2015-01-04T10:05:40Z</time>
      </trkpt>
      <trkpt lat="48.65704" lon="-3.44493">
        <ele>96</ele>
        <time>2015-01-04T10:05:41Z</time>
      </trkpt>
      <trkpt lat="48.65697" lon="-3.44493">
        <ele>96</ele>
        <time>2015-01-04T10:05:42Z</time>
      </trkpt>
      <trkpt lat="48.6569" lon="-3.44494">
        <ele>96</ele>
        <time>2015-01-04T10:05:43Z</time>
      </trkpt>
      <trkpt lat="48.65683" lon="-3.44494">
        <ele>96</ele>
        <time>2015-01-04T10:05:44Z</time>
      </trkpt>
      <trkpt lat="48.65676" lon="-3.44495">
        <ele>96</ele>
        <time>2015-01-04T10:05:45Z</time>
      </trkpt>
      <trkpt lat="48.65669" lon="-3.44496">
        <ele>96</ele>
        <time>2015-01-04T10:05:46Z</time>
      </trkpt>
      <trkpt lat="48.65662" lon="-3.44497">
        <ele>96</ele>
        <time>2015-01-04T10:05:47Z</time>
      </trkpt>
      <trkpt lat="48.65655" lon="-3.44499">
        <ele>96</ele>
        <time>2015-01-04T10:05:48Z</time>
      </trkpt>
      <trkpt lat="48.65649" lon="-3.44501">
        <ele>96</ele>
        <time>2015-01-04T10:05:49Z</time>
      </trkpt>
      <trkpt lat="48.65642" lon="-3.44503">
        <ele>96</ele>
        <time>2015-01-04T10:05:50Z</time>
      </trkpt>
      <trkpt lat="48.65635" lon="-3.44504">
        <ele>96</ele>
        <time>2015-01-04T10:05:51Z</time>
      </trkpt>
      <trkpt lat="48.65629" lon="-3.44506">
        <ele>96</ele>
        <time>2015-01-04T10:05:52Z</time>
      </trkpt>
      <trkpt lat="48.65622" lon="-3.44507">
        <ele>96</ele>
        <time>2015-01-04T10:05:53Z</time>
      </trkpt>
      <trkpt lat="48.65616" lon="-3.44508">
        <ele>96</ele>
        <time>2015-01-04T10:05:54Z</time>
      </trkpt>
      <trkpt lat="48.6561" lon="-3.44509">
        <ele>96</ele>
        <time>2015-01-04T10:05:55Z</time>
      </trkpt>
      <trkpt lat="48.65604" lon="-3.4451">
        <ele>96</ele>
        <time>2015-01-04T10:05:56Z</time>
      </trkpt>
      <trkpt lat="48.65598" lon="-3.4451">
        <ele>96</ele>
        <time>2015-01-04T10:05:57Z</time>
      </trkpt>
      <trkpt lat="48.65593" lon="-3.44509">
        <ele>97</ele>
        <time>2015-01-04T10:05:58Z</time>
      </trkpt>
      <trkpt lat="48.65588" lon="-3.44506">
        <ele>97</ele>
        <time>2015-01-04T10:05:59Z</time>
      </trkpt>
      <trkpt lat="48.65583" lon="-3.44502">
        <ele>97</ele>
        <time>2015-01-04T10:06:00Z</time>
      </trkpt>
      <trkpt lat="48.6558" lon="-3.44496">
        <ele>97</ele>
        <time>2015-01-04T10:06:01Z</time>
      </trkpt>
      <trkpt lat="48.65578" lon="-3.4449">
        <ele>97</ele>
        <time>2015-01-04T10:06:02Z</time>
      </trkpt>
      <trkpt lat="48.65576" lon="-3.44484">
        <ele>97</ele>
        <time>2015-01-04T10:06:03Z</time>
      </trkpt>
      <trkpt lat="48.65575" lon="-3.44478">
        <ele>97</ele>
        <time>2015-01-04T10:06:04Z</time>
      </trkpt>
      <trkpt lat="48.65574" lon="-3.44473">
        <ele>97</ele>
        <time>2015-01-04T10:06:05Z</time>
      </trkpt>
      <trkpt lat="48.65573" lon="-3.44468">
        <ele>98</ele>
        <time>2015-01-04T10:06:06Z</time>
      </trkpt>
      <trkpt lat="48.65572" lon="-3.44465">
        <ele>98</ele>
        <time>2015-01-04T10:06:07Z</time>
      </trkpt>
      <trkpt lat="48.65571" lon="-3.44461">
        <ele>98</ele>
        <time>2015-01-04T10:06:08Z</time>
      </trkpt>
      <trkpt lat="48.65571" lon="-3.44457">
        <ele>98</ele>
        <time>2015-01-04T10:06:09Z</time>
      </trkpt>
      <trkpt lat="48.65572" lon="-3.44453">
        <ele>98</ele>
        <time>2015-01-04T10:06:10Z</time>
      </trkpt>
      <trkpt lat="48.65574" lon="-3.44448">
        <ele>98</ele>
        <time>2015-01-04T10:06:11Z</time>
      </trkpt>
      <trkpt lat="48.65578" lon="-3.44444">
        <ele>98</ele>
        <time>2015-01-04T10:06:12Z</time>
      </trkpt>
      <trkpt lat="48.65582" lon="-3.4444">
        <ele>98</ele>
        <time>2015-01-04T10:06:13Z</time>
      </trkpt>
      <trkpt lat="48.65587" lon="-3.44437">
        <ele>98</ele>
        <time>2015-01-04T10:06:14Z</time>
      </trkpt>
      <trkpt lat="48.65593" lon="-3.44435">
        <ele>98</ele>
        <time>2015-01-04T10:06:15Z</time>
      </trkpt>
      <trkpt lat="48.65599" lon="-3.44433">
        <ele>98</ele>
        <time>2015-01-04T10:06:16Z</time>
      </trkpt>
      <trkpt lat="48.65605" lon="-3.44431">
        <ele>98</ele>
        <time>2015-01-04T10:06:17Z</time>
      </trkpt>
      <trkpt lat="48.65611" lon="-3.44428">
        <ele>98</ele>
        <time>2015-01-04T10:06:18Z</time>
      </trkpt>
      <trkpt lat="48.65617" lon="-3.44426">
        <ele>98</ele>
        <time>2015-01-04T10:06:19Z</time>
      </trkpt>
      <trkpt lat="48.65623" lon="-3.44425">
        <ele>98</ele>
        <time>2015-01-04T10:06:20Z</time>
      </trkpt>
      <trkpt lat="48.6563" lon="-3.44422">
        <ele>98</ele>
        <time>2015-01-04T10:06:21Z</time>
      </trkpt>
      <trkpt lat="48.65637" lon="-3.4442">
        <ele>98</ele>
        <time>2015-01-04T10:06:22Z</time>
      </trkpt>
      <trkpt lat="48.65643" lon="-3.44418">
        <ele>98</ele>
        <time>2015-01-04T10:06:23Z</time>
      </trkpt>
      <trkpt lat="48.65651" lon="-3.44415">
        <ele>98</ele>
        <time>2015-01-04T10:06:24Z</time>
      </trkpt>
      <trkpt lat="48.65657" lon="-3.44412">
        <ele>98</ele>
        <time>2015-01-04T10:06:25Z</time>
      </trkpt>
      <trkpt lat="48.65665" lon="-3.44409">
        <ele>98</ele>
        <time>2015-01-04T10:06:26Z</time>
      </trkpt>
      <trkpt lat="48.65672" lon="-3.44407">
        <ele>98</ele>
        <time>2015-01-04T10:06:27Z</time>
      </trkpt>
      <trkpt lat="48.6568" lon="-3.44404">
        <ele>98</ele>
        <time>2015-01-04T10:06:28Z</time>
      </trkpt>
      <trkpt lat="48.65687" lon="-3.44401">
        <ele>98</ele>
        <time>2015-01-04T10:06:29Z</time>
      </trkpt>
      <trkpt lat="48.65695" lon="-3.44398">
        <ele>98</ele>
        <time>2015-01-04T10:06:30Z</time>
      </trkpt>
      <trkpt lat="48.65703" lon="-3.44395">
        <ele>98</ele>
        <time>2015-01-04T10:06:31Z</time>
      </trkpt>
      <trkpt lat="48.65711" lon="-3.44392">
        <ele>98</ele>
        <time>2015-01-04T10:06:32Z</time>
      </trkpt>
      <trkpt lat="48.65719" lon="-3.44389">
        <ele>98</ele>
        <time>2015-01-04T10:06:33Z</time>
      </trkpt>
      <trkpt lat="48.65728" lon="-3.44386">
        <ele>98</ele>
        <time>2015-01-04T10:06:34Z</time>
      </trkpt>
      <trkpt lat="48.65736" lon="-3.44382">
        <ele>98</ele>
        <time>2015-01-04T10:06:35Z</time>
      </trkpt>
      <trkpt lat="48.65744" lon="-3.44379">
        <ele>98</ele>
        <time>2015-01-04T10:06:36Z</time>
      </trkpt>
      <trkpt lat="48.65753" lon="-3.44376">
        <ele>98</ele>
        <time>2015-01-04T10:06:37Z</time>
      </trkpt>
      <trkpt lat="48.65761" lon="-3.44372">
        <ele>98</ele>
        <time>2015-01-04T10:06:38Z</time>
      </trkpt>
      <trkpt lat="48.6577" lon="-3.44369">
        <ele>98</ele>
        <time>2015-01-04T10:06:39Z</time>
      </trkpt>
      <trkpt lat="48.65778" lon="-3.44366">
        <ele>98</ele>
        <time>2015-01-04T10:06:40Z</time>
      </trkpt>
      <trkpt lat="48.65786" lon="-3.44363">
        <ele>98</ele>
        <time>2015-01-04T10:06:41Z</time>
      </trkpt>
      <trkpt lat="48.65794" lon="-3.44361">
        <ele>98</ele>
        <time>2015-01-04T10:06:42Z</time>
      </trkpt>
      <trkpt lat="48.65803" lon="-3.44358">
        <ele>98</ele>
        <time>2015-01-04T10:06:43Z</time>
      </trkpt>
      <trkpt lat="48.65811" lon="-3.44356">
        <ele>98</ele>
        <time>2015-01-04T10:06:44Z</time>
      </trkpt>
      <trkpt lat="48.65819" lon="-3.44353">
        <ele>98</ele>
        <time>2015-01-04T10:06:45Z</time>
      </trkpt>
      <trkpt lat="48.65828" lon="-3.44351">
        <ele>98</ele>
        <time>2015-01-04T10:06:46Z</time>
      </trkpt>
      <trkpt lat="48.65836" lon="-3.44349">
        <ele>98</ele>
        <time>2015-01-04T10:06:47Z</time>
      </trkpt>
      <trkpt lat="48.65845" lon="-3.44348">
        <ele>98</ele>
        <time>2015-01-04T10:06:48Z</time>
      </trkpt>
      <trkpt lat="48.65855" lon="-3.44347">
        <ele>98</ele>
        <time>2015-01-04T10:06:49Z</time>
      </trkpt>
      <trkpt lat="48.65864" lon="-3.44346">
        <ele>98</ele>
        <time>2015-01-04T10:06:50Z</time>
      </trkpt>
      <trkpt lat="48.65873" lon="-3.44345">
        <ele>98</ele>
        <time>2015-01-04T10:06:51Z</time>
      </trkpt>
      <trkpt lat="48.65881" lon="-3.44344">
        <ele>98</ele>
        <time>2015-01-04T10:06:52Z</time>
      </trkpt>
      <trkpt lat="48.6589" lon="-3.44342">
        <ele>98</ele>
        <time>2015-01-04T10:06:53Z</time>
      </trkpt>
      <trkpt lat="48.65899" lon="-3.44342">
        <ele>97</ele>
        <time>2015-01-04T10:06:54Z</time>
      </trkpt>
      <trkpt lat="48.65908" lon="-3.44342">
        <ele>97</ele>
        <time>2015-01-04T10:06:55Z</time>
      </trkpt>
      <trkpt lat="48.65917" lon="-3.44342">
        <ele>97</ele>
        <time>2015-01-04T10:06:56Z</time>
      </trkpt>
      <trkpt lat="48.65926" lon="-3.44342">
        <ele>97</ele>
        <time>2015-01-04T10:06:57Z</time>
      </trkpt>
      <trkpt lat="48.65935" lon="-3.44343">
        <ele>97</ele>
        <time>2015-01-04T10:06:58Z</time>
      </trkpt>
      <trkpt lat="48.65944" lon="-3.44343">
        <ele>96</ele>
        <time>2015-01-04T10:06:59Z</time>
      </trkpt>
      <trkpt lat="48.65953" lon="-3.44344">
        <ele>96</ele>
        <time>2015-01-04T10:07:00Z</time>
      </trkpt>
      <trkpt lat="48.65962" lon="-3.44345">
        <ele>96</ele>
        <time>2015-01-04T10:07:01Z</time>
      </trkpt>
      <trkpt lat="48.65971" lon="-3.44346">
        <ele>96</ele>
        <time>2015-01-04T10:07:02Z</time>
      </trkpt>
      <trkpt lat="48.65981" lon="-3.44347">
        <ele>95</ele>
        <time>2015-01-04T10:07:03Z</time>
      </trkpt>
      <trkpt lat="48.6599" lon="-3.44349">
        <ele>95</ele>
        <time>2015-01-04T10:07:04Z</time>
      </trkpt>
      <trkpt lat="48.65999" lon="-3.4435">
        <ele>95</ele>
        <time>2015-01-04T10:07:05Z</time>
      </trkpt>
      <trkpt lat="48.66008" lon="-3.44352">
        <ele>95</ele>
        <time>2015-01-04T10:07:06Z</time>
      </trkpt>
      <trkpt lat="48.66017" lon="-3.44354">
        <ele>95</ele>
        <time>2015-01-04T10:07:07Z</time>
      </trkpt>
      <trkpt lat="48.66026" lon="-3.44356">
        <ele>95</ele>
        <time>2015-01-04T10:07:08Z</time>
      </trkpt>
      <trkpt lat="48.66034" lon="-3.44359">
        <ele>94</ele>
        <time>2015-01-04T10:07:09Z</time>
      </trkpt>
      <trkpt lat="48.66043" lon="-3.44361">
        <ele>94</ele>
        <time>2015-01-04T10:07:10Z</time>
      </trkpt>
      <trkpt lat="48.66053" lon="-3.44363">
        <ele>94</ele>
        <time>2015-01-04T10:07:11Z</time>
      </trkpt>
      <trkpt lat="48.66062" lon="-3.44365">
        <ele>94</ele>
        <time>2015-01-04T10:07:12Z</time>
      </trkpt>
      <trkpt lat="48.66071" lon="-3.44368">
        <ele>94</ele>
        <time>2015-01-04T10:07:13Z</time>
      </trkpt>
      <trkpt lat="48.6608" lon="-3.4437">
        <ele>94</ele>
        <time>2015-01-04T10:07:14Z</time>
      </trkpt>
      <trkpt lat="48.66089" lon="-3.44372">
        <ele>94</ele>
        <time>2015-01-04T10:07:15Z</time>
      </trkpt>
      <trkpt lat="48.66098" lon="-3.44374">
        <ele>94</ele>
        <time>2015-01-04T10:07:16Z</time>
      </trkpt>
      <trkpt lat="48.66107" lon="-3.44377">
        <ele>94</ele>
        <time>2015-01-04T10:07:17Z</time>
      </trkpt>
      <trkpt lat="48.66116" lon="-3.44379">
        <ele>94</ele>
        <time>2015-01-04T10:07:18Z</time>
      </trkpt>
      <trkpt lat="48.66125" lon="-3.44381">
        <ele>94</ele>
        <time>2015-01-04T10:07:19Z</time>
      </trkpt>
      <trkpt lat="48.66134" lon="-3.44383">
        <ele>94</ele>
        <time>2015-01-04T10:07:20Z</time>
      </trkpt>
      <trkpt lat="48.66143" lon="-3.44385">
        <ele>94</ele>
        <time>2015-01-04T10:07:21Z</time>
      </trkpt>
      <trkpt lat="48.66151" lon="-3.44388">
        <ele>94</ele>
        <time>2015-01-04T10:07:22Z</time>
      </trkpt>
      <trkpt lat="48.6616" lon="-3.4439">
        <ele>94</ele>
        <time>2015-01-04T10:07:23Z</time>
      </trkpt>
      <trkpt lat="48.66168" lon="-3.44392">
        <ele>94</ele>
        <time>2015-01-04T10:07:24Z</time>
      </trkpt>
      <trkpt lat="48.66176" lon="-3.44394">
        <ele>94</ele>
        <time>2015-01-04T10:07:25Z</time>
      </trkpt>
      <trkpt lat="48.66184" lon="-3.44396">
        <ele>94</ele>
        <time>2015-01-04T10:07:26Z</time>
      </trkpt>
      <trkpt lat="48.66192" lon="-3.44398">
        <ele>94</ele>
        <time>2015-01-04T10:07:27Z</time>
      </trkpt>
      <trkpt lat="48.662" lon="-3.444">
        <ele>94</ele>
        <time>2015-01-04T10:07:28Z</time>
      </trkpt>
      <trkpt lat="48.66208" lon="-3.44402">
        <ele>94</ele>
        <time>2015-01-04T10:07:29Z</time>
      </trkpt>
      <trkpt lat="48.66216" lon="-3.44404">
        <ele>94</ele>
        <time>2015-01-04T10:07:30Z</time>
      </trkpt>
      <trkpt lat="48.66224" lon="-3.44406">
        <ele>94</ele>
        <time>2015-01-04T10:07:31Z</time>
      </trkpt>
      <trkpt lat="48.66231" lon="-3.44407">
        <ele>94</ele>
        <time>2015-01-04T10:07:32Z</time>
      </trkpt>
      <trkpt lat="48.66239" lon="-3.44409">
        <ele>94</ele>
        <time>2015-01-04T10:07:33Z</time>
      </trkpt>
      <trkpt lat="48.66246" lon="-3.44411">
        <ele>94</ele>
        <time>2015-01-04T10:07:34Z</time>
      </trkpt>
      <trkpt lat="48.66254" lon="-3.44413">
        <ele>94</ele>
        <time>2015-01-04T10:07:35Z</time>
      </trkpt>
      <trkpt lat="48.66261" lon="-3.44415">
        <ele>94</ele>
        <time>2015-01-04T10:07:36Z</time>
      </trkpt>
      <trkpt lat="48.66268" lon="-3.44417">
        <ele>94</ele>
        <time>2015-01-04T10:07:37Z</time>
      </trkpt>
      <trkpt lat="48.66276" lon="-3.44419">
        <ele>94</ele>
        <time>2015-01-04T10:07:38Z</time>
      </trkpt>
      <trkpt lat="48.66283" lon="-3.4442">
        <ele>94</ele>
        <time>2015-01-04T10:07:39Z</time>
      </trkpt>
      <trkpt lat="48.6629" lon="-3.44422">
        <ele>94</ele>
        <time>2015-01-04T10:07:40Z</time>
      </trkpt>
      <trkpt lat="48.66297" lon="-3.44424">
        <ele>94</ele>
        <time>2015-01-04T10:07:41Z</time>
      </trkpt>
      <trkpt lat="48.66304" lon="-3.44426">
        <ele>94</ele>
        <time>2015-01-04T10:07:42Z</time>
      </trkpt>
      <trkpt lat="48.66312" lon="-3.44427">
        <ele>94</ele>
        <time>2015-01-04T10:07:43Z</time>
      </trkpt>
      <trkpt lat="48.66319" lon="-3.44429">
        <ele>94</ele>
        <time>2015-01-04T10:07:44Z</time>
      </trkpt>
      <trkpt lat="48.66326" lon="-3.44431">
        <ele>94</ele>
        <time>2015-01-04T10:07:45Z</time>
      </trkpt>
      <trkpt lat="48.66333" lon="-3.44433">
        <ele>94</ele>
        <time>2015-01-04T10:07:46Z</time>
      </trkpt>
      <trkpt lat="48.6634" lon="-3.44434">
        <ele>94</ele>
        <time>2015-01-04T10:07:47Z</time>
      </trkpt>
      <trkpt lat="48.66347" lon="-3.44436">
        <ele>94</ele>
        <time>2015-01-04T10:07:48Z</time>
      </trkpt>
      <trkpt lat="48.66354" lon="-3.44437">
        <ele>94</ele>
        <time>2015-01-04T10:07:49Z</time>
      </trkpt>
      <trkpt lat="48.66361" lon="-3.44439">
        <ele>94</ele>
        <time>2015-01-04T10:07:50Z</time>
      </trkpt>
      <trkpt lat="48.66368" lon="-3.4444">
        <ele>94</ele>
        <time>2015-01-04T10:07:51Z</time>
      </trkpt>
      <trkpt lat="48.66375" lon="-3.44442">
        <ele>94</ele>
        <time>2015-01-04T10:07:52Z</time>
      </trkpt>
      <trkpt lat="48.66382" lon="-3.44443">
        <ele>94</ele>
        <time>2015-01-04T10:07:53Z</time>
      </trkpt>
      <trkpt lat="48.66389" lon="-3.44443">
        <ele>94</ele>
        <time>2015-01-04T10:07:54Z</time>
      </trkpt>
      <trkpt lat="48.66397" lon="-3.44444">
        <ele>94</ele>
        <time>2015-01-04T10:07:55Z</time>
      </trkpt>
      <trkpt lat="48.66404" lon="-3.44444">
        <ele>94</ele>
        <time>2015-01-04T10:07:56Z</time>
      </trkpt>
      <trkpt lat="48.66411" lon="-3.44445">
        <ele>94</ele>
        <time>2015-01-04T10:07:57Z</time>
      </trkpt>
      <trkpt lat="48.66426" lon="-3.44444">
        <ele>94</ele>
        <time>2015-01-04T10:07:59Z</time>
      </trkpt>
      <trkpt lat="48.66434" lon="-3.44444">
        <ele>94</ele>
        <time>2015-01-04T10:08:00Z</time>
      </trkpt>
      <trkpt lat="48.6645" lon="-3.44444">
        <ele>94</ele>
        <time>2015-01-04T10:08:02Z</time>
      </trkpt>
      <trkpt lat="48.66457" lon="-3.44444">
        <ele>94</ele>
        <time>2015-01-04T10:08:03Z</time>
      </trkpt>
      <trkpt lat="48.66465" lon="-3.44443">
        <ele>94</ele>
        <time>2015-01-04T10:08:04Z</time>
      </trkpt>
      <trkpt lat="48.66472" lon="-3.44443">
        <ele>94</ele>
        <time>2015-01-04T10:08:05Z</time>
      </trkpt>
      <trkpt lat="48.6648" lon="-3.44442">
        <ele>94</ele>
        <time>2015-01-04T10:08:06Z</time>
      </trkpt>
      <trkpt lat="48.66488" lon="-3.44441">
        <ele>94</ele>
        <time>2015-01-04T10:08:07Z</time>
      </trkpt>
      <trkpt lat="48.66495" lon="-3.44441">
        <ele>94</ele>
        <time>2015-01-04T10:08:08Z</time>
      </trkpt>
      <trkpt lat="48.66503" lon="-3.4444">
        <ele>94</ele>
        <time>2015-01-04T10:08:09Z</time>
      </trkpt>
      <trkpt lat="48.6651" lon="-3.44439">
        <ele>94</ele>
        <time>2015-01-04T10:08:10Z</time>
      </trkpt>
      <trkpt lat="48.66518" lon="-3.44438">
        <ele>94</ele>
        <time>2015-01-04T10:08:11Z</time>
      </trkpt>
      <trkpt lat="48.66533" lon="-3.44439">
        <ele>94</ele>
        <time>2015-01-04T10:08:13Z</time>
      </trkpt>
      <trkpt lat="48.66541" lon="-3.44439">
        <ele>94</ele>
        <time>2015-01-04T10:08:14Z</time>
      </trkpt>
      <trkpt lat="48.66556" lon="-3.44439">
        <ele>94</ele>
        <time>2015-01-04T10:08:16Z</time>
      </trkpt>
      <trkpt lat="48.66571" lon="-3.44439">
        <ele>94</ele>
        <time>2015-01-04T10:08:18Z</time>
      </trkpt>
      <trkpt lat="48.66579" lon="-3.44439">
        <ele>94</ele>
        <time>2015-01-04T10:08:19Z</time>
      </trkpt>
      <trkpt lat="48.66587" lon="-3.4444">
        <ele>94</ele>
        <time>2015-01-04T10:08:20Z</time>
      </trkpt>
      <trkpt lat="48.66595" lon="-3.4444">
        <ele>94</ele>
        <time>2015-01-04T10:08:21Z</time>
      </trkpt>
      <trkpt lat="48.66603" lon="-3.44441">
        <ele>94</ele>
        <time>2015-01-04T10:08:22Z</time>
      </trkpt>
      <trkpt lat="48.66612" lon="-3.44441">
        <ele>94</ele>
        <time>2015-01-04T10:08:23Z</time>
      </trkpt>
      <trkpt lat="48.6662" lon="-3.44442">
        <ele>94</ele>
        <time>2015-01-04T10:08:24Z</time>
      </trkpt>
      <trkpt lat="48.66629" lon="-3.44442">
        <ele>94</ele>
        <time>2015-01-04T10:08:25Z</time>
      </trkpt>
      <trkpt lat="48.66637" lon="-3.44443">
        <ele>94</ele>
        <time>2015-01-04T10:08:26Z</time>
      </trkpt>
      <trkpt lat="48.66645" lon="-3.44443">
        <ele>94</ele>
        <time>2015-01-04T10:08:27Z</time>
      </trkpt>
      <trkpt lat="48.66654" lon="-3.44444">
        <ele>94</ele>
        <time>2015-01-04T10:08:28Z</time>
      </trkpt>
      <trkpt lat="48.66662" lon="-3.44444">
        <ele>94</ele>
        <time>2015-01-04T10:08:29Z</time>
      </trkpt>
      <trkpt lat="48.6667" lon="-3.44445">
        <ele>94</ele>
        <time>2015-01-04T10:08:30Z</time>
      </trkpt>
      <trkpt lat="48.66678" lon="-3.44446">
        <ele>94</ele>
        <time>2015-01-04T10:08:31Z</time>
      </trkpt>
      <trkpt lat="48.66686" lon="-3.44446">
        <ele>94</ele>
        <time>2015-01-04T10:08:32Z</time>
      </trkpt>
      <trkpt lat="48.66694" lon="-3.44447">
        <ele>94</ele>
        <time>2015-01-04T10:08:33Z</time>
      </trkpt>
      <trkpt lat="48.66703" lon="-3.44448">
        <ele>94</ele>
        <time>2015-01-04T10:08:34Z</time>
      </trkpt>
      <trkpt lat="48.66711" lon="-3.44449">
        <ele>94</ele>
        <time>2015-01-04T10:08:35Z</time>
      </trkpt>
      <trkpt lat="48.66719" lon="-3.4445">
        <ele>94</ele>
        <time>2015-01-04T10:08:36Z</time>
      </trkpt>
      <trkpt lat="48.66727" lon="-3.44451">
        <ele>94</ele>
        <time>2015-01-04T10:08:37Z</time>
      </trkpt>
      <trkpt lat="48.66736" lon="-3.44452">
        <ele>94</ele>
        <time>2015-01-04T10:08:38Z</time>
      </trkpt>
      <trkpt lat="48.66745" lon="-3.44453">
        <ele>94</ele>
        <time>2015-01-04T10:08:39Z</time>
      </trkpt>
      <trkpt lat="48.66753" lon="-3.44454">
        <ele>94</ele>
        <time>2015-01-04T10:08:40Z</time>
      </trkpt>
      <trkpt lat="48.66762" lon="-3.44455">
        <ele>94</ele>
        <time>2015-01-04T10:08:41Z</time>
      </trkpt>
      <trkpt lat="48.66771" lon="-3.44456">
        <ele>94</ele>
        <time>2015-01-04T10:08:42Z</time>
      </trkpt>
      <trkpt lat="48.66779" lon="-3.44457">
        <ele>94</ele>
        <time>2015-01-04T10:08:43Z</time>
      </trkpt>
      <trkpt lat="48.66788" lon="-3.44458">
        <ele>94</ele>
        <time>2015-01-04T10:08:44Z</time>
      </trkpt>
      <trkpt lat="48.66797" lon="-3.44459">
        <ele>94</ele>
        <time>2015-01-04T10:08:45Z</time>
      </trkpt>
      <trkpt lat="48.66806" lon="-3.44461">
        <ele>94</ele>
        <time>2015-01-04T10:08:46Z</time>
      </trkpt>
      <trkpt lat="48.66814" lon="-3.44461">
        <ele>94</ele>
        <time>2015-01-04T10:08:47Z</time>
      </trkpt>
      <trkpt lat="48.66823" lon="-3.44462">
        <ele>94</ele>
        <time>2015-01-04T10:08:48Z</time>
      </trkpt>
      <trkpt lat="48.66832" lon="-3.44463">
        <ele>94</ele>
        <time>2015-01-04T10:08:49Z</time>
      </trkpt>
      <trkpt lat="48.6684" lon="-3.44464">
        <ele>94</ele>
        <time>2015-01-04T10:08:50Z</time>
      </trkpt>
      <trkpt lat="48.66848" lon="-3.44465">
        <ele>94</ele>
        <time>2015-01-04T10:08:51Z</time>
      </trkpt>
      <trkpt lat="48.66857" lon="-3.44465">
        <ele>94</ele>
        <time>2015-01-04T10:08:52Z</time>
      </trkpt>
      <trkpt lat="48.66865" lon="-3.44466">
        <ele>94</ele>
        <time>2015-01-04T10:08:53Z</time>
      </trkpt>
      <trkpt lat="48.66874" lon="-3.44467">
        <ele>94</ele>
        <time>2015-01-04T10:08:54Z</time>
      </trkpt>
      <trkpt lat="48.66882" lon="-3.44469">
        <ele>94</ele>
        <time>2015-01-04T10:08:55Z</time>
      </trkpt>
      <trkpt lat="48.66891" lon="-3.4447">
        <ele>94</ele>
        <time>2015-01-04T10:08:56Z</time>
      </trkpt>
      <trkpt lat="48.66899" lon="-3.44471">
        <ele>94</ele>
        <time>2015-01-04T10:08:57Z</time>
      </trkpt>
      <trkpt lat="48.66908" lon="-3.44472">
        <ele>94</ele>
        <time>2015-01-04T10:08:58Z</time>
      </trkpt>
      <trkpt lat="48.66916" lon="-3.44472">
        <ele>94</ele>
        <time>2015-01-04T10:08:59Z</time>
      </trkpt>
      <trkpt lat="48.66925" lon="-3.44473">
        <ele>94</ele>
        <time>2015-01-04T10:09:00Z</time>
      </trkpt>
      <trkpt lat="48.66933" lon="-3.44473">
        <ele>94</ele>
        <time>2015-01-04T10:09:01Z</time>
      </trkpt>
      <trkpt lat="48.66941" lon="-3.44474">
        <ele>94</ele>
        <time>2015-01-04T10:09:02Z</time>
      </trkpt>
      <trkpt lat="48.6695" lon="-3.44474">
        <ele>94</ele>
        <time>2015-01-04T10:09:03Z</time>
      </trkpt>
      <trkpt lat="48.66959" lon="-3.44474">
        <ele>94</ele>
        <time>2015-01-04T10:09:04Z</time>
      </trkpt>
      <trkpt lat="48.66968" lon="-3.44474">
        <ele>94</ele>
        <time>2015-01-04T10:09:05Z</time>
      </trkpt>
      <trkpt lat="48.66977" lon="-3.44473">
        <ele>94</ele>
        <time>2015-01-04T10:09:06Z</time>
      </trkpt>
      <trkpt lat="48.66985" lon="-3.44471">
        <ele>94</ele>
        <time>2015-01-04T10:09:07Z</time>
      </trkpt>
      <trkpt lat="48.66994" lon="-3.4447">
        <ele>94</ele>
        <time>2015-01-04T10:09:08Z</time>
      </trkpt>
      <trkpt lat="48.67003" lon="-3.44468">
        <ele>94</ele>
        <time>2015-01-04T10:09:09Z</time>
      </trkpt>
      <trkpt lat="48.67012" lon="-3.44466">
        <ele>94</ele>
        <time>2015-01-04T10:09:10Z</time>
      </trkpt>
      <trkpt lat="48.6702" lon="-3.44463">
        <ele>94</ele>
        <time>2015-01-04T10:09:11Z</time>
      </trkpt>
      <trkpt lat="48.67029" lon="-3.44461">
        <ele>94</ele>
        <time>2015-01-04T10:09:12Z</time>
      </trkpt>
      <trkpt lat="48.67038" lon="-3.44458">
        <ele>94</ele>
        <time>2015-01-04T10:09:13Z</time>
      </trkpt>
      <trkpt lat="48.67046" lon="-3.44456">
        <ele>94</ele>
        <time>2015-01-04T10:09:14Z</time>
      </trkpt>
      <trkpt lat="48.67055" lon="-3.44453">
        <ele>94</ele>
        <time>2015-01-04T10:09:15Z</time>
      </trkpt>
      <trkpt lat="48.67063" lon="-3.44451">
        <ele>94</ele>
        <time>2015-01-04T10:09:16Z</time>
      </trkpt>
      <trkpt lat="48.67072" lon="-3.44448">
        <ele>94</ele>
        <time>2015-01-04T10:09:17Z</time>
      </trkpt>
      <trkpt lat="48.6708" lon="-3.44445">
        <ele>94</ele>
        <time>2015-01-04T10:09:18Z</time>
      </trkpt>
      <trkpt lat="48.67088" lon="-3.44443">
        <ele>94</ele>
        <time>2015-01-04T10:09:19Z</time>
      </trkpt>
      <trkpt lat="48.67097" lon="-3.44441">
        <ele>93</ele>
        <time>2015-01-04T10:09:20Z</time>
      </trkpt>
      <trkpt lat="48.67105" lon="-3.44439">
        <ele>93</ele>
        <time>2015-01-04T10:09:21Z</time>
      </trkpt>
      <trkpt lat="48.67114" lon="-3.44437">
        <ele>93</ele>
        <time>2015-01-04T10:09:22Z</time>
      </trkpt>
      <trkpt lat="48.67123" lon="-3.44436">
        <ele>93</ele>
        <time>2015-01-04T10:09:23Z</time>
      </trkpt>
      <trkpt lat="48.67131" lon="-3.44435">
        <ele>93</ele>
        <time>2015-01-04T10:09:24Z</time>
      </trkpt>
      <trkpt lat="48.6714" lon="-3.44434">
        <ele>93</ele>
        <time>2015-01-04T10:09:25Z</time>
      </trkpt>
      <trkpt lat="48.67149" lon="-3.44434">
        <ele>93</ele>
        <time>2015-01-04T10:09:26Z</time>
      </trkpt>
      <trkpt lat="48.67158" lon="-3.44434">
        <ele>93</ele>
        <time>2015-01-04T10:09:27Z</time>
      </trkpt>
      <trkpt lat="48.67167" lon="-3.44434">
        <ele>93</ele>
        <time>2015-01-04T10:09:28Z</time>
      </trkpt>
      <trkpt lat="48.67176" lon="-3.44434">
        <ele>93</ele>
        <time>2015-01-04T10:09:29Z</time>
      </trkpt>
      <trkpt lat="48.67185" lon="-3.44435">
        <ele>93</ele>
        <time>2015-01-04T10:09:30Z</time>
      </trkpt>
      <trkpt lat="48.67194" lon="-3.44436">
        <ele>93</ele>
        <time>2015-01-04T10:09:31Z</time>
      </trkpt>
      <trkpt lat="48.67202" lon="-3.44437">
        <ele>93</ele>
        <time>2015-01-04T10:09:32Z</time>
      </trkpt>
      <trkpt lat="48.6721" lon="-3.44438">
        <ele>93</ele>
        <time>2015-01-04T10:09:33Z</time>
      </trkpt>
      <trkpt lat="48.67218" lon="-3.44438">
        <ele>93</ele>
        <time>2015-01-04T10:09:34Z</time>
      </trkpt>
      <trkpt lat="48.67227" lon="-3.44439">
        <ele>93</ele>
        <time>2015-01-04T10:09:35Z</time>
      </trkpt>
      <trkpt lat="48.67235" lon="-3.4444">
        <ele>93</ele>
        <time>2015-01-04T10:09:36Z</time>
      </trkpt>
      <trkpt lat="48.67243" lon="-3.44441">
        <ele>93</ele>
        <time>2015-01-04T10:09:37Z</time>
      </trkpt>
      <trkpt lat="48.67251" lon="-3.44442">
        <ele>93</ele>
        <time>2015-01-04T10:09:38Z</time>
      </trkpt>
      <trkpt lat="48.67259" lon="-3.44443">
        <ele>93</ele>
        <time>2015-01-04T10:09:39Z</time>
      </trkpt>
      <trkpt lat="48.67267" lon="-3.44444">
        <ele>93</ele>
        <time>2015-01-04T10:09:40Z</time>
      </trkpt>
      <trkpt lat="48.67274" lon="-3.44446">
        <ele>93</ele>
        <time>2015-01-04T10:09:41Z</time>
      </trkpt>
      <trkpt lat="48.67282" lon="-3.44447">
        <ele>93</ele>
        <time>2015-01-04T10:09:42Z</time>
      </trkpt>
      <trkpt lat="48.67289" lon="-3.44449">
        <ele>93</ele>
        <time>2015-01-04T10:09:43Z</time>
      </trkpt>
      <trkpt lat="48.67297" lon="-3.44451">
        <ele>93</ele>
        <time>2015-01-04T10:09:44Z</time>
      </trkpt>
      <trkpt lat="48.67304" lon="-3.44454">
        <ele>93</ele>
        <time>2015-01-04T10:09:45Z</time>
      </trkpt>
      <trkpt lat="48.67311" lon="-3.44456">
        <ele>93</ele>
        <time>2015-01-04T10:09:46Z</time>
      </trkpt>
      <trkpt lat="48.67319" lon="-3.44459">
        <ele>93</ele>
        <time>2015-01-04T10:09:47Z</time>
      </trkpt>
      <trkpt lat="48.67326" lon="-3.44461">
        <ele>93</ele>
        <time>2015-01-04T10:09:48Z</time>
      </trkpt>
      <trkpt lat="48.67334" lon="-3.44463">
        <ele>93</ele>
        <time>2015-01-04T10:09:49Z</time>
      </trkpt>
      <trkpt lat="48.67341" lon="-3.44466">
        <ele>93</ele>
        <time>2015-01-04T10:09:50Z</time>
      </trkpt>
      <trkpt lat="48.67349" lon="-3.44469">
        <ele>93</ele>
        <time>2015-01-04T10:09:51Z</time>
      </trkpt>
      <trkpt lat="48.67356" lon="-3.44471">
        <ele>93</ele>
        <time>2015-01-04T10:09:52Z</time>
      </trkpt>
      <trkpt lat="48.67364" lon="-3.44474">
        <ele>93</ele>
        <time>2015-01-04T10:09:53Z</time>
      </trkpt>
      <trkpt lat="48.67371" lon="-3.44477">
        <ele>93</ele>
        <time>2015-01-04T10:09:54Z</time>
      </trkpt>
      <trkpt lat="48.67379" lon="-3.44479">
        <ele>93</ele>
        <time>2015-01-04T10:09:55Z</time>
      </trkpt>
      <trkpt lat="48.67387" lon="-3.44482">
        <ele>93</ele>
        <time>2015-01-04T10:09:56Z</time>
      </trkpt>
      <trkpt lat="48.67395" lon="-3.44484">
        <ele>93</ele>
        <time>2015-01-04T10:09:57Z</time>
      </trkpt>
      <trkpt lat="48.67402" lon="-3.44487">
        <ele>93</ele>
        <time>2015-01-04T10:09:58Z</time>
      </trkpt>
      <trkpt lat="48.6741" lon="-3.44489">
        <ele>93</ele>
        <time>2015-01-04T10:09:59Z</time>
      </trkpt>
      <trkpt lat="48.67418" lon="-3.44491">
        <ele>93</ele>
        <time>2015-01-04T10:10:00Z</time>
      </trkpt>
      <trkpt lat="48.67425" lon="-3.44492">
        <ele>93</ele>
        <time>2015-01-04T10:10:01Z</time>
      </trkpt>
      <trkpt lat="48.67433" lon="-3.44494">
        <ele>93</ele>
        <time>2015-01-04T10:10:02Z</time>
      </trkpt>
      <trkpt lat="48.6744" lon="-3.44496">
        <ele>93</ele>
        <time>2015-01-04T10:10:03Z</time>
      </trkpt>
      <trkpt lat="48.67448" lon="-3.44497">
        <ele>93</ele>
        <time>2015-01-04T10:10:04Z</time>
      </trkpt>
      <trkpt lat="48.67456" lon="-3.44498">
        <ele>93</ele>
        <time>2015-01-04T10:10:05Z</time>
      </trkpt>
      <trkpt lat="48.67463" lon="-3.44499">
        <ele>93</ele>
        <time>2015-01-04T10:10:06Z</time>
      </trkpt>
      <trkpt lat="48.67471" lon="-3.44501">
        <ele>93</ele>
        <time>2015-01-04T10:10:07Z</time>
      </trkpt>
      <trkpt lat="48.67479" lon="-3.44502">
        <ele>93</ele>
        <time>2015-01-04T10:10:08Z</time>
      </trkpt>
      <trkpt lat="48.67487" lon="-3.44503">
        <ele>93</ele>
        <time>2015-01-04T10:10:09Z</time>
      </trkpt>
      <trkpt lat="48.67495" lon="-3.44503">
        <ele>93</ele>
        <time>2015-01-04T10:10:10Z</time>
      </trkpt>
      <trkpt lat="48.67503" lon="-3.44504">
        <ele>93</ele>
        <time>2015-01-04T10:10:11Z</time>
      </trkpt>
      <trkpt lat="48.67511" lon="-3.44505">
        <ele>93</ele>
        <time>2015-01-04T10:10:12Z</time>
      </trkpt>
      <trkpt lat="48.67519" lon="-3.44505">
        <ele>93</ele>
        <time>2015-01-04T10:10:13Z</time>
      </trkpt>
      <trkpt lat="48.67526" lon="-3.44505">
        <ele>93</ele>
        <time>2015-01-04T10:10:14Z</time>
      </trkpt>
      <trkpt lat="48.67534" lon="-3.44506">
        <ele>93</ele>
        <time>2015-01-04T10:10:15Z</time>
      </trkpt>
      <trkpt lat="48.6755" lon="-3.44505">
        <ele>93</ele>
        <time>2015-01-04T10:10:17Z</time>
      </trkpt>
      <trkpt lat="48.67558" lon="-3.44505">
        <ele>93</ele>
        <time>2015-01-04T10:10:18Z</time>
      </trkpt>
      <trkpt lat="48.67566" lon="-3.44504">
        <ele>93</ele>
        <time>2015-01-04T10:10:19Z</time>
      </trkpt>
      <trkpt lat="48.67573" lon="-3.44503">
        <ele>93</ele>
        <time>2015-01-04T10:10:20Z</time>
      </trkpt>
      <trkpt lat="48.67581" lon="-3.44502">
        <ele>93</ele>
        <time>2015-01-04T10:10:21Z</time>
      </trkpt>
      <trkpt lat="48.67589" lon="-3.445">
        <ele>93</ele>
        <time>2015-01-04T10:10:22Z</time>
      </trkpt>
      <trkpt lat="48.67597" lon="-3.44498">
        <ele>93</ele>
        <time>2015-01-04T10:10:23Z</time>
      </trkpt>
      <trkpt lat="48.67605" lon="-3.44497">
        <ele>93</ele>
        <time>2015-01-04T10:10:24Z</time>
      </trkpt>
      <trkpt lat="48.67613" lon="-3.44495">
        <ele>93</ele>
        <time>2015-01-04T10:10:25Z</time>
      </trkpt>
      <trkpt lat="48.67622" lon="-3.44493">
        <ele>93</ele>
        <time>2015-01-04T10:10:26Z</time>
      </trkpt>
      <trkpt lat="48.6763" lon="-3.44491">
        <ele>93</ele>
        <time>2015-01-04T10:10:27Z</time>
      </trkpt>
      <trkpt lat="48.67638" lon="-3.44489">
        <ele>93</ele>
        <time>2015-01-04T10:10:28Z</time>
      </trkpt>
      <trkpt lat="48.67646" lon="-3.44487">
        <ele>93</ele>
        <time>2015-01-04T10:10:29Z</time>
      </trkpt>
      <trkpt lat="48.67654" lon="-3.44485">
        <ele>93</ele>
        <time>2015-01-04T10:10:30Z</time>
      </trkpt>
      <trkpt lat="48.67662" lon="-3.44482">
        <ele>93</ele>
        <time>2015-01-04T10:10:31Z</time>
      </trkpt>
      <trkpt lat="48.6767" lon="-3.4448">
        <ele>93</ele>
        <time>2015-01-04T10:10:32Z</time>
      </trkpt>
      <trkpt lat="48.67678" lon="-3.44477">
        <ele>93</ele>
        <time>2015-01-04T10:10:33Z</time>
      </trkpt>
      <trkpt lat="48.67686" lon="-3.44473">
        <ele>93</ele>
        <time>2015-01-04T10:10:34Z</time>
      </trkpt>
      <trkpt lat="48.67694" lon="-3.4447">
        <ele>93</ele>
        <time>2015-01-04T10:10:35Z</time>
      </trkpt>
      <trkpt lat="48.67702" lon="-3.44467">
        <ele>93</ele>
        <time>2015-01-04T10:10:36Z</time>
      </trkpt>
      <trkpt lat="48.6771" lon="-3.44463">
        <ele>93</ele>
        <time>2015-01-04T10:10:37Z</time>
      </trkpt>
      <trkpt lat="48.67717" lon="-3.4446">
        <ele>93</ele>
        <time>2015-01-04T10:10:38Z</time>
      </trkpt>
      <trkpt lat="48.67725" lon="-3.44455">
        <ele>93</ele>
        <time>2015-01-04T10:10:39Z</time>
      </trkpt>
      <trkpt lat="48.67733" lon="-3.44451">
        <ele>93</ele>
        <time>2015-01-04T10:10:40Z</time>
      </trkpt>
      <trkpt lat="48.67741" lon="-3.44446">
        <ele>93</ele>
        <time>2015-01-04T10:10:41Z</time>
      </trkpt>
      <trkpt lat="48.67748" lon="-3.44441">
        <ele>93</ele>
        <time>2015-01-04T10:10:42Z</time>
      </trkpt>
      <trkpt lat="48.67756" lon="-3.44436">
        <ele>93</ele>
        <time>2015-01-04T10:10:43Z</time>
      </trkpt>
      <trkpt lat="48.67763" lon="-3.44431">
        <ele>93</ele>
        <time>2015-01-04T10:10:44Z</time>
      </trkpt>
      <trkpt lat="48.67771" lon="-3.44426">
        <ele>93</ele>
        <time>2015-01-04T10:10:45Z</time>
      </trkpt>
      <trkpt lat="48.67778" lon="-3.44421">
        <ele>93</ele>
        <time>2015-01-04T10:10:46Z</time>
      </trkpt>
      <trkpt lat="48.67786" lon="-3.44416">
        <ele>93</ele>
        <time>2015-01-04T10:10:47Z</time>
      </trkpt>
      <trkpt lat="48.67793" lon="-3.44411">
        <ele>93</ele>
        <time>2015-01-04T10:10:48Z</time>
      </trkpt>
      <trkpt lat="48.67801" lon="-3.44406">
        <ele>93</ele>
        <time>2015-01-04T10:10:49Z</time>
      </trkpt>
      <trkpt lat="48.67808" lon="-3.44402">
        <ele>93</ele>
        <time>2015-01-04T10:10:50Z</time>
      </trkpt>
      <trkpt lat="48.67816" lon="-3.44395">
        <ele>93</ele>
        <time>2015-01-04T10:10:51Z</time>
      </trkpt>
      <trkpt lat="48.67825" lon="-3.4439">
        <ele>93</ele>
        <time>2015-01-04T10:10:52Z</time>
      </trkpt>
      <trkpt lat="48.67833" lon="-3.44386">
        <ele>93</ele>
        <time>2015-01-04T10:10:53Z</time>
      </trkpt>
      <trkpt lat="48.67841" lon="-3.44383">
        <ele>93</ele>
        <time>2015-01-04T10:10:54Z</time>
      </trkpt>
      <trkpt lat="48.6785" lon="-3.4438">
        <ele>93</ele>
        <time>2015-01-04T10:10:55Z</time>
      </trkpt>
      <trkpt lat="48.67858" lon="-3.44377">
        <ele>93</ele>
        <time>2015-01-04T10:10:56Z</time>
      </trkpt>
      <trkpt lat="48.67866" lon="-3.44374">
        <ele>93</ele>
        <time>2015-01-04T10:10:57Z</time>
      </trkpt>
      <trkpt lat="48.67874" lon="-3.44372">
        <ele>93</ele>
        <time>2015-01-04T10:10:58Z</time>
      </trkpt>
      <trkpt lat="48.67882" lon="-3.44371">
        <ele>93</ele>
        <time>2015-01-04T10:10:59Z</time>
      </trkpt>
      <trkpt lat="48.67891" lon="-3.44369">
        <ele>93</ele>
        <time>2015-01-04T10:11:00Z</time>
      </trkpt>
      <trkpt lat="48.67899" lon="-3.44368">
        <ele>93</ele>
        <time>2015-01-04T10:11:01Z</time>
      </trkpt>
      <trkpt lat="48.67907" lon="-3.44368">
        <ele>93</ele>
        <time>2015-01-04T10:11:02Z</time>
      </trkpt>
      <trkpt lat="48.67923" lon="-3.44368">
        <ele>93</ele>
        <time>2015-01-04T10:11:04Z</time>
      </trkpt>
      <trkpt lat="48.67932" lon="-3.44369">
        <ele>93</ele>
        <time>2015-01-04T10:11:05Z</time>
      </trkpt>
      <trkpt lat="48.6794" lon="-3.4437">
        <ele>93</ele>
        <time>2015-01-04T10:11:06Z</time>
      </trkpt>
      <trkpt lat="48.67948" lon="-3.44371">
        <ele>93</ele>
        <time>2015-01-04T10:11:07Z</time>
      </trkpt>
      <trkpt lat="48.67957" lon="-3.44373">
        <ele>93</ele>
        <time>2015-01-04T10:11:08Z</time>
      </trkpt>
      <trkpt lat="48.67965" lon="-3.44374">
        <ele>93</ele>
        <time>2015-01-04T10:11:09Z</time>
      </trkpt>
      <trkpt lat="48.67974" lon="-3.44376">
        <ele>93</ele>
        <time>2015-01-04T10:11:10Z</time>
      </trkpt>
      <trkpt lat="48.67982" lon="-3.44379">
        <ele>93</ele>
        <time>2015-01-04T10:11:11Z</time>
      </trkpt>
      <trkpt lat="48.67991" lon="-3.44381">
        <ele>93</ele>
        <time>2015-01-04T10:11:12Z</time>
      </trkpt>
      <trkpt lat="48.68" lon="-3.44384">
        <ele>92</ele>
        <time>2015-01-04T10:11:13Z</time>
      </trkpt>
      <trkpt lat="48.68008" lon="-3.44386">
        <ele>92</ele>
        <time>2015-01-04T10:11:14Z</time>
      </trkpt>
      <trkpt lat="48.68017" lon="-3.44389">
        <ele>92</ele>
        <time>2015-01-04T10:11:15Z</time>
      </trkpt>
      <trkpt lat="48.68026" lon="-3.44392">
        <ele>92</ele>
        <time>2015-01-04T10:11:16Z</time>
      </trkpt>
      <trkpt lat="48.68034" lon="-3.44396">
        <ele>92</ele>
        <time>2015-01-04T10:11:17Z</time>
      </trkpt>
      <trkpt lat="48.68043" lon="-3.44399">
        <ele>92</ele>
        <time>2015-01-04T10:11:18Z</time>
      </trkpt>
      <trkpt lat="48.68052" lon="-3.44402">
        <ele>91</ele>
        <time>2015-01-04T10:11:19Z</time>
      </trkpt>
      <trkpt lat="48.6806" lon="-3.44405">
        <ele>91</ele>
        <time>2015-01-04T10:11:20Z</time>
      </trkpt>
      <trkpt lat="48.68069" lon="-3.44407">
        <ele>91</ele>
        <time>2015-01-04T10:11:21Z</time>
      </trkpt>
      <trkpt lat="48.68077" lon="-3.4441">
        <ele>91</ele>
        <time>2015-01-04T10:11:22Z</time>
      </trkpt>
      <trkpt lat="48.68086" lon="-3.44412">
        <ele>91</ele>
        <time>2015-01-04T10:11:23Z</time>
      </trkpt>
      <trkpt lat="48.68095" lon="-3.44414">
        <ele>91</ele>
        <time>2015-01-04T10:11:24Z</time>
      </trkpt>
      <trkpt lat="48.68103" lon="-3.44416">
        <ele>91</ele>
        <time>2015-01-04T10:11:25Z</time>
      </trkpt>
      <trkpt lat="48.68112" lon="-3.44418">
        <ele>91</ele>
        <time>2015-01-04T10:11:26Z</time>
      </trkpt>
      <trkpt lat="48.68121" lon="-3.4442">
        <ele>91</ele>
        <time>2015-01-04T10:11:27Z</time>
      </trkpt>
      <trkpt lat="48.68129" lon="-3.44423">
        <ele>90</ele>
        <time>2015-01-04T10:11:28Z</time>
      </trkpt>
      <trkpt lat="48.68138" lon="-3.44425">
        <ele>90</ele>
        <time>2015-01-04T10:11:29Z</time>
      </trkpt>
      <trkpt lat="48.68147" lon="-3.44427">
        <ele>90</ele>
        <time>2015-01-04T10:11:30Z</time>
      </trkpt>
      <trkpt lat="48.68156" lon="-3.44429">
        <ele>90</ele>
        <time>2015-01-04T10:11:31Z</time>
      </trkpt>
      <trkpt lat="48.68165" lon="-3.44431">
        <ele>90</ele>
        <time>2015-01-04T10:11:32Z</time>
      </trkpt>
      <trkpt lat="48.68174" lon="-3.44434">
        <ele>90</ele>
        <time>2015-01-04T10:11:33Z</time>
      </trkpt>
      <trkpt lat="48.68183" lon="-3.44436">
        <ele>90</ele>
        <time>2015-01-04T10:11:34Z</time>
      </trkpt>
      <trkpt lat="48.68191" lon="-3.44438">
        <ele>90</ele>
        <time>2015-01-04T10:11:35Z</time>
      </trkpt>
      <trkpt lat="48.682" lon="-3.44441">
        <ele>90</ele>
        <time>2015-01-04T10:11:36Z</time>
      </trkpt>
      <trkpt lat="48.68209" lon="-3.44443">
        <ele>90</ele>
        <time>2015-01-04T10:11:37Z</time>
      </trkpt>
      <trkpt lat="48.68217" lon="-3.44445">
        <ele>90</ele>
        <time>2015-01-04T10:11:38Z</time>
      </trkpt>
      <trkpt lat="48.68226" lon="-3.44448">
        <ele>90</ele>
        <time>2015-01-04T10:11:39Z</time>
      </trkpt>
      <trkpt lat="48.68235" lon="-3.44451">
        <ele>90</ele>
        <time>2015-01-04T10:11:40Z</time>
      </trkpt>
      <trkpt lat="48.68243" lon="-3.44453">
        <ele>90</ele>
        <time>2015-01-04T10:11:41Z</time>
      </trkpt>
      <trkpt lat="48.68252" lon="-3.44455">
        <ele>90</ele>
        <time>2015-01-04T10:11:42Z</time>
      </trkpt>
      <trkpt lat="48.6826" lon="-3.44458">
        <ele>90</ele>
        <time>2015-01-04T10:11:43Z</time>
      </trkpt>
      <trkpt lat="48.68269" lon="-3.4446">
        <ele>90</ele>
        <time>2015-01-04T10:11:44Z</time>
      </trkpt>
      <trkpt lat="48.68277" lon="-3.44462">
        <ele>90</ele>
        <time>2015-01-04T10:11:45Z</time>
      </trkpt>
      <trkpt lat="48.68285" lon="-3.44465">
        <ele>90</ele>
        <time>2015-01-04T10:11:46Z</time>
      </trkpt>
      <trkpt lat="48.68293" lon="-3.44467">
        <ele>90</ele>
        <time>2015-01-04T10:11:47Z</time>
      </trkpt>
      <trkpt lat="48.68302" lon="-3.4447">
        <ele>90</ele>
        <time>2015-01-04T10:11:48Z</time>
      </trkpt>
      <trkpt lat="48.68311" lon="-3.44472">
        <ele>90</ele>
        <time>2015-01-04T10:11:49Z</time>
      </trkpt>
      <trkpt lat="48.68319" lon="-3.44475">
        <ele>90</ele>
        <time>2015-01-04T10:11:50Z</time>
      </trkpt>
      <trkpt lat="48.68328" lon="-3.44477">
        <ele>90</ele>
        <time>2015-01-04T10:11:51Z</time>
      </trkpt>
      <trkpt lat="48.68336" lon="-3.4448">
        <ele>90</ele>
        <time>2015-01-04T10:11:52Z</time>
      </trkpt>
      <trkpt lat="48.68345" lon="-3.44483">
        <ele>90</ele>
        <time>2015-01-04T10:11:53Z</time>
      </trkpt>
      <trkpt lat="48.68354" lon="-3.44486">
        <ele>90</ele>
        <time>2015-01-04T10:11:54Z</time>
      </trkpt>
      <trkpt lat="48.68362" lon="-3.44488">
        <ele>90</ele>
        <time>2015-01-04T10:11:55Z</time>
      </trkpt>
      <trkpt lat="48.6837" lon="-3.44491">
        <ele>90</ele>
        <time>2015-01-04T10:11:56Z</time>
      </trkpt>
      <trkpt lat="48.68379" lon="-3.44493">
        <ele>90</ele>
        <time>2015-01-04T10:11:57Z</time>
      </trkpt>
      <trkpt lat="48.68387" lon="-3.44496">
        <ele>90</ele>
        <time>2015-01-04T10:11:58Z</time>
      </trkpt>
      <trkpt lat="48.68396" lon="-3.44497">
        <ele>90</ele>
        <time>2015-01-04T10:11:59Z</time>
      </trkpt>
      <trkpt lat="48.68404" lon="-3.44499">
        <ele>90</ele>
        <time>2015-01-04T10:12:00Z</time>
      </trkpt>
      <trkpt lat="48.68413" lon="-3.445">
        <ele>90</ele>
        <time>2015-01-04T10:12:01Z</time>
      </trkpt>
      <trkpt lat="48.68421" lon="-3.44501">
        <ele>90</ele>
        <time>2015-01-04T10:12:02Z</time>
      </trkpt>
      <trkpt lat="48.6843" lon="-3.44502">
        <ele>90</ele>
        <time>2015-01-04T10:12:03Z</time>
      </trkpt>
      <trkpt lat="48.68439" lon="-3.44503">
        <ele>90</ele>
        <time>2015-01-04T10:12:04Z</time>
      </trkpt>
      <trkpt lat="48.68448" lon="-3.44504">
        <ele>90</ele>
        <time>2015-01-04T10:12:05Z</time>
      </trkpt>
      <trkpt lat="48.68456" lon="-3.44505">
        <ele>90</ele>
        <time>2015-01-04T10:12:06Z</time>
      </trkpt>
      <trkpt lat="48.68465" lon="-3.44506">
        <ele>90</ele>
        <time>2015-01-04T10:12:07Z</time>
      </trkpt>
      <trkpt lat="48.68474" lon="-3.44507">
        <ele>90</ele>
        <time>2015-01-04T10:12:08Z</time>
      </trkpt>
      <trkpt lat="48.68483" lon="-3.44507">
        <ele>90</ele>
        <time>2015-01-04T10:12:09Z</time>
      </trkpt>
      <trkpt lat="48.68492" lon="-3.44508">
        <ele>90</ele>
        <time>2015-01-04T10:12:10Z</time>
      </trkpt>
      <trkpt lat="48.68501" lon="-3.44509">
        <ele>90</ele>
        <time>2015-01-04T10:12:11Z</time>
      </trkpt>
      <trkpt lat="48.68509" lon="-3.44511">
        <ele>90</ele>
        <time>2015-01-04T10:12:12Z</time>
      </trkpt>
      <trkpt lat="48.68518" lon="-3.44512">
        <ele>90</ele>
        <time>2015-01-04T10:12:13Z</time>
      </trkpt>
      <trkpt lat="48.68526" lon="-3.44514">
        <ele>90</ele>
        <time>2015-01-04T10:12:14Z</time>
      </trkpt>
      <trkpt lat="48.68534" lon="-3.44515">
        <ele>90</ele>
        <time>2015-01-04T10:12:15Z</time>
      </trkpt>
      <trkpt lat="48.68543" lon="-3.44518">
        <ele>90</ele>
        <time>2015-01-04T10:12:16Z</time>
      </trkpt>
      <trkpt lat="48.68552" lon="-3.4452">
        <ele>90</ele>
        <time>2015-01-04T10:12:17Z</time>
      </trkpt>
      <trkpt lat="48.6856" lon="-3.44523">
        <ele>90</ele>
        <time>2015-01-04T10:12:18Z</time>
      </trkpt>
      <trkpt lat="48.68568" lon="-3.44526">
        <ele>90</ele>
        <time>2015-01-04T10:12:19Z</time>
      </trkpt>
      <trkpt lat="48.68576" lon="-3.44529">
        <ele>90</ele>
        <time>2015-01-04T10:12:20Z</time>
      </trkpt>
      <trkpt lat="48.68585" lon="-3.44532">
        <ele>90</ele>
        <time>2015-01-04T10:12:21Z</time>
      </trkpt>
      <trkpt lat="48.68593" lon="-3.44535">
        <ele>90</ele>
        <time>2015-01-04T10:12:22Z</time>
      </trkpt>
      <trkpt lat="48.68601" lon="-3.44538">
        <ele>90</ele>
        <time>2015-01-04T10:12:23Z</time>
      </trkpt>
      <trkpt lat="48.68609" lon="-3.44541">
        <ele>90</ele>
        <time>2015-01-04T10:12:24Z</time>
      </trkpt>
      <trkpt lat="48.68618" lon="-3.44544">
        <ele>89</ele>
        <time>2015-01-04T10:12:25Z</time>
      </trkpt>
      <trkpt lat="48.68626" lon="-3.44546">
        <ele>89</ele>
        <time>2015-01-04T10:12:26Z</time>
      </trkpt>
      <trkpt lat="48.68634" lon="-3.44549">
        <ele>89</ele>
        <time>2015-01-04T10:12:27Z</time>
      </trkpt>
      <trkpt lat="48.68642" lon="-3.44552">
        <ele>89</ele>
        <time>2015-01-04T10:12:28Z</time>
      </trkpt>
      <trkpt lat="48.6865" lon="-3.44554">
        <ele>89</ele>
        <time>2015-01-04T10:12:29Z</time>
      </trkpt>
      <trkpt lat="48.68658" lon="-3.44556">
        <ele>89</ele>
        <time>2015-01-04T10:12:30Z</time>
      </trkpt>
      <trkpt lat="48.68667" lon="-3.44558">
        <ele>89</ele>
        <time>2015-01-04T10:12:31Z</time>
      </trkpt>
      <trkpt lat="48.68676" lon="-3.4456">
        <ele>89</ele>
        <time>2015-01-04T10:12:32Z</time>
      </trkpt>
      <trkpt lat="48.68684" lon="-3.44562">
        <ele>89</ele>
        <time>2015-01-04T10:12:33Z</time>
      </trkpt>
      <trkpt lat="48.68693" lon="-3.44564">
        <ele>88</ele>
        <time>2015-01-04T10:12:34Z</time>
      </trkpt>
      <trkpt lat="48.68702" lon="-3.44566">
        <ele>88</ele>
        <time>2015-01-04T10:12:35Z</time>
      </trkpt>
      <trkpt lat="48.68711" lon="-3.44568">
        <ele>88</ele>
        <time>2015-01-04T10:12:36Z</time>
      </trkpt>
      <trkpt lat="48.6872" lon="-3.4457">
        <ele>88</ele>
        <time>2015-01-04T10:12:37Z</time>
      </trkpt>
      <trkpt lat="48.68729" lon="-3.44572">
        <ele>88</ele>
        <time>2015-01-04T10:12:38Z</time>
      </trkpt>
      <trkpt lat="48.68738" lon="-3.44574">
        <ele>88</ele>
        <time>2015-01-04T10:12:39Z</time>
      </trkpt>
      <trkpt lat="48.68747" lon="-3.44575">
        <ele>88</ele>
        <time>2015-01-04T10:12:40Z</time>
      </trkpt>
      <trkpt lat="48.68755" lon="-3.44577">
        <ele>88</ele>
        <time>2015-01-04T10:12:41Z</time>
      </trkpt>
      <trkpt lat="48.68764" lon="-3.44579">
        <ele>88</ele>
        <time>2015-01-04T10:12:42Z</time>
      </trkpt>
      <trkpt lat="48.68773" lon="-3.4458">
        <ele>88</ele>
        <time>2015-01-04T10:12:43Z</time>
      </trkpt>
      <trkpt lat="48.68781" lon="-3.44581">
        <ele>88</ele>
        <time>2015-01-04T10:12:44Z</time>
      </trkpt>
      <trkpt lat="48.6879" lon="-3.44582">
        <ele>88</ele>
        <time>2015-01-04T10:12:45Z</time>
      </trkpt>
      <trkpt lat="48.68799" lon="-3.44582">
        <ele>88</ele>
        <time>2015-01-04T10:12:46Z</time>
      </trkpt>
      <trkpt lat="48.68807" lon="-3.44582">
        <ele>88</ele>
        <time>2015-01-04T10:12:47Z</time>
      </trkpt>
      <trkpt lat="48.68816" lon="-3.44582">
        <ele>88</ele>
        <time>2015-01-04T10:12:48Z</time>
      </trkpt>
      <trkpt lat="48.68824" lon="-3.44581">
        <ele>88</ele>
        <time>2015-01-04T10:12:49Z</time>
      </trkpt>
      <trkpt lat="48.68832" lon="-3.44581">
        <ele>88</ele>
        <time>2015-01-04T10:12:50Z</time>
      </trkpt>
      <trkpt lat="48.6884" lon="-3.4458">
        <ele>88</ele>
        <time>2015-01-04T10:12:51Z</time>
      </trkpt>
      <trkpt lat="48.68848" lon="-3.44579">
        <ele>88</ele>
        <time>2015-01-04T10:12:52Z</time>
      </trkpt>
      <trkpt lat="48.68856" lon="-3.44578">
        <ele>88</ele>
        <time>2015-01-04T10:12:53Z</time>
      </trkpt>
      <trkpt lat="48.68864" lon="-3.44576">
        <ele>88</ele>
        <time>2015-01-04T10:12:54Z</time>
      </trkpt>
      <trkpt lat="48.68872" lon="-3.44574">
        <ele>88</ele>
        <time>2015-01-04T10:12:55Z</time>
      </trkpt>
      <trkpt lat="48.6888" lon="-3.44572">
        <ele>88</ele>
        <time>2015-01-04T10:12:56Z</time>
      </trkpt>
      <trkpt lat="48.68888" lon="-3.4457">
        <ele>88</ele>
        <time>2015-01-04T10:12:57Z</time>
      </trkpt>
      <trkpt lat="48.68896" lon="-3.44568">
        <ele>88</ele>
        <time>2015-01-04T10:12:58Z</time>
      </trkpt>
      <trkpt lat="48.68904" lon="-3.44566">
        <ele>88</ele>
        <time>2015-01-04T10:12:59Z</time>
      </trkpt>
      <trkpt lat="48.68913" lon="-3.44563">
        <ele>88</ele>
        <time>2015-01-04T10:13:00Z</time>
      </trkpt>
      <trkpt lat="48.68921" lon="-3.44561">
        <ele>88</ele>
        <time>2015-01-04T10:13:01Z</time>
      </trkpt>
      <trkpt lat="48.68929" lon="-3.44559">
        <ele>88</ele>
        <time>2015-01-04T10:13:02Z</time>
      </trkpt>
      <trkpt lat="48.68936" lon="-3.44558">
        <ele>88</ele>
        <time>2015-01-04T10:13:03Z</time>
      </trkpt>
      <trkpt lat="48.68944" lon="-3.44556">
        <ele>88</ele>
        <time>2015-01-04T10:13:04Z</time>
      </trkpt>
      <trkpt lat="48.68952" lon="-3.44555">
        <ele>88</ele>
        <time>2015-01-04T10:13:05Z</time>
      </trkpt>
      <trkpt lat="48.68959" lon="-3.44553">
        <ele>88</ele>
        <time>2015-01-04T10:13:06Z</time>
      </trkpt>
      <trkpt lat="48.68967" lon="-3.44552">
        <ele>88</ele>
        <time>2015-01-04T10:13:07Z</time>
      </trkpt>
      <trkpt lat="48.68975" lon="-3.4455">
        <ele>88</ele>
        <time>2015-01-04T10:13:08Z</time>
      </trkpt>
      <trkpt lat="48.68982" lon="-3.44549">
        <ele>88</ele>
        <time>2015-01-04T10:13:09Z</time>
      </trkpt>
      <trkpt lat="48.6899" lon="-3.44547">
        <ele>88</ele>
        <time>2015-01-04T10:13:10Z</time>
      </trkpt>
      <trkpt lat="48.68998" lon="-3.44546">
        <ele>88</ele>
        <time>2015-01-04T10:13:11Z</time>
      </trkpt>
      <trkpt lat="48.69005" lon="-3.44545">
        <ele>88</ele>
        <time>2015-01-04T10:13:12Z</time>
      </trkpt>
      <trkpt lat="48.69012" lon="-3.44543">
        <ele>88</ele>
        <time>2015-01-04T10:13:13Z</time>
      </trkpt>
      <trkpt lat="48.69019" lon="-3.44542">
        <ele>88</ele>
        <time>2015-01-04T10:13:14Z</time>
      </trkpt>
      <trkpt lat="48.69025" lon="-3.44541">
        <ele>88</ele>
        <time>2015-01-04T10:13:15Z</time>
      </trkpt>
      <trkpt lat="48.69032" lon="-3.44539">
        <ele>88</ele>
        <time>2015-01-04T10:13:16Z</time>
      </trkpt>
      <trkpt lat="48.69039" lon="-3.44538">
        <ele>88</ele>
        <time>2015-01-04T10:13:17Z</time>
      </trkpt>
      <trkpt lat="48.69046" lon="-3.44536">
        <ele>88</ele>
        <time>2015-01-04T10:13:18Z</time>
      </trkpt>
      <trkpt lat="48.69052" lon="-3.44535">
        <ele>88</ele>
        <time>2015-01-04T10:13:19Z</time>
      </trkpt>
      <trkpt lat="48.69059" lon="-3.44533">
        <ele>88</ele>
        <time>2015-01-04T10:13:20Z</time>
      </trkpt>
      <trkpt lat="48.69065" lon="-3.44532">
        <ele>88</ele>
        <time>2015-01-04T10:13:21Z</time>
      </trkpt>
      <trkpt lat="48.69072" lon="-3.44531">
        <ele>88</ele>
        <time>2015-01-04T10:13:22Z</time>
      </trkpt>
      <trkpt lat="48.69078" lon="-3.4453">
        <ele>88</ele>
        <time>2015-01-04T10:13:23Z</time>
      </trkpt>
      <trkpt lat="48.69084" lon="-3.44529">
        <ele>88</ele>
        <time>2015-01-04T10:13:24Z</time>
      </trkpt>
      <trkpt lat="48.69091" lon="-3.44528">
        <ele>88</ele>
        <time>2015-01-04T10:13:25Z</time>
      </trkpt>
      <trkpt lat="48.69098" lon="-3.44526">
        <ele>88</ele>
        <time>2015-01-04T10:13:26Z</time>
      </trkpt>
      <trkpt lat="48.69104" lon="-3.44525">
        <ele>88</ele>
        <time>2015-01-04T10:13:27Z</time>
      </trkpt>
      <trkpt lat="48.69112" lon="-3.44523">
        <ele>88</ele>
        <time>2015-01-04T10:13:28Z</time>
      </trkpt>
      <trkpt lat="48.69119" lon="-3.4452">
        <ele>88</ele>
        <time>2015-01-04T10:13:29Z</time>
      </trkpt>
      <trkpt lat="48.69126" lon="-3.44518">
        <ele>88</ele>
        <time>2015-01-04T10:13:30Z</time>
      </trkpt>
      <trkpt lat="48.69134" lon="-3.44515">
        <ele>88</ele>
        <time>2015-01-04T10:13:31Z</time>
      </trkpt>
      <trkpt lat="48.69141" lon="-3.44513">
        <ele>88</ele>
        <time>2015-01-04T10:13:32Z</time>
      </trkpt>
      <trkpt lat="48.69148" lon="-3.4451">
        <ele>89</ele>
        <time>2015-01-04T10:13:33Z</time>
      </trkpt>
      <trkpt lat="48.69156" lon="-3.44508">
        <ele>89</ele>
        <time>2015-01-04T10:13:34Z</time>
      </trkpt>
      <trkpt lat="48.69163" lon="-3.44505">
        <ele>89</ele>
        <time>2015-01-04T10:13:35Z</time>
      </trkpt>
      <trkpt lat="48.69171" lon="-3.44503">
        <ele>89</ele>
        <time>2015-01-04T10:13:36Z</time>
      </trkpt>
      <trkpt lat="48.69178" lon="-3.445">
        <ele>89</ele>
        <time>2015-01-04T10:13:37Z</time>
      </trkpt>
      <trkpt lat="48.69186" lon="-3.44498">
        <ele>89</ele>
        <time>2015-01-04T10:13:38Z</time>
      </trkpt>
      <trkpt lat="48.69193" lon="-3.44495">
        <ele>89</ele>
        <time>2015-01-04T10:13:39Z</time>
      </trkpt>
      <trkpt lat="48.69201" lon="-3.44492">
        <ele>89</ele>
        <time>2015-01-04T10:13:40Z</time>
      </trkpt>
      <trkpt lat="48.69209" lon="-3.4449">
        <ele>89</ele>
        <time>2015-01-04T10:13:41Z</time>
      </trkpt>
      <trkpt lat="48.69217" lon="-3.44487">
        <ele>90</ele>
        <time>2015-01-04T10:13:42Z</time>
      </trkpt>
      <trkpt lat="48.69224" lon="-3.44485">
        <ele>90</ele>
        <time>2015-01-04T10:13:43Z</time>
      </trkpt>
      <trkpt lat="48.69232" lon="-3.44482">
        <ele>90</ele>
        <time>2015-01-04T10:13:44Z</time>
      </trkpt>
      <trkpt lat="48.6924" lon="-3.44479">
        <ele>90</ele>
        <time>2015-01-04T10:13:45Z</time>
      </trkpt>
      <trkpt lat="48.69248" lon="-3.44477">
        <ele>90</ele>
        <time>2015-01-04T10:13:46Z</time>
      </trkpt>
      <trkpt lat="48.69256" lon="-3.44475">
        <ele>90</ele>
        <time>2015-01-04T10:13:47Z</time>
      </trkpt>
      <trkpt lat="48.69264" lon="-3.44473">
        <ele>90</ele>
        <time>2015-01-04T10:13:48Z</time>
      </trkpt>
      <trkpt lat="48.69271" lon="-3.44471">
        <ele>90</ele>
        <time>2015-01-04T10:13:49Z</time>
      </trkpt>
      <trkpt lat="48.69278" lon="-3.4447">
        <ele>90</ele>
        <time>2015-01-04T10:13:50Z</time>
      </trkpt>
      <trkpt lat="48.69286" lon="-3.44468">
        <ele>90</ele>
        <time>2015-01-04T10:13:51Z</time>
      </trkpt>
      <trkpt lat="48.69293" lon="-3.44468">
        <ele>90</ele>
        <time>2015-01-04T10:13:52Z</time>
      </trkpt>
      <trkpt lat="48.69301" lon="-3.44467">
        <ele>90</ele>
        <time>2015-01-04T10:13:53Z</time>
      </trkpt>
      <trkpt lat="48.69309" lon="-3.44467">
        <ele>90</ele>
        <time>2015-01-04T10:13:54Z</time>
      </trkpt>
      <trkpt lat="48.69316" lon="-3.44468">
        <ele>90</ele>
        <time>2015-01-04T10:13:55Z</time>
      </trkpt>
      <trkpt lat="48.69323" lon="-3.4447">
        <ele>90</ele>
        <time>2015-01-04T10:13:56Z</time>
      </trkpt>
      <trkpt lat="48.69331" lon="-3.44472">
        <ele>90</ele>
        <time>2015-01-04T10:13:57Z</time>
      </trkpt>
      <trkpt lat="48.69338" lon="-3.44475">
        <ele>90</ele>
        <time>2015-01-04T10:13:58Z</time>
      </trkpt>
      <trkpt lat="48.69345" lon="-3.44477">
        <ele>90</ele>
        <time>2015-01-04T10:13:59Z</time>
      </trkpt>
      <trkpt lat="48.69352" lon="-3.4448">
        <ele>90</ele>
        <time>2015-01-04T10:14:00Z</time>
      </trkpt>
      <trkpt lat="48.69359" lon="-3.44484">
        <ele>90</ele>
        <time>2015-01-04T10:14:01Z</time>
      </trkpt>
      <trkpt lat="48.69367" lon="-3.44488">
        <ele>90</ele>
        <time>2015-01-04T10:14:02Z</time>
      </trkpt>
      <trkpt lat="48.69374" lon="-3.44492">
        <ele>91</ele>
        <time>2015-01-04T10:14:03Z</time>
      </trkpt>
      <trkpt lat="48.69382" lon="-3.44495">
        <ele>91</ele>
        <time>2015-01-04T10:14:04Z</time>
      </trkpt>
      <trkpt lat="48.6939" lon="-3.44498">
        <ele>91</ele>
        <time>2015-01-04T10:14:05Z</time>
      </trkpt>
      <trkpt lat="48.69398" lon="-3.44502">
        <ele>91</ele>
        <time>2015-01-04T10:14:06Z</time>
      </trkpt>
      <trkpt lat="48.69405" lon="-3.44506">
        <ele>91</ele>
        <time>2015-01-04T10:14:07Z</time>
      </trkpt>
      <trkpt lat="48.69413" lon="-3.44509">
        <ele>91</ele>
        <time>2015-01-04T10:14:08Z</time>
      </trkpt>
      <trkpt lat="48.69421" lon="-3.44512">
        <ele>91</ele>
        <time>2015-01-04T10:14:09Z</time>
      </trkpt>
      <trkpt lat="48.69429" lon="-3.44516">
        <ele>91</ele>
        <time>2015-01-04T10:14:10Z</time>
      </trkpt>
      <trkpt lat="48.69436" lon="-3.44519">
        <ele>91</ele>
        <time>2015-01-04T10:14:11Z</time>
      </trkpt>
      <trkpt lat="48.69445" lon="-3.44523">
        <ele>91</ele>
        <time>2015-01-04T10:14:12Z</time>
      </trkpt>
      <trkpt lat="48.69453" lon="-3.44527">
        <ele>91</ele>
        <time>2015-01-04T10:14:13Z</time>
      </trkpt>
      <trkpt lat="48.69461" lon="-3.44531">
        <ele>91</ele>
        <time>2015-01-04T10:14:14Z</time>
      </trkpt>
      <trkpt lat="48.69469" lon="-3.44536">
        <ele>91</ele>
        <time>2015-01-04T10:14:15Z</time>
      </trkpt>
      <trkpt lat="48.69478" lon="-3.44541">
        <ele>91</ele>
        <time>2015-01-04T10:14:16Z</time>
      </trkpt>
      <trkpt lat="48.69486" lon="-3.44547">
        <ele>91</ele>
        <time>2015-01-04T10:14:17Z</time>
      </trkpt>
      <trkpt lat="48.69494" lon="-3.44553">
        <ele>91</ele>
        <time>2015-01-04T10:14:18Z</time>
      </trkpt>
      <trkpt lat="48.69502" lon="-3.4456">
        <ele>91</ele>
        <time>2015-01-04T10:14:19Z</time>
      </trkpt>
      <trkpt lat="48.6951" lon="-3.44566">
        <ele>91</ele>
        <time>2015-01-04T10:14:20Z</time>
      </trkpt>
      <trkpt lat="48.69519" lon="-3.44573">
        <ele>91</ele>
        <time>2015-01-04T10:14:21Z</time>
      </trkpt>
      <trkpt lat="48.69527" lon="-3.4458">
        <ele>91</ele>
        <time>2015-01-04T10:14:22Z</time>
      </trkpt>
      <trkpt lat="48.69535" lon="-3.44587">
        <ele>91</ele>
        <time>2015-01-04T10:14:23Z</time>
      </trkpt>
      <trkpt lat="48.69543" lon="-3.44594">
        <ele>91</ele>
        <time>2015-01-04T10:14:24Z</time>
      </trkpt>
      <trkpt lat="48.69552" lon="-3.44601">
        <ele>91</ele>
        <time>2015-01-04T10:14:25Z</time>
      </trkpt>
      <trkpt lat="48.6956" lon="-3.44608">
        <ele>91</ele>
        <time>2015-01-04T10:14:26Z</time>
      </trkpt>
      <trkpt lat="48.69569" lon="-3.44615">
        <ele>91</ele>
        <time>2015-01-04T10:14:27Z</time>
      </trkpt>
      <trkpt lat="48.69577" lon="-3.44622">
        <ele>91</ele>
        <time>2015-01-04T10:14:28Z</time>
      </trkpt>
      <trkpt lat="48.69586" lon="-3.44628">
        <ele>91</ele>
        <time>2015-01-04T10:14:29Z</time>
      </trkpt>
      <trkpt lat="48.69595" lon="-3.44634">
        <ele>91</ele>
        <time>2015-01-04T10:14:30Z</time>
      </trkpt>
      <trkpt lat="48.69603" lon="-3.4464">
        <ele>91</ele>
        <time>2015-01-04T10:14:31Z</time>
      </trkpt>
      <trkpt lat="48.69612" lon="-3.44646">
        <ele>91</ele>
        <time>2015-01-04T10:14:32Z</time>
      </trkpt>
      <trkpt lat="48.69621" lon="-3.44651">
        <ele>91</ele>
        <time>2015-01-04T10:14:33Z</time>
      </trkpt>
      <trkpt lat="48.6963" lon="-3.44657">
        <ele>91</ele>
        <time>2015-01-04T10:14:34Z</time>
      </trkpt>
      <trkpt lat="48.69639" lon="-3.44662">
        <ele>90</ele>
        <time>2015-01-04T10:14:35Z</time>
      </trkpt>
      <trkpt lat="48.69648" lon="-3.44668">
        <ele>90</ele>
        <time>2015-01-04T10:14:36Z</time>
      </trkpt>
      <trkpt lat="48.69657" lon="-3.44673">
        <ele>90</ele>
        <time>2015-01-04T10:14:37Z</time>
      </trkpt>
      <trkpt lat="48.69666" lon="-3.44679">
        <ele>90</ele>
        <time>2015-01-04T10:14:38Z</time>
      </trkpt>
      <trkpt lat="48.69675" lon="-3.44684">
        <ele>89</ele>
        <time>2015-01-04T10:14:39Z</time>
      </trkpt>
      <trkpt lat="48.69683" lon="-3.4469">
        <ele>89</ele>
        <time>2015-01-04T10:14:40Z</time>
      </trkpt>
      <trkpt lat="48.69692" lon="-3.44695">
        <ele>89</ele>
        <time>2015-01-04T10:14:41Z</time>
      </trkpt>
      <trkpt lat="48.69701" lon="-3.44701">
        <ele>89</ele>
        <time>2015-01-04T10:14:42Z</time>
      </trkpt>
      <trkpt lat="48.69709" lon="-3.44706">
        <ele>88</ele>
        <time>2015-01-04T10:14:43Z</time>
      </trkpt>
      <trkpt lat="48.69718" lon="-3.44711">
        <ele>88</ele>
        <time>2015-01-04T10:14:44Z</time>
      </trkpt>
      <trkpt lat="48.69727" lon="-3.44716">
        <ele>88</ele>
        <time>2015-01-04T10:14:45Z</time>
      </trkpt>
      <trkpt lat="48.69736" lon="-3.44721">
        <ele>88</ele>
        <time>2015-01-04T10:14:46Z</time>
      </trkpt>
      <trkpt lat="48.69745" lon="-3.44725">
        <ele>88</ele>
        <time>2015-01-04T10:14:47Z</time>
      </trkpt>
      <trkpt lat="48.69754" lon="-3.44729">
        <ele>88</ele>
        <time>2015-01-04T10:14:48Z</time>
      </trkpt>
      <trkpt lat="48.69763" lon="-3.44732">
        <ele>88</ele>
        <time>2015-01-04T10:14:49Z</time>
      </trkpt>
      <trkpt lat="48.69772" lon="-3.44735">
        <ele>88</ele>
        <time>2015-01-04T10:14:50Z</time>
      </trkpt>
      <trkpt lat="48.6978" lon="-3.44738">
        <ele>88</ele>
        <time>2015-01-04T10:14:51Z</time>
      </trkpt>
      <trkpt lat="48.69789" lon="-3.4474">
        <ele>88</ele>
        <time>2015-01-04T10:14:52Z</time>
      </trkpt>
      <trkpt lat="48.69798" lon="-3.44742">
        <ele>88</ele>
        <time>2015-01-04T10:14:53Z</time>
      </trkpt>
      <trkpt lat="48.69807" lon="-3.44744">
        <ele>88</ele>
        <time>2015-01-04T10:14:54Z</time>
      </trkpt>
      <trkpt lat="48.69815" lon="-3.44747">
        <ele>88</ele>
        <time>2015-01-04T10:14:55Z</time>
      </trkpt>
      <trkpt lat="48.69824" lon="-3.44749">
        <ele>87</ele>
        <time>2015-01-04T10:14:56Z</time>
      </trkpt>
      <trkpt lat="48.69833" lon="-3.44751">
        <ele>87</ele>
        <time>2015-01-04T10:14:57Z</time>
      </trkpt>
      <trkpt lat="48.69841" lon="-3.44753">
        <ele>87</ele>
        <time>2015-01-04T10:14:58Z</time>
      </trkpt>
      <trkpt lat="48.6985" lon="-3.44756">
        <ele>87</ele>
        <time>2015-01-04T10:14:59Z</time>
      </trkpt>
      <trkpt lat="48.69859" lon="-3.44758">
        <ele>87</ele>
        <time>2015-01-04T10:15:00Z</time>
      </trkpt>
      <trkpt lat="48.69867" lon="-3.4476">
        <ele>87</ele>
        <time>2015-01-04T10:15:01Z</time>
      </trkpt>
      <trkpt lat="48.69876" lon="-3.44762">
        <ele>86</ele>
        <time>2015-01-04T10:15:02Z</time>
      </trkpt>
      <trkpt lat="48.69884" lon="-3.44765">
        <ele>86</ele>
        <time>2015-01-04T10:15:03Z</time>
      </trkpt>
      <trkpt lat="48.69893" lon="-3.44767">
        <ele>86</ele>
        <time>2015-01-04T10:15:04Z</time>
      </trkpt>
      <trkpt lat="48.69902" lon="-3.4477">
        <ele>86</ele>
        <time>2015-01-04T10:15:05Z</time>
      </trkpt>
      <trkpt lat="48.6991" lon="-3.44772">
        <ele>86</ele>
        <time>2015-01-04T10:15:06Z</time>
      </trkpt>
      <trkpt lat="48.69919" lon="-3.44774">
        <ele>86</ele>
        <time>2015-01-04T10:15:07Z</time>
      </trkpt>
      <trkpt lat="48.69928" lon="-3.44776">
        <ele>86</ele>
        <time>2015-01-04T10:15:08Z</time>
      </trkpt>
      <trkpt lat="48.69936" lon="-3.44778">
        <ele>85</ele>
        <time>2015-01-04T10:15:09Z</time>
      </trkpt>
      <trkpt lat="48.69945" lon="-3.4478">
        <ele>85</ele>
        <time>2015-01-04T10:15:10Z</time>
      </trkpt>
      <trkpt lat="48.69954" lon="-3.44783">
        <ele>85</ele>
        <time>2015-01-04T10:15:11Z</time>
      </trkpt>
      <trkpt lat="48.69963" lon="-3.44784">
        <ele>85</ele>
        <time>2015-01-04T10:15:12Z</time>
      </trkpt>
      <trkpt lat="48.69972" lon="-3.44786">
        <ele>85</ele>
        <time>2015-01-04T10:15:13Z</time>
      </trkpt>
      <trkpt lat="48.69981" lon="-3.44787">
        <ele>85</ele>
        <time>2015-01-04T10:15:14Z</time>
      </trkpt>
      <trkpt lat="48.69989" lon="-3.44788">
        <ele>85</ele>
        <time>2015-01-04T10:15:15Z</time>
      </trkpt>
      <trkpt lat="48.69998" lon="-3.44788">
        <ele>85</ele>
        <time>2015-01-04T10:15:16Z</time>
      </trkpt>
      <trkpt lat="48.70007" lon="-3.44789">
        <ele>85</ele>
        <time>2015-01-04T10:15:17Z</time>
      </trkpt>
      <trkpt lat="48.70015" lon="-3.4479">
        <ele>84</ele>
        <time>2015-01-04T10:15:18Z</time>
      </trkpt>
      <trkpt lat="48.70024" lon="-3.44791">
        <ele>84</ele>
        <time>2015-01-04T10:15:19Z</time>
      </trkpt>
      <trkpt lat="48.70033" lon="-3.44792">
        <ele>84</ele>
        <time>2015-01-04T10:15:20Z</time>
      </trkpt>
      <trkpt lat="48.70041" lon="-3.44792">
        <ele>84</ele>
        <time>2015-01-04T10:15:21Z</time>
      </trkpt>
      <trkpt lat="48.7005" lon="-3.44793">
        <ele>84</ele>
        <time>2015-01-04T10:15:22Z</time>
      </trkpt>
      <trkpt lat="48.70059" lon="-3.44793">
        <ele>84</ele>
        <time>2015-01-04T10:15:23Z</time>
      </trkpt>
      <trkpt lat="48.70067" lon="-3.44794">
        <ele>84</ele>
        <time>2015-01-04T10:15:24Z</time>
      </trkpt>
      <trkpt lat="48.70076" lon="-3.44795">
        <ele>83</ele>
        <time>2015-01-04T10:15:25Z</time>
      </trkpt>
      <trkpt lat="48.70084" lon="-3.44795">
        <ele>83</ele>
        <time>2015-01-04T10:15:26Z</time>
      </trkpt>
      <trkpt lat="48.70092" lon="-3.44797">
        <ele>83</ele>
        <time>2015-01-04T10:15:27Z</time>
      </trkpt>
      <trkpt lat="48.70101" lon="-3.44799">
        <ele>83</ele>
        <time>2015-01-04T10:15:28Z</time>
      </trkpt>
      <trkpt lat="48.70109" lon="-3.44801">
        <ele>83</ele>
        <time>2015-01-04T10:15:29Z</time>
      </trkpt>
      <trkpt lat="48.70117" lon="-3.44803">
        <ele>83</ele>
        <time>2015-01-04T10:15:30Z</time>
      </trkpt>
      <trkpt lat="48.70125" lon="-3.44806">
        <ele>83</ele>
        <time>2015-01-04T10:15:31Z</time>
      </trkpt>
      <trkpt lat="48.70133" lon="-3.44808">
        <ele>83</ele>
        <time>2015-01-04T10:15:32Z</time>
      </trkpt>
      <trkpt lat="48.70141" lon="-3.4481">
        <ele>83</ele>
        <time>2015-01-04T10:15:33Z</time>
      </trkpt>
      <trkpt lat="48.70148" lon="-3.44812">
        <ele>83</ele>
        <time>2015-01-04T10:15:34Z</time>
      </trkpt>
      <trkpt lat="48.70156" lon="-3.44813">
        <ele>83</ele>
        <time>2015-01-04T10:15:35Z</time>
      </trkpt>
      <trkpt lat="48.70164" lon="-3.44815">
        <ele>83</ele>
        <time>2015-01-04T10:15:36Z</time>
      </trkpt>
      <trkpt lat="48.70172" lon="-3.44815">
        <ele>83</ele>
        <time>2015-01-04T10:15:37Z</time>
      </trkpt>
      <trkpt lat="48.7018" lon="-3.44816">
        <ele>83</ele>
        <time>2015-01-04T10:15:38Z</time>
      </trkpt>
      <trkpt lat="48.70196" lon="-3.44816">
        <ele>83</ele>
        <time>2015-01-04T10:15:40Z</time>
      </trkpt>
      <trkpt lat="48.70203" lon="-3.44815">
        <ele>83</ele>
        <time>2015-01-04T10:15:41Z</time>
      </trkpt>
      <trkpt lat="48.70211" lon="-3.44815">
        <ele>83</ele>
        <time>2015-01-04T10:15:42Z</time>
      </trkpt>
      <trkpt lat="48.70219" lon="-3.44814">
        <ele>83</ele>
        <time>2015-01-04T10:15:43Z</time>
      </trkpt>
      <trkpt lat="48.70226" lon="-3.44814">
        <ele>83</ele>
        <time>2015-01-04T10:15:44Z</time>
      </trkpt>
      <trkpt lat="48.70234" lon="-3.44814">
        <ele>83</ele>
        <time>2015-01-04T10:15:45Z</time>
      </trkpt>
      <trkpt lat="48.70242" lon="-3.44814">
        <ele>83</ele>
        <time>2015-01-04T10:15:46Z</time>
      </trkpt>
      <trkpt lat="48.7025" lon="-3.44816">
        <ele>83</ele>
        <time>2015-01-04T10:15:47Z</time>
      </trkpt>
      <trkpt lat="48.70257" lon="-3.44817">
        <ele>83</ele>
        <time>2015-01-04T10:15:48Z</time>
      </trkpt>
      <trkpt lat="48.70265" lon="-3.44818">
        <ele>83</ele>
        <time>2015-01-04T10:15:49Z</time>
      </trkpt>
      <trkpt lat="48.70273" lon="-3.44818">
        <ele>83</ele>
        <time>2015-01-04T10:15:50Z</time>
      </trkpt>
      <trkpt lat="48.7028" lon="-3.44819">
        <ele>83</ele>
        <time>2015-01-04T10:15:51Z</time>
      </trkpt>
      <trkpt lat="48.70288" lon="-3.4482">
        <ele>83</ele>
        <time>2015-01-04T10:15:52Z</time>
      </trkpt>
      <trkpt lat="48.70296" lon="-3.44821">
        <ele>83</ele>
        <time>2015-01-04T10:15:53Z</time>
      </trkpt>
      <trkpt lat="48.70303" lon="-3.44821">
        <ele>83</ele>
        <time>2015-01-04T10:15:54Z</time>
      </trkpt>
      <trkpt lat="48.70311" lon="-3.44822">
        <ele>83</ele>
        <time>2015-01-04T10:15:55Z</time>
      </trkpt>
      <trkpt lat="48.70319" lon="-3.44823">
        <ele>83</ele>
        <time>2015-01-04T10:15:56Z</time>
      </trkpt>
      <trkpt lat="48.70327" lon="-3.44825">
        <ele>83</ele>
        <time>2015-01-04T10:15:57Z</time>
      </trkpt>
      <trkpt lat="48.70334" lon="-3.44827">
        <ele>83</ele>
        <time>2015-01-04T10:15:58Z</time>
      </trkpt>
      <trkpt lat="48.70342" lon="-3.44829">
        <ele>83</ele>
        <time>2015-01-04T10:15:59Z</time>
      </trkpt>
      <trkpt lat="48.70349" lon="-3.44832">
        <ele>83</ele>
        <time>2015-01-04T10:16:00Z</time>
      </trkpt>
      <trkpt lat="48.70356" lon="-3.44836">
        <ele>83</ele>
        <time>2015-01-04T10:16:01Z</time>
      </trkpt>
      <trkpt lat="48.70362" lon="-3.44839">
        <ele>83</ele>
        <time>2015-01-04T10:16:02Z</time>
      </trkpt>
      <trkpt lat="48.70369" lon="-3.44842">
        <ele>83</ele>
        <time>2015-01-04T10:16:03Z</time>
      </trkpt>
      <trkpt lat="48.70376" lon="-3.44844">
        <ele>83</ele>
        <time>2015-01-04T10:16:04Z</time>
      </trkpt>
      <trkpt lat="48.70383" lon="-3.44846">
        <ele>83</ele>
        <time>2015-01-04T10:16:05Z</time>
      </trkpt>
      <trkpt lat="48.7039" lon="-3.44848">
        <ele>83</ele>
        <time>2015-01-04T10:16:06Z</time>
      </trkpt>
      <trkpt lat="48.70397" lon="-3.44849">
        <ele>83</ele>
        <time>2015-01-04T10:16:07Z</time>
      </trkpt>
      <trkpt lat="48.70404" lon="-3.44849">
        <ele>83</ele>
        <time>2015-01-04T10:16:08Z</time>
      </trkpt>
      <trkpt lat="48.70411" lon="-3.44848">
        <ele>83</ele>
        <time>2015-01-04T10:16:09Z</time>
      </trkpt>
      <trkpt lat="48.70417" lon="-3.44846">
        <ele>83</ele>
        <time>2015-01-04T10:16:10Z</time>
      </trkpt>
      <trkpt lat="48.70424" lon="-3.44844">
        <ele>83</ele>
        <time>2015-01-04T10:16:11Z</time>
      </trkpt>
      <trkpt lat="48.7043" lon="-3.44841">
        <ele>83</ele>
        <time>2015-01-04T10:16:12Z</time>
      </trkpt>
      <trkpt lat="48.70437" lon="-3.44839">
        <ele>83</ele>
        <time>2015-01-04T10:16:13Z</time>
      </trkpt>
      <trkpt lat="48.70443" lon="-3.44837">
        <ele>83</ele>
        <time>2015-01-04T10:16:14Z</time>
      </trkpt>
      <trkpt lat="48.70449" lon="-3.44834">
        <ele>83</ele>
        <time>2015-01-04T10:16:15Z</time>
      </trkpt>
      <trkpt lat="48.70456" lon="-3.44832">
        <ele>83</ele>
        <time>2015-01-04T10:16:16Z</time>
      </trkpt>
      <trkpt lat="48.70462" lon="-3.44829">
        <ele>83</ele>
        <time>2015-01-04T10:16:17Z</time>
      </trkpt>
      <trkpt lat="48.70469" lon="-3.44826">
        <ele>83</ele>
        <time>2015-01-04T10:16:18Z</time>
      </trkpt>
      <trkpt lat="48.70476" lon="-3.44824">
        <ele>83</ele>
        <time>2015-01-04T10:16:19Z</time>
      </trkpt>
      <trkpt lat="48.70483" lon="-3.44821">
        <ele>83</ele>
        <time>2015-01-04T10:16:20Z</time>
      </trkpt>
      <trkpt lat="48.7049" lon="-3.44818">
        <ele>83</ele>
        <time>2015-01-04T10:16:21Z</time>
      </trkpt>
      <trkpt lat="48.70496" lon="-3.44816">
        <ele>83</ele>
        <time>2015-01-04T10:16:22Z</time>
      </trkpt>
      <trkpt lat="48.70503" lon="-3.44814">
        <ele>83</ele>
        <time>2015-01-04T10:16:23Z</time>
      </trkpt>
      <trkpt lat="48.7051" lon="-3.44813">
        <ele>83</ele>
        <time>2015-01-04T10:16:24Z</time>
      </trkpt>
      <trkpt lat="48.70517" lon="-3.44813">
        <ele>83</ele>
        <time>2015-01-04T10:16:25Z</time>
      </trkpt>
      <trkpt lat="48.70524" lon="-3.44814">
        <ele>83</ele>
        <time>2015-01-04T10:16:26Z</time>
      </trkpt>
      <trkpt lat="48.70531" lon="-3.44814">
        <ele>83</ele>
        <time>2015-01-04T10:16:27Z</time>
      </trkpt>
      <trkpt lat="48.70538" lon="-3.44815">
        <ele>83</ele>
        <time>2015-01-04T10:16:28Z</time>
      </trkpt>
      <trkpt lat="48.70545" lon="-3.44816">
        <ele>83</ele>
        <time>2015-01-04T10:16:29Z</time>
      </trkpt>
      <trkpt lat="48.70552" lon="-3.44817">
        <ele>83</ele>
        <time>2015-01-04T10:16:30Z</time>
      </trkpt>
      <trkpt lat="48.70559" lon="-3.44817">
        <ele>83</ele>
        <time>2015-01-04T10:16:31Z</time>
      </trkpt>
      <trkpt lat="48.70566" lon="-3.44816">
        <ele>83</ele>
        <time>2015-01-04T10:16:32Z</time>
      </trkpt>
      <trkpt lat="48.70573" lon="-3.44815">
        <ele>83</ele>
        <time>2015-01-04T10:16:33Z</time>
      </trkpt>
      <trkpt lat="48.70579" lon="-3.44814">
        <ele>83</ele>
        <time>2015-01-04T10:16:34Z</time>
      </trkpt>
      <trkpt lat="48.70586" lon="-3.44812">
        <ele>83</ele>
        <time>2015-01-04T10:16:35Z</time>
      </trkpt>
      <trkpt lat="48.70593" lon="-3.44811">
        <ele>83</ele>
        <time>2015-01-04T10:16:36Z</time>
      </trkpt>
      <trkpt lat="48.706" lon="-3.44809">
        <ele>83</ele>
        <time>2015-01-04T10:16:37Z</time>
      </trkpt>
      <trkpt lat="48.70607" lon="-3.44807">
        <ele>83</ele>
        <time>2015-01-04T10:16:38Z</time>
      </trkpt>
      <trkpt lat="48.70614" lon="-3.44805">
        <ele>83</ele>
        <time>2015-01-04T10:16:39Z</time>
      </trkpt>
      <trkpt lat="48.70621" lon="-3.44803">
        <ele>83</ele>
        <time>2015-01-04T10:16:40Z</time>
      </trkpt>
      <trkpt lat="48.70629" lon="-3.44802">
        <ele>83</ele>
        <time>2015-01-04T10:16:41Z</time>
      </trkpt>
      <trkpt lat="48.70636" lon="-3.44801">
        <ele>83</ele>
        <time>2015-01-04T10:16:42Z</time>
      </trkpt>
      <trkpt lat="48.70644" lon="-3.44799">
        <ele>83</ele>
        <time>2015-01-04T10:16:43Z</time>
      </trkpt>
      <trkpt lat="48.70652" lon="-3.44798">
        <ele>83</ele>
        <time>2015-01-04T10:16:44Z</time>
      </trkpt>
      <trkpt lat="48.70661" lon="-3.44797">
        <ele>83</ele>
        <time>2015-01-04T10:16:45Z</time>
      </trkpt>
      <trkpt lat="48.7067" lon="-3.44797">
        <ele>83</ele>
        <time>2015-01-04T10:16:46Z</time>
      </trkpt>
      <trkpt lat="48.70679" lon="-3.44798">
        <ele>83</ele>
        <time>2015-01-04T10:16:47Z</time>
      </trkpt>
      <trkpt lat="48.70688" lon="-3.44798">
        <ele>83</ele>
        <time>2015-01-04T10:16:48Z</time>
      </trkpt>
      <trkpt lat="48.70698" lon="-3.448">
        <ele>83</ele>
        <time>2015-01-04T10:16:49Z</time>
      </trkpt>
      <trkpt lat="48.70708" lon="-3.44802">
        <ele>82</ele>
        <time>2015-01-04T10:16:50Z</time>
      </trkpt>
      <trkpt lat="48.70718" lon="-3.44805">
        <ele>82</ele>
        <time>2015-01-04T10:16:51Z</time>
      </trkpt>
      <trkpt lat="48.70729" lon="-3.44808">
        <ele>81</ele>
        <time>2015-01-04T10:16:52Z</time>
      </trkpt>
      <trkpt lat="48.7074" lon="-3.44811">
        <ele>80</ele>
        <time>2015-01-04T10:16:53Z</time>
      </trkpt>
      <trkpt lat="48.70751" lon="-3.44815">
        <ele>79</ele>
        <time>2015-01-04T10:16:54Z</time>
      </trkpt>
      <trkpt lat="48.70761" lon="-3.4482">
        <ele>79</ele>
        <time>2015-01-04T10:16:55Z</time>
      </trkpt>
      <trkpt lat="48.70772" lon="-3.44825">
        <ele>78</ele>
        <time>2015-01-04T10:16:56Z</time>
      </trkpt>
      <trkpt lat="48.70783" lon="-3.44831">
        <ele>77</ele>
        <time>2015-01-04T10:16:57Z</time>
      </trkpt>
      <trkpt lat="48.70794" lon="-3.44837">
        <ele>77</ele>
        <time>2015-01-04T10:16:58Z</time>
      </trkpt>
      <trkpt lat="48.70805" lon="-3.44842">
        <ele>76</ele>
        <time>2015-01-04T10:16:59Z</time>
      </trkpt>
      <trkpt lat="48.70816" lon="-3.44848">
        <ele>76</ele>
        <time>2015-01-04T10:17:00Z</time>
      </trkpt>
      <trkpt lat="48.70826" lon="-3.44854">
        <ele>75</ele>
        <time>2015-01-04T10:17:01Z</time>
      </trkpt>
      <trkpt lat="48.70836" lon="-3.4486">
        <ele>75</ele>
        <time>2015-01-04T10:17:02Z</time>
      </trkpt>
      <trkpt lat="48.70846" lon="-3.44866">
        <ele>75</ele>
        <time>2015-01-04T10:17:03Z</time>
      </trkpt>
      <trkpt lat="48.70856" lon="-3.44873">
        <ele>74</ele>
        <time>2015-01-04T10:17:04Z</time>
      </trkpt>
      <trkpt lat="48.70866" lon="-3.44879">
        <ele>74</ele>
        <time>2015-01-04T10:17:05Z</time>
      </trkpt>
      <trkpt lat="48.70875" lon="-3.44886">
        <ele>74</ele>
        <time>2015-01-04T10:17:06Z</time>
      </trkpt>
      <trkpt lat="48.70884" lon="-3.44893">
        <ele>74</ele>
        <time>2015-01-04T10:17:07Z</time>
      </trkpt>
      <trkpt lat="48.70892" lon="-3.449">
        <ele>74</ele>
        <time>2015-01-04T10:17:08Z</time>
      </trkpt>
      <trkpt lat="48.70901" lon="-3.44907">
        <ele>73</ele>
        <time>2015-01-04T10:17:09Z</time>
      </trkpt>
      <trkpt lat="48.70909" lon="-3.44914">
        <ele>73</ele>
        <time>2015-01-04T10:17:10Z</time>
      </trkpt>
      <trkpt lat="48.70917" lon="-3.4492">
        <ele>73</ele>
        <time>2015-01-04T10:17:11Z</time>
      </trkpt>
      <trkpt lat="48.70925" lon="-3.44927">
        <ele>73</ele>
        <time>2015-01-04T10:17:12Z</time>
      </trkpt>
      <trkpt lat="48.70933" lon="-3.44934">
        <ele>72</ele>
        <time>2015-01-04T10:17:13Z</time>
      </trkpt>
      <trkpt lat="48.70941" lon="-3.4494">
        <ele>72</ele>
        <time>2015-01-04T10:17:14Z</time>
      </trkpt>
      <trkpt lat="48.70948" lon="-3.44946">
        <ele>72</ele>
        <time>2015-01-04T10:17:15Z</time>
      </trkpt>
      <trkpt lat="48.70956" lon="-3.44951">
        <ele>72</ele>
        <time>2015-01-04T10:17:16Z</time>
      </trkpt>
      <trkpt lat="48.70963" lon="-3.44955">
        <ele>71</ele>
        <time>2015-01-04T10:17:17Z</time>
      </trkpt>
      <trkpt lat="48.7097" lon="-3.44958">
        <ele>71</ele>
        <time>2015-01-04T10:17:18Z</time>
      </trkpt>
      <trkpt lat="48.70977" lon="-3.44959">
        <ele>71</ele>
        <time>2015-01-04T10:17:19Z</time>
      </trkpt>
      <trkpt lat="48.70984" lon="-3.44959">
        <ele>71</ele>
        <time>2015-01-04T10:17:20Z</time>
      </trkpt>
      <trkpt lat="48.7099" lon="-3.4496">
        <ele>70</ele>
        <time>2015-01-04T10:17:21Z</time>
      </trkpt>
      <trkpt lat="48.70996" lon="-3.44965">
        <ele>70</ele>
        <time>2015-01-04T10:17:22Z</time>
      </trkpt>
      <trkpt lat="48.71001" lon="-3.44971">
        <ele>70</ele>
        <time>2015-01-04T10:17:23Z</time>
      </trkpt>
      <trkpt lat="48.71006" lon="-3.44978">
        <ele>70</ele>
        <time>2015-01-04T10:17:24Z</time>
      </trkpt>
      <trkpt lat="48.71012" lon="-3.44984">
        <ele>70</ele>
        <time>2015-01-04T10:17:25Z</time>
      </trkpt>
      <trkpt lat="48.71019" lon="-3.44987">
        <ele>70</ele>
        <time>2015-01-04T10:17:26Z</time>
      </trkpt>
      <trkpt lat="48.71027" lon="-3.44989">
        <ele>70</ele>
        <time>2015-01-04T10:17:27Z</time>
      </trkpt>
      <trkpt lat="48.71035" lon="-3.4499">
        <ele>70</ele>
        <time>2015-01-04T10:17:28Z</time>
      </trkpt>
      <trkpt lat="48.71043" lon="-3.44991">
        <ele>70</ele>
        <time>2015-01-04T10:17:29Z</time>
      </trkpt>
      <trkpt lat="48.71051" lon="-3.44991">
        <ele>70</ele>
        <time>2015-01-04T10:17:30Z</time>
      </trkpt>
      <trkpt lat="48.71068" lon="-3.44991">
        <ele>70</ele>
        <time>2015-01-04T10:17:32Z</time>
      </trkpt>
      <trkpt lat="48.71077" lon="-3.44991">
        <ele>69</ele>
        <time>2015-01-04T10:17:33Z</time>
      </trkpt>
      <trkpt lat="48.71085" lon="-3.44992">
        <ele>69</ele>
        <time>2015-01-04T10:17:34Z</time>
      </trkpt>
      <trkpt lat="48.71093" lon="-3.44992">
        <ele>69</ele>
        <time>2015-01-04T10:17:35Z</time>
      </trkpt>
      <trkpt lat="48.71102" lon="-3.44992">
        <ele>69</ele>
        <time>2015-01-04T10:17:36Z</time>
      </trkpt>
      <trkpt lat="48.71134" lon="-3.44992">
        <ele>69</ele>
        <time>2015-01-04T10:17:40Z</time>
      </trkpt>
      <trkpt lat="48.71142" lon="-3.44993">
        <ele>69</ele>
        <time>2015-01-04T10:17:41Z</time>
      </trkpt>
      <trkpt lat="48.7115" lon="-3.44994">
        <ele>69</ele>
        <time>2015-01-04T10:17:42Z</time>
      </trkpt>
      <trkpt lat="48.71158" lon="-3.44996">
        <ele>69</ele>
        <time>2015-01-04T10:17:43Z</time>
      </trkpt>
      <trkpt lat="48.71166" lon="-3.44999">
        <ele>69</ele>
        <time>2015-01-04T10:17:44Z</time>
      </trkpt>
      <trkpt lat="48.71173" lon="-3.45001">
        <ele>69</ele>
        <time>2015-01-04T10:17:45Z</time>
      </trkpt>
      <trkpt lat="48.71181" lon="-3.45004">
        <ele>68</ele>
        <time>2015-01-04T10:17:46Z</time>
      </trkpt>
      <trkpt lat="48.71188" lon="-3.45007">
        <ele>68</ele>
        <time>2015-01-04T10:17:47Z</time>
      </trkpt>
      <trkpt lat="48.71196" lon="-3.4501">
        <ele>68</ele>
        <time>2015-01-04T10:17:48Z</time>
      </trkpt>
      <trkpt lat="48.71203" lon="-3.45013">
        <ele>68</ele>
        <time>2015-01-04T10:17:49Z</time>
      </trkpt>
      <trkpt lat="48.7121" lon="-3.45017">
        <ele>68</ele>
        <time>2015-01-04T10:17:50Z</time>
      </trkpt>
      <trkpt lat="48.71218" lon="-3.4502">
        <ele>67</ele>
        <time>2015-01-04T10:17:51Z</time>
      </trkpt>
      <trkpt lat="48.71225" lon="-3.45023">
        <ele>67</ele>
        <time>2015-01-04T10:17:52Z</time>
      </trkpt>
      <trkpt lat="48.71233" lon="-3.45026">
        <ele>67</ele>
        <time>2015-01-04T10:17:53Z</time>
      </trkpt>
      <trkpt lat="48.71241" lon="-3.4503">
        <ele>66</ele>
        <time>2015-01-04T10:17:54Z</time>
      </trkpt>
      <trkpt lat="48.71248" lon="-3.45033">
        <ele>66</ele>
        <time>2015-01-04T10:17:55Z</time>
      </trkpt>
      <trkpt lat="48.71256" lon="-3.45037">
        <ele>66</ele>
        <time>2015-01-04T10:17:56Z</time>
      </trkpt>
      <trkpt lat="48.71264" lon="-3.4504">
        <ele>65</ele>
        <time>2015-01-04T10:17:57Z</time>
      </trkpt>
      <trkpt lat="48.71272" lon="-3.45043">
        <ele>65</ele>
        <time>2015-01-04T10:17:58Z</time>
      </trkpt>
      <trkpt lat="48.7128" lon="-3.45047">
        <ele>65</ele>
        <time>2015-01-04T10:17:59Z</time>
      </trkpt>
      <trkpt lat="48.71289" lon="-3.45051">
        <ele>65</ele>
        <time>2015-01-04T10:18:00Z</time>
      </trkpt>
      <trkpt lat="48.71296" lon="-3.45055">
        <ele>65</ele>
        <time>2015-01-04T10:18:01Z</time>
      </trkpt>
      <trkpt lat="48.71304" lon="-3.45058">
        <ele>65</ele>
        <time>2015-01-04T10:18:02Z</time>
      </trkpt>
      <trkpt lat="48.71312" lon="-3.45062">
        <ele>65</ele>
        <time>2015-01-04T10:18:03Z</time>
      </trkpt>
      <trkpt lat="48.7132" lon="-3.45066">
        <ele>65</ele>
        <time>2015-01-04T10:18:04Z</time>
      </trkpt>
      <trkpt lat="48.71328" lon="-3.4507">
        <ele>65</ele>
        <time>2015-01-04T10:18:05Z</time>
      </trkpt>
      <trkpt lat="48.71336" lon="-3.45074">
        <ele>64</ele>
        <time>2015-01-04T10:18:06Z</time>
      </trkpt>
      <trkpt lat="48.71344" lon="-3.45079">
        <ele>64</ele>
        <time>2015-01-04T10:18:07Z</time>
      </trkpt>
      <trkpt lat="48.71352" lon="-3.45084">
        <ele>64</ele>
        <time>2015-01-04T10:18:08Z</time>
      </trkpt>
      <trkpt lat="48.7136" lon="-3.45088">
        <ele>64</ele>
        <time>2015-01-04T10:18:09Z</time>
      </trkpt>
      <trkpt lat="48.71368" lon="-3.45093">
        <ele>64</ele>
        <time>2015-01-04T10:18:10Z</time>
      </trkpt>
      <trkpt lat="48.71376" lon="-3.45098">
        <ele>64</ele>
        <time>2015-01-04T10:18:11Z</time>
      </trkpt>
      <trkpt lat="48.71383" lon="-3.45103">
        <ele>64</ele>
        <time>2015-01-04T10:18:12Z</time>
      </trkpt>
      <trkpt lat="48.71391" lon="-3.45109">
        <ele>64</ele>
        <time>2015-01-04T10:18:13Z</time>
      </trkpt>
      <trkpt lat="48.71399" lon="-3.45114">
        <ele>64</ele>
        <time>2015-01-04T10:18:14Z</time>
      </trkpt>
      <trkpt lat="48.71406" lon="-3.45119">
        <ele>64</ele>
        <time>2015-01-04T10:18:15Z</time>
      </trkpt>
      <trkpt lat="48.71414" lon="-3.45125">
        <ele>64</ele>
        <time>2015-01-04T10:18:16Z</time>
      </trkpt>
      <trkpt lat="48.71421" lon="-3.4513">
        <ele>64</ele>
        <time>2015-01-04T10:18:17Z</time>
      </trkpt>
      <trkpt lat="48.71429" lon="-3.45135">
        <ele>64</ele>
        <time>2015-01-04T10:18:18Z</time>
      </trkpt>
      <trkpt lat="48.71437" lon="-3.45141">
        <ele>64</ele>
        <time>2015-01-04T10:18:19Z</time>
      </trkpt>
      <trkpt lat="48.71445" lon="-3.45146">
        <ele>64</ele>
        <time>2015-01-04T10:18:20Z</time>
      </trkpt>
      <trkpt lat="48.71453" lon="-3.45152">
        <ele>64</ele>
        <time>2015-01-04T10:18:21Z</time>
      </trkpt>
      <trkpt lat="48.7146" lon="-3.45158">
        <ele>64</ele>
        <time>2015-01-04T10:18:22Z</time>
      </trkpt>
      <trkpt lat="48.71468" lon="-3.45164">
        <ele>64</ele>
        <time>2015-01-04T10:18:23Z</time>
      </trkpt>
      <trkpt lat="48.71476" lon="-3.4517">
        <ele>64</ele>
        <time>2015-01-04T10:18:24Z</time>
      </trkpt>
      <trkpt lat="48.71483" lon="-3.45175">
        <ele>64</ele>
        <time>2015-01-04T10:18:25Z</time>
      </trkpt>
      <trkpt lat="48.71491" lon="-3.45181">
        <ele>64</ele>
        <time>2015-01-04T10:18:26Z</time>
      </trkpt>
      <trkpt lat="48.71498" lon="-3.45186">
        <ele>64</ele>
        <time>2015-01-04T10:18:27Z</time>
      </trkpt>
      <trkpt lat="48.71505" lon="-3.45192">
        <ele>64</ele>
        <time>2015-01-04T10:18:28Z</time>
      </trkpt>
      <trkpt lat="48.71513" lon="-3.45198">
        <ele>64</ele>
        <time>2015-01-04T10:18:29Z</time>
      </trkpt>
      <trkpt lat="48.7152" lon="-3.45203">
        <ele>64</ele>
        <time>2015-01-04T10:18:30Z</time>
      </trkpt>
      <trkpt lat="48.71527" lon="-3.45208">
        <ele>64</ele>
        <time>2015-01-04T10:18:31Z</time>
      </trkpt>
      <trkpt lat="48.71535" lon="-3.45214">
        <ele>64</ele>
        <time>2015-01-04T10:18:32Z</time>
      </trkpt>
      <trkpt lat="48.71542" lon="-3.45218">
        <ele>64</ele>
        <time>2015-01-04T10:18:33Z</time>
      </trkpt>
      <trkpt lat="48.7155" lon="-3.45224">
        <ele>64</ele>
        <time>2015-01-04T10:18:34Z</time>
      </trkpt>
      <trkpt lat="48.71556" lon="-3.4523">
        <ele>64</ele>
        <time>2015-01-04T10:18:35Z</time>
      </trkpt>
      <trkpt lat="48.71563" lon="-3.45236">
        <ele>64</ele>
        <time>2015-01-04T10:18:36Z</time>
      </trkpt>
      <trkpt lat="48.7157" lon="-3.45243">
        <ele>64</ele>
        <time>2015-01-04T10:18:37Z</time>
      </trkpt>
      <trkpt lat="48.71576" lon="-3.45251">
        <ele>64</ele>
        <time>2015-01-04T10:18:38Z</time>
      </trkpt>
      <trkpt lat="48.71582" lon="-3.4526">
        <ele>64</ele>
        <time>2015-01-04T10:18:39Z</time>
      </trkpt>
      <trkpt lat="48.71587" lon="-3.45271">
        <ele>64</ele>
        <time>2015-01-04T10:18:40Z</time>
      </trkpt>
      <trkpt lat="48.71591" lon="-3.45282">
        <ele>64</ele>
        <time>2015-01-04T10:18:41Z</time>
      </trkpt>
      <trkpt lat="48.71595" lon="-3.45293">
        <ele>64</ele>
        <time>2015-01-04T10:18:42Z</time>
      </trkpt>
      <trkpt lat="48.716" lon="-3.45305">
        <ele>64</ele>
        <time>2015-01-04T10:18:43Z</time>
      </trkpt>
      <trkpt lat="48.71604" lon="-3.45317">
        <ele>63</ele>
        <time>2015-01-04T10:18:44Z</time>
      </trkpt>
      <trkpt lat="48.71608" lon="-3.45329">
        <ele>63</ele>
        <time>2015-01-04T10:18:45Z</time>
      </trkpt>
      <trkpt lat="48.71612" lon="-3.45341">
        <ele>63</ele>
        <time>2015-01-04T10:18:46Z</time>
      </trkpt>
      <trkpt lat="48.71616" lon="-3.45353">
        <ele>63</ele>
        <time>2015-01-04T10:18:47Z</time>
      </trkpt>
      <trkpt lat="48.71621" lon="-3.45365">
        <ele>63</ele>
        <time>2015-01-04T10:18:48Z</time>
      </trkpt>
      <trkpt lat="48.71625" lon="-3.45377">
        <ele>62</ele>
        <time>2015-01-04T10:18:49Z</time>
      </trkpt>
      <trkpt lat="48.7163" lon="-3.45389">
        <ele>62</ele>
        <time>2015-01-04T10:18:50Z</time>
      </trkpt>
      <trkpt lat="48.71634" lon="-3.45401">
        <ele>62</ele>
        <time>2015-01-04T10:18:51Z</time>
      </trkpt>
      <trkpt lat="48.71638" lon="-3.45413">
        <ele>62</ele>
        <time>2015-01-04T10:18:52Z</time>
      </trkpt>
      <trkpt lat="48.71643" lon="-3.45425">
        <ele>62</ele>
        <time>2015-01-04T10:18:53Z</time>
      </trkpt>
      <trkpt lat="48.71648" lon="-3.45437">
        <ele>61</ele>
        <time>2015-01-04T10:18:54Z</time>
      </trkpt>
      <trkpt lat="48.71652" lon="-3.45449">
        <ele>61</ele>
        <time>2015-01-04T10:18:55Z</time>
      </trkpt>
      <trkpt lat="48.71657" lon="-3.45461">
        <ele>61</ele>
        <time>2015-01-04T10:18:56Z</time>
      </trkpt>
      <trkpt lat="48.71661" lon="-3.45473">
        <ele>61</ele>
        <time>2015-01-04T10:18:57Z</time>
      </trkpt>
      <trkpt lat="48.71666" lon="-3.45485">
        <ele>61</ele>
        <time>2015-01-04T10:18:58Z</time>
      </trkpt>
      <trkpt lat="48.7167" lon="-3.45497">
        <ele>60</ele>
        <time>2015-01-04T10:18:59Z</time>
      </trkpt>
      <trkpt lat="48.71675" lon="-3.45509">
        <ele>60</ele>
        <time>2015-01-04T10:19:00Z</time>
      </trkpt>
      <trkpt lat="48.7168" lon="-3.45521">
        <ele>60</ele>
        <time>2015-01-04T10:19:01Z</time>
      </trkpt>
      <trkpt lat="48.71684" lon="-3.45533">
        <ele>60</ele>
        <time>2015-01-04T10:19:02Z</time>
      </trkpt>
      <trkpt lat="48.71689" lon="-3.45545">
        <ele>59</ele>
        <time>2015-01-04T10:19:03Z</time>
      </trkpt>
      <trkpt lat="48.71693" lon="-3.45557">
        <ele>59</ele>
        <time>2015-01-04T10:19:04Z</time>
      </trkpt>
      <trkpt lat="48.71698" lon="-3.45569">
        <ele>59</ele>
        <time>2015-01-04T10:19:05Z</time>
      </trkpt>
      <trkpt lat="48.71703" lon="-3.45581">
        <ele>59</ele>
        <time>2015-01-04T10:19:06Z</time>
      </trkpt>
      <trkpt lat="48.71709" lon="-3.45593">
        <ele>58</ele>
        <time>2015-01-04T10:19:07Z</time>
      </trkpt>
      <trkpt lat="48.71715" lon="-3.45604">
        <ele>58</ele>
        <time>2015-01-04T10:19:08Z</time>
      </trkpt>
      <trkpt lat="48.71721" lon="-3.45615">
        <ele>57</ele>
        <time>2015-01-04T10:19:09Z</time>
      </trkpt>
      <trkpt lat="48.71729" lon="-3.45624">
        <ele>57</ele>
        <time>2015-01-04T10:19:10Z</time>
      </trkpt>
      <trkpt lat="48.71737" lon="-3.45632">
        <ele>57</ele>
        <time>2015-01-04T10:19:11Z</time>
      </trkpt>
      <trkpt lat="48.71745" lon="-3.4564">
        <ele>56</ele>
        <time>2015-01-04T10:19:12Z</time>
      </trkpt>
      <trkpt lat="48.71753" lon="-3.45649">
        <ele>56</ele>
        <time>2015-01-04T10:19:13Z</time>
      </trkpt>
      <trkpt lat="48.71761" lon="-3.45657">
        <ele>56</ele>
        <time>2015-01-04T10:19:14Z</time>
      </trkpt>
      <trkpt lat="48.71769" lon="-3.45666">
        <ele>55</ele>
        <time>2015-01-04T10:19:15Z</time>
      </trkpt>
      <trkpt lat="48.71778" lon="-3.45674">
        <ele>55</ele>
        <time>2015-01-04T10:19:16Z</time>
      </trkpt>
      <trkpt lat="48.71786" lon="-3.45682">
        <ele>55</ele>
        <time>2015-01-04T10:19:17Z</time>
      </trkpt>
      <trkpt lat="48.71794" lon="-3.4569">
        <ele>54</ele>
        <time>2015-01-04T10:19:18Z</time>
      </trkpt>
      <trkpt lat="48.71803" lon="-3.45699">
        <ele>54</ele>
        <time>2015-01-04T10:19:19Z</time>
      </trkpt>
      <trkpt lat="48.71811" lon="-3.45707">
        <ele>53</ele>
        <time>2015-01-04T10:19:20Z</time>
      </trkpt>
      <trkpt lat="48.7182" lon="-3.45715">
        <ele>53</ele>
        <time>2015-01-04T10:19:21Z</time>
      </trkpt>
      <trkpt lat="48.71828" lon="-3.45723">
        <ele>53</ele>
        <time>2015-01-04T10:19:22Z</time>
      </trkpt>
      <trkpt lat="48.71837" lon="-3.45732">
        <ele>52</ele>
        <time>2015-01-04T10:19:23Z</time>
      </trkpt>
      <trkpt lat="48.71845" lon="-3.45741">
        <ele>52</ele>
        <time>2015-01-04T10:19:24Z</time>
      </trkpt>
      <trkpt lat="48.71854" lon="-3.45749">
        <ele>51</ele>
        <time>2015-01-04T10:19:25Z</time>
      </trkpt>
      <trkpt lat="48.71862" lon="-3.45758">
        <ele>51</ele>
        <time>2015-01-04T10:19:26Z</time>
      </trkpt>
      <trkpt lat="48.71871" lon="-3.45767">
        <ele>50</ele>
        <time>2015-01-04T10:19:27Z</time>
      </trkpt>
      <trkpt lat="48.71879" lon="-3.45775">
        <ele>50</ele>
        <time>2015-01-04T10:19:28Z</time>
      </trkpt>
      <trkpt lat="48.71888" lon="-3.45784">
        <ele>50</ele>
        <time>2015-01-04T10:19:29Z</time>
      </trkpt>
      <trkpt lat="48.71896" lon="-3.45792">
        <ele>49</ele>
        <time>2015-01-04T10:19:30Z</time>
      </trkpt>
      <trkpt lat="48.71905" lon="-3.45801">
        <ele>49</ele>
        <time>2015-01-04T10:19:31Z</time>
      </trkpt>
      <trkpt lat="48.71913" lon="-3.4581">
        <ele>49</ele>
        <time>2015-01-04T10:19:32Z</time>
      </trkpt>
      <trkpt lat="48.71921" lon="-3.4582">
        <ele>48</ele>
        <time>2015-01-04T10:19:33Z</time>
      </trkpt>
      <trkpt lat="48.71928" lon="-3.45831">
        <ele>48</ele>
        <time>2015-01-04T10:19:34Z</time>
      </trkpt>
      <trkpt lat="48.71933" lon="-3.45844">
        <ele>47</ele>
        <time>2015-01-04T10:19:35Z</time>
      </trkpt>
      <trkpt lat="48.71938" lon="-3.45858">
        <ele>47</ele>
        <time>2015-01-04T10:19:36Z</time>
      </trkpt>
      <trkpt lat="48.71941" lon="-3.45872">
        <ele>47</ele>
        <time>2015-01-04T10:19:37Z</time>
      </trkpt>
      <trkpt lat="48.71944" lon="-3.45886">
        <ele>46</ele>
        <time>2015-01-04T10:19:38Z</time>
      </trkpt>
      <trkpt lat="48.71947" lon="-3.45901">
        <ele>46</ele>
        <time>2015-01-04T10:19:39Z</time>
      </trkpt>
      <trkpt lat="48.71951" lon="-3.45916">
        <ele>46</ele>
        <time>2015-01-04T10:19:40Z</time>
      </trkpt>
      <trkpt lat="48.71954" lon="-3.45931">
        <ele>45</ele>
        <time>2015-01-04T10:19:41Z</time>
      </trkpt>
      <trkpt lat="48.71959" lon="-3.45945">
        <ele>45</ele>
        <time>2015-01-04T10:19:42Z</time>
      </trkpt>
      <trkpt lat="48.71964" lon="-3.45959">
        <ele>44</ele>
        <time>2015-01-04T10:19:43Z</time>
      </trkpt>
      <trkpt lat="48.71969" lon="-3.45971">
        <ele>44</ele>
        <time>2015-01-04T10:19:44Z</time>
      </trkpt>
      <trkpt lat="48.71976" lon="-3.45983">
        <ele>44</ele>
        <time>2015-01-04T10:19:45Z</time>
      </trkpt>
      <trkpt lat="48.71984" lon="-3.45993">
        <ele>43</ele>
        <time>2015-01-04T10:19:46Z</time>
      </trkpt>
      <trkpt lat="48.71993" lon="-3.46002">
        <ele>43</ele>
        <time>2015-01-04T10:19:47Z</time>
      </trkpt>
      <trkpt lat="48.72002" lon="-3.46009">
        <ele>42</ele>
        <time>2015-01-04T10:19:48Z</time>
      </trkpt>
      <trkpt lat="48.72011" lon="-3.46015">
        <ele>42</ele>
        <time>2015-01-04T10:19:49Z</time>
      </trkpt>
      <trkpt lat="48.72021" lon="-3.4602">
        <ele>42</ele>
        <time>2015-01-04T10:19:50Z</time>
      </trkpt>
      <trkpt lat="48.72031" lon="-3.46022">
        <ele>41</ele>
        <time>2015-01-04T10:19:51Z</time>
      </trkpt>
      <trkpt lat="48.72042" lon="-3.46021">
        <ele>41</ele>
        <time>2015-01-04T10:19:52Z</time>
      </trkpt>
      <trkpt lat="48.72052" lon="-3.4602">
        <ele>40</ele>
        <time>2015-01-04T10:19:53Z</time>
      </trkpt>
      <trkpt lat="48.72062" lon="-3.46016">
        <ele>39</ele>
        <time>2015-01-04T10:19:54Z</time>
      </trkpt>
      <trkpt lat="48.72072" lon="-3.46011">
        <ele>39</ele>
        <time>2015-01-04T10:19:55Z</time>
      </trkpt>
      <trkpt lat="48.72082" lon="-3.46005">
        <ele>38</ele>
        <time>2015-01-04T10:19:56Z</time>
      </trkpt>
      <trkpt lat="48.72091" lon="-3.45998">
        <ele>38</ele>
        <time>2015-01-04T10:19:57Z</time>
      </trkpt>
      <trkpt lat="48.72101" lon="-3.4599">
        <ele>37</ele>
        <time>2015-01-04T10:19:58Z</time>
      </trkpt>
      <trkpt lat="48.7211" lon="-3.45983">
        <ele>37</ele>
        <time>2015-01-04T10:19:59Z</time>
      </trkpt>
      <trkpt lat="48.7212" lon="-3.45976">
        <ele>36</ele>
        <time>2015-01-04T10:20:00Z</time>
      </trkpt>
      <trkpt lat="48.72129" lon="-3.45969">
        <ele>35</ele>
        <time>2015-01-04T10:20:01Z</time>
      </trkpt>
      <trkpt lat="48.72138" lon="-3.45962">
        <ele>35</ele>
        <time>2015-01-04T10:20:02Z</time>
      </trkpt>
      <trkpt lat="48.72148" lon="-3.45957">
        <ele>34</ele>
        <time>2015-01-04T10:20:03Z</time>
      </trkpt>
      <trkpt lat="48.72158" lon="-3.45954">
        <ele>34</ele>
        <time>2015-01-04T10:20:04Z</time>
      </trkpt>
      <trkpt lat="48.72168" lon="-3.45953">
        <ele>33</ele>
        <time>2015-01-04T10:20:05Z</time>
      </trkpt>
      <trkpt lat="48.72179" lon="-3.45955">
        <ele>33</ele>
        <time>2015-01-04T10:20:06Z</time>
      </trkpt>
      <trkpt lat="48.72189" lon="-3.45958">
        <ele>32</ele>
        <time>2015-01-04T10:20:07Z</time>
      </trkpt>
      <trkpt lat="48.72199" lon="-3.45963">
        <ele>32</ele>
        <time>2015-01-04T10:20:08Z</time>
      </trkpt>
      <trkpt lat="48.72209" lon="-3.45968">
        <ele>32</ele>
        <time>2015-01-04T10:20:09Z</time>
      </trkpt>
      <trkpt lat="48.72219" lon="-3.45972">
        <ele>31</ele>
        <time>2015-01-04T10:20:10Z</time>
      </trkpt>
      <trkpt lat="48.72229" lon="-3.45977">
        <ele>31</ele>
        <time>2015-01-04T10:20:11Z</time>
      </trkpt>
      <trkpt lat="48.72238" lon="-3.45982">
        <ele>31</ele>
        <time>2015-01-04T10:20:12Z</time>
      </trkpt>
      <trkpt lat="48.72247" lon="-3.45987">
        <ele>30</ele>
        <time>2015-01-04T10:20:13Z</time>
      </trkpt>
      <trkpt lat="48.72257" lon="-3.45991">
        <ele>30</ele>
        <time>2015-01-04T10:20:14Z</time>
      </trkpt>
      <trkpt lat="48.72266" lon="-3.45996">
        <ele>30</ele>
        <time>2015-01-04T10:20:15Z</time>
      </trkpt>
      <trkpt lat="48.72276" lon="-3.46">
        <ele>29</ele>
        <time>2015-01-04T10:20:16Z</time>
      </trkpt>
      <trkpt lat="48.72285" lon="-3.46005">
        <ele>29</ele>
        <time>2015-01-04T10:20:17Z</time>
      </trkpt>
      <trkpt lat="48.72295" lon="-3.46008">
        <ele>29</ele>
        <time>2015-01-04T10:20:18Z</time>
      </trkpt>
      <trkpt lat="48.72306" lon="-3.4601">
        <ele>29</ele>
        <time>2015-01-04T10:20:19Z</time>
      </trkpt>
      <trkpt lat="48.72316" lon="-3.46011">
        <ele>28</ele>
        <time>2015-01-04T10:20:20Z</time>
      </trkpt>
      <trkpt lat="48.72326" lon="-3.46011">
        <ele>28</ele>
        <time>2015-01-04T10:20:21Z</time>
      </trkpt>
      <trkpt lat="48.72336" lon="-3.46008">
        <ele>28</ele>
        <time>2015-01-04T10:20:22Z</time>
      </trkpt>
      <trkpt lat="48.72346" lon="-3.46006">
        <ele>27</ele>
        <time>2015-01-04T10:20:23Z</time>
      </trkpt>
      <trkpt lat="48.72356" lon="-3.46002">
        <ele>27</ele>
        <time>2015-01-04T10:20:24Z</time>
      </trkpt>
      <trkpt lat="48.72366" lon="-3.46">
        <ele>27</ele>
        <time>2015-01-04T10:20:25Z</time>
      </trkpt>
      <trkpt lat="48.72376" lon="-3.45997">
        <ele>26</ele>
        <time>2015-01-04T10:20:26Z</time>
      </trkpt>
      <trkpt lat="48.72386" lon="-3.45994">
        <ele>26</ele>
        <time>2015-01-04T10:20:27Z</time>
      </trkpt>
      <trkpt lat="48.72396" lon="-3.45992">
        <ele>25</ele>
        <time>2015-01-04T10:20:28Z</time>
      </trkpt>
      <trkpt lat="48.72406" lon="-3.45991">
        <ele>25</ele>
        <time>2015-01-04T10:20:29Z</time>
      </trkpt>
      <trkpt lat="48.72416" lon="-3.45991">
        <ele>24</ele>
        <time>2015-01-04T10:20:30Z</time>
      </trkpt>
      <trkpt lat="48.72425" lon="-3.45994">
        <ele>24</ele>
        <time>2015-01-04T10:20:31Z</time>
      </trkpt>
      <trkpt lat="48.72434" lon="-3.45998">
        <ele>24</ele>
        <time>2015-01-04T10:20:32Z</time>
      </trkpt>
      <trkpt lat="48.72443" lon="-3.46003">
        <ele>23</ele>
        <time>2015-01-04T10:20:33Z</time>
      </trkpt>
      <trkpt lat="48.72453" lon="-3.46007">
        <ele>23</ele>
        <time>2015-01-04T10:20:34Z</time>
      </trkpt>
      <trkpt lat="48.72462" lon="-3.46012">
        <ele>23</ele>
        <time>2015-01-04T10:20:35Z</time>
      </trkpt>
      <trkpt lat="48.72471" lon="-3.46016">
        <ele>22</ele>
        <time>2015-01-04T10:20:36Z</time>
      </trkpt>
      <trkpt lat="48.7248" lon="-3.4602">
        <ele>22</ele>
        <time>2015-01-04T10:20:37Z</time>
      </trkpt>
      <trkpt lat="48.7249" lon="-3.46023">
        <ele>22</ele>
        <time>2015-01-04T10:20:38Z</time>
      </trkpt>
      <trkpt lat="48.72499" lon="-3.46026">
        <ele>21</ele>
        <time>2015-01-04T10:20:39Z</time>
      </trkpt>
      <trkpt lat="48.72509" lon="-3.46029">
        <ele>21</ele>
        <time>2015-01-04T10:20:40Z</time>
      </trkpt>
      <trkpt lat="48.72518" lon="-3.46032">
        <ele>21</ele>
        <time>2015-01-04T10:20:41Z</time>
      </trkpt>
      <trkpt lat="48.72528" lon="-3.46034">
        <ele>20</ele>
        <time>2015-01-04T10:20:42Z</time>
      </trkpt>
      <trkpt lat="48.72538" lon="-3.46035">
        <ele>20</ele>
        <time>2015-01-04T10:20:43Z</time>
      </trkpt>
      <trkpt lat="48.72547" lon="-3.46036">
        <ele>19</ele>
        <time>2015-01-04T10:20:44Z</time>
      </trkpt>
      <trkpt lat="48.72557" lon="-3.46035">
        <ele>19</ele>
        <time>2015-01-04T10:20:45Z</time>
      </trkpt>
      <trkpt lat="48.72566" lon="-3.46034">
        <ele>19</ele>
        <time>2015-01-04T10:20:46Z</time>
      </trkpt>
      <trkpt lat="48.72575" lon="-3.46032">
        <ele>18</ele>
        <time>2015-01-04T10:20:47Z</time>
      </trkpt>
      <trkpt lat="48.72585" lon="-3.46029">
        <ele>18</ele>
        <time>2015-01-04T10:20:48Z</time>
      </trkpt>
      <trkpt lat="48.72594" lon="-3.46027">
        <ele>18</ele>
        <time>2015-01-04T10:20:49Z</time>
      </trkpt>
      <trkpt lat="48.72603" lon="-3.46025">
        <ele>17</ele>
        <time>2015-01-04T10:20:50Z</time>
      </trkpt>
      <trkpt lat="48.72612" lon="-3.46022">
        <ele>17</ele>
        <time>2015-01-04T10:20:51Z</time>
      </trkpt>
      <trkpt lat="48.72622" lon="-3.4602">
        <ele>16</ele>
        <time>2015-01-04T10:20:52Z</time>
      </trkpt>
      <trkpt lat="48.72631" lon="-3.46018">
        <ele>16</ele>
        <time>2015-01-04T10:20:53Z</time>
      </trkpt>
      <trkpt lat="48.72641" lon="-3.46015">
        <ele>15</ele>
        <time>2015-01-04T10:20:54Z</time>
      </trkpt>
      <trkpt lat="48.7265" lon="-3.46013">
        <ele>15</ele>
        <time>2015-01-04T10:20:55Z</time>
      </trkpt>
      <trkpt lat="48.7266" lon="-3.4601">
        <ele>15</ele>
        <time>2015-01-04T10:20:56Z</time>
      </trkpt>
      <trkpt lat="48.72669" lon="-3.46008">
        <ele>14</ele>
        <time>2015-01-04T10:20:57Z</time>
      </trkpt>
      <trkpt lat="48.72679" lon="-3.46006">
        <ele>14</ele>
        <time>2015-01-04T10:20:58Z</time>
      </trkpt>
      <trkpt lat="48.72689" lon="-3.46003">
        <ele>13</ele>
        <time>2015-01-04T10:20:59Z</time>
      </trkpt>
      <trkpt lat="48.72698" lon="-3.46001">
        <ele>13</ele>
        <time>2015-01-04T10:21:00Z</time>
      </trkpt>
      <trkpt lat="48.72708" lon="-3.45999">
        <ele>12</ele>
        <time>2015-01-04T10:21:01Z</time>
      </trkpt>
      <trkpt lat="48.72717" lon="-3.45996">
        <ele>12</ele>
        <time>2015-01-04T10:21:02Z</time>
      </trkpt>
      <trkpt lat="48.72726" lon="-3.45994">
        <ele>11</ele>
        <time>2015-01-04T10:21:03Z</time>
      </trkpt>
      <trkpt lat="48.72734" lon="-3.45992">
        <ele>11</ele>
        <time>2015-01-04T10:21:04Z</time>
      </trkpt>
      <trkpt lat="48.72741" lon="-3.4599">
        <ele>10</ele>
        <time>2015-01-04T10:21:05Z</time>
      </trkpt>
      <trkpt lat="48.72748" lon="-3.45988">
        <ele>10</ele>
        <time>2015-01-04T10:21:06Z</time>
      </trkpt>
      <trkpt lat="48.72753" lon="-3.45987">
        <ele>9</ele>
        <time>2015-01-04T10:21:07Z</time>
      </trkpt>
      <trkpt lat="48.72758" lon="-3.45986">
        <ele>9</ele>
        <time>2015-01-04T10:21:08Z</time>
      </trkpt>
      <trkpt lat="48.72763" lon="-3.45985">
        <ele>9</ele>
        <time>2015-01-04T10:21:09Z</time>
      </trkpt>
      <trkpt lat="48.72768" lon="-3.45981">
        <ele>9</ele>
        <time>2015-01-04T10:21:10Z</time>
      </trkpt>
      <trkpt lat="48.72771" lon="-3.45976">
        <ele>9</ele>
        <time>2015-01-04T10:21:11Z</time>
      </trkpt>
      <trkpt lat="48.72774" lon="-3.45969">
        <ele>9</ele>
        <time>2015-01-04T10:21:12Z</time>
      </trkpt>
      <trkpt lat="48.72774" lon="-3.45962">
        <ele>9</ele>
        <time>2015-01-04T10:21:13Z</time>
      </trkpt>
      <trkpt lat="48.72774" lon="-3.45955">
        <ele>9</ele>
        <time>2015-01-04T10:21:14Z</time>
      </trkpt>
      <trkpt lat="48.72773" lon="-3.45947">
        <ele>9</ele>
        <time>2015-01-04T10:21:15Z</time>
      </trkpt>
      <trkpt lat="48.72772" lon="-3.45939">
        <ele>9</ele>
        <time>2015-01-04T10:21:16Z</time>
      </trkpt>
      <trkpt lat="48.72771" lon="-3.45931">
        <ele>9</ele>
        <time>2015-01-04T10:21:17Z</time>
      </trkpt>
      <trkpt lat="48.72771" lon="-3.45923">
        <ele>9</ele>
        <time>2015-01-04T10:21:18Z</time>
      </trkpt>
      <trkpt lat="48.72772" lon="-3.45908">
        <ele>9</ele>
        <time>2015-01-04T10:21:20Z</time>
      </trkpt>
      <trkpt lat="48.72774" lon="-3.45902">
        <ele>9</ele>
        <time>2015-01-04T10:21:21Z</time>
      </trkpt>
      <trkpt lat="48.72777" lon="-3.45895">
        <ele>9</ele>
        <time>2015-01-04T10:21:22Z</time>
      </trkpt>
      <trkpt lat="48.72779" lon="-3.45888">
        <ele>9</ele>
        <time>2015-01-04T10:21:23Z</time>
      </trkpt>
      <trkpt lat="48.72782" lon="-3.4588">
        <ele>9</ele>
        <time>2015-01-04T10:21:24Z</time>
      </trkpt>
      <trkpt lat="48.72784" lon="-3.45873">
        <ele>9</ele>
        <time>2015-01-04T10:21:25Z</time>
      </trkpt>
      <trkpt lat="48.72786" lon="-3.45866">
        <ele>9</ele>
        <time>2015-01-04T10:21:26Z</time>
      </trkpt>
      <trkpt lat="48.72787" lon="-3.45858">
        <ele>9</ele>
        <time>2015-01-04T10:21:27Z</time>
      </trkpt>
      <trkpt lat="48.72789" lon="-3.4585">
        <ele>9</ele>
        <time>2015-01-04T10:21:28Z</time>
      </trkpt>
      <trkpt lat="48.7279" lon="-3.45843">
        <ele>9</ele>
        <time>2015-01-04T10:21:29Z</time>
      </trkpt>
      <trkpt lat="48.72791" lon="-3.45835">
        <ele>9</ele>
        <time>2015-01-04T10:21:30Z</time>
      </trkpt>
      <trkpt lat="48.72792" lon="-3.45829">
        <ele>9</ele>
        <time>2015-01-04T10:21:31Z</time>
      </trkpt>
      <trkpt lat="48.72794" lon="-3.45822">
        <ele>9</ele>
        <time>2015-01-04T10:21:32Z</time>
      </trkpt>
      <trkpt lat="48.72796" lon="-3.45815">
        <ele>9</ele>
        <time>2015-01-04T10:21:33Z</time>
      </trkpt>
      <trkpt lat="48.72798" lon="-3.45809">
        <ele>9</ele>
        <time>2015-01-04T10:21:34Z</time>
      </trkpt>
      <trkpt lat="48.72799" lon="-3.45802">
        <ele>9</ele>
        <time>2015-01-04T10:21:35Z</time>
      </trkpt>
      <trkpt lat="48.728" lon="-3.45795">
        <ele>9</ele>
        <time>2015-01-04T10:21:36Z</time>
      </trkpt>
      <trkpt lat="48.72799" lon="-3.45788">
        <ele>9</ele>
        <time>2015-01-04T10:21:37Z</time>
      </trkpt>
      <trkpt lat="48.72797" lon="-3.45782">
        <ele>9</ele>
        <time>2015-01-04T10:21:38Z</time>
      </trkpt>
      <trkpt lat="48.72795" lon="-3.45775">
        <ele>9</ele>
        <time>2015-01-04T10:21:39Z</time>
      </trkpt>
      <trkpt lat="48.72792" lon="-3.45769">
        <ele>9</ele>
        <time>2015-01-04T10:21:40Z</time>
      </trkpt>
      <trkpt lat="48.72788" lon="-3.45763">
        <ele>9</ele>
        <time>2015-01-04T10:21:41Z</time>
      </trkpt>
      <trkpt lat="48.72783" lon="-3.45758">
        <ele>8</ele>
        <time>2015-01-04T10:21:42Z</time>
      </trkpt>
      <trkpt lat="48.72778" lon="-3.45755">
        <ele>8</ele>
        <time>2015-01-04T10:21:43Z</time>
      </trkpt>
      <trkpt lat="48.72773" lon="-3.45751">
        <ele>8</ele>
        <time>2015-01-04T10:21:44Z</time>
      </trkpt>
      <trkpt lat="48.72768" lon="-3.45747">
        <ele>8</ele>
        <time>2015-01-04T10:21:45Z</time>
      </trkpt>
      <trkpt lat="48.72763" lon="-3.45742">
        <ele>8</ele>
        <time>2015-01-04T10:21:46Z</time>
      </trkpt>
      <trkpt lat="48.72758" lon="-3.45738">
        <ele>8</ele>
        <time>2015-01-04T10:21:47Z</time>
      </trkpt>
      <trkpt lat="48.72753" lon="-3.45734">
        <ele>8</ele>
        <time>2015-01-04T10:21:48Z</time>
      </trkpt>
      <trkpt lat="48.72747" lon="-3.4573">
        <ele>8</ele>
        <time>2015-01-04T10:21:49Z</time>
      </trkpt>
      <trkpt lat="48.72742" lon="-3.45725">
        <ele>8</ele>
        <time>2015-01-04T10:21:50Z</time>
      </trkpt>
      <trkpt lat="48.72737" lon="-3.45721">
        <ele>8</ele>
        <time>2015-01-04T10:21:51Z</time>
      </trkpt>
      <trkpt lat="48.72732" lon="-3.45716">
        <ele>8</ele>
        <time>2015-01-04T10:21:52Z</time>
      </trkpt>
      <trkpt lat="48.72726" lon="-3.45712">
        <ele>8</ele>
        <time>2015-01-04T10:21:53Z</time>
      </trkpt>
      <trkpt lat="48.72721" lon="-3.45707">
        <ele>8</ele>
        <time>2015-01-04T10:21:54Z</time>
      </trkpt>
      <trkpt lat="48.72716" lon="-3.45701">
        <ele>8</ele>
        <time>2015-01-04T10:21:55Z</time>
      </trkpt>
      <trkpt lat="48.72712" lon="-3.45695">
        <ele>8</ele>
        <time>2015-01-04T10:21:56Z</time>
      </trkpt>
      <trkpt lat="48.72707" lon="-3.45689">
        <ele>8</ele>
        <time>2015-01-04T10:21:57Z</time>
      </trkpt>
      <trkpt lat="48.72702" lon="-3.45683">
        <ele>8</ele>
        <time>2015-01-04T10:21:58Z</time>
      </trkpt>
      <trkpt lat="48.72698" lon="-3.45676">
        <ele>8</ele>
        <time>2015-01-04T10:21:59Z</time>
      </trkpt>
      <trkpt lat="48.72693" lon="-3.4567">
        <ele>8</ele>
        <time>2015-01-04T10:22:00Z</time>
      </trkpt>
      <trkpt lat="48.72689" lon="-3.45663">
        <ele>8</ele>
        <time>2015-01-04T10:22:01Z</time>
      </trkpt>
      <trkpt lat="48.72684" lon="-3.45656">
        <ele>8</ele>
        <time>2015-01-04T10:22:02Z</time>
      </trkpt>
      <trkpt lat="48.7268" lon="-3.45649">
        <ele>8</ele>
        <time>2015-01-04T10:22:03Z</time>
      </trkpt>
      <trkpt lat="48.72677" lon="-3.45642">
        <ele>8</ele>
        <time>2015-01-04T10:22:04Z</time>
      </trkpt>
      <trkpt lat="48.72673" lon="-3.45634">
        <ele>8</ele>
        <time>2015-01-04T10:22:05Z</time>
      </trkpt>
      <trkpt lat="48.72669" lon="-3.45626">
        <ele>8</ele>
        <time>2015-01-04T10:22:06Z</time>
      </trkpt>
      <trkpt lat="48.72666" lon="-3.45619">
        <ele>8</ele>
        <time>2015-01-04T10:22:07Z</time>
      </trkpt>
      <trkpt lat="48.72662" lon="-3.45611">
        <ele>8</ele>
        <time>2015-01-04T10:22:08Z</time>
      </trkpt>
      <trkpt lat="48.72658" lon="-3.45603">
        <ele>8</ele>
        <time>2015-01-04T10:22:09Z</time>
      </trkpt>
      <trkpt lat="48.72655" lon="-3.45595">
        <ele>8</ele>
        <time>2015-01-04T10:22:10Z</time>
      </trkpt>
      <trkpt lat="48.72651" lon="-3.45587">
        <ele>8</ele>
        <time>2015-01-04T10:22:11Z</time>
      </trkpt>
      <trkpt lat="48.72647" lon="-3.4558">
        <ele>8</ele>
        <time>2015-01-04T10:22:12Z</time>
      </trkpt>
      <trkpt lat="48.72644" lon="-3.45572">
        <ele>8</ele>
        <time>2015-01-04T10:22:13Z</time>
      </trkpt>
      <trkpt lat="48.72641" lon="-3.45564">
        <ele>8</ele>
        <time>2015-01-04T10:22:14Z</time>
      </trkpt>
      <trkpt lat="48.72638" lon="-3.45555">
        <ele>8</ele>
        <time>2015-01-04T10:22:15Z</time>
      </trkpt>
      <trkpt lat="48.72635" lon="-3.45547">
        <ele>8</ele>
        <time>2015-01-04T10:22:16Z</time>
      </trkpt>
      <trkpt lat="48.72632" lon="-3.45539">
        <ele>8</ele>
        <time>2015-01-04T10:22:17Z</time>
      </trkpt>
      <trkpt lat="48.72629" lon="-3.4553">
        <ele>8</ele>
        <time>2015-01-04T10:22:18Z</time>
      </trkpt>
      <trkpt lat="48.72626" lon="-3.45522">
        <ele>8</ele>
        <time>2015-01-04T10:22:19Z</time>
      </trkpt>
      <trkpt lat="48.72624" lon="-3.45513">
        <ele>8</ele>
        <time>2015-01-04T10:22:20Z</time>
      </trkpt>
      <trkpt lat="48.72622" lon="-3.45504">
        <ele>8</ele>
        <time>2015-01-04T10:22:21Z</time>
      </trkpt>
      <trkpt lat="48.72619" lon="-3.45496">
        <ele>8</ele>
        <time>2015-01-04T10:22:22Z</time>
      </trkpt>
      <trkpt lat="48.72617" lon="-3.45487">
        <ele>8</ele>
        <time>2015-01-04T10:22:23Z</time>
      </trkpt>
      <trkpt lat="48.72615" lon="-3.45478">
        <ele>8</ele>
        <time>2015-01-04T10:22:24Z</time>
      </trkpt>
      <trkpt lat="48.72613" lon="-3.4547">
        <ele>8</ele>
        <time>2015-01-04T10:22:25Z</time>
      </trkpt>
      <trkpt lat="48.72611" lon="-3.45461">
        <ele>8</ele>
        <time>2015-01-04T10:22:26Z</time>
      </trkpt>
      <trkpt lat="48.72609" lon="-3.45452">
        <ele>8</ele>
        <time>2015-01-04T10:22:27Z</time>
      </trkpt>
      <trkpt lat="48.72608" lon="-3.45443">
        <ele>8</ele>
        <time>2015-01-04T10:22:28Z</time>
      </trkpt>
      <trkpt lat="48.72606" lon="-3.45435">
        <ele>8</ele>
        <time>2015-01-04T10:22:29Z</time>
      </trkpt>
      <trkpt lat="48.72605" lon="-3.45426">
        <ele>8</ele>
        <time>2015-01-04T10:22:30Z</time>
      </trkpt>
      <trkpt lat="48.72604" lon="-3.45418">
        <ele>8</ele>
        <time>2015-01-04T10:22:31Z</time>
      </trkpt>
      <trkpt lat="48.72603" lon="-3.45409">
        <ele>8</ele>
        <time>2015-01-04T10:22:32Z</time>
      </trkpt>
      <trkpt lat="48.72602" lon="-3.454">
        <ele>8</ele>
        <time>2015-01-04T10:22:33Z</time>
      </trkpt>
      <trkpt lat="48.72601" lon="-3.45392">
        <ele>8</ele>
        <time>2015-01-04T10:22:34Z</time>
      </trkpt>
      <trkpt lat="48.726" lon="-3.45383">
        <ele>8</ele>
        <time>2015-01-04T10:22:35Z</time>
      </trkpt>
      <trkpt lat="48.72599" lon="-3.45375">
        <ele>8</ele>
        <time>2015-01-04T10:22:36Z</time>
      </trkpt>
      <trkpt lat="48.72599" lon="-3.45367">
        <ele>8</ele>
        <time>2015-01-04T10:22:37Z</time>
      </trkpt>
      <trkpt lat="48.72598" lon="-3.45358">
        <ele>8</ele>
        <time>2015-01-04T10:22:38Z</time>
      </trkpt>
      <trkpt lat="48.72598" lon="-3.4535">
        <ele>8</ele>
        <time>2015-01-04T10:22:39Z</time>
      </trkpt>
      <trkpt lat="48.72598" lon="-3.45335">
        <ele>8</ele>
        <time>2015-01-04T10:22:41Z</time>
      </trkpt>
      <trkpt lat="48.72597" lon="-3.45319">
        <ele>8</ele>
        <time>2015-01-04T10:22:43Z</time>
      </trkpt>
      <trkpt lat="48.72596" lon="-3.4531">
        <ele>8</ele>
        <time>2015-01-04T10:22:44Z</time>
      </trkpt>
      <trkpt lat="48.72597" lon="-3.45302">
        <ele>8</ele>
        <time>2015-01-04T10:22:45Z</time>
      </trkpt>
      <trkpt lat="48.72597" lon="-3.45287">
        <ele>8</ele>
        <time>2015-01-04T10:22:47Z</time>
      </trkpt>
      <trkpt lat="48.72598" lon="-3.45272">
        <ele>8</ele>
        <time>2015-01-04T10:22:49Z</time>
      </trkpt>
      <trkpt lat="48.72598" lon="-3.45265">
        <ele>8</ele>
        <time>2015-01-04T10:22:50Z</time>
      </trkpt>
      <trkpt lat="48.72598" lon="-3.45258">
        <ele>9</ele>
        <time>2015-01-04T10:22:51Z</time>
      </trkpt>
      <trkpt lat="48.72599" lon="-3.45251">
        <ele>9</ele>
        <time>2015-01-04T10:22:52Z</time>
      </trkpt>
      <trkpt lat="48.72599" lon="-3.45244">
        <ele>9</ele>
        <time>2015-01-04T10:22:53Z</time>
      </trkpt>
      <trkpt lat="48.72599" lon="-3.45236">
        <ele>9</ele>
        <time>2015-01-04T10:22:54Z</time>
      </trkpt>
      <trkpt lat="48.726" lon="-3.45229">
        <ele>9</ele>
        <time>2015-01-04T10:22:55Z</time>
      </trkpt>
      <trkpt lat="48.726" lon="-3.45222">
        <ele>9</ele>
        <time>2015-01-04T10:22:56Z</time>
      </trkpt>
      <trkpt lat="48.72601" lon="-3.45202">
        <ele>10</ele>
        <time>2015-01-04T10:22:59Z</time>
      </trkpt>
      <trkpt lat="48.72601" lon="-3.45195">
        <ele>10</ele>
        <time>2015-01-04T10:23:00Z</time>
      </trkpt>
      <trkpt lat="48.72602" lon="-3.45189">
        <ele>10</ele>
        <time>2015-01-04T10:23:01Z</time>
      </trkpt>
      <trkpt lat="48.72605" lon="-3.45184">
        <ele>10</ele>
        <time>2015-01-04T10:23:02Z</time>
      </trkpt>
      <trkpt lat="48.72608" lon="-3.45181">
        <ele>10</ele>
        <time>2015-01-04T10:23:03Z</time>
      </trkpt>
      <trkpt lat="48.72612" lon="-3.45179">
        <ele>10</ele>
        <time>2015-01-04T10:23:04Z</time>
      </trkpt>
      <trkpt lat="48.72616" lon="-3.4518">
        <ele>10</ele>
        <time>2015-01-04T10:23:05Z</time>
      </trkpt>
      <trkpt lat="48.72621" lon="-3.45181">
        <ele>10</ele>
        <time>2015-01-04T10:23:06Z</time>
      </trkpt>
      <trkpt lat="48.72625" lon="-3.45182">
        <ele>10</ele>
        <time>2015-01-04T10:23:07Z</time>
      </trkpt>
      <trkpt lat="48.7263" lon="-3.45183">
        <ele>11</ele>
        <time>2015-01-04T10:23:08Z</time>
      </trkpt>
      <trkpt lat="48.72635" lon="-3.45184">
        <ele>11</ele>
        <time>2015-01-04T10:23:09Z</time>
      </trkpt>
      <trkpt lat="48.7264" lon="-3.45185">
        <ele>11</ele>
        <time>2015-01-04T10:23:10Z</time>
      </trkpt>
      <trkpt lat="48.72644" lon="-3.45186">
        <ele>11</ele>
        <time>2015-01-04T10:23:11Z</time>
      </trkpt>
      <trkpt lat="48.72649" lon="-3.45187">
        <ele>11</ele>
        <time>2015-01-04T10:23:12Z</time>
      </trkpt>
      <trkpt lat="48.72654" lon="-3.45188">
        <ele>11</ele>
        <time>2015-01-04T10:23:13Z</time>
      </trkpt>
      <trkpt lat="48.72659" lon="-3.45189">
        <ele>11</ele>
        <time>2015-01-04T10:23:14Z</time>
      </trkpt>
      <trkpt lat="48.72663" lon="-3.45191">
        <ele>11</ele>
        <time>2015-01-04T10:23:15Z</time>
      </trkpt>
      <trkpt lat="48.72667" lon="-3.45193">
        <ele>11</ele>
        <time>2015-01-04T10:23:16Z</time>
      </trkpt>
      <trkpt lat="48.72671" lon="-3.45195">
        <ele>11</ele>
        <time>2015-01-04T10:23:17Z</time>
      </trkpt>
      <trkpt lat="48.72675" lon="-3.45197">
        <ele>12</ele>
        <time>2015-01-04T10:23:18Z</time>
      </trkpt>
      <trkpt lat="48.72679" lon="-3.45199">
        <ele>12</ele>
        <time>2015-01-04T10:23:19Z</time>
      </trkpt>
      <trkpt lat="48.72682" lon="-3.45202">
        <ele>12</ele>
        <time>2015-01-04T10:23:20Z</time>
      </trkpt>
      <trkpt lat="48.72686" lon="-3.45204">
        <ele>13</ele>
        <time>2015-01-04T10:23:21Z</time>
      </trkpt>
      <trkpt lat="48.72689" lon="-3.45207">
        <ele>13</ele>
        <time>2015-01-04T10:23:22Z</time>
      </trkpt>
      <trkpt lat="48.72692" lon="-3.45209">
        <ele>13</ele>
        <time>2015-01-04T10:23:23Z</time>
      </trkpt>
      <trkpt lat="48.72696" lon="-3.45212">
        <ele>13</ele>
        <time>2015-01-04T10:23:24Z</time>
      </trkpt>
      <trkpt lat="48.72699" lon="-3.45214">
        <ele>14</ele>
        <time>2015-01-04T10:23:25Z</time>
      </trkpt>
      <trkpt lat="48.72703" lon="-3.45216">
        <ele>14</ele>
        <time>2015-01-04T10:23:26Z</time>
      </trkpt>
      <trkpt lat="48.72706" lon="-3.45218">
        <ele>14</ele>
        <time>2015-01-04T10:23:27Z</time>
      </trkpt>
      <trkpt lat="48.7271" lon="-3.45219">
        <ele>14</ele>
        <time>2015-01-04T10:23:28Z</time>
      </trkpt>
      <trkpt lat="48.72713" lon="-3.45219">
        <ele>15</ele>
        <time>2015-01-04T10:23:29Z</time>
      </trkpt>
      <trkpt lat="48.72716" lon="-3.45218">
        <ele>15</ele>
        <time>2015-01-04T10:23:30Z</time>
      </trkpt>
      <trkpt lat="48.72719" lon="-3.45216">
        <ele>15</ele>
        <time>2015-01-04T10:23:31Z</time>
      </trkpt>
      <trkpt lat="48.72721" lon="-3.45212">
        <ele>16</ele>
        <time>2015-01-04T10:23:32Z</time>
      </trkpt>
      <trkpt lat="48.72723" lon="-3.45208">
        <ele>16</ele>
        <time>2015-01-04T10:23:33Z</time>
      </trkpt>
      <trkpt lat="48.72724" lon="-3.45204">
        <ele>16</ele>
        <time>2015-01-04T10:23:34Z</time>
      </trkpt>
      <trkpt lat="48.72726" lon="-3.45199">
        <ele>17</ele>
        <time>2015-01-04T10:23:35Z</time>
      </trkpt>
      <trkpt lat="48.72728" lon="-3.45195">
        <ele>17</ele>
        <time>2015-01-04T10:23:36Z</time>
      </trkpt>
      <trkpt lat="48.7273" lon="-3.45191">
        <ele>17</ele>
        <time>2015-01-04T10:23:37Z</time>
      </trkpt>
      <trkpt lat="48.72732" lon="-3.45186">
        <ele>17</ele>
        <time>2015-01-04T10:23:38Z</time>
      </trkpt>
      <trkpt lat="48.72734" lon="-3.45182">
        <ele>18</ele>
        <time>2015-01-04T10:23:39Z</time>
      </trkpt>
      <trkpt lat="48.72736" lon="-3.45177">
        <ele>18</ele>
        <time>2015-01-04T10:23:40Z</time>
      </trkpt>
      <trkpt lat="48.72739" lon="-3.45173">
        <ele>18</ele>
        <time>2015-01-04T10:23:41Z</time>
      </trkpt>
      <trkpt lat="48.72741" lon="-3.45168">
        <ele>18</ele>
        <time>2015-01-04T10:23:42Z</time>
      </trkpt>
      <trkpt lat="48.72743" lon="-3.45163">
        <ele>18</ele>
        <time>2015-01-04T10:23:43Z</time>
      </trkpt>
      <trkpt lat="48.72745" lon="-3.45159">
        <ele>18</ele>
        <time>2015-01-04T10:23:44Z</time>
      </trkpt>
      <trkpt lat="48.72747" lon="-3.45154">
        <ele>18</ele>
        <time>2015-01-04T10:23:45Z</time>
      </trkpt>
      <trkpt lat="48.7275" lon="-3.4515">
        <ele>19</ele>
        <time>2015-01-04T10:23:46Z</time>
      </trkpt>
      <trkpt lat="48.72752" lon="-3.45145">
        <ele>19</ele>
        <time>2015-01-04T10:23:47Z</time>
      </trkpt>
      <trkpt lat="48.72755" lon="-3.4514">
        <ele>19</ele>
        <time>2015-01-04T10:23:48Z</time>
      </trkpt>
      <trkpt lat="48.72757" lon="-3.45135">
        <ele>19</ele>
        <time>2015-01-04T10:23:49Z</time>
      </trkpt>
      <trkpt lat="48.7276" lon="-3.4513">
        <ele>19</ele>
        <time>2015-01-04T10:23:50Z</time>
      </trkpt>
      <trkpt lat="48.72762" lon="-3.45125">
        <ele>19</ele>
        <time>2015-01-04T10:23:51Z</time>
      </trkpt>
      <trkpt lat="48.72764" lon="-3.4512">
        <ele>19</ele>
        <time>2015-01-04T10:23:52Z</time>
      </trkpt>
      <trkpt lat="48.72766" lon="-3.45114">
        <ele>20</ele>
        <time>2015-01-04T10:23:53Z</time>
      </trkpt>
      <trkpt lat="48.72768" lon="-3.45109">
        <ele>20</ele>
        <time>2015-01-04T10:23:54Z</time>
      </trkpt>
      <trkpt lat="48.72771" lon="-3.45105">
        <ele>20</ele>
        <time>2015-01-04T10:23:55Z</time>
      </trkpt>
      <trkpt lat="48.72773" lon="-3.451">
        <ele>20</ele>
        <time>2015-01-04T10:23:56Z</time>
      </trkpt>
      <trkpt lat="48.72776" lon="-3.45095">
        <ele>20</ele>
        <time>2015-01-04T10:23:57Z</time>
      </trkpt>
      <trkpt lat="48.72778" lon="-3.4509">
        <ele>20</ele>
        <time>2015-01-04T10:23:58Z</time>
      </trkpt>
      <trkpt lat="48.7278" lon="-3.45085">
        <ele>21</ele>
        <time>2015-01-04T10:23:59Z</time>
      </trkpt>
      <trkpt lat="48.72782" lon="-3.4508">
        <ele>21</ele>
        <time>2015-01-04T10:24:00Z</time>
      </trkpt>
      <trkpt lat="48.72785" lon="-3.45076">
        <ele>21</ele>
        <time>2015-01-04T10:24:01Z</time>
      </trkpt>
      <trkpt lat="48.72787" lon="-3.45071">
        <ele>21</ele>
        <time>2015-01-04T10:24:02Z</time>
      </trkpt>
      <trkpt lat="48.72789" lon="-3.45066">
        <ele>21</ele>
        <time>2015-01-04T10:24:03Z</time>
      </trkpt>
      <trkpt lat="48.72792" lon="-3.45062">
        <ele>21</ele>
        <time>2015-01-04T10:24:04Z</time>
      </trkpt>
      <trkpt lat="48.72794" lon="-3.45057">
        <ele>21</ele>
        <time>2015-01-04T10:24:05Z</time>
      </trkpt>
      <trkpt lat="48.72796" lon="-3.45052">
        <ele>21</ele>
        <time>2015-01-04T10:24:06Z</time>
      </trkpt>
      <trkpt lat="48.72799" lon="-3.45047">
        <ele>21</ele>
        <time>2015-01-04T10:24:07Z</time>
      </trkpt>
      <trkpt lat="48.72801" lon="-3.45042">
        <ele>21</ele>
        <time>2015-01-04T10:24:08Z</time>
      </trkpt>
      <trkpt lat="48.72803" lon="-3.45037">
        <ele>22</ele>
        <time>2015-01-04T10:24:09Z</time>
      </trkpt>
      <trkpt lat="48.72806" lon="-3.45031">
        <ele>22</ele>
        <time>2015-01-04T10:24:10Z</time>
      </trkpt>
      <trkpt lat="48.72808" lon="-3.45026">
        <ele>22</ele>
        <time>2015-01-04T10:24:11Z</time>
      </trkpt>
      <trkpt lat="48.72811" lon="-3.45021">
        <ele>22</ele>
        <time>2015-01-04T10:24:12Z</time>
      </trkpt>
      <trkpt lat="48.72813" lon="-3.45016">
        <ele>22</ele>
        <time>2015-01-04T10:24:13Z</time>
      </trkpt>
      <trkpt lat="48.72815" lon="-3.45011">
        <ele>23</ele>
        <time>2015-01-04T10:24:14Z</time>
      </trkpt>
      <trkpt lat="48.72818" lon="-3.45006">
        <ele>23</ele>
        <time>2015-01-04T10:24:15Z</time>
      </trkpt>
      <trkpt lat="48.7282" lon="-3.45001">
        <ele>23</ele>
        <time>2015-01-04T10:24:16Z</time>
      </trkpt>
      <trkpt lat="48.72822" lon="-3.44997">
        <ele>23</ele>
        <time>2015-01-04T10:24:17Z</time>
      </trkpt>
      <trkpt lat="48.72825" lon="-3.44992">
        <ele>23</ele>
        <time>2015-01-04T10:24:18Z</time>
      </trkpt>
      <trkpt lat="48.72827" lon="-3.44987">
        <ele>24</ele>
        <time>2015-01-04T10:24:19Z</time>
      </trkpt>
      <trkpt lat="48.72829" lon="-3.44983">
        <ele>24</ele>
        <time>2015-01-04T10:24:20Z</time>
      </trkpt>
      <trkpt lat="48.72831" lon="-3.44978">
        <ele>24</ele>
        <time>2015-01-04T10:24:21Z</time>
      </trkpt>
      <trkpt lat="48.72833" lon="-3.44974">
        <ele>24</ele>
        <time>2015-01-04T10:24:22Z</time>
      </trkpt>
      <trkpt lat="48.72835" lon="-3.4497">
        <ele>24</ele>
        <time>2015-01-04T10:24:23Z</time>
      </trkpt>
      <trkpt lat="48.72837" lon="-3.44966">
        <ele>25</ele>
        <time>2015-01-04T10:24:24Z</time>
      </trkpt>
      <trkpt lat="48.72839" lon="-3.44963">
        <ele>25</ele>
        <time>2015-01-04T10:24:25Z</time>
      </trkpt>
      <trkpt lat="48.72842" lon="-3.4496">
        <ele>25</ele>
        <time>2015-01-04T10:24:26Z</time>
      </trkpt>
      <trkpt lat="48.72844" lon="-3.44959">
        <ele>25</ele>
        <time>2015-01-04T10:24:27Z</time>
      </trkpt>
      <trkpt lat="48.72848" lon="-3.4496">
        <ele>25</ele>
        <time>2015-01-04T10:24:29Z</time>
      </trkpt>
      <trkpt lat="48.7285" lon="-3.44964">
        <ele>25</ele>
        <time>2015-01-04T10:24:30Z</time>
      </trkpt>
      <trkpt lat="48.72853" lon="-3.44968">
        <ele>25</ele>
        <time>2015-01-04T10:24:31Z</time>
      </trkpt>
      <trkpt lat="48.72855" lon="-3.44972">
        <ele>25</ele>
        <time>2015-01-04T10:24:32Z</time>
      </trkpt>
      <trkpt lat="48.72858" lon="-3.44978">
        <ele>25</ele>
        <time>2015-01-04T10:24:33Z</time>
      </trkpt>
      <trkpt lat="48.7286" lon="-3.44984">
        <ele>25</ele>
        <time>2015-01-04T10:24:34Z</time>
      </trkpt>
      <trkpt lat="48.72863" lon="-3.4499">
        <ele>26</ele>
        <time>2015-01-04T10:24:35Z</time>
      </trkpt>
      <trkpt lat="48.72866" lon="-3.44996">
        <ele>26</ele>
        <time>2015-01-04T10:24:36Z</time>
      </trkpt>
      <trkpt lat="48.72868" lon="-3.45002">
        <ele>26</ele>
        <time>2015-01-04T10:24:37Z</time>
      </trkpt>
      <trkpt lat="48.72871" lon="-3.45008">
        <ele>26</ele>
        <time>2015-01-04T10:24:38Z</time>
      </trkpt>
      <trkpt lat="48.72874" lon="-3.45015">
        <ele>26</ele>
        <time>2015-01-04T10:24:39Z</time>
      </trkpt>
      <trkpt lat="48.72876" lon="-3.45022">
        <ele>27</ele>
        <time>2015-01-04T10:24:40Z</time>
      </trkpt>
      <trkpt lat="48.72879" lon="-3.45028">
        <ele>27</ele>
        <time>2015-01-04T10:24:41Z</time>
      </trkpt>
      <trkpt lat="48.72881" lon="-3.45035">
        <ele>27</ele>
        <time>2015-01-04T10:24:42Z</time>
      </trkpt>
      <trkpt lat="48.72884" lon="-3.45041">
        <ele>27</ele>
        <time>2015-01-04T10:24:43Z</time>
      </trkpt>
      <trkpt lat="48.72887" lon="-3.45047">
        <ele>28</ele>
        <time>2015-01-04T10:24:44Z</time>
      </trkpt>
      <trkpt lat="48.72889" lon="-3.45053">
        <ele>28</ele>
        <time>2015-01-04T10:24:45Z</time>
      </trkpt>
      <trkpt lat="48.72892" lon="-3.45058">
        <ele>28</ele>
        <time>2015-01-04T10:24:46Z</time>
      </trkpt>
      <trkpt lat="48.72895" lon="-3.45064">
        <ele>29</ele>
        <time>2015-01-04T10:24:47Z</time>
      </trkpt>
      <trkpt lat="48.72897" lon="-3.4507">
        <ele>29</ele>
        <time>2015-01-04T10:24:48Z</time>
      </trkpt>
      <trkpt lat="48.729" lon="-3.45076">
        <ele>29</ele>
        <time>2015-01-04T10:24:49Z</time>
      </trkpt>
      <trkpt lat="48.72903" lon="-3.45082">
        <ele>29</ele>
        <time>2015-01-04T10:24:50Z</time>
      </trkpt>
      <trkpt lat="48.72906" lon="-3.45088">
        <ele>30</ele>
        <time>2015-01-04T10:24:51Z</time>
      </trkpt>
      <trkpt lat="48.72908" lon="-3.45094">
        <ele>30</ele>
        <time>2015-01-04T10:24:52Z</time>
      </trkpt>
      <trkpt lat="48.72911" lon="-3.45101">
        <ele>30</ele>
        <time>2015-01-04T10:24:53Z</time>
      </trkpt>
      <trkpt lat="48.72914" lon="-3.45107">
        <ele>30</ele>
        <time>2015-01-04T10:24:54Z</time>
      </trkpt>
      <trkpt lat="48.72917" lon="-3.45113">
        <ele>31</ele>
        <time>2015-01-04T10:24:55Z</time>
      </trkpt>
      <trkpt lat="48.7292" lon="-3.45119">
        <ele>31</ele>
        <time>2015-01-04T10:24:56Z</time>
      </trkpt>
      <trkpt lat="48.72923" lon="-3.45125">
        <ele>31</ele>
        <time>2015-01-04T10:24:57Z</time>
      </trkpt>
      <trkpt lat="48.72925" lon="-3.4513">
        <ele>31</ele>
        <time>2015-01-04T10:24:58Z</time>
      </trkpt>
      <trkpt lat="48.72927" lon="-3.45136">
        <ele>31</ele>
        <time>2015-01-04T10:24:59Z</time>
      </trkpt>
      <trkpt lat="48.72929" lon="-3.45141">
        <ele>31</ele>
        <time>2015-01-04T10:25:00Z</time>
      </trkpt>
      <trkpt lat="48.72932" lon="-3.45146">
        <ele>32</ele>
        <time>2015-01-04T10:25:01Z</time>
      </trkpt>
      <trkpt lat="48.72934" lon="-3.45151">
        <ele>32</ele>
        <time>2015-01-04T10:25:02Z</time>
      </trkpt>
      <trkpt lat="48.72936" lon="-3.45156">
        <ele>32</ele>
        <time>2015-01-04T10:25:03Z</time>
      </trkpt>
      <trkpt lat="48.72938" lon="-3.4516">
        <ele>32</ele>
        <time>2015-01-04T10:25:04Z</time>
      </trkpt>
      <trkpt lat="48.7294" lon="-3.45164">
        <ele>32</ele>
        <time>2015-01-04T10:25:05Z</time>
      </trkpt>
      <trkpt lat="48.72942" lon="-3.45168">
        <ele>32</ele>
        <time>2015-01-04T10:25:06Z</time>
      </trkpt>
      <trkpt lat="48.72945" lon="-3.45171">
        <ele>33</ele>
        <time>2015-01-04T10:25:07Z</time>
      </trkpt>
      <trkpt lat="48.72947" lon="-3.45173">
        <ele>33</ele>
        <time>2015-01-04T10:25:08Z</time>
      </trkpt>
      <trkpt lat="48.7295" lon="-3.45173">
        <ele>33</ele>
        <time>2015-01-04T10:25:09Z</time>
      </trkpt>
      <trkpt lat="48.72952" lon="-3.45171">
        <ele>33</ele>
        <time>2015-01-04T10:25:10Z</time>
      </trkpt>
      <trkpt lat="48.72954" lon="-3.45165">
        <ele>33</ele>
        <time>2015-01-04T10:25:11Z</time>
      </trkpt>
      <trkpt lat="48.72954" lon="-3.45159">
        <ele>33</ele>
        <time>2015-01-04T10:25:12Z</time>
      </trkpt>
      <trkpt lat="48.72955" lon="-3.45099">
        <ele>33</ele>
        <time>2015-01-04T10:25:20Z</time>
      </trkpt>
      <trkpt lat="48.72955" lon="-3.45091">
        <ele>33</ele>
        <time>2015-01-04T10:25:21Z</time>
      </trkpt>
      <trkpt lat="48.72955" lon="-3.45083">
        <ele>33</ele>
        <time>2015-01-04T10:25:22Z</time>
      </trkpt>
      <trkpt lat="48.72956" lon="-3.45075">
        <ele>33</ele>
        <time>2015-01-04T10:25:23Z</time>
      </trkpt>
      <trkpt lat="48.72956" lon="-3.45066">
        <ele>33</ele>
        <time>2015-01-04T10:25:24Z</time>
      </trkpt>
      <trkpt lat="48.72956" lon="-3.45058">
        <ele>33</ele>
        <time>2015-01-04T10:25:25Z</time>
      </trkpt>
      <trkpt lat="48.72957" lon="-3.45049">
        <ele>33</ele>
        <time>2015-01-04T10:25:26Z</time>
      </trkpt>
      <trkpt lat="48.72958" lon="-3.45041">
        <ele>33</ele>
        <time>2015-01-04T10:25:27Z</time>
      </trkpt>
      <trkpt lat="48.72958" lon="-3.45032">
        <ele>33</ele>
        <time>2015-01-04T10:25:28Z</time>
      </trkpt>
      <trkpt lat="48.72959" lon="-3.45024">
        <ele>33</ele>
        <time>2015-01-04T10:25:29Z</time>
      </trkpt>
      <trkpt lat="48.7296" lon="-3.45016">
        <ele>33</ele>
        <time>2015-01-04T10:25:30Z</time>
      </trkpt>
      <trkpt lat="48.7296" lon="-3.45007">
        <ele>33</ele>
        <time>2015-01-04T10:25:31Z</time>
      </trkpt>
      <trkpt lat="48.72961" lon="-3.44999">
        <ele>33</ele>
        <time>2015-01-04T10:25:32Z</time>
      </trkpt>
      <trkpt lat="48.72962" lon="-3.44991">
        <ele>33</ele>
        <time>2015-01-04T10:25:33Z</time>
      </trkpt>
      <trkpt lat="48.72963" lon="-3.44982">
        <ele>34</ele>
        <time>2015-01-04T10:25:34Z</time>
      </trkpt>
      <trkpt lat="48.72963" lon="-3.44974">
        <ele>34</ele>
        <time>2015-01-04T10:25:35Z</time>
      </trkpt>
      <trkpt lat="48.72964" lon="-3.44966">
        <ele>34</ele>
        <time>2015-01-04T10:25:36Z</time>
      </trkpt>
      <trkpt lat="48.72965" lon="-3.44958">
        <ele>34</ele>
        <time>2015-01-04T10:25:37Z</time>
      </trkpt>
      <trkpt lat="48.72966" lon="-3.4495">
        <ele>34</ele>
        <time>2015-01-04T10:25:38Z</time>
      </trkpt>
      <trkpt lat="48.72966" lon="-3.44942">
        <ele>34</ele>
        <time>2015-01-04T10:25:39Z</time>
      </trkpt>
      <trkpt lat="48.72967" lon="-3.44934">
        <ele>34</ele>
        <time>2015-01-04T10:25:40Z</time>
      </trkpt>
      <trkpt lat="48.72968" lon="-3.44926">
        <ele>34</ele>
        <time>2015-01-04T10:25:41Z</time>
      </trkpt>
      <trkpt lat="48.72968" lon="-3.44917">
        <ele>34</ele>
        <time>2015-01-04T10:25:42Z</time>
      </trkpt>
      <trkpt lat="48.72969" lon="-3.4491">
        <ele>34</ele>
        <time>2015-01-04T10:25:43Z</time>
      </trkpt>
      <trkpt lat="48.7297" lon="-3.44902">
        <ele>34</ele>
        <time>2015-01-04T10:25:44Z</time>
      </trkpt>
      <trkpt lat="48.72971" lon="-3.44894">
        <ele>34</ele>
        <time>2015-01-04T10:25:45Z</time>
      </trkpt>
      <trkpt lat="48.72971" lon="-3.44886">
        <ele>35</ele>
        <time>2015-01-04T10:25:46Z</time>
      </trkpt>
      <trkpt lat="48.72972" lon="-3.44878">
        <ele>35</ele>
        <time>2015-01-04T10:25:47Z</time>
      </trkpt>
      <trkpt lat="48.72973" lon="-3.4487">
        <ele>35</ele>
        <time>2015-01-04T10:25:48Z</time>
      </trkpt>
      <trkpt lat="48.72974" lon="-3.44862">
        <ele>35</ele>
        <time>2015-01-04T10:25:49Z</time>
      </trkpt>
      <trkpt lat="48.72974" lon="-3.44854">
        <ele>35</ele>
        <time>2015-01-04T10:25:50Z</time>
      </trkpt>
      <trkpt lat="48.72975" lon="-3.44845">
        <ele>35</ele>
        <time>2015-01-04T10:25:51Z</time>
      </trkpt>
      <trkpt lat="48.72976" lon="-3.44837">
        <ele>35</ele>
        <time>2015-01-04T10:25:52Z</time>
      </trkpt>
      <trkpt lat="48.72977" lon="-3.44828">
        <ele>36</ele>
        <time>2015-01-04T10:25:53Z</time>
      </trkpt>
      <trkpt lat="48.72978" lon="-3.44819">
        <ele>36</ele>
        <time>2015-01-04T10:25:54Z</time>
      </trkpt>
      <trkpt lat="48.72979" lon="-3.44811">
        <ele>36</ele>
        <time>2015-01-04T10:25:55Z</time>
      </trkpt>
      <trkpt lat="48.7298" lon="-3.44802">
        <ele>36</ele>
        <time>2015-01-04T10:25:56Z</time>
      </trkpt>
      <trkpt lat="48.72981" lon="-3.44793">
        <ele>36</ele>
        <time>2015-01-04T10:25:57Z</time>
      </trkpt>
      <trkpt lat="48.72982" lon="-3.44785">
        <ele>36</ele>
        <time>2015-01-04T10:25:58Z</time>
      </trkpt>
      <trkpt lat="48.72982" lon="-3.44776">
        <ele>37</ele>
        <time>2015-01-04T10:25:59Z</time>
      </trkpt>
      <trkpt lat="48.72983" lon="-3.44767">
        <ele>37</ele>
        <time>2015-01-04T10:26:00Z</time>
      </trkpt>
      <trkpt lat="48.72984" lon="-3.44758">
        <ele>37</ele>
        <time>2015-01-04T10:26:01Z</time>
      </trkpt>
      <trkpt lat="48.72985" lon="-3.44749">
        <ele>37</ele>
        <time>2015-01-04T10:26:02Z</time>
      </trkpt>
      <trkpt lat="48.72986" lon="-3.4474">
        <ele>37</ele>
        <time>2015-01-04T10:26:03Z</time>
      </trkpt>
      <trkpt lat="48.72987" lon="-3.44731">
        <ele>37</ele>
        <time>2015-01-04T10:26:04Z</time>
      </trkpt>
      <trkpt lat="48.72988" lon="-3.44722">
        <ele>37</ele>
        <time>2015-01-04T10:26:05Z</time>
      </trkpt>
      <trkpt lat="48.72989" lon="-3.44713">
        <ele>37</ele>
        <time>2015-01-04T10:26:06Z</time>
      </trkpt>
      <trkpt lat="48.7299" lon="-3.44705">
        <ele>37</ele>
        <time>2015-01-04T10:26:07Z</time>
      </trkpt>
      <trkpt lat="48.7299" lon="-3.44696">
        <ele>37</ele>
        <time>2015-01-04T10:26:08Z</time>
      </trkpt>
      <trkpt lat="48.72992" lon="-3.44687">
        <ele>37</ele>
        <time>2015-01-04T10:26:09Z</time>
      </trkpt>
      <trkpt lat="48.72992" lon="-3.44678">
        <ele>37</ele>
        <time>2015-01-04T10:26:10Z</time>
      </trkpt>
      <trkpt lat="48.72993" lon="-3.4467">
        <ele>37</ele>
        <time>2015-01-04T10:26:11Z</time>
      </trkpt>
      <trkpt lat="48.72994" lon="-3.44662">
        <ele>38</ele>
        <time>2015-01-04T10:26:12Z</time>
      </trkpt>
      <trkpt lat="48.72995" lon="-3.44654">
        <ele>38</ele>
        <time>2015-01-04T10:26:13Z</time>
      </trkpt>
      <trkpt lat="48.72995" lon="-3.44647">
        <ele>38</ele>
        <time>2015-01-04T10:26:14Z</time>
      </trkpt>
      <trkpt lat="48.72996" lon="-3.4464">
        <ele>38</ele>
        <time>2015-01-04T10:26:15Z</time>
      </trkpt>
      <trkpt lat="48.72995" lon="-3.44627">
        <ele>38</ele>
        <time>2015-01-04T10:26:17Z</time>
      </trkpt>
      <trkpt lat="48.72993" lon="-3.4462">
        <ele>38</ele>
        <time>2015-01-04T10:26:18Z</time>
      </trkpt>
      <trkpt lat="48.72993" lon="-3.44615">
        <ele>38</ele>
        <time>2015-01-04T10:26:19Z</time>
      </trkpt>
      <trkpt lat="48.72994" lon="-3.44609">
        <ele>38</ele>
        <time>2015-01-04T10:26:20Z</time>
      </trkpt>
      <trkpt lat="48.72996" lon="-3.44605">
        <ele>38</ele>
        <time>2015-01-04T10:26:21Z</time>
      </trkpt>
      <trkpt lat="48.73" lon="-3.44602">
        <ele>38</ele>
        <time>2015-01-04T10:26:22Z</time>
      </trkpt>
      <trkpt lat="48.73004" lon="-3.44603">
        <ele>38</ele>
        <time>2015-01-04T10:26:23Z</time>
      </trkpt>
      <trkpt lat="48.73009" lon="-3.44605">
        <ele>38</ele>
        <time>2015-01-04T10:26:24Z</time>
      </trkpt>
      <trkpt lat="48.73014" lon="-3.44608">
        <ele>38</ele>
        <time>2015-01-04T10:26:25Z</time>
      </trkpt>
      <trkpt lat="48.73019" lon="-3.44611">
        <ele>38</ele>
        <time>2015-01-04T10:26:26Z</time>
      </trkpt>
      <trkpt lat="48.73025" lon="-3.44614">
        <ele>38</ele>
        <time>2015-01-04T10:26:27Z</time>
      </trkpt>
      <trkpt lat="48.7303" lon="-3.44616">
        <ele>38</ele>
        <time>2015-01-04T10:26:28Z</time>
      </trkpt>
      <trkpt lat="48.73036" lon="-3.44619">
        <ele>38</ele>
        <time>2015-01-04T10:26:29Z</time>
      </trkpt>
      <trkpt lat="48.73042" lon="-3.44622">
        <ele>38</ele>
        <time>2015-01-04T10:26:30Z</time>
      </trkpt>
      <trkpt lat="48.73047" lon="-3.44625">
        <ele>38</ele>
        <time>2015-01-04T10:26:31Z</time>
      </trkpt>
      <trkpt lat="48.73053" lon="-3.44628">
        <ele>39</ele>
        <time>2015-01-04T10:26:32Z</time>
      </trkpt>
      <trkpt lat="48.73058" lon="-3.4463">
        <ele>39</ele>
        <time>2015-01-04T10:26:33Z</time>
      </trkpt>
      <trkpt lat="48.73064" lon="-3.44633">
        <ele>39</ele>
        <time>2015-01-04T10:26:34Z</time>
      </trkpt>
      <trkpt lat="48.73069" lon="-3.44636">
        <ele>39</ele>
        <time>2015-01-04T10:26:35Z</time>
      </trkpt>
      <trkpt lat="48.73075" lon="-3.44638">
        <ele>39</ele>
        <time>2015-01-04T10:26:36Z</time>
      </trkpt>
      <trkpt lat="48.7308" lon="-3.44641">
        <ele>39</ele>
        <time>2015-01-04T10:26:37Z</time>
      </trkpt>
      <trkpt lat="48.73085" lon="-3.44644">
        <ele>40</ele>
        <time>2015-01-04T10:26:38Z</time>
      </trkpt>
      <trkpt lat="48.7309" lon="-3.44646">
        <ele>40</ele>
        <time>2015-01-04T10:26:39Z</time>
      </trkpt>
      <trkpt lat="48.73095" lon="-3.44649">
        <ele>40</ele>
        <time>2015-01-04T10:26:40Z</time>
      </trkpt>
      <trkpt lat="48.73099" lon="-3.44651">
        <ele>40</ele>
        <time>2015-01-04T10:26:41Z</time>
      </trkpt>
      <trkpt lat="48.73104" lon="-3.44652">
        <ele>40</ele>
        <time>2015-01-04T10:26:42Z</time>
      </trkpt>
      <trkpt lat="48.73108" lon="-3.44653">
        <ele>40</ele>
        <time>2015-01-04T10:26:43Z</time>
      </trkpt>
      <trkpt lat="48.73113" lon="-3.44652">
        <ele>40</ele>
        <time>2015-01-04T10:26:44Z</time>
      </trkpt>
      <trkpt lat="48.73117" lon="-3.44649">
        <ele>41</ele>
        <time>2015-01-04T10:26:45Z</time>
      </trkpt>
      <trkpt lat="48.7312" lon="-3.44644">
        <ele>41</ele>
        <time>2015-01-04T10:26:46Z</time>
      </trkpt>
      <trkpt lat="48.73122" lon="-3.44637">
        <ele>41</ele>
        <time>2015-01-04T10:26:47Z</time>
      </trkpt>
      <trkpt lat="48.73124" lon="-3.44629">
        <ele>41</ele>
        <time>2015-01-04T10:26:48Z</time>
      </trkpt>
      <trkpt lat="48.73127" lon="-3.44621">
        <ele>41</ele>
        <time>2015-01-04T10:26:49Z</time>
      </trkpt>
      <trkpt lat="48.7313" lon="-3.44612">
        <ele>41</ele>
        <time>2015-01-04T10:26:50Z</time>
      </trkpt>
      <trkpt lat="48.73132" lon="-3.44603">
        <ele>41</ele>
        <time>2015-01-04T10:26:51Z</time>
      </trkpt>
      <trkpt lat="48.73135" lon="-3.44595">
        <ele>41</ele>
        <time>2015-01-04T10:26:52Z</time>
      </trkpt>
      <trkpt lat="48.73137" lon="-3.44585">
        <ele>41</ele>
        <time>2015-01-04T10:26:53Z</time>
      </trkpt>
      <trkpt lat="48.73139" lon="-3.44577">
        <ele>41</ele>
        <time>2015-01-04T10:26:54Z</time>
      </trkpt>
      <trkpt lat="48.73141" lon="-3.44567">
        <ele>41</ele>
        <time>2015-01-04T10:26:55Z</time>
      </trkpt>
      <trkpt lat="48.73143" lon="-3.44558">
        <ele>41</ele>
        <time>2015-01-04T10:26:56Z</time>
      </trkpt>
      <trkpt lat="48.73145" lon="-3.44549">
        <ele>41</ele>
        <time>2015-01-04T10:26:57Z</time>
      </trkpt>
      <trkpt lat="48.73146" lon="-3.4454">
        <ele>41</ele>
        <time>2015-01-04T10:26:58Z</time>
      </trkpt>
      <trkpt lat="48.73148" lon="-3.4453">
        <ele>41</ele>
        <time>2015-01-04T10:26:59Z</time>
      </trkpt>
      <trkpt lat="48.7315" lon="-3.4452">
        <ele>41</ele>
        <time>2015-01-04T10:27:00Z</time>
      </trkpt>
      <trkpt lat="48.73152" lon="-3.44511">
        <ele>41</ele>
        <time>2015-01-04T10:27:01Z</time>
      </trkpt>
      <trkpt lat="48.73154" lon="-3.44501">
        <ele>41</ele>
        <time>2015-01-04T10:27:02Z</time>
      </trkpt>
      <trkpt lat="48.73156" lon="-3.44492">
        <ele>41</ele>
        <time>2015-01-04T10:27:03Z</time>
      </trkpt>
      <trkpt lat="48.73158" lon="-3.44482">
        <ele>41</ele>
        <time>2015-01-04T10:27:04Z</time>
      </trkpt>
      <trkpt lat="48.73161" lon="-3.44473">
        <ele>41</ele>
        <time>2015-01-04T10:27:05Z</time>
      </trkpt>
      <trkpt lat="48.73162" lon="-3.44464">
        <ele>41</ele>
        <time>2015-01-04T10:27:06Z</time>
      </trkpt>
      <trkpt lat="48.73164" lon="-3.44455">
        <ele>41</ele>
        <time>2015-01-04T10:27:07Z</time>
      </trkpt>
      <trkpt lat="48.73167" lon="-3.44446">
        <ele>41</ele>
        <time>2015-01-04T10:27:08Z</time>
      </trkpt>
      <trkpt lat="48.73169" lon="-3.44438">
        <ele>41</ele>
        <time>2015-01-04T10:27:09Z</time>
      </trkpt>
      <trkpt lat="48.73171" lon="-3.44429">
        <ele>41</ele>
        <time>2015-01-04T10:27:10Z</time>
      </trkpt>
      <trkpt lat="48.73173" lon="-3.44421">
        <ele>41</ele>
        <time>2015-01-04T10:27:11Z</time>
      </trkpt>
      <trkpt lat="48.73175" lon="-3.44413">
        <ele>41</ele>
        <time>2015-01-04T10:27:12Z</time>
      </trkpt>
      <trkpt lat="48.73178" lon="-3.44406">
        <ele>41</ele>
        <time>2015-01-04T10:27:13Z</time>
      </trkpt>
      <trkpt lat="48.7318" lon="-3.44399">
        <ele>41</ele>
        <time>2015-01-04T10:27:14Z</time>
      </trkpt>
      <trkpt lat="48.73183" lon="-3.44392">
        <ele>41</ele>
        <time>2015-01-04T10:27:15Z</time>
      </trkpt>
      <trkpt lat="48.73186" lon="-3.44386">
        <ele>41</ele>
        <time>2015-01-04T10:27:16Z</time>
      </trkpt>
      <trkpt lat="48.73188" lon="-3.44379">
        <ele>41</ele>
        <time>2015-01-04T10:27:17Z</time>
      </trkpt>
      <trkpt lat="48.7319" lon="-3.44371">
        <ele>41</ele>
        <time>2015-01-04T10:27:18Z</time>
      </trkpt>
      <trkpt lat="48.73192" lon="-3.44363">
        <ele>41</ele>
        <time>2015-01-04T10:27:19Z</time>
      </trkpt>
      <trkpt lat="48.73194" lon="-3.44354">
        <ele>41</ele>
        <time>2015-01-04T10:27:20Z</time>
      </trkpt>
      <trkpt lat="48.73196" lon="-3.44346">
        <ele>41</ele>
        <time>2015-01-04T10:27:21Z</time>
      </trkpt>
      <trkpt lat="48.73198" lon="-3.44337">
        <ele>41</ele>
        <time>2015-01-04T10:27:22Z</time>
      </trkpt>
      <trkpt lat="48.73199" lon="-3.44327">
        <ele>41</ele>
        <time>2015-01-04T10:27:23Z</time>
      </trkpt>
      <trkpt lat="48.73199" lon="-3.44307">
        <ele>41</ele>
        <time>2015-01-04T10:27:25Z</time>
      </trkpt>
      <trkpt lat="48.73199" lon="-3.44257">
        <ele>41</ele>
        <time>2015-01-04T10:27:30Z</time>
      </trkpt>
      <trkpt lat="48.73199" lon="-3.44237">
        <ele>41</ele>
        <time>2015-01-04T10:27:32Z</time>
      </trkpt>
      <trkpt lat="48.732" lon="-3.44227">
        <ele>41</ele>
        <time>2015-01-04T10:27:33Z</time>
      </trkpt>
      <trkpt lat="48.732" lon="-3.44208">
        <ele>41</ele>
        <time>2015-01-04T10:27:35Z</time>
      </trkpt>
      <trkpt lat="48.73201" lon="-3.442">
        <ele>41</ele>
        <time>2015-01-04T10:27:36Z</time>
      </trkpt>
      <trkpt lat="48.73201" lon="-3.44192">
        <ele>41</ele>
        <time>2015-01-04T10:27:37Z</time>
      </trkpt>
      <trkpt lat="48.73202" lon="-3.44185">
        <ele>41</ele>
        <time>2015-01-04T10:27:38Z</time>
      </trkpt>
      <trkpt lat="48.73202" lon="-3.44178">
        <ele>41</ele>
        <time>2015-01-04T10:27:39Z</time>
      </trkpt>
      <trkpt lat="48.73202" lon="-3.4417">
        <ele>41</ele>
        <time>2015-01-04T10:27:40Z</time>
      </trkpt>
      <trkpt lat="48.73201" lon="-3.44163">
        <ele>41</ele>
        <time>2015-01-04T10:27:41Z</time>
      </trkpt>
      <trkpt lat="48.73199" lon="-3.44157">
        <ele>41</ele>
        <time>2015-01-04T10:27:42Z</time>
      </trkpt>
      <trkpt lat="48.73198" lon="-3.4415">
        <ele>41</ele>
        <time>2015-01-04T10:27:43Z</time>
      </trkpt>
      <trkpt lat="48.73197" lon="-3.44143">
        <ele>41</ele>
        <time>2015-01-04T10:27:44Z</time>
      </trkpt>
      <trkpt lat="48.73199" lon="-3.44131">
        <ele>41</ele>
        <time>2015-01-04T10:27:46Z</time>
      </trkpt>
      <trkpt lat="48.73202" lon="-3.44127">
        <ele>41</ele>
        <time>2015-01-04T10:27:47Z</time>
      </trkpt>
      <trkpt lat="48.73207" lon="-3.44125">
        <ele>41</ele>
        <time>2015-01-04T10:27:48Z</time>
      </trkpt>
      <trkpt lat="48.73212" lon="-3.44124">
        <ele>41</ele>
        <time>2015-01-04T10:27:49Z</time>
      </trkpt>
      <trkpt lat="48.73217" lon="-3.44122">
        <ele>41</ele>
        <time>2015-01-04T10:27:50Z</time>
      </trkpt>
      <trkpt lat="48.73223" lon="-3.4412">
        <ele>41</ele>
        <time>2015-01-04T10:27:51Z</time>
      </trkpt>
      <trkpt lat="48.73228" lon="-3.44116">
        <ele>41</ele>
        <time>2015-01-04T10:27:52Z</time>
      </trkpt>
      <trkpt lat="48.73234" lon="-3.44111">
        <ele>41</ele>
        <time>2015-01-04T10:27:53Z</time>
      </trkpt>
      <trkpt lat="48.7324" lon="-3.44107">
        <ele>41</ele>
        <time>2015-01-04T10:27:54Z</time>
      </trkpt>
      <trkpt lat="48.73247" lon="-3.44102">
        <ele>41</ele>
        <time>2015-01-04T10:27:55Z</time>
      </trkpt>
      <trkpt lat="48.73253" lon="-3.44096">
        <ele>41</ele>
        <time>2015-01-04T10:27:56Z</time>
      </trkpt>
      <trkpt lat="48.73259" lon="-3.4409">
        <ele>41</ele>
        <time>2015-01-04T10:27:57Z</time>
      </trkpt>
      <trkpt lat="48.73266" lon="-3.44083">
        <ele>41</ele>
        <time>2015-01-04T10:27:58Z</time>
      </trkpt>
      <trkpt lat="48.73272" lon="-3.44076">
        <ele>41</ele>
        <time>2015-01-04T10:27:59Z</time>
      </trkpt>
      <trkpt lat="48.73279" lon="-3.44068">
        <ele>41</ele>
        <time>2015-01-04T10:28:00Z</time>
      </trkpt>
      <trkpt lat="48.73285" lon="-3.44059">
        <ele>41</ele>
        <time>2015-01-04T10:28:01Z</time>
      </trkpt>
      <trkpt lat="48.7329" lon="-3.4405">
        <ele>41</ele>
        <time>2015-01-04T10:28:02Z</time>
      </trkpt>
      <trkpt lat="48.73295" lon="-3.4404">
        <ele>41</ele>
        <time>2015-01-04T10:28:03Z</time>
      </trkpt>
      <trkpt lat="48.73299" lon="-3.4403">
        <ele>41</ele>
        <time>2015-01-04T10:28:04Z</time>
      </trkpt>
      <trkpt lat="48.73302" lon="-3.4402">
        <ele>41</ele>
        <time>2015-01-04T10:28:05Z</time>
      </trkpt>
      <trkpt lat="48.73306" lon="-3.4401">
        <ele>41</ele>
        <time>2015-01-04T10:28:06Z</time>
      </trkpt>
      <trkpt lat="48.73309" lon="-3.44">
        <ele>41</ele>
        <time>2015-01-04T10:28:07Z</time>
      </trkpt>
      <trkpt lat="48.73312" lon="-3.43991">
        <ele>41</ele>
        <time>2015-01-04T10:28:08Z</time>
      </trkpt>
      <trkpt lat="48.73315" lon="-3.43981">
        <ele>41</ele>
        <time>2015-01-04T10:28:09Z</time>
      </trkpt>
      <trkpt lat="48.73318" lon="-3.43972">
        <ele>41</ele>
        <time>2015-01-04T10:28:10Z</time>
      </trkpt>
      <trkpt lat="48.73321" lon="-3.43963">
        <ele>41</ele>
        <time>2015-01-04T10:28:11Z</time>
      </trkpt>
      <trkpt lat="48.73323" lon="-3.43954">
        <ele>41</ele>
        <time>2015-01-04T10:28:12Z</time>
      </trkpt>
      <trkpt lat="48.73325" lon="-3.43945">
        <ele>41</ele>
        <time>2015-01-04T10:28:13Z</time>
      </trkpt>
      <trkpt lat="48.73327" lon="-3.43937">
        <ele>41</ele>
        <time>2015-01-04T10:28:14Z</time>
      </trkpt>
      <trkpt lat="48.73328" lon="-3.43929">
        <ele>41</ele>
        <time>2015-01-04T10:28:15Z</time>
      </trkpt>
      <trkpt lat="48.73329" lon="-3.43921">
        <ele>41</ele>
        <time>2015-01-04T10:28:16Z</time>
      </trkpt>
      <trkpt lat="48.73332" lon="-3.43914">
        <ele>41</ele>
        <time>2015-01-04T10:28:17Z</time>
      </trkpt>
      <trkpt lat="48.73335" lon="-3.43908">
        <ele>41</ele>
        <time>2015-01-04T10:28:18Z</time>
      </trkpt>
      <trkpt lat="48.73339" lon="-3.43904">
        <ele>41</ele>
        <time>2015-01-04T10:28:19Z</time>
      </trkpt>
      <trkpt lat="48.73343" lon="-3.439">
        <ele>41</ele>
        <time>2015-01-04T10:28:20Z</time>
      </trkpt>
      <trkpt lat="48.73348" lon="-3.43898">
        <ele>41</ele>
        <time>2015-01-04T10:28:21Z</time>
      </trkpt>
      <trkpt lat="48.73353" lon="-3.43897">
        <ele>41</ele>
        <time>2015-01-04T10:28:22Z</time>
      </trkpt>
      <trkpt lat="48.73359" lon="-3.43898">
        <ele>41</ele>
        <time>2015-01-04T10:28:23Z</time>
      </trkpt>
      <trkpt lat="48.73364" lon="-3.43901">
        <ele>41</ele>
        <time>2015-01-04T10:28:24Z</time>
      </trkpt>
      <trkpt lat="48.73368" lon="-3.43905">
        <ele>41</ele>
        <time>2015-01-04T10:28:25Z</time>
      </trkpt>
      <trkpt lat="48.73373" lon="-3.43911">
        <ele>41</ele>
        <time>2015-01-04T10:28:26Z</time>
      </trkpt>
      <trkpt lat="48.73377" lon="-3.43917">
        <ele>41</ele>
        <time>2015-01-04T10:28:27Z</time>
      </trkpt>
      <trkpt lat="48.7338" lon="-3.43923">
        <ele>41</ele>
        <time>2015-01-04T10:28:28Z</time>
      </trkpt>
      <trkpt lat="48.73384" lon="-3.43929">
        <ele>41</ele>
        <time>2015-01-04T10:28:29Z</time>
      </trkpt>
      <trkpt lat="48.73387" lon="-3.43935">
        <ele>41</ele>
        <time>2015-01-04T10:28:30Z</time>
      </trkpt>
      <trkpt lat="48.7339" lon="-3.43941">
        <ele>41</ele>
        <time>2015-01-04T10:28:31Z</time>
      </trkpt>
      <trkpt lat="48.73394" lon="-3.43945">
        <ele>41</ele>
        <time>2015-01-04T10:28:32Z</time>
      </trkpt>
      <trkpt lat="48.73398" lon="-3.43947">
        <ele>41</ele>
        <time>2015-01-04T10:28:33Z</time>
      </trkpt>
      <trkpt lat="48.73403" lon="-3.43946">
        <ele>41</ele>
        <time>2015-01-04T10:28:34Z</time>
      </trkpt>
      <trkpt lat="48.73407" lon="-3.43944">
        <ele>41</ele>
        <time>2015-01-04T10:28:35Z</time>
      </trkpt>
      <trkpt lat="48.73411" lon="-3.4394">
        <ele>41</ele>
        <time>2015-01-04T10:28:36Z</time>
      </trkpt>
      <trkpt lat="48.73415" lon="-3.43937">
        <ele>41</ele>
        <time>2015-01-04T10:28:37Z</time>
      </trkpt>
      <trkpt lat="48.7342" lon="-3.43934">
        <ele>41</ele>
        <time>2015-01-04T10:28:38Z</time>
      </trkpt>
      <trkpt lat="48.73425" lon="-3.43932">
        <ele>41</ele>
        <time>2015-01-04T10:28:39Z</time>
      </trkpt>
      <trkpt lat="48.73428" lon="-3.43932">
        <ele>41</ele>
        <time>2015-01-04T10:28:40Z</time>
      </trkpt>
      <trkpt lat="48.7343" lon="-3.43931">
        <ele>41</ele>
        <time>2015-01-04T10:28:41Z</time>
      </trkpt>
      <trkpt lat="48.73432" lon="-3.4393">
        <ele>41</ele>
        <time>2015-01-04T10:28:42Z</time>
      </trkpt>
      <trkpt lat="48.73434" lon="-3.43927">
        <ele>41</ele>
        <time>2015-01-04T10:28:43Z</time>
      </trkpt>
      <trkpt lat="48.73436" lon="-3.43922">
        <ele>41</ele>
        <time>2015-01-04T10:28:44Z</time>
      </trkpt>
      <trkpt lat="48.73437" lon="-3.43916">
        <ele>41</ele>
        <time>2015-01-04T10:28:45Z</time>
      </trkpt>
      <trkpt lat="48.73438" lon="-3.4391">
        <ele>41</ele>
        <time>2015-01-04T10:28:46Z</time>
      </trkpt>
      <trkpt lat="48.73438" lon="-3.43902">
        <ele>41</ele>
        <time>2015-01-04T10:28:47Z</time>
      </trkpt>
      <trkpt lat="48.73437" lon="-3.43887">
        <ele>41</ele>
        <time>2015-01-04T10:28:49Z</time>
      </trkpt>
      <trkpt lat="48.73439" lon="-3.43871">
        <ele>41</ele>
        <time>2015-01-04T10:28:51Z</time>
      </trkpt>
      <trkpt lat="48.73441" lon="-3.43863">
        <ele>41</ele>
        <time>2015-01-04T10:28:52Z</time>
      </trkpt>
      <trkpt lat="48.73445" lon="-3.43856">
        <ele>41</ele>
        <time>2015-01-04T10:28:53Z</time>
      </trkpt>
      <trkpt lat="48.7345" lon="-3.4385">
        <ele>41</ele>
        <time>2015-01-04T10:28:54Z</time>
      </trkpt>
      <trkpt lat="48.73454" lon="-3.43845">
        <ele>41</ele>
        <time>2015-01-04T10:28:55Z</time>
      </trkpt>
      <trkpt lat="48.73458" lon="-3.43839">
        <ele>41</ele>
        <time>2015-01-04T10:28:56Z</time>
      </trkpt>
      <trkpt lat="48.73461" lon="-3.43832">
        <ele>41</ele>
        <time>2015-01-04T10:28:57Z</time>
      </trkpt>
      <trkpt lat="48.73463" lon="-3.43825">
        <ele>41</ele>
        <time>2015-01-04T10:28:58Z</time>
      </trkpt>
      <trkpt lat="48.73466" lon="-3.43818">
        <ele>41</ele>
        <time>2015-01-04T10:28:59Z</time>
      </trkpt>
      <trkpt lat="48.73469" lon="-3.43811">
        <ele>41</ele>
        <time>2015-01-04T10:29:00Z</time>
      </trkpt>
      <trkpt lat="48.73472" lon="-3.43805">
        <ele>41</ele>
        <time>2015-01-04T10:29:01Z</time>
      </trkpt>
      <trkpt lat="48.73475" lon="-3.43798">
        <ele>41</ele>
        <time>2015-01-04T10:29:02Z</time>
      </trkpt>
      <trkpt lat="48.73478" lon="-3.43791">
        <ele>41</ele>
        <time>2015-01-04T10:29:03Z</time>
      </trkpt>
      <trkpt lat="48.73481" lon="-3.43784">
        <ele>41</ele>
        <time>2015-01-04T10:29:04Z</time>
      </trkpt>
      <trkpt lat="48.73484" lon="-3.43777">
        <ele>42</ele>
        <time>2015-01-04T10:29:05Z</time>
      </trkpt>
      <trkpt lat="48.73487" lon="-3.4377">
        <ele>42</ele>
        <time>2015-01-04T10:29:06Z</time>
      </trkpt>
      <trkpt lat="48.7349" lon="-3.43764">
        <ele>42</ele>
        <time>2015-01-04T10:29:07Z</time>
      </trkpt>
      <trkpt lat="48.73493" lon="-3.43758">
        <ele>42</ele>
        <time>2015-01-04T10:29:08Z</time>
      </trkpt>
      <trkpt lat="48.73496" lon="-3.43751">
        <ele>43</ele>
        <time>2015-01-04T10:29:09Z</time>
      </trkpt>
      <trkpt lat="48.73499" lon="-3.43744">
        <ele>43</ele>
        <time>2015-01-04T10:29:10Z</time>
      </trkpt>
      <trkpt lat="48.73501" lon="-3.43737">
        <ele>43</ele>
        <time>2015-01-04T10:29:11Z</time>
      </trkpt>
      <trkpt lat="48.73502" lon="-3.43729">
        <ele>43</ele>
        <time>2015-01-04T10:29:12Z</time>
      </trkpt>
      <trkpt lat="48.73501" lon="-3.43712">
        <ele>43</ele>
        <time>2015-01-04T10:29:14Z</time>
      </trkpt>
      <trkpt lat="48.735" lon="-3.43703">
        <ele>43</ele>
        <time>2015-01-04T10:29:15Z</time>
      </trkpt>
      <trkpt lat="48.73499" lon="-3.43695">
        <ele>43</ele>
        <time>2015-01-04T10:29:16Z</time>
      </trkpt>
      <trkpt lat="48.73498" lon="-3.43686">
        <ele>44</ele>
        <time>2015-01-04T10:29:17Z</time>
      </trkpt>
      <trkpt lat="48.73499" lon="-3.43678">
        <ele>44</ele>
        <time>2015-01-04T10:29:18Z</time>
      </trkpt>
      <trkpt lat="48.73501" lon="-3.4367">
        <ele>44</ele>
        <time>2015-01-04T10:29:19Z</time>
      </trkpt>
      <trkpt lat="48.73504" lon="-3.43662">
        <ele>44</ele>
        <time>2015-01-04T10:29:20Z</time>
      </trkpt>
      <trkpt lat="48.73507" lon="-3.43654">
        <ele>44</ele>
        <time>2015-01-04T10:29:21Z</time>
      </trkpt>
      <trkpt lat="48.73508" lon="-3.43646">
        <ele>44</ele>
        <time>2015-01-04T10:29:22Z</time>
      </trkpt>
      <trkpt lat="48.73507" lon="-3.43637">
        <ele>44</ele>
        <time>2015-01-04T10:29:23Z</time>
      </trkpt>
      <trkpt lat="48.73504" lon="-3.43631">
        <ele>44</ele>
        <time>2015-01-04T10:29:24Z</time>
      </trkpt>
      <trkpt lat="48.73499" lon="-3.43626">
        <ele>44</ele>
        <time>2015-01-04T10:29:25Z</time>
      </trkpt>
      <trkpt lat="48.73494" lon="-3.43623">
        <ele>44</ele>
        <time>2015-01-04T10:29:26Z</time>
      </trkpt>
      <trkpt lat="48.73488" lon="-3.43621">
        <ele>44</ele>
        <time>2015-01-04T10:29:27Z</time>
      </trkpt>
      <trkpt lat="48.73482" lon="-3.4362">
        <ele>44</ele>
        <time>2015-01-04T10:29:28Z</time>
      </trkpt>
      <trkpt lat="48.73476" lon="-3.43618">
        <ele>44</ele>
        <time>2015-01-04T10:29:29Z</time>
      </trkpt>
      <trkpt lat="48.7347" lon="-3.43615">
        <ele>45</ele>
        <time>2015-01-04T10:29:30Z</time>
      </trkpt>
      <trkpt lat="48.73464" lon="-3.43611">
        <ele>45</ele>
        <time>2015-01-04T10:29:31Z</time>
      </trkpt>
      <trkpt lat="48.73459" lon="-3.43605">
        <ele>45</ele>
        <time>2015-01-04T10:29:32Z</time>
      </trkpt>
      <trkpt lat="48.73454" lon="-3.43599">
        <ele>45</ele>
        <time>2015-01-04T10:29:33Z</time>
      </trkpt>
      <trkpt lat="48.73449" lon="-3.43593">
        <ele>45</ele>
        <time>2015-01-04T10:29:34Z</time>
      </trkpt>
      <trkpt lat="48.73444" lon="-3.43586">
        <ele>46</ele>
        <time>2015-01-04T10:29:35Z</time>
      </trkpt>
      <trkpt lat="48.7344" lon="-3.43579">
        <ele>46</ele>
        <time>2015-01-04T10:29:36Z</time>
      </trkpt>
      <trkpt lat="48.73436" lon="-3.43572">
        <ele>46</ele>
        <time>2015-01-04T10:29:37Z</time>
      </trkpt>
      <trkpt lat="48.73433" lon="-3.43564">
        <ele>46</ele>
        <time>2015-01-04T10:29:38Z</time>
      </trkpt>
      <trkpt lat="48.73429" lon="-3.43557">
        <ele>46</ele>
        <time>2015-01-04T10:29:39Z</time>
      </trkpt>
      <trkpt lat="48.73426" lon="-3.43548">
        <ele>47</ele>
        <time>2015-01-04T10:29:40Z</time>
      </trkpt>
      <trkpt lat="48.73423" lon="-3.4354">
        <ele>47</ele>
        <time>2015-01-04T10:29:41Z</time>
      </trkpt>
      <trkpt lat="48.73421" lon="-3.43531">
        <ele>47</ele>
        <time>2015-01-04T10:29:42Z</time>
      </trkpt>
      <trkpt lat="48.7342" lon="-3.43522">
        <ele>47</ele>
        <time>2015-01-04T10:29:43Z</time>
      </trkpt>
      <trkpt lat="48.73418" lon="-3.43512">
        <ele>47</ele>
        <time>2015-01-04T10:29:44Z</time>
      </trkpt>
      <trkpt lat="48.73417" lon="-3.43502">
        <ele>48</ele>
        <time>2015-01-04T10:29:45Z</time>
      </trkpt>
      <trkpt lat="48.73416" lon="-3.43492">
        <ele>48</ele>
        <time>2015-01-04T10:29:46Z</time>
      </trkpt>
      <trkpt lat="48.73414" lon="-3.43482">
        <ele>48</ele>
        <time>2015-01-04T10:29:47Z</time>
      </trkpt>
      <trkpt lat="48.73413" lon="-3.43473">
        <ele>48</ele>
        <time>2015-01-04T10:29:48Z</time>
      </trkpt>
      <trkpt lat="48.73412" lon="-3.43463">
        <ele>48</ele>
        <time>2015-01-04T10:29:49Z</time>
      </trkpt>
      <trkpt lat="48.73411" lon="-3.43453">
        <ele>48</ele>
        <time>2015-01-04T10:29:50Z</time>
      </trkpt>
      <trkpt lat="48.7341" lon="-3.43444">
        <ele>48</ele>
        <time>2015-01-04T10:29:51Z</time>
      </trkpt>
      <trkpt lat="48.73409" lon="-3.43434">
        <ele>49</ele>
        <time>2015-01-04T10:29:52Z</time>
      </trkpt>
      <trkpt lat="48.73407" lon="-3.43425">
        <ele>49</ele>
        <time>2015-01-04T10:29:53Z</time>
      </trkpt>
      <trkpt lat="48.73407" lon="-3.43417">
        <ele>49</ele>
        <time>2015-01-04T10:29:54Z</time>
      </trkpt>
      <trkpt lat="48.73406" lon="-3.43408">
        <ele>49</ele>
        <time>2015-01-04T10:29:55Z</time>
      </trkpt>
      <trkpt lat="48.73406" lon="-3.434">
        <ele>50</ele>
        <time>2015-01-04T10:29:56Z</time>
      </trkpt>
      <trkpt lat="48.73405" lon="-3.43391">
        <ele>50</ele>
        <time>2015-01-04T10:29:57Z</time>
      </trkpt>
      <trkpt lat="48.73404" lon="-3.43383">
        <ele>50</ele>
        <time>2015-01-04T10:29:58Z</time>
      </trkpt>
      <trkpt lat="48.73404" lon="-3.43375">
        <ele>50</ele>
        <time>2015-01-04T10:29:59Z</time>
      </trkpt>
      <trkpt lat="48.73402" lon="-3.43368">
        <ele>50</ele>
        <time>2015-01-04T10:30:00Z</time>
      </trkpt>
      <trkpt lat="48.73402" lon="-3.4336">
        <ele>51</ele>
        <time>2015-01-04T10:30:01Z</time>
      </trkpt>
      <trkpt lat="48.73401" lon="-3.43353">
        <ele>51</ele>
        <time>2015-01-04T10:30:02Z</time>
      </trkpt>
      <trkpt lat="48.734" lon="-3.43346">
        <ele>51</ele>
        <time>2015-01-04T10:30:03Z</time>
      </trkpt>
      <trkpt lat="48.73399" lon="-3.43338">
        <ele>51</ele>
        <time>2015-01-04T10:30:04Z</time>
      </trkpt>
      <trkpt lat="48.73397" lon="-3.43331">
        <ele>52</ele>
        <time>2015-01-04T10:30:05Z</time>
      </trkpt>
      <trkpt lat="48.73396" lon="-3.43324">
        <ele>52</ele>
        <time>2015-01-04T10:30:06Z</time>
      </trkpt>
      <trkpt lat="48.73394" lon="-3.43318">
        <ele>52</ele>
        <time>2015-01-04T10:30:07Z</time>
      </trkpt>
      <trkpt lat="48.73393" lon="-3.43311">
        <ele>52</ele>
        <time>2015-01-04T10:30:08Z</time>
      </trkpt>
      <trkpt lat="48.73392" lon="-3.43304">
        <ele>52</ele>
        <time>2015-01-04T10:30:09Z</time>
      </trkpt>
      <trkpt lat="48.73392" lon="-3.43298">
        <ele>53</ele>
        <time>2015-01-04T10:30:10Z</time>
      </trkpt>
      <trkpt lat="48.73392" lon="-3.43284">
        <ele>53</ele>
        <time>2015-01-04T10:30:12Z</time>
      </trkpt>
      <trkpt lat="48.73391" lon="-3.43277">
        <ele>53</ele>
        <time>2015-01-04T10:30:13Z</time>
      </trkpt>
      <trkpt lat="48.7339" lon="-3.43269">
        <ele>54</ele>
        <time>2015-01-04T10:30:14Z</time>
      </trkpt>
      <trkpt lat="48.73389" lon="-3.43263">
        <ele>54</ele>
        <time>2015-01-04T10:30:15Z</time>
      </trkpt>
      <trkpt lat="48.73389" lon="-3.43255">
        <ele>54</ele>
        <time>2015-01-04T10:30:16Z</time>
      </trkpt>
      <trkpt lat="48.73388" lon="-3.43248">
        <ele>54</ele>
        <time>2015-01-04T10:30:17Z</time>
      </trkpt>
      <trkpt lat="48.73388" lon="-3.4324">
        <ele>55</ele>
        <time>2015-01-04T10:30:18Z</time>
      </trkpt>
      <trkpt lat="48.73387" lon="-3.43232">
        <ele>55</ele>
        <time>2015-01-04T10:30:19Z</time>
      </trkpt>
      <trkpt lat="48.73386" lon="-3.43225">
        <ele>55</ele>
        <time>2015-01-04T10:30:20Z</time>
      </trkpt>
      <trkpt lat="48.73386" lon="-3.43217">
        <ele>56</ele>
        <time>2015-01-04T10:30:21Z</time>
      </trkpt>
      <trkpt lat="48.73386" lon="-3.43209">
        <ele>56</ele>
        <time>2015-01-04T10:30:22Z</time>
      </trkpt>
      <trkpt lat="48.73385" lon="-3.43194">
        <ele>57</ele>
        <time>2015-01-04T10:30:24Z</time>
      </trkpt>
      <trkpt lat="48.73385" lon="-3.43187">
        <ele>57</ele>
        <time>2015-01-04T10:30:25Z</time>
      </trkpt>
      <trkpt lat="48.73385" lon="-3.43133">
        <ele>59</ele>
        <time>2015-01-04T10:30:32Z</time>
      </trkpt>
      <trkpt lat="48.73386" lon="-3.43125">
        <ele>59</ele>
        <time>2015-01-04T10:30:33Z</time>
      </trkpt>
      <trkpt lat="48.73386" lon="-3.4311">
        <ele>60</ele>
        <time>2015-01-04T10:30:35Z</time>
      </trkpt>
      <trkpt lat="48.73386" lon="-3.43103">
        <ele>60</ele>
        <time>2015-01-04T10:30:36Z</time>
      </trkpt>
      <trkpt lat="48.73387" lon="-3.43096">
        <ele>60</ele>
        <time>2015-01-04T10:30:37Z</time>
      </trkpt>
      <trkpt lat="48.73387" lon="-3.43089">
        <ele>60</ele>
        <time>2015-01-04T10:30:38Z</time>
      </trkpt>
      <trkpt lat="48.73388" lon="-3.43074">
        <ele>61</ele>
        <time>2015-01-04T10:30:40Z</time>
      </trkpt>
      <trkpt lat="48.73388" lon="-3.43067">
        <ele>61</ele>
        <time>2015-01-04T10:30:41Z</time>
      </trkpt>
      <trkpt lat="48.73389" lon="-3.4306">
        <ele>61</ele>
        <time>2015-01-04T10:30:42Z</time>
      </trkpt>
      <trkpt lat="48.73389" lon="-3.43052">
        <ele>61</ele>
        <time>2015-01-04T10:30:43Z</time>
      </trkpt>
      <trkpt lat="48.73389" lon="-3.43037">
        <ele>61</ele>
        <time>2015-01-04T10:30:45Z</time>
      </trkpt>
      <trkpt lat="48.73389" lon="-3.43021">
        <ele>62</ele>
        <time>2015-01-04T10:30:47Z</time>
      </trkpt>
      <trkpt lat="48.73389" lon="-3.43012">
        <ele>62</ele>
        <time>2015-01-04T10:30:48Z</time>
      </trkpt>
      <trkpt lat="48.73388" lon="-3.42997">
        <ele>62</ele>
        <time>2015-01-04T10:30:50Z</time>
      </trkpt>
      <trkpt lat="48.73388" lon="-3.42989">
        <ele>62</ele>
        <time>2015-01-04T10:30:51Z</time>
      </trkpt>
      <trkpt lat="48.73387" lon="-3.42981">
        <ele>62</ele>
        <time>2015-01-04T10:30:52Z</time>
      </trkpt>
      <trkpt lat="48.73386" lon="-3.42974">
        <ele>62</ele>
        <time>2015-01-04T10:30:53Z</time>
      </trkpt>
      <trkpt lat="48.73385" lon="-3.42967">
        <ele>62</ele>
        <time>2015-01-04T10:30:54Z</time>
      </trkpt>
      <trkpt lat="48.73384" lon="-3.4296">
        <ele>62</ele>
        <time>2015-01-04T10:30:55Z</time>
      </trkpt>
      <trkpt lat="48.73383" lon="-3.42952">
        <ele>63</ele>
        <time>2015-01-04T10:30:56Z</time>
      </trkpt>
      <trkpt lat="48.73382" lon="-3.42945">
        <ele>63</ele>
        <time>2015-01-04T10:30:57Z</time>
      </trkpt>
      <trkpt lat="48.73381" lon="-3.42938">
        <ele>63</ele>
        <time>2015-01-04T10:30:58Z</time>
      </trkpt>
      <trkpt lat="48.73379" lon="-3.42931">
        <ele>63</ele>
        <time>2015-01-04T10:30:59Z</time>
      </trkpt>
      <trkpt lat="48.73378" lon="-3.42924">
        <ele>63</ele>
        <time>2015-01-04T10:31:00Z</time>
      </trkpt>
      <trkpt lat="48.73377" lon="-3.42917">
        <ele>63</ele>
        <time>2015-01-04T10:31:01Z</time>
      </trkpt>
      <trkpt lat="48.73375" lon="-3.42911">
        <ele>63</ele>
        <time>2015-01-04T10:31:02Z</time>
      </trkpt>
      <trkpt lat="48.73374" lon="-3.42904">
        <ele>63</ele>
        <time>2015-01-04T10:31:03Z</time>
      </trkpt>
      <trkpt lat="48.73373" lon="-3.42897">
        <ele>63</ele>
        <time>2015-01-04T10:31:04Z</time>
      </trkpt>
      <trkpt lat="48.73372" lon="-3.4289">
        <ele>63</ele>
        <time>2015-01-04T10:31:05Z</time>
      </trkpt>
      <trkpt lat="48.73372" lon="-3.42882">
        <ele>63</ele>
        <time>2015-01-04T10:31:06Z</time>
      </trkpt>
      <trkpt lat="48.7337" lon="-3.42875">
        <ele>63</ele>
        <time>2015-01-04T10:31:07Z</time>
      </trkpt>
      <trkpt lat="48.73369" lon="-3.42867">
        <ele>63</ele>
        <time>2015-01-04T10:31:08Z</time>
      </trkpt>
      <trkpt lat="48.73368" lon="-3.4286">
        <ele>63</ele>
        <time>2015-01-04T10:31:09Z</time>
      </trkpt>
      <trkpt lat="48.73368" lon="-3.42852">
        <ele>63</ele>
        <time>2015-01-04T10:31:10Z</time>
      </trkpt>
      <trkpt lat="48.73367" lon="-3.42844">
        <ele>63</ele>
        <time>2015-01-04T10:31:11Z</time>
      </trkpt>
      <trkpt lat="48.73367" lon="-3.42835">
        <ele>63</ele>
        <time>2015-01-04T10:31:12Z</time>
      </trkpt>
      <trkpt lat="48.73365" lon="-3.42826">
        <ele>63</ele>
        <time>2015-01-04T10:31:13Z</time>
      </trkpt>
      <trkpt lat="48.73364" lon="-3.42817">
        <ele>63</ele>
        <time>2015-01-04T10:31:14Z</time>
      </trkpt>
      <trkpt lat="48.73363" lon="-3.42808">
        <ele>63</ele>
        <time>2015-01-04T10:31:15Z</time>
      </trkpt>
      <trkpt lat="48.73362" lon="-3.42799">
        <ele>63</ele>
        <time>2015-01-04T10:31:16Z</time>
      </trkpt>
      <trkpt lat="48.73361" lon="-3.4279">
        <ele>63</ele>
        <time>2015-01-04T10:31:17Z</time>
      </trkpt>
      <trkpt lat="48.73361" lon="-3.4278">
        <ele>63</ele>
        <time>2015-01-04T10:31:18Z</time>
      </trkpt>
      <trkpt lat="48.7336" lon="-3.4276">
        <ele>63</ele>
        <time>2015-01-04T10:31:20Z</time>
      </trkpt>
      <trkpt lat="48.7336" lon="-3.4275">
        <ele>63</ele>
        <time>2015-01-04T10:31:21Z</time>
      </trkpt>
      <trkpt lat="48.73359" lon="-3.4274">
        <ele>63</ele>
        <time>2015-01-04T10:31:22Z</time>
      </trkpt>
      <trkpt lat="48.73358" lon="-3.4273">
        <ele>63</ele>
        <time>2015-01-04T10:31:23Z</time>
      </trkpt>
      <trkpt lat="48.73357" lon="-3.4272">
        <ele>63</ele>
        <time>2015-01-04T10:31:24Z</time>
      </trkpt>
      <trkpt lat="48.73357" lon="-3.42711">
        <ele>63</ele>
        <time>2015-01-04T10:31:25Z</time>
      </trkpt>
      <trkpt lat="48.73356" lon="-3.42692">
        <ele>63</ele>
        <time>2015-01-04T10:31:27Z</time>
      </trkpt>
      <trkpt lat="48.73355" lon="-3.42683">
        <ele>63</ele>
        <time>2015-01-04T10:31:28Z</time>
      </trkpt>
      <trkpt lat="48.73355" lon="-3.42674">
        <ele>63</ele>
        <time>2015-01-04T10:31:29Z</time>
      </trkpt>
      <trkpt lat="48.73354" lon="-3.42665">
        <ele>63</ele>
        <time>2015-01-04T10:31:30Z</time>
      </trkpt>
      <trkpt lat="48.73353" lon="-3.42656">
        <ele>63</ele>
        <time>2015-01-04T10:31:31Z</time>
      </trkpt>
      <trkpt lat="48.73352" lon="-3.42648">
        <ele>63</ele>
        <time>2015-01-04T10:31:32Z</time>
      </trkpt>
      <trkpt lat="48.73352" lon="-3.4264">
        <ele>63</ele>
        <time>2015-01-04T10:31:33Z</time>
      </trkpt>
      <trkpt lat="48.73351" lon="-3.42632">
        <ele>63</ele>
        <time>2015-01-04T10:31:34Z</time>
      </trkpt>
      <trkpt lat="48.73349" lon="-3.42625">
        <ele>63</ele>
        <time>2015-01-04T10:31:35Z</time>
      </trkpt>
      <trkpt lat="48.73349" lon="-3.42618">
        <ele>63</ele>
        <time>2015-01-04T10:31:36Z</time>
      </trkpt>
      <trkpt lat="48.73348" lon="-3.42611">
        <ele>63</ele>
        <time>2015-01-04T10:31:37Z</time>
      </trkpt>
      <trkpt lat="48.73347" lon="-3.42603">
        <ele>63</ele>
        <time>2015-01-04T10:31:38Z</time>
      </trkpt>
      <trkpt lat="48.73347" lon="-3.42596">
        <ele>63</ele>
        <time>2015-01-04T10:31:39Z</time>
      </trkpt>
      <trkpt lat="48.73346" lon="-3.42589">
        <ele>63</ele>
        <time>2015-01-04T10:31:40Z</time>
      </trkpt>
      <trkpt lat="48.73346" lon="-3.42582">
        <ele>63</ele>
        <time>2015-01-04T10:31:41Z</time>
      </trkpt>
      <trkpt lat="48.73345" lon="-3.42575">
        <ele>63</ele>
        <time>2015-01-04T10:31:42Z</time>
      </trkpt>
      <trkpt lat="48.73344" lon="-3.42568">
        <ele>63</ele>
        <time>2015-01-04T10:31:43Z</time>
      </trkpt>
      <trkpt lat="48.73344" lon="-3.42561">
        <ele>63</ele>
        <time>2015-01-04T10:31:44Z</time>
      </trkpt>
      <trkpt lat="48.73343" lon="-3.42554">
        <ele>63</ele>
        <time>2015-01-04T10:31:45Z</time>
      </trkpt>
      <trkpt lat="48.73342" lon="-3.42547">
        <ele>63</ele>
        <time>2015-01-04T10:31:46Z</time>
      </trkpt>
      <trkpt lat="48.73341" lon="-3.42539">
        <ele>63</ele>
        <time>2015-01-04T10:31:47Z</time>
      </trkpt>
      <trkpt lat="48.73341" lon="-3.42525">
        <ele>63</ele>
        <time>2015-01-04T10:31:49Z</time>
      </trkpt>
      <trkpt lat="48.73341" lon="-3.42517">
        <ele>63</ele>
        <time>2015-01-04T10:31:50Z</time>
      </trkpt>
      <trkpt lat="48.7334" lon="-3.42495">
        <ele>63</ele>
        <time>2015-01-04T10:31:53Z</time>
      </trkpt>
      <trkpt lat="48.7334" lon="-3.42487">
        <ele>63</ele>
        <time>2015-01-04T10:31:54Z</time>
      </trkpt>
      <trkpt lat="48.73339" lon="-3.42472">
        <ele>63</ele>
        <time>2015-01-04T10:31:56Z</time>
      </trkpt>
      <trkpt lat="48.7334" lon="-3.4245">
        <ele>63</ele>
        <time>2015-01-04T10:31:59Z</time>
      </trkpt>
      <trkpt lat="48.73339" lon="-3.42442">
        <ele>63</ele>
        <time>2015-01-04T10:32:00Z</time>
      </trkpt>
      <trkpt lat="48.73339" lon="-3.42434">
        <ele>63</ele>
        <time>2015-01-04T10:32:01Z</time>
      </trkpt>
      <trkpt lat="48.73339" lon="-3.42411">
        <ele>63</ele>
        <time>2015-01-04T10:32:04Z</time>
      </trkpt>
      <trkpt lat="48.73339" lon="-3.42403">
        <ele>63</ele>
        <time>2015-01-04T10:32:05Z</time>
      </trkpt>
      <trkpt lat="48.73339" lon="-3.42396">
        <ele>63</ele>
        <time>2015-01-04T10:32:06Z</time>
      </trkpt>
      <trkpt lat="48.73339" lon="-3.42363">
        <ele>63</ele>
        <time>2015-01-04T10:32:10Z</time>
      </trkpt>
      <trkpt lat="48.73339" lon="-3.42334">
        <ele>63</ele>
        <time>2015-01-04T10:32:13Z</time>
      </trkpt>
      <trkpt lat="48.73339" lon="-3.42324">
        <ele>63</ele>
        <time>2015-01-04T10:32:14Z</time>
      </trkpt>
      <trkpt lat="48.73339" lon="-3.42303">
        <ele>63</ele>
        <time>2015-01-04T10:32:16Z</time>
      </trkpt>
      <trkpt lat="48.73338" lon="-3.42293">
        <ele>63</ele>
        <time>2015-01-04T10:32:17Z</time>
      </trkpt>
      <trkpt lat="48.73338" lon="-3.42283">
        <ele>63</ele>
        <time>2015-01-04T10:32:18Z</time>
      </trkpt>
      <trkpt lat="48.73338" lon="-3.42273">
        <ele>63</ele>
        <time>2015-01-04T10:32:19Z</time>
      </trkpt>
      <trkpt lat="48.73337" lon="-3.42262">
        <ele>63</ele>
        <time>2015-01-04T10:32:20Z</time>
      </trkpt>
      <trkpt lat="48.73336" lon="-3.42241">
        <ele>63</ele>
        <time>2015-01-04T10:32:22Z</time>
      </trkpt>
      <trkpt lat="48.73336" lon="-3.42231">
        <ele>63</ele>
        <time>2015-01-04T10:32:23Z</time>
      </trkpt>
      <trkpt lat="48.73336" lon="-3.4222">
        <ele>63</ele>
        <time>2015-01-04T10:32:24Z</time>
      </trkpt>
      <trkpt lat="48.73336" lon="-3.42209">
        <ele>63</ele>
        <time>2015-01-04T10:32:25Z</time>
      </trkpt>
      <trkpt lat="48.73336" lon="-3.42198">
        <ele>63</ele>
        <time>2015-01-04T10:32:26Z</time>
      </trkpt>
      <trkpt lat="48.73337" lon="-3.42187">
        <ele>63</ele>
        <time>2015-01-04T10:32:27Z</time>
      </trkpt>
      <trkpt lat="48.73339" lon="-3.42175">
        <ele>63</ele>
        <time>2015-01-04T10:32:28Z</time>
      </trkpt>
      <trkpt lat="48.73341" lon="-3.42164">
        <ele>63</ele>
        <time>2015-01-04T10:32:29Z</time>
      </trkpt>
      <trkpt lat="48.73344" lon="-3.42153">
        <ele>63</ele>
        <time>2015-01-04T10:32:30Z</time>
      </trkpt>
      <trkpt lat="48.73346" lon="-3.42141">
        <ele>63</ele>
        <time>2015-01-04T10:32:31Z</time>
      </trkpt>
      <trkpt lat="48.73349" lon="-3.42129">
        <ele>63</ele>
        <time>2015-01-04T10:32:32Z</time>
      </trkpt>
      <trkpt lat="48.73351" lon="-3.42118">
        <ele>63</ele>
        <time>2015-01-04T10:32:33Z</time>
      </trkpt>
      <trkpt lat="48.73354" lon="-3.42106">
        <ele>63</ele>
        <time>2015-01-04T10:32:34Z</time>
      </trkpt>
      <trkpt lat="48.73356" lon="-3.42093">
        <ele>63</ele>
        <time>2015-01-04T10:32:35Z</time>
      </trkpt>
      <trkpt lat="48.73358" lon="-3.42081">
        <ele>63</ele>
        <time>2015-01-04T10:32:36Z</time>
      </trkpt>
      <trkpt lat="48.73359" lon="-3.42067">
        <ele>63</ele>
        <time>2015-01-04T10:32:37Z</time>
      </trkpt>
      <trkpt lat="48.73359" lon="-3.42041">
        <ele>63</ele>
        <time>2015-01-04T10:32:39Z</time>
      </trkpt>
      <trkpt lat="48.73357" lon="-3.42028">
        <ele>62</ele>
        <time>2015-01-04T10:32:40Z</time>
      </trkpt>
      <trkpt lat="48.73355" lon="-3.42015">
        <ele>62</ele>
        <time>2015-01-04T10:32:41Z</time>
      </trkpt>
      <trkpt lat="48.73351" lon="-3.42003">
        <ele>62</ele>
        <time>2015-01-04T10:32:42Z</time>
      </trkpt>
      <trkpt lat="48.73346" lon="-3.41993">
        <ele>62</ele>
        <time>2015-01-04T10:32:43Z</time>
      </trkpt>
      <trkpt lat="48.73341" lon="-3.41984">
        <ele>62</ele>
        <time>2015-01-04T10:32:44Z</time>
      </trkpt>
      <trkpt lat="48.73335" lon="-3.41977">
        <ele>62</ele>
        <time>2015-01-04T10:32:45Z</time>
      </trkpt>
      <trkpt lat="48.73331" lon="-3.4197">
        <ele>62</ele>
        <time>2015-01-04T10:32:46Z</time>
      </trkpt>
      <trkpt lat="48.73326" lon="-3.41964">
        <ele>62</ele>
        <time>2015-01-04T10:32:47Z</time>
      </trkpt>
      <trkpt lat="48.73321" lon="-3.41959">
        <ele>62</ele>
        <time>2015-01-04T10:32:48Z</time>
      </trkpt>
      <trkpt lat="48.73316" lon="-3.41954">
        <ele>62</ele>
        <time>2015-01-04T10:32:49Z</time>
      </trkpt>
      <trkpt lat="48.73311" lon="-3.41949">
        <ele>62</ele>
        <time>2015-01-04T10:32:50Z</time>
      </trkpt>
      <trkpt lat="48.73306" lon="-3.41944">
        <ele>62</ele>
        <time>2015-01-04T10:32:51Z</time>
      </trkpt>
      <trkpt lat="48.73302" lon="-3.41939">
        <ele>62</ele>
        <time>2015-01-04T10:32:52Z</time>
      </trkpt>
      <trkpt lat="48.73298" lon="-3.41934">
        <ele>62</ele>
        <time>2015-01-04T10:32:53Z</time>
      </trkpt>
      <trkpt lat="48.73293" lon="-3.41928">
        <ele>62</ele>
        <time>2015-01-04T10:32:54Z</time>
      </trkpt>
      <trkpt lat="48.73289" lon="-3.41923">
        <ele>62</ele>
        <time>2015-01-04T10:32:55Z</time>
      </trkpt>
      <trkpt lat="48.73285" lon="-3.41917">
        <ele>62</ele>
        <time>2015-01-04T10:32:56Z</time>
      </trkpt>
      <trkpt lat="48.73282" lon="-3.41911">
        <ele>62</ele>
        <time>2015-01-04T10:32:57Z</time>
      </trkpt>
      <trkpt lat="48.73278" lon="-3.41904">
        <ele>62</ele>
        <time>2015-01-04T10:32:58Z</time>
      </trkpt>
      <trkpt lat="48.73275" lon="-3.41898">
        <ele>62</ele>
        <time>2015-01-04T10:32:59Z</time>
      </trkpt>
      <trkpt lat="48.73272" lon="-3.41891">
        <ele>62</ele>
        <time>2015-01-04T10:33:00Z</time>
      </trkpt>
      <trkpt lat="48.73269" lon="-3.41884">
        <ele>62</ele>
        <time>2015-01-04T10:33:01Z</time>
      </trkpt>
      <trkpt lat="48.73265" lon="-3.41877">
        <ele>62</ele>
        <time>2015-01-04T10:33:02Z</time>
      </trkpt>
      <trkpt lat="48.73263" lon="-3.4187">
        <ele>62</ele>
        <time>2015-01-04T10:33:03Z</time>
      </trkpt>
      <trkpt lat="48.7326" lon="-3.41863">
        <ele>62</ele>
        <time>2015-01-04T10:33:04Z</time>
      </trkpt>
      <trkpt lat="48.73257" lon="-3.41856">
        <ele>62</ele>
        <time>2015-01-04T10:33:05Z</time>
      </trkpt>
      <trkpt lat="48.73254" lon="-3.41849">
        <ele>62</ele>
        <time>2015-01-04T10:33:06Z</time>
      </trkpt>
      <trkpt lat="48.73251" lon="-3.41842">
        <ele>62</ele>
        <time>2015-01-04T10:33:07Z</time>
      </trkpt>
      <trkpt lat="48.73249" lon="-3.41834">
        <ele>63</ele>
        <time>2015-01-04T10:33:08Z</time>
      </trkpt>
      <trkpt lat="48.73247" lon="-3.41826">
        <ele>63</ele>
        <time>2015-01-04T10:33:09Z</time>
      </trkpt>
      <trkpt lat="48.73245" lon="-3.41818">
        <ele>63</ele>
        <time>2015-01-04T10:33:10Z</time>
      </trkpt>
      <trkpt lat="48.73243" lon="-3.4181">
        <ele>63</ele>
        <time>2015-01-04T10:33:11Z</time>
      </trkpt>
      <trkpt lat="48.73241" lon="-3.41801">
        <ele>64</ele>
        <time>2015-01-04T10:33:12Z</time>
      </trkpt>
      <trkpt lat="48.7324" lon="-3.41792">
        <ele>64</ele>
        <time>2015-01-04T10:33:13Z</time>
      </trkpt>
      <trkpt lat="48.73238" lon="-3.41784">
        <ele>64</ele>
        <time>2015-01-04T10:33:14Z</time>
      </trkpt>
      <trkpt lat="48.73237" lon="-3.41775">
        <ele>64</ele>
        <time>2015-01-04T10:33:15Z</time>
      </trkpt>
      <trkpt lat="48.73236" lon="-3.41767">
        <ele>64</ele>
        <time>2015-01-04T10:33:16Z</time>
      </trkpt>
      <trkpt lat="48.73234" lon="-3.41758">
        <ele>64</ele>
        <time>2015-01-04T10:33:17Z</time>
      </trkpt>
      <trkpt lat="48.73233" lon="-3.41749">
        <ele>64</ele>
        <time>2015-01-04T10:33:18Z</time>
      </trkpt>
      <trkpt lat="48.73232" lon="-3.4174">
        <ele>64</ele>
        <time>2015-01-04T10:33:19Z</time>
      </trkpt>
      <trkpt lat="48.7323" lon="-3.41731">
        <ele>64</ele>
        <time>2015-01-04T10:33:20Z</time>
      </trkpt>
      <trkpt lat="48.73228" lon="-3.41723">
        <ele>64</ele>
        <time>2015-01-04T10:33:21Z</time>
      </trkpt>
      <trkpt lat="48.73227" lon="-3.41714">
        <ele>65</ele>
        <time>2015-01-04T10:33:22Z</time>
      </trkpt>
      <trkpt lat="48.73225" lon="-3.41705">
        <ele>65</ele>
        <time>2015-01-04T10:33:23Z</time>
      </trkpt>
      <trkpt lat="48.73224" lon="-3.41697">
        <ele>65</ele>
        <time>2015-01-04T10:33:24Z</time>
      </trkpt>
      <trkpt lat="48.73222" lon="-3.41688">
        <ele>65</ele>
        <time>2015-01-04T10:33:25Z</time>
      </trkpt>
      <trkpt lat="48.7322" lon="-3.4168">
        <ele>65</ele>
        <time>2015-01-04T10:33:26Z</time>
      </trkpt>
      <trkpt lat="48.73219" lon="-3.41671">
        <ele>66</ele>
        <time>2015-01-04T10:33:27Z</time>
      </trkpt>
      <trkpt lat="48.73217" lon="-3.41663">
        <ele>66</ele>
        <time>2015-01-04T10:33:28Z</time>
      </trkpt>
      <trkpt lat="48.73215" lon="-3.41655">
        <ele>66</ele>
        <time>2015-01-04T10:33:29Z</time>
      </trkpt>
      <trkpt lat="48.73214" lon="-3.41646">
        <ele>66</ele>
        <time>2015-01-04T10:33:30Z</time>
      </trkpt>
      <trkpt lat="48.73212" lon="-3.41637">
        <ele>66</ele>
        <time>2015-01-04T10:33:31Z</time>
      </trkpt>
      <trkpt lat="48.73212" lon="-3.41629">
        <ele>67</ele>
        <time>2015-01-04T10:33:32Z</time>
      </trkpt>
      <trkpt lat="48.7321" lon="-3.4162">
        <ele>67</ele>
        <time>2015-01-04T10:33:33Z</time>
      </trkpt>
      <trkpt lat="48.73209" lon="-3.41611">
        <ele>67</ele>
        <time>2015-01-04T10:33:34Z</time>
      </trkpt>
      <trkpt lat="48.73208" lon="-3.41602">
        <ele>67</ele>
        <time>2015-01-04T10:33:35Z</time>
      </trkpt>
      <trkpt lat="48.73207" lon="-3.41593">
        <ele>67</ele>
        <time>2015-01-04T10:33:36Z</time>
      </trkpt>
      <trkpt lat="48.73208" lon="-3.41559">
        <ele>67</ele>
        <time>2015-01-04T10:33:40Z</time>
      </trkpt>
      <trkpt lat="48.73208" lon="-3.41551">
        <ele>68</ele>
        <time>2015-01-04T10:33:41Z</time>
      </trkpt>
      <trkpt lat="48.73209" lon="-3.41543">
        <ele>68</ele>
        <time>2015-01-04T10:33:42Z</time>
      </trkpt>
      <trkpt lat="48.7321" lon="-3.4152">
        <ele>69</ele>
        <time>2015-01-04T10:33:45Z</time>
      </trkpt>
      <trkpt lat="48.7321" lon="-3.41505">
        <ele>70</ele>
        <time>2015-01-04T10:33:47Z</time>
      </trkpt>
      <trkpt lat="48.73211" lon="-3.41497">
        <ele>70</ele>
        <time>2015-01-04T10:33:48Z</time>
      </trkpt>
      <trkpt lat="48.73211" lon="-3.41489">
        <ele>70</ele>
        <time>2015-01-04T10:33:49Z</time>
      </trkpt>
      <trkpt lat="48.73211" lon="-3.41482">
        <ele>71</ele>
        <time>2015-01-04T10:33:50Z</time>
      </trkpt>
      <trkpt lat="48.73212" lon="-3.41474">
        <ele>71</ele>
        <time>2015-01-04T10:33:51Z</time>
      </trkpt>
      <trkpt lat="48.73212" lon="-3.41459">
        <ele>71</ele>
        <time>2015-01-04T10:33:53Z</time>
      </trkpt>
      <trkpt lat="48.73213" lon="-3.41451">
        <ele>72</ele>
        <time>2015-01-04T10:33:54Z</time>
      </trkpt>
      <trkpt lat="48.73213" lon="-3.41443">
        <ele>72</ele>
        <time>2015-01-04T10:33:55Z</time>
      </trkpt>
      <trkpt lat="48.73214" lon="-3.41436">
        <ele>72</ele>
        <time>2015-01-04T10:33:56Z</time>
      </trkpt>
      <trkpt lat="48.73214" lon="-3.41428">
        <ele>72</ele>
        <time>2015-01-04T10:33:57Z</time>
      </trkpt>
      <trkpt lat="48.73214" lon="-3.41419">
        <ele>72</ele>
        <time>2015-01-04T10:33:58Z</time>
      </trkpt>
      <trkpt lat="48.73215" lon="-3.41411">
        <ele>73</ele>
        <time>2015-01-04T10:33:59Z</time>
      </trkpt>
      <trkpt lat="48.73215" lon="-3.41403">
        <ele>73</ele>
        <time>2015-01-04T10:34:00Z</time>
      </trkpt>
      <trkpt lat="48.73215" lon="-3.41359">
        <ele>73</ele>
        <time>2015-01-04T10:34:05Z</time>
      </trkpt>
      <trkpt lat="48.73215" lon="-3.41333">
        <ele>73</ele>
        <time>2015-01-04T10:34:08Z</time>
      </trkpt>
      <trkpt lat="48.73214" lon="-3.41324">
        <ele>73</ele>
        <time>2015-01-04T10:34:09Z</time>
      </trkpt>
      <trkpt lat="48.73214" lon="-3.41315">
        <ele>73</ele>
        <time>2015-01-04T10:34:10Z</time>
      </trkpt>
      <trkpt lat="48.73213" lon="-3.41306">
        <ele>73</ele>
        <time>2015-01-04T10:34:11Z</time>
      </trkpt>
      <trkpt lat="48.73213" lon="-3.41297">
        <ele>73</ele>
        <time>2015-01-04T10:34:12Z</time>
      </trkpt>
      <trkpt lat="48.73212" lon="-3.41289">
        <ele>73</ele>
        <time>2015-01-04T10:34:13Z</time>
      </trkpt>
      <trkpt lat="48.73212" lon="-3.4128">
        <ele>73</ele>
        <time>2015-01-04T10:34:14Z</time>
      </trkpt>
      <trkpt lat="48.73211" lon="-3.41271">
        <ele>73</ele>
        <time>2015-01-04T10:34:15Z</time>
      </trkpt>
      <trkpt lat="48.7321" lon="-3.41262">
        <ele>73</ele>
        <time>2015-01-04T10:34:16Z</time>
      </trkpt>
      <trkpt lat="48.73209" lon="-3.41254">
        <ele>73</ele>
        <time>2015-01-04T10:34:17Z</time>
      </trkpt>
      <trkpt lat="48.73209" lon="-3.41246">
        <ele>73</ele>
        <time>2015-01-04T10:34:18Z</time>
      </trkpt>
      <trkpt lat="48.73208" lon="-3.41237">
        <ele>73</ele>
        <time>2015-01-04T10:34:19Z</time>
      </trkpt>
      <trkpt lat="48.73207" lon="-3.41229">
        <ele>73</ele>
        <time>2015-01-04T10:34:20Z</time>
      </trkpt>
      <trkpt lat="48.73206" lon="-3.4122">
        <ele>73</ele>
        <time>2015-01-04T10:34:21Z</time>
      </trkpt>
      <trkpt lat="48.73205" lon="-3.41212">
        <ele>73</ele>
        <time>2015-01-04T10:34:22Z</time>
      </trkpt>
      <trkpt lat="48.73205" lon="-3.41205">
        <ele>73</ele>
        <time>2015-01-04T10:34:23Z</time>
      </trkpt>
      <trkpt lat="48.73204" lon="-3.41197">
        <ele>73</ele>
        <time>2015-01-04T10:34:24Z</time>
      </trkpt>
      <trkpt lat="48.73203" lon="-3.4119">
        <ele>73</ele>
        <time>2015-01-04T10:34:25Z</time>
      </trkpt>
      <trkpt lat="48.73203" lon="-3.41182">
        <ele>73</ele>
        <time>2015-01-04T10:34:26Z</time>
      </trkpt>
      <trkpt lat="48.73203" lon="-3.41175">
        <ele>73</ele>
        <time>2015-01-04T10:34:27Z</time>
      </trkpt>
      <trkpt lat="48.73202" lon="-3.41168">
        <ele>73</ele>
        <time>2015-01-04T10:34:28Z</time>
      </trkpt>
      <trkpt lat="48.73201" lon="-3.4116">
        <ele>73</ele>
        <time>2015-01-04T10:34:29Z</time>
      </trkpt>
      <trkpt lat="48.73201" lon="-3.41152">
        <ele>73</ele>
        <time>2015-01-04T10:34:30Z</time>
      </trkpt>
      <trkpt lat="48.732" lon="-3.41144">
        <ele>74</ele>
        <time>2015-01-04T10:34:31Z</time>
      </trkpt>
      <trkpt lat="48.73199" lon="-3.41136">
        <ele>74</ele>
        <time>2015-01-04T10:34:32Z</time>
      </trkpt>
      <trkpt lat="48.73198" lon="-3.41127">
        <ele>74</ele>
        <time>2015-01-04T10:34:33Z</time>
      </trkpt>
      <trkpt lat="48.73197" lon="-3.41119">
        <ele>74</ele>
        <time>2015-01-04T10:34:34Z</time>
      </trkpt>
      <trkpt lat="48.73196" lon="-3.4111">
        <ele>74</ele>
        <time>2015-01-04T10:34:35Z</time>
      </trkpt>
      <trkpt lat="48.73195" lon="-3.41101">
        <ele>75</ele>
        <time>2015-01-04T10:34:36Z</time>
      </trkpt>
      <trkpt lat="48.73194" lon="-3.41093">
        <ele>75</ele>
        <time>2015-01-04T10:34:37Z</time>
      </trkpt>
      <trkpt lat="48.73193" lon="-3.41085">
        <ele>75</ele>
        <time>2015-01-04T10:34:38Z</time>
      </trkpt>
      <trkpt lat="48.73191" lon="-3.41076">
        <ele>75</ele>
        <time>2015-01-04T10:34:39Z</time>
      </trkpt>
      <trkpt lat="48.7319" lon="-3.41068">
        <ele>75</ele>
        <time>2015-01-04T10:34:40Z</time>
      </trkpt>
      <trkpt lat="48.73189" lon="-3.41059">
        <ele>75</ele>
        <time>2015-01-04T10:34:41Z</time>
      </trkpt>
      <trkpt lat="48.73188" lon="-3.41051">
        <ele>75</ele>
        <time>2015-01-04T10:34:42Z</time>
      </trkpt>
      <trkpt lat="48.73186" lon="-3.41042">
        <ele>75</ele>
        <time>2015-01-04T10:34:43Z</time>
      </trkpt>
      <trkpt lat="48.73185" lon="-3.41034">
        <ele>75</ele>
        <time>2015-01-04T10:34:44Z</time>
      </trkpt>
      <trkpt lat="48.73183" lon="-3.41026">
        <ele>75</ele>
        <time>2015-01-04T10:34:45Z</time>
      </trkpt>
      <trkpt lat="48.73182" lon="-3.41017">
        <ele>76</ele>
        <time>2015-01-04T10:34:46Z</time>
      </trkpt>
      <trkpt lat="48.7318" lon="-3.41008">
        <ele>76</ele>
        <time>2015-01-04T10:34:47Z</time>
      </trkpt>
      <trkpt lat="48.73178" lon="-3.41">
        <ele>76</ele>
        <time>2015-01-04T10:34:48Z</time>
      </trkpt>
      <trkpt lat="48.73176" lon="-3.40991">
        <ele>76</ele>
        <time>2015-01-04T10:34:49Z</time>
      </trkpt>
      <trkpt lat="48.73175" lon="-3.40982">
        <ele>76</ele>
        <time>2015-01-04T10:34:50Z</time>
      </trkpt>
      <trkpt lat="48.73173" lon="-3.40973">
        <ele>76</ele>
        <time>2015-01-04T10:34:51Z</time>
      </trkpt>
      <trkpt lat="48.73171" lon="-3.40963">
        <ele>76</ele>
        <time>2015-01-04T10:34:52Z</time>
      </trkpt>
      <trkpt lat="48.73169" lon="-3.40954">
        <ele>76</ele>
        <time>2015-01-04T10:34:53Z</time>
      </trkpt>
      <trkpt lat="48.73167" lon="-3.40945">
        <ele>76</ele>
        <time>2015-01-04T10:34:54Z</time>
      </trkpt>
      <trkpt lat="48.73165" lon="-3.40935">
        <ele>76</ele>
        <time>2015-01-04T10:34:55Z</time>
      </trkpt>
      <trkpt lat="48.73163" lon="-3.40926">
        <ele>76</ele>
        <time>2015-01-04T10:34:56Z</time>
      </trkpt>
      <trkpt lat="48.73161" lon="-3.40916">
        <ele>76</ele>
        <time>2015-01-04T10:34:57Z</time>
      </trkpt>
      <trkpt lat="48.73159" lon="-3.40906">
        <ele>76</ele>
        <time>2015-01-04T10:34:58Z</time>
      </trkpt>
      <trkpt lat="48.73156" lon="-3.40897">
        <ele>76</ele>
        <time>2015-01-04T10:34:59Z</time>
      </trkpt>
      <trkpt lat="48.73154" lon="-3.40887">
        <ele>76</ele>
        <time>2015-01-04T10:35:00Z</time>
      </trkpt>
      <trkpt lat="48.73152" lon="-3.40878">
        <ele>76</ele>
        <time>2015-01-04T10:35:01Z</time>
      </trkpt>
      <trkpt lat="48.7315" lon="-3.40868">
        <ele>76</ele>
        <time>2015-01-04T10:35:02Z</time>
      </trkpt>
      <trkpt lat="48.73148" lon="-3.40858">
        <ele>76</ele>
        <time>2015-01-04T10:35:03Z</time>
      </trkpt>
      <trkpt lat="48.73146" lon="-3.40848">
        <ele>76</ele>
        <time>2015-01-04T10:35:04Z</time>
      </trkpt>
      <trkpt lat="48.73143" lon="-3.40839">
        <ele>76</ele>
        <time>2015-01-04T10:35:05Z</time>
      </trkpt>
      <trkpt lat="48.73141" lon="-3.40829">
        <ele>76</ele>
        <time>2015-01-04T10:35:06Z</time>
      </trkpt>
      <trkpt lat="48.73139" lon="-3.4082">
        <ele>76</ele>
        <time>2015-01-04T10:35:07Z</time>
      </trkpt>
      <trkpt lat="48.73137" lon="-3.4081">
        <ele>76</ele>
        <time>2015-01-04T10:35:08Z</time>
      </trkpt>
      <trkpt lat="48.73134" lon="-3.40801">
        <ele>76</ele>
        <time>2015-01-04T10:35:09Z</time>
      </trkpt>
      <trkpt lat="48.73132" lon="-3.40791">
        <ele>76</ele>
        <time>2015-01-04T10:35:10Z</time>
      </trkpt>
      <trkpt lat="48.7313" lon="-3.40782">
        <ele>76</ele>
        <time>2015-01-04T10:35:11Z</time>
      </trkpt>
      <trkpt lat="48.73128" lon="-3.40773">
        <ele>76</ele>
        <time>2015-01-04T10:35:12Z</time>
      </trkpt>
      <trkpt lat="48.73126" lon="-3.40763">
        <ele>77</ele>
        <time>2015-01-04T10:35:13Z</time>
      </trkpt>
      <trkpt lat="48.73124" lon="-3.40754">
        <ele>77</ele>
        <time>2015-01-04T10:35:14Z</time>
      </trkpt>
      <trkpt lat="48.73122" lon="-3.40745">
        <ele>77</ele>
        <time>2015-01-04T10:35:15Z</time>
      </trkpt>
      <trkpt lat="48.73119" lon="-3.40735">
        <ele>77</ele>
        <time>2015-01-04T10:35:16Z</time>
      </trkpt>
      <trkpt lat="48.73117" lon="-3.40726">
        <ele>77</ele>
        <time>2015-01-04T10:35:17Z</time>
      </trkpt>
      <trkpt lat="48.73114" lon="-3.40717">
        <ele>77</ele>
        <time>2015-01-04T10:35:18Z</time>
      </trkpt>
      <trkpt lat="48.73112" lon="-3.40708">
        <ele>77</ele>
        <time>2015-01-04T10:35:19Z</time>
      </trkpt>
      <trkpt lat="48.73109" lon="-3.407">
        <ele>77</ele>
        <time>2015-01-04T10:35:20Z</time>
      </trkpt>
      <trkpt lat="48.73106" lon="-3.40692">
        <ele>77</ele>
        <time>2015-01-04T10:35:21Z</time>
      </trkpt>
      <trkpt lat="48.73103" lon="-3.40685">
        <ele>78</ele>
        <time>2015-01-04T10:35:22Z</time>
      </trkpt>
      <trkpt lat="48.731" lon="-3.40677">
        <ele>78</ele>
        <time>2015-01-04T10:35:23Z</time>
      </trkpt>
      <trkpt lat="48.73096" lon="-3.4067">
        <ele>78</ele>
        <time>2015-01-04T10:35:24Z</time>
      </trkpt>
      <trkpt lat="48.73093" lon="-3.40663">
        <ele>78</ele>
        <time>2015-01-04T10:35:25Z</time>
      </trkpt>
      <trkpt lat="48.73089" lon="-3.40657">
        <ele>79</ele>
        <time>2015-01-04T10:35:26Z</time>
      </trkpt>
      <trkpt lat="48.73086" lon="-3.4065">
        <ele>79</ele>
        <time>2015-01-04T10:35:27Z</time>
      </trkpt>
      <trkpt lat="48.73082" lon="-3.40643">
        <ele>79</ele>
        <time>2015-01-04T10:35:28Z</time>
      </trkpt>
      <trkpt lat="48.73079" lon="-3.40636">
        <ele>79</ele>
        <time>2015-01-04T10:35:29Z</time>
      </trkpt>
      <trkpt lat="48.73075" lon="-3.40629">
        <ele>79</ele>
        <time>2015-01-04T10:35:30Z</time>
      </trkpt>
      <trkpt lat="48.73072" lon="-3.40622">
        <ele>80</ele>
        <time>2015-01-04T10:35:31Z</time>
      </trkpt>
      <trkpt lat="48.73069" lon="-3.40615">
        <ele>80</ele>
        <time>2015-01-04T10:35:32Z</time>
      </trkpt>
      <trkpt lat="48.73066" lon="-3.40607">
        <ele>80</ele>
        <time>2015-01-04T10:35:33Z</time>
      </trkpt>
      <trkpt lat="48.73063" lon="-3.406">
        <ele>80</ele>
        <time>2015-01-04T10:35:34Z</time>
      </trkpt>
      <trkpt lat="48.73061" lon="-3.40592">
        <ele>80</ele>
        <time>2015-01-04T10:35:35Z</time>
      </trkpt>
      <trkpt lat="48.73058" lon="-3.40584">
        <ele>80</ele>
        <time>2015-01-04T10:35:36Z</time>
      </trkpt>
      <trkpt lat="48.73057" lon="-3.40576">
        <ele>80</ele>
        <time>2015-01-04T10:35:37Z</time>
      </trkpt>
      <trkpt lat="48.73055" lon="-3.40567">
        <ele>81</ele>
        <time>2015-01-04T10:35:38Z</time>
      </trkpt>
      <trkpt lat="48.73054" lon="-3.40558">
        <ele>81</ele>
        <time>2015-01-04T10:35:39Z</time>
      </trkpt>
      <trkpt lat="48.73053" lon="-3.40549">
        <ele>81</ele>
        <time>2015-01-04T10:35:40Z</time>
      </trkpt>
      <trkpt lat="48.73053" lon="-3.4054">
        <ele>81</ele>
        <time>2015-01-04T10:35:41Z</time>
      </trkpt>
      <trkpt lat="48.73053" lon="-3.40504">
        <ele>81</ele>
        <time>2015-01-04T10:35:45Z</time>
      </trkpt>
      <trkpt lat="48.73053" lon="-3.40477">
        <ele>81</ele>
        <time>2015-01-04T10:35:48Z</time>
      </trkpt>
      <trkpt lat="48.73052" lon="-3.40468">
        <ele>81</ele>
        <time>2015-01-04T10:35:49Z</time>
      </trkpt>
      <trkpt lat="48.73051" lon="-3.40458">
        <ele>81</ele>
        <time>2015-01-04T10:35:50Z</time>
      </trkpt>
      <trkpt lat="48.7305" lon="-3.40449">
        <ele>81</ele>
        <time>2015-01-04T10:35:51Z</time>
      </trkpt>
      <trkpt lat="48.73048" lon="-3.4044">
        <ele>81</ele>
        <time>2015-01-04T10:35:52Z</time>
      </trkpt>
      <trkpt lat="48.73046" lon="-3.40431">
        <ele>81</ele>
        <time>2015-01-04T10:35:53Z</time>
      </trkpt>
      <trkpt lat="48.73044" lon="-3.40422">
        <ele>81</ele>
        <time>2015-01-04T10:35:54Z</time>
      </trkpt>
      <trkpt lat="48.73041" lon="-3.40413">
        <ele>81</ele>
        <time>2015-01-04T10:35:55Z</time>
      </trkpt>
      <trkpt lat="48.73038" lon="-3.40404">
        <ele>81</ele>
        <time>2015-01-04T10:35:56Z</time>
      </trkpt>
      <trkpt lat="48.73035" lon="-3.40395">
        <ele>81</ele>
        <time>2015-01-04T10:35:57Z</time>
      </trkpt>
      <trkpt lat="48.73032" lon="-3.40386">
        <ele>81</ele>
        <time>2015-01-04T10:35:58Z</time>
      </trkpt>
      <trkpt lat="48.7303" lon="-3.40376">
        <ele>81</ele>
        <time>2015-01-04T10:35:59Z</time>
      </trkpt>
      <trkpt lat="48.73027" lon="-3.40367">
        <ele>81</ele>
        <time>2015-01-04T10:36:00Z</time>
      </trkpt>
      <trkpt lat="48.73024" lon="-3.40358">
        <ele>81</ele>
        <time>2015-01-04T10:36:01Z</time>
      </trkpt>
      <trkpt lat="48.73022" lon="-3.40348">
        <ele>81</ele>
        <time>2015-01-04T10:36:02Z</time>
      </trkpt>
      <trkpt lat="48.7302" lon="-3.40338">
        <ele>81</ele>
        <time>2015-01-04T10:36:03Z</time>
      </trkpt>
      <trkpt lat="48.73018" lon="-3.40328">
        <ele>81</ele>
        <time>2015-01-04T10:36:04Z</time>
      </trkpt>
      <trkpt lat="48.73017" lon="-3.40318">
        <ele>81</ele>
        <time>2015-01-04T10:36:05Z</time>
      </trkpt>
      <trkpt lat="48.73016" lon="-3.40307">
        <ele>81</ele>
        <time>2015-01-04T10:36:06Z</time>
      </trkpt>
      <trkpt lat="48.73015" lon="-3.40296">
        <ele>81</ele>
        <time>2015-01-04T10:36:07Z</time>
      </trkpt>
      <trkpt lat="48.73014" lon="-3.40285">
        <ele>81</ele>
        <time>2015-01-04T10:36:08Z</time>
      </trkpt>
      <trkpt lat="48.73014" lon="-3.40274">
        <ele>81</ele>
        <time>2015-01-04T10:36:09Z</time>
      </trkpt>
      <trkpt lat="48.73013" lon="-3.40263">
        <ele>81</ele>
        <time>2015-01-04T10:36:10Z</time>
      </trkpt>
      <trkpt lat="48.73012" lon="-3.40252">
        <ele>81</ele>
        <time>2015-01-04T10:36:11Z</time>
      </trkpt>
      <trkpt lat="48.7301" lon="-3.40241">
        <ele>81</ele>
        <time>2015-01-04T10:36:12Z</time>
      </trkpt>
      <trkpt lat="48.73009" lon="-3.4023">
        <ele>81</ele>
        <time>2015-01-04T10:36:13Z</time>
      </trkpt>
      <trkpt lat="48.73006" lon="-3.40219">
        <ele>81</ele>
        <time>2015-01-04T10:36:14Z</time>
      </trkpt>
      <trkpt lat="48.73004" lon="-3.40207">
        <ele>81</ele>
        <time>2015-01-04T10:36:15Z</time>
      </trkpt>
      <trkpt lat="48.73001" lon="-3.40196">
        <ele>81</ele>
        <time>2015-01-04T10:36:16Z</time>
      </trkpt>
      <trkpt lat="48.72998" lon="-3.40185">
        <ele>81</ele>
        <time>2015-01-04T10:36:17Z</time>
      </trkpt>
      <trkpt lat="48.72995" lon="-3.40174">
        <ele>81</ele>
        <time>2015-01-04T10:36:18Z</time>
      </trkpt>
      <trkpt lat="48.72992" lon="-3.40163">
        <ele>81</ele>
        <time>2015-01-04T10:36:19Z</time>
      </trkpt>
      <trkpt lat="48.72989" lon="-3.40152">
        <ele>81</ele>
        <time>2015-01-04T10:36:20Z</time>
      </trkpt>
      <trkpt lat="48.72986" lon="-3.40141">
        <ele>81</ele>
        <time>2015-01-04T10:36:21Z</time>
      </trkpt>
      <trkpt lat="48.72984" lon="-3.4013">
        <ele>81</ele>
        <time>2015-01-04T10:36:22Z</time>
      </trkpt>
      <trkpt lat="48.72983" lon="-3.40119">
        <ele>81</ele>
        <time>2015-01-04T10:36:23Z</time>
      </trkpt>
      <trkpt lat="48.72982" lon="-3.40108">
        <ele>81</ele>
        <time>2015-01-04T10:36:24Z</time>
      </trkpt>
      <trkpt lat="48.7298" lon="-3.40097">
        <ele>81</ele>
        <time>2015-01-04T10:36:25Z</time>
      </trkpt>
      <trkpt lat="48.72979" lon="-3.40086">
        <ele>81</ele>
        <time>2015-01-04T10:36:26Z</time>
      </trkpt>
      <trkpt lat="48.72978" lon="-3.40074">
        <ele>81</ele>
        <time>2015-01-04T10:36:27Z</time>
      </trkpt>
      <trkpt lat="48.72977" lon="-3.40063">
        <ele>81</ele>
        <time>2015-01-04T10:36:28Z</time>
      </trkpt>
      <trkpt lat="48.72976" lon="-3.40052">
        <ele>81</ele>
        <time>2015-01-04T10:36:29Z</time>
      </trkpt>
      <trkpt lat="48.72974" lon="-3.40041">
        <ele>81</ele>
        <time>2015-01-04T10:36:30Z</time>
      </trkpt>
      <trkpt lat="48.72972" lon="-3.40031">
        <ele>81</ele>
        <time>2015-01-04T10:36:31Z</time>
      </trkpt>
      <trkpt lat="48.7297" lon="-3.4002">
        <ele>81</ele>
        <time>2015-01-04T10:36:32Z</time>
      </trkpt>
      <trkpt lat="48.72968" lon="-3.40009">
        <ele>81</ele>
        <time>2015-01-04T10:36:33Z</time>
      </trkpt>
      <trkpt lat="48.72965" lon="-3.39999">
        <ele>81</ele>
        <time>2015-01-04T10:36:34Z</time>
      </trkpt>
      <trkpt lat="48.72962" lon="-3.39988">
        <ele>81</ele>
        <time>2015-01-04T10:36:35Z</time>
      </trkpt>
      <trkpt lat="48.72959" lon="-3.39978">
        <ele>81</ele>
        <time>2015-01-04T10:36:36Z</time>
      </trkpt>
      <trkpt lat="48.72956" lon="-3.39967">
        <ele>81</ele>
        <time>2015-01-04T10:36:37Z</time>
      </trkpt>
      <trkpt lat="48.72953" lon="-3.39957">
        <ele>81</ele>
        <time>2015-01-04T10:36:38Z</time>
      </trkpt>
      <trkpt lat="48.7295" lon="-3.39947">
        <ele>81</ele>
        <time>2015-01-04T10:36:39Z</time>
      </trkpt>
      <trkpt lat="48.72947" lon="-3.39936">
        <ele>81</ele>
        <time>2015-01-04T10:36:40Z</time>
      </trkpt>
      <trkpt lat="48.72943" lon="-3.39926">
        <ele>82</ele>
        <time>2015-01-04T10:36:41Z</time>
      </trkpt>
      <trkpt lat="48.7294" lon="-3.39915">
        <ele>82</ele>
        <time>2015-01-04T10:36:42Z</time>
      </trkpt>
      <trkpt lat="48.72936" lon="-3.39905">
        <ele>82</ele>
        <time>2015-01-04T10:36:43Z</time>
      </trkpt>
      <trkpt lat="48.72906" lon="-3.38543">
        <ele>81</ele>
        <time>2015-01-04T10:39:05Z</time>
      </trkpt>
    </trkseg>
  </trk>
</gpx>